<?xml version="1.0" encoding="UTF-8" standalone="no" ?>
<gpx xmlns="http://www.topografix.com/GPX/1/1" xmlns:xsi="http://www.w3.org/2001/XMLSchema-instance" xsi:schemaLocation="http://www.topografix.com/GPX/1/1 http://www.topografix.com/GPX/1/1/gpx.xsd" version="1.1" creator="VisuGPX - https://www.visugpx.com">
  <metadata>
    <name>Montagne de Lure</name>
    <desc><![CDATA[Aller retour au départ de Laragne jusqu'à la Montagne de Lure (altitude 1749 m).
Joli parcours de 109 km avec comme particularité la montée de 26 km pour atteindre la montagne de Lure (appelé par certains cyclistes le petit Ventoux).]]></desc>
  </metadata>
  <trk>
    <name><![CDATA[Montagne de Lure]]></name>
    <trkseg>
      <trkpt lat="44.31591" lon="5.82971">
        <ele>583</ele>
        <time>2019-08-09T05:54:57Z</time>
      </trkpt>
      <trkpt lat="44.31583" lon="5.82933">
        <ele>577</ele>
        <time>2019-08-09T05:55:25Z</time>
      </trkpt>
      <trkpt lat="44.3158" lon="5.82931">
        <ele>576</ele>
        <time>2019-08-09T05:55:26Z</time>
      </trkpt>
      <trkpt lat="44.31577" lon="5.8293">
        <ele>576</ele>
        <time>2019-08-09T05:55:27Z</time>
      </trkpt>
      <trkpt lat="44.31574" lon="5.82929">
        <ele>576</ele>
        <time>2019-08-09T05:55:28Z</time>
      </trkpt>
      <trkpt lat="44.31571" lon="5.82927">
        <ele>576</ele>
        <time>2019-08-09T05:55:29Z</time>
      </trkpt>
      <trkpt lat="44.31568" lon="5.82925">
        <ele>575</ele>
        <time>2019-08-09T05:55:30Z</time>
      </trkpt>
      <trkpt lat="44.31566" lon="5.82923">
        <ele>575</ele>
        <time>2019-08-09T05:55:31Z</time>
      </trkpt>
      <trkpt lat="44.31564" lon="5.82922">
        <ele>575</ele>
        <time>2019-08-09T05:55:32Z</time>
      </trkpt>
      <trkpt lat="44.31562" lon="5.8292">
        <ele>575</ele>
        <time>2019-08-09T05:55:33Z</time>
      </trkpt>
      <trkpt lat="44.31561" lon="5.82919">
        <ele>575</ele>
        <time>2019-08-09T05:55:34Z</time>
      </trkpt>
      <trkpt lat="44.31559" lon="5.82918">
        <ele>574</ele>
        <time>2019-08-09T05:55:35Z</time>
      </trkpt>
      <trkpt lat="44.31557" lon="5.82917">
        <ele>574</ele>
        <time>2019-08-09T05:55:36Z</time>
      </trkpt>
      <trkpt lat="44.31556" lon="5.82916">
        <ele>574</ele>
        <time>2019-08-09T05:55:37Z</time>
      </trkpt>
      <trkpt lat="44.31554" lon="5.82916">
        <ele>573</ele>
        <time>2019-08-09T05:55:39Z</time>
      </trkpt>
      <trkpt lat="44.31552" lon="5.82915">
        <ele>573</ele>
        <time>2019-08-09T05:55:41Z</time>
      </trkpt>
      <trkpt lat="44.3155" lon="5.82914">
        <ele>573</ele>
        <time>2019-08-09T05:55:42Z</time>
      </trkpt>
      <trkpt lat="44.31549" lon="5.82913">
        <ele>573</ele>
        <time>2019-08-09T05:55:43Z</time>
      </trkpt>
      <trkpt lat="44.31547" lon="5.82911">
        <ele>573</ele>
        <time>2019-08-09T05:55:44Z</time>
      </trkpt>
      <trkpt lat="44.31544" lon="5.82909">
        <ele>573</ele>
        <time>2019-08-09T05:55:45Z</time>
      </trkpt>
      <trkpt lat="44.31542" lon="5.82906">
        <ele>573</ele>
        <time>2019-08-09T05:55:46Z</time>
      </trkpt>
      <trkpt lat="44.31539" lon="5.82902">
        <ele>573</ele>
        <time>2019-08-09T05:55:47Z</time>
      </trkpt>
      <trkpt lat="44.31536" lon="5.82899">
        <ele>573</ele>
        <time>2019-08-09T05:55:48Z</time>
      </trkpt>
      <trkpt lat="44.31533" lon="5.82895">
        <ele>573</ele>
        <time>2019-08-09T05:55:49Z</time>
      </trkpt>
      <trkpt lat="44.3153" lon="5.82892">
        <ele>573</ele>
        <time>2019-08-09T05:55:50Z</time>
      </trkpt>
      <trkpt lat="44.31527" lon="5.82888">
        <ele>573</ele>
        <time>2019-08-09T05:55:51Z</time>
      </trkpt>
      <trkpt lat="44.31523" lon="5.82885">
        <ele>573</ele>
        <time>2019-08-09T05:55:51Z</time>
      </trkpt>
      <trkpt lat="44.31519" lon="5.82883">
        <ele>573</ele>
        <time>2019-08-09T05:55:53Z</time>
      </trkpt>
      <trkpt lat="44.31517" lon="5.8288">
        <ele>573</ele>
        <time>2019-08-09T05:55:54Z</time>
      </trkpt>
      <trkpt lat="44.31514" lon="5.82877">
        <ele>573</ele>
        <time>2019-08-09T05:55:55Z</time>
      </trkpt>
      <trkpt lat="44.31511" lon="5.82874">
        <ele>573</ele>
        <time>2019-08-09T05:55:56Z</time>
      </trkpt>
      <trkpt lat="44.31507" lon="5.82872">
        <ele>573</ele>
        <time>2019-08-09T05:55:57Z</time>
      </trkpt>
      <trkpt lat="44.31503" lon="5.82871">
        <ele>573</ele>
        <time>2019-08-09T05:55:58Z</time>
      </trkpt>
      <trkpt lat="44.31498" lon="5.82874">
        <ele>573</ele>
        <time>2019-08-09T05:55:59Z</time>
      </trkpt>
      <trkpt lat="44.31495" lon="5.82878">
        <ele>573</ele>
        <time>2019-08-09T05:56:00Z</time>
      </trkpt>
      <trkpt lat="44.31492" lon="5.82883">
        <ele>573</ele>
        <time>2019-08-09T05:56:01Z</time>
      </trkpt>
      <trkpt lat="44.31489" lon="5.82888">
        <ele>573</ele>
        <time>2019-08-09T05:56:02Z</time>
      </trkpt>
      <trkpt lat="44.31485" lon="5.82892">
        <ele>572</ele>
        <time>2019-08-09T05:56:03Z</time>
      </trkpt>
      <trkpt lat="44.31482" lon="5.82897">
        <ele>572</ele>
        <time>2019-08-09T05:56:04Z</time>
      </trkpt>
      <trkpt lat="44.31479" lon="5.82902">
        <ele>571</ele>
        <time>2019-08-09T05:56:05Z</time>
      </trkpt>
      <trkpt lat="44.31475" lon="5.82907">
        <ele>571</ele>
        <time>2019-08-09T05:56:06Z</time>
      </trkpt>
      <trkpt lat="44.31472" lon="5.82911">
        <ele>571</ele>
        <time>2019-08-09T05:56:07Z</time>
      </trkpt>
      <trkpt lat="44.31469" lon="5.82916">
        <ele>571</ele>
        <time>2019-08-09T05:56:08Z</time>
      </trkpt>
      <trkpt lat="44.31465" lon="5.8292">
        <ele>570</ele>
        <time>2019-08-09T05:56:09Z</time>
      </trkpt>
      <trkpt lat="44.31462" lon="5.82925">
        <ele>570</ele>
        <time>2019-08-09T05:56:10Z</time>
      </trkpt>
      <trkpt lat="44.31458" lon="5.82929">
        <ele>570</ele>
        <time>2019-08-09T05:56:11Z</time>
      </trkpt>
      <trkpt lat="44.31455" lon="5.82934">
        <ele>570</ele>
        <time>2019-08-09T05:56:12Z</time>
      </trkpt>
      <trkpt lat="44.31451" lon="5.8294">
        <ele>570</ele>
        <time>2019-08-09T05:56:13Z</time>
      </trkpt>
      <trkpt lat="44.31448" lon="5.82945">
        <ele>570</ele>
        <time>2019-08-09T05:56:14Z</time>
      </trkpt>
      <trkpt lat="44.31444" lon="5.8295">
        <ele>569</ele>
        <time>2019-08-09T05:56:15Z</time>
      </trkpt>
      <trkpt lat="44.3144" lon="5.82955">
        <ele>569</ele>
        <time>2019-08-09T05:56:16Z</time>
      </trkpt>
      <trkpt lat="44.31436" lon="5.82961">
        <ele>569</ele>
        <time>2019-08-09T05:56:17Z</time>
      </trkpt>
      <trkpt lat="44.31433" lon="5.82967">
        <ele>569</ele>
        <time>2019-08-09T05:56:18Z</time>
      </trkpt>
      <trkpt lat="44.31429" lon="5.82973">
        <ele>569</ele>
        <time>2019-08-09T05:56:19Z</time>
      </trkpt>
      <trkpt lat="44.31425" lon="5.82978">
        <ele>569</ele>
        <time>2019-08-09T05:56:20Z</time>
      </trkpt>
      <trkpt lat="44.31421" lon="5.82983">
        <ele>569</ele>
        <time>2019-08-09T05:56:21Z</time>
      </trkpt>
      <trkpt lat="44.31417" lon="5.82989">
        <ele>569</ele>
        <time>2019-08-09T05:56:22Z</time>
      </trkpt>
      <trkpt lat="44.31414" lon="5.82995">
        <ele>569</ele>
        <time>2019-08-09T05:56:23Z</time>
      </trkpt>
      <trkpt lat="44.3141" lon="5.83001">
        <ele>569</ele>
        <time>2019-08-09T05:56:24Z</time>
      </trkpt>
      <trkpt lat="44.31406" lon="5.83007">
        <ele>569</ele>
        <time>2019-08-09T05:56:25Z</time>
      </trkpt>
      <trkpt lat="44.31402" lon="5.83013">
        <ele>569</ele>
        <time>2019-08-09T05:56:26Z</time>
      </trkpt>
      <trkpt lat="44.31398" lon="5.83018">
        <ele>569</ele>
        <time>2019-08-09T05:56:27Z</time>
      </trkpt>
      <trkpt lat="44.31394" lon="5.83024">
        <ele>569</ele>
        <time>2019-08-09T05:56:28Z</time>
      </trkpt>
      <trkpt lat="44.3139" lon="5.8303">
        <ele>569</ele>
        <time>2019-08-09T05:56:29Z</time>
      </trkpt>
      <trkpt lat="44.31385" lon="5.83035">
        <ele>569</ele>
        <time>2019-08-09T05:56:30Z</time>
      </trkpt>
      <trkpt lat="44.31382" lon="5.8304">
        <ele>569</ele>
        <time>2019-08-09T05:56:31Z</time>
      </trkpt>
      <trkpt lat="44.31377" lon="5.83046">
        <ele>569</ele>
        <time>2019-08-09T05:56:32Z</time>
      </trkpt>
      <trkpt lat="44.31374" lon="5.83051">
        <ele>569</ele>
        <time>2019-08-09T05:56:33Z</time>
      </trkpt>
      <trkpt lat="44.31371" lon="5.83057">
        <ele>569</ele>
        <time>2019-08-09T05:56:34Z</time>
      </trkpt>
      <trkpt lat="44.31369" lon="5.83063">
        <ele>569</ele>
        <time>2019-08-09T05:56:35Z</time>
      </trkpt>
      <trkpt lat="44.31366" lon="5.83068">
        <ele>569</ele>
        <time>2019-08-09T05:56:36Z</time>
      </trkpt>
      <trkpt lat="44.31363" lon="5.83074">
        <ele>569</ele>
        <time>2019-08-09T05:56:37Z</time>
      </trkpt>
      <trkpt lat="44.31361" lon="5.8308">
        <ele>569</ele>
        <time>2019-08-09T05:56:38Z</time>
      </trkpt>
      <trkpt lat="44.31358" lon="5.83085">
        <ele>569</ele>
        <time>2019-08-09T05:56:39Z</time>
      </trkpt>
      <trkpt lat="44.31356" lon="5.83091">
        <ele>569</ele>
        <time>2019-08-09T05:56:39Z</time>
      </trkpt>
      <trkpt lat="44.31355" lon="5.83095">
        <ele>569</ele>
        <time>2019-08-09T05:56:41Z</time>
      </trkpt>
      <trkpt lat="44.31353" lon="5.83099">
        <ele>569</ele>
        <time>2019-08-09T05:56:42Z</time>
      </trkpt>
      <trkpt lat="44.31352" lon="5.83102">
        <ele>569</ele>
        <time>2019-08-09T05:56:43Z</time>
      </trkpt>
      <trkpt lat="44.31349" lon="5.83103">
        <ele>569</ele>
        <time>2019-08-09T05:56:44Z</time>
      </trkpt>
      <trkpt lat="44.31348" lon="5.831">
        <ele>569</ele>
        <time>2019-08-09T05:56:45Z</time>
      </trkpt>
      <trkpt lat="44.31348" lon="5.83097">
        <ele>569</ele>
        <time>2019-08-09T05:56:45Z</time>
      </trkpt>
      <trkpt lat="44.31348" lon="5.83094">
        <ele>569</ele>
        <time>2019-08-09T05:56:47Z</time>
      </trkpt>
      <trkpt lat="44.31348" lon="5.83091">
        <ele>569</ele>
        <time>2019-08-09T05:56:48Z</time>
      </trkpt>
      <trkpt lat="44.31348" lon="5.83088">
        <ele>569</ele>
        <time>2019-08-09T05:56:49Z</time>
      </trkpt>
      <trkpt lat="44.31348" lon="5.83084">
        <ele>569</ele>
        <time>2019-08-09T05:56:50Z</time>
      </trkpt>
      <trkpt lat="44.31348" lon="5.83079">
        <ele>569</ele>
        <time>2019-08-09T05:56:51Z</time>
      </trkpt>
      <trkpt lat="44.31347" lon="5.83076">
        <ele>569</ele>
        <time>2019-08-09T05:56:52Z</time>
      </trkpt>
      <trkpt lat="44.31347" lon="5.83071">
        <ele>569</ele>
        <time>2019-08-09T05:56:53Z</time>
      </trkpt>
      <trkpt lat="44.31348" lon="5.83067">
        <ele>569</ele>
        <time>2019-08-09T05:56:54Z</time>
      </trkpt>
      <trkpt lat="44.31348" lon="5.83061">
        <ele>569</ele>
        <time>2019-08-09T05:56:55Z</time>
      </trkpt>
      <trkpt lat="44.3135" lon="5.83055">
        <ele>569</ele>
        <time>2019-08-09T05:56:55Z</time>
      </trkpt>
      <trkpt lat="44.31351" lon="5.83049">
        <ele>569</ele>
        <time>2019-08-09T05:56:57Z</time>
      </trkpt>
      <trkpt lat="44.31352" lon="5.83042">
        <ele>569</ele>
        <time>2019-08-09T05:56:58Z</time>
      </trkpt>
      <trkpt lat="44.31353" lon="5.83035">
        <ele>569</ele>
        <time>2019-08-09T05:56:59Z</time>
      </trkpt>
      <trkpt lat="44.31354" lon="5.83028">
        <ele>569</ele>
        <time>2019-08-09T05:57:00Z</time>
      </trkpt>
      <trkpt lat="44.31355" lon="5.83021">
        <ele>569</ele>
        <time>2019-08-09T05:57:01Z</time>
      </trkpt>
      <trkpt lat="44.31356" lon="5.83013">
        <ele>569</ele>
        <time>2019-08-09T05:57:02Z</time>
      </trkpt>
      <trkpt lat="44.31357" lon="5.83006">
        <ele>569</ele>
        <time>2019-08-09T05:57:03Z</time>
      </trkpt>
      <trkpt lat="44.31358" lon="5.82998">
        <ele>569</ele>
        <time>2019-08-09T05:57:04Z</time>
      </trkpt>
      <trkpt lat="44.31359" lon="5.8299">
        <ele>569</ele>
        <time>2019-08-09T05:57:05Z</time>
      </trkpt>
      <trkpt lat="44.3136" lon="5.82981">
        <ele>569</ele>
        <time>2019-08-09T05:57:06Z</time>
      </trkpt>
      <trkpt lat="44.31361" lon="5.82972">
        <ele>569</ele>
        <time>2019-08-09T05:57:07Z</time>
      </trkpt>
      <trkpt lat="44.31362" lon="5.82963">
        <ele>569</ele>
        <time>2019-08-09T05:57:08Z</time>
      </trkpt>
      <trkpt lat="44.31364" lon="5.82955">
        <ele>569</ele>
        <time>2019-08-09T05:57:08Z</time>
      </trkpt>
      <trkpt lat="44.31364" lon="5.82945">
        <ele>569</ele>
        <time>2019-08-09T05:57:10Z</time>
      </trkpt>
      <trkpt lat="44.31366" lon="5.82936">
        <ele>569</ele>
        <time>2019-08-09T05:57:11Z</time>
      </trkpt>
      <trkpt lat="44.31367" lon="5.82926">
        <ele>569</ele>
        <time>2019-08-09T05:57:12Z</time>
      </trkpt>
      <trkpt lat="44.31368" lon="5.82917">
        <ele>569</ele>
        <time>2019-08-09T05:57:13Z</time>
      </trkpt>
      <trkpt lat="44.31369" lon="5.82908">
        <ele>569</ele>
        <time>2019-08-09T05:57:14Z</time>
      </trkpt>
      <trkpt lat="44.3137" lon="5.82899">
        <ele>568</ele>
        <time>2019-08-09T05:57:15Z</time>
      </trkpt>
      <trkpt lat="44.3137" lon="5.8289">
        <ele>568</ele>
        <time>2019-08-09T05:57:15Z</time>
      </trkpt>
      <trkpt lat="44.31372" lon="5.82882">
        <ele>568</ele>
        <time>2019-08-09T05:57:17Z</time>
      </trkpt>
      <trkpt lat="44.31373" lon="5.82874">
        <ele>567</ele>
        <time>2019-08-09T05:57:18Z</time>
      </trkpt>
      <trkpt lat="44.31373" lon="5.82866">
        <ele>567</ele>
        <time>2019-08-09T05:57:19Z</time>
      </trkpt>
      <trkpt lat="44.31374" lon="5.82856">
        <ele>566</ele>
        <time>2019-08-09T05:57:20Z</time>
      </trkpt>
      <trkpt lat="44.31374" lon="5.82847">
        <ele>566</ele>
        <time>2019-08-09T05:57:21Z</time>
      </trkpt>
      <trkpt lat="44.31375" lon="5.82838">
        <ele>566</ele>
        <time>2019-08-09T05:57:22Z</time>
      </trkpt>
      <trkpt lat="44.31376" lon="5.8283">
        <ele>566</ele>
        <time>2019-08-09T05:57:23Z</time>
      </trkpt>
      <trkpt lat="44.31376" lon="5.82821">
        <ele>566</ele>
        <time>2019-08-09T05:57:24Z</time>
      </trkpt>
      <trkpt lat="44.31377" lon="5.82812">
        <ele>566</ele>
        <time>2019-08-09T05:57:25Z</time>
      </trkpt>
      <trkpt lat="44.31377" lon="5.82804">
        <ele>566</ele>
        <time>2019-08-09T05:57:26Z</time>
      </trkpt>
      <trkpt lat="44.31378" lon="5.82795">
        <ele>566</ele>
        <time>2019-08-09T05:57:27Z</time>
      </trkpt>
      <trkpt lat="44.31378" lon="5.82786">
        <ele>566</ele>
        <time>2019-08-09T05:57:28Z</time>
      </trkpt>
      <trkpt lat="44.31378" lon="5.82777">
        <ele>566</ele>
        <time>2019-08-09T05:57:29Z</time>
      </trkpt>
      <trkpt lat="44.31379" lon="5.82769">
        <ele>566</ele>
        <time>2019-08-09T05:57:30Z</time>
      </trkpt>
      <trkpt lat="44.31379" lon="5.8276">
        <ele>566</ele>
        <time>2019-08-09T05:57:31Z</time>
      </trkpt>
      <trkpt lat="44.31379" lon="5.82752">
        <ele>566</ele>
        <time>2019-08-09T05:57:32Z</time>
      </trkpt>
      <trkpt lat="44.31378" lon="5.82744">
        <ele>566</ele>
        <time>2019-08-09T05:57:33Z</time>
      </trkpt>
      <trkpt lat="44.31378" lon="5.82735">
        <ele>566</ele>
        <time>2019-08-09T05:57:34Z</time>
      </trkpt>
      <trkpt lat="44.31378" lon="5.82728">
        <ele>566</ele>
        <time>2019-08-09T05:57:35Z</time>
      </trkpt>
      <trkpt lat="44.31378" lon="5.8272">
        <ele>566</ele>
        <time>2019-08-09T05:57:36Z</time>
      </trkpt>
      <trkpt lat="44.31377" lon="5.82713">
        <ele>566</ele>
        <time>2019-08-09T05:57:37Z</time>
      </trkpt>
      <trkpt lat="44.31377" lon="5.82707">
        <ele>566</ele>
        <time>2019-08-09T05:57:38Z</time>
      </trkpt>
      <trkpt lat="44.31376" lon="5.82703">
        <ele>566</ele>
        <time>2019-08-09T05:57:39Z</time>
      </trkpt>
      <trkpt lat="44.31377" lon="5.827">
        <ele>566</ele>
        <time>2019-08-09T05:57:39Z</time>
      </trkpt>
      <trkpt lat="44.31376" lon="5.82696">
        <ele>566</ele>
        <time>2019-08-09T05:57:41Z</time>
      </trkpt>
      <trkpt lat="44.31376" lon="5.82692">
        <ele>566</ele>
        <time>2019-08-09T05:57:42Z</time>
      </trkpt>
      <trkpt lat="44.31374" lon="5.82689">
        <ele>566</ele>
        <time>2019-08-09T05:57:42Z</time>
      </trkpt>
      <trkpt lat="44.31371" lon="5.82686">
        <ele>566</ele>
        <time>2019-08-09T05:57:44Z</time>
      </trkpt>
      <trkpt lat="44.31368" lon="5.82684">
        <ele>566</ele>
        <time>2019-08-09T05:57:44Z</time>
      </trkpt>
      <trkpt lat="44.31365" lon="5.82682">
        <ele>566</ele>
        <time>2019-08-09T05:57:46Z</time>
      </trkpt>
      <trkpt lat="44.31361" lon="5.8268">
        <ele>566</ele>
        <time>2019-08-09T05:57:47Z</time>
      </trkpt>
      <trkpt lat="44.31358" lon="5.82679">
        <ele>566</ele>
        <time>2019-08-09T05:57:47Z</time>
      </trkpt>
      <trkpt lat="44.31356" lon="5.82679">
        <ele>566</ele>
        <time>2019-08-09T05:57:48Z</time>
      </trkpt>
      <trkpt lat="44.31353" lon="5.8268">
        <ele>566</ele>
        <time>2019-08-09T05:57:49Z</time>
      </trkpt>
      <trkpt lat="44.31352" lon="5.82681">
        <ele>566</ele>
        <time>2019-08-09T05:57:50Z</time>
      </trkpt>
      <trkpt lat="44.31351" lon="5.82683">
        <ele>566</ele>
        <time>2019-08-09T05:57:53Z</time>
      </trkpt>
      <trkpt lat="44.31353" lon="5.82683">
        <ele>566</ele>
        <time>2019-08-09T05:57:54Z</time>
      </trkpt>
      <trkpt lat="44.31352" lon="5.82685">
        <ele>566</ele>
        <time>2019-08-09T05:57:58Z</time>
      </trkpt>
      <trkpt lat="44.31351" lon="5.82686">
        <ele>566</ele>
        <time>2019-08-09T05:57:58Z</time>
      </trkpt>
      <trkpt lat="44.31349" lon="5.82687">
        <ele>566</ele>
        <time>2019-08-09T05:58:00Z</time>
      </trkpt>
      <trkpt lat="44.31347" lon="5.82689">
        <ele>566</ele>
        <time>2019-08-09T05:58:02Z</time>
      </trkpt>
      <trkpt lat="44.31345" lon="5.8269">
        <ele>566</ele>
        <time>2019-08-09T05:58:06Z</time>
      </trkpt>
      <trkpt lat="44.31344" lon="5.8269">
        <ele>566</ele>
        <time>2019-08-09T05:58:08Z</time>
      </trkpt>
      <trkpt lat="44.31343" lon="5.8269">
        <ele>566</ele>
        <time>2019-08-09T05:58:11Z</time>
      </trkpt>
      <trkpt lat="44.31344" lon="5.82689">
        <ele>566</ele>
        <time>2019-08-09T05:58:18Z</time>
      </trkpt>
      <trkpt lat="44.31345" lon="5.82688">
        <ele>566</ele>
        <time>2019-08-09T05:58:25Z</time>
      </trkpt>
      <trkpt lat="44.31346" lon="5.82687">
        <ele>567</ele>
        <time>2019-08-09T05:58:27Z</time>
      </trkpt>
      <trkpt lat="44.31348" lon="5.82687">
        <ele>567</ele>
        <time>2019-08-09T05:58:35Z</time>
      </trkpt>
      <trkpt lat="44.31349" lon="5.82686">
        <ele>567</ele>
        <time>2019-08-09T05:58:37Z</time>
      </trkpt>
      <trkpt lat="44.31348" lon="5.82685">
        <ele>567</ele>
        <time>2019-08-09T05:58:44Z</time>
      </trkpt>
      <trkpt lat="44.31347" lon="5.82682">
        <ele>567</ele>
        <time>2019-08-09T05:58:45Z</time>
      </trkpt>
      <trkpt lat="44.31347" lon="5.8268">
        <ele>567</ele>
        <time>2019-08-09T05:58:46Z</time>
      </trkpt>
      <trkpt lat="44.31346" lon="5.82678">
        <ele>567</ele>
        <time>2019-08-09T05:58:47Z</time>
      </trkpt>
      <trkpt lat="44.31345" lon="5.82676">
        <ele>567</ele>
        <time>2019-08-09T05:58:49Z</time>
      </trkpt>
      <trkpt lat="44.31344" lon="5.82674">
        <ele>567</ele>
        <time>2019-08-09T05:58:49Z</time>
      </trkpt>
      <trkpt lat="44.31343" lon="5.82672">
        <ele>567</ele>
        <time>2019-08-09T05:58:50Z</time>
      </trkpt>
      <trkpt lat="44.31341" lon="5.82671">
        <ele>567</ele>
        <time>2019-08-09T05:58:51Z</time>
      </trkpt>
      <trkpt lat="44.31339" lon="5.82669">
        <ele>567</ele>
        <time>2019-08-09T05:58:52Z</time>
      </trkpt>
      <trkpt lat="44.31336" lon="5.82668">
        <ele>567</ele>
        <time>2019-08-09T05:58:54Z</time>
      </trkpt>
      <trkpt lat="44.31333" lon="5.82667">
        <ele>567</ele>
        <time>2019-08-09T05:58:54Z</time>
      </trkpt>
      <trkpt lat="44.3133" lon="5.82666">
        <ele>567</ele>
        <time>2019-08-09T05:58:55Z</time>
      </trkpt>
      <trkpt lat="44.31327" lon="5.82664">
        <ele>567</ele>
        <time>2019-08-09T05:58:56Z</time>
      </trkpt>
      <trkpt lat="44.31323" lon="5.82662">
        <ele>567</ele>
        <time>2019-08-09T05:58:58Z</time>
      </trkpt>
      <trkpt lat="44.31319" lon="5.82659">
        <ele>567</ele>
        <time>2019-08-09T05:58:59Z</time>
      </trkpt>
      <trkpt lat="44.31314" lon="5.82655">
        <ele>567</ele>
        <time>2019-08-09T05:58:59Z</time>
      </trkpt>
      <trkpt lat="44.31308" lon="5.82651">
        <ele>567</ele>
        <time>2019-08-09T05:59:00Z</time>
      </trkpt>
      <trkpt lat="44.31303" lon="5.82647">
        <ele>567</ele>
        <time>2019-08-09T05:59:01Z</time>
      </trkpt>
      <trkpt lat="44.31296" lon="5.82643">
        <ele>567</ele>
        <time>2019-08-09T05:59:02Z</time>
      </trkpt>
      <trkpt lat="44.3129" lon="5.82638">
        <ele>567</ele>
        <time>2019-08-09T05:59:04Z</time>
      </trkpt>
      <trkpt lat="44.31282" lon="5.82633">
        <ele>567</ele>
        <time>2019-08-09T05:59:05Z</time>
      </trkpt>
      <trkpt lat="44.31274" lon="5.82629">
        <ele>566</ele>
        <time>2019-08-09T05:59:05Z</time>
      </trkpt>
      <trkpt lat="44.31267" lon="5.82625">
        <ele>566</ele>
        <time>2019-08-09T05:59:06Z</time>
      </trkpt>
      <trkpt lat="44.31259" lon="5.82621">
        <ele>565</ele>
        <time>2019-08-09T05:59:08Z</time>
      </trkpt>
      <trkpt lat="44.31252" lon="5.82617">
        <ele>565</ele>
        <time>2019-08-09T05:59:09Z</time>
      </trkpt>
      <trkpt lat="44.31244" lon="5.82612">
        <ele>565</ele>
        <time>2019-08-09T05:59:09Z</time>
      </trkpt>
      <trkpt lat="44.31236" lon="5.82607">
        <ele>564</ele>
        <time>2019-08-09T05:59:10Z</time>
      </trkpt>
      <trkpt lat="44.31228" lon="5.82603">
        <ele>564</ele>
        <time>2019-08-09T05:59:11Z</time>
      </trkpt>
      <trkpt lat="44.3122" lon="5.82598">
        <ele>563</ele>
        <time>2019-08-09T05:59:12Z</time>
      </trkpt>
      <trkpt lat="44.31213" lon="5.82594">
        <ele>563</ele>
        <time>2019-08-09T05:59:14Z</time>
      </trkpt>
      <trkpt lat="44.31205" lon="5.8259">
        <ele>563</ele>
        <time>2019-08-09T05:59:14Z</time>
      </trkpt>
      <trkpt lat="44.31198" lon="5.82585">
        <ele>562</ele>
        <time>2019-08-09T05:59:15Z</time>
      </trkpt>
      <trkpt lat="44.31192" lon="5.82581">
        <ele>562</ele>
        <time>2019-08-09T05:59:16Z</time>
      </trkpt>
      <trkpt lat="44.31184" lon="5.82577">
        <ele>562</ele>
        <time>2019-08-09T05:59:17Z</time>
      </trkpt>
      <trkpt lat="44.31177" lon="5.82573">
        <ele>562</ele>
        <time>2019-08-09T05:59:19Z</time>
      </trkpt>
      <trkpt lat="44.3117" lon="5.82569">
        <ele>562</ele>
        <time>2019-08-09T05:59:19Z</time>
      </trkpt>
      <trkpt lat="44.31163" lon="5.82565">
        <ele>562</ele>
        <time>2019-08-09T05:59:20Z</time>
      </trkpt>
      <trkpt lat="44.31156" lon="5.82561">
        <ele>562</ele>
        <time>2019-08-09T05:59:21Z</time>
      </trkpt>
      <trkpt lat="44.3115" lon="5.82558">
        <ele>562</ele>
        <time>2019-08-09T05:59:23Z</time>
      </trkpt>
      <trkpt lat="44.31143" lon="5.82554">
        <ele>562</ele>
        <time>2019-08-09T05:59:24Z</time>
      </trkpt>
      <trkpt lat="44.31137" lon="5.8255">
        <ele>562</ele>
        <time>2019-08-09T05:59:24Z</time>
      </trkpt>
      <trkpt lat="44.31131" lon="5.82547">
        <ele>562</ele>
        <time>2019-08-09T05:59:25Z</time>
      </trkpt>
      <trkpt lat="44.31124" lon="5.82544">
        <ele>562</ele>
        <time>2019-08-09T05:59:26Z</time>
      </trkpt>
      <trkpt lat="44.31118" lon="5.8254">
        <ele>561</ele>
        <time>2019-08-09T05:59:27Z</time>
      </trkpt>
      <trkpt lat="44.31112" lon="5.82537">
        <ele>561</ele>
        <time>2019-08-09T05:59:29Z</time>
      </trkpt>
      <trkpt lat="44.31105" lon="5.82533">
        <ele>561</ele>
        <time>2019-08-09T05:59:29Z</time>
      </trkpt>
      <trkpt lat="44.31099" lon="5.82529">
        <ele>561</ele>
        <time>2019-08-09T05:59:30Z</time>
      </trkpt>
      <trkpt lat="44.31094" lon="5.82526">
        <ele>561</ele>
        <time>2019-08-09T05:59:31Z</time>
      </trkpt>
      <trkpt lat="44.31088" lon="5.82522">
        <ele>561</ele>
        <time>2019-08-09T05:59:32Z</time>
      </trkpt>
      <trkpt lat="44.31083" lon="5.82517">
        <ele>561</ele>
        <time>2019-08-09T05:59:33Z</time>
      </trkpt>
      <trkpt lat="44.31079" lon="5.8251">
        <ele>561</ele>
        <time>2019-08-09T05:59:35Z</time>
      </trkpt>
      <trkpt lat="44.31076" lon="5.82503">
        <ele>561</ele>
        <time>2019-08-09T05:59:35Z</time>
      </trkpt>
      <trkpt lat="44.31075" lon="5.82494">
        <ele>561</ele>
        <time>2019-08-09T05:59:36Z</time>
      </trkpt>
      <trkpt lat="44.31075" lon="5.82486">
        <ele>560</ele>
        <time>2019-08-09T05:59:37Z</time>
      </trkpt>
      <trkpt lat="44.31077" lon="5.82479">
        <ele>560</ele>
        <time>2019-08-09T05:59:38Z</time>
      </trkpt>
      <trkpt lat="44.31079" lon="5.82472">
        <ele>560</ele>
        <time>2019-08-09T05:59:40Z</time>
      </trkpt>
      <trkpt lat="44.31081" lon="5.82466">
        <ele>560</ele>
        <time>2019-08-09T05:59:40Z</time>
      </trkpt>
      <trkpt lat="44.31084" lon="5.82459">
        <ele>560</ele>
        <time>2019-08-09T05:59:41Z</time>
      </trkpt>
      <trkpt lat="44.31087" lon="5.82453">
        <ele>560</ele>
        <time>2019-08-09T05:59:42Z</time>
      </trkpt>
      <trkpt lat="44.3109" lon="5.82447">
        <ele>560</ele>
        <time>2019-08-09T05:59:43Z</time>
      </trkpt>
      <trkpt lat="44.31093" lon="5.82441">
        <ele>560</ele>
        <time>2019-08-09T05:59:45Z</time>
      </trkpt>
      <trkpt lat="44.31096" lon="5.82435">
        <ele>560</ele>
        <time>2019-08-09T05:59:45Z</time>
      </trkpt>
      <trkpt lat="44.31099" lon="5.82429">
        <ele>560</ele>
        <time>2019-08-09T05:59:46Z</time>
      </trkpt>
      <trkpt lat="44.31103" lon="5.82422">
        <ele>560</ele>
        <time>2019-08-09T05:59:47Z</time>
      </trkpt>
      <trkpt lat="44.31106" lon="5.82414">
        <ele>560</ele>
        <time>2019-08-09T05:59:48Z</time>
      </trkpt>
      <trkpt lat="44.31109" lon="5.82404">
        <ele>560</ele>
        <time>2019-08-09T05:59:50Z</time>
      </trkpt>
      <trkpt lat="44.3111" lon="5.82395">
        <ele>560</ele>
        <time>2019-08-09T05:59:50Z</time>
      </trkpt>
      <trkpt lat="44.31111" lon="5.82385">
        <ele>560</ele>
        <time>2019-08-09T05:59:51Z</time>
      </trkpt>
      <trkpt lat="44.31111" lon="5.82375">
        <ele>559</ele>
        <time>2019-08-09T05:59:52Z</time>
      </trkpt>
      <trkpt lat="44.31112" lon="5.82365">
        <ele>559</ele>
        <time>2019-08-09T05:59:53Z</time>
      </trkpt>
      <trkpt lat="44.31115" lon="5.82356">
        <ele>559</ele>
        <time>2019-08-09T05:59:55Z</time>
      </trkpt>
      <trkpt lat="44.31119" lon="5.82348">
        <ele>559</ele>
        <time>2019-08-09T05:59:55Z</time>
      </trkpt>
      <trkpt lat="44.31123" lon="5.82342">
        <ele>559</ele>
        <time>2019-08-09T05:59:56Z</time>
      </trkpt>
      <trkpt lat="44.31128" lon="5.82336">
        <ele>559</ele>
        <time>2019-08-09T05:59:58Z</time>
      </trkpt>
      <trkpt lat="44.31132" lon="5.82329">
        <ele>559</ele>
        <time>2019-08-09T05:59:59Z</time>
      </trkpt>
      <trkpt lat="44.31136" lon="5.82323">
        <ele>559</ele>
        <time>2019-08-09T06:00:00Z</time>
      </trkpt>
      <trkpt lat="44.31141" lon="5.82317">
        <ele>559</ele>
        <time>2019-08-09T06:00:00Z</time>
      </trkpt>
      <trkpt lat="44.31145" lon="5.82311">
        <ele>559</ele>
        <time>2019-08-09T06:00:01Z</time>
      </trkpt>
      <trkpt lat="44.31149" lon="5.82305">
        <ele>559</ele>
        <time>2019-08-09T06:00:02Z</time>
      </trkpt>
      <trkpt lat="44.31152" lon="5.823">
        <ele>559</ele>
        <time>2019-08-09T06:00:03Z</time>
      </trkpt>
      <trkpt lat="44.31154" lon="5.82294">
        <ele>558</ele>
        <time>2019-08-09T06:00:05Z</time>
      </trkpt>
      <trkpt lat="44.31155" lon="5.82288">
        <ele>558</ele>
        <time>2019-08-09T06:00:05Z</time>
      </trkpt>
      <trkpt lat="44.31155" lon="5.82283">
        <ele>558</ele>
        <time>2019-08-09T06:00:06Z</time>
      </trkpt>
      <trkpt lat="44.31153" lon="5.82279">
        <ele>558</ele>
        <time>2019-08-09T06:00:07Z</time>
      </trkpt>
      <trkpt lat="44.31151" lon="5.82276">
        <ele>558</ele>
        <time>2019-08-09T06:00:08Z</time>
      </trkpt>
      <trkpt lat="44.31149" lon="5.82272">
        <ele>558</ele>
        <time>2019-08-09T06:00:10Z</time>
      </trkpt>
      <trkpt lat="44.31146" lon="5.82267">
        <ele>558</ele>
        <time>2019-08-09T06:00:10Z</time>
      </trkpt>
      <trkpt lat="44.31143" lon="5.82261">
        <ele>558</ele>
        <time>2019-08-09T06:00:11Z</time>
      </trkpt>
      <trkpt lat="44.31139" lon="5.82254">
        <ele>558</ele>
        <time>2019-08-09T06:00:12Z</time>
      </trkpt>
      <trkpt lat="44.31134" lon="5.82247">
        <ele>558</ele>
        <time>2019-08-09T06:00:13Z</time>
      </trkpt>
      <trkpt lat="44.31129" lon="5.8224">
        <ele>558</ele>
        <time>2019-08-09T06:00:15Z</time>
      </trkpt>
      <trkpt lat="44.31124" lon="5.82233">
        <ele>558</ele>
        <time>2019-08-09T06:00:15Z</time>
      </trkpt>
      <trkpt lat="44.3112" lon="5.82227">
        <ele>558</ele>
        <time>2019-08-09T06:00:16Z</time>
      </trkpt>
      <trkpt lat="44.31115" lon="5.8222">
        <ele>558</ele>
        <time>2019-08-09T06:00:17Z</time>
      </trkpt>
      <trkpt lat="44.3111" lon="5.82213">
        <ele>558</ele>
        <time>2019-08-09T06:00:18Z</time>
      </trkpt>
      <trkpt lat="44.31104" lon="5.82206">
        <ele>558</ele>
        <time>2019-08-09T06:00:19Z</time>
      </trkpt>
      <trkpt lat="44.31099" lon="5.82199">
        <ele>558</ele>
        <time>2019-08-09T06:00:20Z</time>
      </trkpt>
      <trkpt lat="44.31094" lon="5.82193">
        <ele>558</ele>
        <time>2019-08-09T06:00:21Z</time>
      </trkpt>
      <trkpt lat="44.31089" lon="5.82187">
        <ele>558</ele>
        <time>2019-08-09T06:00:22Z</time>
      </trkpt>
      <trkpt lat="44.31085" lon="5.82181">
        <ele>558</ele>
        <time>2019-08-09T06:00:23Z</time>
      </trkpt>
      <trkpt lat="44.31081" lon="5.82176">
        <ele>558</ele>
        <time>2019-08-09T06:00:25Z</time>
      </trkpt>
      <trkpt lat="44.31075" lon="5.8217">
        <ele>558</ele>
        <time>2019-08-09T06:00:25Z</time>
      </trkpt>
      <trkpt lat="44.3107" lon="5.82164">
        <ele>558</ele>
        <time>2019-08-09T06:00:26Z</time>
      </trkpt>
      <trkpt lat="44.31065" lon="5.82158">
        <ele>558</ele>
        <time>2019-08-09T06:00:27Z</time>
      </trkpt>
      <trkpt lat="44.31061" lon="5.82152">
        <ele>558</ele>
        <time>2019-08-09T06:00:28Z</time>
      </trkpt>
      <trkpt lat="44.31057" lon="5.82146">
        <ele>558</ele>
        <time>2019-08-09T06:00:30Z</time>
      </trkpt>
      <trkpt lat="44.31052" lon="5.8214">
        <ele>558</ele>
        <time>2019-08-09T06:00:30Z</time>
      </trkpt>
      <trkpt lat="44.31047" lon="5.82134">
        <ele>558</ele>
        <time>2019-08-09T06:00:31Z</time>
      </trkpt>
      <trkpt lat="44.31042" lon="5.82128">
        <ele>558</ele>
        <time>2019-08-09T06:00:32Z</time>
      </trkpt>
      <trkpt lat="44.31038" lon="5.82122">
        <ele>558</ele>
        <time>2019-08-09T06:00:33Z</time>
      </trkpt>
      <trkpt lat="44.31033" lon="5.82116">
        <ele>558</ele>
        <time>2019-08-09T06:00:35Z</time>
      </trkpt>
      <trkpt lat="44.31028" lon="5.82109">
        <ele>558</ele>
        <time>2019-08-09T06:00:35Z</time>
      </trkpt>
      <trkpt lat="44.31024" lon="5.82103">
        <ele>558</ele>
        <time>2019-08-09T06:00:36Z</time>
      </trkpt>
      <trkpt lat="44.31019" lon="5.82097">
        <ele>558</ele>
        <time>2019-08-09T06:00:37Z</time>
      </trkpt>
      <trkpt lat="44.31014" lon="5.8209">
        <ele>558</ele>
        <time>2019-08-09T06:00:38Z</time>
      </trkpt>
      <trkpt lat="44.31009" lon="5.82084">
        <ele>558</ele>
        <time>2019-08-09T06:00:39Z</time>
      </trkpt>
      <trkpt lat="44.31003" lon="5.82078">
        <ele>558</ele>
        <time>2019-08-09T06:00:40Z</time>
      </trkpt>
      <trkpt lat="44.30997" lon="5.82072">
        <ele>558</ele>
        <time>2019-08-09T06:00:41Z</time>
      </trkpt>
      <trkpt lat="44.30991" lon="5.82067">
        <ele>558</ele>
        <time>2019-08-09T06:00:43Z</time>
      </trkpt>
      <trkpt lat="44.30986" lon="5.82062">
        <ele>558</ele>
        <time>2019-08-09T06:00:43Z</time>
      </trkpt>
      <trkpt lat="44.3098" lon="5.82057">
        <ele>558</ele>
        <time>2019-08-09T06:00:45Z</time>
      </trkpt>
      <trkpt lat="44.30975" lon="5.82053">
        <ele>558</ele>
        <time>2019-08-09T06:00:45Z</time>
      </trkpt>
      <trkpt lat="44.30969" lon="5.82049">
        <ele>558</ele>
        <time>2019-08-09T06:00:46Z</time>
      </trkpt>
      <trkpt lat="44.30963" lon="5.82045">
        <ele>558</ele>
        <time>2019-08-09T06:00:47Z</time>
      </trkpt>
      <trkpt lat="44.30957" lon="5.82042">
        <ele>558</ele>
        <time>2019-08-09T06:00:48Z</time>
      </trkpt>
      <trkpt lat="44.30952" lon="5.82039">
        <ele>558</ele>
        <time>2019-08-09T06:00:49Z</time>
      </trkpt>
      <trkpt lat="44.30946" lon="5.82037">
        <ele>558</ele>
        <time>2019-08-09T06:00:50Z</time>
      </trkpt>
      <trkpt lat="44.3094" lon="5.82035">
        <ele>558</ele>
        <time>2019-08-09T06:00:51Z</time>
      </trkpt>
      <trkpt lat="44.30933" lon="5.82034">
        <ele>558</ele>
        <time>2019-08-09T06:00:52Z</time>
      </trkpt>
      <trkpt lat="44.30928" lon="5.82034">
        <ele>558</ele>
        <time>2019-08-09T06:00:53Z</time>
      </trkpt>
      <trkpt lat="44.30922" lon="5.82034">
        <ele>558</ele>
        <time>2019-08-09T06:00:55Z</time>
      </trkpt>
      <trkpt lat="44.30916" lon="5.82034">
        <ele>558</ele>
        <time>2019-08-09T06:00:55Z</time>
      </trkpt>
      <trkpt lat="44.3091" lon="5.82035">
        <ele>558</ele>
        <time>2019-08-09T06:00:56Z</time>
      </trkpt>
      <trkpt lat="44.30905" lon="5.82036">
        <ele>558</ele>
        <time>2019-08-09T06:00:58Z</time>
      </trkpt>
      <trkpt lat="44.309" lon="5.82038">
        <ele>558</ele>
        <time>2019-08-09T06:00:58Z</time>
      </trkpt>
      <trkpt lat="44.30894" lon="5.8204">
        <ele>558</ele>
        <time>2019-08-09T06:00:59Z</time>
      </trkpt>
      <trkpt lat="44.3089" lon="5.82042">
        <ele>558</ele>
        <time>2019-08-09T06:01:00Z</time>
      </trkpt>
      <trkpt lat="44.30884" lon="5.82044">
        <ele>558</ele>
        <time>2019-08-09T06:01:01Z</time>
      </trkpt>
      <trkpt lat="44.30878" lon="5.82046">
        <ele>558</ele>
        <time>2019-08-09T06:01:02Z</time>
      </trkpt>
      <trkpt lat="44.30873" lon="5.82047">
        <ele>558</ele>
        <time>2019-08-09T06:01:03Z</time>
      </trkpt>
      <trkpt lat="44.30869" lon="5.82049">
        <ele>558</ele>
        <time>2019-08-09T06:01:04Z</time>
      </trkpt>
      <trkpt lat="44.30864" lon="5.82051">
        <ele>558</ele>
        <time>2019-08-09T06:01:05Z</time>
      </trkpt>
      <trkpt lat="44.30859" lon="5.82052">
        <ele>558</ele>
        <time>2019-08-09T06:01:06Z</time>
      </trkpt>
      <trkpt lat="44.30854" lon="5.82053">
        <ele>558</ele>
        <time>2019-08-09T06:01:07Z</time>
      </trkpt>
      <trkpt lat="44.30848" lon="5.82055">
        <ele>558</ele>
        <time>2019-08-09T06:01:08Z</time>
      </trkpt>
      <trkpt lat="44.30844" lon="5.82056">
        <ele>558</ele>
        <time>2019-08-09T06:01:09Z</time>
      </trkpt>
      <trkpt lat="44.30839" lon="5.82058">
        <ele>558</ele>
        <time>2019-08-09T06:01:10Z</time>
      </trkpt>
      <trkpt lat="44.30833" lon="5.8206">
        <ele>558</ele>
        <time>2019-08-09T06:01:11Z</time>
      </trkpt>
      <trkpt lat="44.30828" lon="5.82061">
        <ele>558</ele>
        <time>2019-08-09T06:01:12Z</time>
      </trkpt>
      <trkpt lat="44.30822" lon="5.82063">
        <ele>558</ele>
        <time>2019-08-09T06:01:13Z</time>
      </trkpt>
      <trkpt lat="44.30817" lon="5.82064">
        <ele>558</ele>
        <time>2019-08-09T06:01:14Z</time>
      </trkpt>
      <trkpt lat="44.30811" lon="5.82066">
        <ele>558</ele>
        <time>2019-08-09T06:01:15Z</time>
      </trkpt>
      <trkpt lat="44.30806" lon="5.82067">
        <ele>558</ele>
        <time>2019-08-09T06:01:16Z</time>
      </trkpt>
      <trkpt lat="44.308" lon="5.82069">
        <ele>558</ele>
        <time>2019-08-09T06:01:17Z</time>
      </trkpt>
      <trkpt lat="44.30794" lon="5.8207">
        <ele>558</ele>
        <time>2019-08-09T06:01:18Z</time>
      </trkpt>
      <trkpt lat="44.30789" lon="5.82072">
        <ele>558</ele>
        <time>2019-08-09T06:01:19Z</time>
      </trkpt>
      <trkpt lat="44.30783" lon="5.82073">
        <ele>558</ele>
        <time>2019-08-09T06:01:20Z</time>
      </trkpt>
      <trkpt lat="44.30777" lon="5.82076">
        <ele>558</ele>
        <time>2019-08-09T06:01:21Z</time>
      </trkpt>
      <trkpt lat="44.30772" lon="5.82078">
        <ele>558</ele>
        <time>2019-08-09T06:01:22Z</time>
      </trkpt>
      <trkpt lat="44.30766" lon="5.82082">
        <ele>558</ele>
        <time>2019-08-09T06:01:23Z</time>
      </trkpt>
      <trkpt lat="44.30761" lon="5.82086">
        <ele>558</ele>
        <time>2019-08-09T06:01:24Z</time>
      </trkpt>
      <trkpt lat="44.30757" lon="5.82091">
        <ele>558</ele>
        <time>2019-08-09T06:01:25Z</time>
      </trkpt>
      <trkpt lat="44.30753" lon="5.82097">
        <ele>558</ele>
        <time>2019-08-09T06:01:26Z</time>
      </trkpt>
      <trkpt lat="44.30749" lon="5.82102">
        <ele>558</ele>
        <time>2019-08-09T06:01:27Z</time>
      </trkpt>
      <trkpt lat="44.30746" lon="5.82109">
        <ele>558</ele>
        <time>2019-08-09T06:01:28Z</time>
      </trkpt>
      <trkpt lat="44.30743" lon="5.82115">
        <ele>558</ele>
        <time>2019-08-09T06:01:29Z</time>
      </trkpt>
      <trkpt lat="44.30739" lon="5.82122">
        <ele>558</ele>
        <time>2019-08-09T06:01:30Z</time>
      </trkpt>
      <trkpt lat="44.30736" lon="5.8213">
        <ele>558</ele>
        <time>2019-08-09T06:01:31Z</time>
      </trkpt>
      <trkpt lat="44.30733" lon="5.82137">
        <ele>558</ele>
        <time>2019-08-09T06:01:32Z</time>
      </trkpt>
      <trkpt lat="44.3073" lon="5.82144">
        <ele>558</ele>
        <time>2019-08-09T06:01:33Z</time>
      </trkpt>
      <trkpt lat="44.30728" lon="5.82152">
        <ele>558</ele>
        <time>2019-08-09T06:01:34Z</time>
      </trkpt>
      <trkpt lat="44.30725" lon="5.8216">
        <ele>558</ele>
        <time>2019-08-09T06:01:35Z</time>
      </trkpt>
      <trkpt lat="44.30722" lon="5.82167">
        <ele>558</ele>
        <time>2019-08-09T06:01:36Z</time>
      </trkpt>
      <trkpt lat="44.30719" lon="5.82175">
        <ele>558</ele>
        <time>2019-08-09T06:01:37Z</time>
      </trkpt>
      <trkpt lat="44.30715" lon="5.82182">
        <ele>558</ele>
        <time>2019-08-09T06:01:38Z</time>
      </trkpt>
      <trkpt lat="44.30712" lon="5.8219">
        <ele>558</ele>
        <time>2019-08-09T06:01:39Z</time>
      </trkpt>
      <trkpt lat="44.30709" lon="5.82197">
        <ele>558</ele>
        <time>2019-08-09T06:01:40Z</time>
      </trkpt>
      <trkpt lat="44.30706" lon="5.82205">
        <ele>558</ele>
        <time>2019-08-09T06:01:41Z</time>
      </trkpt>
      <trkpt lat="44.30702" lon="5.82212">
        <ele>558</ele>
        <time>2019-08-09T06:01:42Z</time>
      </trkpt>
      <trkpt lat="44.30698" lon="5.82219">
        <ele>558</ele>
        <time>2019-08-09T06:01:43Z</time>
      </trkpt>
      <trkpt lat="44.30694" lon="5.82225">
        <ele>558</ele>
        <time>2019-08-09T06:01:44Z</time>
      </trkpt>
      <trkpt lat="44.30689" lon="5.82232">
        <ele>558</ele>
        <time>2019-08-09T06:01:45Z</time>
      </trkpt>
      <trkpt lat="44.30685" lon="5.82238">
        <ele>558</ele>
        <time>2019-08-09T06:01:46Z</time>
      </trkpt>
      <trkpt lat="44.3068" lon="5.82244">
        <ele>558</ele>
        <time>2019-08-09T06:01:47Z</time>
      </trkpt>
      <trkpt lat="44.30675" lon="5.8225">
        <ele>558</ele>
        <time>2019-08-09T06:01:48Z</time>
      </trkpt>
      <trkpt lat="44.3067" lon="5.82256">
        <ele>558</ele>
        <time>2019-08-09T06:01:49Z</time>
      </trkpt>
      <trkpt lat="44.30664" lon="5.82261">
        <ele>558</ele>
        <time>2019-08-09T06:01:50Z</time>
      </trkpt>
      <trkpt lat="44.30659" lon="5.82266">
        <ele>558</ele>
        <time>2019-08-09T06:01:51Z</time>
      </trkpt>
      <trkpt lat="44.30653" lon="5.82271">
        <ele>558</ele>
        <time>2019-08-09T06:01:52Z</time>
      </trkpt>
      <trkpt lat="44.30647" lon="5.82276">
        <ele>558</ele>
        <time>2019-08-09T06:01:53Z</time>
      </trkpt>
      <trkpt lat="44.30641" lon="5.8228">
        <ele>558</ele>
        <time>2019-08-09T06:01:54Z</time>
      </trkpt>
      <trkpt lat="44.30635" lon="5.82284">
        <ele>558</ele>
        <time>2019-08-09T06:01:55Z</time>
      </trkpt>
      <trkpt lat="44.30628" lon="5.82288">
        <ele>558</ele>
        <time>2019-08-09T06:01:56Z</time>
      </trkpt>
      <trkpt lat="44.30621" lon="5.82292">
        <ele>558</ele>
        <time>2019-08-09T06:01:58Z</time>
      </trkpt>
      <trkpt lat="44.30615" lon="5.82296">
        <ele>558</ele>
        <time>2019-08-09T06:01:58Z</time>
      </trkpt>
      <trkpt lat="44.30608" lon="5.82299">
        <ele>558</ele>
        <time>2019-08-09T06:01:59Z</time>
      </trkpt>
      <trkpt lat="44.30602" lon="5.823">
        <ele>558</ele>
        <time>2019-08-09T06:02:00Z</time>
      </trkpt>
      <trkpt lat="44.30595" lon="5.82302">
        <ele>558</ele>
        <time>2019-08-09T06:02:01Z</time>
      </trkpt>
      <trkpt lat="44.30589" lon="5.82302">
        <ele>558</ele>
        <time>2019-08-09T06:02:02Z</time>
      </trkpt>
      <trkpt lat="44.30581" lon="5.82303">
        <ele>558</ele>
        <time>2019-08-09T06:02:03Z</time>
      </trkpt>
      <trkpt lat="44.30574" lon="5.82304">
        <ele>558</ele>
        <time>2019-08-09T06:02:04Z</time>
      </trkpt>
      <trkpt lat="44.30566" lon="5.82305">
        <ele>558</ele>
        <time>2019-08-09T06:02:05Z</time>
      </trkpt>
      <trkpt lat="44.30559" lon="5.82306">
        <ele>558</ele>
        <time>2019-08-09T06:02:06Z</time>
      </trkpt>
      <trkpt lat="44.30552" lon="5.82307">
        <ele>558</ele>
        <time>2019-08-09T06:02:07Z</time>
      </trkpt>
      <trkpt lat="44.30544" lon="5.82308">
        <ele>558</ele>
        <time>2019-08-09T06:02:08Z</time>
      </trkpt>
      <trkpt lat="44.30537" lon="5.82309">
        <ele>558</ele>
        <time>2019-08-09T06:02:09Z</time>
      </trkpt>
      <trkpt lat="44.3053" lon="5.82311">
        <ele>558</ele>
        <time>2019-08-09T06:02:10Z</time>
      </trkpt>
      <trkpt lat="44.30523" lon="5.82311">
        <ele>558</ele>
        <time>2019-08-09T06:02:11Z</time>
      </trkpt>
      <trkpt lat="44.30516" lon="5.82313">
        <ele>558</ele>
        <time>2019-08-09T06:02:12Z</time>
      </trkpt>
      <trkpt lat="44.30508" lon="5.82313">
        <ele>558</ele>
        <time>2019-08-09T06:02:13Z</time>
      </trkpt>
      <trkpt lat="44.30501" lon="5.82314">
        <ele>558</ele>
        <time>2019-08-09T06:02:14Z</time>
      </trkpt>
      <trkpt lat="44.30494" lon="5.82315">
        <ele>558</ele>
        <time>2019-08-09T06:02:15Z</time>
      </trkpt>
      <trkpt lat="44.30487" lon="5.82315">
        <ele>558</ele>
        <time>2019-08-09T06:02:16Z</time>
      </trkpt>
      <trkpt lat="44.3048" lon="5.82315">
        <ele>558</ele>
        <time>2019-08-09T06:02:17Z</time>
      </trkpt>
      <trkpt lat="44.30473" lon="5.82315">
        <ele>558</ele>
        <time>2019-08-09T06:02:18Z</time>
      </trkpt>
      <trkpt lat="44.30466" lon="5.82316">
        <ele>558</ele>
        <time>2019-08-09T06:02:19Z</time>
      </trkpt>
      <trkpt lat="44.30459" lon="5.82316">
        <ele>558</ele>
        <time>2019-08-09T06:02:20Z</time>
      </trkpt>
      <trkpt lat="44.30452" lon="5.82316">
        <ele>558</ele>
        <time>2019-08-09T06:02:21Z</time>
      </trkpt>
      <trkpt lat="44.30446" lon="5.82315">
        <ele>558</ele>
        <time>2019-08-09T06:02:22Z</time>
      </trkpt>
      <trkpt lat="44.30439" lon="5.82315">
        <ele>558</ele>
        <time>2019-08-09T06:02:23Z</time>
      </trkpt>
      <trkpt lat="44.30433" lon="5.82315">
        <ele>558</ele>
        <time>2019-08-09T06:02:24Z</time>
      </trkpt>
      <trkpt lat="44.30426" lon="5.82316">
        <ele>558</ele>
        <time>2019-08-09T06:02:25Z</time>
      </trkpt>
      <trkpt lat="44.30419" lon="5.82316">
        <ele>558</ele>
        <time>2019-08-09T06:02:26Z</time>
      </trkpt>
      <trkpt lat="44.30413" lon="5.82317">
        <ele>558</ele>
        <time>2019-08-09T06:02:27Z</time>
      </trkpt>
      <trkpt lat="44.30406" lon="5.82317">
        <ele>558</ele>
        <time>2019-08-09T06:02:28Z</time>
      </trkpt>
      <trkpt lat="44.304" lon="5.82317">
        <ele>558</ele>
        <time>2019-08-09T06:02:29Z</time>
      </trkpt>
      <trkpt lat="44.30393" lon="5.82317">
        <ele>558</ele>
        <time>2019-08-09T06:02:30Z</time>
      </trkpt>
      <trkpt lat="44.30387" lon="5.82318">
        <ele>558</ele>
        <time>2019-08-09T06:02:31Z</time>
      </trkpt>
      <trkpt lat="44.3038" lon="5.82319">
        <ele>558</ele>
        <time>2019-08-09T06:02:32Z</time>
      </trkpt>
      <trkpt lat="44.30374" lon="5.82319">
        <ele>558</ele>
        <time>2019-08-09T06:02:33Z</time>
      </trkpt>
      <trkpt lat="44.30368" lon="5.8232">
        <ele>558</ele>
        <time>2019-08-09T06:02:34Z</time>
      </trkpt>
      <trkpt lat="44.30361" lon="5.8232">
        <ele>558</ele>
        <time>2019-08-09T06:02:35Z</time>
      </trkpt>
      <trkpt lat="44.30355" lon="5.82321">
        <ele>558</ele>
        <time>2019-08-09T06:02:36Z</time>
      </trkpt>
      <trkpt lat="44.30349" lon="5.82322">
        <ele>558</ele>
        <time>2019-08-09T06:02:37Z</time>
      </trkpt>
      <trkpt lat="44.30342" lon="5.82323">
        <ele>558</ele>
        <time>2019-08-09T06:02:38Z</time>
      </trkpt>
      <trkpt lat="44.30336" lon="5.82324">
        <ele>558</ele>
        <time>2019-08-09T06:02:39Z</time>
      </trkpt>
      <trkpt lat="44.30329" lon="5.82326">
        <ele>558</ele>
        <time>2019-08-09T06:02:40Z</time>
      </trkpt>
      <trkpt lat="44.30323" lon="5.82327">
        <ele>558</ele>
        <time>2019-08-09T06:02:41Z</time>
      </trkpt>
      <trkpt lat="44.30316" lon="5.82329">
        <ele>558</ele>
        <time>2019-08-09T06:02:42Z</time>
      </trkpt>
      <trkpt lat="44.3031" lon="5.8233">
        <ele>558</ele>
        <time>2019-08-09T06:02:43Z</time>
      </trkpt>
      <trkpt lat="44.30303" lon="5.82331">
        <ele>558</ele>
        <time>2019-08-09T06:02:44Z</time>
      </trkpt>
      <trkpt lat="44.30297" lon="5.82332">
        <ele>558</ele>
        <time>2019-08-09T06:02:45Z</time>
      </trkpt>
      <trkpt lat="44.3029" lon="5.82334">
        <ele>558</ele>
        <time>2019-08-09T06:02:46Z</time>
      </trkpt>
      <trkpt lat="44.30284" lon="5.82335">
        <ele>558</ele>
        <time>2019-08-09T06:02:47Z</time>
      </trkpt>
      <trkpt lat="44.30278" lon="5.82336">
        <ele>558</ele>
        <time>2019-08-09T06:02:48Z</time>
      </trkpt>
      <trkpt lat="44.30271" lon="5.82337">
        <ele>558</ele>
        <time>2019-08-09T06:02:49Z</time>
      </trkpt>
      <trkpt lat="44.30265" lon="5.82338">
        <ele>558</ele>
        <time>2019-08-09T06:02:50Z</time>
      </trkpt>
      <trkpt lat="44.30259" lon="5.8234">
        <ele>558</ele>
        <time>2019-08-09T06:02:51Z</time>
      </trkpt>
      <trkpt lat="44.30252" lon="5.8234">
        <ele>558</ele>
        <time>2019-08-09T06:02:52Z</time>
      </trkpt>
      <trkpt lat="44.30246" lon="5.82341">
        <ele>558</ele>
        <time>2019-08-09T06:02:53Z</time>
      </trkpt>
      <trkpt lat="44.30239" lon="5.82342">
        <ele>558</ele>
        <time>2019-08-09T06:02:54Z</time>
      </trkpt>
      <trkpt lat="44.30232" lon="5.82343">
        <ele>558</ele>
        <time>2019-08-09T06:02:55Z</time>
      </trkpt>
      <trkpt lat="44.30226" lon="5.82344">
        <ele>558</ele>
        <time>2019-08-09T06:02:56Z</time>
      </trkpt>
      <trkpt lat="44.30219" lon="5.82344">
        <ele>558</ele>
        <time>2019-08-09T06:02:58Z</time>
      </trkpt>
      <trkpt lat="44.30212" lon="5.82345">
        <ele>558</ele>
        <time>2019-08-09T06:02:58Z</time>
      </trkpt>
      <trkpt lat="44.30206" lon="5.82344">
        <ele>558</ele>
        <time>2019-08-09T06:02:59Z</time>
      </trkpt>
      <trkpt lat="44.30199" lon="5.82344">
        <ele>558</ele>
        <time>2019-08-09T06:03:00Z</time>
      </trkpt>
      <trkpt lat="44.30193" lon="5.82344">
        <ele>558</ele>
        <time>2019-08-09T06:03:01Z</time>
      </trkpt>
      <trkpt lat="44.30186" lon="5.82343">
        <ele>558</ele>
        <time>2019-08-09T06:03:02Z</time>
      </trkpt>
      <trkpt lat="44.3018" lon="5.82343">
        <ele>558</ele>
        <time>2019-08-09T06:03:03Z</time>
      </trkpt>
      <trkpt lat="44.30173" lon="5.82342">
        <ele>558</ele>
        <time>2019-08-09T06:03:04Z</time>
      </trkpt>
      <trkpt lat="44.30167" lon="5.82341">
        <ele>558</ele>
        <time>2019-08-09T06:03:05Z</time>
      </trkpt>
      <trkpt lat="44.30161" lon="5.8234">
        <ele>558</ele>
        <time>2019-08-09T06:03:06Z</time>
      </trkpt>
      <trkpt lat="44.30154" lon="5.8234">
        <ele>558</ele>
        <time>2019-08-09T06:03:07Z</time>
      </trkpt>
      <trkpt lat="44.30148" lon="5.82339">
        <ele>558</ele>
        <time>2019-08-09T06:03:08Z</time>
      </trkpt>
      <trkpt lat="44.30141" lon="5.82338">
        <ele>558</ele>
        <time>2019-08-09T06:03:09Z</time>
      </trkpt>
      <trkpt lat="44.30135" lon="5.82338">
        <ele>558</ele>
        <time>2019-08-09T06:03:10Z</time>
      </trkpt>
      <trkpt lat="44.30128" lon="5.82337">
        <ele>558</ele>
        <time>2019-08-09T06:03:11Z</time>
      </trkpt>
      <trkpt lat="44.30121" lon="5.82337">
        <ele>558</ele>
        <time>2019-08-09T06:03:12Z</time>
      </trkpt>
      <trkpt lat="44.30115" lon="5.82337">
        <ele>558</ele>
        <time>2019-08-09T06:03:13Z</time>
      </trkpt>
      <trkpt lat="44.30108" lon="5.82338">
        <ele>558</ele>
        <time>2019-08-09T06:03:14Z</time>
      </trkpt>
      <trkpt lat="44.30102" lon="5.82338">
        <ele>558</ele>
        <time>2019-08-09T06:03:15Z</time>
      </trkpt>
      <trkpt lat="44.30097" lon="5.82339">
        <ele>558</ele>
        <time>2019-08-09T06:03:16Z</time>
      </trkpt>
      <trkpt lat="44.30091" lon="5.8234">
        <ele>558</ele>
        <time>2019-08-09T06:03:17Z</time>
      </trkpt>
      <trkpt lat="44.30085" lon="5.82339">
        <ele>559</ele>
        <time>2019-08-09T06:03:18Z</time>
      </trkpt>
      <trkpt lat="44.30078" lon="5.82339">
        <ele>560</ele>
        <time>2019-08-09T06:03:20Z</time>
      </trkpt>
      <trkpt lat="44.30072" lon="5.82339">
        <ele>561</ele>
        <time>2019-08-09T06:03:20Z</time>
      </trkpt>
      <trkpt lat="44.30065" lon="5.82338">
        <ele>562</ele>
        <time>2019-08-09T06:03:21Z</time>
      </trkpt>
      <trkpt lat="44.30059" lon="5.82338">
        <ele>563</ele>
        <time>2019-08-09T06:03:22Z</time>
      </trkpt>
      <trkpt lat="44.30053" lon="5.82338">
        <ele>564</ele>
        <time>2019-08-09T06:03:23Z</time>
      </trkpt>
      <trkpt lat="44.30047" lon="5.82337">
        <ele>565</ele>
        <time>2019-08-09T06:03:24Z</time>
      </trkpt>
      <trkpt lat="44.30041" lon="5.82336">
        <ele>566</ele>
        <time>2019-08-09T06:03:25Z</time>
      </trkpt>
      <trkpt lat="44.30035" lon="5.82335">
        <ele>566</ele>
        <time>2019-08-09T06:03:26Z</time>
      </trkpt>
      <trkpt lat="44.30028" lon="5.82333">
        <ele>567</ele>
        <time>2019-08-09T06:03:27Z</time>
      </trkpt>
      <trkpt lat="44.30021" lon="5.82332">
        <ele>567</ele>
        <time>2019-08-09T06:03:28Z</time>
      </trkpt>
      <trkpt lat="44.30014" lon="5.8233">
        <ele>567</ele>
        <time>2019-08-09T06:03:29Z</time>
      </trkpt>
      <trkpt lat="44.30007" lon="5.82328">
        <ele>567</ele>
        <time>2019-08-09T06:03:30Z</time>
      </trkpt>
      <trkpt lat="44.3" lon="5.82326">
        <ele>567</ele>
        <time>2019-08-09T06:03:31Z</time>
      </trkpt>
      <trkpt lat="44.29993" lon="5.82324">
        <ele>567</ele>
        <time>2019-08-09T06:03:32Z</time>
      </trkpt>
      <trkpt lat="44.29987" lon="5.82322">
        <ele>567</ele>
        <time>2019-08-09T06:03:33Z</time>
      </trkpt>
      <trkpt lat="44.2998" lon="5.8232">
        <ele>567</ele>
        <time>2019-08-09T06:03:34Z</time>
      </trkpt>
      <trkpt lat="44.29973" lon="5.82317">
        <ele>567</ele>
        <time>2019-08-09T06:03:35Z</time>
      </trkpt>
      <trkpt lat="44.29966" lon="5.82315">
        <ele>567</ele>
        <time>2019-08-09T06:03:36Z</time>
      </trkpt>
      <trkpt lat="44.29959" lon="5.82312">
        <ele>567</ele>
        <time>2019-08-09T06:03:37Z</time>
      </trkpt>
      <trkpt lat="44.29953" lon="5.82309">
        <ele>567</ele>
        <time>2019-08-09T06:03:38Z</time>
      </trkpt>
      <trkpt lat="44.29946" lon="5.82306">
        <ele>567</ele>
        <time>2019-08-09T06:03:39Z</time>
      </trkpt>
      <trkpt lat="44.2994" lon="5.82303">
        <ele>567</ele>
        <time>2019-08-09T06:03:40Z</time>
      </trkpt>
      <trkpt lat="44.29934" lon="5.823">
        <ele>566</ele>
        <time>2019-08-09T06:03:41Z</time>
      </trkpt>
      <trkpt lat="44.29927" lon="5.82297">
        <ele>566</ele>
        <time>2019-08-09T06:03:42Z</time>
      </trkpt>
      <trkpt lat="44.29921" lon="5.82294">
        <ele>566</ele>
        <time>2019-08-09T06:03:43Z</time>
      </trkpt>
      <trkpt lat="44.29915" lon="5.82291">
        <ele>566</ele>
        <time>2019-08-09T06:03:44Z</time>
      </trkpt>
      <trkpt lat="44.29909" lon="5.82287">
        <ele>566</ele>
        <time>2019-08-09T06:03:45Z</time>
      </trkpt>
      <trkpt lat="44.29903" lon="5.82284">
        <ele>566</ele>
        <time>2019-08-09T06:03:46Z</time>
      </trkpt>
      <trkpt lat="44.29897" lon="5.8228">
        <ele>566</ele>
        <time>2019-08-09T06:03:47Z</time>
      </trkpt>
      <trkpt lat="44.29892" lon="5.82277">
        <ele>566</ele>
        <time>2019-08-09T06:03:48Z</time>
      </trkpt>
      <trkpt lat="44.29885" lon="5.82274">
        <ele>566</ele>
        <time>2019-08-09T06:03:49Z</time>
      </trkpt>
      <trkpt lat="44.29879" lon="5.8227">
        <ele>566</ele>
        <time>2019-08-09T06:03:50Z</time>
      </trkpt>
      <trkpt lat="44.29873" lon="5.82267">
        <ele>566</ele>
        <time>2019-08-09T06:03:51Z</time>
      </trkpt>
      <trkpt lat="44.29866" lon="5.82264">
        <ele>566</ele>
        <time>2019-08-09T06:03:52Z</time>
      </trkpt>
      <trkpt lat="44.29859" lon="5.82261">
        <ele>566</ele>
        <time>2019-08-09T06:03:53Z</time>
      </trkpt>
      <trkpt lat="44.29853" lon="5.82258">
        <ele>566</ele>
        <time>2019-08-09T06:03:54Z</time>
      </trkpt>
      <trkpt lat="44.29846" lon="5.82256">
        <ele>566</ele>
        <time>2019-08-09T06:03:55Z</time>
      </trkpt>
      <trkpt lat="44.29839" lon="5.82254">
        <ele>566</ele>
        <time>2019-08-09T06:03:56Z</time>
      </trkpt>
      <trkpt lat="44.29833" lon="5.82252">
        <ele>566</ele>
        <time>2019-08-09T06:03:58Z</time>
      </trkpt>
      <trkpt lat="44.29826" lon="5.8225">
        <ele>566</ele>
        <time>2019-08-09T06:03:58Z</time>
      </trkpt>
      <trkpt lat="44.2982" lon="5.82249">
        <ele>566</ele>
        <time>2019-08-09T06:03:59Z</time>
      </trkpt>
      <trkpt lat="44.29813" lon="5.82247">
        <ele>566</ele>
        <time>2019-08-09T06:04:00Z</time>
      </trkpt>
      <trkpt lat="44.29807" lon="5.82246">
        <ele>566</ele>
        <time>2019-08-09T06:04:01Z</time>
      </trkpt>
      <trkpt lat="44.298" lon="5.82244">
        <ele>566</ele>
        <time>2019-08-09T06:04:02Z</time>
      </trkpt>
      <trkpt lat="44.29793" lon="5.82243">
        <ele>565</ele>
        <time>2019-08-09T06:04:03Z</time>
      </trkpt>
      <trkpt lat="44.29787" lon="5.82241">
        <ele>564</ele>
        <time>2019-08-09T06:04:04Z</time>
      </trkpt>
      <trkpt lat="44.29781" lon="5.8224">
        <ele>564</ele>
        <time>2019-08-09T06:04:05Z</time>
      </trkpt>
      <trkpt lat="44.29775" lon="5.82239">
        <ele>563</ele>
        <time>2019-08-09T06:04:06Z</time>
      </trkpt>
      <trkpt lat="44.29769" lon="5.82238">
        <ele>563</ele>
        <time>2019-08-09T06:04:07Z</time>
      </trkpt>
      <trkpt lat="44.29763" lon="5.82236">
        <ele>563</ele>
        <time>2019-08-09T06:04:08Z</time>
      </trkpt>
      <trkpt lat="44.29757" lon="5.82234">
        <ele>562</ele>
        <time>2019-08-09T06:04:09Z</time>
      </trkpt>
      <trkpt lat="44.29751" lon="5.82231">
        <ele>562</ele>
        <time>2019-08-09T06:04:10Z</time>
      </trkpt>
      <trkpt lat="44.29744" lon="5.82229">
        <ele>562</ele>
        <time>2019-08-09T06:04:11Z</time>
      </trkpt>
      <trkpt lat="44.29739" lon="5.82226">
        <ele>562</ele>
        <time>2019-08-09T06:04:12Z</time>
      </trkpt>
      <trkpt lat="44.29733" lon="5.82223">
        <ele>561</ele>
        <time>2019-08-09T06:04:13Z</time>
      </trkpt>
      <trkpt lat="44.29727" lon="5.8222">
        <ele>561</ele>
        <time>2019-08-09T06:04:14Z</time>
      </trkpt>
      <trkpt lat="44.29721" lon="5.82216">
        <ele>561</ele>
        <time>2019-08-09T06:04:15Z</time>
      </trkpt>
      <trkpt lat="44.29716" lon="5.82213">
        <ele>561</ele>
        <time>2019-08-09T06:04:16Z</time>
      </trkpt>
      <trkpt lat="44.2971" lon="5.82208">
        <ele>561</ele>
        <time>2019-08-09T06:04:17Z</time>
      </trkpt>
      <trkpt lat="44.29704" lon="5.82204">
        <ele>561</ele>
        <time>2019-08-09T06:04:18Z</time>
      </trkpt>
      <trkpt lat="44.29698" lon="5.82199">
        <ele>561</ele>
        <time>2019-08-09T06:04:19Z</time>
      </trkpt>
      <trkpt lat="44.29693" lon="5.82194">
        <ele>561</ele>
        <time>2019-08-09T06:04:20Z</time>
      </trkpt>
      <trkpt lat="44.29687" lon="5.82189">
        <ele>561</ele>
        <time>2019-08-09T06:04:21Z</time>
      </trkpt>
      <trkpt lat="44.29681" lon="5.82183">
        <ele>561</ele>
        <time>2019-08-09T06:04:22Z</time>
      </trkpt>
      <trkpt lat="44.29675" lon="5.82177">
        <ele>561</ele>
        <time>2019-08-09T06:04:23Z</time>
      </trkpt>
      <trkpt lat="44.29669" lon="5.82171">
        <ele>561</ele>
        <time>2019-08-09T06:04:24Z</time>
      </trkpt>
      <trkpt lat="44.29664" lon="5.82165">
        <ele>561</ele>
        <time>2019-08-09T06:04:25Z</time>
      </trkpt>
      <trkpt lat="44.29658" lon="5.8216">
        <ele>561</ele>
        <time>2019-08-09T06:04:26Z</time>
      </trkpt>
      <trkpt lat="44.29652" lon="5.82154">
        <ele>561</ele>
        <time>2019-08-09T06:04:27Z</time>
      </trkpt>
      <trkpt lat="44.29647" lon="5.82149">
        <ele>561</ele>
        <time>2019-08-09T06:04:28Z</time>
      </trkpt>
      <trkpt lat="44.29641" lon="5.82144">
        <ele>561</ele>
        <time>2019-08-09T06:04:29Z</time>
      </trkpt>
      <trkpt lat="44.29636" lon="5.8214">
        <ele>561</ele>
        <time>2019-08-09T06:04:30Z</time>
      </trkpt>
      <trkpt lat="44.2963" lon="5.82135">
        <ele>561</ele>
        <time>2019-08-09T06:04:31Z</time>
      </trkpt>
      <trkpt lat="44.29626" lon="5.82132">
        <ele>561</ele>
        <time>2019-08-09T06:04:32Z</time>
      </trkpt>
      <trkpt lat="44.29622" lon="5.82128">
        <ele>561</ele>
        <time>2019-08-09T06:04:33Z</time>
      </trkpt>
      <trkpt lat="44.29618" lon="5.82125">
        <ele>561</ele>
        <time>2019-08-09T06:04:34Z</time>
      </trkpt>
      <trkpt lat="44.29613" lon="5.82122">
        <ele>561</ele>
        <time>2019-08-09T06:04:35Z</time>
      </trkpt>
      <trkpt lat="44.29609" lon="5.82119">
        <ele>561</ele>
        <time>2019-08-09T06:04:36Z</time>
      </trkpt>
      <trkpt lat="44.29604" lon="5.82116">
        <ele>561</ele>
        <time>2019-08-09T06:04:37Z</time>
      </trkpt>
      <trkpt lat="44.29599" lon="5.82114">
        <ele>561</ele>
        <time>2019-08-09T06:04:38Z</time>
      </trkpt>
      <trkpt lat="44.29592" lon="5.82111">
        <ele>561</ele>
        <time>2019-08-09T06:04:39Z</time>
      </trkpt>
      <trkpt lat="44.29586" lon="5.82108">
        <ele>561</ele>
        <time>2019-08-09T06:04:40Z</time>
      </trkpt>
      <trkpt lat="44.29581" lon="5.82105">
        <ele>561</ele>
        <time>2019-08-09T06:04:41Z</time>
      </trkpt>
      <trkpt lat="44.29576" lon="5.82103">
        <ele>561</ele>
        <time>2019-08-09T06:04:42Z</time>
      </trkpt>
      <trkpt lat="44.2957" lon="5.82101">
        <ele>561</ele>
        <time>2019-08-09T06:04:43Z</time>
      </trkpt>
      <trkpt lat="44.29564" lon="5.821">
        <ele>561</ele>
        <time>2019-08-09T06:04:44Z</time>
      </trkpt>
      <trkpt lat="44.29557" lon="5.82099">
        <ele>561</ele>
        <time>2019-08-09T06:04:45Z</time>
      </trkpt>
      <trkpt lat="44.29551" lon="5.82098">
        <ele>561</ele>
        <time>2019-08-09T06:04:46Z</time>
      </trkpt>
      <trkpt lat="44.29545" lon="5.82096">
        <ele>561</ele>
        <time>2019-08-09T06:04:47Z</time>
      </trkpt>
      <trkpt lat="44.2954" lon="5.82095">
        <ele>561</ele>
        <time>2019-08-09T06:04:48Z</time>
      </trkpt>
      <trkpt lat="44.29534" lon="5.82094">
        <ele>561</ele>
        <time>2019-08-09T06:04:49Z</time>
      </trkpt>
      <trkpt lat="44.29528" lon="5.82093">
        <ele>561</ele>
        <time>2019-08-09T06:04:50Z</time>
      </trkpt>
      <trkpt lat="44.29522" lon="5.82092">
        <ele>561</ele>
        <time>2019-08-09T06:04:51Z</time>
      </trkpt>
      <trkpt lat="44.29517" lon="5.82091">
        <ele>561</ele>
        <time>2019-08-09T06:04:52Z</time>
      </trkpt>
      <trkpt lat="44.2951" lon="5.8209">
        <ele>561</ele>
        <time>2019-08-09T06:04:53Z</time>
      </trkpt>
      <trkpt lat="44.29504" lon="5.8209">
        <ele>561</ele>
        <time>2019-08-09T06:04:54Z</time>
      </trkpt>
      <trkpt lat="44.29498" lon="5.82091">
        <ele>561</ele>
        <time>2019-08-09T06:04:55Z</time>
      </trkpt>
      <trkpt lat="44.29492" lon="5.82092">
        <ele>561</ele>
        <time>2019-08-09T06:04:56Z</time>
      </trkpt>
      <trkpt lat="44.29485" lon="5.82093">
        <ele>561</ele>
        <time>2019-08-09T06:04:58Z</time>
      </trkpt>
      <trkpt lat="44.29479" lon="5.82097">
        <ele>561</ele>
        <time>2019-08-09T06:04:58Z</time>
      </trkpt>
      <trkpt lat="44.29473" lon="5.821">
        <ele>561</ele>
        <time>2019-08-09T06:04:59Z</time>
      </trkpt>
      <trkpt lat="44.29467" lon="5.82103">
        <ele>562</ele>
        <time>2019-08-09T06:05:00Z</time>
      </trkpt>
      <trkpt lat="44.2946" lon="5.82107">
        <ele>562</ele>
        <time>2019-08-09T06:05:01Z</time>
      </trkpt>
      <trkpt lat="44.29454" lon="5.82112">
        <ele>563</ele>
        <time>2019-08-09T06:05:02Z</time>
      </trkpt>
      <trkpt lat="44.29447" lon="5.82116">
        <ele>563</ele>
        <time>2019-08-09T06:05:03Z</time>
      </trkpt>
      <trkpt lat="44.29441" lon="5.82122">
        <ele>563</ele>
        <time>2019-08-09T06:05:04Z</time>
      </trkpt>
      <trkpt lat="44.29435" lon="5.82127">
        <ele>563</ele>
        <time>2019-08-09T06:05:05Z</time>
      </trkpt>
      <trkpt lat="44.2943" lon="5.82132">
        <ele>563</ele>
        <time>2019-08-09T06:05:06Z</time>
      </trkpt>
      <trkpt lat="44.29425" lon="5.82137">
        <ele>563</ele>
        <time>2019-08-09T06:05:07Z</time>
      </trkpt>
      <trkpt lat="44.29419" lon="5.82143">
        <ele>563</ele>
        <time>2019-08-09T06:05:08Z</time>
      </trkpt>
      <trkpt lat="44.29414" lon="5.82148">
        <ele>563</ele>
        <time>2019-08-09T06:05:09Z</time>
      </trkpt>
      <trkpt lat="44.29409" lon="5.82154">
        <ele>563</ele>
        <time>2019-08-09T06:05:10Z</time>
      </trkpt>
      <trkpt lat="44.29404" lon="5.82159">
        <ele>563</ele>
        <time>2019-08-09T06:05:11Z</time>
      </trkpt>
      <trkpt lat="44.29398" lon="5.82164">
        <ele>563</ele>
        <time>2019-08-09T06:05:12Z</time>
      </trkpt>
      <trkpt lat="44.29393" lon="5.8217">
        <ele>563</ele>
        <time>2019-08-09T06:05:13Z</time>
      </trkpt>
      <trkpt lat="44.29389" lon="5.82175">
        <ele>563</ele>
        <time>2019-08-09T06:05:14Z</time>
      </trkpt>
      <trkpt lat="44.29383" lon="5.8218">
        <ele>563</ele>
        <time>2019-08-09T06:05:15Z</time>
      </trkpt>
      <trkpt lat="44.29378" lon="5.82185">
        <ele>563</ele>
        <time>2019-08-09T06:05:16Z</time>
      </trkpt>
      <trkpt lat="44.29373" lon="5.8219">
        <ele>563</ele>
        <time>2019-08-09T06:05:17Z</time>
      </trkpt>
      <trkpt lat="44.29367" lon="5.82194">
        <ele>563</ele>
        <time>2019-08-09T06:05:18Z</time>
      </trkpt>
      <trkpt lat="44.2936" lon="5.82197">
        <ele>563</ele>
        <time>2019-08-09T06:05:19Z</time>
      </trkpt>
      <trkpt lat="44.29355" lon="5.82201">
        <ele>563</ele>
        <time>2019-08-09T06:05:20Z</time>
      </trkpt>
      <trkpt lat="44.2935" lon="5.82204">
        <ele>563</ele>
        <time>2019-08-09T06:05:21Z</time>
      </trkpt>
      <trkpt lat="44.29344" lon="5.82208">
        <ele>563</ele>
        <time>2019-08-09T06:05:22Z</time>
      </trkpt>
      <trkpt lat="44.29339" lon="5.82211">
        <ele>563</ele>
        <time>2019-08-09T06:05:23Z</time>
      </trkpt>
      <trkpt lat="44.29333" lon="5.82214">
        <ele>563</ele>
        <time>2019-08-09T06:05:24Z</time>
      </trkpt>
      <trkpt lat="44.29327" lon="5.82218">
        <ele>563</ele>
        <time>2019-08-09T06:05:25Z</time>
      </trkpt>
      <trkpt lat="44.2932" lon="5.82221">
        <ele>563</ele>
        <time>2019-08-09T06:05:26Z</time>
      </trkpt>
      <trkpt lat="44.29314" lon="5.82224">
        <ele>563</ele>
        <time>2019-08-09T06:05:27Z</time>
      </trkpt>
      <trkpt lat="44.29308" lon="5.82227">
        <ele>563</ele>
        <time>2019-08-09T06:05:28Z</time>
      </trkpt>
      <trkpt lat="44.29301" lon="5.8223">
        <ele>563</ele>
        <time>2019-08-09T06:05:29Z</time>
      </trkpt>
      <trkpt lat="44.29295" lon="5.82233">
        <ele>563</ele>
        <time>2019-08-09T06:05:30Z</time>
      </trkpt>
      <trkpt lat="44.29288" lon="5.82236">
        <ele>563</ele>
        <time>2019-08-09T06:05:31Z</time>
      </trkpt>
      <trkpt lat="44.29282" lon="5.82238">
        <ele>563</ele>
        <time>2019-08-09T06:05:32Z</time>
      </trkpt>
      <trkpt lat="44.29275" lon="5.82241">
        <ele>563</ele>
        <time>2019-08-09T06:05:33Z</time>
      </trkpt>
      <trkpt lat="44.29269" lon="5.82244">
        <ele>563</ele>
        <time>2019-08-09T06:05:34Z</time>
      </trkpt>
      <trkpt lat="44.29261" lon="5.82246">
        <ele>563</ele>
        <time>2019-08-09T06:05:35Z</time>
      </trkpt>
      <trkpt lat="44.29255" lon="5.82249">
        <ele>563</ele>
        <time>2019-08-09T06:05:36Z</time>
      </trkpt>
      <trkpt lat="44.29248" lon="5.82251">
        <ele>563</ele>
        <time>2019-08-09T06:05:37Z</time>
      </trkpt>
      <trkpt lat="44.29241" lon="5.82252">
        <ele>563</ele>
        <time>2019-08-09T06:05:38Z</time>
      </trkpt>
      <trkpt lat="44.29234" lon="5.82253">
        <ele>563</ele>
        <time>2019-08-09T06:05:39Z</time>
      </trkpt>
      <trkpt lat="44.29227" lon="5.82254">
        <ele>563</ele>
        <time>2019-08-09T06:05:40Z</time>
      </trkpt>
      <trkpt lat="44.2922" lon="5.82255">
        <ele>563</ele>
        <time>2019-08-09T06:05:41Z</time>
      </trkpt>
      <trkpt lat="44.29213" lon="5.82256">
        <ele>563</ele>
        <time>2019-08-09T06:05:42Z</time>
      </trkpt>
      <trkpt lat="44.29206" lon="5.82257">
        <ele>563</ele>
        <time>2019-08-09T06:05:43Z</time>
      </trkpt>
      <trkpt lat="44.29199" lon="5.82258">
        <ele>563</ele>
        <time>2019-08-09T06:05:44Z</time>
      </trkpt>
      <trkpt lat="44.29192" lon="5.82259">
        <ele>563</ele>
        <time>2019-08-09T06:05:45Z</time>
      </trkpt>
      <trkpt lat="44.29185" lon="5.82259">
        <ele>563</ele>
        <time>2019-08-09T06:05:46Z</time>
      </trkpt>
      <trkpt lat="44.29177" lon="5.8226">
        <ele>563</ele>
        <time>2019-08-09T06:05:47Z</time>
      </trkpt>
      <trkpt lat="44.29171" lon="5.82261">
        <ele>563</ele>
        <time>2019-08-09T06:05:48Z</time>
      </trkpt>
      <trkpt lat="44.29164" lon="5.82261">
        <ele>563</ele>
        <time>2019-08-09T06:05:49Z</time>
      </trkpt>
      <trkpt lat="44.29158" lon="5.82262">
        <ele>563</ele>
        <time>2019-08-09T06:05:50Z</time>
      </trkpt>
      <trkpt lat="44.2915" lon="5.82263">
        <ele>563</ele>
        <time>2019-08-09T06:05:51Z</time>
      </trkpt>
      <trkpt lat="44.29144" lon="5.82264">
        <ele>563</ele>
        <time>2019-08-09T06:05:52Z</time>
      </trkpt>
      <trkpt lat="44.29137" lon="5.82265">
        <ele>563</ele>
        <time>2019-08-09T06:05:53Z</time>
      </trkpt>
      <trkpt lat="44.29131" lon="5.82265">
        <ele>563</ele>
        <time>2019-08-09T06:05:54Z</time>
      </trkpt>
      <trkpt lat="44.29124" lon="5.82267">
        <ele>563</ele>
        <time>2019-08-09T06:05:55Z</time>
      </trkpt>
      <trkpt lat="44.29118" lon="5.82267">
        <ele>563</ele>
        <time>2019-08-09T06:05:56Z</time>
      </trkpt>
      <trkpt lat="44.29111" lon="5.82268">
        <ele>563</ele>
        <time>2019-08-09T06:05:58Z</time>
      </trkpt>
      <trkpt lat="44.29105" lon="5.82268">
        <ele>563</ele>
        <time>2019-08-09T06:05:58Z</time>
      </trkpt>
      <trkpt lat="44.29098" lon="5.82269">
        <ele>563</ele>
        <time>2019-08-09T06:05:59Z</time>
      </trkpt>
      <trkpt lat="44.29092" lon="5.8227">
        <ele>563</ele>
        <time>2019-08-09T06:06:00Z</time>
      </trkpt>
      <trkpt lat="44.29086" lon="5.8227">
        <ele>563</ele>
        <time>2019-08-09T06:06:01Z</time>
      </trkpt>
      <trkpt lat="44.29079" lon="5.82271">
        <ele>563</ele>
        <time>2019-08-09T06:06:02Z</time>
      </trkpt>
      <trkpt lat="44.29072" lon="5.82271">
        <ele>563</ele>
        <time>2019-08-09T06:06:03Z</time>
      </trkpt>
      <trkpt lat="44.29065" lon="5.82272">
        <ele>563</ele>
        <time>2019-08-09T06:06:04Z</time>
      </trkpt>
      <trkpt lat="44.29059" lon="5.82273">
        <ele>563</ele>
        <time>2019-08-09T06:06:05Z</time>
      </trkpt>
      <trkpt lat="44.29052" lon="5.82273">
        <ele>563</ele>
        <time>2019-08-09T06:06:06Z</time>
      </trkpt>
      <trkpt lat="44.29046" lon="5.82274">
        <ele>563</ele>
        <time>2019-08-09T06:06:07Z</time>
      </trkpt>
      <trkpt lat="44.2904" lon="5.82274">
        <ele>563</ele>
        <time>2019-08-09T06:06:08Z</time>
      </trkpt>
      <trkpt lat="44.29034" lon="5.82274">
        <ele>563</ele>
        <time>2019-08-09T06:06:09Z</time>
      </trkpt>
      <trkpt lat="44.29028" lon="5.82274">
        <ele>563</ele>
        <time>2019-08-09T06:06:10Z</time>
      </trkpt>
      <trkpt lat="44.29022" lon="5.82275">
        <ele>563</ele>
        <time>2019-08-09T06:06:11Z</time>
      </trkpt>
      <trkpt lat="44.29016" lon="5.82276">
        <ele>563</ele>
        <time>2019-08-09T06:06:12Z</time>
      </trkpt>
      <trkpt lat="44.2901" lon="5.82277">
        <ele>563</ele>
        <time>2019-08-09T06:06:13Z</time>
      </trkpt>
      <trkpt lat="44.29005" lon="5.82278">
        <ele>564</ele>
        <time>2019-08-09T06:06:14Z</time>
      </trkpt>
      <trkpt lat="44.28999" lon="5.82279">
        <ele>565</ele>
        <time>2019-08-09T06:06:15Z</time>
      </trkpt>
      <trkpt lat="44.28994" lon="5.8228">
        <ele>565</ele>
        <time>2019-08-09T06:06:16Z</time>
      </trkpt>
      <trkpt lat="44.28988" lon="5.8228">
        <ele>566</ele>
        <time>2019-08-09T06:06:17Z</time>
      </trkpt>
      <trkpt lat="44.28982" lon="5.8228">
        <ele>566</ele>
        <time>2019-08-09T06:06:18Z</time>
      </trkpt>
      <trkpt lat="44.28976" lon="5.82282">
        <ele>567</ele>
        <time>2019-08-09T06:06:19Z</time>
      </trkpt>
      <trkpt lat="44.2897" lon="5.82282">
        <ele>567</ele>
        <time>2019-08-09T06:06:20Z</time>
      </trkpt>
      <trkpt lat="44.28964" lon="5.82283">
        <ele>567</ele>
        <time>2019-08-09T06:06:21Z</time>
      </trkpt>
      <trkpt lat="44.28958" lon="5.82283">
        <ele>567</ele>
        <time>2019-08-09T06:06:22Z</time>
      </trkpt>
      <trkpt lat="44.28953" lon="5.82282">
        <ele>567</ele>
        <time>2019-08-09T06:06:23Z</time>
      </trkpt>
      <trkpt lat="44.28947" lon="5.82282">
        <ele>567</ele>
        <time>2019-08-09T06:06:24Z</time>
      </trkpt>
      <trkpt lat="44.28942" lon="5.82282">
        <ele>567</ele>
        <time>2019-08-09T06:06:25Z</time>
      </trkpt>
      <trkpt lat="44.28936" lon="5.82283">
        <ele>567</ele>
        <time>2019-08-09T06:06:26Z</time>
      </trkpt>
      <trkpt lat="44.28931" lon="5.82283">
        <ele>567</ele>
        <time>2019-08-09T06:06:27Z</time>
      </trkpt>
      <trkpt lat="44.28925" lon="5.82283">
        <ele>567</ele>
        <time>2019-08-09T06:06:28Z</time>
      </trkpt>
      <trkpt lat="44.2892" lon="5.82282">
        <ele>567</ele>
        <time>2019-08-09T06:06:29Z</time>
      </trkpt>
      <trkpt lat="44.28915" lon="5.82281">
        <ele>568</ele>
        <time>2019-08-09T06:06:30Z</time>
      </trkpt>
      <trkpt lat="44.28909" lon="5.8228">
        <ele>568</ele>
        <time>2019-08-09T06:06:31Z</time>
      </trkpt>
      <trkpt lat="44.28904" lon="5.82278">
        <ele>568</ele>
        <time>2019-08-09T06:06:32Z</time>
      </trkpt>
      <trkpt lat="44.28899" lon="5.82275">
        <ele>569</ele>
        <time>2019-08-09T06:06:33Z</time>
      </trkpt>
      <trkpt lat="44.28894" lon="5.82273">
        <ele>569</ele>
        <time>2019-08-09T06:06:34Z</time>
      </trkpt>
      <trkpt lat="44.28888" lon="5.82269">
        <ele>569</ele>
        <time>2019-08-09T06:06:35Z</time>
      </trkpt>
      <trkpt lat="44.28883" lon="5.82265">
        <ele>569</ele>
        <time>2019-08-09T06:06:36Z</time>
      </trkpt>
      <trkpt lat="44.28879" lon="5.8226">
        <ele>570</ele>
        <time>2019-08-09T06:06:37Z</time>
      </trkpt>
      <trkpt lat="44.28874" lon="5.82256">
        <ele>570</ele>
        <time>2019-08-09T06:06:38Z</time>
      </trkpt>
      <trkpt lat="44.2887" lon="5.82251">
        <ele>570</ele>
        <time>2019-08-09T06:06:39Z</time>
      </trkpt>
      <trkpt lat="44.28865" lon="5.82245">
        <ele>570</ele>
        <time>2019-08-09T06:06:40Z</time>
      </trkpt>
      <trkpt lat="44.2886" lon="5.8224">
        <ele>570</ele>
        <time>2019-08-09T06:06:41Z</time>
      </trkpt>
      <trkpt lat="44.28855" lon="5.82235">
        <ele>570</ele>
        <time>2019-08-09T06:06:42Z</time>
      </trkpt>
      <trkpt lat="44.28849" lon="5.8223">
        <ele>570</ele>
        <time>2019-08-09T06:06:43Z</time>
      </trkpt>
      <trkpt lat="44.28845" lon="5.82226">
        <ele>570</ele>
        <time>2019-08-09T06:06:44Z</time>
      </trkpt>
      <trkpt lat="44.28839" lon="5.82221">
        <ele>570</ele>
        <time>2019-08-09T06:06:45Z</time>
      </trkpt>
      <trkpt lat="44.28834" lon="5.82216">
        <ele>570</ele>
        <time>2019-08-09T06:06:46Z</time>
      </trkpt>
      <trkpt lat="44.28829" lon="5.82211">
        <ele>570</ele>
        <time>2019-08-09T06:06:47Z</time>
      </trkpt>
      <trkpt lat="44.28823" lon="5.82206">
        <ele>570</ele>
        <time>2019-08-09T06:06:48Z</time>
      </trkpt>
      <trkpt lat="44.28817" lon="5.82201">
        <ele>570</ele>
        <time>2019-08-09T06:06:49Z</time>
      </trkpt>
      <trkpt lat="44.28812" lon="5.82197">
        <ele>570</ele>
        <time>2019-08-09T06:06:50Z</time>
      </trkpt>
      <trkpt lat="44.28806" lon="5.82192">
        <ele>570</ele>
        <time>2019-08-09T06:06:51Z</time>
      </trkpt>
      <trkpt lat="44.28799" lon="5.82187">
        <ele>570</ele>
        <time>2019-08-09T06:06:52Z</time>
      </trkpt>
      <trkpt lat="44.28793" lon="5.82183">
        <ele>570</ele>
        <time>2019-08-09T06:06:53Z</time>
      </trkpt>
      <trkpt lat="44.28786" lon="5.82178">
        <ele>570</ele>
        <time>2019-08-09T06:06:54Z</time>
      </trkpt>
      <trkpt lat="44.2878" lon="5.82174">
        <ele>570</ele>
        <time>2019-08-09T06:06:55Z</time>
      </trkpt>
      <trkpt lat="44.28773" lon="5.82171">
        <ele>570</ele>
        <time>2019-08-09T06:06:56Z</time>
      </trkpt>
      <trkpt lat="44.28767" lon="5.82166">
        <ele>570</ele>
        <time>2019-08-09T06:06:58Z</time>
      </trkpt>
      <trkpt lat="44.28759" lon="5.82162">
        <ele>570</ele>
        <time>2019-08-09T06:06:58Z</time>
      </trkpt>
      <trkpt lat="44.28751" lon="5.82158">
        <ele>570</ele>
        <time>2019-08-09T06:06:59Z</time>
      </trkpt>
      <trkpt lat="44.28744" lon="5.82155">
        <ele>570</ele>
        <time>2019-08-09T06:07:00Z</time>
      </trkpt>
      <trkpt lat="44.28736" lon="5.82151">
        <ele>570</ele>
        <time>2019-08-09T06:07:01Z</time>
      </trkpt>
      <trkpt lat="44.28729" lon="5.82148">
        <ele>570</ele>
        <time>2019-08-09T06:07:02Z</time>
      </trkpt>
      <trkpt lat="44.28721" lon="5.82145">
        <ele>570</ele>
        <time>2019-08-09T06:07:03Z</time>
      </trkpt>
      <trkpt lat="44.28713" lon="5.82142">
        <ele>570</ele>
        <time>2019-08-09T06:07:04Z</time>
      </trkpt>
      <trkpt lat="44.28705" lon="5.82139">
        <ele>570</ele>
        <time>2019-08-09T06:07:05Z</time>
      </trkpt>
      <trkpt lat="44.28697" lon="5.82137">
        <ele>570</ele>
        <time>2019-08-09T06:07:06Z</time>
      </trkpt>
      <trkpt lat="44.28689" lon="5.82134">
        <ele>570</ele>
        <time>2019-08-09T06:07:07Z</time>
      </trkpt>
      <trkpt lat="44.2868" lon="5.82131">
        <ele>570</ele>
        <time>2019-08-09T06:07:08Z</time>
      </trkpt>
      <trkpt lat="44.28672" lon="5.82129">
        <ele>569</ele>
        <time>2019-08-09T06:07:09Z</time>
      </trkpt>
      <trkpt lat="44.28664" lon="5.82126">
        <ele>569</ele>
        <time>2019-08-09T06:07:10Z</time>
      </trkpt>
      <trkpt lat="44.28655" lon="5.82123">
        <ele>568</ele>
        <time>2019-08-09T06:07:11Z</time>
      </trkpt>
      <trkpt lat="44.28646" lon="5.82121">
        <ele>568</ele>
        <time>2019-08-09T06:07:12Z</time>
      </trkpt>
      <trkpt lat="44.28637" lon="5.82118">
        <ele>567</ele>
        <time>2019-08-09T06:07:13Z</time>
      </trkpt>
      <trkpt lat="44.28628" lon="5.82115">
        <ele>567</ele>
        <time>2019-08-09T06:07:14Z</time>
      </trkpt>
      <trkpt lat="44.28619" lon="5.82112">
        <ele>567</ele>
        <time>2019-08-09T06:07:15Z</time>
      </trkpt>
      <trkpt lat="44.2861" lon="5.82109">
        <ele>566</ele>
        <time>2019-08-09T06:07:16Z</time>
      </trkpt>
      <trkpt lat="44.28601" lon="5.82106">
        <ele>566</ele>
        <time>2019-08-09T06:07:17Z</time>
      </trkpt>
      <trkpt lat="44.28592" lon="5.82102">
        <ele>565</ele>
        <time>2019-08-09T06:07:18Z</time>
      </trkpt>
      <trkpt lat="44.28583" lon="5.82097">
        <ele>564</ele>
        <time>2019-08-09T06:07:19Z</time>
      </trkpt>
      <trkpt lat="44.28574" lon="5.82093">
        <ele>564</ele>
        <time>2019-08-09T06:07:20Z</time>
      </trkpt>
      <trkpt lat="44.28565" lon="5.82088">
        <ele>563</ele>
        <time>2019-08-09T06:07:21Z</time>
      </trkpt>
      <trkpt lat="44.28556" lon="5.82084">
        <ele>562</ele>
        <time>2019-08-09T06:07:22Z</time>
      </trkpt>
      <trkpt lat="44.28547" lon="5.82079">
        <ele>562</ele>
        <time>2019-08-09T06:07:23Z</time>
      </trkpt>
      <trkpt lat="44.28538" lon="5.82075">
        <ele>561</ele>
        <time>2019-08-09T06:07:24Z</time>
      </trkpt>
      <trkpt lat="44.28528" lon="5.8207">
        <ele>561</ele>
        <time>2019-08-09T06:07:25Z</time>
      </trkpt>
      <trkpt lat="44.28519" lon="5.82066">
        <ele>560</ele>
        <time>2019-08-09T06:07:26Z</time>
      </trkpt>
      <trkpt lat="44.2851" lon="5.82061">
        <ele>560</ele>
        <time>2019-08-09T06:07:27Z</time>
      </trkpt>
      <trkpt lat="44.285" lon="5.82056">
        <ele>559</ele>
        <time>2019-08-09T06:07:28Z</time>
      </trkpt>
      <trkpt lat="44.28491" lon="5.82051">
        <ele>559</ele>
        <time>2019-08-09T06:07:29Z</time>
      </trkpt>
      <trkpt lat="44.28482" lon="5.82047">
        <ele>558</ele>
        <time>2019-08-09T06:07:30Z</time>
      </trkpt>
      <trkpt lat="44.28473" lon="5.82042">
        <ele>558</ele>
        <time>2019-08-09T06:07:31Z</time>
      </trkpt>
      <trkpt lat="44.28463" lon="5.82037">
        <ele>558</ele>
        <time>2019-08-09T06:07:32Z</time>
      </trkpt>
      <trkpt lat="44.28454" lon="5.82033">
        <ele>557</ele>
        <time>2019-08-09T06:07:33Z</time>
      </trkpt>
      <trkpt lat="44.28445" lon="5.8203">
        <ele>557</ele>
        <time>2019-08-09T06:07:34Z</time>
      </trkpt>
      <trkpt lat="44.28435" lon="5.82027">
        <ele>556</ele>
        <time>2019-08-09T06:07:35Z</time>
      </trkpt>
      <trkpt lat="44.28426" lon="5.82025">
        <ele>556</ele>
        <time>2019-08-09T06:07:36Z</time>
      </trkpt>
      <trkpt lat="44.28416" lon="5.82023">
        <ele>556</ele>
        <time>2019-08-09T06:07:37Z</time>
      </trkpt>
      <trkpt lat="44.28407" lon="5.82021">
        <ele>555</ele>
        <time>2019-08-09T06:07:38Z</time>
      </trkpt>
      <trkpt lat="44.28398" lon="5.82019">
        <ele>555</ele>
        <time>2019-08-09T06:07:39Z</time>
      </trkpt>
      <trkpt lat="44.28389" lon="5.82018">
        <ele>555</ele>
        <time>2019-08-09T06:07:40Z</time>
      </trkpt>
      <trkpt lat="44.28379" lon="5.82017">
        <ele>554</ele>
        <time>2019-08-09T06:07:41Z</time>
      </trkpt>
      <trkpt lat="44.2837" lon="5.82017">
        <ele>554</ele>
        <time>2019-08-09T06:07:42Z</time>
      </trkpt>
      <trkpt lat="44.28361" lon="5.82017">
        <ele>554</ele>
        <time>2019-08-09T06:07:43Z</time>
      </trkpt>
      <trkpt lat="44.28352" lon="5.82017">
        <ele>554</ele>
        <time>2019-08-09T06:07:44Z</time>
      </trkpt>
      <trkpt lat="44.28344" lon="5.82017">
        <ele>554</ele>
        <time>2019-08-09T06:07:45Z</time>
      </trkpt>
      <trkpt lat="44.28335" lon="5.82016">
        <ele>553</ele>
        <time>2019-08-09T06:07:46Z</time>
      </trkpt>
      <trkpt lat="44.28327" lon="5.82016">
        <ele>553</ele>
        <time>2019-08-09T06:07:47Z</time>
      </trkpt>
      <trkpt lat="44.28319" lon="5.82016">
        <ele>553</ele>
        <time>2019-08-09T06:07:48Z</time>
      </trkpt>
      <trkpt lat="44.2831" lon="5.82016">
        <ele>553</ele>
        <time>2019-08-09T06:07:49Z</time>
      </trkpt>
      <trkpt lat="44.28302" lon="5.82016">
        <ele>553</ele>
        <time>2019-08-09T06:07:50Z</time>
      </trkpt>
      <trkpt lat="44.28294" lon="5.82016">
        <ele>553</ele>
        <time>2019-08-09T06:07:51Z</time>
      </trkpt>
      <trkpt lat="44.28286" lon="5.82016">
        <ele>553</ele>
        <time>2019-08-09T06:07:52Z</time>
      </trkpt>
      <trkpt lat="44.28278" lon="5.82015">
        <ele>553</ele>
        <time>2019-08-09T06:07:53Z</time>
      </trkpt>
      <trkpt lat="44.28269" lon="5.82015">
        <ele>553</ele>
        <time>2019-08-09T06:07:54Z</time>
      </trkpt>
      <trkpt lat="44.28261" lon="5.82015">
        <ele>553</ele>
        <time>2019-08-09T06:07:55Z</time>
      </trkpt>
      <trkpt lat="44.28252" lon="5.82014">
        <ele>553</ele>
        <time>2019-08-09T06:07:56Z</time>
      </trkpt>
      <trkpt lat="44.28244" lon="5.82012">
        <ele>553</ele>
        <time>2019-08-09T06:07:58Z</time>
      </trkpt>
      <trkpt lat="44.28235" lon="5.82009">
        <ele>553</ele>
        <time>2019-08-09T06:07:58Z</time>
      </trkpt>
      <trkpt lat="44.28227" lon="5.82006">
        <ele>553</ele>
        <time>2019-08-09T06:07:59Z</time>
      </trkpt>
      <trkpt lat="44.28219" lon="5.82002">
        <ele>553</ele>
        <time>2019-08-09T06:08:01Z</time>
      </trkpt>
      <trkpt lat="44.28212" lon="5.81998">
        <ele>553</ele>
        <time>2019-08-09T06:08:01Z</time>
      </trkpt>
      <trkpt lat="44.28204" lon="5.81994">
        <ele>553</ele>
        <time>2019-08-09T06:08:02Z</time>
      </trkpt>
      <trkpt lat="44.28197" lon="5.81989">
        <ele>553</ele>
        <time>2019-08-09T06:08:03Z</time>
      </trkpt>
      <trkpt lat="44.28189" lon="5.81984">
        <ele>553</ele>
        <time>2019-08-09T06:08:04Z</time>
      </trkpt>
      <trkpt lat="44.28182" lon="5.81979">
        <ele>553</ele>
        <time>2019-08-09T06:08:05Z</time>
      </trkpt>
      <trkpt lat="44.28175" lon="5.81974">
        <ele>553</ele>
        <time>2019-08-09T06:08:06Z</time>
      </trkpt>
      <trkpt lat="44.28168" lon="5.8197">
        <ele>553</ele>
        <time>2019-08-09T06:08:07Z</time>
      </trkpt>
      <trkpt lat="44.28161" lon="5.81965">
        <ele>553</ele>
        <time>2019-08-09T06:08:08Z</time>
      </trkpt>
      <trkpt lat="44.28154" lon="5.81961">
        <ele>553</ele>
        <time>2019-08-09T06:08:09Z</time>
      </trkpt>
      <trkpt lat="44.28147" lon="5.81956">
        <ele>553</ele>
        <time>2019-08-09T06:08:10Z</time>
      </trkpt>
      <trkpt lat="44.2814" lon="5.81952">
        <ele>553</ele>
        <time>2019-08-09T06:08:11Z</time>
      </trkpt>
      <trkpt lat="44.28133" lon="5.81948">
        <ele>553</ele>
        <time>2019-08-09T06:08:12Z</time>
      </trkpt>
      <trkpt lat="44.28126" lon="5.81943">
        <ele>553</ele>
        <time>2019-08-09T06:08:13Z</time>
      </trkpt>
      <trkpt lat="44.28119" lon="5.81939">
        <ele>553</ele>
        <time>2019-08-09T06:08:14Z</time>
      </trkpt>
      <trkpt lat="44.28112" lon="5.81934">
        <ele>552</ele>
        <time>2019-08-09T06:08:15Z</time>
      </trkpt>
      <trkpt lat="44.28105" lon="5.81929">
        <ele>552</ele>
        <time>2019-08-09T06:08:16Z</time>
      </trkpt>
      <trkpt lat="44.28098" lon="5.81925">
        <ele>552</ele>
        <time>2019-08-09T06:08:17Z</time>
      </trkpt>
      <trkpt lat="44.28091" lon="5.8192">
        <ele>552</ele>
        <time>2019-08-09T06:08:18Z</time>
      </trkpt>
      <trkpt lat="44.28084" lon="5.81915">
        <ele>551</ele>
        <time>2019-08-09T06:08:19Z</time>
      </trkpt>
      <trkpt lat="44.28077" lon="5.8191">
        <ele>551</ele>
        <time>2019-08-09T06:08:20Z</time>
      </trkpt>
      <trkpt lat="44.2807" lon="5.81905">
        <ele>551</ele>
        <time>2019-08-09T06:08:21Z</time>
      </trkpt>
      <trkpt lat="44.28062" lon="5.81901">
        <ele>551</ele>
        <time>2019-08-09T06:08:22Z</time>
      </trkpt>
      <trkpt lat="44.28055" lon="5.81896">
        <ele>551</ele>
        <time>2019-08-09T06:08:23Z</time>
      </trkpt>
      <trkpt lat="44.28048" lon="5.81891">
        <ele>551</ele>
        <time>2019-08-09T06:08:24Z</time>
      </trkpt>
      <trkpt lat="44.28041" lon="5.81887">
        <ele>551</ele>
        <time>2019-08-09T06:08:25Z</time>
      </trkpt>
      <trkpt lat="44.28035" lon="5.81882">
        <ele>551</ele>
        <time>2019-08-09T06:08:26Z</time>
      </trkpt>
      <trkpt lat="44.28028" lon="5.81878">
        <ele>551</ele>
        <time>2019-08-09T06:08:27Z</time>
      </trkpt>
      <trkpt lat="44.28021" lon="5.81873">
        <ele>551</ele>
        <time>2019-08-09T06:08:28Z</time>
      </trkpt>
      <trkpt lat="44.28014" lon="5.81869">
        <ele>551</ele>
        <time>2019-08-09T06:08:29Z</time>
      </trkpt>
      <trkpt lat="44.28007" lon="5.81865">
        <ele>551</ele>
        <time>2019-08-09T06:08:30Z</time>
      </trkpt>
      <trkpt lat="44.28" lon="5.81861">
        <ele>551</ele>
        <time>2019-08-09T06:08:31Z</time>
      </trkpt>
      <trkpt lat="44.27994" lon="5.81856">
        <ele>551</ele>
        <time>2019-08-09T06:08:32Z</time>
      </trkpt>
      <trkpt lat="44.27987" lon="5.81851">
        <ele>551</ele>
        <time>2019-08-09T06:08:33Z</time>
      </trkpt>
      <trkpt lat="44.2798" lon="5.81847">
        <ele>551</ele>
        <time>2019-08-09T06:08:34Z</time>
      </trkpt>
      <trkpt lat="44.27974" lon="5.81842">
        <ele>551</ele>
        <time>2019-08-09T06:08:35Z</time>
      </trkpt>
      <trkpt lat="44.27967" lon="5.81838">
        <ele>551</ele>
        <time>2019-08-09T06:08:36Z</time>
      </trkpt>
      <trkpt lat="44.27961" lon="5.81834">
        <ele>551</ele>
        <time>2019-08-09T06:08:37Z</time>
      </trkpt>
      <trkpt lat="44.27953" lon="5.8183">
        <ele>551</ele>
        <time>2019-08-09T06:08:38Z</time>
      </trkpt>
      <trkpt lat="44.27947" lon="5.81825">
        <ele>551</ele>
        <time>2019-08-09T06:08:39Z</time>
      </trkpt>
      <trkpt lat="44.2794" lon="5.81821">
        <ele>551</ele>
        <time>2019-08-09T06:08:40Z</time>
      </trkpt>
      <trkpt lat="44.27933" lon="5.81817">
        <ele>551</ele>
        <time>2019-08-09T06:08:41Z</time>
      </trkpt>
      <trkpt lat="44.27926" lon="5.81812">
        <ele>551</ele>
        <time>2019-08-09T06:08:42Z</time>
      </trkpt>
      <trkpt lat="44.27919" lon="5.81808">
        <ele>551</ele>
        <time>2019-08-09T06:08:43Z</time>
      </trkpt>
      <trkpt lat="44.27912" lon="5.81804">
        <ele>551</ele>
        <time>2019-08-09T06:08:44Z</time>
      </trkpt>
      <trkpt lat="44.27906" lon="5.81799">
        <ele>551</ele>
        <time>2019-08-09T06:08:45Z</time>
      </trkpt>
      <trkpt lat="44.27899" lon="5.81794">
        <ele>551</ele>
        <time>2019-08-09T06:08:46Z</time>
      </trkpt>
      <trkpt lat="44.27892" lon="5.81789">
        <ele>550</ele>
        <time>2019-08-09T06:08:47Z</time>
      </trkpt>
      <trkpt lat="44.27886" lon="5.81785">
        <ele>550</ele>
        <time>2019-08-09T06:08:48Z</time>
      </trkpt>
      <trkpt lat="44.27879" lon="5.8178">
        <ele>550</ele>
        <time>2019-08-09T06:08:49Z</time>
      </trkpt>
      <trkpt lat="44.27872" lon="5.81776">
        <ele>550</ele>
        <time>2019-08-09T06:08:50Z</time>
      </trkpt>
      <trkpt lat="44.27865" lon="5.81771">
        <ele>549</ele>
        <time>2019-08-09T06:08:51Z</time>
      </trkpt>
      <trkpt lat="44.27858" lon="5.81767">
        <ele>549</ele>
        <time>2019-08-09T06:08:52Z</time>
      </trkpt>
      <trkpt lat="44.27851" lon="5.81762">
        <ele>549</ele>
        <time>2019-08-09T06:08:53Z</time>
      </trkpt>
      <trkpt lat="44.27844" lon="5.81758">
        <ele>549</ele>
        <time>2019-08-09T06:08:54Z</time>
      </trkpt>
      <trkpt lat="44.27837" lon="5.81753">
        <ele>549</ele>
        <time>2019-08-09T06:08:55Z</time>
      </trkpt>
      <trkpt lat="44.2783" lon="5.81748">
        <ele>549</ele>
        <time>2019-08-09T06:08:56Z</time>
      </trkpt>
      <trkpt lat="44.27822" lon="5.81744">
        <ele>548</ele>
        <time>2019-08-09T06:08:58Z</time>
      </trkpt>
      <trkpt lat="44.27815" lon="5.81739">
        <ele>548</ele>
        <time>2019-08-09T06:08:58Z</time>
      </trkpt>
      <trkpt lat="44.27808" lon="5.81734">
        <ele>548</ele>
        <time>2019-08-09T06:08:59Z</time>
      </trkpt>
      <trkpt lat="44.27801" lon="5.81729">
        <ele>548</ele>
        <time>2019-08-09T06:09:00Z</time>
      </trkpt>
      <trkpt lat="44.27793" lon="5.81725">
        <ele>548</ele>
        <time>2019-08-09T06:09:01Z</time>
      </trkpt>
      <trkpt lat="44.27786" lon="5.8172">
        <ele>548</ele>
        <time>2019-08-09T06:09:02Z</time>
      </trkpt>
      <trkpt lat="44.27778" lon="5.81715">
        <ele>548</ele>
        <time>2019-08-09T06:09:03Z</time>
      </trkpt>
      <trkpt lat="44.27771" lon="5.8171">
        <ele>547</ele>
        <time>2019-08-09T06:09:04Z</time>
      </trkpt>
      <trkpt lat="44.27763" lon="5.81705">
        <ele>547</ele>
        <time>2019-08-09T06:09:05Z</time>
      </trkpt>
      <trkpt lat="44.27756" lon="5.817">
        <ele>547</ele>
        <time>2019-08-09T06:09:06Z</time>
      </trkpt>
      <trkpt lat="44.27748" lon="5.81695">
        <ele>547</ele>
        <time>2019-08-09T06:09:07Z</time>
      </trkpt>
      <trkpt lat="44.27741" lon="5.8169">
        <ele>547</ele>
        <time>2019-08-09T06:09:08Z</time>
      </trkpt>
      <trkpt lat="44.27733" lon="5.81685">
        <ele>546</ele>
        <time>2019-08-09T06:09:09Z</time>
      </trkpt>
      <trkpt lat="44.27725" lon="5.81681">
        <ele>546</ele>
        <time>2019-08-09T06:09:10Z</time>
      </trkpt>
      <trkpt lat="44.27717" lon="5.81677">
        <ele>546</ele>
        <time>2019-08-09T06:09:11Z</time>
      </trkpt>
      <trkpt lat="44.27709" lon="5.81674">
        <ele>546</ele>
        <time>2019-08-09T06:09:12Z</time>
      </trkpt>
      <trkpt lat="44.27701" lon="5.81672">
        <ele>546</ele>
        <time>2019-08-09T06:09:13Z</time>
      </trkpt>
      <trkpt lat="44.27692" lon="5.8167">
        <ele>546</ele>
        <time>2019-08-09T06:09:14Z</time>
      </trkpt>
      <trkpt lat="44.27684" lon="5.8167">
        <ele>546</ele>
        <time>2019-08-09T06:09:15Z</time>
      </trkpt>
      <trkpt lat="44.27675" lon="5.8167">
        <ele>546</ele>
        <time>2019-08-09T06:09:16Z</time>
      </trkpt>
      <trkpt lat="44.27666" lon="5.81671">
        <ele>546</ele>
        <time>2019-08-09T06:09:17Z</time>
      </trkpt>
      <trkpt lat="44.27657" lon="5.81673">
        <ele>546</ele>
        <time>2019-08-09T06:09:18Z</time>
      </trkpt>
      <trkpt lat="44.27649" lon="5.81675">
        <ele>545</ele>
        <time>2019-08-09T06:09:19Z</time>
      </trkpt>
      <trkpt lat="44.2764" lon="5.81678">
        <ele>545</ele>
        <time>2019-08-09T06:09:20Z</time>
      </trkpt>
      <trkpt lat="44.27632" lon="5.81681">
        <ele>545</ele>
        <time>2019-08-09T06:09:21Z</time>
      </trkpt>
      <trkpt lat="44.27624" lon="5.81684">
        <ele>545</ele>
        <time>2019-08-09T06:09:22Z</time>
      </trkpt>
      <trkpt lat="44.27616" lon="5.81687">
        <ele>545</ele>
        <time>2019-08-09T06:09:23Z</time>
      </trkpt>
      <trkpt lat="44.27608" lon="5.81691">
        <ele>545</ele>
        <time>2019-08-09T06:09:24Z</time>
      </trkpt>
      <trkpt lat="44.276" lon="5.81694">
        <ele>545</ele>
        <time>2019-08-09T06:09:25Z</time>
      </trkpt>
      <trkpt lat="44.27592" lon="5.81697">
        <ele>545</ele>
        <time>2019-08-09T06:09:26Z</time>
      </trkpt>
      <trkpt lat="44.27585" lon="5.817">
        <ele>545</ele>
        <time>2019-08-09T06:09:27Z</time>
      </trkpt>
      <trkpt lat="44.27577" lon="5.81703">
        <ele>545</ele>
        <time>2019-08-09T06:09:28Z</time>
      </trkpt>
      <trkpt lat="44.27569" lon="5.81706">
        <ele>544</ele>
        <time>2019-08-09T06:09:29Z</time>
      </trkpt>
      <trkpt lat="44.27562" lon="5.81709">
        <ele>544</ele>
        <time>2019-08-09T06:09:30Z</time>
      </trkpt>
      <trkpt lat="44.27554" lon="5.81713">
        <ele>544</ele>
        <time>2019-08-09T06:09:31Z</time>
      </trkpt>
      <trkpt lat="44.27546" lon="5.81716">
        <ele>544</ele>
        <time>2019-08-09T06:09:32Z</time>
      </trkpt>
      <trkpt lat="44.27537" lon="5.81719">
        <ele>543</ele>
        <time>2019-08-09T06:09:33Z</time>
      </trkpt>
      <trkpt lat="44.27529" lon="5.81723">
        <ele>543</ele>
        <time>2019-08-09T06:09:34Z</time>
      </trkpt>
      <trkpt lat="44.27521" lon="5.81726">
        <ele>543</ele>
        <time>2019-08-09T06:09:35Z</time>
      </trkpt>
      <trkpt lat="44.27513" lon="5.81729">
        <ele>543</ele>
        <time>2019-08-09T06:09:36Z</time>
      </trkpt>
      <trkpt lat="44.27505" lon="5.81733">
        <ele>543</ele>
        <time>2019-08-09T06:09:37Z</time>
      </trkpt>
      <trkpt lat="44.27497" lon="5.81736">
        <ele>543</ele>
        <time>2019-08-09T06:09:38Z</time>
      </trkpt>
      <trkpt lat="44.27488" lon="5.8174">
        <ele>543</ele>
        <time>2019-08-09T06:09:39Z</time>
      </trkpt>
      <trkpt lat="44.2748" lon="5.81743">
        <ele>542</ele>
        <time>2019-08-09T06:09:40Z</time>
      </trkpt>
      <trkpt lat="44.27472" lon="5.81746">
        <ele>542</ele>
        <time>2019-08-09T06:09:41Z</time>
      </trkpt>
      <trkpt lat="44.27464" lon="5.81749">
        <ele>542</ele>
        <time>2019-08-09T06:09:42Z</time>
      </trkpt>
      <trkpt lat="44.27456" lon="5.81752">
        <ele>542</ele>
        <time>2019-08-09T06:09:43Z</time>
      </trkpt>
      <trkpt lat="44.27448" lon="5.81755">
        <ele>541</ele>
        <time>2019-08-09T06:09:44Z</time>
      </trkpt>
      <trkpt lat="44.2744" lon="5.81758">
        <ele>541</ele>
        <time>2019-08-09T06:09:45Z</time>
      </trkpt>
      <trkpt lat="44.27432" lon="5.81762">
        <ele>541</ele>
        <time>2019-08-09T06:09:46Z</time>
      </trkpt>
      <trkpt lat="44.27424" lon="5.81765">
        <ele>541</ele>
        <time>2019-08-09T06:09:47Z</time>
      </trkpt>
      <trkpt lat="44.27416" lon="5.81768">
        <ele>541</ele>
        <time>2019-08-09T06:09:48Z</time>
      </trkpt>
      <trkpt lat="44.27408" lon="5.81771">
        <ele>541</ele>
        <time>2019-08-09T06:09:49Z</time>
      </trkpt>
      <trkpt lat="44.274" lon="5.81775">
        <ele>541</ele>
        <time>2019-08-09T06:09:50Z</time>
      </trkpt>
      <trkpt lat="44.27392" lon="5.81778">
        <ele>541</ele>
        <time>2019-08-09T06:09:51Z</time>
      </trkpt>
      <trkpt lat="44.27384" lon="5.81781">
        <ele>541</ele>
        <time>2019-08-09T06:09:52Z</time>
      </trkpt>
      <trkpt lat="44.27376" lon="5.81784">
        <ele>541</ele>
        <time>2019-08-09T06:09:53Z</time>
      </trkpt>
      <trkpt lat="44.27368" lon="5.81787">
        <ele>541</ele>
        <time>2019-08-09T06:09:54Z</time>
      </trkpt>
      <trkpt lat="44.2736" lon="5.81791">
        <ele>541</ele>
        <time>2019-08-09T06:09:55Z</time>
      </trkpt>
      <trkpt lat="44.27352" lon="5.81794">
        <ele>541</ele>
        <time>2019-08-09T06:09:56Z</time>
      </trkpt>
      <trkpt lat="44.27344" lon="5.81798">
        <ele>541</ele>
        <time>2019-08-09T06:09:58Z</time>
      </trkpt>
      <trkpt lat="44.27336" lon="5.81801">
        <ele>541</ele>
        <time>2019-08-09T06:09:58Z</time>
      </trkpt>
      <trkpt lat="44.27328" lon="5.81804">
        <ele>541</ele>
        <time>2019-08-09T06:09:59Z</time>
      </trkpt>
      <trkpt lat="44.2732" lon="5.81807">
        <ele>541</ele>
        <time>2019-08-09T06:10:00Z</time>
      </trkpt>
      <trkpt lat="44.27312" lon="5.8181">
        <ele>541</ele>
        <time>2019-08-09T06:10:01Z</time>
      </trkpt>
      <trkpt lat="44.27304" lon="5.81813">
        <ele>541</ele>
        <time>2019-08-09T06:10:02Z</time>
      </trkpt>
      <trkpt lat="44.27296" lon="5.81817">
        <ele>541</ele>
        <time>2019-08-09T06:10:03Z</time>
      </trkpt>
      <trkpt lat="44.27288" lon="5.8182">
        <ele>540</ele>
        <time>2019-08-09T06:10:04Z</time>
      </trkpt>
      <trkpt lat="44.2728" lon="5.81823">
        <ele>540</ele>
        <time>2019-08-09T06:10:05Z</time>
      </trkpt>
      <trkpt lat="44.27273" lon="5.81826">
        <ele>540</ele>
        <time>2019-08-09T06:10:06Z</time>
      </trkpt>
      <trkpt lat="44.27265" lon="5.81829">
        <ele>540</ele>
        <time>2019-08-09T06:10:07Z</time>
      </trkpt>
      <trkpt lat="44.27257" lon="5.81832">
        <ele>540</ele>
        <time>2019-08-09T06:10:08Z</time>
      </trkpt>
      <trkpt lat="44.2725" lon="5.81835">
        <ele>540</ele>
        <time>2019-08-09T06:10:09Z</time>
      </trkpt>
      <trkpt lat="44.27242" lon="5.81838">
        <ele>540</ele>
        <time>2019-08-09T06:10:10Z</time>
      </trkpt>
      <trkpt lat="44.27234" lon="5.81841">
        <ele>540</ele>
        <time>2019-08-09T06:10:11Z</time>
      </trkpt>
      <trkpt lat="44.27226" lon="5.81843">
        <ele>540</ele>
        <time>2019-08-09T06:10:12Z</time>
      </trkpt>
      <trkpt lat="44.27218" lon="5.81846">
        <ele>540</ele>
        <time>2019-08-09T06:10:13Z</time>
      </trkpt>
      <trkpt lat="44.27211" lon="5.81849">
        <ele>540</ele>
        <time>2019-08-09T06:10:14Z</time>
      </trkpt>
      <trkpt lat="44.27203" lon="5.81852">
        <ele>540</ele>
        <time>2019-08-09T06:10:15Z</time>
      </trkpt>
      <trkpt lat="44.27195" lon="5.81855">
        <ele>540</ele>
        <time>2019-08-09T06:10:16Z</time>
      </trkpt>
      <trkpt lat="44.27188" lon="5.81859">
        <ele>540</ele>
        <time>2019-08-09T06:10:17Z</time>
      </trkpt>
      <trkpt lat="44.2718" lon="5.81862">
        <ele>540</ele>
        <time>2019-08-09T06:10:18Z</time>
      </trkpt>
      <trkpt lat="44.27172" lon="5.81865">
        <ele>540</ele>
        <time>2019-08-09T06:10:19Z</time>
      </trkpt>
      <trkpt lat="44.27164" lon="5.81868">
        <ele>540</ele>
        <time>2019-08-09T06:10:20Z</time>
      </trkpt>
      <trkpt lat="44.27157" lon="5.81871">
        <ele>540</ele>
        <time>2019-08-09T06:10:21Z</time>
      </trkpt>
      <trkpt lat="44.27149" lon="5.81874">
        <ele>540</ele>
        <time>2019-08-09T06:10:22Z</time>
      </trkpt>
      <trkpt lat="44.27142" lon="5.81877">
        <ele>540</ele>
        <time>2019-08-09T06:10:23Z</time>
      </trkpt>
      <trkpt lat="44.27134" lon="5.8188">
        <ele>540</ele>
        <time>2019-08-09T06:10:24Z</time>
      </trkpt>
      <trkpt lat="44.27126" lon="5.81883">
        <ele>540</ele>
        <time>2019-08-09T06:10:25Z</time>
      </trkpt>
      <trkpt lat="44.27118" lon="5.81886">
        <ele>540</ele>
        <time>2019-08-09T06:10:26Z</time>
      </trkpt>
      <trkpt lat="44.2711" lon="5.81889">
        <ele>539</ele>
        <time>2019-08-09T06:10:27Z</time>
      </trkpt>
      <trkpt lat="44.27103" lon="5.81892">
        <ele>539</ele>
        <time>2019-08-09T06:10:28Z</time>
      </trkpt>
      <trkpt lat="44.27095" lon="5.81895">
        <ele>539</ele>
        <time>2019-08-09T06:10:29Z</time>
      </trkpt>
      <trkpt lat="44.27087" lon="5.81898">
        <ele>539</ele>
        <time>2019-08-09T06:10:30Z</time>
      </trkpt>
      <trkpt lat="44.27079" lon="5.81902">
        <ele>539</ele>
        <time>2019-08-09T06:10:31Z</time>
      </trkpt>
      <trkpt lat="44.27071" lon="5.81905">
        <ele>539</ele>
        <time>2019-08-09T06:10:32Z</time>
      </trkpt>
      <trkpt lat="44.27064" lon="5.81908">
        <ele>539</ele>
        <time>2019-08-09T06:10:33Z</time>
      </trkpt>
      <trkpt lat="44.27056" lon="5.81911">
        <ele>539</ele>
        <time>2019-08-09T06:10:34Z</time>
      </trkpt>
      <trkpt lat="44.27048" lon="5.81914">
        <ele>539</ele>
        <time>2019-08-09T06:10:35Z</time>
      </trkpt>
      <trkpt lat="44.2704" lon="5.81917">
        <ele>539</ele>
        <time>2019-08-09T06:10:36Z</time>
      </trkpt>
      <trkpt lat="44.27033" lon="5.81919">
        <ele>539</ele>
        <time>2019-08-09T06:10:37Z</time>
      </trkpt>
      <trkpt lat="44.27025" lon="5.81922">
        <ele>539</ele>
        <time>2019-08-09T06:10:38Z</time>
      </trkpt>
      <trkpt lat="44.27017" lon="5.81925">
        <ele>539</ele>
        <time>2019-08-09T06:10:39Z</time>
      </trkpt>
      <trkpt lat="44.2701" lon="5.81929">
        <ele>539</ele>
        <time>2019-08-09T06:10:40Z</time>
      </trkpt>
      <trkpt lat="44.27002" lon="5.81932">
        <ele>539</ele>
        <time>2019-08-09T06:10:41Z</time>
      </trkpt>
      <trkpt lat="44.26994" lon="5.81935">
        <ele>538</ele>
        <time>2019-08-09T06:10:42Z</time>
      </trkpt>
      <trkpt lat="44.26986" lon="5.81938">
        <ele>538</ele>
        <time>2019-08-09T06:10:43Z</time>
      </trkpt>
      <trkpt lat="44.26979" lon="5.81941">
        <ele>538</ele>
        <time>2019-08-09T06:10:44Z</time>
      </trkpt>
      <trkpt lat="44.26971" lon="5.81944">
        <ele>538</ele>
        <time>2019-08-09T06:10:45Z</time>
      </trkpt>
      <trkpt lat="44.26963" lon="5.81947">
        <ele>538</ele>
        <time>2019-08-09T06:10:46Z</time>
      </trkpt>
      <trkpt lat="44.26956" lon="5.8195">
        <ele>538</ele>
        <time>2019-08-09T06:10:47Z</time>
      </trkpt>
      <trkpt lat="44.26948" lon="5.81953">
        <ele>538</ele>
        <time>2019-08-09T06:10:48Z</time>
      </trkpt>
      <trkpt lat="44.2694" lon="5.81956">
        <ele>538</ele>
        <time>2019-08-09T06:10:49Z</time>
      </trkpt>
      <trkpt lat="44.26932" lon="5.81959">
        <ele>538</ele>
        <time>2019-08-09T06:10:50Z</time>
      </trkpt>
      <trkpt lat="44.26925" lon="5.81962">
        <ele>538</ele>
        <time>2019-08-09T06:10:51Z</time>
      </trkpt>
      <trkpt lat="44.26917" lon="5.81965">
        <ele>538</ele>
        <time>2019-08-09T06:10:52Z</time>
      </trkpt>
      <trkpt lat="44.2691" lon="5.81968">
        <ele>538</ele>
        <time>2019-08-09T06:10:53Z</time>
      </trkpt>
      <trkpt lat="44.26902" lon="5.81971">
        <ele>538</ele>
        <time>2019-08-09T06:10:54Z</time>
      </trkpt>
      <trkpt lat="44.26894" lon="5.81974">
        <ele>538</ele>
        <time>2019-08-09T06:10:55Z</time>
      </trkpt>
      <trkpt lat="44.26887" lon="5.81977">
        <ele>538</ele>
        <time>2019-08-09T06:10:56Z</time>
      </trkpt>
      <trkpt lat="44.2688" lon="5.8198">
        <ele>538</ele>
        <time>2019-08-09T06:10:58Z</time>
      </trkpt>
      <trkpt lat="44.26872" lon="5.81983">
        <ele>538</ele>
        <time>2019-08-09T06:10:58Z</time>
      </trkpt>
      <trkpt lat="44.26865" lon="5.81986">
        <ele>538</ele>
        <time>2019-08-09T06:10:59Z</time>
      </trkpt>
      <trkpt lat="44.26857" lon="5.81989">
        <ele>538</ele>
        <time>2019-08-09T06:11:00Z</time>
      </trkpt>
      <trkpt lat="44.2685" lon="5.81991">
        <ele>538</ele>
        <time>2019-08-09T06:11:01Z</time>
      </trkpt>
      <trkpt lat="44.26842" lon="5.81994">
        <ele>538</ele>
        <time>2019-08-09T06:11:02Z</time>
      </trkpt>
      <trkpt lat="44.26835" lon="5.81997">
        <ele>537</ele>
        <time>2019-08-09T06:11:03Z</time>
      </trkpt>
      <trkpt lat="44.26827" lon="5.82">
        <ele>537</ele>
        <time>2019-08-09T06:11:04Z</time>
      </trkpt>
      <trkpt lat="44.2682" lon="5.82003">
        <ele>537</ele>
        <time>2019-08-09T06:11:05Z</time>
      </trkpt>
      <trkpt lat="44.26812" lon="5.82006">
        <ele>537</ele>
        <time>2019-08-09T06:11:06Z</time>
      </trkpt>
      <trkpt lat="44.26805" lon="5.82009">
        <ele>537</ele>
        <time>2019-08-09T06:11:07Z</time>
      </trkpt>
      <trkpt lat="44.26797" lon="5.82012">
        <ele>537</ele>
        <time>2019-08-09T06:11:08Z</time>
      </trkpt>
      <trkpt lat="44.2679" lon="5.82015">
        <ele>537</ele>
        <time>2019-08-09T06:11:09Z</time>
      </trkpt>
      <trkpt lat="44.26783" lon="5.82018">
        <ele>537</ele>
        <time>2019-08-09T06:11:10Z</time>
      </trkpt>
      <trkpt lat="44.26775" lon="5.82021">
        <ele>537</ele>
        <time>2019-08-09T06:11:11Z</time>
      </trkpt>
      <trkpt lat="44.26768" lon="5.82024">
        <ele>537</ele>
        <time>2019-08-09T06:11:12Z</time>
      </trkpt>
      <trkpt lat="44.2676" lon="5.82027">
        <ele>537</ele>
        <time>2019-08-09T06:11:13Z</time>
      </trkpt>
      <trkpt lat="44.26753" lon="5.8203">
        <ele>537</ele>
        <time>2019-08-09T06:11:14Z</time>
      </trkpt>
      <trkpt lat="44.26746" lon="5.82034">
        <ele>537</ele>
        <time>2019-08-09T06:11:15Z</time>
      </trkpt>
      <trkpt lat="44.26738" lon="5.82036">
        <ele>537</ele>
        <time>2019-08-09T06:11:16Z</time>
      </trkpt>
      <trkpt lat="44.26731" lon="5.82039">
        <ele>537</ele>
        <time>2019-08-09T06:11:17Z</time>
      </trkpt>
      <trkpt lat="44.26723" lon="5.82042">
        <ele>537</ele>
        <time>2019-08-09T06:11:18Z</time>
      </trkpt>
      <trkpt lat="44.26716" lon="5.82045">
        <ele>537</ele>
        <time>2019-08-09T06:11:19Z</time>
      </trkpt>
      <trkpt lat="44.26708" lon="5.82048">
        <ele>536</ele>
        <time>2019-08-09T06:11:20Z</time>
      </trkpt>
      <trkpt lat="44.26701" lon="5.82051">
        <ele>536</ele>
        <time>2019-08-09T06:11:21Z</time>
      </trkpt>
      <trkpt lat="44.26693" lon="5.82054">
        <ele>536</ele>
        <time>2019-08-09T06:11:22Z</time>
      </trkpt>
      <trkpt lat="44.26685" lon="5.82056">
        <ele>536</ele>
        <time>2019-08-09T06:11:23Z</time>
      </trkpt>
      <trkpt lat="44.26678" lon="5.82059">
        <ele>536</ele>
        <time>2019-08-09T06:11:24Z</time>
      </trkpt>
      <trkpt lat="44.2667" lon="5.82062">
        <ele>536</ele>
        <time>2019-08-09T06:11:25Z</time>
      </trkpt>
      <trkpt lat="44.26663" lon="5.82065">
        <ele>536</ele>
        <time>2019-08-09T06:11:26Z</time>
      </trkpt>
      <trkpt lat="44.26655" lon="5.82068">
        <ele>536</ele>
        <time>2019-08-09T06:11:27Z</time>
      </trkpt>
      <trkpt lat="44.26648" lon="5.82071">
        <ele>536</ele>
        <time>2019-08-09T06:11:28Z</time>
      </trkpt>
      <trkpt lat="44.2664" lon="5.82074">
        <ele>536</ele>
        <time>2019-08-09T06:11:29Z</time>
      </trkpt>
      <trkpt lat="44.26632" lon="5.82077">
        <ele>536</ele>
        <time>2019-08-09T06:11:30Z</time>
      </trkpt>
      <trkpt lat="44.26625" lon="5.8208">
        <ele>536</ele>
        <time>2019-08-09T06:11:31Z</time>
      </trkpt>
      <trkpt lat="44.26617" lon="5.82083">
        <ele>535</ele>
        <time>2019-08-09T06:11:32Z</time>
      </trkpt>
      <trkpt lat="44.26609" lon="5.82086">
        <ele>535</ele>
        <time>2019-08-09T06:11:33Z</time>
      </trkpt>
      <trkpt lat="44.26601" lon="5.82089">
        <ele>535</ele>
        <time>2019-08-09T06:11:34Z</time>
      </trkpt>
      <trkpt lat="44.26593" lon="5.82092">
        <ele>535</ele>
        <time>2019-08-09T06:11:35Z</time>
      </trkpt>
      <trkpt lat="44.26585" lon="5.82095">
        <ele>535</ele>
        <time>2019-08-09T06:11:36Z</time>
      </trkpt>
      <trkpt lat="44.26577" lon="5.82098">
        <ele>535</ele>
        <time>2019-08-09T06:11:37Z</time>
      </trkpt>
      <trkpt lat="44.26569" lon="5.82101">
        <ele>534</ele>
        <time>2019-08-09T06:11:38Z</time>
      </trkpt>
      <trkpt lat="44.2656" lon="5.82104">
        <ele>534</ele>
        <time>2019-08-09T06:11:39Z</time>
      </trkpt>
      <trkpt lat="44.26552" lon="5.82108">
        <ele>534</ele>
        <time>2019-08-09T06:11:40Z</time>
      </trkpt>
      <trkpt lat="44.26543" lon="5.82111">
        <ele>534</ele>
        <time>2019-08-09T06:11:41Z</time>
      </trkpt>
      <trkpt lat="44.26535" lon="5.82114">
        <ele>533</ele>
        <time>2019-08-09T06:11:42Z</time>
      </trkpt>
      <trkpt lat="44.26526" lon="5.82117">
        <ele>533</ele>
        <time>2019-08-09T06:11:43Z</time>
      </trkpt>
      <trkpt lat="44.26518" lon="5.82121">
        <ele>533</ele>
        <time>2019-08-09T06:11:44Z</time>
      </trkpt>
      <trkpt lat="44.26509" lon="5.82124">
        <ele>532</ele>
        <time>2019-08-09T06:11:45Z</time>
      </trkpt>
      <trkpt lat="44.265" lon="5.82127">
        <ele>532</ele>
        <time>2019-08-09T06:11:46Z</time>
      </trkpt>
      <trkpt lat="44.26492" lon="5.8213">
        <ele>532</ele>
        <time>2019-08-09T06:11:47Z</time>
      </trkpt>
      <trkpt lat="44.26483" lon="5.82133">
        <ele>532</ele>
        <time>2019-08-09T06:11:48Z</time>
      </trkpt>
      <trkpt lat="44.26475" lon="5.82136">
        <ele>531</ele>
        <time>2019-08-09T06:11:49Z</time>
      </trkpt>
      <trkpt lat="44.26466" lon="5.82139">
        <ele>531</ele>
        <time>2019-08-09T06:11:50Z</time>
      </trkpt>
      <trkpt lat="44.26457" lon="5.82143">
        <ele>531</ele>
        <time>2019-08-09T06:11:51Z</time>
      </trkpt>
      <trkpt lat="44.26449" lon="5.82146">
        <ele>531</ele>
        <time>2019-08-09T06:11:52Z</time>
      </trkpt>
      <trkpt lat="44.2644" lon="5.82149">
        <ele>531</ele>
        <time>2019-08-09T06:11:53Z</time>
      </trkpt>
      <trkpt lat="44.26432" lon="5.82151">
        <ele>531</ele>
        <time>2019-08-09T06:11:54Z</time>
      </trkpt>
      <trkpt lat="44.26423" lon="5.82154">
        <ele>531</ele>
        <time>2019-08-09T06:11:55Z</time>
      </trkpt>
      <trkpt lat="44.26415" lon="5.82156">
        <ele>530</ele>
        <time>2019-08-09T06:11:56Z</time>
      </trkpt>
      <trkpt lat="44.26406" lon="5.82159">
        <ele>530</ele>
        <time>2019-08-09T06:11:58Z</time>
      </trkpt>
      <trkpt lat="44.26398" lon="5.82162">
        <ele>530</ele>
        <time>2019-08-09T06:11:58Z</time>
      </trkpt>
      <trkpt lat="44.2639" lon="5.82165">
        <ele>530</ele>
        <time>2019-08-09T06:11:59Z</time>
      </trkpt>
      <trkpt lat="44.26382" lon="5.82169">
        <ele>530</ele>
        <time>2019-08-09T06:12:00Z</time>
      </trkpt>
      <trkpt lat="44.26375" lon="5.82172">
        <ele>530</ele>
        <time>2019-08-09T06:12:01Z</time>
      </trkpt>
      <trkpt lat="44.26367" lon="5.82175">
        <ele>530</ele>
        <time>2019-08-09T06:12:02Z</time>
      </trkpt>
      <trkpt lat="44.2636" lon="5.82179">
        <ele>530</ele>
        <time>2019-08-09T06:12:03Z</time>
      </trkpt>
      <trkpt lat="44.26353" lon="5.82183">
        <ele>530</ele>
        <time>2019-08-09T06:12:04Z</time>
      </trkpt>
      <trkpt lat="44.26345" lon="5.82186">
        <ele>530</ele>
        <time>2019-08-09T06:12:05Z</time>
      </trkpt>
      <trkpt lat="44.26338" lon="5.8219">
        <ele>530</ele>
        <time>2019-08-09T06:12:06Z</time>
      </trkpt>
      <trkpt lat="44.26331" lon="5.82194">
        <ele>530</ele>
        <time>2019-08-09T06:12:07Z</time>
      </trkpt>
      <trkpt lat="44.26323" lon="5.82198">
        <ele>530</ele>
        <time>2019-08-09T06:12:08Z</time>
      </trkpt>
      <trkpt lat="44.26316" lon="5.82202">
        <ele>530</ele>
        <time>2019-08-09T06:12:09Z</time>
      </trkpt>
      <trkpt lat="44.26309" lon="5.82206">
        <ele>530</ele>
        <time>2019-08-09T06:12:10Z</time>
      </trkpt>
      <trkpt lat="44.26302" lon="5.82209">
        <ele>530</ele>
        <time>2019-08-09T06:12:11Z</time>
      </trkpt>
      <trkpt lat="44.26295" lon="5.82213">
        <ele>530</ele>
        <time>2019-08-09T06:12:12Z</time>
      </trkpt>
      <trkpt lat="44.26288" lon="5.82217">
        <ele>530</ele>
        <time>2019-08-09T06:12:13Z</time>
      </trkpt>
      <trkpt lat="44.26281" lon="5.82221">
        <ele>530</ele>
        <time>2019-08-09T06:12:14Z</time>
      </trkpt>
      <trkpt lat="44.26274" lon="5.82224">
        <ele>530</ele>
        <time>2019-08-09T06:12:15Z</time>
      </trkpt>
      <trkpt lat="44.26267" lon="5.82228">
        <ele>530</ele>
        <time>2019-08-09T06:12:16Z</time>
      </trkpt>
      <trkpt lat="44.2626" lon="5.82231">
        <ele>530</ele>
        <time>2019-08-09T06:12:17Z</time>
      </trkpt>
      <trkpt lat="44.26254" lon="5.82234">
        <ele>530</ele>
        <time>2019-08-09T06:12:18Z</time>
      </trkpt>
      <trkpt lat="44.26247" lon="5.82237">
        <ele>530</ele>
        <time>2019-08-09T06:12:19Z</time>
      </trkpt>
      <trkpt lat="44.2624" lon="5.82241">
        <ele>530</ele>
        <time>2019-08-09T06:12:20Z</time>
      </trkpt>
      <trkpt lat="44.26233" lon="5.82244">
        <ele>530</ele>
        <time>2019-08-09T06:12:21Z</time>
      </trkpt>
      <trkpt lat="44.26226" lon="5.82247">
        <ele>530</ele>
        <time>2019-08-09T06:12:22Z</time>
      </trkpt>
      <trkpt lat="44.2622" lon="5.82251">
        <ele>530</ele>
        <time>2019-08-09T06:12:23Z</time>
      </trkpt>
      <trkpt lat="44.26213" lon="5.82254">
        <ele>530</ele>
        <time>2019-08-09T06:12:24Z</time>
      </trkpt>
      <trkpt lat="44.26206" lon="5.82258">
        <ele>530</ele>
        <time>2019-08-09T06:12:25Z</time>
      </trkpt>
      <trkpt lat="44.26199" lon="5.82261">
        <ele>530</ele>
        <time>2019-08-09T06:12:26Z</time>
      </trkpt>
      <trkpt lat="44.26193" lon="5.82264">
        <ele>530</ele>
        <time>2019-08-09T06:12:27Z</time>
      </trkpt>
      <trkpt lat="44.26186" lon="5.82268">
        <ele>530</ele>
        <time>2019-08-09T06:12:28Z</time>
      </trkpt>
      <trkpt lat="44.26179" lon="5.82271">
        <ele>530</ele>
        <time>2019-08-09T06:12:29Z</time>
      </trkpt>
      <trkpt lat="44.26173" lon="5.82275">
        <ele>530</ele>
        <time>2019-08-09T06:12:30Z</time>
      </trkpt>
      <trkpt lat="44.26166" lon="5.82278">
        <ele>530</ele>
        <time>2019-08-09T06:12:31Z</time>
      </trkpt>
      <trkpt lat="44.26159" lon="5.82282">
        <ele>530</ele>
        <time>2019-08-09T06:12:32Z</time>
      </trkpt>
      <trkpt lat="44.26153" lon="5.82285">
        <ele>530</ele>
        <time>2019-08-09T06:12:33Z</time>
      </trkpt>
      <trkpt lat="44.26146" lon="5.82288">
        <ele>530</ele>
        <time>2019-08-09T06:12:34Z</time>
      </trkpt>
      <trkpt lat="44.26139" lon="5.82292">
        <ele>530</ele>
        <time>2019-08-09T06:12:35Z</time>
      </trkpt>
      <trkpt lat="44.26133" lon="5.82295">
        <ele>530</ele>
        <time>2019-08-09T06:12:36Z</time>
      </trkpt>
      <trkpt lat="44.26127" lon="5.82298">
        <ele>530</ele>
        <time>2019-08-09T06:12:37Z</time>
      </trkpt>
      <trkpt lat="44.2612" lon="5.82302">
        <ele>530</ele>
        <time>2019-08-09T06:12:38Z</time>
      </trkpt>
      <trkpt lat="44.26114" lon="5.82305">
        <ele>530</ele>
        <time>2019-08-09T06:12:39Z</time>
      </trkpt>
      <trkpt lat="44.26108" lon="5.82309">
        <ele>530</ele>
        <time>2019-08-09T06:12:40Z</time>
      </trkpt>
      <trkpt lat="44.26101" lon="5.82312">
        <ele>530</ele>
        <time>2019-08-09T06:12:41Z</time>
      </trkpt>
      <trkpt lat="44.26094" lon="5.82315">
        <ele>530</ele>
        <time>2019-08-09T06:12:42Z</time>
      </trkpt>
      <trkpt lat="44.26088" lon="5.82317">
        <ele>530</ele>
        <time>2019-08-09T06:12:43Z</time>
      </trkpt>
      <trkpt lat="44.26082" lon="5.82319">
        <ele>530</ele>
        <time>2019-08-09T06:12:44Z</time>
      </trkpt>
      <trkpt lat="44.26075" lon="5.82322">
        <ele>530</ele>
        <time>2019-08-09T06:12:45Z</time>
      </trkpt>
      <trkpt lat="44.26069" lon="5.82325">
        <ele>530</ele>
        <time>2019-08-09T06:12:46Z</time>
      </trkpt>
      <trkpt lat="44.26062" lon="5.82327">
        <ele>530</ele>
        <time>2019-08-09T06:12:47Z</time>
      </trkpt>
      <trkpt lat="44.26056" lon="5.82329">
        <ele>530</ele>
        <time>2019-08-09T06:12:48Z</time>
      </trkpt>
      <trkpt lat="44.26049" lon="5.8233">
        <ele>530</ele>
        <time>2019-08-09T06:12:49Z</time>
      </trkpt>
      <trkpt lat="44.26042" lon="5.82331">
        <ele>530</ele>
        <time>2019-08-09T06:12:50Z</time>
      </trkpt>
      <trkpt lat="44.26035" lon="5.82332">
        <ele>531</ele>
        <time>2019-08-09T06:12:51Z</time>
      </trkpt>
      <trkpt lat="44.26028" lon="5.82333">
        <ele>531</ele>
        <time>2019-08-09T06:12:52Z</time>
      </trkpt>
      <trkpt lat="44.26022" lon="5.82333">
        <ele>531</ele>
        <time>2019-08-09T06:12:53Z</time>
      </trkpt>
      <trkpt lat="44.26015" lon="5.82334">
        <ele>531</ele>
        <time>2019-08-09T06:12:54Z</time>
      </trkpt>
      <trkpt lat="44.26008" lon="5.82336">
        <ele>532</ele>
        <time>2019-08-09T06:12:55Z</time>
      </trkpt>
      <trkpt lat="44.26001" lon="5.82336">
        <ele>532</ele>
        <time>2019-08-09T06:12:56Z</time>
      </trkpt>
      <trkpt lat="44.25995" lon="5.82337">
        <ele>533</ele>
        <time>2019-08-09T06:12:58Z</time>
      </trkpt>
      <trkpt lat="44.25988" lon="5.82337">
        <ele>533</ele>
        <time>2019-08-09T06:12:58Z</time>
      </trkpt>
      <trkpt lat="44.25981" lon="5.82338">
        <ele>533</ele>
        <time>2019-08-09T06:12:59Z</time>
      </trkpt>
      <trkpt lat="44.25975" lon="5.82339">
        <ele>534</ele>
        <time>2019-08-09T06:13:00Z</time>
      </trkpt>
      <trkpt lat="44.25968" lon="5.8234">
        <ele>534</ele>
        <time>2019-08-09T06:13:01Z</time>
      </trkpt>
      <trkpt lat="44.25961" lon="5.8234">
        <ele>534</ele>
        <time>2019-08-09T06:13:02Z</time>
      </trkpt>
      <trkpt lat="44.25954" lon="5.8234">
        <ele>534</ele>
        <time>2019-08-09T06:13:03Z</time>
      </trkpt>
      <trkpt lat="44.25947" lon="5.82341">
        <ele>534</ele>
        <time>2019-08-09T06:13:04Z</time>
      </trkpt>
      <trkpt lat="44.2594" lon="5.82342">
        <ele>534</ele>
        <time>2019-08-09T06:13:05Z</time>
      </trkpt>
      <trkpt lat="44.25934" lon="5.82342">
        <ele>534</ele>
        <time>2019-08-09T06:13:06Z</time>
      </trkpt>
      <trkpt lat="44.25926" lon="5.82343">
        <ele>534</ele>
        <time>2019-08-09T06:13:07Z</time>
      </trkpt>
      <trkpt lat="44.25919" lon="5.82344">
        <ele>534</ele>
        <time>2019-08-09T06:13:08Z</time>
      </trkpt>
      <trkpt lat="44.25912" lon="5.82345">
        <ele>534</ele>
        <time>2019-08-09T06:13:09Z</time>
      </trkpt>
      <trkpt lat="44.25906" lon="5.82346">
        <ele>534</ele>
        <time>2019-08-09T06:13:10Z</time>
      </trkpt>
      <trkpt lat="44.25898" lon="5.82347">
        <ele>534</ele>
        <time>2019-08-09T06:13:11Z</time>
      </trkpt>
      <trkpt lat="44.25891" lon="5.82348">
        <ele>534</ele>
        <time>2019-08-09T06:13:12Z</time>
      </trkpt>
      <trkpt lat="44.25884" lon="5.8235">
        <ele>534</ele>
        <time>2019-08-09T06:13:13Z</time>
      </trkpt>
      <trkpt lat="44.25877" lon="5.82352">
        <ele>534</ele>
        <time>2019-08-09T06:13:14Z</time>
      </trkpt>
      <trkpt lat="44.2587" lon="5.82355">
        <ele>534</ele>
        <time>2019-08-09T06:13:15Z</time>
      </trkpt>
      <trkpt lat="44.25863" lon="5.82358">
        <ele>534</ele>
        <time>2019-08-09T06:13:16Z</time>
      </trkpt>
      <trkpt lat="44.25856" lon="5.82361">
        <ele>534</ele>
        <time>2019-08-09T06:13:17Z</time>
      </trkpt>
      <trkpt lat="44.25848" lon="5.82364">
        <ele>534</ele>
        <time>2019-08-09T06:13:18Z</time>
      </trkpt>
      <trkpt lat="44.25842" lon="5.82367">
        <ele>534</ele>
        <time>2019-08-09T06:13:19Z</time>
      </trkpt>
      <trkpt lat="44.25835" lon="5.8237">
        <ele>534</ele>
        <time>2019-08-09T06:13:20Z</time>
      </trkpt>
      <trkpt lat="44.25828" lon="5.82374">
        <ele>534</ele>
        <time>2019-08-09T06:13:21Z</time>
      </trkpt>
      <trkpt lat="44.25822" lon="5.82378">
        <ele>534</ele>
        <time>2019-08-09T06:13:22Z</time>
      </trkpt>
      <trkpt lat="44.25815" lon="5.82383">
        <ele>534</ele>
        <time>2019-08-09T06:13:23Z</time>
      </trkpt>
      <trkpt lat="44.25808" lon="5.82388">
        <ele>534</ele>
        <time>2019-08-09T06:13:24Z</time>
      </trkpt>
      <trkpt lat="44.25801" lon="5.82393">
        <ele>534</ele>
        <time>2019-08-09T06:13:25Z</time>
      </trkpt>
      <trkpt lat="44.25795" lon="5.82398">
        <ele>534</ele>
        <time>2019-08-09T06:13:26Z</time>
      </trkpt>
      <trkpt lat="44.25789" lon="5.82403">
        <ele>534</ele>
        <time>2019-08-09T06:13:27Z</time>
      </trkpt>
      <trkpt lat="44.25783" lon="5.82408">
        <ele>534</ele>
        <time>2019-08-09T06:13:28Z</time>
      </trkpt>
      <trkpt lat="44.25777" lon="5.82413">
        <ele>534</ele>
        <time>2019-08-09T06:13:29Z</time>
      </trkpt>
      <trkpt lat="44.25771" lon="5.82419">
        <ele>534</ele>
        <time>2019-08-09T06:13:30Z</time>
      </trkpt>
      <trkpt lat="44.25764" lon="5.82425">
        <ele>534</ele>
        <time>2019-08-09T06:13:31Z</time>
      </trkpt>
      <trkpt lat="44.25758" lon="5.82431">
        <ele>534</ele>
        <time>2019-08-09T06:13:32Z</time>
      </trkpt>
      <trkpt lat="44.25752" lon="5.82437">
        <ele>534</ele>
        <time>2019-08-09T06:13:33Z</time>
      </trkpt>
      <trkpt lat="44.25746" lon="5.82442">
        <ele>534</ele>
        <time>2019-08-09T06:13:34Z</time>
      </trkpt>
      <trkpt lat="44.2574" lon="5.82448">
        <ele>534</ele>
        <time>2019-08-09T06:13:35Z</time>
      </trkpt>
      <trkpt lat="44.25734" lon="5.82454">
        <ele>534</ele>
        <time>2019-08-09T06:13:36Z</time>
      </trkpt>
      <trkpt lat="44.25727" lon="5.8246">
        <ele>534</ele>
        <time>2019-08-09T06:13:37Z</time>
      </trkpt>
      <trkpt lat="44.25721" lon="5.82467">
        <ele>533</ele>
        <time>2019-08-09T06:13:38Z</time>
      </trkpt>
      <trkpt lat="44.25714" lon="5.82474">
        <ele>533</ele>
        <time>2019-08-09T06:13:39Z</time>
      </trkpt>
      <trkpt lat="44.25708" lon="5.8248">
        <ele>533</ele>
        <time>2019-08-09T06:13:40Z</time>
      </trkpt>
      <trkpt lat="44.25702" lon="5.82487">
        <ele>533</ele>
        <time>2019-08-09T06:13:41Z</time>
      </trkpt>
      <trkpt lat="44.25695" lon="5.82494">
        <ele>533</ele>
        <time>2019-08-09T06:13:42Z</time>
      </trkpt>
      <trkpt lat="44.25689" lon="5.82501">
        <ele>533</ele>
        <time>2019-08-09T06:13:43Z</time>
      </trkpt>
      <trkpt lat="44.25683" lon="5.82508">
        <ele>533</ele>
        <time>2019-08-09T06:13:44Z</time>
      </trkpt>
      <trkpt lat="44.25677" lon="5.82515">
        <ele>533</ele>
        <time>2019-08-09T06:13:45Z</time>
      </trkpt>
      <trkpt lat="44.25671" lon="5.82523">
        <ele>532</ele>
        <time>2019-08-09T06:13:46Z</time>
      </trkpt>
      <trkpt lat="44.25665" lon="5.8253">
        <ele>532</ele>
        <time>2019-08-09T06:13:47Z</time>
      </trkpt>
      <trkpt lat="44.25659" lon="5.82538">
        <ele>532</ele>
        <time>2019-08-09T06:13:48Z</time>
      </trkpt>
      <trkpt lat="44.25653" lon="5.82546">
        <ele>532</ele>
        <time>2019-08-09T06:13:49Z</time>
      </trkpt>
      <trkpt lat="44.25647" lon="5.82554">
        <ele>531</ele>
        <time>2019-08-09T06:13:50Z</time>
      </trkpt>
      <trkpt lat="44.25642" lon="5.82562">
        <ele>531</ele>
        <time>2019-08-09T06:13:51Z</time>
      </trkpt>
      <trkpt lat="44.25636" lon="5.82571">
        <ele>530</ele>
        <time>2019-08-09T06:13:52Z</time>
      </trkpt>
      <trkpt lat="44.25631" lon="5.8258">
        <ele>530</ele>
        <time>2019-08-09T06:13:53Z</time>
      </trkpt>
      <trkpt lat="44.25626" lon="5.82589">
        <ele>530</ele>
        <time>2019-08-09T06:13:54Z</time>
      </trkpt>
      <trkpt lat="44.25621" lon="5.82598">
        <ele>530</ele>
        <time>2019-08-09T06:13:55Z</time>
      </trkpt>
      <trkpt lat="44.25617" lon="5.82607">
        <ele>530</ele>
        <time>2019-08-09T06:13:56Z</time>
      </trkpt>
      <trkpt lat="44.25611" lon="5.82616">
        <ele>530</ele>
        <time>2019-08-09T06:13:57Z</time>
      </trkpt>
      <trkpt lat="44.25607" lon="5.82625">
        <ele>530</ele>
        <time>2019-08-09T06:13:58Z</time>
      </trkpt>
      <trkpt lat="44.25602" lon="5.82634">
        <ele>530</ele>
        <time>2019-08-09T06:13:59Z</time>
      </trkpt>
      <trkpt lat="44.25597" lon="5.82644">
        <ele>530</ele>
        <time>2019-08-09T06:14:00Z</time>
      </trkpt>
      <trkpt lat="44.25592" lon="5.82653">
        <ele>530</ele>
        <time>2019-08-09T06:14:01Z</time>
      </trkpt>
      <trkpt lat="44.25588" lon="5.82661">
        <ele>530</ele>
        <time>2019-08-09T06:14:02Z</time>
      </trkpt>
      <trkpt lat="44.25583" lon="5.82671">
        <ele>530</ele>
        <time>2019-08-09T06:14:03Z</time>
      </trkpt>
      <trkpt lat="44.25579" lon="5.8268">
        <ele>530</ele>
        <time>2019-08-09T06:14:04Z</time>
      </trkpt>
      <trkpt lat="44.25574" lon="5.82689">
        <ele>530</ele>
        <time>2019-08-09T06:14:05Z</time>
      </trkpt>
      <trkpt lat="44.2557" lon="5.82698">
        <ele>530</ele>
        <time>2019-08-09T06:14:06Z</time>
      </trkpt>
      <trkpt lat="44.25566" lon="5.82708">
        <ele>530</ele>
        <time>2019-08-09T06:14:07Z</time>
      </trkpt>
      <trkpt lat="44.25562" lon="5.82717">
        <ele>530</ele>
        <time>2019-08-09T06:14:08Z</time>
      </trkpt>
      <trkpt lat="44.25558" lon="5.82726">
        <ele>530</ele>
        <time>2019-08-09T06:14:09Z</time>
      </trkpt>
      <trkpt lat="44.25555" lon="5.82736">
        <ele>530</ele>
        <time>2019-08-09T06:14:10Z</time>
      </trkpt>
      <trkpt lat="44.25551" lon="5.82746">
        <ele>529</ele>
        <time>2019-08-09T06:14:11Z</time>
      </trkpt>
      <trkpt lat="44.25547" lon="5.82756">
        <ele>529</ele>
        <time>2019-08-09T06:14:12Z</time>
      </trkpt>
      <trkpt lat="44.25544" lon="5.82766">
        <ele>529</ele>
        <time>2019-08-09T06:14:13Z</time>
      </trkpt>
      <trkpt lat="44.2554" lon="5.82776">
        <ele>529</ele>
        <time>2019-08-09T06:14:14Z</time>
      </trkpt>
      <trkpt lat="44.25537" lon="5.82786">
        <ele>529</ele>
        <time>2019-08-09T06:14:15Z</time>
      </trkpt>
      <trkpt lat="44.25534" lon="5.82796">
        <ele>529</ele>
        <time>2019-08-09T06:14:16Z</time>
      </trkpt>
      <trkpt lat="44.25531" lon="5.82807">
        <ele>529</ele>
        <time>2019-08-09T06:14:17Z</time>
      </trkpt>
      <trkpt lat="44.25528" lon="5.82817">
        <ele>528</ele>
        <time>2019-08-09T06:14:18Z</time>
      </trkpt>
      <trkpt lat="44.25525" lon="5.82827">
        <ele>528</ele>
        <time>2019-08-09T06:14:19Z</time>
      </trkpt>
      <trkpt lat="44.25522" lon="5.82838">
        <ele>528</ele>
        <time>2019-08-09T06:14:20Z</time>
      </trkpt>
      <trkpt lat="44.25519" lon="5.82848">
        <ele>528</ele>
        <time>2019-08-09T06:14:21Z</time>
      </trkpt>
      <trkpt lat="44.25516" lon="5.82859">
        <ele>528</ele>
        <time>2019-08-09T06:14:22Z</time>
      </trkpt>
      <trkpt lat="44.25513" lon="5.8287">
        <ele>528</ele>
        <time>2019-08-09T06:14:23Z</time>
      </trkpt>
      <trkpt lat="44.2551" lon="5.82881">
        <ele>528</ele>
        <time>2019-08-09T06:14:24Z</time>
      </trkpt>
      <trkpt lat="44.25507" lon="5.82892">
        <ele>528</ele>
        <time>2019-08-09T06:14:25Z</time>
      </trkpt>
      <trkpt lat="44.25504" lon="5.82902">
        <ele>528</ele>
        <time>2019-08-09T06:14:26Z</time>
      </trkpt>
      <trkpt lat="44.25502" lon="5.82913">
        <ele>528</ele>
        <time>2019-08-09T06:14:27Z</time>
      </trkpt>
      <trkpt lat="44.25499" lon="5.82924">
        <ele>527</ele>
        <time>2019-08-09T06:14:28Z</time>
      </trkpt>
      <trkpt lat="44.25496" lon="5.82934">
        <ele>527</ele>
        <time>2019-08-09T06:14:29Z</time>
      </trkpt>
      <trkpt lat="44.25494" lon="5.82944">
        <ele>527</ele>
        <time>2019-08-09T06:14:30Z</time>
      </trkpt>
      <trkpt lat="44.25491" lon="5.82955">
        <ele>527</ele>
        <time>2019-08-09T06:14:31Z</time>
      </trkpt>
      <trkpt lat="44.25488" lon="5.82965">
        <ele>527</ele>
        <time>2019-08-09T06:14:32Z</time>
      </trkpt>
      <trkpt lat="44.25485" lon="5.82976">
        <ele>527</ele>
        <time>2019-08-09T06:14:33Z</time>
      </trkpt>
      <trkpt lat="44.25482" lon="5.82986">
        <ele>527</ele>
        <time>2019-08-09T06:14:34Z</time>
      </trkpt>
      <trkpt lat="44.25479" lon="5.82996">
        <ele>527</ele>
        <time>2019-08-09T06:14:35Z</time>
      </trkpt>
      <trkpt lat="44.25476" lon="5.83006">
        <ele>527</ele>
        <time>2019-08-09T06:14:36Z</time>
      </trkpt>
      <trkpt lat="44.25472" lon="5.83016">
        <ele>527</ele>
        <time>2019-08-09T06:14:37Z</time>
      </trkpt>
      <trkpt lat="44.25469" lon="5.83026">
        <ele>527</ele>
        <time>2019-08-09T06:14:38Z</time>
      </trkpt>
      <trkpt lat="44.25465" lon="5.83035">
        <ele>527</ele>
        <time>2019-08-09T06:14:39Z</time>
      </trkpt>
      <trkpt lat="44.25462" lon="5.83044">
        <ele>527</ele>
        <time>2019-08-09T06:14:40Z</time>
      </trkpt>
      <trkpt lat="44.25458" lon="5.83053">
        <ele>526</ele>
        <time>2019-08-09T06:14:41Z</time>
      </trkpt>
      <trkpt lat="44.25454" lon="5.83062">
        <ele>526</ele>
        <time>2019-08-09T06:14:42Z</time>
      </trkpt>
      <trkpt lat="44.2545" lon="5.83071">
        <ele>526</ele>
        <time>2019-08-09T06:14:43Z</time>
      </trkpt>
      <trkpt lat="44.25446" lon="5.83079">
        <ele>526</ele>
        <time>2019-08-09T06:14:44Z</time>
      </trkpt>
      <trkpt lat="44.25442" lon="5.83087">
        <ele>526</ele>
        <time>2019-08-09T06:14:45Z</time>
      </trkpt>
      <trkpt lat="44.25438" lon="5.83095">
        <ele>526</ele>
        <time>2019-08-09T06:14:46Z</time>
      </trkpt>
      <trkpt lat="44.25433" lon="5.83103">
        <ele>526</ele>
        <time>2019-08-09T06:14:47Z</time>
      </trkpt>
      <trkpt lat="44.25429" lon="5.8311">
        <ele>526</ele>
        <time>2019-08-09T06:14:48Z</time>
      </trkpt>
      <trkpt lat="44.25425" lon="5.83118">
        <ele>526</ele>
        <time>2019-08-09T06:14:49Z</time>
      </trkpt>
      <trkpt lat="44.2542" lon="5.83125">
        <ele>526</ele>
        <time>2019-08-09T06:14:50Z</time>
      </trkpt>
      <trkpt lat="44.25415" lon="5.83132">
        <ele>526</ele>
        <time>2019-08-09T06:14:51Z</time>
      </trkpt>
      <trkpt lat="44.25411" lon="5.83138">
        <ele>526</ele>
        <time>2019-08-09T06:14:52Z</time>
      </trkpt>
      <trkpt lat="44.25406" lon="5.83145">
        <ele>526</ele>
        <time>2019-08-09T06:14:53Z</time>
      </trkpt>
      <trkpt lat="44.25401" lon="5.83151">
        <ele>526</ele>
        <time>2019-08-09T06:14:54Z</time>
      </trkpt>
      <trkpt lat="44.25396" lon="5.83157">
        <ele>526</ele>
        <time>2019-08-09T06:14:55Z</time>
      </trkpt>
      <trkpt lat="44.25391" lon="5.83163">
        <ele>526</ele>
        <time>2019-08-09T06:14:56Z</time>
      </trkpt>
      <trkpt lat="44.25386" lon="5.83169">
        <ele>526</ele>
        <time>2019-08-09T06:14:58Z</time>
      </trkpt>
      <trkpt lat="44.25381" lon="5.83175">
        <ele>526</ele>
        <time>2019-08-09T06:14:58Z</time>
      </trkpt>
      <trkpt lat="44.25375" lon="5.83181">
        <ele>526</ele>
        <time>2019-08-09T06:14:59Z</time>
      </trkpt>
      <trkpt lat="44.2537" lon="5.83186">
        <ele>526</ele>
        <time>2019-08-09T06:15:00Z</time>
      </trkpt>
      <trkpt lat="44.25365" lon="5.83192">
        <ele>526</ele>
        <time>2019-08-09T06:15:01Z</time>
      </trkpt>
      <trkpt lat="44.25359" lon="5.83197">
        <ele>526</ele>
        <time>2019-08-09T06:15:02Z</time>
      </trkpt>
      <trkpt lat="44.25354" lon="5.83202">
        <ele>526</ele>
        <time>2019-08-09T06:15:03Z</time>
      </trkpt>
      <trkpt lat="44.25349" lon="5.83207">
        <ele>526</ele>
        <time>2019-08-09T06:15:04Z</time>
      </trkpt>
      <trkpt lat="44.25344" lon="5.83212">
        <ele>526</ele>
        <time>2019-08-09T06:15:05Z</time>
      </trkpt>
      <trkpt lat="44.25339" lon="5.83217">
        <ele>526</ele>
        <time>2019-08-09T06:15:06Z</time>
      </trkpt>
      <trkpt lat="44.25334" lon="5.83222">
        <ele>526</ele>
        <time>2019-08-09T06:15:07Z</time>
      </trkpt>
      <trkpt lat="44.25329" lon="5.83227">
        <ele>526</ele>
        <time>2019-08-09T06:15:08Z</time>
      </trkpt>
      <trkpt lat="44.25324" lon="5.83232">
        <ele>526</ele>
        <time>2019-08-09T06:15:09Z</time>
      </trkpt>
      <trkpt lat="44.25319" lon="5.83237">
        <ele>526</ele>
        <time>2019-08-09T06:15:10Z</time>
      </trkpt>
      <trkpt lat="44.25314" lon="5.83241">
        <ele>526</ele>
        <time>2019-08-09T06:15:11Z</time>
      </trkpt>
      <trkpt lat="44.25309" lon="5.83246">
        <ele>526</ele>
        <time>2019-08-09T06:15:12Z</time>
      </trkpt>
      <trkpt lat="44.25304" lon="5.83251">
        <ele>526</ele>
        <time>2019-08-09T06:15:13Z</time>
      </trkpt>
      <trkpt lat="44.25299" lon="5.83255">
        <ele>526</ele>
        <time>2019-08-09T06:15:14Z</time>
      </trkpt>
      <trkpt lat="44.25294" lon="5.8326">
        <ele>526</ele>
        <time>2019-08-09T06:15:15Z</time>
      </trkpt>
      <trkpt lat="44.25289" lon="5.83265">
        <ele>526</ele>
        <time>2019-08-09T06:15:16Z</time>
      </trkpt>
      <trkpt lat="44.25284" lon="5.83269">
        <ele>526</ele>
        <time>2019-08-09T06:15:17Z</time>
      </trkpt>
      <trkpt lat="44.25279" lon="5.83274">
        <ele>526</ele>
        <time>2019-08-09T06:15:18Z</time>
      </trkpt>
      <trkpt lat="44.25275" lon="5.83278">
        <ele>526</ele>
        <time>2019-08-09T06:15:19Z</time>
      </trkpt>
      <trkpt lat="44.2527" lon="5.83283">
        <ele>526</ele>
        <time>2019-08-09T06:15:20Z</time>
      </trkpt>
      <trkpt lat="44.25265" lon="5.83288">
        <ele>526</ele>
        <time>2019-08-09T06:15:21Z</time>
      </trkpt>
      <trkpt lat="44.2526" lon="5.83293">
        <ele>526</ele>
        <time>2019-08-09T06:15:22Z</time>
      </trkpt>
      <trkpt lat="44.25255" lon="5.83297">
        <ele>526</ele>
        <time>2019-08-09T06:15:23Z</time>
      </trkpt>
      <trkpt lat="44.2525" lon="5.83301">
        <ele>526</ele>
        <time>2019-08-09T06:15:24Z</time>
      </trkpt>
      <trkpt lat="44.25245" lon="5.83305">
        <ele>526</ele>
        <time>2019-08-09T06:15:25Z</time>
      </trkpt>
      <trkpt lat="44.2524" lon="5.83309">
        <ele>527</ele>
        <time>2019-08-09T06:15:26Z</time>
      </trkpt>
      <trkpt lat="44.25235" lon="5.83313">
        <ele>527</ele>
        <time>2019-08-09T06:15:27Z</time>
      </trkpt>
      <trkpt lat="44.2523" lon="5.83317">
        <ele>527</ele>
        <time>2019-08-09T06:15:28Z</time>
      </trkpt>
      <trkpt lat="44.25225" lon="5.83321">
        <ele>527</ele>
        <time>2019-08-09T06:15:29Z</time>
      </trkpt>
      <trkpt lat="44.2522" lon="5.83325">
        <ele>527</ele>
        <time>2019-08-09T06:15:30Z</time>
      </trkpt>
      <trkpt lat="44.25214" lon="5.83329">
        <ele>528</ele>
        <time>2019-08-09T06:15:31Z</time>
      </trkpt>
      <trkpt lat="44.25209" lon="5.83333">
        <ele>528</ele>
        <time>2019-08-09T06:15:32Z</time>
      </trkpt>
      <trkpt lat="44.25204" lon="5.83338">
        <ele>528</ele>
        <time>2019-08-09T06:15:33Z</time>
      </trkpt>
      <trkpt lat="44.25198" lon="5.83342">
        <ele>529</ele>
        <time>2019-08-09T06:15:34Z</time>
      </trkpt>
      <trkpt lat="44.25193" lon="5.83347">
        <ele>529</ele>
        <time>2019-08-09T06:15:35Z</time>
      </trkpt>
      <trkpt lat="44.25188" lon="5.83351">
        <ele>529</ele>
        <time>2019-08-09T06:15:36Z</time>
      </trkpt>
      <trkpt lat="44.25183" lon="5.83355">
        <ele>529</ele>
        <time>2019-08-09T06:15:37Z</time>
      </trkpt>
      <trkpt lat="44.25178" lon="5.83359">
        <ele>530</ele>
        <time>2019-08-09T06:15:38Z</time>
      </trkpt>
      <trkpt lat="44.25173" lon="5.83363">
        <ele>530</ele>
        <time>2019-08-09T06:15:39Z</time>
      </trkpt>
      <trkpt lat="44.25168" lon="5.83367">
        <ele>530</ele>
        <time>2019-08-09T06:15:40Z</time>
      </trkpt>
      <trkpt lat="44.25163" lon="5.83372">
        <ele>530</ele>
        <time>2019-08-09T06:15:41Z</time>
      </trkpt>
      <trkpt lat="44.25158" lon="5.83376">
        <ele>530</ele>
        <time>2019-08-09T06:15:42Z</time>
      </trkpt>
      <trkpt lat="44.25154" lon="5.83381">
        <ele>530</ele>
        <time>2019-08-09T06:15:43Z</time>
      </trkpt>
      <trkpt lat="44.25149" lon="5.83386">
        <ele>531</ele>
        <time>2019-08-09T06:15:44Z</time>
      </trkpt>
      <trkpt lat="44.25145" lon="5.83391">
        <ele>531</ele>
        <time>2019-08-09T06:15:45Z</time>
      </trkpt>
      <trkpt lat="44.2514" lon="5.83396">
        <ele>531</ele>
        <time>2019-08-09T06:15:46Z</time>
      </trkpt>
      <trkpt lat="44.25136" lon="5.83402">
        <ele>531</ele>
        <time>2019-08-09T06:15:47Z</time>
      </trkpt>
      <trkpt lat="44.25132" lon="5.83408">
        <ele>531</ele>
        <time>2019-08-09T06:15:48Z</time>
      </trkpt>
      <trkpt lat="44.25128" lon="5.83414">
        <ele>531</ele>
        <time>2019-08-09T06:15:49Z</time>
      </trkpt>
      <trkpt lat="44.25124" lon="5.8342">
        <ele>531</ele>
        <time>2019-08-09T06:15:50Z</time>
      </trkpt>
      <trkpt lat="44.2512" lon="5.83426">
        <ele>532</ele>
        <time>2019-08-09T06:15:51Z</time>
      </trkpt>
      <trkpt lat="44.25116" lon="5.83432">
        <ele>532</ele>
        <time>2019-08-09T06:15:52Z</time>
      </trkpt>
      <trkpt lat="44.25113" lon="5.83439">
        <ele>532</ele>
        <time>2019-08-09T06:15:53Z</time>
      </trkpt>
      <trkpt lat="44.25109" lon="5.83446">
        <ele>532</ele>
        <time>2019-08-09T06:15:54Z</time>
      </trkpt>
      <trkpt lat="44.25106" lon="5.83453">
        <ele>532</ele>
        <time>2019-08-09T06:15:55Z</time>
      </trkpt>
      <trkpt lat="44.25102" lon="5.83459">
        <ele>532</ele>
        <time>2019-08-09T06:15:56Z</time>
      </trkpt>
      <trkpt lat="44.25099" lon="5.83466">
        <ele>532</ele>
        <time>2019-08-09T06:15:58Z</time>
      </trkpt>
      <trkpt lat="44.25096" lon="5.83473">
        <ele>532</ele>
        <time>2019-08-09T06:15:58Z</time>
      </trkpt>
      <trkpt lat="44.25093" lon="5.83481">
        <ele>532</ele>
        <time>2019-08-09T06:15:59Z</time>
      </trkpt>
      <trkpt lat="44.2509" lon="5.83488">
        <ele>532</ele>
        <time>2019-08-09T06:16:00Z</time>
      </trkpt>
      <trkpt lat="44.25088" lon="5.83496">
        <ele>532</ele>
        <time>2019-08-09T06:16:01Z</time>
      </trkpt>
      <trkpt lat="44.25086" lon="5.83504">
        <ele>532</ele>
        <time>2019-08-09T06:16:02Z</time>
      </trkpt>
      <trkpt lat="44.25084" lon="5.83512">
        <ele>532</ele>
        <time>2019-08-09T06:16:03Z</time>
      </trkpt>
      <trkpt lat="44.25082" lon="5.8352">
        <ele>532</ele>
        <time>2019-08-09T06:16:04Z</time>
      </trkpt>
      <trkpt lat="44.25079" lon="5.83528">
        <ele>532</ele>
        <time>2019-08-09T06:16:05Z</time>
      </trkpt>
      <trkpt lat="44.25077" lon="5.83536">
        <ele>532</ele>
        <time>2019-08-09T06:16:06Z</time>
      </trkpt>
      <trkpt lat="44.25076" lon="5.83545">
        <ele>532</ele>
        <time>2019-08-09T06:16:07Z</time>
      </trkpt>
      <trkpt lat="44.25074" lon="5.83554">
        <ele>532</ele>
        <time>2019-08-09T06:16:08Z</time>
      </trkpt>
      <trkpt lat="44.25072" lon="5.83562">
        <ele>532</ele>
        <time>2019-08-09T06:16:09Z</time>
      </trkpt>
      <trkpt lat="44.25071" lon="5.83571">
        <ele>532</ele>
        <time>2019-08-09T06:16:10Z</time>
      </trkpt>
      <trkpt lat="44.25069" lon="5.8358">
        <ele>532</ele>
        <time>2019-08-09T06:16:11Z</time>
      </trkpt>
      <trkpt lat="44.25068" lon="5.83588">
        <ele>532</ele>
        <time>2019-08-09T06:16:12Z</time>
      </trkpt>
      <trkpt lat="44.25066" lon="5.83597">
        <ele>532</ele>
        <time>2019-08-09T06:16:13Z</time>
      </trkpt>
      <trkpt lat="44.25064" lon="5.83605">
        <ele>533</ele>
        <time>2019-08-09T06:16:14Z</time>
      </trkpt>
      <trkpt lat="44.25062" lon="5.83614">
        <ele>533</ele>
        <time>2019-08-09T06:16:16Z</time>
      </trkpt>
      <trkpt lat="44.2506" lon="5.83622">
        <ele>533</ele>
        <time>2019-08-09T06:16:16Z</time>
      </trkpt>
      <trkpt lat="44.25059" lon="5.83631">
        <ele>533</ele>
        <time>2019-08-09T06:16:17Z</time>
      </trkpt>
      <trkpt lat="44.25057" lon="5.83639">
        <ele>533</ele>
        <time>2019-08-09T06:16:18Z</time>
      </trkpt>
      <trkpt lat="44.25055" lon="5.83648">
        <ele>533</ele>
        <time>2019-08-09T06:16:19Z</time>
      </trkpt>
      <trkpt lat="44.25054" lon="5.83656">
        <ele>533</ele>
        <time>2019-08-09T06:16:20Z</time>
      </trkpt>
      <trkpt lat="44.25052" lon="5.83664">
        <ele>533</ele>
        <time>2019-08-09T06:16:21Z</time>
      </trkpt>
      <trkpt lat="44.2505" lon="5.83672">
        <ele>533</ele>
        <time>2019-08-09T06:16:22Z</time>
      </trkpt>
      <trkpt lat="44.25049" lon="5.8368">
        <ele>533</ele>
        <time>2019-08-09T06:16:23Z</time>
      </trkpt>
      <trkpt lat="44.25047" lon="5.83689">
        <ele>533</ele>
        <time>2019-08-09T06:16:24Z</time>
      </trkpt>
      <trkpt lat="44.25045" lon="5.83697">
        <ele>533</ele>
        <time>2019-08-09T06:16:25Z</time>
      </trkpt>
      <trkpt lat="44.25044" lon="5.83705">
        <ele>533</ele>
        <time>2019-08-09T06:16:26Z</time>
      </trkpt>
      <trkpt lat="44.25042" lon="5.83713">
        <ele>533</ele>
        <time>2019-08-09T06:16:27Z</time>
      </trkpt>
      <trkpt lat="44.25041" lon="5.83721">
        <ele>533</ele>
        <time>2019-08-09T06:16:28Z</time>
      </trkpt>
      <trkpt lat="44.25039" lon="5.8373">
        <ele>533</ele>
        <time>2019-08-09T06:16:29Z</time>
      </trkpt>
      <trkpt lat="44.25037" lon="5.83738">
        <ele>534</ele>
        <time>2019-08-09T06:16:30Z</time>
      </trkpt>
      <trkpt lat="44.25036" lon="5.83746">
        <ele>534</ele>
        <time>2019-08-09T06:16:31Z</time>
      </trkpt>
      <trkpt lat="44.25034" lon="5.83754">
        <ele>534</ele>
        <time>2019-08-09T06:16:32Z</time>
      </trkpt>
      <trkpt lat="44.25032" lon="5.83762">
        <ele>534</ele>
        <time>2019-08-09T06:16:33Z</time>
      </trkpt>
      <trkpt lat="44.25031" lon="5.8377">
        <ele>534</ele>
        <time>2019-08-09T06:16:34Z</time>
      </trkpt>
      <trkpt lat="44.25029" lon="5.83778">
        <ele>534</ele>
        <time>2019-08-09T06:16:35Z</time>
      </trkpt>
      <trkpt lat="44.25027" lon="5.83785">
        <ele>534</ele>
        <time>2019-08-09T06:16:36Z</time>
      </trkpt>
      <trkpt lat="44.25026" lon="5.83793">
        <ele>535</ele>
        <time>2019-08-09T06:16:37Z</time>
      </trkpt>
      <trkpt lat="44.25024" lon="5.83801">
        <ele>535</ele>
        <time>2019-08-09T06:16:38Z</time>
      </trkpt>
      <trkpt lat="44.25023" lon="5.83808">
        <ele>535</ele>
        <time>2019-08-09T06:16:39Z</time>
      </trkpt>
      <trkpt lat="44.25021" lon="5.83816">
        <ele>535</ele>
        <time>2019-08-09T06:16:40Z</time>
      </trkpt>
      <trkpt lat="44.2502" lon="5.83824">
        <ele>535</ele>
        <time>2019-08-09T06:16:41Z</time>
      </trkpt>
      <trkpt lat="44.25018" lon="5.83832">
        <ele>536</ele>
        <time>2019-08-09T06:16:42Z</time>
      </trkpt>
      <trkpt lat="44.25017" lon="5.8384">
        <ele>536</ele>
        <time>2019-08-09T06:16:43Z</time>
      </trkpt>
      <trkpt lat="44.25015" lon="5.83848">
        <ele>536</ele>
        <time>2019-08-09T06:16:44Z</time>
      </trkpt>
      <trkpt lat="44.25014" lon="5.83855">
        <ele>536</ele>
        <time>2019-08-09T06:16:45Z</time>
      </trkpt>
      <trkpt lat="44.25012" lon="5.83863">
        <ele>537</ele>
        <time>2019-08-09T06:16:46Z</time>
      </trkpt>
      <trkpt lat="44.25011" lon="5.83871">
        <ele>537</ele>
        <time>2019-08-09T06:16:47Z</time>
      </trkpt>
      <trkpt lat="44.25009" lon="5.83878">
        <ele>537</ele>
        <time>2019-08-09T06:16:48Z</time>
      </trkpt>
      <trkpt lat="44.25008" lon="5.83886">
        <ele>537</ele>
        <time>2019-08-09T06:16:49Z</time>
      </trkpt>
      <trkpt lat="44.25006" lon="5.83893">
        <ele>537</ele>
        <time>2019-08-09T06:16:50Z</time>
      </trkpt>
      <trkpt lat="44.25004" lon="5.83901">
        <ele>538</ele>
        <time>2019-08-09T06:16:51Z</time>
      </trkpt>
      <trkpt lat="44.25003" lon="5.83909">
        <ele>538</ele>
        <time>2019-08-09T06:16:52Z</time>
      </trkpt>
      <trkpt lat="44.25001" lon="5.83917">
        <ele>538</ele>
        <time>2019-08-09T06:16:53Z</time>
      </trkpt>
      <trkpt lat="44.24999" lon="5.83925">
        <ele>538</ele>
        <time>2019-08-09T06:16:54Z</time>
      </trkpt>
      <trkpt lat="44.24997" lon="5.83932">
        <ele>538</ele>
        <time>2019-08-09T06:16:55Z</time>
      </trkpt>
      <trkpt lat="44.24995" lon="5.8394">
        <ele>538</ele>
        <time>2019-08-09T06:16:56Z</time>
      </trkpt>
      <trkpt lat="44.24993" lon="5.83948">
        <ele>538</ele>
        <time>2019-08-09T06:16:58Z</time>
      </trkpt>
      <trkpt lat="44.24991" lon="5.83955">
        <ele>539</ele>
        <time>2019-08-09T06:16:58Z</time>
      </trkpt>
      <trkpt lat="44.24988" lon="5.83962">
        <ele>539</ele>
        <time>2019-08-09T06:16:59Z</time>
      </trkpt>
      <trkpt lat="44.24985" lon="5.83969">
        <ele>539</ele>
        <time>2019-08-09T06:17:00Z</time>
      </trkpt>
      <trkpt lat="44.24982" lon="5.83976">
        <ele>539</ele>
        <time>2019-08-09T06:17:01Z</time>
      </trkpt>
      <trkpt lat="44.24978" lon="5.83982">
        <ele>539</ele>
        <time>2019-08-09T06:17:02Z</time>
      </trkpt>
      <trkpt lat="44.24974" lon="5.83989">
        <ele>539</ele>
        <time>2019-08-09T06:17:03Z</time>
      </trkpt>
      <trkpt lat="44.24971" lon="5.83995">
        <ele>539</ele>
        <time>2019-08-09T06:17:04Z</time>
      </trkpt>
      <trkpt lat="44.24966" lon="5.84001">
        <ele>539</ele>
        <time>2019-08-09T06:17:05Z</time>
      </trkpt>
      <trkpt lat="44.24962" lon="5.84007">
        <ele>539</ele>
        <time>2019-08-09T06:17:06Z</time>
      </trkpt>
      <trkpt lat="44.24957" lon="5.84012">
        <ele>540</ele>
        <time>2019-08-09T06:17:07Z</time>
      </trkpt>
      <trkpt lat="44.24953" lon="5.84017">
        <ele>540</ele>
        <time>2019-08-09T06:17:08Z</time>
      </trkpt>
      <trkpt lat="44.24948" lon="5.84022">
        <ele>540</ele>
        <time>2019-08-09T06:17:09Z</time>
      </trkpt>
      <trkpt lat="44.24944" lon="5.84026">
        <ele>540</ele>
        <time>2019-08-09T06:17:10Z</time>
      </trkpt>
      <trkpt lat="44.24939" lon="5.8403">
        <ele>540</ele>
        <time>2019-08-09T06:17:11Z</time>
      </trkpt>
      <trkpt lat="44.24934" lon="5.84035">
        <ele>540</ele>
        <time>2019-08-09T06:17:12Z</time>
      </trkpt>
      <trkpt lat="44.24929" lon="5.84039">
        <ele>540</ele>
        <time>2019-08-09T06:17:13Z</time>
      </trkpt>
      <trkpt lat="44.24924" lon="5.84044">
        <ele>540</ele>
        <time>2019-08-09T06:17:14Z</time>
      </trkpt>
      <trkpt lat="44.24919" lon="5.84048">
        <ele>540</ele>
        <time>2019-08-09T06:17:15Z</time>
      </trkpt>
      <trkpt lat="44.24914" lon="5.84052">
        <ele>540</ele>
        <time>2019-08-09T06:17:16Z</time>
      </trkpt>
      <trkpt lat="44.24909" lon="5.84056">
        <ele>540</ele>
        <time>2019-08-09T06:17:17Z</time>
      </trkpt>
      <trkpt lat="44.24904" lon="5.8406">
        <ele>540</ele>
        <time>2019-08-09T06:17:18Z</time>
      </trkpt>
      <trkpt lat="44.24899" lon="5.84064">
        <ele>541</ele>
        <time>2019-08-09T06:17:19Z</time>
      </trkpt>
      <trkpt lat="44.24893" lon="5.84068">
        <ele>541</ele>
        <time>2019-08-09T06:17:20Z</time>
      </trkpt>
      <trkpt lat="44.24888" lon="5.84072">
        <ele>541</ele>
        <time>2019-08-09T06:17:21Z</time>
      </trkpt>
      <trkpt lat="44.24883" lon="5.84076">
        <ele>541</ele>
        <time>2019-08-09T06:17:22Z</time>
      </trkpt>
      <trkpt lat="44.24877" lon="5.84081">
        <ele>541</ele>
        <time>2019-08-09T06:17:23Z</time>
      </trkpt>
      <trkpt lat="44.24872" lon="5.84085">
        <ele>541</ele>
        <time>2019-08-09T06:17:24Z</time>
      </trkpt>
      <trkpt lat="44.24866" lon="5.84089">
        <ele>541</ele>
        <time>2019-08-09T06:17:25Z</time>
      </trkpt>
      <trkpt lat="44.24861" lon="5.84094">
        <ele>541</ele>
        <time>2019-08-09T06:17:26Z</time>
      </trkpt>
      <trkpt lat="44.24855" lon="5.84098">
        <ele>542</ele>
        <time>2019-08-09T06:17:27Z</time>
      </trkpt>
      <trkpt lat="44.2485" lon="5.84102">
        <ele>542</ele>
        <time>2019-08-09T06:17:28Z</time>
      </trkpt>
      <trkpt lat="44.24844" lon="5.84107">
        <ele>542</ele>
        <time>2019-08-09T06:17:29Z</time>
      </trkpt>
      <trkpt lat="44.24839" lon="5.84111">
        <ele>542</ele>
        <time>2019-08-09T06:17:30Z</time>
      </trkpt>
      <trkpt lat="44.24833" lon="5.84116">
        <ele>542</ele>
        <time>2019-08-09T06:17:31Z</time>
      </trkpt>
      <trkpt lat="44.24828" lon="5.8412">
        <ele>542</ele>
        <time>2019-08-09T06:17:32Z</time>
      </trkpt>
      <trkpt lat="44.24822" lon="5.84125">
        <ele>542</ele>
        <time>2019-08-09T06:17:33Z</time>
      </trkpt>
      <trkpt lat="44.24817" lon="5.84129">
        <ele>542</ele>
        <time>2019-08-09T06:17:34Z</time>
      </trkpt>
      <trkpt lat="44.24811" lon="5.84133">
        <ele>542</ele>
        <time>2019-08-09T06:17:35Z</time>
      </trkpt>
      <trkpt lat="44.24805" lon="5.84138">
        <ele>542</ele>
        <time>2019-08-09T06:17:36Z</time>
      </trkpt>
      <trkpt lat="44.248" lon="5.84142">
        <ele>542</ele>
        <time>2019-08-09T06:17:37Z</time>
      </trkpt>
      <trkpt lat="44.24794" lon="5.84147">
        <ele>542</ele>
        <time>2019-08-09T06:17:38Z</time>
      </trkpt>
      <trkpt lat="44.24789" lon="5.84152">
        <ele>542</ele>
        <time>2019-08-09T06:17:39Z</time>
      </trkpt>
      <trkpt lat="44.24783" lon="5.84156">
        <ele>542</ele>
        <time>2019-08-09T06:17:40Z</time>
      </trkpt>
      <trkpt lat="44.24777" lon="5.84161">
        <ele>542</ele>
        <time>2019-08-09T06:17:41Z</time>
      </trkpt>
      <trkpt lat="44.24771" lon="5.84166">
        <ele>542</ele>
        <time>2019-08-09T06:17:42Z</time>
      </trkpt>
      <trkpt lat="44.24765" lon="5.8417">
        <ele>542</ele>
        <time>2019-08-09T06:17:43Z</time>
      </trkpt>
      <trkpt lat="44.2476" lon="5.84175">
        <ele>542</ele>
        <time>2019-08-09T06:17:44Z</time>
      </trkpt>
      <trkpt lat="44.24753" lon="5.8418">
        <ele>542</ele>
        <time>2019-08-09T06:17:45Z</time>
      </trkpt>
      <trkpt lat="44.24747" lon="5.84185">
        <ele>542</ele>
        <time>2019-08-09T06:17:46Z</time>
      </trkpt>
      <trkpt lat="44.24741" lon="5.8419">
        <ele>542</ele>
        <time>2019-08-09T06:17:47Z</time>
      </trkpt>
      <trkpt lat="44.24735" lon="5.84195">
        <ele>542</ele>
        <time>2019-08-09T06:17:48Z</time>
      </trkpt>
      <trkpt lat="44.24728" lon="5.842">
        <ele>542</ele>
        <time>2019-08-09T06:17:49Z</time>
      </trkpt>
      <trkpt lat="44.24722" lon="5.84205">
        <ele>542</ele>
        <time>2019-08-09T06:17:50Z</time>
      </trkpt>
      <trkpt lat="44.24716" lon="5.8421">
        <ele>542</ele>
        <time>2019-08-09T06:17:51Z</time>
      </trkpt>
      <trkpt lat="44.24709" lon="5.84216">
        <ele>542</ele>
        <time>2019-08-09T06:17:52Z</time>
      </trkpt>
      <trkpt lat="44.24703" lon="5.84221">
        <ele>542</ele>
        <time>2019-08-09T06:17:53Z</time>
      </trkpt>
      <trkpt lat="44.24696" lon="5.84226">
        <ele>542</ele>
        <time>2019-08-09T06:17:54Z</time>
      </trkpt>
      <trkpt lat="44.2469" lon="5.84232">
        <ele>542</ele>
        <time>2019-08-09T06:17:55Z</time>
      </trkpt>
      <trkpt lat="44.24683" lon="5.84237">
        <ele>542</ele>
        <time>2019-08-09T06:17:56Z</time>
      </trkpt>
      <trkpt lat="44.24677" lon="5.84243">
        <ele>542</ele>
        <time>2019-08-09T06:17:58Z</time>
      </trkpt>
      <trkpt lat="44.2467" lon="5.84249">
        <ele>542</ele>
        <time>2019-08-09T06:17:58Z</time>
      </trkpt>
      <trkpt lat="44.24663" lon="5.84254">
        <ele>542</ele>
        <time>2019-08-09T06:17:59Z</time>
      </trkpt>
      <trkpt lat="44.24656" lon="5.8426">
        <ele>542</ele>
        <time>2019-08-09T06:18:00Z</time>
      </trkpt>
      <trkpt lat="44.24649" lon="5.84265">
        <ele>542</ele>
        <time>2019-08-09T06:18:01Z</time>
      </trkpt>
      <trkpt lat="44.24642" lon="5.84271">
        <ele>542</ele>
        <time>2019-08-09T06:18:02Z</time>
      </trkpt>
      <trkpt lat="44.24635" lon="5.84276">
        <ele>542</ele>
        <time>2019-08-09T06:18:03Z</time>
      </trkpt>
      <trkpt lat="44.24628" lon="5.84282">
        <ele>542</ele>
        <time>2019-08-09T06:18:04Z</time>
      </trkpt>
      <trkpt lat="44.24622" lon="5.84287">
        <ele>542</ele>
        <time>2019-08-09T06:18:05Z</time>
      </trkpt>
      <trkpt lat="44.24615" lon="5.84293">
        <ele>542</ele>
        <time>2019-08-09T06:18:06Z</time>
      </trkpt>
      <trkpt lat="44.24608" lon="5.84299">
        <ele>542</ele>
        <time>2019-08-09T06:18:07Z</time>
      </trkpt>
      <trkpt lat="44.24601" lon="5.84304">
        <ele>542</ele>
        <time>2019-08-09T06:18:08Z</time>
      </trkpt>
      <trkpt lat="44.24594" lon="5.84309">
        <ele>542</ele>
        <time>2019-08-09T06:18:09Z</time>
      </trkpt>
      <trkpt lat="44.24587" lon="5.84315">
        <ele>542</ele>
        <time>2019-08-09T06:18:10Z</time>
      </trkpt>
      <trkpt lat="44.2458" lon="5.84321">
        <ele>542</ele>
        <time>2019-08-09T06:18:11Z</time>
      </trkpt>
      <trkpt lat="44.24572" lon="5.84327">
        <ele>542</ele>
        <time>2019-08-09T06:18:12Z</time>
      </trkpt>
      <trkpt lat="44.24565" lon="5.84333">
        <ele>542</ele>
        <time>2019-08-09T06:18:13Z</time>
      </trkpt>
      <trkpt lat="44.24557" lon="5.84339">
        <ele>542</ele>
        <time>2019-08-09T06:18:14Z</time>
      </trkpt>
      <trkpt lat="44.2455" lon="5.84345">
        <ele>542</ele>
        <time>2019-08-09T06:18:15Z</time>
      </trkpt>
      <trkpt lat="44.24542" lon="5.84351">
        <ele>542</ele>
        <time>2019-08-09T06:18:16Z</time>
      </trkpt>
      <trkpt lat="44.24535" lon="5.84357">
        <ele>542</ele>
        <time>2019-08-09T06:18:17Z</time>
      </trkpt>
      <trkpt lat="44.24527" lon="5.84362">
        <ele>542</ele>
        <time>2019-08-09T06:18:18Z</time>
      </trkpt>
      <trkpt lat="44.24519" lon="5.84368">
        <ele>542</ele>
        <time>2019-08-09T06:18:19Z</time>
      </trkpt>
      <trkpt lat="44.24512" lon="5.84374">
        <ele>542</ele>
        <time>2019-08-09T06:18:20Z</time>
      </trkpt>
      <trkpt lat="44.24504" lon="5.8438">
        <ele>542</ele>
        <time>2019-08-09T06:18:21Z</time>
      </trkpt>
      <trkpt lat="44.24497" lon="5.84386">
        <ele>542</ele>
        <time>2019-08-09T06:18:22Z</time>
      </trkpt>
      <trkpt lat="44.24489" lon="5.84392">
        <ele>542</ele>
        <time>2019-08-09T06:18:23Z</time>
      </trkpt>
      <trkpt lat="44.24482" lon="5.84399">
        <ele>542</ele>
        <time>2019-08-09T06:18:24Z</time>
      </trkpt>
      <trkpt lat="44.24474" lon="5.84405">
        <ele>542</ele>
        <time>2019-08-09T06:18:25Z</time>
      </trkpt>
      <trkpt lat="44.24466" lon="5.8441">
        <ele>542</ele>
        <time>2019-08-09T06:18:26Z</time>
      </trkpt>
      <trkpt lat="44.24458" lon="5.84417">
        <ele>542</ele>
        <time>2019-08-09T06:18:27Z</time>
      </trkpt>
      <trkpt lat="44.24451" lon="5.84423">
        <ele>542</ele>
        <time>2019-08-09T06:18:28Z</time>
      </trkpt>
      <trkpt lat="44.24443" lon="5.8443">
        <ele>542</ele>
        <time>2019-08-09T06:18:29Z</time>
      </trkpt>
      <trkpt lat="44.24434" lon="5.84436">
        <ele>542</ele>
        <time>2019-08-09T06:18:30Z</time>
      </trkpt>
      <trkpt lat="44.24426" lon="5.84442">
        <ele>542</ele>
        <time>2019-08-09T06:18:31Z</time>
      </trkpt>
      <trkpt lat="44.24418" lon="5.84449">
        <ele>541</ele>
        <time>2019-08-09T06:18:32Z</time>
      </trkpt>
      <trkpt lat="44.24409" lon="5.84455">
        <ele>541</ele>
        <time>2019-08-09T06:18:33Z</time>
      </trkpt>
      <trkpt lat="44.24401" lon="5.84462">
        <ele>541</ele>
        <time>2019-08-09T06:18:34Z</time>
      </trkpt>
      <trkpt lat="44.24393" lon="5.84469">
        <ele>541</ele>
        <time>2019-08-09T06:18:35Z</time>
      </trkpt>
      <trkpt lat="44.24384" lon="5.84476">
        <ele>540</ele>
        <time>2019-08-09T06:18:36Z</time>
      </trkpt>
      <trkpt lat="44.24376" lon="5.84482">
        <ele>540</ele>
        <time>2019-08-09T06:18:37Z</time>
      </trkpt>
      <trkpt lat="44.24367" lon="5.84489">
        <ele>540</ele>
        <time>2019-08-09T06:18:38Z</time>
      </trkpt>
      <trkpt lat="44.24359" lon="5.84496">
        <ele>539</ele>
        <time>2019-08-09T06:18:39Z</time>
      </trkpt>
      <trkpt lat="44.2435" lon="5.84503">
        <ele>539</ele>
        <time>2019-08-09T06:18:40Z</time>
      </trkpt>
      <trkpt lat="44.24342" lon="5.8451">
        <ele>539</ele>
        <time>2019-08-09T06:18:41Z</time>
      </trkpt>
      <trkpt lat="44.24333" lon="5.84516">
        <ele>539</ele>
        <time>2019-08-09T06:18:42Z</time>
      </trkpt>
      <trkpt lat="44.24325" lon="5.84523">
        <ele>538</ele>
        <time>2019-08-09T06:18:43Z</time>
      </trkpt>
      <trkpt lat="44.24317" lon="5.8453">
        <ele>538</ele>
        <time>2019-08-09T06:18:44Z</time>
      </trkpt>
      <trkpt lat="44.24308" lon="5.84536">
        <ele>538</ele>
        <time>2019-08-09T06:18:45Z</time>
      </trkpt>
      <trkpt lat="44.243" lon="5.84543">
        <ele>537</ele>
        <time>2019-08-09T06:18:46Z</time>
      </trkpt>
      <trkpt lat="44.24291" lon="5.8455">
        <ele>537</ele>
        <time>2019-08-09T06:18:47Z</time>
      </trkpt>
      <trkpt lat="44.24283" lon="5.84557">
        <ele>537</ele>
        <time>2019-08-09T06:18:48Z</time>
      </trkpt>
      <trkpt lat="44.24274" lon="5.84564">
        <ele>536</ele>
        <time>2019-08-09T06:18:49Z</time>
      </trkpt>
      <trkpt lat="44.24266" lon="5.84571">
        <ele>536</ele>
        <time>2019-08-09T06:18:50Z</time>
      </trkpt>
      <trkpt lat="44.24257" lon="5.84578">
        <ele>536</ele>
        <time>2019-08-09T06:18:51Z</time>
      </trkpt>
      <trkpt lat="44.24249" lon="5.84585">
        <ele>535</ele>
        <time>2019-08-09T06:18:52Z</time>
      </trkpt>
      <trkpt lat="44.2424" lon="5.84592">
        <ele>535</ele>
        <time>2019-08-09T06:18:53Z</time>
      </trkpt>
      <trkpt lat="44.24231" lon="5.84599">
        <ele>535</ele>
        <time>2019-08-09T06:18:54Z</time>
      </trkpt>
      <trkpt lat="44.24222" lon="5.84606">
        <ele>535</ele>
        <time>2019-08-09T06:18:55Z</time>
      </trkpt>
      <trkpt lat="44.24214" lon="5.84613">
        <ele>534</ele>
        <time>2019-08-09T06:18:56Z</time>
      </trkpt>
      <trkpt lat="44.24205" lon="5.8462">
        <ele>534</ele>
        <time>2019-08-09T06:18:57Z</time>
      </trkpt>
      <trkpt lat="44.24196" lon="5.84627">
        <ele>534</ele>
        <time>2019-08-09T06:18:58Z</time>
      </trkpt>
      <trkpt lat="44.24188" lon="5.84634">
        <ele>533</ele>
        <time>2019-08-09T06:18:59Z</time>
      </trkpt>
      <trkpt lat="44.24179" lon="5.84641">
        <ele>533</ele>
        <time>2019-08-09T06:19:00Z</time>
      </trkpt>
      <trkpt lat="44.2417" lon="5.84648">
        <ele>533</ele>
        <time>2019-08-09T06:19:01Z</time>
      </trkpt>
      <trkpt lat="44.24161" lon="5.84655">
        <ele>533</ele>
        <time>2019-08-09T06:19:02Z</time>
      </trkpt>
      <trkpt lat="44.24152" lon="5.84662">
        <ele>532</ele>
        <time>2019-08-09T06:19:03Z</time>
      </trkpt>
      <trkpt lat="44.24144" lon="5.84669">
        <ele>532</ele>
        <time>2019-08-09T06:19:04Z</time>
      </trkpt>
      <trkpt lat="44.24135" lon="5.84676">
        <ele>532</ele>
        <time>2019-08-09T06:19:05Z</time>
      </trkpt>
      <trkpt lat="44.24127" lon="5.84682">
        <ele>532</ele>
        <time>2019-08-09T06:19:06Z</time>
      </trkpt>
      <trkpt lat="44.24118" lon="5.84689">
        <ele>532</ele>
        <time>2019-08-09T06:19:07Z</time>
      </trkpt>
      <trkpt lat="44.2411" lon="5.84695">
        <ele>532</ele>
        <time>2019-08-09T06:19:08Z</time>
      </trkpt>
      <trkpt lat="44.24101" lon="5.84702">
        <ele>531</ele>
        <time>2019-08-09T06:19:09Z</time>
      </trkpt>
      <trkpt lat="44.24093" lon="5.84709">
        <ele>531</ele>
        <time>2019-08-09T06:19:10Z</time>
      </trkpt>
      <trkpt lat="44.24084" lon="5.84716">
        <ele>531</ele>
        <time>2019-08-09T06:19:11Z</time>
      </trkpt>
      <trkpt lat="44.24076" lon="5.84723">
        <ele>531</ele>
        <time>2019-08-09T06:19:12Z</time>
      </trkpt>
      <trkpt lat="44.24068" lon="5.84729">
        <ele>531</ele>
        <time>2019-08-09T06:19:13Z</time>
      </trkpt>
      <trkpt lat="44.2406" lon="5.84736">
        <ele>531</ele>
        <time>2019-08-09T06:19:14Z</time>
      </trkpt>
      <trkpt lat="44.24051" lon="5.84743">
        <ele>531</ele>
        <time>2019-08-09T06:19:15Z</time>
      </trkpt>
      <trkpt lat="44.24043" lon="5.84749">
        <ele>530</ele>
        <time>2019-08-09T06:19:16Z</time>
      </trkpt>
      <trkpt lat="44.24035" lon="5.84756">
        <ele>530</ele>
        <time>2019-08-09T06:19:17Z</time>
      </trkpt>
      <trkpt lat="44.24027" lon="5.84762">
        <ele>530</ele>
        <time>2019-08-09T06:19:18Z</time>
      </trkpt>
      <trkpt lat="44.24019" lon="5.84769">
        <ele>530</ele>
        <time>2019-08-09T06:19:19Z</time>
      </trkpt>
      <trkpt lat="44.24011" lon="5.84776">
        <ele>530</ele>
        <time>2019-08-09T06:19:20Z</time>
      </trkpt>
      <trkpt lat="44.24003" lon="5.84783">
        <ele>530</ele>
        <time>2019-08-09T06:19:21Z</time>
      </trkpt>
      <trkpt lat="44.23995" lon="5.84789">
        <ele>530</ele>
        <time>2019-08-09T06:19:22Z</time>
      </trkpt>
      <trkpt lat="44.23987" lon="5.84796">
        <ele>530</ele>
        <time>2019-08-09T06:19:23Z</time>
      </trkpt>
      <trkpt lat="44.23979" lon="5.84803">
        <ele>529</ele>
        <time>2019-08-09T06:19:24Z</time>
      </trkpt>
      <trkpt lat="44.23971" lon="5.8481">
        <ele>529</ele>
        <time>2019-08-09T06:19:25Z</time>
      </trkpt>
      <trkpt lat="44.23963" lon="5.84817">
        <ele>529</ele>
        <time>2019-08-09T06:19:26Z</time>
      </trkpt>
      <trkpt lat="44.23955" lon="5.84823">
        <ele>529</ele>
        <time>2019-08-09T06:19:27Z</time>
      </trkpt>
      <trkpt lat="44.23948" lon="5.8483">
        <ele>529</ele>
        <time>2019-08-09T06:19:28Z</time>
      </trkpt>
      <trkpt lat="44.2394" lon="5.84836">
        <ele>529</ele>
        <time>2019-08-09T06:19:29Z</time>
      </trkpt>
      <trkpt lat="44.23932" lon="5.84843">
        <ele>529</ele>
        <time>2019-08-09T06:19:30Z</time>
      </trkpt>
      <trkpt lat="44.23924" lon="5.84849">
        <ele>528</ele>
        <time>2019-08-09T06:19:31Z</time>
      </trkpt>
      <trkpt lat="44.23917" lon="5.84855">
        <ele>528</ele>
        <time>2019-08-09T06:19:32Z</time>
      </trkpt>
      <trkpt lat="44.23909" lon="5.84861">
        <ele>528</ele>
        <time>2019-08-09T06:19:33Z</time>
      </trkpt>
      <trkpt lat="44.23901" lon="5.84867">
        <ele>528</ele>
        <time>2019-08-09T06:19:34Z</time>
      </trkpt>
      <trkpt lat="44.23894" lon="5.84873">
        <ele>528</ele>
        <time>2019-08-09T06:19:35Z</time>
      </trkpt>
      <trkpt lat="44.23886" lon="5.84879">
        <ele>528</ele>
        <time>2019-08-09T06:19:36Z</time>
      </trkpt>
      <trkpt lat="44.23879" lon="5.84885">
        <ele>528</ele>
        <time>2019-08-09T06:19:37Z</time>
      </trkpt>
      <trkpt lat="44.23872" lon="5.84891">
        <ele>528</ele>
        <time>2019-08-09T06:19:38Z</time>
      </trkpt>
      <trkpt lat="44.23864" lon="5.84897">
        <ele>528</ele>
        <time>2019-08-09T06:19:39Z</time>
      </trkpt>
      <trkpt lat="44.23856" lon="5.84903">
        <ele>528</ele>
        <time>2019-08-09T06:19:40Z</time>
      </trkpt>
      <trkpt lat="44.23849" lon="5.8491">
        <ele>528</ele>
        <time>2019-08-09T06:19:41Z</time>
      </trkpt>
      <trkpt lat="44.23841" lon="5.84916">
        <ele>528</ele>
        <time>2019-08-09T06:19:42Z</time>
      </trkpt>
      <trkpt lat="44.23834" lon="5.84923">
        <ele>527</ele>
        <time>2019-08-09T06:19:43Z</time>
      </trkpt>
      <trkpt lat="44.23827" lon="5.84929">
        <ele>527</ele>
        <time>2019-08-09T06:19:44Z</time>
      </trkpt>
      <trkpt lat="44.23819" lon="5.84935">
        <ele>527</ele>
        <time>2019-08-09T06:19:45Z</time>
      </trkpt>
      <trkpt lat="44.23812" lon="5.8494">
        <ele>527</ele>
        <time>2019-08-09T06:19:46Z</time>
      </trkpt>
      <trkpt lat="44.23805" lon="5.84946">
        <ele>527</ele>
        <time>2019-08-09T06:19:47Z</time>
      </trkpt>
      <trkpt lat="44.23797" lon="5.84952">
        <ele>527</ele>
        <time>2019-08-09T06:19:48Z</time>
      </trkpt>
      <trkpt lat="44.2379" lon="5.84958">
        <ele>527</ele>
        <time>2019-08-09T06:19:49Z</time>
      </trkpt>
      <trkpt lat="44.23783" lon="5.84964">
        <ele>527</ele>
        <time>2019-08-09T06:19:50Z</time>
      </trkpt>
      <trkpt lat="44.23775" lon="5.8497">
        <ele>527</ele>
        <time>2019-08-09T06:19:51Z</time>
      </trkpt>
      <trkpt lat="44.23768" lon="5.84976">
        <ele>527</ele>
        <time>2019-08-09T06:19:52Z</time>
      </trkpt>
      <trkpt lat="44.23761" lon="5.84982">
        <ele>527</ele>
        <time>2019-08-09T06:19:53Z</time>
      </trkpt>
      <trkpt lat="44.23755" lon="5.84988">
        <ele>527</ele>
        <time>2019-08-09T06:19:54Z</time>
      </trkpt>
      <trkpt lat="44.23748" lon="5.84994">
        <ele>527</ele>
        <time>2019-08-09T06:19:55Z</time>
      </trkpt>
      <trkpt lat="44.2374" lon="5.84999">
        <ele>527</ele>
        <time>2019-08-09T06:19:56Z</time>
      </trkpt>
      <trkpt lat="44.23734" lon="5.85004">
        <ele>527</ele>
        <time>2019-08-09T06:19:58Z</time>
      </trkpt>
      <trkpt lat="44.23727" lon="5.85009">
        <ele>527</ele>
        <time>2019-08-09T06:19:58Z</time>
      </trkpt>
      <trkpt lat="44.23719" lon="5.85015">
        <ele>527</ele>
        <time>2019-08-09T06:19:59Z</time>
      </trkpt>
      <trkpt lat="44.23713" lon="5.8502">
        <ele>527</ele>
        <time>2019-08-09T06:20:00Z</time>
      </trkpt>
      <trkpt lat="44.23706" lon="5.85025">
        <ele>527</ele>
        <time>2019-08-09T06:20:01Z</time>
      </trkpt>
      <trkpt lat="44.23699" lon="5.85031">
        <ele>527</ele>
        <time>2019-08-09T06:20:02Z</time>
      </trkpt>
      <trkpt lat="44.23692" lon="5.85036">
        <ele>527</ele>
        <time>2019-08-09T06:20:03Z</time>
      </trkpt>
      <trkpt lat="44.23685" lon="5.85042">
        <ele>527</ele>
        <time>2019-08-09T06:20:04Z</time>
      </trkpt>
      <trkpt lat="44.23679" lon="5.85047">
        <ele>527</ele>
        <time>2019-08-09T06:20:05Z</time>
      </trkpt>
      <trkpt lat="44.23672" lon="5.85052">
        <ele>527</ele>
        <time>2019-08-09T06:20:06Z</time>
      </trkpt>
      <trkpt lat="44.23665" lon="5.85058">
        <ele>527</ele>
        <time>2019-08-09T06:20:07Z</time>
      </trkpt>
      <trkpt lat="44.23658" lon="5.85064">
        <ele>527</ele>
        <time>2019-08-09T06:20:08Z</time>
      </trkpt>
      <trkpt lat="44.23652" lon="5.85071">
        <ele>527</ele>
        <time>2019-08-09T06:20:09Z</time>
      </trkpt>
      <trkpt lat="44.23646" lon="5.85077">
        <ele>527</ele>
        <time>2019-08-09T06:20:10Z</time>
      </trkpt>
      <trkpt lat="44.23641" lon="5.85085">
        <ele>527</ele>
        <time>2019-08-09T06:20:11Z</time>
      </trkpt>
      <trkpt lat="44.23636" lon="5.85093">
        <ele>527</ele>
        <time>2019-08-09T06:20:12Z</time>
      </trkpt>
      <trkpt lat="44.23631" lon="5.85102">
        <ele>527</ele>
        <time>2019-08-09T06:20:13Z</time>
      </trkpt>
      <trkpt lat="44.23627" lon="5.85111">
        <ele>527</ele>
        <time>2019-08-09T06:20:14Z</time>
      </trkpt>
      <trkpt lat="44.23623" lon="5.8512">
        <ele>527</ele>
        <time>2019-08-09T06:20:15Z</time>
      </trkpt>
      <trkpt lat="44.23619" lon="5.8513">
        <ele>527</ele>
        <time>2019-08-09T06:20:16Z</time>
      </trkpt>
      <trkpt lat="44.23616" lon="5.85141">
        <ele>527</ele>
        <time>2019-08-09T06:20:17Z</time>
      </trkpt>
      <trkpt lat="44.23613" lon="5.85151">
        <ele>527</ele>
        <time>2019-08-09T06:20:18Z</time>
      </trkpt>
      <trkpt lat="44.23611" lon="5.85162">
        <ele>527</ele>
        <time>2019-08-09T06:20:19Z</time>
      </trkpt>
      <trkpt lat="44.23608" lon="5.85172">
        <ele>527</ele>
        <time>2019-08-09T06:20:20Z</time>
      </trkpt>
      <trkpt lat="44.23605" lon="5.85183">
        <ele>527</ele>
        <time>2019-08-09T06:20:21Z</time>
      </trkpt>
      <trkpt lat="44.23603" lon="5.85193">
        <ele>527</ele>
        <time>2019-08-09T06:20:22Z</time>
      </trkpt>
      <trkpt lat="44.236" lon="5.85204">
        <ele>527</ele>
        <time>2019-08-09T06:20:23Z</time>
      </trkpt>
      <trkpt lat="44.23598" lon="5.85214">
        <ele>527</ele>
        <time>2019-08-09T06:20:24Z</time>
      </trkpt>
      <trkpt lat="44.23596" lon="5.85224">
        <ele>527</ele>
        <time>2019-08-09T06:20:25Z</time>
      </trkpt>
      <trkpt lat="44.23594" lon="5.85234">
        <ele>527</ele>
        <time>2019-08-09T06:20:26Z</time>
      </trkpt>
      <trkpt lat="44.23592" lon="5.85244">
        <ele>527</ele>
        <time>2019-08-09T06:20:27Z</time>
      </trkpt>
      <trkpt lat="44.2359" lon="5.85253">
        <ele>527</ele>
        <time>2019-08-09T06:20:28Z</time>
      </trkpt>
      <trkpt lat="44.23587" lon="5.85263">
        <ele>527</ele>
        <time>2019-08-09T06:20:29Z</time>
      </trkpt>
      <trkpt lat="44.23585" lon="5.85273">
        <ele>527</ele>
        <time>2019-08-09T06:20:30Z</time>
      </trkpt>
      <trkpt lat="44.23583" lon="5.85283">
        <ele>527</ele>
        <time>2019-08-09T06:20:31Z</time>
      </trkpt>
      <trkpt lat="44.23581" lon="5.85292">
        <ele>527</ele>
        <time>2019-08-09T06:20:32Z</time>
      </trkpt>
      <trkpt lat="44.23578" lon="5.85302">
        <ele>527</ele>
        <time>2019-08-09T06:20:33Z</time>
      </trkpt>
      <trkpt lat="44.23576" lon="5.85312">
        <ele>527</ele>
        <time>2019-08-09T06:20:34Z</time>
      </trkpt>
      <trkpt lat="44.23574" lon="5.85322">
        <ele>527</ele>
        <time>2019-08-09T06:20:35Z</time>
      </trkpt>
      <trkpt lat="44.23571" lon="5.85332">
        <ele>527</ele>
        <time>2019-08-09T06:20:36Z</time>
      </trkpt>
      <trkpt lat="44.23569" lon="5.85342">
        <ele>527</ele>
        <time>2019-08-09T06:20:37Z</time>
      </trkpt>
      <trkpt lat="44.23567" lon="5.85351">
        <ele>527</ele>
        <time>2019-08-09T06:20:38Z</time>
      </trkpt>
      <trkpt lat="44.23565" lon="5.8536">
        <ele>527</ele>
        <time>2019-08-09T06:20:39Z</time>
      </trkpt>
      <trkpt lat="44.23563" lon="5.85369">
        <ele>527</ele>
        <time>2019-08-09T06:20:40Z</time>
      </trkpt>
      <trkpt lat="44.2356" lon="5.85379">
        <ele>527</ele>
        <time>2019-08-09T06:20:41Z</time>
      </trkpt>
      <trkpt lat="44.23558" lon="5.85388">
        <ele>527</ele>
        <time>2019-08-09T06:20:42Z</time>
      </trkpt>
      <trkpt lat="44.23555" lon="5.85397">
        <ele>527</ele>
        <time>2019-08-09T06:20:43Z</time>
      </trkpt>
      <trkpt lat="44.23551" lon="5.85406">
        <ele>527</ele>
        <time>2019-08-09T06:20:44Z</time>
      </trkpt>
      <trkpt lat="44.23547" lon="5.85415">
        <ele>527</ele>
        <time>2019-08-09T06:20:45Z</time>
      </trkpt>
      <trkpt lat="44.23543" lon="5.85424">
        <ele>527</ele>
        <time>2019-08-09T06:20:46Z</time>
      </trkpt>
      <trkpt lat="44.23538" lon="5.85431">
        <ele>527</ele>
        <time>2019-08-09T06:20:47Z</time>
      </trkpt>
      <trkpt lat="44.23534" lon="5.85439">
        <ele>527</ele>
        <time>2019-08-09T06:20:48Z</time>
      </trkpt>
      <trkpt lat="44.23529" lon="5.85446">
        <ele>527</ele>
        <time>2019-08-09T06:20:49Z</time>
      </trkpt>
      <trkpt lat="44.23523" lon="5.85453">
        <ele>527</ele>
        <time>2019-08-09T06:20:50Z</time>
      </trkpt>
      <trkpt lat="44.23518" lon="5.85459">
        <ele>527</ele>
        <time>2019-08-09T06:20:51Z</time>
      </trkpt>
      <trkpt lat="44.23512" lon="5.85465">
        <ele>527</ele>
        <time>2019-08-09T06:20:52Z</time>
      </trkpt>
      <trkpt lat="44.23506" lon="5.85471">
        <ele>527</ele>
        <time>2019-08-09T06:20:53Z</time>
      </trkpt>
      <trkpt lat="44.235" lon="5.85475">
        <ele>527</ele>
        <time>2019-08-09T06:20:54Z</time>
      </trkpt>
      <trkpt lat="44.23493" lon="5.8548">
        <ele>527</ele>
        <time>2019-08-09T06:20:55Z</time>
      </trkpt>
      <trkpt lat="44.23486" lon="5.85484">
        <ele>527</ele>
        <time>2019-08-09T06:20:56Z</time>
      </trkpt>
      <trkpt lat="44.23479" lon="5.85487">
        <ele>527</ele>
        <time>2019-08-09T06:20:58Z</time>
      </trkpt>
      <trkpt lat="44.23471" lon="5.8549">
        <ele>527</ele>
        <time>2019-08-09T06:20:58Z</time>
      </trkpt>
      <trkpt lat="44.23464" lon="5.85492">
        <ele>527</ele>
        <time>2019-08-09T06:20:59Z</time>
      </trkpt>
      <trkpt lat="44.23456" lon="5.85494">
        <ele>527</ele>
        <time>2019-08-09T06:21:00Z</time>
      </trkpt>
      <trkpt lat="44.23448" lon="5.85495">
        <ele>527</ele>
        <time>2019-08-09T06:21:01Z</time>
      </trkpt>
      <trkpt lat="44.2344" lon="5.85497">
        <ele>527</ele>
        <time>2019-08-09T06:21:02Z</time>
      </trkpt>
      <trkpt lat="44.23431" lon="5.85498">
        <ele>527</ele>
        <time>2019-08-09T06:21:03Z</time>
      </trkpt>
      <trkpt lat="44.23423" lon="5.85499">
        <ele>527</ele>
        <time>2019-08-09T06:21:04Z</time>
      </trkpt>
      <trkpt lat="44.23413" lon="5.855">
        <ele>526</ele>
        <time>2019-08-09T06:21:05Z</time>
      </trkpt>
      <trkpt lat="44.23404" lon="5.855">
        <ele>526</ele>
        <time>2019-08-09T06:21:06Z</time>
      </trkpt>
      <trkpt lat="44.23395" lon="5.85499">
        <ele>525</ele>
        <time>2019-08-09T06:21:07Z</time>
      </trkpt>
      <trkpt lat="44.23386" lon="5.85497">
        <ele>525</ele>
        <time>2019-08-09T06:21:08Z</time>
      </trkpt>
      <trkpt lat="44.23376" lon="5.85496">
        <ele>524</ele>
        <time>2019-08-09T06:21:09Z</time>
      </trkpt>
      <trkpt lat="44.23367" lon="5.85494">
        <ele>524</ele>
        <time>2019-08-09T06:21:10Z</time>
      </trkpt>
      <trkpt lat="44.23358" lon="5.85493">
        <ele>523</ele>
        <time>2019-08-09T06:21:11Z</time>
      </trkpt>
      <trkpt lat="44.23348" lon="5.85492">
        <ele>523</ele>
        <time>2019-08-09T06:21:12Z</time>
      </trkpt>
      <trkpt lat="44.23339" lon="5.85492">
        <ele>522</ele>
        <time>2019-08-09T06:21:13Z</time>
      </trkpt>
      <trkpt lat="44.23329" lon="5.85492">
        <ele>522</ele>
        <time>2019-08-09T06:21:14Z</time>
      </trkpt>
      <trkpt lat="44.23319" lon="5.85492">
        <ele>521</ele>
        <time>2019-08-09T06:21:15Z</time>
      </trkpt>
      <trkpt lat="44.2331" lon="5.85493">
        <ele>521</ele>
        <time>2019-08-09T06:21:16Z</time>
      </trkpt>
      <trkpt lat="44.233" lon="5.85495">
        <ele>521</ele>
        <time>2019-08-09T06:21:17Z</time>
      </trkpt>
      <trkpt lat="44.23291" lon="5.85497">
        <ele>520</ele>
        <time>2019-08-09T06:21:18Z</time>
      </trkpt>
      <trkpt lat="44.2328" lon="5.85501">
        <ele>520</ele>
        <time>2019-08-09T06:21:19Z</time>
      </trkpt>
      <trkpt lat="44.2327" lon="5.85503">
        <ele>520</ele>
        <time>2019-08-09T06:21:20Z</time>
      </trkpt>
      <trkpt lat="44.23261" lon="5.85504">
        <ele>519</ele>
        <time>2019-08-09T06:21:21Z</time>
      </trkpt>
      <trkpt lat="44.23251" lon="5.85506">
        <ele>519</ele>
        <time>2019-08-09T06:21:22Z</time>
      </trkpt>
      <trkpt lat="44.23242" lon="5.85507">
        <ele>519</ele>
        <time>2019-08-09T06:21:23Z</time>
      </trkpt>
      <trkpt lat="44.23233" lon="5.8551">
        <ele>519</ele>
        <time>2019-08-09T06:21:24Z</time>
      </trkpt>
      <trkpt lat="44.23225" lon="5.85514">
        <ele>519</ele>
        <time>2019-08-09T06:21:25Z</time>
      </trkpt>
      <trkpt lat="44.23217" lon="5.85519">
        <ele>519</ele>
        <time>2019-08-09T06:21:26Z</time>
      </trkpt>
      <trkpt lat="44.23209" lon="5.85526">
        <ele>519</ele>
        <time>2019-08-09T06:21:27Z</time>
      </trkpt>
      <trkpt lat="44.23202" lon="5.85534">
        <ele>519</ele>
        <time>2019-08-09T06:21:28Z</time>
      </trkpt>
      <trkpt lat="44.23196" lon="5.85541">
        <ele>519</ele>
        <time>2019-08-09T06:21:29Z</time>
      </trkpt>
      <trkpt lat="44.23192" lon="5.85549">
        <ele>519</ele>
        <time>2019-08-09T06:21:30Z</time>
      </trkpt>
      <trkpt lat="44.23187" lon="5.85557">
        <ele>519</ele>
        <time>2019-08-09T06:21:31Z</time>
      </trkpt>
      <trkpt lat="44.23182" lon="5.85564">
        <ele>519</ele>
        <time>2019-08-09T06:21:32Z</time>
      </trkpt>
      <trkpt lat="44.23177" lon="5.85571">
        <ele>519</ele>
        <time>2019-08-09T06:21:33Z</time>
      </trkpt>
      <trkpt lat="44.23173" lon="5.85578">
        <ele>519</ele>
        <time>2019-08-09T06:21:34Z</time>
      </trkpt>
      <trkpt lat="44.23171" lon="5.85585">
        <ele>519</ele>
        <time>2019-08-09T06:21:35Z</time>
      </trkpt>
      <trkpt lat="44.23169" lon="5.85591">
        <ele>519</ele>
        <time>2019-08-09T06:21:36Z</time>
      </trkpt>
      <trkpt lat="44.23167" lon="5.85597">
        <ele>519</ele>
        <time>2019-08-09T06:21:37Z</time>
      </trkpt>
      <trkpt lat="44.23164" lon="5.856">
        <ele>519</ele>
        <time>2019-08-09T06:21:38Z</time>
      </trkpt>
      <trkpt lat="44.23161" lon="5.85605">
        <ele>520</ele>
        <time>2019-08-09T06:21:39Z</time>
      </trkpt>
      <trkpt lat="44.23157" lon="5.85609">
        <ele>520</ele>
        <time>2019-08-09T06:21:40Z</time>
      </trkpt>
      <trkpt lat="44.23154" lon="5.85612">
        <ele>521</ele>
        <time>2019-08-09T06:21:41Z</time>
      </trkpt>
      <trkpt lat="44.23151" lon="5.85616">
        <ele>522</ele>
        <time>2019-08-09T06:21:42Z</time>
      </trkpt>
      <trkpt lat="44.23147" lon="5.8562">
        <ele>523</ele>
        <time>2019-08-09T06:21:43Z</time>
      </trkpt>
      <trkpt lat="44.23142" lon="5.85626">
        <ele>523</ele>
        <time>2019-08-09T06:21:44Z</time>
      </trkpt>
      <trkpt lat="44.23137" lon="5.85632">
        <ele>524</ele>
        <time>2019-08-09T06:21:45Z</time>
      </trkpt>
      <trkpt lat="44.23132" lon="5.85638">
        <ele>524</ele>
        <time>2019-08-09T06:21:46Z</time>
      </trkpt>
      <trkpt lat="44.23127" lon="5.85644">
        <ele>524</ele>
        <time>2019-08-09T06:21:47Z</time>
      </trkpt>
      <trkpt lat="44.23123" lon="5.85649">
        <ele>524</ele>
        <time>2019-08-09T06:21:48Z</time>
      </trkpt>
      <trkpt lat="44.23118" lon="5.85654">
        <ele>525</ele>
        <time>2019-08-09T06:21:49Z</time>
      </trkpt>
      <trkpt lat="44.23113" lon="5.85658">
        <ele>525</ele>
        <time>2019-08-09T06:21:50Z</time>
      </trkpt>
      <trkpt lat="44.23107" lon="5.85662">
        <ele>525</ele>
        <time>2019-08-09T06:21:51Z</time>
      </trkpt>
      <trkpt lat="44.23102" lon="5.85666">
        <ele>525</ele>
        <time>2019-08-09T06:21:52Z</time>
      </trkpt>
      <trkpt lat="44.23096" lon="5.8567">
        <ele>525</ele>
        <time>2019-08-09T06:21:53Z</time>
      </trkpt>
      <trkpt lat="44.23091" lon="5.85673">
        <ele>525</ele>
        <time>2019-08-09T06:21:54Z</time>
      </trkpt>
      <trkpt lat="44.23085" lon="5.85677">
        <ele>525</ele>
        <time>2019-08-09T06:21:55Z</time>
      </trkpt>
      <trkpt lat="44.23078" lon="5.8568">
        <ele>525</ele>
        <time>2019-08-09T06:21:56Z</time>
      </trkpt>
      <trkpt lat="44.23072" lon="5.85684">
        <ele>525</ele>
        <time>2019-08-09T06:21:58Z</time>
      </trkpt>
      <trkpt lat="44.23066" lon="5.85688">
        <ele>525</ele>
        <time>2019-08-09T06:21:58Z</time>
      </trkpt>
      <trkpt lat="44.2306" lon="5.85693">
        <ele>525</ele>
        <time>2019-08-09T06:21:59Z</time>
      </trkpt>
      <trkpt lat="44.23054" lon="5.85697">
        <ele>525</ele>
        <time>2019-08-09T06:22:00Z</time>
      </trkpt>
      <trkpt lat="44.23048" lon="5.85701">
        <ele>525</ele>
        <time>2019-08-09T06:22:01Z</time>
      </trkpt>
      <trkpt lat="44.23041" lon="5.85706">
        <ele>525</ele>
        <time>2019-08-09T06:22:02Z</time>
      </trkpt>
      <trkpt lat="44.23035" lon="5.85711">
        <ele>525</ele>
        <time>2019-08-09T06:22:03Z</time>
      </trkpt>
      <trkpt lat="44.23028" lon="5.85716">
        <ele>525</ele>
        <time>2019-08-09T06:22:04Z</time>
      </trkpt>
      <trkpt lat="44.23021" lon="5.8572">
        <ele>525</ele>
        <time>2019-08-09T06:22:05Z</time>
      </trkpt>
      <trkpt lat="44.23014" lon="5.85724">
        <ele>525</ele>
        <time>2019-08-09T06:22:06Z</time>
      </trkpt>
      <trkpt lat="44.23007" lon="5.85729">
        <ele>525</ele>
        <time>2019-08-09T06:22:07Z</time>
      </trkpt>
      <trkpt lat="44.23" lon="5.85733">
        <ele>525</ele>
        <time>2019-08-09T06:22:08Z</time>
      </trkpt>
      <trkpt lat="44.22994" lon="5.85738">
        <ele>525</ele>
        <time>2019-08-09T06:22:09Z</time>
      </trkpt>
      <trkpt lat="44.22987" lon="5.85742">
        <ele>525</ele>
        <time>2019-08-09T06:22:10Z</time>
      </trkpt>
      <trkpt lat="44.2298" lon="5.85747">
        <ele>525</ele>
        <time>2019-08-09T06:22:11Z</time>
      </trkpt>
      <trkpt lat="44.22974" lon="5.85751">
        <ele>525</ele>
        <time>2019-08-09T06:22:12Z</time>
      </trkpt>
      <trkpt lat="44.22969" lon="5.85755">
        <ele>525</ele>
        <time>2019-08-09T06:22:13Z</time>
      </trkpt>
      <trkpt lat="44.22963" lon="5.85759">
        <ele>525</ele>
        <time>2019-08-09T06:22:14Z</time>
      </trkpt>
      <trkpt lat="44.22956" lon="5.85763">
        <ele>525</ele>
        <time>2019-08-09T06:22:15Z</time>
      </trkpt>
      <trkpt lat="44.22949" lon="5.85766">
        <ele>525</ele>
        <time>2019-08-09T06:22:16Z</time>
      </trkpt>
      <trkpt lat="44.22942" lon="5.85769">
        <ele>525</ele>
        <time>2019-08-09T06:22:17Z</time>
      </trkpt>
      <trkpt lat="44.22935" lon="5.85772">
        <ele>525</ele>
        <time>2019-08-09T06:22:18Z</time>
      </trkpt>
      <trkpt lat="44.22929" lon="5.85776">
        <ele>525</ele>
        <time>2019-08-09T06:22:19Z</time>
      </trkpt>
      <trkpt lat="44.22921" lon="5.85779">
        <ele>525</ele>
        <time>2019-08-09T06:22:20Z</time>
      </trkpt>
      <trkpt lat="44.22914" lon="5.85783">
        <ele>525</ele>
        <time>2019-08-09T06:22:21Z</time>
      </trkpt>
      <trkpt lat="44.22907" lon="5.85786">
        <ele>525</ele>
        <time>2019-08-09T06:22:22Z</time>
      </trkpt>
      <trkpt lat="44.22901" lon="5.85789">
        <ele>525</ele>
        <time>2019-08-09T06:22:23Z</time>
      </trkpt>
      <trkpt lat="44.22894" lon="5.85793">
        <ele>525</ele>
        <time>2019-08-09T06:22:24Z</time>
      </trkpt>
      <trkpt lat="44.22887" lon="5.85796">
        <ele>525</ele>
        <time>2019-08-09T06:22:25Z</time>
      </trkpt>
      <trkpt lat="44.22881" lon="5.858">
        <ele>525</ele>
        <time>2019-08-09T06:22:26Z</time>
      </trkpt>
      <trkpt lat="44.22875" lon="5.85803">
        <ele>525</ele>
        <time>2019-08-09T06:22:27Z</time>
      </trkpt>
      <trkpt lat="44.22868" lon="5.85807">
        <ele>525</ele>
        <time>2019-08-09T06:22:28Z</time>
      </trkpt>
      <trkpt lat="44.22862" lon="5.8581">
        <ele>525</ele>
        <time>2019-08-09T06:22:29Z</time>
      </trkpt>
      <trkpt lat="44.22856" lon="5.85813">
        <ele>525</ele>
        <time>2019-08-09T06:22:30Z</time>
      </trkpt>
      <trkpt lat="44.2285" lon="5.85817">
        <ele>525</ele>
        <time>2019-08-09T06:22:31Z</time>
      </trkpt>
      <trkpt lat="44.22843" lon="5.8582">
        <ele>525</ele>
        <time>2019-08-09T06:22:32Z</time>
      </trkpt>
      <trkpt lat="44.22837" lon="5.85823">
        <ele>525</ele>
        <time>2019-08-09T06:22:33Z</time>
      </trkpt>
      <trkpt lat="44.2283" lon="5.85827">
        <ele>525</ele>
        <time>2019-08-09T06:22:34Z</time>
      </trkpt>
      <trkpt lat="44.22823" lon="5.8583">
        <ele>525</ele>
        <time>2019-08-09T06:22:35Z</time>
      </trkpt>
      <trkpt lat="44.22816" lon="5.85833">
        <ele>525</ele>
        <time>2019-08-09T06:22:36Z</time>
      </trkpt>
      <trkpt lat="44.22809" lon="5.85836">
        <ele>525</ele>
        <time>2019-08-09T06:22:37Z</time>
      </trkpt>
      <trkpt lat="44.22802" lon="5.85839">
        <ele>525</ele>
        <time>2019-08-09T06:22:38Z</time>
      </trkpt>
      <trkpt lat="44.22795" lon="5.85843">
        <ele>525</ele>
        <time>2019-08-09T06:22:39Z</time>
      </trkpt>
      <trkpt lat="44.22788" lon="5.85846">
        <ele>525</ele>
        <time>2019-08-09T06:22:40Z</time>
      </trkpt>
      <trkpt lat="44.22781" lon="5.85849">
        <ele>525</ele>
        <time>2019-08-09T06:22:41Z</time>
      </trkpt>
      <trkpt lat="44.22774" lon="5.85852">
        <ele>525</ele>
        <time>2019-08-09T06:22:42Z</time>
      </trkpt>
      <trkpt lat="44.22767" lon="5.85855">
        <ele>525</ele>
        <time>2019-08-09T06:22:43Z</time>
      </trkpt>
      <trkpt lat="44.2276" lon="5.85859">
        <ele>525</ele>
        <time>2019-08-09T06:22:44Z</time>
      </trkpt>
      <trkpt lat="44.22753" lon="5.85862">
        <ele>525</ele>
        <time>2019-08-09T06:22:45Z</time>
      </trkpt>
      <trkpt lat="44.22746" lon="5.85866">
        <ele>525</ele>
        <time>2019-08-09T06:22:46Z</time>
      </trkpt>
      <trkpt lat="44.22739" lon="5.85869">
        <ele>525</ele>
        <time>2019-08-09T06:22:47Z</time>
      </trkpt>
      <trkpt lat="44.22731" lon="5.85873">
        <ele>525</ele>
        <time>2019-08-09T06:22:48Z</time>
      </trkpt>
      <trkpt lat="44.22724" lon="5.85877">
        <ele>525</ele>
        <time>2019-08-09T06:22:49Z</time>
      </trkpt>
      <trkpt lat="44.22717" lon="5.8588">
        <ele>525</ele>
        <time>2019-08-09T06:22:50Z</time>
      </trkpt>
      <trkpt lat="44.2271" lon="5.85884">
        <ele>525</ele>
        <time>2019-08-09T06:22:51Z</time>
      </trkpt>
      <trkpt lat="44.22702" lon="5.85887">
        <ele>525</ele>
        <time>2019-08-09T06:22:52Z</time>
      </trkpt>
      <trkpt lat="44.22696" lon="5.85891">
        <ele>525</ele>
        <time>2019-08-09T06:22:53Z</time>
      </trkpt>
      <trkpt lat="44.22688" lon="5.85894">
        <ele>525</ele>
        <time>2019-08-09T06:22:54Z</time>
      </trkpt>
      <trkpt lat="44.22681" lon="5.85898">
        <ele>525</ele>
        <time>2019-08-09T06:22:55Z</time>
      </trkpt>
      <trkpt lat="44.22674" lon="5.85902">
        <ele>525</ele>
        <time>2019-08-09T06:22:56Z</time>
      </trkpt>
      <trkpt lat="44.22667" lon="5.85905">
        <ele>525</ele>
        <time>2019-08-09T06:22:58Z</time>
      </trkpt>
      <trkpt lat="44.22659" lon="5.85909">
        <ele>525</ele>
        <time>2019-08-09T06:22:58Z</time>
      </trkpt>
      <trkpt lat="44.22652" lon="5.85913">
        <ele>525</ele>
        <time>2019-08-09T06:22:59Z</time>
      </trkpt>
      <trkpt lat="44.22645" lon="5.85916">
        <ele>525</ele>
        <time>2019-08-09T06:23:00Z</time>
      </trkpt>
      <trkpt lat="44.22638" lon="5.8592">
        <ele>525</ele>
        <time>2019-08-09T06:23:01Z</time>
      </trkpt>
      <trkpt lat="44.2263" lon="5.85923">
        <ele>525</ele>
        <time>2019-08-09T06:23:02Z</time>
      </trkpt>
      <trkpt lat="44.22623" lon="5.85927">
        <ele>525</ele>
        <time>2019-08-09T06:23:03Z</time>
      </trkpt>
      <trkpt lat="44.22615" lon="5.85931">
        <ele>525</ele>
        <time>2019-08-09T06:23:04Z</time>
      </trkpt>
      <trkpt lat="44.22608" lon="5.85934">
        <ele>525</ele>
        <time>2019-08-09T06:23:05Z</time>
      </trkpt>
      <trkpt lat="44.22601" lon="5.85938">
        <ele>525</ele>
        <time>2019-08-09T06:23:06Z</time>
      </trkpt>
      <trkpt lat="44.22594" lon="5.85942">
        <ele>525</ele>
        <time>2019-08-09T06:23:07Z</time>
      </trkpt>
      <trkpt lat="44.22586" lon="5.85945">
        <ele>525</ele>
        <time>2019-08-09T06:23:08Z</time>
      </trkpt>
      <trkpt lat="44.22579" lon="5.85949">
        <ele>525</ele>
        <time>2019-08-09T06:23:09Z</time>
      </trkpt>
      <trkpt lat="44.22572" lon="5.85953">
        <ele>525</ele>
        <time>2019-08-09T06:23:10Z</time>
      </trkpt>
      <trkpt lat="44.22564" lon="5.85956">
        <ele>525</ele>
        <time>2019-08-09T06:23:11Z</time>
      </trkpt>
      <trkpt lat="44.22556" lon="5.8596">
        <ele>525</ele>
        <time>2019-08-09T06:23:12Z</time>
      </trkpt>
      <trkpt lat="44.22549" lon="5.85963">
        <ele>525</ele>
        <time>2019-08-09T06:23:13Z</time>
      </trkpt>
      <trkpt lat="44.22541" lon="5.85967">
        <ele>525</ele>
        <time>2019-08-09T06:23:14Z</time>
      </trkpt>
      <trkpt lat="44.22534" lon="5.85971">
        <ele>525</ele>
        <time>2019-08-09T06:23:15Z</time>
      </trkpt>
      <trkpt lat="44.22527" lon="5.85975">
        <ele>525</ele>
        <time>2019-08-09T06:23:16Z</time>
      </trkpt>
      <trkpt lat="44.22519" lon="5.85978">
        <ele>525</ele>
        <time>2019-08-09T06:23:17Z</time>
      </trkpt>
      <trkpt lat="44.22512" lon="5.85982">
        <ele>525</ele>
        <time>2019-08-09T06:23:18Z</time>
      </trkpt>
      <trkpt lat="44.22504" lon="5.85986">
        <ele>525</ele>
        <time>2019-08-09T06:23:19Z</time>
      </trkpt>
      <trkpt lat="44.22497" lon="5.85989">
        <ele>525</ele>
        <time>2019-08-09T06:23:20Z</time>
      </trkpt>
      <trkpt lat="44.2249" lon="5.85993">
        <ele>525</ele>
        <time>2019-08-09T06:23:21Z</time>
      </trkpt>
      <trkpt lat="44.22482" lon="5.85997">
        <ele>525</ele>
        <time>2019-08-09T06:23:22Z</time>
      </trkpt>
      <trkpt lat="44.22474" lon="5.86">
        <ele>525</ele>
        <time>2019-08-09T06:23:23Z</time>
      </trkpt>
      <trkpt lat="44.22467" lon="5.86004">
        <ele>525</ele>
        <time>2019-08-09T06:23:24Z</time>
      </trkpt>
      <trkpt lat="44.22459" lon="5.86008">
        <ele>525</ele>
        <time>2019-08-09T06:23:25Z</time>
      </trkpt>
      <trkpt lat="44.22452" lon="5.86012">
        <ele>525</ele>
        <time>2019-08-09T06:23:26Z</time>
      </trkpt>
      <trkpt lat="44.22445" lon="5.86016">
        <ele>525</ele>
        <time>2019-08-09T06:23:27Z</time>
      </trkpt>
      <trkpt lat="44.22437" lon="5.8602">
        <ele>525</ele>
        <time>2019-08-09T06:23:28Z</time>
      </trkpt>
      <trkpt lat="44.22429" lon="5.86024">
        <ele>525</ele>
        <time>2019-08-09T06:23:29Z</time>
      </trkpt>
      <trkpt lat="44.22421" lon="5.86027">
        <ele>525</ele>
        <time>2019-08-09T06:23:30Z</time>
      </trkpt>
      <trkpt lat="44.22413" lon="5.8603">
        <ele>524</ele>
        <time>2019-08-09T06:23:31Z</time>
      </trkpt>
      <trkpt lat="44.22405" lon="5.86034">
        <ele>524</ele>
        <time>2019-08-09T06:23:32Z</time>
      </trkpt>
      <trkpt lat="44.22397" lon="5.86037">
        <ele>524</ele>
        <time>2019-08-09T06:23:33Z</time>
      </trkpt>
      <trkpt lat="44.2239" lon="5.86041">
        <ele>524</ele>
        <time>2019-08-09T06:23:34Z</time>
      </trkpt>
      <trkpt lat="44.22382" lon="5.86045">
        <ele>523</ele>
        <time>2019-08-09T06:23:35Z</time>
      </trkpt>
      <trkpt lat="44.22374" lon="5.86048">
        <ele>523</ele>
        <time>2019-08-09T06:23:36Z</time>
      </trkpt>
      <trkpt lat="44.22367" lon="5.86052">
        <ele>522</ele>
        <time>2019-08-09T06:23:37Z</time>
      </trkpt>
      <trkpt lat="44.22359" lon="5.86055">
        <ele>522</ele>
        <time>2019-08-09T06:23:38Z</time>
      </trkpt>
      <trkpt lat="44.22352" lon="5.86058">
        <ele>522</ele>
        <time>2019-08-09T06:23:39Z</time>
      </trkpt>
      <trkpt lat="44.22345" lon="5.86062">
        <ele>522</ele>
        <time>2019-08-09T06:23:40Z</time>
      </trkpt>
      <trkpt lat="44.22337" lon="5.86065">
        <ele>521</ele>
        <time>2019-08-09T06:23:41Z</time>
      </trkpt>
      <trkpt lat="44.22329" lon="5.86069">
        <ele>521</ele>
        <time>2019-08-09T06:23:42Z</time>
      </trkpt>
      <trkpt lat="44.22322" lon="5.86073">
        <ele>521</ele>
        <time>2019-08-09T06:23:43Z</time>
      </trkpt>
      <trkpt lat="44.22315" lon="5.86076">
        <ele>521</ele>
        <time>2019-08-09T06:23:44Z</time>
      </trkpt>
      <trkpt lat="44.22308" lon="5.8608">
        <ele>521</ele>
        <time>2019-08-09T06:23:45Z</time>
      </trkpt>
      <trkpt lat="44.223" lon="5.86084">
        <ele>521</ele>
        <time>2019-08-09T06:23:46Z</time>
      </trkpt>
      <trkpt lat="44.22293" lon="5.86088">
        <ele>521</ele>
        <time>2019-08-09T06:23:47Z</time>
      </trkpt>
      <trkpt lat="44.22286" lon="5.86092">
        <ele>521</ele>
        <time>2019-08-09T06:23:48Z</time>
      </trkpt>
      <trkpt lat="44.22279" lon="5.86095">
        <ele>521</ele>
        <time>2019-08-09T06:23:49Z</time>
      </trkpt>
      <trkpt lat="44.22271" lon="5.86099">
        <ele>521</ele>
        <time>2019-08-09T06:23:50Z</time>
      </trkpt>
      <trkpt lat="44.22264" lon="5.86102">
        <ele>521</ele>
        <time>2019-08-09T06:23:51Z</time>
      </trkpt>
      <trkpt lat="44.22256" lon="5.86106">
        <ele>521</ele>
        <time>2019-08-09T06:23:52Z</time>
      </trkpt>
      <trkpt lat="44.22249" lon="5.8611">
        <ele>521</ele>
        <time>2019-08-09T06:23:53Z</time>
      </trkpt>
      <trkpt lat="44.22242" lon="5.86114">
        <ele>521</ele>
        <time>2019-08-09T06:23:54Z</time>
      </trkpt>
      <trkpt lat="44.22234" lon="5.86117">
        <ele>521</ele>
        <time>2019-08-09T06:23:55Z</time>
      </trkpt>
      <trkpt lat="44.22227" lon="5.86121">
        <ele>521</ele>
        <time>2019-08-09T06:23:56Z</time>
      </trkpt>
      <trkpt lat="44.2222" lon="5.86125">
        <ele>521</ele>
        <time>2019-08-09T06:23:57Z</time>
      </trkpt>
      <trkpt lat="44.22212" lon="5.86128">
        <ele>521</ele>
        <time>2019-08-09T06:23:58Z</time>
      </trkpt>
      <trkpt lat="44.22205" lon="5.86132">
        <ele>521</ele>
        <time>2019-08-09T06:23:59Z</time>
      </trkpt>
      <trkpt lat="44.22197" lon="5.86135">
        <ele>521</ele>
        <time>2019-08-09T06:24:00Z</time>
      </trkpt>
      <trkpt lat="44.2219" lon="5.86139">
        <ele>521</ele>
        <time>2019-08-09T06:24:01Z</time>
      </trkpt>
      <trkpt lat="44.22183" lon="5.86143">
        <ele>521</ele>
        <time>2019-08-09T06:24:02Z</time>
      </trkpt>
      <trkpt lat="44.22175" lon="5.86147">
        <ele>521</ele>
        <time>2019-08-09T06:24:03Z</time>
      </trkpt>
      <trkpt lat="44.22168" lon="5.8615">
        <ele>521</ele>
        <time>2019-08-09T06:24:04Z</time>
      </trkpt>
      <trkpt lat="44.2216" lon="5.86153">
        <ele>521</ele>
        <time>2019-08-09T06:24:05Z</time>
      </trkpt>
      <trkpt lat="44.22153" lon="5.86156">
        <ele>521</ele>
        <time>2019-08-09T06:24:06Z</time>
      </trkpt>
      <trkpt lat="44.22145" lon="5.86159">
        <ele>521</ele>
        <time>2019-08-09T06:24:07Z</time>
      </trkpt>
      <trkpt lat="44.22137" lon="5.86163">
        <ele>521</ele>
        <time>2019-08-09T06:24:08Z</time>
      </trkpt>
      <trkpt lat="44.2213" lon="5.86166">
        <ele>521</ele>
        <time>2019-08-09T06:24:09Z</time>
      </trkpt>
      <trkpt lat="44.22123" lon="5.86171">
        <ele>521</ele>
        <time>2019-08-09T06:24:10Z</time>
      </trkpt>
      <trkpt lat="44.22115" lon="5.86175">
        <ele>521</ele>
        <time>2019-08-09T06:24:11Z</time>
      </trkpt>
      <trkpt lat="44.22108" lon="5.8618">
        <ele>521</ele>
        <time>2019-08-09T06:24:12Z</time>
      </trkpt>
      <trkpt lat="44.22102" lon="5.86186">
        <ele>521</ele>
        <time>2019-08-09T06:24:13Z</time>
      </trkpt>
      <trkpt lat="44.22095" lon="5.86192">
        <ele>521</ele>
        <time>2019-08-09T06:24:14Z</time>
      </trkpt>
      <trkpt lat="44.22088" lon="5.86199">
        <ele>521</ele>
        <time>2019-08-09T06:24:15Z</time>
      </trkpt>
      <trkpt lat="44.22082" lon="5.86206">
        <ele>521</ele>
        <time>2019-08-09T06:24:16Z</time>
      </trkpt>
      <trkpt lat="44.22076" lon="5.86214">
        <ele>521</ele>
        <time>2019-08-09T06:24:17Z</time>
      </trkpt>
      <trkpt lat="44.2207" lon="5.86222">
        <ele>521</ele>
        <time>2019-08-09T06:24:18Z</time>
      </trkpt>
      <trkpt lat="44.22065" lon="5.8623">
        <ele>521</ele>
        <time>2019-08-09T06:24:19Z</time>
      </trkpt>
      <trkpt lat="44.22059" lon="5.86239">
        <ele>521</ele>
        <time>2019-08-09T06:24:20Z</time>
      </trkpt>
      <trkpt lat="44.22054" lon="5.86247">
        <ele>521</ele>
        <time>2019-08-09T06:24:21Z</time>
      </trkpt>
      <trkpt lat="44.22048" lon="5.86256">
        <ele>521</ele>
        <time>2019-08-09T06:24:22Z</time>
      </trkpt>
      <trkpt lat="44.22042" lon="5.86264">
        <ele>521</ele>
        <time>2019-08-09T06:24:23Z</time>
      </trkpt>
      <trkpt lat="44.22036" lon="5.86273">
        <ele>521</ele>
        <time>2019-08-09T06:24:24Z</time>
      </trkpt>
      <trkpt lat="44.22031" lon="5.86281">
        <ele>520</ele>
        <time>2019-08-09T06:24:25Z</time>
      </trkpt>
      <trkpt lat="44.22025" lon="5.86289">
        <ele>520</ele>
        <time>2019-08-09T06:24:26Z</time>
      </trkpt>
      <trkpt lat="44.22018" lon="5.86297">
        <ele>520</ele>
        <time>2019-08-09T06:24:27Z</time>
      </trkpt>
      <trkpt lat="44.22012" lon="5.86305">
        <ele>520</ele>
        <time>2019-08-09T06:24:28Z</time>
      </trkpt>
      <trkpt lat="44.22007" lon="5.86313">
        <ele>520</ele>
        <time>2019-08-09T06:24:29Z</time>
      </trkpt>
      <trkpt lat="44.22001" lon="5.86321">
        <ele>520</ele>
        <time>2019-08-09T06:24:30Z</time>
      </trkpt>
      <trkpt lat="44.21994" lon="5.8633">
        <ele>520</ele>
        <time>2019-08-09T06:24:31Z</time>
      </trkpt>
      <trkpt lat="44.21988" lon="5.86338">
        <ele>520</ele>
        <time>2019-08-09T06:24:32Z</time>
      </trkpt>
      <trkpt lat="44.21982" lon="5.86346">
        <ele>519</ele>
        <time>2019-08-09T06:24:33Z</time>
      </trkpt>
      <trkpt lat="44.21976" lon="5.86354">
        <ele>519</ele>
        <time>2019-08-09T06:24:34Z</time>
      </trkpt>
      <trkpt lat="44.2197" lon="5.86362">
        <ele>519</ele>
        <time>2019-08-09T06:24:35Z</time>
      </trkpt>
      <trkpt lat="44.21964" lon="5.86371">
        <ele>519</ele>
        <time>2019-08-09T06:24:36Z</time>
      </trkpt>
      <trkpt lat="44.21958" lon="5.86379">
        <ele>519</ele>
        <time>2019-08-09T06:24:37Z</time>
      </trkpt>
      <trkpt lat="44.21952" lon="5.86387">
        <ele>519</ele>
        <time>2019-08-09T06:24:38Z</time>
      </trkpt>
      <trkpt lat="44.21946" lon="5.86395">
        <ele>518</ele>
        <time>2019-08-09T06:24:39Z</time>
      </trkpt>
      <trkpt lat="44.21939" lon="5.86404">
        <ele>518</ele>
        <time>2019-08-09T06:24:40Z</time>
      </trkpt>
      <trkpt lat="44.21934" lon="5.86412">
        <ele>518</ele>
        <time>2019-08-09T06:24:41Z</time>
      </trkpt>
      <trkpt lat="44.21928" lon="5.8642">
        <ele>518</ele>
        <time>2019-08-09T06:24:42Z</time>
      </trkpt>
      <trkpt lat="44.21922" lon="5.86428">
        <ele>518</ele>
        <time>2019-08-09T06:24:43Z</time>
      </trkpt>
      <trkpt lat="44.21915" lon="5.86437">
        <ele>517</ele>
        <time>2019-08-09T06:24:44Z</time>
      </trkpt>
      <trkpt lat="44.21909" lon="5.86445">
        <ele>517</ele>
        <time>2019-08-09T06:24:45Z</time>
      </trkpt>
      <trkpt lat="44.21903" lon="5.86453">
        <ele>517</ele>
        <time>2019-08-09T06:24:46Z</time>
      </trkpt>
      <trkpt lat="44.21898" lon="5.86461">
        <ele>517</ele>
        <time>2019-08-09T06:24:47Z</time>
      </trkpt>
      <trkpt lat="44.21891" lon="5.86469">
        <ele>517</ele>
        <time>2019-08-09T06:24:48Z</time>
      </trkpt>
      <trkpt lat="44.21885" lon="5.86478">
        <ele>517</ele>
        <time>2019-08-09T06:24:49Z</time>
      </trkpt>
      <trkpt lat="44.21879" lon="5.86486">
        <ele>516</ele>
        <time>2019-08-09T06:24:50Z</time>
      </trkpt>
      <trkpt lat="44.21873" lon="5.86494">
        <ele>516</ele>
        <time>2019-08-09T06:24:51Z</time>
      </trkpt>
      <trkpt lat="44.21867" lon="5.86503">
        <ele>516</ele>
        <time>2019-08-09T06:24:52Z</time>
      </trkpt>
      <trkpt lat="44.2186" lon="5.86511">
        <ele>516</ele>
        <time>2019-08-09T06:24:53Z</time>
      </trkpt>
      <trkpt lat="44.21854" lon="5.8652">
        <ele>515</ele>
        <time>2019-08-09T06:24:54Z</time>
      </trkpt>
      <trkpt lat="44.21847" lon="5.86529">
        <ele>515</ele>
        <time>2019-08-09T06:24:55Z</time>
      </trkpt>
      <trkpt lat="44.21841" lon="5.86538">
        <ele>515</ele>
        <time>2019-08-09T06:24:56Z</time>
      </trkpt>
      <trkpt lat="44.21833" lon="5.86547">
        <ele>514</ele>
        <time>2019-08-09T06:24:57Z</time>
      </trkpt>
      <trkpt lat="44.21827" lon="5.86556">
        <ele>514</ele>
        <time>2019-08-09T06:24:58Z</time>
      </trkpt>
      <trkpt lat="44.21819" lon="5.86566">
        <ele>513</ele>
        <time>2019-08-09T06:24:59Z</time>
      </trkpt>
      <trkpt lat="44.21812" lon="5.86575">
        <ele>513</ele>
        <time>2019-08-09T06:25:00Z</time>
      </trkpt>
      <trkpt lat="44.21805" lon="5.86585">
        <ele>512</ele>
        <time>2019-08-09T06:25:01Z</time>
      </trkpt>
      <trkpt lat="44.21798" lon="5.86595">
        <ele>512</ele>
        <time>2019-08-09T06:25:02Z</time>
      </trkpt>
      <trkpt lat="44.21791" lon="5.86605">
        <ele>511</ele>
        <time>2019-08-09T06:25:03Z</time>
      </trkpt>
      <trkpt lat="44.21783" lon="5.86616">
        <ele>510</ele>
        <time>2019-08-09T06:25:04Z</time>
      </trkpt>
      <trkpt lat="44.21776" lon="5.86626">
        <ele>510</ele>
        <time>2019-08-09T06:25:05Z</time>
      </trkpt>
      <trkpt lat="44.21769" lon="5.86637">
        <ele>510</ele>
        <time>2019-08-09T06:25:06Z</time>
      </trkpt>
      <trkpt lat="44.21761" lon="5.86647">
        <ele>509</ele>
        <time>2019-08-09T06:25:07Z</time>
      </trkpt>
      <trkpt lat="44.21754" lon="5.86658">
        <ele>509</ele>
        <time>2019-08-09T06:25:08Z</time>
      </trkpt>
      <trkpt lat="44.21748" lon="5.8667">
        <ele>508</ele>
        <time>2019-08-09T06:25:09Z</time>
      </trkpt>
      <trkpt lat="44.21741" lon="5.86682">
        <ele>508</ele>
        <time>2019-08-09T06:25:10Z</time>
      </trkpt>
      <trkpt lat="44.21735" lon="5.86693">
        <ele>507</ele>
        <time>2019-08-09T06:25:11Z</time>
      </trkpt>
      <trkpt lat="44.21728" lon="5.86705">
        <ele>507</ele>
        <time>2019-08-09T06:25:12Z</time>
      </trkpt>
      <trkpt lat="44.21722" lon="5.86718">
        <ele>506</ele>
        <time>2019-08-09T06:25:13Z</time>
      </trkpt>
      <trkpt lat="44.21716" lon="5.8673">
        <ele>506</ele>
        <time>2019-08-09T06:25:14Z</time>
      </trkpt>
      <trkpt lat="44.21709" lon="5.86742">
        <ele>505</ele>
        <time>2019-08-09T06:25:15Z</time>
      </trkpt>
      <trkpt lat="44.21703" lon="5.86754">
        <ele>504</ele>
        <time>2019-08-09T06:25:16Z</time>
      </trkpt>
      <trkpt lat="44.21697" lon="5.86766">
        <ele>504</ele>
        <time>2019-08-09T06:25:17Z</time>
      </trkpt>
      <trkpt lat="44.21691" lon="5.86778">
        <ele>504</ele>
        <time>2019-08-09T06:25:18Z</time>
      </trkpt>
      <trkpt lat="44.21684" lon="5.86789">
        <ele>503</ele>
        <time>2019-08-09T06:25:19Z</time>
      </trkpt>
      <trkpt lat="44.21678" lon="5.868">
        <ele>503</ele>
        <time>2019-08-09T06:25:20Z</time>
      </trkpt>
      <trkpt lat="44.21671" lon="5.86811">
        <ele>503</ele>
        <time>2019-08-09T06:25:21Z</time>
      </trkpt>
      <trkpt lat="44.21664" lon="5.86822">
        <ele>502</ele>
        <time>2019-08-09T06:25:22Z</time>
      </trkpt>
      <trkpt lat="44.21657" lon="5.86832">
        <ele>502</ele>
        <time>2019-08-09T06:25:23Z</time>
      </trkpt>
      <trkpt lat="44.2165" lon="5.86841">
        <ele>502</ele>
        <time>2019-08-09T06:25:24Z</time>
      </trkpt>
      <trkpt lat="44.21643" lon="5.86851">
        <ele>501</ele>
        <time>2019-08-09T06:25:25Z</time>
      </trkpt>
      <trkpt lat="44.21635" lon="5.8686">
        <ele>501</ele>
        <time>2019-08-09T06:25:26Z</time>
      </trkpt>
      <trkpt lat="44.21628" lon="5.86869">
        <ele>500</ele>
        <time>2019-08-09T06:25:27Z</time>
      </trkpt>
      <trkpt lat="44.2162" lon="5.86878">
        <ele>500</ele>
        <time>2019-08-09T06:25:28Z</time>
      </trkpt>
      <trkpt lat="44.21613" lon="5.86886">
        <ele>500</ele>
        <time>2019-08-09T06:25:29Z</time>
      </trkpt>
      <trkpt lat="44.21605" lon="5.86895">
        <ele>499</ele>
        <time>2019-08-09T06:25:30Z</time>
      </trkpt>
      <trkpt lat="44.21598" lon="5.86903">
        <ele>499</ele>
        <time>2019-08-09T06:25:31Z</time>
      </trkpt>
      <trkpt lat="44.2159" lon="5.86912">
        <ele>499</ele>
        <time>2019-08-09T06:25:32Z</time>
      </trkpt>
      <trkpt lat="44.21583" lon="5.8692">
        <ele>498</ele>
        <time>2019-08-09T06:25:33Z</time>
      </trkpt>
      <trkpt lat="44.21576" lon="5.86928">
        <ele>498</ele>
        <time>2019-08-09T06:25:34Z</time>
      </trkpt>
      <trkpt lat="44.21568" lon="5.86936">
        <ele>498</ele>
        <time>2019-08-09T06:25:35Z</time>
      </trkpt>
      <trkpt lat="44.21561" lon="5.86944">
        <ele>498</ele>
        <time>2019-08-09T06:25:36Z</time>
      </trkpt>
      <trkpt lat="44.21554" lon="5.86952">
        <ele>498</ele>
        <time>2019-08-09T06:25:37Z</time>
      </trkpt>
      <trkpt lat="44.21547" lon="5.86961">
        <ele>498</ele>
        <time>2019-08-09T06:25:38Z</time>
      </trkpt>
      <trkpt lat="44.2154" lon="5.86969">
        <ele>498</ele>
        <time>2019-08-09T06:25:39Z</time>
      </trkpt>
      <trkpt lat="44.21533" lon="5.86976">
        <ele>497</ele>
        <time>2019-08-09T06:25:40Z</time>
      </trkpt>
      <trkpt lat="44.21526" lon="5.86984">
        <ele>497</ele>
        <time>2019-08-09T06:25:41Z</time>
      </trkpt>
      <trkpt lat="44.21519" lon="5.86992">
        <ele>497</ele>
        <time>2019-08-09T06:25:42Z</time>
      </trkpt>
      <trkpt lat="44.21512" lon="5.87">
        <ele>497</ele>
        <time>2019-08-09T06:25:43Z</time>
      </trkpt>
      <trkpt lat="44.21506" lon="5.87007">
        <ele>497</ele>
        <time>2019-08-09T06:25:44Z</time>
      </trkpt>
      <trkpt lat="44.21499" lon="5.87015">
        <ele>497</ele>
        <time>2019-08-09T06:25:45Z</time>
      </trkpt>
      <trkpt lat="44.21492" lon="5.87022">
        <ele>497</ele>
        <time>2019-08-09T06:25:46Z</time>
      </trkpt>
      <trkpt lat="44.21486" lon="5.8703">
        <ele>497</ele>
        <time>2019-08-09T06:25:47Z</time>
      </trkpt>
      <trkpt lat="44.21479" lon="5.87037">
        <ele>497</ele>
        <time>2019-08-09T06:25:48Z</time>
      </trkpt>
      <trkpt lat="44.21473" lon="5.87045">
        <ele>497</ele>
        <time>2019-08-09T06:25:49Z</time>
      </trkpt>
      <trkpt lat="44.21466" lon="5.87052">
        <ele>497</ele>
        <time>2019-08-09T06:25:50Z</time>
      </trkpt>
      <trkpt lat="44.2146" lon="5.87059">
        <ele>497</ele>
        <time>2019-08-09T06:25:51Z</time>
      </trkpt>
      <trkpt lat="44.21453" lon="5.87067">
        <ele>497</ele>
        <time>2019-08-09T06:25:52Z</time>
      </trkpt>
      <trkpt lat="44.21447" lon="5.87074">
        <ele>496</ele>
        <time>2019-08-09T06:25:53Z</time>
      </trkpt>
      <trkpt lat="44.2144" lon="5.87081">
        <ele>496</ele>
        <time>2019-08-09T06:25:54Z</time>
      </trkpt>
      <trkpt lat="44.21433" lon="5.87089">
        <ele>496</ele>
        <time>2019-08-09T06:25:55Z</time>
      </trkpt>
      <trkpt lat="44.21427" lon="5.87096">
        <ele>496</ele>
        <time>2019-08-09T06:25:56Z</time>
      </trkpt>
      <trkpt lat="44.2142" lon="5.87104">
        <ele>496</ele>
        <time>2019-08-09T06:25:58Z</time>
      </trkpt>
      <trkpt lat="44.21413" lon="5.87112">
        <ele>495</ele>
        <time>2019-08-09T06:25:58Z</time>
      </trkpt>
      <trkpt lat="44.21406" lon="5.87119">
        <ele>495</ele>
        <time>2019-08-09T06:25:59Z</time>
      </trkpt>
      <trkpt lat="44.21399" lon="5.87127">
        <ele>495</ele>
        <time>2019-08-09T06:26:00Z</time>
      </trkpt>
      <trkpt lat="44.21392" lon="5.87135">
        <ele>495</ele>
        <time>2019-08-09T06:26:01Z</time>
      </trkpt>
      <trkpt lat="44.21386" lon="5.87143">
        <ele>494</ele>
        <time>2019-08-09T06:26:02Z</time>
      </trkpt>
      <trkpt lat="44.21379" lon="5.87151">
        <ele>494</ele>
        <time>2019-08-09T06:26:03Z</time>
      </trkpt>
      <trkpt lat="44.21372" lon="5.87159">
        <ele>494</ele>
        <time>2019-08-09T06:26:04Z</time>
      </trkpt>
      <trkpt lat="44.21365" lon="5.87167">
        <ele>494</ele>
        <time>2019-08-09T06:26:05Z</time>
      </trkpt>
      <trkpt lat="44.21358" lon="5.87175">
        <ele>493</ele>
        <time>2019-08-09T06:26:06Z</time>
      </trkpt>
      <trkpt lat="44.21352" lon="5.87182">
        <ele>493</ele>
        <time>2019-08-09T06:26:07Z</time>
      </trkpt>
      <trkpt lat="44.21345" lon="5.8719">
        <ele>493</ele>
        <time>2019-08-09T06:26:08Z</time>
      </trkpt>
      <trkpt lat="44.21339" lon="5.87197">
        <ele>493</ele>
        <time>2019-08-09T06:26:09Z</time>
      </trkpt>
      <trkpt lat="44.21332" lon="5.87205">
        <ele>493</ele>
        <time>2019-08-09T06:26:10Z</time>
      </trkpt>
      <trkpt lat="44.21325" lon="5.87212">
        <ele>493</ele>
        <time>2019-08-09T06:26:11Z</time>
      </trkpt>
      <trkpt lat="44.21319" lon="5.87219">
        <ele>492</ele>
        <time>2019-08-09T06:26:12Z</time>
      </trkpt>
      <trkpt lat="44.21312" lon="5.87227">
        <ele>492</ele>
        <time>2019-08-09T06:26:13Z</time>
      </trkpt>
      <trkpt lat="44.21306" lon="5.87234">
        <ele>492</ele>
        <time>2019-08-09T06:26:14Z</time>
      </trkpt>
      <trkpt lat="44.213" lon="5.87241">
        <ele>492</ele>
        <time>2019-08-09T06:26:15Z</time>
      </trkpt>
      <trkpt lat="44.21293" lon="5.87249">
        <ele>492</ele>
        <time>2019-08-09T06:26:16Z</time>
      </trkpt>
      <trkpt lat="44.21287" lon="5.87256">
        <ele>492</ele>
        <time>2019-08-09T06:26:17Z</time>
      </trkpt>
      <trkpt lat="44.2128" lon="5.87263">
        <ele>492</ele>
        <time>2019-08-09T06:26:18Z</time>
      </trkpt>
      <trkpt lat="44.21274" lon="5.8727">
        <ele>492</ele>
        <time>2019-08-09T06:26:19Z</time>
      </trkpt>
      <trkpt lat="44.21267" lon="5.87277">
        <ele>492</ele>
        <time>2019-08-09T06:26:20Z</time>
      </trkpt>
      <trkpt lat="44.21261" lon="5.87284">
        <ele>492</ele>
        <time>2019-08-09T06:26:21Z</time>
      </trkpt>
      <trkpt lat="44.21255" lon="5.87291">
        <ele>492</ele>
        <time>2019-08-09T06:26:22Z</time>
      </trkpt>
      <trkpt lat="44.21249" lon="5.87299">
        <ele>492</ele>
        <time>2019-08-09T06:26:23Z</time>
      </trkpt>
      <trkpt lat="44.21242" lon="5.87306">
        <ele>491</ele>
        <time>2019-08-09T06:26:24Z</time>
      </trkpt>
      <trkpt lat="44.21236" lon="5.87313">
        <ele>491</ele>
        <time>2019-08-09T06:26:25Z</time>
      </trkpt>
      <trkpt lat="44.2123" lon="5.87321">
        <ele>491</ele>
        <time>2019-08-09T06:26:26Z</time>
      </trkpt>
      <trkpt lat="44.21223" lon="5.87328">
        <ele>491</ele>
        <time>2019-08-09T06:26:27Z</time>
      </trkpt>
      <trkpt lat="44.21217" lon="5.87335">
        <ele>491</ele>
        <time>2019-08-09T06:26:28Z</time>
      </trkpt>
      <trkpt lat="44.21211" lon="5.87343">
        <ele>491</ele>
        <time>2019-08-09T06:26:29Z</time>
      </trkpt>
      <trkpt lat="44.21204" lon="5.8735">
        <ele>491</ele>
        <time>2019-08-09T06:26:30Z</time>
      </trkpt>
      <trkpt lat="44.21198" lon="5.87357">
        <ele>491</ele>
        <time>2019-08-09T06:26:31Z</time>
      </trkpt>
      <trkpt lat="44.21192" lon="5.87364">
        <ele>491</ele>
        <time>2019-08-09T06:26:32Z</time>
      </trkpt>
      <trkpt lat="44.21186" lon="5.87371">
        <ele>491</ele>
        <time>2019-08-09T06:26:33Z</time>
      </trkpt>
      <trkpt lat="44.21179" lon="5.87379">
        <ele>491</ele>
        <time>2019-08-09T06:26:34Z</time>
      </trkpt>
      <trkpt lat="44.21173" lon="5.87386">
        <ele>491</ele>
        <time>2019-08-09T06:26:35Z</time>
      </trkpt>
      <trkpt lat="44.21167" lon="5.87393">
        <ele>491</ele>
        <time>2019-08-09T06:26:36Z</time>
      </trkpt>
      <trkpt lat="44.21161" lon="5.874">
        <ele>491</ele>
        <time>2019-08-09T06:26:37Z</time>
      </trkpt>
      <trkpt lat="44.21154" lon="5.87406">
        <ele>491</ele>
        <time>2019-08-09T06:26:38Z</time>
      </trkpt>
      <trkpt lat="44.21148" lon="5.87413">
        <ele>491</ele>
        <time>2019-08-09T06:26:39Z</time>
      </trkpt>
      <trkpt lat="44.21143" lon="5.8742">
        <ele>491</ele>
        <time>2019-08-09T06:26:40Z</time>
      </trkpt>
      <trkpt lat="44.21136" lon="5.87427">
        <ele>491</ele>
        <time>2019-08-09T06:26:41Z</time>
      </trkpt>
      <trkpt lat="44.21131" lon="5.87434">
        <ele>491</ele>
        <time>2019-08-09T06:26:42Z</time>
      </trkpt>
      <trkpt lat="44.21125" lon="5.8744">
        <ele>491</ele>
        <time>2019-08-09T06:26:43Z</time>
      </trkpt>
      <trkpt lat="44.21119" lon="5.87447">
        <ele>491</ele>
        <time>2019-08-09T06:26:44Z</time>
      </trkpt>
      <trkpt lat="44.21113" lon="5.87454">
        <ele>491</ele>
        <time>2019-08-09T06:26:45Z</time>
      </trkpt>
      <trkpt lat="44.21108" lon="5.8746">
        <ele>491</ele>
        <time>2019-08-09T06:26:46Z</time>
      </trkpt>
      <trkpt lat="44.21102" lon="5.87466">
        <ele>491</ele>
        <time>2019-08-09T06:26:47Z</time>
      </trkpt>
      <trkpt lat="44.21096" lon="5.87473">
        <ele>491</ele>
        <time>2019-08-09T06:26:48Z</time>
      </trkpt>
      <trkpt lat="44.2109" lon="5.87479">
        <ele>491</ele>
        <time>2019-08-09T06:26:49Z</time>
      </trkpt>
      <trkpt lat="44.21085" lon="5.87486">
        <ele>491</ele>
        <time>2019-08-09T06:26:50Z</time>
      </trkpt>
      <trkpt lat="44.21079" lon="5.87493">
        <ele>491</ele>
        <time>2019-08-09T06:26:51Z</time>
      </trkpt>
      <trkpt lat="44.21073" lon="5.87499">
        <ele>491</ele>
        <time>2019-08-09T06:26:52Z</time>
      </trkpt>
      <trkpt lat="44.21067" lon="5.87505">
        <ele>491</ele>
        <time>2019-08-09T06:26:53Z</time>
      </trkpt>
      <trkpt lat="44.21061" lon="5.87512">
        <ele>491</ele>
        <time>2019-08-09T06:26:54Z</time>
      </trkpt>
      <trkpt lat="44.21056" lon="5.87518">
        <ele>491</ele>
        <time>2019-08-09T06:26:55Z</time>
      </trkpt>
      <trkpt lat="44.2105" lon="5.87525">
        <ele>491</ele>
        <time>2019-08-09T06:26:56Z</time>
      </trkpt>
      <trkpt lat="44.21044" lon="5.87531">
        <ele>491</ele>
        <time>2019-08-09T06:26:57Z</time>
      </trkpt>
      <trkpt lat="44.21039" lon="5.87537">
        <ele>491</ele>
        <time>2019-08-09T06:26:58Z</time>
      </trkpt>
      <trkpt lat="44.21033" lon="5.87544">
        <ele>491</ele>
        <time>2019-08-09T06:26:59Z</time>
      </trkpt>
      <trkpt lat="44.21027" lon="5.8755">
        <ele>491</ele>
        <time>2019-08-09T06:27:00Z</time>
      </trkpt>
      <trkpt lat="44.21022" lon="5.87557">
        <ele>491</ele>
        <time>2019-08-09T06:27:01Z</time>
      </trkpt>
      <trkpt lat="44.21016" lon="5.87564">
        <ele>491</ele>
        <time>2019-08-09T06:27:02Z</time>
      </trkpt>
      <trkpt lat="44.21011" lon="5.8757">
        <ele>491</ele>
        <time>2019-08-09T06:27:03Z</time>
      </trkpt>
      <trkpt lat="44.21005" lon="5.87576">
        <ele>491</ele>
        <time>2019-08-09T06:27:04Z</time>
      </trkpt>
      <trkpt lat="44.20999" lon="5.87583">
        <ele>491</ele>
        <time>2019-08-09T06:27:05Z</time>
      </trkpt>
      <trkpt lat="44.20993" lon="5.87589">
        <ele>491</ele>
        <time>2019-08-09T06:27:06Z</time>
      </trkpt>
      <trkpt lat="44.20988" lon="5.87596">
        <ele>491</ele>
        <time>2019-08-09T06:27:07Z</time>
      </trkpt>
      <trkpt lat="44.20982" lon="5.87602">
        <ele>491</ele>
        <time>2019-08-09T06:27:08Z</time>
      </trkpt>
      <trkpt lat="44.20976" lon="5.87609">
        <ele>491</ele>
        <time>2019-08-09T06:27:09Z</time>
      </trkpt>
      <trkpt lat="44.20971" lon="5.87615">
        <ele>491</ele>
        <time>2019-08-09T06:27:10Z</time>
      </trkpt>
      <trkpt lat="44.20965" lon="5.87622">
        <ele>491</ele>
        <time>2019-08-09T06:27:11Z</time>
      </trkpt>
      <trkpt lat="44.20959" lon="5.87629">
        <ele>491</ele>
        <time>2019-08-09T06:27:12Z</time>
      </trkpt>
      <trkpt lat="44.20953" lon="5.87636">
        <ele>491</ele>
        <time>2019-08-09T06:27:13Z</time>
      </trkpt>
      <trkpt lat="44.20947" lon="5.87642">
        <ele>491</ele>
        <time>2019-08-09T06:27:14Z</time>
      </trkpt>
      <trkpt lat="44.20941" lon="5.87649">
        <ele>491</ele>
        <time>2019-08-09T06:27:15Z</time>
      </trkpt>
      <trkpt lat="44.20935" lon="5.87656">
        <ele>491</ele>
        <time>2019-08-09T06:27:16Z</time>
      </trkpt>
      <trkpt lat="44.20929" lon="5.87663">
        <ele>491</ele>
        <time>2019-08-09T06:27:17Z</time>
      </trkpt>
      <trkpt lat="44.20924" lon="5.87669">
        <ele>491</ele>
        <time>2019-08-09T06:27:18Z</time>
      </trkpt>
      <trkpt lat="44.20918" lon="5.87676">
        <ele>491</ele>
        <time>2019-08-09T06:27:19Z</time>
      </trkpt>
      <trkpt lat="44.20912" lon="5.87683">
        <ele>491</ele>
        <time>2019-08-09T06:27:20Z</time>
      </trkpt>
      <trkpt lat="44.20907" lon="5.8769">
        <ele>491</ele>
        <time>2019-08-09T06:27:21Z</time>
      </trkpt>
      <trkpt lat="44.20901" lon="5.87697">
        <ele>491</ele>
        <time>2019-08-09T06:27:22Z</time>
      </trkpt>
      <trkpt lat="44.20896" lon="5.87705">
        <ele>491</ele>
        <time>2019-08-09T06:27:23Z</time>
      </trkpt>
      <trkpt lat="44.20891" lon="5.87712">
        <ele>491</ele>
        <time>2019-08-09T06:27:24Z</time>
      </trkpt>
      <trkpt lat="44.20886" lon="5.8772">
        <ele>491</ele>
        <time>2019-08-09T06:27:25Z</time>
      </trkpt>
      <trkpt lat="44.20881" lon="5.87728">
        <ele>491</ele>
        <time>2019-08-09T06:27:26Z</time>
      </trkpt>
      <trkpt lat="44.20876" lon="5.87736">
        <ele>491</ele>
        <time>2019-08-09T06:27:27Z</time>
      </trkpt>
      <trkpt lat="44.20872" lon="5.87744">
        <ele>491</ele>
        <time>2019-08-09T06:27:28Z</time>
      </trkpt>
      <trkpt lat="44.20867" lon="5.87751">
        <ele>491</ele>
        <time>2019-08-09T06:27:29Z</time>
      </trkpt>
      <trkpt lat="44.20862" lon="5.87759">
        <ele>491</ele>
        <time>2019-08-09T06:27:30Z</time>
      </trkpt>
      <trkpt lat="44.20858" lon="5.87767">
        <ele>491</ele>
        <time>2019-08-09T06:27:31Z</time>
      </trkpt>
      <trkpt lat="44.20853" lon="5.87775">
        <ele>491</ele>
        <time>2019-08-09T06:27:32Z</time>
      </trkpt>
      <trkpt lat="44.20848" lon="5.87783">
        <ele>491</ele>
        <time>2019-08-09T06:27:33Z</time>
      </trkpt>
      <trkpt lat="44.20844" lon="5.87791">
        <ele>491</ele>
        <time>2019-08-09T06:27:34Z</time>
      </trkpt>
      <trkpt lat="44.2084" lon="5.878">
        <ele>491</ele>
        <time>2019-08-09T06:27:35Z</time>
      </trkpt>
      <trkpt lat="44.20836" lon="5.87808">
        <ele>491</ele>
        <time>2019-08-09T06:27:36Z</time>
      </trkpt>
      <trkpt lat="44.20832" lon="5.87817">
        <ele>491</ele>
        <time>2019-08-09T06:27:37Z</time>
      </trkpt>
      <trkpt lat="44.20829" lon="5.87826">
        <ele>492</ele>
        <time>2019-08-09T06:27:38Z</time>
      </trkpt>
      <trkpt lat="44.20825" lon="5.87835">
        <ele>492</ele>
        <time>2019-08-09T06:27:39Z</time>
      </trkpt>
      <trkpt lat="44.20822" lon="5.87844">
        <ele>492</ele>
        <time>2019-08-09T06:27:40Z</time>
      </trkpt>
      <trkpt lat="44.20818" lon="5.87853">
        <ele>492</ele>
        <time>2019-08-09T06:27:41Z</time>
      </trkpt>
      <trkpt lat="44.20816" lon="5.87862">
        <ele>492</ele>
        <time>2019-08-09T06:27:42Z</time>
      </trkpt>
      <trkpt lat="44.20813" lon="5.87871">
        <ele>492</ele>
        <time>2019-08-09T06:27:43Z</time>
      </trkpt>
      <trkpt lat="44.2081" lon="5.8788">
        <ele>492</ele>
        <time>2019-08-09T06:27:44Z</time>
      </trkpt>
      <trkpt lat="44.20807" lon="5.87889">
        <ele>492</ele>
        <time>2019-08-09T06:27:45Z</time>
      </trkpt>
      <trkpt lat="44.20804" lon="5.87898">
        <ele>492</ele>
        <time>2019-08-09T06:27:46Z</time>
      </trkpt>
      <trkpt lat="44.20802" lon="5.87908">
        <ele>492</ele>
        <time>2019-08-09T06:27:47Z</time>
      </trkpt>
      <trkpt lat="44.20799" lon="5.87918">
        <ele>492</ele>
        <time>2019-08-09T06:27:48Z</time>
      </trkpt>
      <trkpt lat="44.20797" lon="5.87927">
        <ele>492</ele>
        <time>2019-08-09T06:27:49Z</time>
      </trkpt>
      <trkpt lat="44.20794" lon="5.87937">
        <ele>492</ele>
        <time>2019-08-09T06:27:50Z</time>
      </trkpt>
      <trkpt lat="44.20791" lon="5.87948">
        <ele>492</ele>
        <time>2019-08-09T06:27:51Z</time>
      </trkpt>
      <trkpt lat="44.20788" lon="5.87958">
        <ele>492</ele>
        <time>2019-08-09T06:27:52Z</time>
      </trkpt>
      <trkpt lat="44.20786" lon="5.87969">
        <ele>492</ele>
        <time>2019-08-09T06:27:53Z</time>
      </trkpt>
      <trkpt lat="44.20783" lon="5.8798">
        <ele>492</ele>
        <time>2019-08-09T06:27:54Z</time>
      </trkpt>
      <trkpt lat="44.20781" lon="5.87991">
        <ele>492</ele>
        <time>2019-08-09T06:27:55Z</time>
      </trkpt>
      <trkpt lat="44.20778" lon="5.88002">
        <ele>492</ele>
        <time>2019-08-09T06:27:56Z</time>
      </trkpt>
      <trkpt lat="44.20775" lon="5.88013">
        <ele>492</ele>
        <time>2019-08-09T06:27:57Z</time>
      </trkpt>
      <trkpt lat="44.20772" lon="5.88023">
        <ele>492</ele>
        <time>2019-08-09T06:27:58Z</time>
      </trkpt>
      <trkpt lat="44.20769" lon="5.88034">
        <ele>492</ele>
        <time>2019-08-09T06:27:59Z</time>
      </trkpt>
      <trkpt lat="44.20766" lon="5.88045">
        <ele>492</ele>
        <time>2019-08-09T06:28:00Z</time>
      </trkpt>
      <trkpt lat="44.20764" lon="5.88056">
        <ele>492</ele>
        <time>2019-08-09T06:28:01Z</time>
      </trkpt>
      <trkpt lat="44.20761" lon="5.88067">
        <ele>492</ele>
        <time>2019-08-09T06:28:02Z</time>
      </trkpt>
      <trkpt lat="44.20758" lon="5.88078">
        <ele>492</ele>
        <time>2019-08-09T06:28:03Z</time>
      </trkpt>
      <trkpt lat="44.20756" lon="5.88089">
        <ele>492</ele>
        <time>2019-08-09T06:28:04Z</time>
      </trkpt>
      <trkpt lat="44.20753" lon="5.881">
        <ele>492</ele>
        <time>2019-08-09T06:28:05Z</time>
      </trkpt>
      <trkpt lat="44.2075" lon="5.88111">
        <ele>492</ele>
        <time>2019-08-09T06:28:06Z</time>
      </trkpt>
      <trkpt lat="44.20748" lon="5.88122">
        <ele>492</ele>
        <time>2019-08-09T06:28:07Z</time>
      </trkpt>
      <trkpt lat="44.20746" lon="5.88132">
        <ele>492</ele>
        <time>2019-08-09T06:28:08Z</time>
      </trkpt>
      <trkpt lat="44.20743" lon="5.88143">
        <ele>492</ele>
        <time>2019-08-09T06:28:09Z</time>
      </trkpt>
      <trkpt lat="44.2074" lon="5.88153">
        <ele>492</ele>
        <time>2019-08-09T06:28:10Z</time>
      </trkpt>
      <trkpt lat="44.20737" lon="5.88164">
        <ele>492</ele>
        <time>2019-08-09T06:28:11Z</time>
      </trkpt>
      <trkpt lat="44.20734" lon="5.88174">
        <ele>492</ele>
        <time>2019-08-09T06:28:12Z</time>
      </trkpt>
      <trkpt lat="44.20732" lon="5.88185">
        <ele>492</ele>
        <time>2019-08-09T06:28:13Z</time>
      </trkpt>
      <trkpt lat="44.20729" lon="5.88196">
        <ele>492</ele>
        <time>2019-08-09T06:28:14Z</time>
      </trkpt>
      <trkpt lat="44.20726" lon="5.88207">
        <ele>492</ele>
        <time>2019-08-09T06:28:15Z</time>
      </trkpt>
      <trkpt lat="44.20723" lon="5.88218">
        <ele>492</ele>
        <time>2019-08-09T06:28:16Z</time>
      </trkpt>
      <trkpt lat="44.20721" lon="5.88229">
        <ele>492</ele>
        <time>2019-08-09T06:28:17Z</time>
      </trkpt>
      <trkpt lat="44.20718" lon="5.88239">
        <ele>492</ele>
        <time>2019-08-09T06:28:18Z</time>
      </trkpt>
      <trkpt lat="44.20715" lon="5.8825">
        <ele>492</ele>
        <time>2019-08-09T06:28:19Z</time>
      </trkpt>
      <trkpt lat="44.20713" lon="5.88261">
        <ele>492</ele>
        <time>2019-08-09T06:28:20Z</time>
      </trkpt>
      <trkpt lat="44.2071" lon="5.88272">
        <ele>491</ele>
        <time>2019-08-09T06:28:21Z</time>
      </trkpt>
      <trkpt lat="44.20707" lon="5.88282">
        <ele>491</ele>
        <time>2019-08-09T06:28:22Z</time>
      </trkpt>
      <trkpt lat="44.20705" lon="5.88293">
        <ele>491</ele>
        <time>2019-08-09T06:28:23Z</time>
      </trkpt>
      <trkpt lat="44.20702" lon="5.88303">
        <ele>491</ele>
        <time>2019-08-09T06:28:24Z</time>
      </trkpt>
      <trkpt lat="44.20699" lon="5.88314">
        <ele>491</ele>
        <time>2019-08-09T06:28:25Z</time>
      </trkpt>
      <trkpt lat="44.20696" lon="5.88324">
        <ele>490</ele>
        <time>2019-08-09T06:28:26Z</time>
      </trkpt>
      <trkpt lat="44.20693" lon="5.88335">
        <ele>490</ele>
        <time>2019-08-09T06:28:27Z</time>
      </trkpt>
      <trkpt lat="44.20691" lon="5.88346">
        <ele>490</ele>
        <time>2019-08-09T06:28:28Z</time>
      </trkpt>
      <trkpt lat="44.20688" lon="5.88357">
        <ele>490</ele>
        <time>2019-08-09T06:28:29Z</time>
      </trkpt>
      <trkpt lat="44.20685" lon="5.88368">
        <ele>490</ele>
        <time>2019-08-09T06:28:30Z</time>
      </trkpt>
      <trkpt lat="44.20683" lon="5.88378">
        <ele>490</ele>
        <time>2019-08-09T06:28:31Z</time>
      </trkpt>
      <trkpt lat="44.2068" lon="5.88389">
        <ele>490</ele>
        <time>2019-08-09T06:28:32Z</time>
      </trkpt>
      <trkpt lat="44.20677" lon="5.884">
        <ele>490</ele>
        <time>2019-08-09T06:28:33Z</time>
      </trkpt>
      <trkpt lat="44.20674" lon="5.8841">
        <ele>490</ele>
        <time>2019-08-09T06:28:34Z</time>
      </trkpt>
      <trkpt lat="44.20671" lon="5.88421">
        <ele>490</ele>
        <time>2019-08-09T06:28:35Z</time>
      </trkpt>
      <trkpt lat="44.20669" lon="5.88431">
        <ele>490</ele>
        <time>2019-08-09T06:28:36Z</time>
      </trkpt>
      <trkpt lat="44.20666" lon="5.88442">
        <ele>490</ele>
        <time>2019-08-09T06:28:37Z</time>
      </trkpt>
      <trkpt lat="44.20663" lon="5.88452">
        <ele>490</ele>
        <time>2019-08-09T06:28:38Z</time>
      </trkpt>
      <trkpt lat="44.2066" lon="5.88462">
        <ele>490</ele>
        <time>2019-08-09T06:28:39Z</time>
      </trkpt>
      <trkpt lat="44.20658" lon="5.88472">
        <ele>490</ele>
        <time>2019-08-09T06:28:40Z</time>
      </trkpt>
      <trkpt lat="44.20655" lon="5.88483">
        <ele>490</ele>
        <time>2019-08-09T06:28:41Z</time>
      </trkpt>
      <trkpt lat="44.20652" lon="5.88493">
        <ele>490</ele>
        <time>2019-08-09T06:28:42Z</time>
      </trkpt>
      <trkpt lat="44.20649" lon="5.88504">
        <ele>490</ele>
        <time>2019-08-09T06:28:43Z</time>
      </trkpt>
      <trkpt lat="44.20647" lon="5.88514">
        <ele>490</ele>
        <time>2019-08-09T06:28:44Z</time>
      </trkpt>
      <trkpt lat="44.20644" lon="5.88524">
        <ele>490</ele>
        <time>2019-08-09T06:28:45Z</time>
      </trkpt>
      <trkpt lat="44.20641" lon="5.88535">
        <ele>490</ele>
        <time>2019-08-09T06:28:46Z</time>
      </trkpt>
      <trkpt lat="44.20639" lon="5.88546">
        <ele>490</ele>
        <time>2019-08-09T06:28:47Z</time>
      </trkpt>
      <trkpt lat="44.20636" lon="5.88556">
        <ele>490</ele>
        <time>2019-08-09T06:28:48Z</time>
      </trkpt>
      <trkpt lat="44.20633" lon="5.88566">
        <ele>490</ele>
        <time>2019-08-09T06:28:49Z</time>
      </trkpt>
      <trkpt lat="44.20631" lon="5.88577">
        <ele>490</ele>
        <time>2019-08-09T06:28:50Z</time>
      </trkpt>
      <trkpt lat="44.20628" lon="5.88588">
        <ele>490</ele>
        <time>2019-08-09T06:28:51Z</time>
      </trkpt>
      <trkpt lat="44.20625" lon="5.88598">
        <ele>490</ele>
        <time>2019-08-09T06:28:52Z</time>
      </trkpt>
      <trkpt lat="44.20623" lon="5.88609">
        <ele>490</ele>
        <time>2019-08-09T06:28:53Z</time>
      </trkpt>
      <trkpt lat="44.2062" lon="5.8862">
        <ele>489</ele>
        <time>2019-08-09T06:28:54Z</time>
      </trkpt>
      <trkpt lat="44.20617" lon="5.8863">
        <ele>489</ele>
        <time>2019-08-09T06:28:55Z</time>
      </trkpt>
      <trkpt lat="44.20614" lon="5.88641">
        <ele>489</ele>
        <time>2019-08-09T06:28:56Z</time>
      </trkpt>
      <trkpt lat="44.20611" lon="5.88652">
        <ele>489</ele>
        <time>2019-08-09T06:28:57Z</time>
      </trkpt>
      <trkpt lat="44.20608" lon="5.88662">
        <ele>489</ele>
        <time>2019-08-09T06:28:58Z</time>
      </trkpt>
      <trkpt lat="44.20605" lon="5.88673">
        <ele>489</ele>
        <time>2019-08-09T06:28:59Z</time>
      </trkpt>
      <trkpt lat="44.20603" lon="5.88684">
        <ele>489</ele>
        <time>2019-08-09T06:29:00Z</time>
      </trkpt>
      <trkpt lat="44.206" lon="5.88694">
        <ele>489</ele>
        <time>2019-08-09T06:29:01Z</time>
      </trkpt>
      <trkpt lat="44.20597" lon="5.88705">
        <ele>489</ele>
        <time>2019-08-09T06:29:02Z</time>
      </trkpt>
      <trkpt lat="44.20594" lon="5.88716">
        <ele>489</ele>
        <time>2019-08-09T06:29:03Z</time>
      </trkpt>
      <trkpt lat="44.20592" lon="5.88726">
        <ele>489</ele>
        <time>2019-08-09T06:29:04Z</time>
      </trkpt>
      <trkpt lat="44.20589" lon="5.88737">
        <ele>489</ele>
        <time>2019-08-09T06:29:05Z</time>
      </trkpt>
      <trkpt lat="44.20587" lon="5.88747">
        <ele>488</ele>
        <time>2019-08-09T06:29:06Z</time>
      </trkpt>
      <trkpt lat="44.20584" lon="5.88758">
        <ele>488</ele>
        <time>2019-08-09T06:29:07Z</time>
      </trkpt>
      <trkpt lat="44.20581" lon="5.88769">
        <ele>488</ele>
        <time>2019-08-09T06:29:08Z</time>
      </trkpt>
      <trkpt lat="44.20579" lon="5.88779">
        <ele>488</ele>
        <time>2019-08-09T06:29:09Z</time>
      </trkpt>
      <trkpt lat="44.20576" lon="5.8879">
        <ele>488</ele>
        <time>2019-08-09T06:29:10Z</time>
      </trkpt>
      <trkpt lat="44.20573" lon="5.88801">
        <ele>488</ele>
        <time>2019-08-09T06:29:11Z</time>
      </trkpt>
      <trkpt lat="44.20571" lon="5.88811">
        <ele>488</ele>
        <time>2019-08-09T06:29:12Z</time>
      </trkpt>
      <trkpt lat="44.20568" lon="5.88822">
        <ele>488</ele>
        <time>2019-08-09T06:29:13Z</time>
      </trkpt>
      <trkpt lat="44.20565" lon="5.88833">
        <ele>488</ele>
        <time>2019-08-09T06:29:14Z</time>
      </trkpt>
      <trkpt lat="44.20562" lon="5.88844">
        <ele>487</ele>
        <time>2019-08-09T06:29:15Z</time>
      </trkpt>
      <trkpt lat="44.2056" lon="5.88855">
        <ele>487</ele>
        <time>2019-08-09T06:29:16Z</time>
      </trkpt>
      <trkpt lat="44.20557" lon="5.88866">
        <ele>487</ele>
        <time>2019-08-09T06:29:17Z</time>
      </trkpt>
      <trkpt lat="44.20554" lon="5.88876">
        <ele>487</ele>
        <time>2019-08-09T06:29:18Z</time>
      </trkpt>
      <trkpt lat="44.20551" lon="5.88887">
        <ele>487</ele>
        <time>2019-08-09T06:29:19Z</time>
      </trkpt>
      <trkpt lat="44.20549" lon="5.88898">
        <ele>487</ele>
        <time>2019-08-09T06:29:20Z</time>
      </trkpt>
      <trkpt lat="44.20546" lon="5.88909">
        <ele>487</ele>
        <time>2019-08-09T06:29:21Z</time>
      </trkpt>
      <trkpt lat="44.20544" lon="5.8892">
        <ele>487</ele>
        <time>2019-08-09T06:29:22Z</time>
      </trkpt>
      <trkpt lat="44.20541" lon="5.88931">
        <ele>487</ele>
        <time>2019-08-09T06:29:23Z</time>
      </trkpt>
      <trkpt lat="44.20538" lon="5.88941">
        <ele>487</ele>
        <time>2019-08-09T06:29:24Z</time>
      </trkpt>
      <trkpt lat="44.20535" lon="5.88952">
        <ele>487</ele>
        <time>2019-08-09T06:29:25Z</time>
      </trkpt>
      <trkpt lat="44.20533" lon="5.88963">
        <ele>486</ele>
        <time>2019-08-09T06:29:26Z</time>
      </trkpt>
      <trkpt lat="44.2053" lon="5.88973">
        <ele>486</ele>
        <time>2019-08-09T06:29:27Z</time>
      </trkpt>
      <trkpt lat="44.20528" lon="5.88984">
        <ele>486</ele>
        <time>2019-08-09T06:29:28Z</time>
      </trkpt>
      <trkpt lat="44.20525" lon="5.88995">
        <ele>486</ele>
        <time>2019-08-09T06:29:29Z</time>
      </trkpt>
      <trkpt lat="44.20522" lon="5.89006">
        <ele>486</ele>
        <time>2019-08-09T06:29:30Z</time>
      </trkpt>
      <trkpt lat="44.20519" lon="5.89016">
        <ele>486</ele>
        <time>2019-08-09T06:29:31Z</time>
      </trkpt>
      <trkpt lat="44.20517" lon="5.89027">
        <ele>486</ele>
        <time>2019-08-09T06:29:32Z</time>
      </trkpt>
      <trkpt lat="44.20514" lon="5.89038">
        <ele>486</ele>
        <time>2019-08-09T06:29:33Z</time>
      </trkpt>
      <trkpt lat="44.20511" lon="5.89049">
        <ele>486</ele>
        <time>2019-08-09T06:29:34Z</time>
      </trkpt>
      <trkpt lat="44.20508" lon="5.89059">
        <ele>485</ele>
        <time>2019-08-09T06:29:35Z</time>
      </trkpt>
      <trkpt lat="44.20506" lon="5.8907">
        <ele>485</ele>
        <time>2019-08-09T06:29:36Z</time>
      </trkpt>
      <trkpt lat="44.20503" lon="5.89081">
        <ele>485</ele>
        <time>2019-08-09T06:29:37Z</time>
      </trkpt>
      <trkpt lat="44.205" lon="5.89092">
        <ele>485</ele>
        <time>2019-08-09T06:29:38Z</time>
      </trkpt>
      <trkpt lat="44.20497" lon="5.89103">
        <ele>485</ele>
        <time>2019-08-09T06:29:39Z</time>
      </trkpt>
      <trkpt lat="44.20494" lon="5.89114">
        <ele>485</ele>
        <time>2019-08-09T06:29:40Z</time>
      </trkpt>
      <trkpt lat="44.20492" lon="5.89125">
        <ele>485</ele>
        <time>2019-08-09T06:29:41Z</time>
      </trkpt>
      <trkpt lat="44.20489" lon="5.89136">
        <ele>485</ele>
        <time>2019-08-09T06:29:42Z</time>
      </trkpt>
      <trkpt lat="44.20486" lon="5.89147">
        <ele>485</ele>
        <time>2019-08-09T06:29:43Z</time>
      </trkpt>
      <trkpt lat="44.20484" lon="5.89158">
        <ele>485</ele>
        <time>2019-08-09T06:29:44Z</time>
      </trkpt>
      <trkpt lat="44.20481" lon="5.89169">
        <ele>485</ele>
        <time>2019-08-09T06:29:45Z</time>
      </trkpt>
      <trkpt lat="44.20478" lon="5.8918">
        <ele>485</ele>
        <time>2019-08-09T06:29:46Z</time>
      </trkpt>
      <trkpt lat="44.20475" lon="5.8919">
        <ele>485</ele>
        <time>2019-08-09T06:29:47Z</time>
      </trkpt>
      <trkpt lat="44.20473" lon="5.89201">
        <ele>485</ele>
        <time>2019-08-09T06:29:48Z</time>
      </trkpt>
      <trkpt lat="44.2047" lon="5.89212">
        <ele>485</ele>
        <time>2019-08-09T06:29:49Z</time>
      </trkpt>
      <trkpt lat="44.20467" lon="5.89222">
        <ele>485</ele>
        <time>2019-08-09T06:29:50Z</time>
      </trkpt>
      <trkpt lat="44.20465" lon="5.89233">
        <ele>485</ele>
        <time>2019-08-09T06:29:51Z</time>
      </trkpt>
      <trkpt lat="44.20462" lon="5.89243">
        <ele>485</ele>
        <time>2019-08-09T06:29:52Z</time>
      </trkpt>
      <trkpt lat="44.20459" lon="5.89254">
        <ele>485</ele>
        <time>2019-08-09T06:29:53Z</time>
      </trkpt>
      <trkpt lat="44.20457" lon="5.89264">
        <ele>485</ele>
        <time>2019-08-09T06:29:54Z</time>
      </trkpt>
      <trkpt lat="44.20454" lon="5.89274">
        <ele>485</ele>
        <time>2019-08-09T06:29:55Z</time>
      </trkpt>
      <trkpt lat="44.20451" lon="5.89284">
        <ele>485</ele>
        <time>2019-08-09T06:29:56Z</time>
      </trkpt>
      <trkpt lat="44.20449" lon="5.89294">
        <ele>485</ele>
        <time>2019-08-09T06:29:57Z</time>
      </trkpt>
      <trkpt lat="44.20446" lon="5.89304">
        <ele>485</ele>
        <time>2019-08-09T06:29:58Z</time>
      </trkpt>
      <trkpt lat="44.20444" lon="5.89314">
        <ele>485</ele>
        <time>2019-08-09T06:29:59Z</time>
      </trkpt>
      <trkpt lat="44.20441" lon="5.89324">
        <ele>485</ele>
        <time>2019-08-09T06:30:00Z</time>
      </trkpt>
      <trkpt lat="44.20439" lon="5.89333">
        <ele>485</ele>
        <time>2019-08-09T06:30:01Z</time>
      </trkpt>
      <trkpt lat="44.20436" lon="5.89343">
        <ele>485</ele>
        <time>2019-08-09T06:30:02Z</time>
      </trkpt>
      <trkpt lat="44.20434" lon="5.89353">
        <ele>485</ele>
        <time>2019-08-09T06:30:03Z</time>
      </trkpt>
      <trkpt lat="44.20432" lon="5.89362">
        <ele>485</ele>
        <time>2019-08-09T06:30:04Z</time>
      </trkpt>
      <trkpt lat="44.20429" lon="5.89371">
        <ele>485</ele>
        <time>2019-08-09T06:30:05Z</time>
      </trkpt>
      <trkpt lat="44.20427" lon="5.89381">
        <ele>485</ele>
        <time>2019-08-09T06:30:06Z</time>
      </trkpt>
      <trkpt lat="44.20425" lon="5.8939">
        <ele>485</ele>
        <time>2019-08-09T06:30:07Z</time>
      </trkpt>
      <trkpt lat="44.20422" lon="5.89399">
        <ele>485</ele>
        <time>2019-08-09T06:30:08Z</time>
      </trkpt>
      <trkpt lat="44.2042" lon="5.89408">
        <ele>485</ele>
        <time>2019-08-09T06:30:09Z</time>
      </trkpt>
      <trkpt lat="44.20417" lon="5.89417">
        <ele>485</ele>
        <time>2019-08-09T06:30:10Z</time>
      </trkpt>
      <trkpt lat="44.20415" lon="5.89426">
        <ele>485</ele>
        <time>2019-08-09T06:30:11Z</time>
      </trkpt>
      <trkpt lat="44.20413" lon="5.89435">
        <ele>485</ele>
        <time>2019-08-09T06:30:12Z</time>
      </trkpt>
      <trkpt lat="44.20411" lon="5.89444">
        <ele>485</ele>
        <time>2019-08-09T06:30:13Z</time>
      </trkpt>
      <trkpt lat="44.20408" lon="5.89453">
        <ele>485</ele>
        <time>2019-08-09T06:30:14Z</time>
      </trkpt>
      <trkpt lat="44.20406" lon="5.89462">
        <ele>485</ele>
        <time>2019-08-09T06:30:15Z</time>
      </trkpt>
      <trkpt lat="44.20404" lon="5.89471">
        <ele>485</ele>
        <time>2019-08-09T06:30:16Z</time>
      </trkpt>
      <trkpt lat="44.20402" lon="5.8948">
        <ele>485</ele>
        <time>2019-08-09T06:30:17Z</time>
      </trkpt>
      <trkpt lat="44.204" lon="5.89489">
        <ele>485</ele>
        <time>2019-08-09T06:30:18Z</time>
      </trkpt>
      <trkpt lat="44.20398" lon="5.89498">
        <ele>485</ele>
        <time>2019-08-09T06:30:19Z</time>
      </trkpt>
      <trkpt lat="44.20395" lon="5.89507">
        <ele>485</ele>
        <time>2019-08-09T06:30:20Z</time>
      </trkpt>
      <trkpt lat="44.20393" lon="5.89516">
        <ele>485</ele>
        <time>2019-08-09T06:30:21Z</time>
      </trkpt>
      <trkpt lat="44.2039" lon="5.89525">
        <ele>485</ele>
        <time>2019-08-09T06:30:22Z</time>
      </trkpt>
      <trkpt lat="44.20388" lon="5.89534">
        <ele>485</ele>
        <time>2019-08-09T06:30:23Z</time>
      </trkpt>
      <trkpt lat="44.20385" lon="5.89543">
        <ele>485</ele>
        <time>2019-08-09T06:30:24Z</time>
      </trkpt>
      <trkpt lat="44.20383" lon="5.89553">
        <ele>485</ele>
        <time>2019-08-09T06:30:25Z</time>
      </trkpt>
      <trkpt lat="44.20381" lon="5.89562">
        <ele>485</ele>
        <time>2019-08-09T06:30:26Z</time>
      </trkpt>
      <trkpt lat="44.20379" lon="5.89572">
        <ele>485</ele>
        <time>2019-08-09T06:30:27Z</time>
      </trkpt>
      <trkpt lat="44.20376" lon="5.89581">
        <ele>485</ele>
        <time>2019-08-09T06:30:28Z</time>
      </trkpt>
      <trkpt lat="44.20374" lon="5.89591">
        <ele>485</ele>
        <time>2019-08-09T06:30:29Z</time>
      </trkpt>
      <trkpt lat="44.20371" lon="5.896">
        <ele>485</ele>
        <time>2019-08-09T06:30:30Z</time>
      </trkpt>
      <trkpt lat="44.20368" lon="5.8961">
        <ele>485</ele>
        <time>2019-08-09T06:30:31Z</time>
      </trkpt>
      <trkpt lat="44.20366" lon="5.89619">
        <ele>485</ele>
        <time>2019-08-09T06:30:32Z</time>
      </trkpt>
      <trkpt lat="44.20363" lon="5.89629">
        <ele>485</ele>
        <time>2019-08-09T06:30:33Z</time>
      </trkpt>
      <trkpt lat="44.20361" lon="5.89639">
        <ele>485</ele>
        <time>2019-08-09T06:30:34Z</time>
      </trkpt>
      <trkpt lat="44.20359" lon="5.89649">
        <ele>485</ele>
        <time>2019-08-09T06:30:35Z</time>
      </trkpt>
      <trkpt lat="44.20356" lon="5.89659">
        <ele>485</ele>
        <time>2019-08-09T06:30:36Z</time>
      </trkpt>
      <trkpt lat="44.20353" lon="5.89669">
        <ele>485</ele>
        <time>2019-08-09T06:30:37Z</time>
      </trkpt>
      <trkpt lat="44.20351" lon="5.89678">
        <ele>485</ele>
        <time>2019-08-09T06:30:38Z</time>
      </trkpt>
      <trkpt lat="44.20348" lon="5.89688">
        <ele>485</ele>
        <time>2019-08-09T06:30:39Z</time>
      </trkpt>
      <trkpt lat="44.20346" lon="5.89698">
        <ele>485</ele>
        <time>2019-08-09T06:30:40Z</time>
      </trkpt>
      <trkpt lat="44.20343" lon="5.89707">
        <ele>485</ele>
        <time>2019-08-09T06:30:41Z</time>
      </trkpt>
      <trkpt lat="44.20341" lon="5.89717">
        <ele>485</ele>
        <time>2019-08-09T06:30:42Z</time>
      </trkpt>
      <trkpt lat="44.20339" lon="5.89726">
        <ele>485</ele>
        <time>2019-08-09T06:30:43Z</time>
      </trkpt>
      <trkpt lat="44.20336" lon="5.89736">
        <ele>485</ele>
        <time>2019-08-09T06:30:44Z</time>
      </trkpt>
      <trkpt lat="44.20334" lon="5.89745">
        <ele>485</ele>
        <time>2019-08-09T06:30:45Z</time>
      </trkpt>
      <trkpt lat="44.20332" lon="5.89754">
        <ele>485</ele>
        <time>2019-08-09T06:30:46Z</time>
      </trkpt>
      <trkpt lat="44.20329" lon="5.89764">
        <ele>485</ele>
        <time>2019-08-09T06:30:47Z</time>
      </trkpt>
      <trkpt lat="44.20327" lon="5.89773">
        <ele>485</ele>
        <time>2019-08-09T06:30:48Z</time>
      </trkpt>
      <trkpt lat="44.20324" lon="5.89782">
        <ele>485</ele>
        <time>2019-08-09T06:30:49Z</time>
      </trkpt>
      <trkpt lat="44.20321" lon="5.89792">
        <ele>485</ele>
        <time>2019-08-09T06:30:50Z</time>
      </trkpt>
      <trkpt lat="44.20319" lon="5.89801">
        <ele>485</ele>
        <time>2019-08-09T06:30:51Z</time>
      </trkpt>
      <trkpt lat="44.20316" lon="5.89811">
        <ele>485</ele>
        <time>2019-08-09T06:30:52Z</time>
      </trkpt>
      <trkpt lat="44.20314" lon="5.89821">
        <ele>485</ele>
        <time>2019-08-09T06:30:53Z</time>
      </trkpt>
      <trkpt lat="44.20312" lon="5.8983">
        <ele>485</ele>
        <time>2019-08-09T06:30:54Z</time>
      </trkpt>
      <trkpt lat="44.20309" lon="5.8984">
        <ele>485</ele>
        <time>2019-08-09T06:30:55Z</time>
      </trkpt>
      <trkpt lat="44.20307" lon="5.89849">
        <ele>485</ele>
        <time>2019-08-09T06:30:56Z</time>
      </trkpt>
      <trkpt lat="44.20304" lon="5.89859">
        <ele>485</ele>
        <time>2019-08-09T06:30:57Z</time>
      </trkpt>
      <trkpt lat="44.20302" lon="5.89868">
        <ele>485</ele>
        <time>2019-08-09T06:30:58Z</time>
      </trkpt>
      <trkpt lat="44.203" lon="5.89877">
        <ele>485</ele>
        <time>2019-08-09T06:30:59Z</time>
      </trkpt>
      <trkpt lat="44.20297" lon="5.89887">
        <ele>485</ele>
        <time>2019-08-09T06:31:00Z</time>
      </trkpt>
      <trkpt lat="44.20295" lon="5.89896">
        <ele>485</ele>
        <time>2019-08-09T06:31:01Z</time>
      </trkpt>
      <trkpt lat="44.20292" lon="5.89905">
        <ele>485</ele>
        <time>2019-08-09T06:31:02Z</time>
      </trkpt>
      <trkpt lat="44.2029" lon="5.89914">
        <ele>485</ele>
        <time>2019-08-09T06:31:03Z</time>
      </trkpt>
      <trkpt lat="44.20288" lon="5.89923">
        <ele>485</ele>
        <time>2019-08-09T06:31:04Z</time>
      </trkpt>
      <trkpt lat="44.20285" lon="5.89932">
        <ele>485</ele>
        <time>2019-08-09T06:31:05Z</time>
      </trkpt>
      <trkpt lat="44.20283" lon="5.89942">
        <ele>485</ele>
        <time>2019-08-09T06:31:06Z</time>
      </trkpt>
      <trkpt lat="44.20281" lon="5.89951">
        <ele>485</ele>
        <time>2019-08-09T06:31:07Z</time>
      </trkpt>
      <trkpt lat="44.20278" lon="5.8996">
        <ele>485</ele>
        <time>2019-08-09T06:31:08Z</time>
      </trkpt>
      <trkpt lat="44.20276" lon="5.8997">
        <ele>485</ele>
        <time>2019-08-09T06:31:09Z</time>
      </trkpt>
      <trkpt lat="44.20274" lon="5.89979">
        <ele>485</ele>
        <time>2019-08-09T06:31:10Z</time>
      </trkpt>
      <trkpt lat="44.20272" lon="5.89988">
        <ele>485</ele>
        <time>2019-08-09T06:31:11Z</time>
      </trkpt>
      <trkpt lat="44.20269" lon="5.89997">
        <ele>485</ele>
        <time>2019-08-09T06:31:12Z</time>
      </trkpt>
      <trkpt lat="44.20267" lon="5.90006">
        <ele>485</ele>
        <time>2019-08-09T06:31:13Z</time>
      </trkpt>
      <trkpt lat="44.20266" lon="5.90015">
        <ele>485</ele>
        <time>2019-08-09T06:31:14Z</time>
      </trkpt>
      <trkpt lat="44.20264" lon="5.90024">
        <ele>485</ele>
        <time>2019-08-09T06:31:15Z</time>
      </trkpt>
      <trkpt lat="44.20262" lon="5.90033">
        <ele>485</ele>
        <time>2019-08-09T06:31:16Z</time>
      </trkpt>
      <trkpt lat="44.20261" lon="5.90041">
        <ele>485</ele>
        <time>2019-08-09T06:31:17Z</time>
      </trkpt>
      <trkpt lat="44.2026" lon="5.9005">
        <ele>485</ele>
        <time>2019-08-09T06:31:18Z</time>
      </trkpt>
      <trkpt lat="44.20259" lon="5.90058">
        <ele>485</ele>
        <time>2019-08-09T06:31:19Z</time>
      </trkpt>
      <trkpt lat="44.20259" lon="5.90065">
        <ele>485</ele>
        <time>2019-08-09T06:31:20Z</time>
      </trkpt>
      <trkpt lat="44.20259" lon="5.90072">
        <ele>485</ele>
        <time>2019-08-09T06:31:21Z</time>
      </trkpt>
      <trkpt lat="44.20258" lon="5.90078">
        <ele>485</ele>
        <time>2019-08-09T06:31:22Z</time>
      </trkpt>
      <trkpt lat="44.20255" lon="5.90084">
        <ele>485</ele>
        <time>2019-08-09T06:31:23Z</time>
      </trkpt>
      <trkpt lat="44.20252" lon="5.90087">
        <ele>485</ele>
        <time>2019-08-09T06:31:24Z</time>
      </trkpt>
      <trkpt lat="44.20248" lon="5.90089">
        <ele>485</ele>
        <time>2019-08-09T06:31:25Z</time>
      </trkpt>
      <trkpt lat="44.20246" lon="5.90091">
        <ele>485</ele>
        <time>2019-08-09T06:31:26Z</time>
      </trkpt>
      <trkpt lat="44.20243" lon="5.90091">
        <ele>485</ele>
        <time>2019-08-09T06:31:27Z</time>
      </trkpt>
      <trkpt lat="44.20241" lon="5.90093">
        <ele>485</ele>
        <time>2019-08-09T06:31:28Z</time>
      </trkpt>
      <trkpt lat="44.20239" lon="5.90095">
        <ele>485</ele>
        <time>2019-08-09T06:31:29Z</time>
      </trkpt>
      <trkpt lat="44.20238" lon="5.90098">
        <ele>485</ele>
        <time>2019-08-09T06:31:30Z</time>
      </trkpt>
      <trkpt lat="44.20237" lon="5.901">
        <ele>485</ele>
        <time>2019-08-09T06:31:31Z</time>
      </trkpt>
      <trkpt lat="44.20236" lon="5.90103">
        <ele>486</ele>
        <time>2019-08-09T06:31:32Z</time>
      </trkpt>
      <trkpt lat="44.20234" lon="5.90107">
        <ele>486</ele>
        <time>2019-08-09T06:31:33Z</time>
      </trkpt>
      <trkpt lat="44.20233" lon="5.9011">
        <ele>486</ele>
        <time>2019-08-09T06:31:34Z</time>
      </trkpt>
      <trkpt lat="44.20232" lon="5.90114">
        <ele>486</ele>
        <time>2019-08-09T06:31:35Z</time>
      </trkpt>
      <trkpt lat="44.2023" lon="5.90118">
        <ele>487</ele>
        <time>2019-08-09T06:31:36Z</time>
      </trkpt>
      <trkpt lat="44.20229" lon="5.90123">
        <ele>487</ele>
        <time>2019-08-09T06:31:37Z</time>
      </trkpt>
      <trkpt lat="44.20227" lon="5.90128">
        <ele>487</ele>
        <time>2019-08-09T06:31:38Z</time>
      </trkpt>
      <trkpt lat="44.20225" lon="5.90132">
        <ele>487</ele>
        <time>2019-08-09T06:31:39Z</time>
      </trkpt>
      <trkpt lat="44.20224" lon="5.90137">
        <ele>487</ele>
        <time>2019-08-09T06:31:40Z</time>
      </trkpt>
      <trkpt lat="44.20222" lon="5.90141">
        <ele>488</ele>
        <time>2019-08-09T06:31:41Z</time>
      </trkpt>
      <trkpt lat="44.2022" lon="5.90145">
        <ele>488</ele>
        <time>2019-08-09T06:31:42Z</time>
      </trkpt>
      <trkpt lat="44.20219" lon="5.90149">
        <ele>488</ele>
        <time>2019-08-09T06:31:43Z</time>
      </trkpt>
      <trkpt lat="44.20217" lon="5.90154">
        <ele>488</ele>
        <time>2019-08-09T06:31:44Z</time>
      </trkpt>
      <trkpt lat="44.20215" lon="5.90158">
        <ele>488</ele>
        <time>2019-08-09T06:31:45Z</time>
      </trkpt>
      <trkpt lat="44.20214" lon="5.90162">
        <ele>488</ele>
        <time>2019-08-09T06:31:46Z</time>
      </trkpt>
      <trkpt lat="44.20212" lon="5.90166">
        <ele>488</ele>
        <time>2019-08-09T06:31:47Z</time>
      </trkpt>
      <trkpt lat="44.20211" lon="5.9017">
        <ele>489</ele>
        <time>2019-08-09T06:31:48Z</time>
      </trkpt>
      <trkpt lat="44.20209" lon="5.90173">
        <ele>489</ele>
        <time>2019-08-09T06:31:49Z</time>
      </trkpt>
      <trkpt lat="44.20207" lon="5.90177">
        <ele>489</ele>
        <time>2019-08-09T06:31:50Z</time>
      </trkpt>
      <trkpt lat="44.20205" lon="5.9018">
        <ele>490</ele>
        <time>2019-08-09T06:31:51Z</time>
      </trkpt>
      <trkpt lat="44.20202" lon="5.90182">
        <ele>490</ele>
        <time>2019-08-09T06:31:52Z</time>
      </trkpt>
      <trkpt lat="44.202" lon="5.90185">
        <ele>491</ele>
        <time>2019-08-09T06:31:53Z</time>
      </trkpt>
      <trkpt lat="44.20197" lon="5.90188">
        <ele>491</ele>
        <time>2019-08-09T06:31:54Z</time>
      </trkpt>
      <trkpt lat="44.20195" lon="5.90191">
        <ele>491</ele>
        <time>2019-08-09T06:31:55Z</time>
      </trkpt>
      <trkpt lat="44.20191" lon="5.90194">
        <ele>492</ele>
        <time>2019-08-09T06:31:56Z</time>
      </trkpt>
      <trkpt lat="44.20188" lon="5.90197">
        <ele>492</ele>
        <time>2019-08-09T06:31:57Z</time>
      </trkpt>
      <trkpt lat="44.20185" lon="5.902">
        <ele>493</ele>
        <time>2019-08-09T06:31:58Z</time>
      </trkpt>
      <trkpt lat="44.20181" lon="5.90203">
        <ele>493</ele>
        <time>2019-08-09T06:31:59Z</time>
      </trkpt>
      <trkpt lat="44.20178" lon="5.90205">
        <ele>494</ele>
        <time>2019-08-09T06:32:00Z</time>
      </trkpt>
      <trkpt lat="44.20174" lon="5.90208">
        <ele>494</ele>
        <time>2019-08-09T06:32:01Z</time>
      </trkpt>
      <trkpt lat="44.20171" lon="5.9021">
        <ele>495</ele>
        <time>2019-08-09T06:32:02Z</time>
      </trkpt>
      <trkpt lat="44.20167" lon="5.90211">
        <ele>495</ele>
        <time>2019-08-09T06:32:03Z</time>
      </trkpt>
      <trkpt lat="44.20164" lon="5.90214">
        <ele>495</ele>
        <time>2019-08-09T06:32:04Z</time>
      </trkpt>
      <trkpt lat="44.2016" lon="5.90216">
        <ele>495</ele>
        <time>2019-08-09T06:32:05Z</time>
      </trkpt>
      <trkpt lat="44.20156" lon="5.90219">
        <ele>496</ele>
        <time>2019-08-09T06:32:06Z</time>
      </trkpt>
      <trkpt lat="44.20153" lon="5.90221">
        <ele>496</ele>
        <time>2019-08-09T06:32:07Z</time>
      </trkpt>
      <trkpt lat="44.20149" lon="5.90223">
        <ele>496</ele>
        <time>2019-08-09T06:32:08Z</time>
      </trkpt>
      <trkpt lat="44.20145" lon="5.90225">
        <ele>496</ele>
        <time>2019-08-09T06:32:09Z</time>
      </trkpt>
      <trkpt lat="44.20141" lon="5.90227">
        <ele>496</ele>
        <time>2019-08-09T06:32:10Z</time>
      </trkpt>
      <trkpt lat="44.20137" lon="5.90229">
        <ele>497</ele>
        <time>2019-08-09T06:32:11Z</time>
      </trkpt>
      <trkpt lat="44.20134" lon="5.90231">
        <ele>497</ele>
        <time>2019-08-09T06:32:12Z</time>
      </trkpt>
      <trkpt lat="44.2013" lon="5.90234">
        <ele>497</ele>
        <time>2019-08-09T06:32:13Z</time>
      </trkpt>
      <trkpt lat="44.20126" lon="5.90236">
        <ele>498</ele>
        <time>2019-08-09T06:32:14Z</time>
      </trkpt>
      <trkpt lat="44.20123" lon="5.90239">
        <ele>498</ele>
        <time>2019-08-09T06:32:15Z</time>
      </trkpt>
      <trkpt lat="44.20119" lon="5.90241">
        <ele>498</ele>
        <time>2019-08-09T06:32:16Z</time>
      </trkpt>
      <trkpt lat="44.20116" lon="5.90244">
        <ele>499</ele>
        <time>2019-08-09T06:32:17Z</time>
      </trkpt>
      <trkpt lat="44.20112" lon="5.90246">
        <ele>499</ele>
        <time>2019-08-09T06:32:18Z</time>
      </trkpt>
      <trkpt lat="44.20109" lon="5.90249">
        <ele>499</ele>
        <time>2019-08-09T06:32:19Z</time>
      </trkpt>
      <trkpt lat="44.20105" lon="5.90252">
        <ele>499</ele>
        <time>2019-08-09T06:32:20Z</time>
      </trkpt>
      <trkpt lat="44.20102" lon="5.90254">
        <ele>500</ele>
        <time>2019-08-09T06:32:21Z</time>
      </trkpt>
      <trkpt lat="44.20099" lon="5.90257">
        <ele>500</ele>
        <time>2019-08-09T06:32:22Z</time>
      </trkpt>
      <trkpt lat="44.20097" lon="5.90261">
        <ele>500</ele>
        <time>2019-08-09T06:32:23Z</time>
      </trkpt>
      <trkpt lat="44.20094" lon="5.90265">
        <ele>500</ele>
        <time>2019-08-09T06:32:24Z</time>
      </trkpt>
      <trkpt lat="44.20092" lon="5.90269">
        <ele>500</ele>
        <time>2019-08-09T06:32:25Z</time>
      </trkpt>
      <trkpt lat="44.2009" lon="5.90273">
        <ele>500</ele>
        <time>2019-08-09T06:32:26Z</time>
      </trkpt>
      <trkpt lat="44.20088" lon="5.90278">
        <ele>500</ele>
        <time>2019-08-09T06:32:28Z</time>
      </trkpt>
      <trkpt lat="44.20086" lon="5.90282">
        <ele>500</ele>
        <time>2019-08-09T06:32:28Z</time>
      </trkpt>
      <trkpt lat="44.20084" lon="5.90287">
        <ele>500</ele>
        <time>2019-08-09T06:32:29Z</time>
      </trkpt>
      <trkpt lat="44.20083" lon="5.90291">
        <ele>500</ele>
        <time>2019-08-09T06:32:30Z</time>
      </trkpt>
      <trkpt lat="44.20081" lon="5.90296">
        <ele>500</ele>
        <time>2019-08-09T06:32:31Z</time>
      </trkpt>
      <trkpt lat="44.20079" lon="5.90301">
        <ele>500</ele>
        <time>2019-08-09T06:32:32Z</time>
      </trkpt>
      <trkpt lat="44.20076" lon="5.90305">
        <ele>501</ele>
        <time>2019-08-09T06:32:33Z</time>
      </trkpt>
      <trkpt lat="44.20073" lon="5.90308">
        <ele>501</ele>
        <time>2019-08-09T06:32:34Z</time>
      </trkpt>
      <trkpt lat="44.20071" lon="5.90312">
        <ele>501</ele>
        <time>2019-08-09T06:32:35Z</time>
      </trkpt>
      <trkpt lat="44.20069" lon="5.90316">
        <ele>501</ele>
        <time>2019-08-09T06:32:36Z</time>
      </trkpt>
      <trkpt lat="44.20066" lon="5.9032">
        <ele>502</ele>
        <time>2019-08-09T06:32:37Z</time>
      </trkpt>
      <trkpt lat="44.20064" lon="5.90324">
        <ele>502</ele>
        <time>2019-08-09T06:32:38Z</time>
      </trkpt>
      <trkpt lat="44.20062" lon="5.90328">
        <ele>502</ele>
        <time>2019-08-09T06:32:39Z</time>
      </trkpt>
      <trkpt lat="44.2006" lon="5.90332">
        <ele>502</ele>
        <time>2019-08-09T06:32:40Z</time>
      </trkpt>
      <trkpt lat="44.20057" lon="5.90337">
        <ele>503</ele>
        <time>2019-08-09T06:32:41Z</time>
      </trkpt>
      <trkpt lat="44.20055" lon="5.90341">
        <ele>503</ele>
        <time>2019-08-09T06:32:42Z</time>
      </trkpt>
      <trkpt lat="44.20053" lon="5.90345">
        <ele>503</ele>
        <time>2019-08-09T06:32:43Z</time>
      </trkpt>
      <trkpt lat="44.20051" lon="5.90349">
        <ele>503</ele>
        <time>2019-08-09T06:32:44Z</time>
      </trkpt>
      <trkpt lat="44.20049" lon="5.90353">
        <ele>504</ele>
        <time>2019-08-09T06:32:45Z</time>
      </trkpt>
      <trkpt lat="44.20046" lon="5.90357">
        <ele>504</ele>
        <time>2019-08-09T06:32:46Z</time>
      </trkpt>
      <trkpt lat="44.20044" lon="5.90361">
        <ele>504</ele>
        <time>2019-08-09T06:32:47Z</time>
      </trkpt>
      <trkpt lat="44.20042" lon="5.90365">
        <ele>504</ele>
        <time>2019-08-09T06:32:48Z</time>
      </trkpt>
      <trkpt lat="44.2004" lon="5.90369">
        <ele>504</ele>
        <time>2019-08-09T06:32:49Z</time>
      </trkpt>
      <trkpt lat="44.20039" lon="5.90373">
        <ele>505</ele>
        <time>2019-08-09T06:32:50Z</time>
      </trkpt>
      <trkpt lat="44.20037" lon="5.90377">
        <ele>505</ele>
        <time>2019-08-09T06:32:51Z</time>
      </trkpt>
      <trkpt lat="44.20036" lon="5.90381">
        <ele>505</ele>
        <time>2019-08-09T06:32:52Z</time>
      </trkpt>
      <trkpt lat="44.20035" lon="5.90386">
        <ele>506</ele>
        <time>2019-08-09T06:32:53Z</time>
      </trkpt>
      <trkpt lat="44.20035" lon="5.90392">
        <ele>506</ele>
        <time>2019-08-09T06:32:54Z</time>
      </trkpt>
      <trkpt lat="44.20035" lon="5.90397">
        <ele>506</ele>
        <time>2019-08-09T06:32:55Z</time>
      </trkpt>
      <trkpt lat="44.20035" lon="5.90403">
        <ele>506</ele>
        <time>2019-08-09T06:32:56Z</time>
      </trkpt>
      <trkpt lat="44.20035" lon="5.90408">
        <ele>507</ele>
        <time>2019-08-09T06:32:57Z</time>
      </trkpt>
      <trkpt lat="44.20034" lon="5.90414">
        <ele>507</ele>
        <time>2019-08-09T06:32:58Z</time>
      </trkpt>
      <trkpt lat="44.20034" lon="5.9042">
        <ele>507</ele>
        <time>2019-08-09T06:32:59Z</time>
      </trkpt>
      <trkpt lat="44.20033" lon="5.90425">
        <ele>508</ele>
        <time>2019-08-09T06:33:00Z</time>
      </trkpt>
      <trkpt lat="44.20032" lon="5.9043">
        <ele>508</ele>
        <time>2019-08-09T06:33:01Z</time>
      </trkpt>
      <trkpt lat="44.2003" lon="5.90436">
        <ele>509</ele>
        <time>2019-08-09T06:33:02Z</time>
      </trkpt>
      <trkpt lat="44.20029" lon="5.9044">
        <ele>509</ele>
        <time>2019-08-09T06:33:03Z</time>
      </trkpt>
      <trkpt lat="44.20028" lon="5.90445">
        <ele>509</ele>
        <time>2019-08-09T06:33:04Z</time>
      </trkpt>
      <trkpt lat="44.20027" lon="5.90449">
        <ele>510</ele>
        <time>2019-08-09T06:33:05Z</time>
      </trkpt>
      <trkpt lat="44.20026" lon="5.90452">
        <ele>510</ele>
        <time>2019-08-09T06:33:06Z</time>
      </trkpt>
      <trkpt lat="44.20023" lon="5.90455">
        <ele>510</ele>
        <time>2019-08-09T06:33:07Z</time>
      </trkpt>
      <trkpt lat="44.20022" lon="5.90459">
        <ele>510</ele>
        <time>2019-08-09T06:33:08Z</time>
      </trkpt>
      <trkpt lat="44.20021" lon="5.90463">
        <ele>510</ele>
        <time>2019-08-09T06:33:09Z</time>
      </trkpt>
      <trkpt lat="44.2002" lon="5.90466">
        <ele>511</ele>
        <time>2019-08-09T06:33:10Z</time>
      </trkpt>
      <trkpt lat="44.20018" lon="5.9047">
        <ele>511</ele>
        <time>2019-08-09T06:33:11Z</time>
      </trkpt>
      <trkpt lat="44.20016" lon="5.90475">
        <ele>511</ele>
        <time>2019-08-09T06:33:12Z</time>
      </trkpt>
      <trkpt lat="44.20015" lon="5.90479">
        <ele>512</ele>
        <time>2019-08-09T06:33:13Z</time>
      </trkpt>
      <trkpt lat="44.20014" lon="5.90483">
        <ele>513</ele>
        <time>2019-08-09T06:33:14Z</time>
      </trkpt>
      <trkpt lat="44.20013" lon="5.90487">
        <ele>513</ele>
        <time>2019-08-09T06:33:15Z</time>
      </trkpt>
      <trkpt lat="44.20012" lon="5.90491">
        <ele>514</ele>
        <time>2019-08-09T06:33:16Z</time>
      </trkpt>
      <trkpt lat="44.2001" lon="5.90495">
        <ele>515</ele>
        <time>2019-08-09T06:33:17Z</time>
      </trkpt>
      <trkpt lat="44.2001" lon="5.90499">
        <ele>515</ele>
        <time>2019-08-09T06:33:18Z</time>
      </trkpt>
      <trkpt lat="44.20009" lon="5.90503">
        <ele>515</ele>
        <time>2019-08-09T06:33:19Z</time>
      </trkpt>
      <trkpt lat="44.20009" lon="5.90508">
        <ele>516</ele>
        <time>2019-08-09T06:33:20Z</time>
      </trkpt>
      <trkpt lat="44.20008" lon="5.90511">
        <ele>516</ele>
        <time>2019-08-09T06:33:21Z</time>
      </trkpt>
      <trkpt lat="44.20007" lon="5.90515">
        <ele>516</ele>
        <time>2019-08-09T06:33:22Z</time>
      </trkpt>
      <trkpt lat="44.20006" lon="5.90519">
        <ele>516</ele>
        <time>2019-08-09T06:33:23Z</time>
      </trkpt>
      <trkpt lat="44.20006" lon="5.90522">
        <ele>516</ele>
        <time>2019-08-09T06:33:24Z</time>
      </trkpt>
      <trkpt lat="44.20006" lon="5.90525">
        <ele>516</ele>
        <time>2019-08-09T06:33:25Z</time>
      </trkpt>
      <trkpt lat="44.20005" lon="5.90528">
        <ele>516</ele>
        <time>2019-08-09T06:33:26Z</time>
      </trkpt>
      <trkpt lat="44.20004" lon="5.90531">
        <ele>516</ele>
        <time>2019-08-09T06:33:27Z</time>
      </trkpt>
      <trkpt lat="44.20003" lon="5.90534">
        <ele>516</ele>
        <time>2019-08-09T06:33:28Z</time>
      </trkpt>
      <trkpt lat="44.20002" lon="5.90537">
        <ele>516</ele>
        <time>2019-08-09T06:33:29Z</time>
      </trkpt>
      <trkpt lat="44.20001" lon="5.90541">
        <ele>516</ele>
        <time>2019-08-09T06:33:30Z</time>
      </trkpt>
      <trkpt lat="44.19999" lon="5.90545">
        <ele>516</ele>
        <time>2019-08-09T06:33:31Z</time>
      </trkpt>
      <trkpt lat="44.19999" lon="5.90548">
        <ele>516</ele>
        <time>2019-08-09T06:33:32Z</time>
      </trkpt>
      <trkpt lat="44.19998" lon="5.90551">
        <ele>517</ele>
        <time>2019-08-09T06:33:33Z</time>
      </trkpt>
      <trkpt lat="44.19996" lon="5.90553">
        <ele>517</ele>
        <time>2019-08-09T06:33:34Z</time>
      </trkpt>
      <trkpt lat="44.19996" lon="5.90557">
        <ele>517</ele>
        <time>2019-08-09T06:33:35Z</time>
      </trkpt>
      <trkpt lat="44.19995" lon="5.9056">
        <ele>517</ele>
        <time>2019-08-09T06:33:36Z</time>
      </trkpt>
      <trkpt lat="44.19994" lon="5.90563">
        <ele>517</ele>
        <time>2019-08-09T06:33:37Z</time>
      </trkpt>
      <trkpt lat="44.19992" lon="5.90565">
        <ele>518</ele>
        <time>2019-08-09T06:33:38Z</time>
      </trkpt>
      <trkpt lat="44.19991" lon="5.90569">
        <ele>518</ele>
        <time>2019-08-09T06:33:39Z</time>
      </trkpt>
      <trkpt lat="44.19989" lon="5.90572">
        <ele>518</ele>
        <time>2019-08-09T06:33:40Z</time>
      </trkpt>
      <trkpt lat="44.1999" lon="5.90574">
        <ele>518</ele>
        <time>2019-08-09T06:33:41Z</time>
      </trkpt>
      <trkpt lat="44.1999" lon="5.90576">
        <ele>518</ele>
        <time>2019-08-09T06:33:42Z</time>
      </trkpt>
      <trkpt lat="44.1999" lon="5.90579">
        <ele>518</ele>
        <time>2019-08-09T06:33:43Z</time>
      </trkpt>
      <trkpt lat="44.1999" lon="5.90582">
        <ele>518</ele>
        <time>2019-08-09T06:33:44Z</time>
      </trkpt>
      <trkpt lat="44.19989" lon="5.90584">
        <ele>518</ele>
        <time>2019-08-09T06:33:45Z</time>
      </trkpt>
      <trkpt lat="44.19989" lon="5.90587">
        <ele>518</ele>
        <time>2019-08-09T06:33:46Z</time>
      </trkpt>
      <trkpt lat="44.19987" lon="5.90591">
        <ele>518</ele>
        <time>2019-08-09T06:33:47Z</time>
      </trkpt>
      <trkpt lat="44.19986" lon="5.90594">
        <ele>519</ele>
        <time>2019-08-09T06:33:48Z</time>
      </trkpt>
      <trkpt lat="44.19984" lon="5.90597">
        <ele>519</ele>
        <time>2019-08-09T06:33:49Z</time>
      </trkpt>
      <trkpt lat="44.19983" lon="5.90599">
        <ele>519</ele>
        <time>2019-08-09T06:33:50Z</time>
      </trkpt>
      <trkpt lat="44.19982" lon="5.90602">
        <ele>519</ele>
        <time>2019-08-09T06:33:51Z</time>
      </trkpt>
      <trkpt lat="44.19981" lon="5.90604">
        <ele>519</ele>
        <time>2019-08-09T06:33:52Z</time>
      </trkpt>
      <trkpt lat="44.19981" lon="5.90606">
        <ele>519</ele>
        <time>2019-08-09T06:33:53Z</time>
      </trkpt>
      <trkpt lat="44.1998" lon="5.90609">
        <ele>519</ele>
        <time>2019-08-09T06:33:54Z</time>
      </trkpt>
      <trkpt lat="44.19979" lon="5.90611">
        <ele>519</ele>
        <time>2019-08-09T06:33:55Z</time>
      </trkpt>
      <trkpt lat="44.19978" lon="5.90614">
        <ele>519</ele>
        <time>2019-08-09T06:33:56Z</time>
      </trkpt>
      <trkpt lat="44.19976" lon="5.90616">
        <ele>519</ele>
        <time>2019-08-09T06:33:57Z</time>
      </trkpt>
      <trkpt lat="44.19975" lon="5.90618">
        <ele>519</ele>
        <time>2019-08-09T06:33:58Z</time>
      </trkpt>
      <trkpt lat="44.19973" lon="5.90622">
        <ele>519</ele>
        <time>2019-08-09T06:33:59Z</time>
      </trkpt>
      <trkpt lat="44.19972" lon="5.90626">
        <ele>520</ele>
        <time>2019-08-09T06:34:00Z</time>
      </trkpt>
      <trkpt lat="44.19972" lon="5.90628">
        <ele>520</ele>
        <time>2019-08-09T06:34:01Z</time>
      </trkpt>
      <trkpt lat="44.19971" lon="5.90631">
        <ele>521</ele>
        <time>2019-08-09T06:34:02Z</time>
      </trkpt>
      <trkpt lat="44.1997" lon="5.90633">
        <ele>521</ele>
        <time>2019-08-09T06:34:03Z</time>
      </trkpt>
      <trkpt lat="44.19969" lon="5.90637">
        <ele>522</ele>
        <time>2019-08-09T06:34:04Z</time>
      </trkpt>
      <trkpt lat="44.19968" lon="5.9064">
        <ele>522</ele>
        <time>2019-08-09T06:34:05Z</time>
      </trkpt>
      <trkpt lat="44.19967" lon="5.90643">
        <ele>522</ele>
        <time>2019-08-09T06:34:06Z</time>
      </trkpt>
      <trkpt lat="44.19967" lon="5.90646">
        <ele>522</ele>
        <time>2019-08-09T06:34:07Z</time>
      </trkpt>
      <trkpt lat="44.19966" lon="5.90649">
        <ele>522</ele>
        <time>2019-08-09T06:34:08Z</time>
      </trkpt>
      <trkpt lat="44.19965" lon="5.90652">
        <ele>522</ele>
        <time>2019-08-09T06:34:09Z</time>
      </trkpt>
      <trkpt lat="44.19964" lon="5.90655">
        <ele>522</ele>
        <time>2019-08-09T06:34:10Z</time>
      </trkpt>
      <trkpt lat="44.19963" lon="5.90658">
        <ele>523</ele>
        <time>2019-08-09T06:34:11Z</time>
      </trkpt>
      <trkpt lat="44.19962" lon="5.9066">
        <ele>523</ele>
        <time>2019-08-09T06:34:12Z</time>
      </trkpt>
      <trkpt lat="44.19961" lon="5.90664">
        <ele>523</ele>
        <time>2019-08-09T06:34:13Z</time>
      </trkpt>
      <trkpt lat="44.1996" lon="5.90667">
        <ele>523</ele>
        <time>2019-08-09T06:34:14Z</time>
      </trkpt>
      <trkpt lat="44.1996" lon="5.90669">
        <ele>523</ele>
        <time>2019-08-09T06:34:15Z</time>
      </trkpt>
      <trkpt lat="44.19958" lon="5.90672">
        <ele>523</ele>
        <time>2019-08-09T06:34:16Z</time>
      </trkpt>
      <trkpt lat="44.19957" lon="5.90675">
        <ele>523</ele>
        <time>2019-08-09T06:34:17Z</time>
      </trkpt>
      <trkpt lat="44.19957" lon="5.90678">
        <ele>523</ele>
        <time>2019-08-09T06:34:18Z</time>
      </trkpt>
      <trkpt lat="44.19956" lon="5.90681">
        <ele>523</ele>
        <time>2019-08-09T06:34:19Z</time>
      </trkpt>
      <trkpt lat="44.19955" lon="5.90683">
        <ele>523</ele>
        <time>2019-08-09T06:34:20Z</time>
      </trkpt>
      <trkpt lat="44.19953" lon="5.90686">
        <ele>523</ele>
        <time>2019-08-09T06:34:21Z</time>
      </trkpt>
      <trkpt lat="44.19952" lon="5.90688">
        <ele>523</ele>
        <time>2019-08-09T06:34:22Z</time>
      </trkpt>
      <trkpt lat="44.1995" lon="5.90692">
        <ele>524</ele>
        <time>2019-08-09T06:34:23Z</time>
      </trkpt>
      <trkpt lat="44.19949" lon="5.90694">
        <ele>524</ele>
        <time>2019-08-09T06:34:24Z</time>
      </trkpt>
      <trkpt lat="44.19948" lon="5.90697">
        <ele>524</ele>
        <time>2019-08-09T06:34:25Z</time>
      </trkpt>
      <trkpt lat="44.19947" lon="5.90699">
        <ele>524</ele>
        <time>2019-08-09T06:34:26Z</time>
      </trkpt>
      <trkpt lat="44.19946" lon="5.90702">
        <ele>525</ele>
        <time>2019-08-09T06:34:27Z</time>
      </trkpt>
      <trkpt lat="44.19944" lon="5.90704">
        <ele>525</ele>
        <time>2019-08-09T06:34:28Z</time>
      </trkpt>
      <trkpt lat="44.19943" lon="5.90707">
        <ele>525</ele>
        <time>2019-08-09T06:34:29Z</time>
      </trkpt>
      <trkpt lat="44.19942" lon="5.90709">
        <ele>525</ele>
        <time>2019-08-09T06:34:30Z</time>
      </trkpt>
      <trkpt lat="44.19941" lon="5.9071">
        <ele>525</ele>
        <time>2019-08-09T06:34:31Z</time>
      </trkpt>
      <trkpt lat="44.1994" lon="5.90712">
        <ele>525</ele>
        <time>2019-08-09T06:34:32Z</time>
      </trkpt>
      <trkpt lat="44.19939" lon="5.90715">
        <ele>525</ele>
        <time>2019-08-09T06:34:33Z</time>
      </trkpt>
      <trkpt lat="44.19937" lon="5.90717">
        <ele>525</ele>
        <time>2019-08-09T06:34:34Z</time>
      </trkpt>
      <trkpt lat="44.19936" lon="5.9072">
        <ele>525</ele>
        <time>2019-08-09T06:34:35Z</time>
      </trkpt>
      <trkpt lat="44.19934" lon="5.90722">
        <ele>526</ele>
        <time>2019-08-09T06:34:36Z</time>
      </trkpt>
      <trkpt lat="44.19933" lon="5.90724">
        <ele>526</ele>
        <time>2019-08-09T06:34:37Z</time>
      </trkpt>
      <trkpt lat="44.19931" lon="5.90726">
        <ele>526</ele>
        <time>2019-08-09T06:34:38Z</time>
      </trkpt>
      <trkpt lat="44.1993" lon="5.90728">
        <ele>526</ele>
        <time>2019-08-09T06:34:39Z</time>
      </trkpt>
      <trkpt lat="44.19928" lon="5.9073">
        <ele>526</ele>
        <time>2019-08-09T06:34:40Z</time>
      </trkpt>
      <trkpt lat="44.19927" lon="5.90731">
        <ele>526</ele>
        <time>2019-08-09T06:34:41Z</time>
      </trkpt>
      <trkpt lat="44.19925" lon="5.90733">
        <ele>527</ele>
        <time>2019-08-09T06:34:42Z</time>
      </trkpt>
      <trkpt lat="44.19924" lon="5.90734">
        <ele>527</ele>
        <time>2019-08-09T06:34:43Z</time>
      </trkpt>
      <trkpt lat="44.19922" lon="5.90736">
        <ele>527</ele>
        <time>2019-08-09T06:34:44Z</time>
      </trkpt>
      <trkpt lat="44.1992" lon="5.90738">
        <ele>527</ele>
        <time>2019-08-09T06:34:45Z</time>
      </trkpt>
      <trkpt lat="44.1992" lon="5.90739">
        <ele>527</ele>
        <time>2019-08-09T06:34:46Z</time>
      </trkpt>
      <trkpt lat="44.19918" lon="5.9074">
        <ele>528</ele>
        <time>2019-08-09T06:34:47Z</time>
      </trkpt>
      <trkpt lat="44.19916" lon="5.90741">
        <ele>528</ele>
        <time>2019-08-09T06:34:48Z</time>
      </trkpt>
      <trkpt lat="44.19914" lon="5.90742">
        <ele>529</ele>
        <time>2019-08-09T06:34:49Z</time>
      </trkpt>
      <trkpt lat="44.19912" lon="5.90743">
        <ele>529</ele>
        <time>2019-08-09T06:34:50Z</time>
      </trkpt>
      <trkpt lat="44.1991" lon="5.90744">
        <ele>529</ele>
        <time>2019-08-09T06:34:51Z</time>
      </trkpt>
      <trkpt lat="44.19909" lon="5.90744">
        <ele>530</ele>
        <time>2019-08-09T06:34:52Z</time>
      </trkpt>
      <trkpt lat="44.19906" lon="5.90745">
        <ele>530</ele>
        <time>2019-08-09T06:34:53Z</time>
      </trkpt>
      <trkpt lat="44.19904" lon="5.90745">
        <ele>530</ele>
        <time>2019-08-09T06:34:54Z</time>
      </trkpt>
      <trkpt lat="44.19902" lon="5.90746">
        <ele>531</ele>
        <time>2019-08-09T06:34:55Z</time>
      </trkpt>
      <trkpt lat="44.19901" lon="5.90746">
        <ele>531</ele>
        <time>2019-08-09T06:34:56Z</time>
      </trkpt>
      <trkpt lat="44.19898" lon="5.90746">
        <ele>531</ele>
        <time>2019-08-09T06:34:57Z</time>
      </trkpt>
      <trkpt lat="44.19896" lon="5.90746">
        <ele>531</ele>
        <time>2019-08-09T06:34:58Z</time>
      </trkpt>
      <trkpt lat="44.19894" lon="5.90747">
        <ele>532</ele>
        <time>2019-08-09T06:34:59Z</time>
      </trkpt>
      <trkpt lat="44.19892" lon="5.90747">
        <ele>532</ele>
        <time>2019-08-09T06:35:00Z</time>
      </trkpt>
      <trkpt lat="44.19889" lon="5.90747">
        <ele>532</ele>
        <time>2019-08-09T06:35:01Z</time>
      </trkpt>
      <trkpt lat="44.19887" lon="5.90747">
        <ele>532</ele>
        <time>2019-08-09T06:35:02Z</time>
      </trkpt>
      <trkpt lat="44.19885" lon="5.90747">
        <ele>533</ele>
        <time>2019-08-09T06:35:03Z</time>
      </trkpt>
      <trkpt lat="44.19883" lon="5.90747">
        <ele>533</ele>
        <time>2019-08-09T06:35:04Z</time>
      </trkpt>
      <trkpt lat="44.19881" lon="5.90747">
        <ele>533</ele>
        <time>2019-08-09T06:35:05Z</time>
      </trkpt>
      <trkpt lat="44.19878" lon="5.90747">
        <ele>534</ele>
        <time>2019-08-09T06:35:06Z</time>
      </trkpt>
      <trkpt lat="44.19877" lon="5.90748">
        <ele>534</ele>
        <time>2019-08-09T06:35:07Z</time>
      </trkpt>
      <trkpt lat="44.19875" lon="5.90749">
        <ele>534</ele>
        <time>2019-08-09T06:35:08Z</time>
      </trkpt>
      <trkpt lat="44.19873" lon="5.9075">
        <ele>535</ele>
        <time>2019-08-09T06:35:09Z</time>
      </trkpt>
      <trkpt lat="44.19872" lon="5.90752">
        <ele>535</ele>
        <time>2019-08-09T06:35:10Z</time>
      </trkpt>
      <trkpt lat="44.1987" lon="5.90753">
        <ele>536</ele>
        <time>2019-08-09T06:35:11Z</time>
      </trkpt>
      <trkpt lat="44.19869" lon="5.90755">
        <ele>536</ele>
        <time>2019-08-09T06:35:12Z</time>
      </trkpt>
      <trkpt lat="44.19867" lon="5.90756">
        <ele>537</ele>
        <time>2019-08-09T06:35:13Z</time>
      </trkpt>
      <trkpt lat="44.19866" lon="5.90757">
        <ele>537</ele>
        <time>2019-08-09T06:35:14Z</time>
      </trkpt>
      <trkpt lat="44.19864" lon="5.90759">
        <ele>538</ele>
        <time>2019-08-09T06:35:15Z</time>
      </trkpt>
      <trkpt lat="44.19862" lon="5.9076">
        <ele>538</ele>
        <time>2019-08-09T06:35:16Z</time>
      </trkpt>
      <trkpt lat="44.19861" lon="5.90761">
        <ele>538</ele>
        <time>2019-08-09T06:35:17Z</time>
      </trkpt>
      <trkpt lat="44.19859" lon="5.90762">
        <ele>538</ele>
        <time>2019-08-09T06:35:18Z</time>
      </trkpt>
      <trkpt lat="44.19856" lon="5.90762">
        <ele>539</ele>
        <time>2019-08-09T06:35:19Z</time>
      </trkpt>
      <trkpt lat="44.19853" lon="5.90764">
        <ele>539</ele>
        <time>2019-08-09T06:35:20Z</time>
      </trkpt>
      <trkpt lat="44.19852" lon="5.90766">
        <ele>539</ele>
        <time>2019-08-09T06:35:21Z</time>
      </trkpt>
      <trkpt lat="44.1985" lon="5.90767">
        <ele>539</ele>
        <time>2019-08-09T06:35:22Z</time>
      </trkpt>
      <trkpt lat="44.19848" lon="5.90769">
        <ele>539</ele>
        <time>2019-08-09T06:35:23Z</time>
      </trkpt>
      <trkpt lat="44.19847" lon="5.90771">
        <ele>539</ele>
        <time>2019-08-09T06:35:24Z</time>
      </trkpt>
      <trkpt lat="44.19846" lon="5.90773">
        <ele>539</ele>
        <time>2019-08-09T06:35:25Z</time>
      </trkpt>
      <trkpt lat="44.19844" lon="5.90775">
        <ele>539</ele>
        <time>2019-08-09T06:35:26Z</time>
      </trkpt>
      <trkpt lat="44.19842" lon="5.90778">
        <ele>540</ele>
        <time>2019-08-09T06:35:27Z</time>
      </trkpt>
      <trkpt lat="44.1984" lon="5.9078">
        <ele>541</ele>
        <time>2019-08-09T06:35:28Z</time>
      </trkpt>
      <trkpt lat="44.19838" lon="5.90783">
        <ele>541</ele>
        <time>2019-08-09T06:35:29Z</time>
      </trkpt>
      <trkpt lat="44.19836" lon="5.90785">
        <ele>542</ele>
        <time>2019-08-09T06:35:30Z</time>
      </trkpt>
      <trkpt lat="44.19834" lon="5.90787">
        <ele>542</ele>
        <time>2019-08-09T06:35:31Z</time>
      </trkpt>
      <trkpt lat="44.19832" lon="5.9079">
        <ele>542</ele>
        <time>2019-08-09T06:35:32Z</time>
      </trkpt>
      <trkpt lat="44.1983" lon="5.90793">
        <ele>542</ele>
        <time>2019-08-09T06:35:33Z</time>
      </trkpt>
      <trkpt lat="44.19828" lon="5.90796">
        <ele>542</ele>
        <time>2019-08-09T06:35:34Z</time>
      </trkpt>
      <trkpt lat="44.19828" lon="5.908">
        <ele>542</ele>
        <time>2019-08-09T06:35:35Z</time>
      </trkpt>
      <trkpt lat="44.19826" lon="5.90804">
        <ele>543</ele>
        <time>2019-08-09T06:35:36Z</time>
      </trkpt>
      <trkpt lat="44.19826" lon="5.90808">
        <ele>544</ele>
        <time>2019-08-09T06:35:37Z</time>
      </trkpt>
      <trkpt lat="44.19826" lon="5.90811">
        <ele>545</ele>
        <time>2019-08-09T06:35:38Z</time>
      </trkpt>
      <trkpt lat="44.19826" lon="5.90815">
        <ele>546</ele>
        <time>2019-08-09T06:35:39Z</time>
      </trkpt>
      <trkpt lat="44.19827" lon="5.90819">
        <ele>547</ele>
        <time>2019-08-09T06:35:40Z</time>
      </trkpt>
      <trkpt lat="44.19829" lon="5.90823">
        <ele>548</ele>
        <time>2019-08-09T06:35:41Z</time>
      </trkpt>
      <trkpt lat="44.1983" lon="5.90827">
        <ele>548</ele>
        <time>2019-08-09T06:35:42Z</time>
      </trkpt>
      <trkpt lat="44.19832" lon="5.90831">
        <ele>549</ele>
        <time>2019-08-09T06:35:43Z</time>
      </trkpt>
      <trkpt lat="44.19834" lon="5.90835">
        <ele>550</ele>
        <time>2019-08-09T06:35:44Z</time>
      </trkpt>
      <trkpt lat="44.19836" lon="5.90839">
        <ele>551</ele>
        <time>2019-08-09T06:35:45Z</time>
      </trkpt>
      <trkpt lat="44.19837" lon="5.90843">
        <ele>551</ele>
        <time>2019-08-09T06:35:46Z</time>
      </trkpt>
      <trkpt lat="44.19839" lon="5.90847">
        <ele>552</ele>
        <time>2019-08-09T06:35:47Z</time>
      </trkpt>
      <trkpt lat="44.1984" lon="5.90852">
        <ele>553</ele>
        <time>2019-08-09T06:35:48Z</time>
      </trkpt>
      <trkpt lat="44.19841" lon="5.90857">
        <ele>553</ele>
        <time>2019-08-09T06:35:49Z</time>
      </trkpt>
      <trkpt lat="44.19842" lon="5.90861">
        <ele>553</ele>
        <time>2019-08-09T06:35:50Z</time>
      </trkpt>
      <trkpt lat="44.19843" lon="5.90866">
        <ele>554</ele>
        <time>2019-08-09T06:35:51Z</time>
      </trkpt>
      <trkpt lat="44.19844" lon="5.90871">
        <ele>554</ele>
        <time>2019-08-09T06:35:52Z</time>
      </trkpt>
      <trkpt lat="44.19844" lon="5.90876">
        <ele>554</ele>
        <time>2019-08-09T06:35:53Z</time>
      </trkpt>
      <trkpt lat="44.19844" lon="5.9088">
        <ele>554</ele>
        <time>2019-08-09T06:35:54Z</time>
      </trkpt>
      <trkpt lat="44.19843" lon="5.90885">
        <ele>555</ele>
        <time>2019-08-09T06:35:55Z</time>
      </trkpt>
      <trkpt lat="44.19842" lon="5.9089">
        <ele>555</ele>
        <time>2019-08-09T06:35:56Z</time>
      </trkpt>
      <trkpt lat="44.19842" lon="5.90894">
        <ele>555</ele>
        <time>2019-08-09T06:35:57Z</time>
      </trkpt>
      <trkpt lat="44.19841" lon="5.90899">
        <ele>555</ele>
        <time>2019-08-09T06:35:58Z</time>
      </trkpt>
      <trkpt lat="44.19839" lon="5.90903">
        <ele>555</ele>
        <time>2019-08-09T06:35:59Z</time>
      </trkpt>
      <trkpt lat="44.19839" lon="5.90908">
        <ele>555</ele>
        <time>2019-08-09T06:36:00Z</time>
      </trkpt>
      <trkpt lat="44.19838" lon="5.90912">
        <ele>555</ele>
        <time>2019-08-09T06:36:01Z</time>
      </trkpt>
      <trkpt lat="44.19836" lon="5.90916">
        <ele>555</ele>
        <time>2019-08-09T06:36:02Z</time>
      </trkpt>
      <trkpt lat="44.19835" lon="5.90921">
        <ele>555</ele>
        <time>2019-08-09T06:36:03Z</time>
      </trkpt>
      <trkpt lat="44.19834" lon="5.90925">
        <ele>555</ele>
        <time>2019-08-09T06:36:04Z</time>
      </trkpt>
      <trkpt lat="44.19833" lon="5.90929">
        <ele>555</ele>
        <time>2019-08-09T06:36:05Z</time>
      </trkpt>
      <trkpt lat="44.19833" lon="5.90933">
        <ele>555</ele>
        <time>2019-08-09T06:36:06Z</time>
      </trkpt>
      <trkpt lat="44.19832" lon="5.90938">
        <ele>555</ele>
        <time>2019-08-09T06:36:07Z</time>
      </trkpt>
      <trkpt lat="44.19831" lon="5.90942">
        <ele>555</ele>
        <time>2019-08-09T06:36:08Z</time>
      </trkpt>
      <trkpt lat="44.1983" lon="5.90947">
        <ele>555</ele>
        <time>2019-08-09T06:36:09Z</time>
      </trkpt>
      <trkpt lat="44.1983" lon="5.90951">
        <ele>555</ele>
        <time>2019-08-09T06:36:10Z</time>
      </trkpt>
      <trkpt lat="44.19829" lon="5.90956">
        <ele>555</ele>
        <time>2019-08-09T06:36:11Z</time>
      </trkpt>
      <trkpt lat="44.19828" lon="5.9096">
        <ele>555</ele>
        <time>2019-08-09T06:36:12Z</time>
      </trkpt>
      <trkpt lat="44.19827" lon="5.90964">
        <ele>555</ele>
        <time>2019-08-09T06:36:13Z</time>
      </trkpt>
      <trkpt lat="44.19827" lon="5.90968">
        <ele>555</ele>
        <time>2019-08-09T06:36:14Z</time>
      </trkpt>
      <trkpt lat="44.19826" lon="5.90973">
        <ele>555</ele>
        <time>2019-08-09T06:36:15Z</time>
      </trkpt>
      <trkpt lat="44.19826" lon="5.90977">
        <ele>555</ele>
        <time>2019-08-09T06:36:16Z</time>
      </trkpt>
      <trkpt lat="44.19825" lon="5.90981">
        <ele>555</ele>
        <time>2019-08-09T06:36:17Z</time>
      </trkpt>
      <trkpt lat="44.19824" lon="5.90985">
        <ele>555</ele>
        <time>2019-08-09T06:36:18Z</time>
      </trkpt>
      <trkpt lat="44.19824" lon="5.90989">
        <ele>555</ele>
        <time>2019-08-09T06:36:19Z</time>
      </trkpt>
      <trkpt lat="44.19823" lon="5.90993">
        <ele>555</ele>
        <time>2019-08-09T06:36:20Z</time>
      </trkpt>
      <trkpt lat="44.19823" lon="5.90997">
        <ele>555</ele>
        <time>2019-08-09T06:36:21Z</time>
      </trkpt>
      <trkpt lat="44.19822" lon="5.91">
        <ele>555</ele>
        <time>2019-08-09T06:36:22Z</time>
      </trkpt>
      <trkpt lat="44.19823" lon="5.91004">
        <ele>555</ele>
        <time>2019-08-09T06:36:23Z</time>
      </trkpt>
      <trkpt lat="44.19823" lon="5.91008">
        <ele>555</ele>
        <time>2019-08-09T06:36:24Z</time>
      </trkpt>
      <trkpt lat="44.19823" lon="5.91012">
        <ele>555</ele>
        <time>2019-08-09T06:36:25Z</time>
      </trkpt>
      <trkpt lat="44.19823" lon="5.91016">
        <ele>555</ele>
        <time>2019-08-09T06:36:26Z</time>
      </trkpt>
      <trkpt lat="44.19823" lon="5.9102">
        <ele>555</ele>
        <time>2019-08-09T06:36:27Z</time>
      </trkpt>
      <trkpt lat="44.19823" lon="5.91024">
        <ele>555</ele>
        <time>2019-08-09T06:36:28Z</time>
      </trkpt>
      <trkpt lat="44.19822" lon="5.91027">
        <ele>555</ele>
        <time>2019-08-09T06:36:29Z</time>
      </trkpt>
      <trkpt lat="44.19822" lon="5.91031">
        <ele>555</ele>
        <time>2019-08-09T06:36:30Z</time>
      </trkpt>
      <trkpt lat="44.19822" lon="5.91035">
        <ele>555</ele>
        <time>2019-08-09T06:36:31Z</time>
      </trkpt>
      <trkpt lat="44.19821" lon="5.91039">
        <ele>555</ele>
        <time>2019-08-09T06:36:32Z</time>
      </trkpt>
      <trkpt lat="44.1982" lon="5.91043">
        <ele>555</ele>
        <time>2019-08-09T06:36:33Z</time>
      </trkpt>
      <trkpt lat="44.1982" lon="5.91046">
        <ele>555</ele>
        <time>2019-08-09T06:36:34Z</time>
      </trkpt>
      <trkpt lat="44.19818" lon="5.9105">
        <ele>556</ele>
        <time>2019-08-09T06:36:35Z</time>
      </trkpt>
      <trkpt lat="44.19817" lon="5.91054">
        <ele>556</ele>
        <time>2019-08-09T06:36:36Z</time>
      </trkpt>
      <trkpt lat="44.19815" lon="5.91058">
        <ele>556</ele>
        <time>2019-08-09T06:36:37Z</time>
      </trkpt>
      <trkpt lat="44.19814" lon="5.91062">
        <ele>556</ele>
        <time>2019-08-09T06:36:38Z</time>
      </trkpt>
      <trkpt lat="44.19813" lon="5.91066">
        <ele>556</ele>
        <time>2019-08-09T06:36:39Z</time>
      </trkpt>
      <trkpt lat="44.19812" lon="5.91071">
        <ele>556</ele>
        <time>2019-08-09T06:36:40Z</time>
      </trkpt>
      <trkpt lat="44.1981" lon="5.91076">
        <ele>556</ele>
        <time>2019-08-09T06:36:41Z</time>
      </trkpt>
      <trkpt lat="44.19809" lon="5.91081">
        <ele>556</ele>
        <time>2019-08-09T06:36:42Z</time>
      </trkpt>
      <trkpt lat="44.19807" lon="5.91085">
        <ele>557</ele>
        <time>2019-08-09T06:36:43Z</time>
      </trkpt>
      <trkpt lat="44.19805" lon="5.9109">
        <ele>557</ele>
        <time>2019-08-09T06:36:44Z</time>
      </trkpt>
      <trkpt lat="44.19804" lon="5.91094">
        <ele>557</ele>
        <time>2019-08-09T06:36:45Z</time>
      </trkpt>
      <trkpt lat="44.19803" lon="5.91099">
        <ele>557</ele>
        <time>2019-08-09T06:36:46Z</time>
      </trkpt>
      <trkpt lat="44.19802" lon="5.91104">
        <ele>557</ele>
        <time>2019-08-09T06:36:47Z</time>
      </trkpt>
      <trkpt lat="44.19801" lon="5.91109">
        <ele>557</ele>
        <time>2019-08-09T06:36:48Z</time>
      </trkpt>
      <trkpt lat="44.198" lon="5.91114">
        <ele>557</ele>
        <time>2019-08-09T06:36:49Z</time>
      </trkpt>
      <trkpt lat="44.19799" lon="5.91117">
        <ele>557</ele>
        <time>2019-08-09T06:36:50Z</time>
      </trkpt>
      <trkpt lat="44.19798" lon="5.91121">
        <ele>558</ele>
        <time>2019-08-09T06:36:51Z</time>
      </trkpt>
      <trkpt lat="44.19797" lon="5.91125">
        <ele>558</ele>
        <time>2019-08-09T06:36:52Z</time>
      </trkpt>
      <trkpt lat="44.19796" lon="5.9113">
        <ele>559</ele>
        <time>2019-08-09T06:36:53Z</time>
      </trkpt>
      <trkpt lat="44.19796" lon="5.91134">
        <ele>559</ele>
        <time>2019-08-09T06:36:54Z</time>
      </trkpt>
      <trkpt lat="44.19794" lon="5.91138">
        <ele>560</ele>
        <time>2019-08-09T06:36:55Z</time>
      </trkpt>
      <trkpt lat="44.19793" lon="5.91143">
        <ele>560</ele>
        <time>2019-08-09T06:36:56Z</time>
      </trkpt>
      <trkpt lat="44.19792" lon="5.91147">
        <ele>561</ele>
        <time>2019-08-09T06:36:57Z</time>
      </trkpt>
      <trkpt lat="44.19791" lon="5.91151">
        <ele>561</ele>
        <time>2019-08-09T06:36:58Z</time>
      </trkpt>
      <trkpt lat="44.1979" lon="5.91155">
        <ele>561</ele>
        <time>2019-08-09T06:36:59Z</time>
      </trkpt>
      <trkpt lat="44.19789" lon="5.91159">
        <ele>562</ele>
        <time>2019-08-09T06:37:00Z</time>
      </trkpt>
      <trkpt lat="44.19788" lon="5.91164">
        <ele>562</ele>
        <time>2019-08-09T06:37:01Z</time>
      </trkpt>
      <trkpt lat="44.19786" lon="5.91168">
        <ele>562</ele>
        <time>2019-08-09T06:37:02Z</time>
      </trkpt>
      <trkpt lat="44.19785" lon="5.91172">
        <ele>562</ele>
        <time>2019-08-09T06:37:03Z</time>
      </trkpt>
      <trkpt lat="44.19784" lon="5.91176">
        <ele>563</ele>
        <time>2019-08-09T06:37:04Z</time>
      </trkpt>
      <trkpt lat="44.19783" lon="5.9118">
        <ele>563</ele>
        <time>2019-08-09T06:37:05Z</time>
      </trkpt>
      <trkpt lat="44.19781" lon="5.91184">
        <ele>563</ele>
        <time>2019-08-09T06:37:06Z</time>
      </trkpt>
      <trkpt lat="44.1978" lon="5.91188">
        <ele>563</ele>
        <time>2019-08-09T06:37:07Z</time>
      </trkpt>
      <trkpt lat="44.19778" lon="5.91192">
        <ele>563</ele>
        <time>2019-08-09T06:37:08Z</time>
      </trkpt>
      <trkpt lat="44.19777" lon="5.91197">
        <ele>563</ele>
        <time>2019-08-09T06:37:09Z</time>
      </trkpt>
      <trkpt lat="44.19776" lon="5.91201">
        <ele>563</ele>
        <time>2019-08-09T06:37:10Z</time>
      </trkpt>
      <trkpt lat="44.19774" lon="5.91206">
        <ele>563</ele>
        <time>2019-08-09T06:37:11Z</time>
      </trkpt>
      <trkpt lat="44.19773" lon="5.9121">
        <ele>563</ele>
        <time>2019-08-09T06:37:12Z</time>
      </trkpt>
      <trkpt lat="44.19771" lon="5.91215">
        <ele>563</ele>
        <time>2019-08-09T06:37:13Z</time>
      </trkpt>
      <trkpt lat="44.19769" lon="5.91219">
        <ele>563</ele>
        <time>2019-08-09T06:37:14Z</time>
      </trkpt>
      <trkpt lat="44.19768" lon="5.91224">
        <ele>564</ele>
        <time>2019-08-09T06:37:15Z</time>
      </trkpt>
      <trkpt lat="44.19766" lon="5.91229">
        <ele>564</ele>
        <time>2019-08-09T06:37:16Z</time>
      </trkpt>
      <trkpt lat="44.19764" lon="5.91233">
        <ele>564</ele>
        <time>2019-08-09T06:37:17Z</time>
      </trkpt>
      <trkpt lat="44.19763" lon="5.91238">
        <ele>564</ele>
        <time>2019-08-09T06:37:18Z</time>
      </trkpt>
      <trkpt lat="44.19761" lon="5.91243">
        <ele>564</ele>
        <time>2019-08-09T06:37:19Z</time>
      </trkpt>
      <trkpt lat="44.19759" lon="5.91247">
        <ele>564</ele>
        <time>2019-08-09T06:37:20Z</time>
      </trkpt>
      <trkpt lat="44.19758" lon="5.91252">
        <ele>564</ele>
        <time>2019-08-09T06:37:21Z</time>
      </trkpt>
      <trkpt lat="44.19756" lon="5.91256">
        <ele>565</ele>
        <time>2019-08-09T06:37:22Z</time>
      </trkpt>
      <trkpt lat="44.19755" lon="5.91261">
        <ele>565</ele>
        <time>2019-08-09T06:37:23Z</time>
      </trkpt>
      <trkpt lat="44.19753" lon="5.91265">
        <ele>565</ele>
        <time>2019-08-09T06:37:24Z</time>
      </trkpt>
      <trkpt lat="44.19751" lon="5.9127">
        <ele>565</ele>
        <time>2019-08-09T06:37:25Z</time>
      </trkpt>
      <trkpt lat="44.19749" lon="5.91274">
        <ele>565</ele>
        <time>2019-08-09T06:37:26Z</time>
      </trkpt>
      <trkpt lat="44.19747" lon="5.91278">
        <ele>565</ele>
        <time>2019-08-09T06:37:27Z</time>
      </trkpt>
      <trkpt lat="44.19746" lon="5.91282">
        <ele>565</ele>
        <time>2019-08-09T06:37:28Z</time>
      </trkpt>
      <trkpt lat="44.19743" lon="5.91287">
        <ele>565</ele>
        <time>2019-08-09T06:37:29Z</time>
      </trkpt>
      <trkpt lat="44.19742" lon="5.91291">
        <ele>565</ele>
        <time>2019-08-09T06:37:30Z</time>
      </trkpt>
      <trkpt lat="44.1974" lon="5.91296">
        <ele>566</ele>
        <time>2019-08-09T06:37:31Z</time>
      </trkpt>
      <trkpt lat="44.19738" lon="5.913">
        <ele>566</ele>
        <time>2019-08-09T06:37:32Z</time>
      </trkpt>
      <trkpt lat="44.19736" lon="5.91305">
        <ele>566</ele>
        <time>2019-08-09T06:37:33Z</time>
      </trkpt>
      <trkpt lat="44.19735" lon="5.9131">
        <ele>566</ele>
        <time>2019-08-09T06:37:34Z</time>
      </trkpt>
      <trkpt lat="44.19733" lon="5.91314">
        <ele>566</ele>
        <time>2019-08-09T06:37:35Z</time>
      </trkpt>
      <trkpt lat="44.19731" lon="5.91319">
        <ele>566</ele>
        <time>2019-08-09T06:37:36Z</time>
      </trkpt>
      <trkpt lat="44.1973" lon="5.91323">
        <ele>566</ele>
        <time>2019-08-09T06:37:37Z</time>
      </trkpt>
      <trkpt lat="44.19728" lon="5.91327">
        <ele>566</ele>
        <time>2019-08-09T06:37:38Z</time>
      </trkpt>
      <trkpt lat="44.19726" lon="5.91331">
        <ele>566</ele>
        <time>2019-08-09T06:37:39Z</time>
      </trkpt>
      <trkpt lat="44.19725" lon="5.91335">
        <ele>567</ele>
        <time>2019-08-09T06:37:40Z</time>
      </trkpt>
      <trkpt lat="44.19723" lon="5.9134">
        <ele>567</ele>
        <time>2019-08-09T06:37:41Z</time>
      </trkpt>
      <trkpt lat="44.19722" lon="5.91344">
        <ele>567</ele>
        <time>2019-08-09T06:37:42Z</time>
      </trkpt>
      <trkpt lat="44.1972" lon="5.91348">
        <ele>567</ele>
        <time>2019-08-09T06:37:43Z</time>
      </trkpt>
      <trkpt lat="44.19719" lon="5.91352">
        <ele>567</ele>
        <time>2019-08-09T06:37:44Z</time>
      </trkpt>
      <trkpt lat="44.19718" lon="5.91356">
        <ele>567</ele>
        <time>2019-08-09T06:37:45Z</time>
      </trkpt>
      <trkpt lat="44.19716" lon="5.9136">
        <ele>568</ele>
        <time>2019-08-09T06:37:46Z</time>
      </trkpt>
      <trkpt lat="44.19714" lon="5.91364">
        <ele>568</ele>
        <time>2019-08-09T06:37:47Z</time>
      </trkpt>
      <trkpt lat="44.19713" lon="5.91368">
        <ele>568</ele>
        <time>2019-08-09T06:37:48Z</time>
      </trkpt>
      <trkpt lat="44.19711" lon="5.91372">
        <ele>568</ele>
        <time>2019-08-09T06:37:49Z</time>
      </trkpt>
      <trkpt lat="44.1971" lon="5.91377">
        <ele>568</ele>
        <time>2019-08-09T06:37:50Z</time>
      </trkpt>
      <trkpt lat="44.19708" lon="5.91381">
        <ele>568</ele>
        <time>2019-08-09T06:37:51Z</time>
      </trkpt>
      <trkpt lat="44.19706" lon="5.91386">
        <ele>568</ele>
        <time>2019-08-09T06:37:52Z</time>
      </trkpt>
      <trkpt lat="44.19704" lon="5.91391">
        <ele>568</ele>
        <time>2019-08-09T06:37:53Z</time>
      </trkpt>
      <trkpt lat="44.19703" lon="5.91395">
        <ele>569</ele>
        <time>2019-08-09T06:37:54Z</time>
      </trkpt>
      <trkpt lat="44.19701" lon="5.914">
        <ele>569</ele>
        <time>2019-08-09T06:37:55Z</time>
      </trkpt>
      <trkpt lat="44.19699" lon="5.91404">
        <ele>569</ele>
        <time>2019-08-09T06:37:56Z</time>
      </trkpt>
      <trkpt lat="44.19696" lon="5.9141">
        <ele>569</ele>
        <time>2019-08-09T06:37:57Z</time>
      </trkpt>
      <trkpt lat="44.19694" lon="5.91416">
        <ele>569</ele>
        <time>2019-08-09T06:37:58Z</time>
      </trkpt>
      <trkpt lat="44.19692" lon="5.91421">
        <ele>570</ele>
        <time>2019-08-09T06:37:59Z</time>
      </trkpt>
      <trkpt lat="44.1969" lon="5.91427">
        <ele>570</ele>
        <time>2019-08-09T06:38:00Z</time>
      </trkpt>
      <trkpt lat="44.19687" lon="5.91433">
        <ele>570</ele>
        <time>2019-08-09T06:38:01Z</time>
      </trkpt>
      <trkpt lat="44.19685" lon="5.9144">
        <ele>570</ele>
        <time>2019-08-09T06:38:02Z</time>
      </trkpt>
      <trkpt lat="44.19682" lon="5.91447">
        <ele>570</ele>
        <time>2019-08-09T06:38:03Z</time>
      </trkpt>
      <trkpt lat="44.1968" lon="5.91454">
        <ele>570</ele>
        <time>2019-08-09T06:38:04Z</time>
      </trkpt>
      <trkpt lat="44.19677" lon="5.91461">
        <ele>570</ele>
        <time>2019-08-09T06:38:05Z</time>
      </trkpt>
      <trkpt lat="44.19674" lon="5.91468">
        <ele>570</ele>
        <time>2019-08-09T06:38:06Z</time>
      </trkpt>
      <trkpt lat="44.19671" lon="5.91476">
        <ele>570</ele>
        <time>2019-08-09T06:38:07Z</time>
      </trkpt>
      <trkpt lat="44.19668" lon="5.91483">
        <ele>570</ele>
        <time>2019-08-09T06:38:08Z</time>
      </trkpt>
      <trkpt lat="44.19664" lon="5.91491">
        <ele>570</ele>
        <time>2019-08-09T06:38:09Z</time>
      </trkpt>
      <trkpt lat="44.19661" lon="5.91499">
        <ele>570</ele>
        <time>2019-08-09T06:38:10Z</time>
      </trkpt>
      <trkpt lat="44.19658" lon="5.91507">
        <ele>570</ele>
        <time>2019-08-09T06:38:11Z</time>
      </trkpt>
      <trkpt lat="44.19654" lon="5.91515">
        <ele>570</ele>
        <time>2019-08-09T06:38:12Z</time>
      </trkpt>
      <trkpt lat="44.19651" lon="5.91523">
        <ele>570</ele>
        <time>2019-08-09T06:38:13Z</time>
      </trkpt>
      <trkpt lat="44.19649" lon="5.91532">
        <ele>570</ele>
        <time>2019-08-09T06:38:14Z</time>
      </trkpt>
      <trkpt lat="44.19646" lon="5.9154">
        <ele>570</ele>
        <time>2019-08-09T06:38:15Z</time>
      </trkpt>
      <trkpt lat="44.19644" lon="5.91549">
        <ele>570</ele>
        <time>2019-08-09T06:38:16Z</time>
      </trkpt>
      <trkpt lat="44.19641" lon="5.91558">
        <ele>570</ele>
        <time>2019-08-09T06:38:17Z</time>
      </trkpt>
      <trkpt lat="44.19638" lon="5.91568">
        <ele>570</ele>
        <time>2019-08-09T06:38:18Z</time>
      </trkpt>
      <trkpt lat="44.19635" lon="5.91577">
        <ele>570</ele>
        <time>2019-08-09T06:38:19Z</time>
      </trkpt>
      <trkpt lat="44.19632" lon="5.91587">
        <ele>570</ele>
        <time>2019-08-09T06:38:20Z</time>
      </trkpt>
      <trkpt lat="44.1963" lon="5.91596">
        <ele>570</ele>
        <time>2019-08-09T06:38:21Z</time>
      </trkpt>
      <trkpt lat="44.19627" lon="5.91606">
        <ele>570</ele>
        <time>2019-08-09T06:38:22Z</time>
      </trkpt>
      <trkpt lat="44.19623" lon="5.91616">
        <ele>570</ele>
        <time>2019-08-09T06:38:23Z</time>
      </trkpt>
      <trkpt lat="44.1962" lon="5.91626">
        <ele>570</ele>
        <time>2019-08-09T06:38:24Z</time>
      </trkpt>
      <trkpt lat="44.19617" lon="5.91637">
        <ele>570</ele>
        <time>2019-08-09T06:38:25Z</time>
      </trkpt>
      <trkpt lat="44.19614" lon="5.91647">
        <ele>570</ele>
        <time>2019-08-09T06:38:26Z</time>
      </trkpt>
      <trkpt lat="44.19611" lon="5.91658">
        <ele>570</ele>
        <time>2019-08-09T06:38:27Z</time>
      </trkpt>
      <trkpt lat="44.19609" lon="5.9167">
        <ele>570</ele>
        <time>2019-08-09T06:38:28Z</time>
      </trkpt>
      <trkpt lat="44.19607" lon="5.91681">
        <ele>570</ele>
        <time>2019-08-09T06:38:29Z</time>
      </trkpt>
      <trkpt lat="44.19606" lon="5.91693">
        <ele>570</ele>
        <time>2019-08-09T06:38:30Z</time>
      </trkpt>
      <trkpt lat="44.19605" lon="5.91706">
        <ele>570</ele>
        <time>2019-08-09T06:38:31Z</time>
      </trkpt>
      <trkpt lat="44.19605" lon="5.91718">
        <ele>570</ele>
        <time>2019-08-09T06:38:32Z</time>
      </trkpt>
      <trkpt lat="44.19606" lon="5.91731">
        <ele>570</ele>
        <time>2019-08-09T06:38:33Z</time>
      </trkpt>
      <trkpt lat="44.19607" lon="5.91743">
        <ele>570</ele>
        <time>2019-08-09T06:38:34Z</time>
      </trkpt>
      <trkpt lat="44.19608" lon="5.91756">
        <ele>570</ele>
        <time>2019-08-09T06:38:35Z</time>
      </trkpt>
      <trkpt lat="44.19608" lon="5.91769">
        <ele>570</ele>
        <time>2019-08-09T06:38:36Z</time>
      </trkpt>
      <trkpt lat="44.19609" lon="5.91781">
        <ele>570</ele>
        <time>2019-08-09T06:38:37Z</time>
      </trkpt>
      <trkpt lat="44.19609" lon="5.91793">
        <ele>570</ele>
        <time>2019-08-09T06:38:38Z</time>
      </trkpt>
      <trkpt lat="44.19609" lon="5.91806">
        <ele>570</ele>
        <time>2019-08-09T06:38:39Z</time>
      </trkpt>
      <trkpt lat="44.1961" lon="5.91818">
        <ele>570</ele>
        <time>2019-08-09T06:38:40Z</time>
      </trkpt>
      <trkpt lat="44.19611" lon="5.9183">
        <ele>570</ele>
        <time>2019-08-09T06:38:41Z</time>
      </trkpt>
      <trkpt lat="44.19611" lon="5.91842">
        <ele>570</ele>
        <time>2019-08-09T06:38:42Z</time>
      </trkpt>
      <trkpt lat="44.19611" lon="5.91854">
        <ele>570</ele>
        <time>2019-08-09T06:38:43Z</time>
      </trkpt>
      <trkpt lat="44.19611" lon="5.91866">
        <ele>570</ele>
        <time>2019-08-09T06:38:44Z</time>
      </trkpt>
      <trkpt lat="44.19611" lon="5.91878">
        <ele>570</ele>
        <time>2019-08-09T06:38:45Z</time>
      </trkpt>
      <trkpt lat="44.1961" lon="5.9189">
        <ele>570</ele>
        <time>2019-08-09T06:38:46Z</time>
      </trkpt>
      <trkpt lat="44.19609" lon="5.91901">
        <ele>570</ele>
        <time>2019-08-09T06:38:47Z</time>
      </trkpt>
      <trkpt lat="44.19608" lon="5.91912">
        <ele>570</ele>
        <time>2019-08-09T06:38:48Z</time>
      </trkpt>
      <trkpt lat="44.19606" lon="5.91924">
        <ele>570</ele>
        <time>2019-08-09T06:38:49Z</time>
      </trkpt>
      <trkpt lat="44.19604" lon="5.91935">
        <ele>570</ele>
        <time>2019-08-09T06:38:50Z</time>
      </trkpt>
      <trkpt lat="44.19603" lon="5.91947">
        <ele>570</ele>
        <time>2019-08-09T06:38:51Z</time>
      </trkpt>
      <trkpt lat="44.19601" lon="5.91958">
        <ele>570</ele>
        <time>2019-08-09T06:38:52Z</time>
      </trkpt>
      <trkpt lat="44.19599" lon="5.91969">
        <ele>570</ele>
        <time>2019-08-09T06:38:53Z</time>
      </trkpt>
      <trkpt lat="44.19598" lon="5.91981">
        <ele>570</ele>
        <time>2019-08-09T06:38:54Z</time>
      </trkpt>
      <trkpt lat="44.19596" lon="5.91992">
        <ele>569</ele>
        <time>2019-08-09T06:38:55Z</time>
      </trkpt>
      <trkpt lat="44.19595" lon="5.92003">
        <ele>569</ele>
        <time>2019-08-09T06:38:56Z</time>
      </trkpt>
      <trkpt lat="44.19594" lon="5.92015">
        <ele>568</ele>
        <time>2019-08-09T06:38:57Z</time>
      </trkpt>
      <trkpt lat="44.19592" lon="5.92026">
        <ele>568</ele>
        <time>2019-08-09T06:38:58Z</time>
      </trkpt>
      <trkpt lat="44.1959" lon="5.92037">
        <ele>568</ele>
        <time>2019-08-09T06:38:59Z</time>
      </trkpt>
      <trkpt lat="44.19586" lon="5.92049">
        <ele>567</ele>
        <time>2019-08-09T06:39:00Z</time>
      </trkpt>
      <trkpt lat="44.19583" lon="5.9206">
        <ele>567</ele>
        <time>2019-08-09T06:39:01Z</time>
      </trkpt>
      <trkpt lat="44.19579" lon="5.9207">
        <ele>567</ele>
        <time>2019-08-09T06:39:02Z</time>
      </trkpt>
      <trkpt lat="44.19575" lon="5.92081">
        <ele>567</ele>
        <time>2019-08-09T06:39:03Z</time>
      </trkpt>
      <trkpt lat="44.19572" lon="5.92091">
        <ele>567</ele>
        <time>2019-08-09T06:39:04Z</time>
      </trkpt>
      <trkpt lat="44.19568" lon="5.92101">
        <ele>567</ele>
        <time>2019-08-09T06:39:05Z</time>
      </trkpt>
      <trkpt lat="44.19566" lon="5.92112">
        <ele>567</ele>
        <time>2019-08-09T06:39:06Z</time>
      </trkpt>
      <trkpt lat="44.19563" lon="5.92123">
        <ele>567</ele>
        <time>2019-08-09T06:39:07Z</time>
      </trkpt>
      <trkpt lat="44.19561" lon="5.92134">
        <ele>567</ele>
        <time>2019-08-09T06:39:08Z</time>
      </trkpt>
      <trkpt lat="44.19558" lon="5.92144">
        <ele>567</ele>
        <time>2019-08-09T06:39:09Z</time>
      </trkpt>
      <trkpt lat="44.19556" lon="5.92155">
        <ele>567</ele>
        <time>2019-08-09T06:39:10Z</time>
      </trkpt>
      <trkpt lat="44.19555" lon="5.92166">
        <ele>567</ele>
        <time>2019-08-09T06:39:11Z</time>
      </trkpt>
      <trkpt lat="44.19553" lon="5.92176">
        <ele>567</ele>
        <time>2019-08-09T06:39:12Z</time>
      </trkpt>
      <trkpt lat="44.19552" lon="5.92186">
        <ele>567</ele>
        <time>2019-08-09T06:39:13Z</time>
      </trkpt>
      <trkpt lat="44.19552" lon="5.92196">
        <ele>567</ele>
        <time>2019-08-09T06:39:14Z</time>
      </trkpt>
      <trkpt lat="44.19552" lon="5.92206">
        <ele>567</ele>
        <time>2019-08-09T06:39:15Z</time>
      </trkpt>
      <trkpt lat="44.19553" lon="5.92217">
        <ele>567</ele>
        <time>2019-08-09T06:39:16Z</time>
      </trkpt>
      <trkpt lat="44.19553" lon="5.92228">
        <ele>567</ele>
        <time>2019-08-09T06:39:17Z</time>
      </trkpt>
      <trkpt lat="44.19554" lon="5.92238">
        <ele>567</ele>
        <time>2019-08-09T06:39:18Z</time>
      </trkpt>
      <trkpt lat="44.19555" lon="5.92247">
        <ele>567</ele>
        <time>2019-08-09T06:39:19Z</time>
      </trkpt>
      <trkpt lat="44.19556" lon="5.92258">
        <ele>567</ele>
        <time>2019-08-09T06:39:20Z</time>
      </trkpt>
      <trkpt lat="44.19557" lon="5.92268">
        <ele>567</ele>
        <time>2019-08-09T06:39:21Z</time>
      </trkpt>
      <trkpt lat="44.19558" lon="5.92278">
        <ele>567</ele>
        <time>2019-08-09T06:39:22Z</time>
      </trkpt>
      <trkpt lat="44.19559" lon="5.92287">
        <ele>566</ele>
        <time>2019-08-09T06:39:23Z</time>
      </trkpt>
      <trkpt lat="44.1956" lon="5.92297">
        <ele>566</ele>
        <time>2019-08-09T06:39:24Z</time>
      </trkpt>
      <trkpt lat="44.19561" lon="5.92307">
        <ele>566</ele>
        <time>2019-08-09T06:39:25Z</time>
      </trkpt>
      <trkpt lat="44.19562" lon="5.92317">
        <ele>566</ele>
        <time>2019-08-09T06:39:26Z</time>
      </trkpt>
      <trkpt lat="44.19563" lon="5.92326">
        <ele>566</ele>
        <time>2019-08-09T06:39:27Z</time>
      </trkpt>
      <trkpt lat="44.19564" lon="5.92336">
        <ele>566</ele>
        <time>2019-08-09T06:39:28Z</time>
      </trkpt>
      <trkpt lat="44.19564" lon="5.92346">
        <ele>566</ele>
        <time>2019-08-09T06:39:29Z</time>
      </trkpt>
      <trkpt lat="44.19565" lon="5.92355">
        <ele>566</ele>
        <time>2019-08-09T06:39:30Z</time>
      </trkpt>
      <trkpt lat="44.19566" lon="5.92365">
        <ele>566</ele>
        <time>2019-08-09T06:39:31Z</time>
      </trkpt>
      <trkpt lat="44.19566" lon="5.92375">
        <ele>565</ele>
        <time>2019-08-09T06:39:32Z</time>
      </trkpt>
      <trkpt lat="44.19567" lon="5.92386">
        <ele>565</ele>
        <time>2019-08-09T06:39:33Z</time>
      </trkpt>
      <trkpt lat="44.19567" lon="5.92396">
        <ele>565</ele>
        <time>2019-08-09T06:39:34Z</time>
      </trkpt>
      <trkpt lat="44.19567" lon="5.92407">
        <ele>565</ele>
        <time>2019-08-09T06:39:35Z</time>
      </trkpt>
      <trkpt lat="44.19568" lon="5.92417">
        <ele>565</ele>
        <time>2019-08-09T06:39:36Z</time>
      </trkpt>
      <trkpt lat="44.19568" lon="5.92427">
        <ele>565</ele>
        <time>2019-08-09T06:39:37Z</time>
      </trkpt>
      <trkpt lat="44.19569" lon="5.92437">
        <ele>565</ele>
        <time>2019-08-09T06:39:38Z</time>
      </trkpt>
      <trkpt lat="44.1957" lon="5.92447">
        <ele>565</ele>
        <time>2019-08-09T06:39:39Z</time>
      </trkpt>
      <trkpt lat="44.1957" lon="5.92457">
        <ele>564</ele>
        <time>2019-08-09T06:39:40Z</time>
      </trkpt>
      <trkpt lat="44.19571" lon="5.92467">
        <ele>564</ele>
        <time>2019-08-09T06:39:41Z</time>
      </trkpt>
      <trkpt lat="44.19571" lon="5.92477">
        <ele>564</ele>
        <time>2019-08-09T06:39:42Z</time>
      </trkpt>
      <trkpt lat="44.19572" lon="5.92487">
        <ele>564</ele>
        <time>2019-08-09T06:39:43Z</time>
      </trkpt>
      <trkpt lat="44.19572" lon="5.92496">
        <ele>564</ele>
        <time>2019-08-09T06:39:44Z</time>
      </trkpt>
      <trkpt lat="44.19573" lon="5.92507">
        <ele>564</ele>
        <time>2019-08-09T06:39:45Z</time>
      </trkpt>
      <trkpt lat="44.19573" lon="5.92516">
        <ele>564</ele>
        <time>2019-08-09T06:39:46Z</time>
      </trkpt>
      <trkpt lat="44.19573" lon="5.92526">
        <ele>564</ele>
        <time>2019-08-09T06:39:47Z</time>
      </trkpt>
      <trkpt lat="44.19573" lon="5.92536">
        <ele>564</ele>
        <time>2019-08-09T06:39:48Z</time>
      </trkpt>
      <trkpt lat="44.19573" lon="5.92546">
        <ele>564</ele>
        <time>2019-08-09T06:39:49Z</time>
      </trkpt>
      <trkpt lat="44.19573" lon="5.92556">
        <ele>563</ele>
        <time>2019-08-09T06:39:50Z</time>
      </trkpt>
      <trkpt lat="44.19573" lon="5.92567">
        <ele>563</ele>
        <time>2019-08-09T06:39:51Z</time>
      </trkpt>
      <trkpt lat="44.19573" lon="5.92577">
        <ele>563</ele>
        <time>2019-08-09T06:39:52Z</time>
      </trkpt>
      <trkpt lat="44.19573" lon="5.92588">
        <ele>563</ele>
        <time>2019-08-09T06:39:53Z</time>
      </trkpt>
      <trkpt lat="44.19574" lon="5.92598">
        <ele>563</ele>
        <time>2019-08-09T06:39:54Z</time>
      </trkpt>
      <trkpt lat="44.19575" lon="5.92609">
        <ele>563</ele>
        <time>2019-08-09T06:39:55Z</time>
      </trkpt>
      <trkpt lat="44.19576" lon="5.92619">
        <ele>563</ele>
        <time>2019-08-09T06:39:56Z</time>
      </trkpt>
      <trkpt lat="44.19576" lon="5.9263">
        <ele>562</ele>
        <time>2019-08-09T06:39:57Z</time>
      </trkpt>
      <trkpt lat="44.19577" lon="5.9264">
        <ele>562</ele>
        <time>2019-08-09T06:39:58Z</time>
      </trkpt>
      <trkpt lat="44.19577" lon="5.92651">
        <ele>562</ele>
        <time>2019-08-09T06:39:59Z</time>
      </trkpt>
      <trkpt lat="44.19577" lon="5.92661">
        <ele>562</ele>
        <time>2019-08-09T06:40:00Z</time>
      </trkpt>
      <trkpt lat="44.19578" lon="5.92672">
        <ele>561</ele>
        <time>2019-08-09T06:40:01Z</time>
      </trkpt>
      <trkpt lat="44.19579" lon="5.92682">
        <ele>561</ele>
        <time>2019-08-09T06:40:02Z</time>
      </trkpt>
      <trkpt lat="44.1958" lon="5.92693">
        <ele>561</ele>
        <time>2019-08-09T06:40:03Z</time>
      </trkpt>
      <trkpt lat="44.19581" lon="5.92704">
        <ele>561</ele>
        <time>2019-08-09T06:40:04Z</time>
      </trkpt>
      <trkpt lat="44.19581" lon="5.92715">
        <ele>561</ele>
        <time>2019-08-09T06:40:05Z</time>
      </trkpt>
      <trkpt lat="44.19582" lon="5.92726">
        <ele>561</ele>
        <time>2019-08-09T06:40:06Z</time>
      </trkpt>
      <trkpt lat="44.19582" lon="5.92738">
        <ele>561</ele>
        <time>2019-08-09T06:40:07Z</time>
      </trkpt>
      <trkpt lat="44.19583" lon="5.9275">
        <ele>561</ele>
        <time>2019-08-09T06:40:08Z</time>
      </trkpt>
      <trkpt lat="44.19584" lon="5.92761">
        <ele>561</ele>
        <time>2019-08-09T06:40:09Z</time>
      </trkpt>
      <trkpt lat="44.19585" lon="5.92773">
        <ele>560</ele>
        <time>2019-08-09T06:40:10Z</time>
      </trkpt>
      <trkpt lat="44.19587" lon="5.92785">
        <ele>560</ele>
        <time>2019-08-09T06:40:11Z</time>
      </trkpt>
      <trkpt lat="44.19589" lon="5.92797">
        <ele>559</ele>
        <time>2019-08-09T06:40:12Z</time>
      </trkpt>
      <trkpt lat="44.19591" lon="5.92808">
        <ele>559</ele>
        <time>2019-08-09T06:40:13Z</time>
      </trkpt>
      <trkpt lat="44.19593" lon="5.9282">
        <ele>558</ele>
        <time>2019-08-09T06:40:14Z</time>
      </trkpt>
      <trkpt lat="44.19596" lon="5.92832">
        <ele>558</ele>
        <time>2019-08-09T06:40:15Z</time>
      </trkpt>
      <trkpt lat="44.19598" lon="5.92843">
        <ele>558</ele>
        <time>2019-08-09T06:40:16Z</time>
      </trkpt>
      <trkpt lat="44.19601" lon="5.92854">
        <ele>558</ele>
        <time>2019-08-09T06:40:17Z</time>
      </trkpt>
      <trkpt lat="44.19605" lon="5.92865">
        <ele>557</ele>
        <time>2019-08-09T06:40:18Z</time>
      </trkpt>
      <trkpt lat="44.19608" lon="5.92876">
        <ele>557</ele>
        <time>2019-08-09T06:40:19Z</time>
      </trkpt>
      <trkpt lat="44.19611" lon="5.92887">
        <ele>557</ele>
        <time>2019-08-09T06:40:20Z</time>
      </trkpt>
      <trkpt lat="44.19613" lon="5.92899">
        <ele>557</ele>
        <time>2019-08-09T06:40:21Z</time>
      </trkpt>
      <trkpt lat="44.19614" lon="5.9291">
        <ele>556</ele>
        <time>2019-08-09T06:40:22Z</time>
      </trkpt>
      <trkpt lat="44.19613" lon="5.92922">
        <ele>556</ele>
        <time>2019-08-09T06:40:23Z</time>
      </trkpt>
      <trkpt lat="44.19611" lon="5.92933">
        <ele>556</ele>
        <time>2019-08-09T06:40:24Z</time>
      </trkpt>
      <trkpt lat="44.19608" lon="5.92944">
        <ele>556</ele>
        <time>2019-08-09T06:40:25Z</time>
      </trkpt>
      <trkpt lat="44.19606" lon="5.92955">
        <ele>556</ele>
        <time>2019-08-09T06:40:26Z</time>
      </trkpt>
      <trkpt lat="44.19603" lon="5.92965">
        <ele>555</ele>
        <time>2019-08-09T06:40:27Z</time>
      </trkpt>
      <trkpt lat="44.196" lon="5.92975">
        <ele>555</ele>
        <time>2019-08-09T06:40:28Z</time>
      </trkpt>
      <trkpt lat="44.19598" lon="5.92985">
        <ele>555</ele>
        <time>2019-08-09T06:40:29Z</time>
      </trkpt>
      <trkpt lat="44.19595" lon="5.92996">
        <ele>555</ele>
        <time>2019-08-09T06:40:30Z</time>
      </trkpt>
      <trkpt lat="44.19593" lon="5.93006">
        <ele>554</ele>
        <time>2019-08-09T06:40:31Z</time>
      </trkpt>
      <trkpt lat="44.19592" lon="5.93017">
        <ele>554</ele>
        <time>2019-08-09T06:40:32Z</time>
      </trkpt>
      <trkpt lat="44.1959" lon="5.93027">
        <ele>554</ele>
        <time>2019-08-09T06:40:33Z</time>
      </trkpt>
      <trkpt lat="44.19588" lon="5.93037">
        <ele>554</ele>
        <time>2019-08-09T06:40:34Z</time>
      </trkpt>
      <trkpt lat="44.19587" lon="5.93048">
        <ele>553</ele>
        <time>2019-08-09T06:40:35Z</time>
      </trkpt>
      <trkpt lat="44.19585" lon="5.93058">
        <ele>553</ele>
        <time>2019-08-09T06:40:36Z</time>
      </trkpt>
      <trkpt lat="44.19585" lon="5.93069">
        <ele>553</ele>
        <time>2019-08-09T06:40:37Z</time>
      </trkpt>
      <trkpt lat="44.19585" lon="5.9308">
        <ele>553</ele>
        <time>2019-08-09T06:40:38Z</time>
      </trkpt>
      <trkpt lat="44.19585" lon="5.9309">
        <ele>553</ele>
        <time>2019-08-09T06:40:39Z</time>
      </trkpt>
      <trkpt lat="44.19585" lon="5.93102">
        <ele>553</ele>
        <time>2019-08-09T06:40:40Z</time>
      </trkpt>
      <trkpt lat="44.19586" lon="5.93113">
        <ele>553</ele>
        <time>2019-08-09T06:40:41Z</time>
      </trkpt>
      <trkpt lat="44.19587" lon="5.93124">
        <ele>553</ele>
        <time>2019-08-09T06:40:42Z</time>
      </trkpt>
      <trkpt lat="44.19588" lon="5.93134">
        <ele>553</ele>
        <time>2019-08-09T06:40:43Z</time>
      </trkpt>
      <trkpt lat="44.1959" lon="5.93145">
        <ele>553</ele>
        <time>2019-08-09T06:40:44Z</time>
      </trkpt>
      <trkpt lat="44.19592" lon="5.93155">
        <ele>553</ele>
        <time>2019-08-09T06:40:45Z</time>
      </trkpt>
      <trkpt lat="44.19594" lon="5.93165">
        <ele>553</ele>
        <time>2019-08-09T06:40:46Z</time>
      </trkpt>
      <trkpt lat="44.19596" lon="5.93176">
        <ele>552</ele>
        <time>2019-08-09T06:40:47Z</time>
      </trkpt>
      <trkpt lat="44.19599" lon="5.93186">
        <ele>552</ele>
        <time>2019-08-09T06:40:48Z</time>
      </trkpt>
      <trkpt lat="44.19602" lon="5.93195">
        <ele>552</ele>
        <time>2019-08-09T06:40:49Z</time>
      </trkpt>
      <trkpt lat="44.19606" lon="5.93206">
        <ele>552</ele>
        <time>2019-08-09T06:40:50Z</time>
      </trkpt>
      <trkpt lat="44.19609" lon="5.93217">
        <ele>552</ele>
        <time>2019-08-09T06:40:51Z</time>
      </trkpt>
      <trkpt lat="44.19612" lon="5.93228">
        <ele>551</ele>
        <time>2019-08-09T06:40:52Z</time>
      </trkpt>
      <trkpt lat="44.19615" lon="5.93239">
        <ele>551</ele>
        <time>2019-08-09T06:40:53Z</time>
      </trkpt>
      <trkpt lat="44.19618" lon="5.93252">
        <ele>551</ele>
        <time>2019-08-09T06:40:54Z</time>
      </trkpt>
      <trkpt lat="44.19622" lon="5.93264">
        <ele>550</ele>
        <time>2019-08-09T06:40:55Z</time>
      </trkpt>
      <trkpt lat="44.19626" lon="5.93277">
        <ele>549</ele>
        <time>2019-08-09T06:40:56Z</time>
      </trkpt>
      <trkpt lat="44.1963" lon="5.9329">
        <ele>548</ele>
        <time>2019-08-09T06:40:57Z</time>
      </trkpt>
      <trkpt lat="44.19634" lon="5.93303">
        <ele>548</ele>
        <time>2019-08-09T06:40:58Z</time>
      </trkpt>
      <trkpt lat="44.19638" lon="5.93315">
        <ele>547</ele>
        <time>2019-08-09T06:40:59Z</time>
      </trkpt>
      <trkpt lat="44.19643" lon="5.93329">
        <ele>546</ele>
        <time>2019-08-09T06:41:00Z</time>
      </trkpt>
      <trkpt lat="44.19646" lon="5.93342">
        <ele>545</ele>
        <time>2019-08-09T06:41:01Z</time>
      </trkpt>
      <trkpt lat="44.1965" lon="5.93357">
        <ele>544</ele>
        <time>2019-08-09T06:41:02Z</time>
      </trkpt>
      <trkpt lat="44.19653" lon="5.93371">
        <ele>543</ele>
        <time>2019-08-09T06:41:03Z</time>
      </trkpt>
      <trkpt lat="44.19656" lon="5.93387">
        <ele>542</ele>
        <time>2019-08-09T06:41:04Z</time>
      </trkpt>
      <trkpt lat="44.19658" lon="5.93402">
        <ele>541</ele>
        <time>2019-08-09T06:41:05Z</time>
      </trkpt>
      <trkpt lat="44.19659" lon="5.93418">
        <ele>540</ele>
        <time>2019-08-09T06:41:06Z</time>
      </trkpt>
      <trkpt lat="44.19661" lon="5.93433">
        <ele>539</ele>
        <time>2019-08-09T06:41:07Z</time>
      </trkpt>
      <trkpt lat="44.19662" lon="5.93448">
        <ele>538</ele>
        <time>2019-08-09T06:41:08Z</time>
      </trkpt>
      <trkpt lat="44.19663" lon="5.93463">
        <ele>537</ele>
        <time>2019-08-09T06:41:09Z</time>
      </trkpt>
      <trkpt lat="44.19664" lon="5.93478">
        <ele>536</ele>
        <time>2019-08-09T06:41:10Z</time>
      </trkpt>
      <trkpt lat="44.19666" lon="5.93493">
        <ele>536</ele>
        <time>2019-08-09T06:41:11Z</time>
      </trkpt>
      <trkpt lat="44.19668" lon="5.93507">
        <ele>535</ele>
        <time>2019-08-09T06:41:12Z</time>
      </trkpt>
      <trkpt lat="44.1967" lon="5.93522">
        <ele>534</ele>
        <time>2019-08-09T06:41:13Z</time>
      </trkpt>
      <trkpt lat="44.19672" lon="5.93537">
        <ele>534</ele>
        <time>2019-08-09T06:41:14Z</time>
      </trkpt>
      <trkpt lat="44.19673" lon="5.93552">
        <ele>533</ele>
        <time>2019-08-09T06:41:15Z</time>
      </trkpt>
      <trkpt lat="44.19674" lon="5.93567">
        <ele>533</ele>
        <time>2019-08-09T06:41:16Z</time>
      </trkpt>
      <trkpt lat="44.19675" lon="5.93582">
        <ele>532</ele>
        <time>2019-08-09T06:41:17Z</time>
      </trkpt>
      <trkpt lat="44.19676" lon="5.93598">
        <ele>531</ele>
        <time>2019-08-09T06:41:18Z</time>
      </trkpt>
      <trkpt lat="44.19676" lon="5.93613">
        <ele>531</ele>
        <time>2019-08-09T06:41:19Z</time>
      </trkpt>
      <trkpt lat="44.19675" lon="5.93627">
        <ele>530</ele>
        <time>2019-08-09T06:41:20Z</time>
      </trkpt>
      <trkpt lat="44.19675" lon="5.93641">
        <ele>530</ele>
        <time>2019-08-09T06:41:21Z</time>
      </trkpt>
      <trkpt lat="44.19673" lon="5.93655">
        <ele>530</ele>
        <time>2019-08-09T06:41:22Z</time>
      </trkpt>
      <trkpt lat="44.19672" lon="5.93669">
        <ele>529</ele>
        <time>2019-08-09T06:41:23Z</time>
      </trkpt>
      <trkpt lat="44.1967" lon="5.93681">
        <ele>529</ele>
        <time>2019-08-09T06:41:24Z</time>
      </trkpt>
      <trkpt lat="44.19669" lon="5.93693">
        <ele>529</ele>
        <time>2019-08-09T06:41:25Z</time>
      </trkpt>
      <trkpt lat="44.19669" lon="5.93704">
        <ele>529</ele>
        <time>2019-08-09T06:41:26Z</time>
      </trkpt>
      <trkpt lat="44.19669" lon="5.93715">
        <ele>529</ele>
        <time>2019-08-09T06:41:27Z</time>
      </trkpt>
      <trkpt lat="44.19668" lon="5.93727">
        <ele>528</ele>
        <time>2019-08-09T06:41:28Z</time>
      </trkpt>
      <trkpt lat="44.19667" lon="5.93739">
        <ele>528</ele>
        <time>2019-08-09T06:41:29Z</time>
      </trkpt>
      <trkpt lat="44.19664" lon="5.9375">
        <ele>528</ele>
        <time>2019-08-09T06:41:30Z</time>
      </trkpt>
      <trkpt lat="44.19662" lon="5.93761">
        <ele>528</ele>
        <time>2019-08-09T06:41:31Z</time>
      </trkpt>
      <trkpt lat="44.19659" lon="5.93771">
        <ele>528</ele>
        <time>2019-08-09T06:41:32Z</time>
      </trkpt>
      <trkpt lat="44.19656" lon="5.93782">
        <ele>528</ele>
        <time>2019-08-09T06:41:33Z</time>
      </trkpt>
      <trkpt lat="44.19653" lon="5.93791">
        <ele>528</ele>
        <time>2019-08-09T06:41:34Z</time>
      </trkpt>
      <trkpt lat="44.19651" lon="5.93802">
        <ele>528</ele>
        <time>2019-08-09T06:41:35Z</time>
      </trkpt>
      <trkpt lat="44.19648" lon="5.93811">
        <ele>528</ele>
        <time>2019-08-09T06:41:36Z</time>
      </trkpt>
      <trkpt lat="44.19644" lon="5.93821">
        <ele>528</ele>
        <time>2019-08-09T06:41:37Z</time>
      </trkpt>
      <trkpt lat="44.1964" lon="5.9383">
        <ele>528</ele>
        <time>2019-08-09T06:41:38Z</time>
      </trkpt>
      <trkpt lat="44.19637" lon="5.93841">
        <ele>527</ele>
        <time>2019-08-09T06:41:39Z</time>
      </trkpt>
      <trkpt lat="44.19634" lon="5.93851">
        <ele>527</ele>
        <time>2019-08-09T06:41:40Z</time>
      </trkpt>
      <trkpt lat="44.19631" lon="5.93861">
        <ele>526</ele>
        <time>2019-08-09T06:41:41Z</time>
      </trkpt>
      <trkpt lat="44.19627" lon="5.93872">
        <ele>526</ele>
        <time>2019-08-09T06:41:42Z</time>
      </trkpt>
      <trkpt lat="44.19624" lon="5.93881">
        <ele>525</ele>
        <time>2019-08-09T06:41:43Z</time>
      </trkpt>
      <trkpt lat="44.19622" lon="5.9389">
        <ele>524</ele>
        <time>2019-08-09T06:41:44Z</time>
      </trkpt>
      <trkpt lat="44.19619" lon="5.93897">
        <ele>523</ele>
        <time>2019-08-09T06:41:45Z</time>
      </trkpt>
      <trkpt lat="44.19617" lon="5.93903">
        <ele>522</ele>
        <time>2019-08-09T06:41:46Z</time>
      </trkpt>
      <trkpt lat="44.19616" lon="5.93909">
        <ele>521</ele>
        <time>2019-08-09T06:41:47Z</time>
      </trkpt>
      <trkpt lat="44.19614" lon="5.93914">
        <ele>520</ele>
        <time>2019-08-09T06:41:48Z</time>
      </trkpt>
      <trkpt lat="44.19613" lon="5.93921">
        <ele>520</ele>
        <time>2019-08-09T06:41:49Z</time>
      </trkpt>
      <trkpt lat="44.19611" lon="5.93929">
        <ele>519</ele>
        <time>2019-08-09T06:41:50Z</time>
      </trkpt>
      <trkpt lat="44.19609" lon="5.93937">
        <ele>518</ele>
        <time>2019-08-09T06:41:51Z</time>
      </trkpt>
      <trkpt lat="44.19607" lon="5.93945">
        <ele>517</ele>
        <time>2019-08-09T06:41:52Z</time>
      </trkpt>
      <trkpt lat="44.19604" lon="5.93954">
        <ele>516</ele>
        <time>2019-08-09T06:41:53Z</time>
      </trkpt>
      <trkpt lat="44.19602" lon="5.93961">
        <ele>515</ele>
        <time>2019-08-09T06:41:54Z</time>
      </trkpt>
      <trkpt lat="44.19601" lon="5.93969">
        <ele>514</ele>
        <time>2019-08-09T06:41:55Z</time>
      </trkpt>
      <trkpt lat="44.196" lon="5.93977">
        <ele>513</ele>
        <time>2019-08-09T06:41:56Z</time>
      </trkpt>
      <trkpt lat="44.19601" lon="5.93984">
        <ele>512</ele>
        <time>2019-08-09T06:41:57Z</time>
      </trkpt>
      <trkpt lat="44.19603" lon="5.93991">
        <ele>511</ele>
        <time>2019-08-09T06:41:58Z</time>
      </trkpt>
      <trkpt lat="44.19606" lon="5.93998">
        <ele>511</ele>
        <time>2019-08-09T06:41:59Z</time>
      </trkpt>
      <trkpt lat="44.19608" lon="5.94004">
        <ele>510</ele>
        <time>2019-08-09T06:42:00Z</time>
      </trkpt>
      <trkpt lat="44.19611" lon="5.94011">
        <ele>509</ele>
        <time>2019-08-09T06:42:01Z</time>
      </trkpt>
      <trkpt lat="44.19614" lon="5.94017">
        <ele>509</ele>
        <time>2019-08-09T06:42:02Z</time>
      </trkpt>
      <trkpt lat="44.19618" lon="5.94023">
        <ele>509</ele>
        <time>2019-08-09T06:42:03Z</time>
      </trkpt>
      <trkpt lat="44.1962" lon="5.9403">
        <ele>509</ele>
        <time>2019-08-09T06:42:04Z</time>
      </trkpt>
      <trkpt lat="44.19623" lon="5.94036">
        <ele>509</ele>
        <time>2019-08-09T06:42:05Z</time>
      </trkpt>
      <trkpt lat="44.19625" lon="5.94042">
        <ele>509</ele>
        <time>2019-08-09T06:42:06Z</time>
      </trkpt>
      <trkpt lat="44.19627" lon="5.94048">
        <ele>509</ele>
        <time>2019-08-09T06:42:07Z</time>
      </trkpt>
      <trkpt lat="44.19628" lon="5.94054">
        <ele>509</ele>
        <time>2019-08-09T06:42:08Z</time>
      </trkpt>
      <trkpt lat="44.19628" lon="5.9406">
        <ele>509</ele>
        <time>2019-08-09T06:42:09Z</time>
      </trkpt>
      <trkpt lat="44.19626" lon="5.94066">
        <ele>508</ele>
        <time>2019-08-09T06:42:10Z</time>
      </trkpt>
      <trkpt lat="44.19624" lon="5.94073">
        <ele>508</ele>
        <time>2019-08-09T06:42:11Z</time>
      </trkpt>
      <trkpt lat="44.19622" lon="5.94079">
        <ele>507</ele>
        <time>2019-08-09T06:42:12Z</time>
      </trkpt>
      <trkpt lat="44.19618" lon="5.94086">
        <ele>507</ele>
        <time>2019-08-09T06:42:13Z</time>
      </trkpt>
      <trkpt lat="44.19613" lon="5.94091">
        <ele>507</ele>
        <time>2019-08-09T06:42:14Z</time>
      </trkpt>
      <trkpt lat="44.19608" lon="5.94098">
        <ele>507</ele>
        <time>2019-08-09T06:42:15Z</time>
      </trkpt>
      <trkpt lat="44.19603" lon="5.94105">
        <ele>507</ele>
        <time>2019-08-09T06:42:16Z</time>
      </trkpt>
      <trkpt lat="44.19599" lon="5.94112">
        <ele>507</ele>
        <time>2019-08-09T06:42:17Z</time>
      </trkpt>
      <trkpt lat="44.19595" lon="5.94118">
        <ele>507</ele>
        <time>2019-08-09T06:42:18Z</time>
      </trkpt>
      <trkpt lat="44.19592" lon="5.94123">
        <ele>507</ele>
        <time>2019-08-09T06:42:19Z</time>
      </trkpt>
      <trkpt lat="44.1959" lon="5.94128">
        <ele>507</ele>
        <time>2019-08-09T06:42:20Z</time>
      </trkpt>
      <trkpt lat="44.19589" lon="5.94131">
        <ele>507</ele>
        <time>2019-08-09T06:42:21Z</time>
      </trkpt>
      <trkpt lat="44.19586" lon="5.94135">
        <ele>507</ele>
        <time>2019-08-09T06:42:22Z</time>
      </trkpt>
      <trkpt lat="44.19584" lon="5.94137">
        <ele>507</ele>
        <time>2019-08-09T06:42:23Z</time>
      </trkpt>
      <trkpt lat="44.19581" lon="5.94139">
        <ele>507</ele>
        <time>2019-08-09T06:42:24Z</time>
      </trkpt>
      <trkpt lat="44.19579" lon="5.94142">
        <ele>507</ele>
        <time>2019-08-09T06:42:25Z</time>
      </trkpt>
      <trkpt lat="44.19577" lon="5.94144">
        <ele>507</ele>
        <time>2019-08-09T06:42:26Z</time>
      </trkpt>
      <trkpt lat="44.19576" lon="5.94147">
        <ele>507</ele>
        <time>2019-08-09T06:42:27Z</time>
      </trkpt>
      <trkpt lat="44.19574" lon="5.9415">
        <ele>508</ele>
        <time>2019-08-09T06:42:28Z</time>
      </trkpt>
      <trkpt lat="44.19573" lon="5.94153">
        <ele>509</ele>
        <time>2019-08-09T06:42:29Z</time>
      </trkpt>
      <trkpt lat="44.19571" lon="5.94157">
        <ele>510</ele>
        <time>2019-08-09T06:42:30Z</time>
      </trkpt>
      <trkpt lat="44.19569" lon="5.94161">
        <ele>511</ele>
        <time>2019-08-09T06:42:31Z</time>
      </trkpt>
      <trkpt lat="44.19567" lon="5.94164">
        <ele>511</ele>
        <time>2019-08-09T06:42:32Z</time>
      </trkpt>
      <trkpt lat="44.19565" lon="5.94168">
        <ele>512</ele>
        <time>2019-08-09T06:42:33Z</time>
      </trkpt>
      <trkpt lat="44.19563" lon="5.94172">
        <ele>513</ele>
        <time>2019-08-09T06:42:34Z</time>
      </trkpt>
      <trkpt lat="44.19563" lon="5.94176">
        <ele>513</ele>
        <time>2019-08-09T06:42:35Z</time>
      </trkpt>
      <trkpt lat="44.19562" lon="5.94179">
        <ele>513</ele>
        <time>2019-08-09T06:42:36Z</time>
      </trkpt>
      <trkpt lat="44.19559" lon="5.94182">
        <ele>513</ele>
        <time>2019-08-09T06:42:37Z</time>
      </trkpt>
      <trkpt lat="44.19555" lon="5.94185">
        <ele>513</ele>
        <time>2019-08-09T06:42:38Z</time>
      </trkpt>
      <trkpt lat="44.1955" lon="5.94184">
        <ele>513</ele>
        <time>2019-08-09T06:42:39Z</time>
      </trkpt>
      <trkpt lat="44.19545" lon="5.94182">
        <ele>513</ele>
        <time>2019-08-09T06:42:40Z</time>
      </trkpt>
      <trkpt lat="44.19542" lon="5.94181">
        <ele>513</ele>
        <time>2019-08-09T06:42:41Z</time>
      </trkpt>
      <trkpt lat="44.19538" lon="5.9418">
        <ele>513</ele>
        <time>2019-08-09T06:42:42Z</time>
      </trkpt>
      <trkpt lat="44.19534" lon="5.94179">
        <ele>513</ele>
        <time>2019-08-09T06:42:43Z</time>
      </trkpt>
      <trkpt lat="44.1953" lon="5.94178">
        <ele>513</ele>
        <time>2019-08-09T06:42:44Z</time>
      </trkpt>
      <trkpt lat="44.19525" lon="5.94177">
        <ele>513</ele>
        <time>2019-08-09T06:42:45Z</time>
      </trkpt>
      <trkpt lat="44.19521" lon="5.94176">
        <ele>513</ele>
        <time>2019-08-09T06:42:46Z</time>
      </trkpt>
      <trkpt lat="44.19516" lon="5.94174">
        <ele>513</ele>
        <time>2019-08-09T06:42:47Z</time>
      </trkpt>
      <trkpt lat="44.19512" lon="5.94173">
        <ele>513</ele>
        <time>2019-08-09T06:42:48Z</time>
      </trkpt>
      <trkpt lat="44.19508" lon="5.94172">
        <ele>513</ele>
        <time>2019-08-09T06:42:49Z</time>
      </trkpt>
      <trkpt lat="44.19503" lon="5.94171">
        <ele>513</ele>
        <time>2019-08-09T06:42:50Z</time>
      </trkpt>
      <trkpt lat="44.195" lon="5.94169">
        <ele>513</ele>
        <time>2019-08-09T06:42:51Z</time>
      </trkpt>
      <trkpt lat="44.19496" lon="5.94167">
        <ele>513</ele>
        <time>2019-08-09T06:42:52Z</time>
      </trkpt>
      <trkpt lat="44.19492" lon="5.94164">
        <ele>513</ele>
        <time>2019-08-09T06:42:53Z</time>
      </trkpt>
      <trkpt lat="44.19488" lon="5.94163">
        <ele>513</ele>
        <time>2019-08-09T06:42:54Z</time>
      </trkpt>
      <trkpt lat="44.19484" lon="5.94161">
        <ele>513</ele>
        <time>2019-08-09T06:42:55Z</time>
      </trkpt>
      <trkpt lat="44.19481" lon="5.9416">
        <ele>513</ele>
        <time>2019-08-09T06:42:56Z</time>
      </trkpt>
      <trkpt lat="44.19477" lon="5.94159">
        <ele>513</ele>
        <time>2019-08-09T06:42:57Z</time>
      </trkpt>
      <trkpt lat="44.19474" lon="5.94159">
        <ele>513</ele>
        <time>2019-08-09T06:42:58Z</time>
      </trkpt>
      <trkpt lat="44.19469" lon="5.94158">
        <ele>513</ele>
        <time>2019-08-09T06:42:59Z</time>
      </trkpt>
      <trkpt lat="44.19465" lon="5.94159">
        <ele>513</ele>
        <time>2019-08-09T06:43:00Z</time>
      </trkpt>
      <trkpt lat="44.19461" lon="5.94159">
        <ele>513</ele>
        <time>2019-08-09T06:43:01Z</time>
      </trkpt>
      <trkpt lat="44.19457" lon="5.94159">
        <ele>512</ele>
        <time>2019-08-09T06:43:02Z</time>
      </trkpt>
      <trkpt lat="44.19453" lon="5.9416">
        <ele>512</ele>
        <time>2019-08-09T06:43:03Z</time>
      </trkpt>
      <trkpt lat="44.1945" lon="5.94161">
        <ele>512</ele>
        <time>2019-08-09T06:43:04Z</time>
      </trkpt>
      <trkpt lat="44.19447" lon="5.94163">
        <ele>512</ele>
        <time>2019-08-09T06:43:05Z</time>
      </trkpt>
      <trkpt lat="44.19443" lon="5.94165">
        <ele>512</ele>
        <time>2019-08-09T06:43:06Z</time>
      </trkpt>
      <trkpt lat="44.1944" lon="5.94168">
        <ele>512</ele>
        <time>2019-08-09T06:43:07Z</time>
      </trkpt>
      <trkpt lat="44.19438" lon="5.9417">
        <ele>512</ele>
        <time>2019-08-09T06:43:08Z</time>
      </trkpt>
      <trkpt lat="44.19435" lon="5.94173">
        <ele>512</ele>
        <time>2019-08-09T06:43:09Z</time>
      </trkpt>
      <trkpt lat="44.19432" lon="5.94174">
        <ele>512</ele>
        <time>2019-08-09T06:43:10Z</time>
      </trkpt>
      <trkpt lat="44.1943" lon="5.94177">
        <ele>512</ele>
        <time>2019-08-09T06:43:11Z</time>
      </trkpt>
      <trkpt lat="44.19427" lon="5.94178">
        <ele>512</ele>
        <time>2019-08-09T06:43:12Z</time>
      </trkpt>
      <trkpt lat="44.19425" lon="5.94179">
        <ele>512</ele>
        <time>2019-08-09T06:43:13Z</time>
      </trkpt>
      <trkpt lat="44.19422" lon="5.94181">
        <ele>512</ele>
        <time>2019-08-09T06:43:14Z</time>
      </trkpt>
      <trkpt lat="44.19418" lon="5.94185">
        <ele>512</ele>
        <time>2019-08-09T06:43:15Z</time>
      </trkpt>
      <trkpt lat="44.19414" lon="5.94187">
        <ele>512</ele>
        <time>2019-08-09T06:43:16Z</time>
      </trkpt>
      <trkpt lat="44.19411" lon="5.94188">
        <ele>513</ele>
        <time>2019-08-09T06:43:17Z</time>
      </trkpt>
      <trkpt lat="44.19408" lon="5.9419">
        <ele>513</ele>
        <time>2019-08-09T06:43:18Z</time>
      </trkpt>
      <trkpt lat="44.19404" lon="5.94193">
        <ele>514</ele>
        <time>2019-08-09T06:43:19Z</time>
      </trkpt>
      <trkpt lat="44.19399" lon="5.94196">
        <ele>514</ele>
        <time>2019-08-09T06:43:20Z</time>
      </trkpt>
      <trkpt lat="44.19396" lon="5.94198">
        <ele>515</ele>
        <time>2019-08-09T06:43:21Z</time>
      </trkpt>
      <trkpt lat="44.19393" lon="5.94198">
        <ele>515</ele>
        <time>2019-08-09T06:43:22Z</time>
      </trkpt>
      <trkpt lat="44.19391" lon="5.94198">
        <ele>515</ele>
        <time>2019-08-09T06:43:23Z</time>
      </trkpt>
      <trkpt lat="44.19389" lon="5.94198">
        <ele>515</ele>
        <time>2019-08-09T06:43:24Z</time>
      </trkpt>
      <trkpt lat="44.19387" lon="5.94201">
        <ele>515</ele>
        <time>2019-08-09T06:43:26Z</time>
      </trkpt>
      <trkpt lat="44.19383" lon="5.94202">
        <ele>515</ele>
        <time>2019-08-09T06:43:27Z</time>
      </trkpt>
      <trkpt lat="44.1938" lon="5.94204">
        <ele>515</ele>
        <time>2019-08-09T06:43:28Z</time>
      </trkpt>
      <trkpt lat="44.19376" lon="5.94205">
        <ele>515</ele>
        <time>2019-08-09T06:43:29Z</time>
      </trkpt>
      <trkpt lat="44.19372" lon="5.94206">
        <ele>515</ele>
        <time>2019-08-09T06:43:30Z</time>
      </trkpt>
      <trkpt lat="44.19368" lon="5.94207">
        <ele>515</ele>
        <time>2019-08-09T06:43:31Z</time>
      </trkpt>
      <trkpt lat="44.19364" lon="5.94208">
        <ele>515</ele>
        <time>2019-08-09T06:43:32Z</time>
      </trkpt>
      <trkpt lat="44.19361" lon="5.9421">
        <ele>515</ele>
        <time>2019-08-09T06:43:33Z</time>
      </trkpt>
      <trkpt lat="44.19358" lon="5.94212">
        <ele>515</ele>
        <time>2019-08-09T06:43:34Z</time>
      </trkpt>
      <trkpt lat="44.19355" lon="5.94212">
        <ele>515</ele>
        <time>2019-08-09T06:43:35Z</time>
      </trkpt>
      <trkpt lat="44.19353" lon="5.94214">
        <ele>515</ele>
        <time>2019-08-09T06:43:36Z</time>
      </trkpt>
      <trkpt lat="44.1935" lon="5.94217">
        <ele>515</ele>
        <time>2019-08-09T06:43:37Z</time>
      </trkpt>
      <trkpt lat="44.19347" lon="5.9422">
        <ele>515</ele>
        <time>2019-08-09T06:43:38Z</time>
      </trkpt>
      <trkpt lat="44.19344" lon="5.94223">
        <ele>515</ele>
        <time>2019-08-09T06:43:39Z</time>
      </trkpt>
      <trkpt lat="44.19341" lon="5.94224">
        <ele>516</ele>
        <time>2019-08-09T06:43:40Z</time>
      </trkpt>
      <trkpt lat="44.19338" lon="5.94227">
        <ele>517</ele>
        <time>2019-08-09T06:43:41Z</time>
      </trkpt>
      <trkpt lat="44.19335" lon="5.9423">
        <ele>517</ele>
        <time>2019-08-09T06:43:42Z</time>
      </trkpt>
      <trkpt lat="44.19332" lon="5.94232">
        <ele>518</ele>
        <time>2019-08-09T06:43:43Z</time>
      </trkpt>
      <trkpt lat="44.19329" lon="5.94235">
        <ele>518</ele>
        <time>2019-08-09T06:43:44Z</time>
      </trkpt>
      <trkpt lat="44.19326" lon="5.94238">
        <ele>519</ele>
        <time>2019-08-09T06:43:45Z</time>
      </trkpt>
      <trkpt lat="44.19323" lon="5.9424">
        <ele>520</ele>
        <time>2019-08-09T06:43:46Z</time>
      </trkpt>
      <trkpt lat="44.19319" lon="5.94242">
        <ele>521</ele>
        <time>2019-08-09T06:43:47Z</time>
      </trkpt>
      <trkpt lat="44.19315" lon="5.94245">
        <ele>522</ele>
        <time>2019-08-09T06:43:48Z</time>
      </trkpt>
      <trkpt lat="44.19312" lon="5.94246">
        <ele>523</ele>
        <time>2019-08-09T06:43:49Z</time>
      </trkpt>
      <trkpt lat="44.19307" lon="5.94247">
        <ele>524</ele>
        <time>2019-08-09T06:43:50Z</time>
      </trkpt>
      <trkpt lat="44.19303" lon="5.94248">
        <ele>525</ele>
        <time>2019-08-09T06:43:51Z</time>
      </trkpt>
      <trkpt lat="44.193" lon="5.9425">
        <ele>525</ele>
        <time>2019-08-09T06:43:52Z</time>
      </trkpt>
      <trkpt lat="44.19297" lon="5.94251">
        <ele>526</ele>
        <time>2019-08-09T06:43:53Z</time>
      </trkpt>
      <trkpt lat="44.19294" lon="5.94253">
        <ele>526</ele>
        <time>2019-08-09T06:43:54Z</time>
      </trkpt>
      <trkpt lat="44.19291" lon="5.94255">
        <ele>526</ele>
        <time>2019-08-09T06:43:55Z</time>
      </trkpt>
      <trkpt lat="44.19288" lon="5.94257">
        <ele>527</ele>
        <time>2019-08-09T06:43:56Z</time>
      </trkpt>
      <trkpt lat="44.19284" lon="5.94259">
        <ele>527</ele>
        <time>2019-08-09T06:43:57Z</time>
      </trkpt>
      <trkpt lat="44.19281" lon="5.94261">
        <ele>528</ele>
        <time>2019-08-09T06:43:58Z</time>
      </trkpt>
      <trkpt lat="44.19278" lon="5.94261">
        <ele>528</ele>
        <time>2019-08-09T06:43:59Z</time>
      </trkpt>
      <trkpt lat="44.19274" lon="5.94262">
        <ele>528</ele>
        <time>2019-08-09T06:44:00Z</time>
      </trkpt>
      <trkpt lat="44.19271" lon="5.94263">
        <ele>529</ele>
        <time>2019-08-09T06:44:01Z</time>
      </trkpt>
      <trkpt lat="44.19266" lon="5.94263">
        <ele>529</ele>
        <time>2019-08-09T06:44:02Z</time>
      </trkpt>
      <trkpt lat="44.19262" lon="5.94265">
        <ele>529</ele>
        <time>2019-08-09T06:44:03Z</time>
      </trkpt>
      <trkpt lat="44.19258" lon="5.94265">
        <ele>530</ele>
        <time>2019-08-09T06:44:04Z</time>
      </trkpt>
      <trkpt lat="44.19255" lon="5.94267">
        <ele>530</ele>
        <time>2019-08-09T06:44:05Z</time>
      </trkpt>
      <trkpt lat="44.19252" lon="5.94268">
        <ele>530</ele>
        <time>2019-08-09T06:44:06Z</time>
      </trkpt>
      <trkpt lat="44.19249" lon="5.94269">
        <ele>530</ele>
        <time>2019-08-09T06:44:07Z</time>
      </trkpt>
      <trkpt lat="44.19246" lon="5.9427">
        <ele>530</ele>
        <time>2019-08-09T06:44:08Z</time>
      </trkpt>
      <trkpt lat="44.19241" lon="5.94272">
        <ele>530</ele>
        <time>2019-08-09T06:44:09Z</time>
      </trkpt>
      <trkpt lat="44.19238" lon="5.94274">
        <ele>530</ele>
        <time>2019-08-09T06:44:10Z</time>
      </trkpt>
      <trkpt lat="44.19233" lon="5.94276">
        <ele>530</ele>
        <time>2019-08-09T06:44:11Z</time>
      </trkpt>
      <trkpt lat="44.1923" lon="5.94278">
        <ele>530</ele>
        <time>2019-08-09T06:44:12Z</time>
      </trkpt>
      <trkpt lat="44.19226" lon="5.9428">
        <ele>530</ele>
        <time>2019-08-09T06:44:13Z</time>
      </trkpt>
      <trkpt lat="44.19222" lon="5.94282">
        <ele>530</ele>
        <time>2019-08-09T06:44:14Z</time>
      </trkpt>
      <trkpt lat="44.19219" lon="5.94283">
        <ele>530</ele>
        <time>2019-08-09T06:44:15Z</time>
      </trkpt>
      <trkpt lat="44.19215" lon="5.94285">
        <ele>530</ele>
        <time>2019-08-09T06:44:16Z</time>
      </trkpt>
      <trkpt lat="44.19212" lon="5.94286">
        <ele>530</ele>
        <time>2019-08-09T06:44:17Z</time>
      </trkpt>
      <trkpt lat="44.19208" lon="5.94287">
        <ele>530</ele>
        <time>2019-08-09T06:44:18Z</time>
      </trkpt>
      <trkpt lat="44.19204" lon="5.94289">
        <ele>530</ele>
        <time>2019-08-09T06:44:19Z</time>
      </trkpt>
      <trkpt lat="44.19201" lon="5.94291">
        <ele>530</ele>
        <time>2019-08-09T06:44:20Z</time>
      </trkpt>
      <trkpt lat="44.19199" lon="5.94293">
        <ele>529</ele>
        <time>2019-08-09T06:44:21Z</time>
      </trkpt>
      <trkpt lat="44.19197" lon="5.94297">
        <ele>529</ele>
        <time>2019-08-09T06:44:22Z</time>
      </trkpt>
      <trkpt lat="44.19195" lon="5.94299">
        <ele>528</ele>
        <time>2019-08-09T06:44:23Z</time>
      </trkpt>
      <trkpt lat="44.19193" lon="5.94303">
        <ele>528</ele>
        <time>2019-08-09T06:44:24Z</time>
      </trkpt>
      <trkpt lat="44.19191" lon="5.94305">
        <ele>528</ele>
        <time>2019-08-09T06:44:25Z</time>
      </trkpt>
      <trkpt lat="44.19188" lon="5.94308">
        <ele>528</ele>
        <time>2019-08-09T06:44:26Z</time>
      </trkpt>
      <trkpt lat="44.19186" lon="5.94311">
        <ele>528</ele>
        <time>2019-08-09T06:44:27Z</time>
      </trkpt>
      <trkpt lat="44.19183" lon="5.94315">
        <ele>528</ele>
        <time>2019-08-09T06:44:28Z</time>
      </trkpt>
      <trkpt lat="44.1918" lon="5.94319">
        <ele>528</ele>
        <time>2019-08-09T06:44:29Z</time>
      </trkpt>
      <trkpt lat="44.19176" lon="5.94323">
        <ele>528</ele>
        <time>2019-08-09T06:44:30Z</time>
      </trkpt>
      <trkpt lat="44.19173" lon="5.94327">
        <ele>528</ele>
        <time>2019-08-09T06:44:31Z</time>
      </trkpt>
      <trkpt lat="44.19171" lon="5.94332">
        <ele>528</ele>
        <time>2019-08-09T06:44:32Z</time>
      </trkpt>
      <trkpt lat="44.19167" lon="5.94337">
        <ele>528</ele>
        <time>2019-08-09T06:44:33Z</time>
      </trkpt>
      <trkpt lat="44.19164" lon="5.94341">
        <ele>528</ele>
        <time>2019-08-09T06:44:34Z</time>
      </trkpt>
      <trkpt lat="44.19159" lon="5.94344">
        <ele>528</ele>
        <time>2019-08-09T06:44:35Z</time>
      </trkpt>
      <trkpt lat="44.19154" lon="5.94346">
        <ele>528</ele>
        <time>2019-08-09T06:44:36Z</time>
      </trkpt>
      <trkpt lat="44.19149" lon="5.94347">
        <ele>528</ele>
        <time>2019-08-09T06:44:37Z</time>
      </trkpt>
      <trkpt lat="44.19145" lon="5.94348">
        <ele>528</ele>
        <time>2019-08-09T06:44:38Z</time>
      </trkpt>
      <trkpt lat="44.1914" lon="5.94348">
        <ele>527</ele>
        <time>2019-08-09T06:44:39Z</time>
      </trkpt>
      <trkpt lat="44.19136" lon="5.94347">
        <ele>527</ele>
        <time>2019-08-09T06:44:40Z</time>
      </trkpt>
      <trkpt lat="44.19131" lon="5.94346">
        <ele>527</ele>
        <time>2019-08-09T06:44:41Z</time>
      </trkpt>
      <trkpt lat="44.19127" lon="5.94345">
        <ele>527</ele>
        <time>2019-08-09T06:44:42Z</time>
      </trkpt>
      <trkpt lat="44.19123" lon="5.94343">
        <ele>527</ele>
        <time>2019-08-09T06:44:43Z</time>
      </trkpt>
      <trkpt lat="44.1912" lon="5.94342">
        <ele>527</ele>
        <time>2019-08-09T06:44:44Z</time>
      </trkpt>
      <trkpt lat="44.19116" lon="5.9434">
        <ele>527</ele>
        <time>2019-08-09T06:44:45Z</time>
      </trkpt>
      <trkpt lat="44.19113" lon="5.94339">
        <ele>527</ele>
        <time>2019-08-09T06:44:46Z</time>
      </trkpt>
      <trkpt lat="44.19109" lon="5.94338">
        <ele>527</ele>
        <time>2019-08-09T06:44:47Z</time>
      </trkpt>
      <trkpt lat="44.19106" lon="5.94337">
        <ele>527</ele>
        <time>2019-08-09T06:44:48Z</time>
      </trkpt>
      <trkpt lat="44.19103" lon="5.94336">
        <ele>527</ele>
        <time>2019-08-09T06:44:49Z</time>
      </trkpt>
      <trkpt lat="44.19099" lon="5.94336">
        <ele>527</ele>
        <time>2019-08-09T06:44:50Z</time>
      </trkpt>
      <trkpt lat="44.19096" lon="5.94336">
        <ele>527</ele>
        <time>2019-08-09T06:44:51Z</time>
      </trkpt>
      <trkpt lat="44.19093" lon="5.94337">
        <ele>527</ele>
        <time>2019-08-09T06:44:52Z</time>
      </trkpt>
      <trkpt lat="44.19091" lon="5.94337">
        <ele>527</ele>
        <time>2019-08-09T06:44:53Z</time>
      </trkpt>
      <trkpt lat="44.19088" lon="5.94337">
        <ele>527</ele>
        <time>2019-08-09T06:44:54Z</time>
      </trkpt>
      <trkpt lat="44.19085" lon="5.94336">
        <ele>527</ele>
        <time>2019-08-09T06:44:55Z</time>
      </trkpt>
      <trkpt lat="44.19082" lon="5.94337">
        <ele>527</ele>
        <time>2019-08-09T06:44:56Z</time>
      </trkpt>
      <trkpt lat="44.19079" lon="5.94338">
        <ele>527</ele>
        <time>2019-08-09T06:44:57Z</time>
      </trkpt>
      <trkpt lat="44.19076" lon="5.94338">
        <ele>527</ele>
        <time>2019-08-09T06:44:58Z</time>
      </trkpt>
      <trkpt lat="44.19072" lon="5.94339">
        <ele>527</ele>
        <time>2019-08-09T06:44:59Z</time>
      </trkpt>
      <trkpt lat="44.19069" lon="5.9434">
        <ele>527</ele>
        <time>2019-08-09T06:45:00Z</time>
      </trkpt>
      <trkpt lat="44.19065" lon="5.94341">
        <ele>527</ele>
        <time>2019-08-09T06:45:01Z</time>
      </trkpt>
      <trkpt lat="44.19062" lon="5.94341">
        <ele>527</ele>
        <time>2019-08-09T06:45:02Z</time>
      </trkpt>
      <trkpt lat="44.1906" lon="5.94342">
        <ele>527</ele>
        <time>2019-08-09T06:45:03Z</time>
      </trkpt>
      <trkpt lat="44.19057" lon="5.94343">
        <ele>527</ele>
        <time>2019-08-09T06:45:04Z</time>
      </trkpt>
      <trkpt lat="44.19055" lon="5.94343">
        <ele>527</ele>
        <time>2019-08-09T06:45:05Z</time>
      </trkpt>
      <trkpt lat="44.19053" lon="5.94343">
        <ele>527</ele>
        <time>2019-08-09T06:45:06Z</time>
      </trkpt>
      <trkpt lat="44.19051" lon="5.94342">
        <ele>528</ele>
        <time>2019-08-09T06:45:07Z</time>
      </trkpt>
      <trkpt lat="44.19049" lon="5.94343">
        <ele>528</ele>
        <time>2019-08-09T06:45:08Z</time>
      </trkpt>
      <trkpt lat="44.19046" lon="5.94343">
        <ele>529</ele>
        <time>2019-08-09T06:45:09Z</time>
      </trkpt>
      <trkpt lat="44.19043" lon="5.94343">
        <ele>529</ele>
        <time>2019-08-09T06:45:10Z</time>
      </trkpt>
      <trkpt lat="44.1904" lon="5.94343">
        <ele>529</ele>
        <time>2019-08-09T06:45:11Z</time>
      </trkpt>
      <trkpt lat="44.19036" lon="5.94343">
        <ele>530</ele>
        <time>2019-08-09T06:45:12Z</time>
      </trkpt>
      <trkpt lat="44.19033" lon="5.94343">
        <ele>530</ele>
        <time>2019-08-09T06:45:13Z</time>
      </trkpt>
      <trkpt lat="44.1903" lon="5.94343">
        <ele>530</ele>
        <time>2019-08-09T06:45:14Z</time>
      </trkpt>
      <trkpt lat="44.19027" lon="5.94343">
        <ele>530</ele>
        <time>2019-08-09T06:45:15Z</time>
      </trkpt>
      <trkpt lat="44.19024" lon="5.94343">
        <ele>530</ele>
        <time>2019-08-09T06:45:16Z</time>
      </trkpt>
      <trkpt lat="44.19022" lon="5.94342">
        <ele>530</ele>
        <time>2019-08-09T06:45:17Z</time>
      </trkpt>
      <trkpt lat="44.19019" lon="5.9434">
        <ele>530</ele>
        <time>2019-08-09T06:45:18Z</time>
      </trkpt>
      <trkpt lat="44.19017" lon="5.94338">
        <ele>530</ele>
        <time>2019-08-09T06:45:19Z</time>
      </trkpt>
      <trkpt lat="44.19015" lon="5.94336">
        <ele>530</ele>
        <time>2019-08-09T06:45:20Z</time>
      </trkpt>
      <trkpt lat="44.19013" lon="5.94334">
        <ele>530</ele>
        <time>2019-08-09T06:45:21Z</time>
      </trkpt>
      <trkpt lat="44.19011" lon="5.94332">
        <ele>530</ele>
        <time>2019-08-09T06:45:22Z</time>
      </trkpt>
      <trkpt lat="44.19009" lon="5.9433">
        <ele>530</ele>
        <time>2019-08-09T06:45:23Z</time>
      </trkpt>
      <trkpt lat="44.19007" lon="5.94327">
        <ele>530</ele>
        <time>2019-08-09T06:45:24Z</time>
      </trkpt>
      <trkpt lat="44.19006" lon="5.94323">
        <ele>530</ele>
        <time>2019-08-09T06:45:25Z</time>
      </trkpt>
      <trkpt lat="44.19004" lon="5.9432">
        <ele>530</ele>
        <time>2019-08-09T06:45:26Z</time>
      </trkpt>
      <trkpt lat="44.19003" lon="5.94316">
        <ele>530</ele>
        <time>2019-08-09T06:45:27Z</time>
      </trkpt>
      <trkpt lat="44.19002" lon="5.94312">
        <ele>530</ele>
        <time>2019-08-09T06:45:28Z</time>
      </trkpt>
      <trkpt lat="44.19001" lon="5.94309">
        <ele>531</ele>
        <time>2019-08-09T06:45:29Z</time>
      </trkpt>
      <trkpt lat="44.18999" lon="5.94305">
        <ele>531</ele>
        <time>2019-08-09T06:45:30Z</time>
      </trkpt>
      <trkpt lat="44.18998" lon="5.94301">
        <ele>531</ele>
        <time>2019-08-09T06:45:31Z</time>
      </trkpt>
      <trkpt lat="44.18996" lon="5.94298">
        <ele>532</ele>
        <time>2019-08-09T06:45:32Z</time>
      </trkpt>
      <trkpt lat="44.18995" lon="5.94294">
        <ele>532</ele>
        <time>2019-08-09T06:45:33Z</time>
      </trkpt>
      <trkpt lat="44.18994" lon="5.9429">
        <ele>532</ele>
        <time>2019-08-09T06:45:34Z</time>
      </trkpt>
      <trkpt lat="44.18993" lon="5.94287">
        <ele>532</ele>
        <time>2019-08-09T06:45:35Z</time>
      </trkpt>
      <trkpt lat="44.18992" lon="5.94283">
        <ele>532</ele>
        <time>2019-08-09T06:45:36Z</time>
      </trkpt>
      <trkpt lat="44.18991" lon="5.9428">
        <ele>532</ele>
        <time>2019-08-09T06:45:37Z</time>
      </trkpt>
      <trkpt lat="44.1899" lon="5.94277">
        <ele>532</ele>
        <time>2019-08-09T06:45:38Z</time>
      </trkpt>
      <trkpt lat="44.18988" lon="5.94273">
        <ele>532</ele>
        <time>2019-08-09T06:45:39Z</time>
      </trkpt>
      <trkpt lat="44.18987" lon="5.9427">
        <ele>532</ele>
        <time>2019-08-09T06:45:40Z</time>
      </trkpt>
      <trkpt lat="44.18985" lon="5.94267">
        <ele>532</ele>
        <time>2019-08-09T06:45:41Z</time>
      </trkpt>
      <trkpt lat="44.18983" lon="5.94265">
        <ele>532</ele>
        <time>2019-08-09T06:45:42Z</time>
      </trkpt>
      <trkpt lat="44.18981" lon="5.94262">
        <ele>532</ele>
        <time>2019-08-09T06:45:43Z</time>
      </trkpt>
      <trkpt lat="44.18979" lon="5.9426">
        <ele>532</ele>
        <time>2019-08-09T06:45:44Z</time>
      </trkpt>
      <trkpt lat="44.18977" lon="5.94258">
        <ele>533</ele>
        <time>2019-08-09T06:45:45Z</time>
      </trkpt>
      <trkpt lat="44.18974" lon="5.94256">
        <ele>533</ele>
        <time>2019-08-09T06:45:46Z</time>
      </trkpt>
      <trkpt lat="44.18972" lon="5.94254">
        <ele>534</ele>
        <time>2019-08-09T06:45:47Z</time>
      </trkpt>
      <trkpt lat="44.1897" lon="5.94253">
        <ele>534</ele>
        <time>2019-08-09T06:45:48Z</time>
      </trkpt>
      <trkpt lat="44.18967" lon="5.94251">
        <ele>535</ele>
        <time>2019-08-09T06:45:49Z</time>
      </trkpt>
      <trkpt lat="44.18965" lon="5.94249">
        <ele>535</ele>
        <time>2019-08-09T06:45:50Z</time>
      </trkpt>
      <trkpt lat="44.18963" lon="5.94247">
        <ele>535</ele>
        <time>2019-08-09T06:45:51Z</time>
      </trkpt>
      <trkpt lat="44.18961" lon="5.94245">
        <ele>536</ele>
        <time>2019-08-09T06:45:52Z</time>
      </trkpt>
      <trkpt lat="44.18959" lon="5.94243">
        <ele>536</ele>
        <time>2019-08-09T06:45:53Z</time>
      </trkpt>
      <trkpt lat="44.18957" lon="5.94241">
        <ele>536</ele>
        <time>2019-08-09T06:45:54Z</time>
      </trkpt>
      <trkpt lat="44.18955" lon="5.94239">
        <ele>537</ele>
        <time>2019-08-09T06:45:55Z</time>
      </trkpt>
      <trkpt lat="44.18953" lon="5.94237">
        <ele>537</ele>
        <time>2019-08-09T06:45:56Z</time>
      </trkpt>
      <trkpt lat="44.18951" lon="5.94234">
        <ele>537</ele>
        <time>2019-08-09T06:45:57Z</time>
      </trkpt>
      <trkpt lat="44.1895" lon="5.94232">
        <ele>537</ele>
        <time>2019-08-09T06:45:58Z</time>
      </trkpt>
      <trkpt lat="44.18949" lon="5.94229">
        <ele>538</ele>
        <time>2019-08-09T06:45:59Z</time>
      </trkpt>
      <trkpt lat="44.18948" lon="5.94226">
        <ele>538</ele>
        <time>2019-08-09T06:46:00Z</time>
      </trkpt>
      <trkpt lat="44.18946" lon="5.94224">
        <ele>538</ele>
        <time>2019-08-09T06:46:01Z</time>
      </trkpt>
      <trkpt lat="44.18944" lon="5.94221">
        <ele>539</ele>
        <time>2019-08-09T06:46:02Z</time>
      </trkpt>
      <trkpt lat="44.18943" lon="5.94218">
        <ele>539</ele>
        <time>2019-08-09T06:46:03Z</time>
      </trkpt>
      <trkpt lat="44.18942" lon="5.94215">
        <ele>539</ele>
        <time>2019-08-09T06:46:04Z</time>
      </trkpt>
      <trkpt lat="44.18941" lon="5.94211">
        <ele>539</ele>
        <time>2019-08-09T06:46:05Z</time>
      </trkpt>
      <trkpt lat="44.1894" lon="5.94208">
        <ele>540</ele>
        <time>2019-08-09T06:46:06Z</time>
      </trkpt>
      <trkpt lat="44.18938" lon="5.94205">
        <ele>540</ele>
        <time>2019-08-09T06:46:07Z</time>
      </trkpt>
      <trkpt lat="44.18937" lon="5.94202">
        <ele>540</ele>
        <time>2019-08-09T06:46:08Z</time>
      </trkpt>
      <trkpt lat="44.18935" lon="5.94199">
        <ele>540</ele>
        <time>2019-08-09T06:46:09Z</time>
      </trkpt>
      <trkpt lat="44.18934" lon="5.94196">
        <ele>540</ele>
        <time>2019-08-09T06:46:10Z</time>
      </trkpt>
      <trkpt lat="44.18932" lon="5.94194">
        <ele>541</ele>
        <time>2019-08-09T06:46:11Z</time>
      </trkpt>
      <trkpt lat="44.18929" lon="5.94192">
        <ele>541</ele>
        <time>2019-08-09T06:46:12Z</time>
      </trkpt>
      <trkpt lat="44.18927" lon="5.94189">
        <ele>541</ele>
        <time>2019-08-09T06:46:13Z</time>
      </trkpt>
      <trkpt lat="44.18924" lon="5.94187">
        <ele>541</ele>
        <time>2019-08-09T06:46:14Z</time>
      </trkpt>
      <trkpt lat="44.18921" lon="5.94185">
        <ele>542</ele>
        <time>2019-08-09T06:46:15Z</time>
      </trkpt>
      <trkpt lat="44.18919" lon="5.94183">
        <ele>542</ele>
        <time>2019-08-09T06:46:16Z</time>
      </trkpt>
      <trkpt lat="44.18916" lon="5.94182">
        <ele>542</ele>
        <time>2019-08-09T06:46:17Z</time>
      </trkpt>
      <trkpt lat="44.18913" lon="5.94181">
        <ele>543</ele>
        <time>2019-08-09T06:46:18Z</time>
      </trkpt>
      <trkpt lat="44.18909" lon="5.9418">
        <ele>543</ele>
        <time>2019-08-09T06:46:19Z</time>
      </trkpt>
      <trkpt lat="44.18906" lon="5.94179">
        <ele>543</ele>
        <time>2019-08-09T06:46:20Z</time>
      </trkpt>
      <trkpt lat="44.18903" lon="5.94179">
        <ele>544</ele>
        <time>2019-08-09T06:46:21Z</time>
      </trkpt>
      <trkpt lat="44.189" lon="5.94179">
        <ele>544</ele>
        <time>2019-08-09T06:46:22Z</time>
      </trkpt>
      <trkpt lat="44.18897" lon="5.94179">
        <ele>545</ele>
        <time>2019-08-09T06:46:23Z</time>
      </trkpt>
      <trkpt lat="44.18894" lon="5.94179">
        <ele>545</ele>
        <time>2019-08-09T06:46:24Z</time>
      </trkpt>
      <trkpt lat="44.1889" lon="5.94179">
        <ele>546</ele>
        <time>2019-08-09T06:46:25Z</time>
      </trkpt>
      <trkpt lat="44.18887" lon="5.94179">
        <ele>546</ele>
        <time>2019-08-09T06:46:26Z</time>
      </trkpt>
      <trkpt lat="44.18884" lon="5.94179">
        <ele>546</ele>
        <time>2019-08-09T06:46:27Z</time>
      </trkpt>
      <trkpt lat="44.1888" lon="5.94179">
        <ele>546</ele>
        <time>2019-08-09T06:46:28Z</time>
      </trkpt>
      <trkpt lat="44.18877" lon="5.94179">
        <ele>547</ele>
        <time>2019-08-09T06:46:29Z</time>
      </trkpt>
      <trkpt lat="44.18873" lon="5.94179">
        <ele>547</ele>
        <time>2019-08-09T06:46:30Z</time>
      </trkpt>
      <trkpt lat="44.18869" lon="5.94178">
        <ele>547</ele>
        <time>2019-08-09T06:46:31Z</time>
      </trkpt>
      <trkpt lat="44.18865" lon="5.94178">
        <ele>547</ele>
        <time>2019-08-09T06:46:32Z</time>
      </trkpt>
      <trkpt lat="44.18861" lon="5.94177">
        <ele>547</ele>
        <time>2019-08-09T06:46:33Z</time>
      </trkpt>
      <trkpt lat="44.18858" lon="5.94175">
        <ele>547</ele>
        <time>2019-08-09T06:46:34Z</time>
      </trkpt>
      <trkpt lat="44.18854" lon="5.94173">
        <ele>547</ele>
        <time>2019-08-09T06:46:35Z</time>
      </trkpt>
      <trkpt lat="44.1885" lon="5.94171">
        <ele>548</ele>
        <time>2019-08-09T06:46:36Z</time>
      </trkpt>
      <trkpt lat="44.18846" lon="5.9417">
        <ele>548</ele>
        <time>2019-08-09T06:46:37Z</time>
      </trkpt>
      <trkpt lat="44.18842" lon="5.94168">
        <ele>548</ele>
        <time>2019-08-09T06:46:38Z</time>
      </trkpt>
      <trkpt lat="44.18839" lon="5.94167">
        <ele>548</ele>
        <time>2019-08-09T06:46:39Z</time>
      </trkpt>
      <trkpt lat="44.18835" lon="5.94165">
        <ele>548</ele>
        <time>2019-08-09T06:46:40Z</time>
      </trkpt>
      <trkpt lat="44.18831" lon="5.94163">
        <ele>548</ele>
        <time>2019-08-09T06:46:41Z</time>
      </trkpt>
      <trkpt lat="44.18827" lon="5.94161">
        <ele>548</ele>
        <time>2019-08-09T06:46:42Z</time>
      </trkpt>
      <trkpt lat="44.18823" lon="5.94158">
        <ele>548</ele>
        <time>2019-08-09T06:46:43Z</time>
      </trkpt>
      <trkpt lat="44.18819" lon="5.94156">
        <ele>548</ele>
        <time>2019-08-09T06:46:44Z</time>
      </trkpt>
      <trkpt lat="44.18815" lon="5.94153">
        <ele>548</ele>
        <time>2019-08-09T06:46:45Z</time>
      </trkpt>
      <trkpt lat="44.18811" lon="5.9415">
        <ele>548</ele>
        <time>2019-08-09T06:46:46Z</time>
      </trkpt>
      <trkpt lat="44.18806" lon="5.94147">
        <ele>548</ele>
        <time>2019-08-09T06:46:47Z</time>
      </trkpt>
      <trkpt lat="44.18802" lon="5.94144">
        <ele>548</ele>
        <time>2019-08-09T06:46:48Z</time>
      </trkpt>
      <trkpt lat="44.18797" lon="5.94141">
        <ele>548</ele>
        <time>2019-08-09T06:46:49Z</time>
      </trkpt>
      <trkpt lat="44.18793" lon="5.94137">
        <ele>548</ele>
        <time>2019-08-09T06:46:50Z</time>
      </trkpt>
      <trkpt lat="44.18788" lon="5.94134">
        <ele>548</ele>
        <time>2019-08-09T06:46:51Z</time>
      </trkpt>
      <trkpt lat="44.18784" lon="5.9413">
        <ele>548</ele>
        <time>2019-08-09T06:46:52Z</time>
      </trkpt>
      <trkpt lat="44.18779" lon="5.94126">
        <ele>548</ele>
        <time>2019-08-09T06:46:53Z</time>
      </trkpt>
      <trkpt lat="44.18775" lon="5.94122">
        <ele>548</ele>
        <time>2019-08-09T06:46:54Z</time>
      </trkpt>
      <trkpt lat="44.1877" lon="5.94117">
        <ele>548</ele>
        <time>2019-08-09T06:46:55Z</time>
      </trkpt>
      <trkpt lat="44.18766" lon="5.94113">
        <ele>548</ele>
        <time>2019-08-09T06:46:56Z</time>
      </trkpt>
      <trkpt lat="44.18761" lon="5.94108">
        <ele>548</ele>
        <time>2019-08-09T06:46:57Z</time>
      </trkpt>
      <trkpt lat="44.18756" lon="5.94104">
        <ele>548</ele>
        <time>2019-08-09T06:46:58Z</time>
      </trkpt>
      <trkpt lat="44.18752" lon="5.941">
        <ele>548</ele>
        <time>2019-08-09T06:46:59Z</time>
      </trkpt>
      <trkpt lat="44.18747" lon="5.94095">
        <ele>548</ele>
        <time>2019-08-09T06:47:00Z</time>
      </trkpt>
      <trkpt lat="44.18743" lon="5.94091">
        <ele>548</ele>
        <time>2019-08-09T06:47:01Z</time>
      </trkpt>
      <trkpt lat="44.18738" lon="5.94086">
        <ele>548</ele>
        <time>2019-08-09T06:47:02Z</time>
      </trkpt>
      <trkpt lat="44.18733" lon="5.94081">
        <ele>548</ele>
        <time>2019-08-09T06:47:03Z</time>
      </trkpt>
      <trkpt lat="44.18729" lon="5.94077">
        <ele>548</ele>
        <time>2019-08-09T06:47:04Z</time>
      </trkpt>
      <trkpt lat="44.18724" lon="5.94072">
        <ele>548</ele>
        <time>2019-08-09T06:47:05Z</time>
      </trkpt>
      <trkpt lat="44.18719" lon="5.94068">
        <ele>548</ele>
        <time>2019-08-09T06:47:06Z</time>
      </trkpt>
      <trkpt lat="44.18715" lon="5.94063">
        <ele>548</ele>
        <time>2019-08-09T06:47:07Z</time>
      </trkpt>
      <trkpt lat="44.1871" lon="5.94059">
        <ele>548</ele>
        <time>2019-08-09T06:47:08Z</time>
      </trkpt>
      <trkpt lat="44.18706" lon="5.94054">
        <ele>548</ele>
        <time>2019-08-09T06:47:09Z</time>
      </trkpt>
      <trkpt lat="44.18702" lon="5.9405">
        <ele>548</ele>
        <time>2019-08-09T06:47:10Z</time>
      </trkpt>
      <trkpt lat="44.18698" lon="5.94045">
        <ele>548</ele>
        <time>2019-08-09T06:47:11Z</time>
      </trkpt>
      <trkpt lat="44.18694" lon="5.9404">
        <ele>548</ele>
        <time>2019-08-09T06:47:12Z</time>
      </trkpt>
      <trkpt lat="44.1869" lon="5.94036">
        <ele>548</ele>
        <time>2019-08-09T06:47:13Z</time>
      </trkpt>
      <trkpt lat="44.18686" lon="5.94031">
        <ele>548</ele>
        <time>2019-08-09T06:47:14Z</time>
      </trkpt>
      <trkpt lat="44.18682" lon="5.94026">
        <ele>548</ele>
        <time>2019-08-09T06:47:15Z</time>
      </trkpt>
      <trkpt lat="44.18679" lon="5.94021">
        <ele>548</ele>
        <time>2019-08-09T06:47:16Z</time>
      </trkpt>
      <trkpt lat="44.18673" lon="5.94018">
        <ele>548</ele>
        <time>2019-08-09T06:47:17Z</time>
      </trkpt>
      <trkpt lat="44.18668" lon="5.94014">
        <ele>548</ele>
        <time>2019-08-09T06:47:18Z</time>
      </trkpt>
      <trkpt lat="44.18664" lon="5.9401">
        <ele>549</ele>
        <time>2019-08-09T06:47:19Z</time>
      </trkpt>
      <trkpt lat="44.1866" lon="5.94005">
        <ele>550</ele>
        <time>2019-08-09T06:47:20Z</time>
      </trkpt>
      <trkpt lat="44.18656" lon="5.94">
        <ele>551</ele>
        <time>2019-08-09T06:47:21Z</time>
      </trkpt>
      <trkpt lat="44.18652" lon="5.93996">
        <ele>552</ele>
        <time>2019-08-09T06:47:22Z</time>
      </trkpt>
      <trkpt lat="44.18647" lon="5.93992">
        <ele>553</ele>
        <time>2019-08-09T06:47:23Z</time>
      </trkpt>
      <trkpt lat="44.18642" lon="5.93988">
        <ele>553</ele>
        <time>2019-08-09T06:47:24Z</time>
      </trkpt>
      <trkpt lat="44.18637" lon="5.93985">
        <ele>553</ele>
        <time>2019-08-09T06:47:25Z</time>
      </trkpt>
      <trkpt lat="44.18632" lon="5.93982">
        <ele>553</ele>
        <time>2019-08-09T06:47:26Z</time>
      </trkpt>
      <trkpt lat="44.18628" lon="5.93977">
        <ele>553</ele>
        <time>2019-08-09T06:47:27Z</time>
      </trkpt>
      <trkpt lat="44.18623" lon="5.93972">
        <ele>553</ele>
        <time>2019-08-09T06:47:28Z</time>
      </trkpt>
      <trkpt lat="44.18619" lon="5.93967">
        <ele>554</ele>
        <time>2019-08-09T06:47:29Z</time>
      </trkpt>
      <trkpt lat="44.18615" lon="5.93963">
        <ele>554</ele>
        <time>2019-08-09T06:47:30Z</time>
      </trkpt>
      <trkpt lat="44.1861" lon="5.93958">
        <ele>554</ele>
        <time>2019-08-09T06:47:31Z</time>
      </trkpt>
      <trkpt lat="44.18605" lon="5.93954">
        <ele>554</ele>
        <time>2019-08-09T06:47:32Z</time>
      </trkpt>
      <trkpt lat="44.18601" lon="5.93949">
        <ele>554</ele>
        <time>2019-08-09T06:47:33Z</time>
      </trkpt>
      <trkpt lat="44.18597" lon="5.93944">
        <ele>554</ele>
        <time>2019-08-09T06:47:34Z</time>
      </trkpt>
      <trkpt lat="44.18593" lon="5.93938">
        <ele>554</ele>
        <time>2019-08-09T06:47:35Z</time>
      </trkpt>
      <trkpt lat="44.18589" lon="5.93932">
        <ele>554</ele>
        <time>2019-08-09T06:47:36Z</time>
      </trkpt>
      <trkpt lat="44.18585" lon="5.93927">
        <ele>554</ele>
        <time>2019-08-09T06:47:37Z</time>
      </trkpt>
      <trkpt lat="44.18581" lon="5.93922">
        <ele>554</ele>
        <time>2019-08-09T06:47:38Z</time>
      </trkpt>
      <trkpt lat="44.18577" lon="5.93916">
        <ele>554</ele>
        <time>2019-08-09T06:47:39Z</time>
      </trkpt>
      <trkpt lat="44.18573" lon="5.93911">
        <ele>554</ele>
        <time>2019-08-09T06:47:40Z</time>
      </trkpt>
      <trkpt lat="44.18569" lon="5.93905">
        <ele>554</ele>
        <time>2019-08-09T06:47:41Z</time>
      </trkpt>
      <trkpt lat="44.18565" lon="5.93899">
        <ele>554</ele>
        <time>2019-08-09T06:47:42Z</time>
      </trkpt>
      <trkpt lat="44.18562" lon="5.93893">
        <ele>554</ele>
        <time>2019-08-09T06:47:43Z</time>
      </trkpt>
      <trkpt lat="44.18558" lon="5.93887">
        <ele>554</ele>
        <time>2019-08-09T06:47:44Z</time>
      </trkpt>
      <trkpt lat="44.18553" lon="5.93882">
        <ele>554</ele>
        <time>2019-08-09T06:47:45Z</time>
      </trkpt>
      <trkpt lat="44.18549" lon="5.93876">
        <ele>555</ele>
        <time>2019-08-09T06:47:46Z</time>
      </trkpt>
      <trkpt lat="44.18546" lon="5.9387">
        <ele>555</ele>
        <time>2019-08-09T06:47:47Z</time>
      </trkpt>
      <trkpt lat="44.18542" lon="5.93864">
        <ele>556</ele>
        <time>2019-08-09T06:47:48Z</time>
      </trkpt>
      <trkpt lat="44.18537" lon="5.93859">
        <ele>556</ele>
        <time>2019-08-09T06:47:49Z</time>
      </trkpt>
      <trkpt lat="44.18533" lon="5.93854">
        <ele>556</ele>
        <time>2019-08-09T06:47:50Z</time>
      </trkpt>
      <trkpt lat="44.18529" lon="5.93849">
        <ele>557</ele>
        <time>2019-08-09T06:47:51Z</time>
      </trkpt>
      <trkpt lat="44.18525" lon="5.93843">
        <ele>558</ele>
        <time>2019-08-09T06:47:52Z</time>
      </trkpt>
      <trkpt lat="44.18521" lon="5.93837">
        <ele>558</ele>
        <time>2019-08-09T06:47:53Z</time>
      </trkpt>
      <trkpt lat="44.18517" lon="5.93832">
        <ele>558</ele>
        <time>2019-08-09T06:47:54Z</time>
      </trkpt>
      <trkpt lat="44.18514" lon="5.93826">
        <ele>559</ele>
        <time>2019-08-09T06:47:55Z</time>
      </trkpt>
      <trkpt lat="44.1851" lon="5.9382">
        <ele>559</ele>
        <time>2019-08-09T06:47:56Z</time>
      </trkpt>
      <trkpt lat="44.18507" lon="5.93815">
        <ele>559</ele>
        <time>2019-08-09T06:47:57Z</time>
      </trkpt>
      <trkpt lat="44.18504" lon="5.93809">
        <ele>559</ele>
        <time>2019-08-09T06:47:58Z</time>
      </trkpt>
      <trkpt lat="44.18501" lon="5.93803">
        <ele>559</ele>
        <time>2019-08-09T06:47:59Z</time>
      </trkpt>
      <trkpt lat="44.18497" lon="5.93797">
        <ele>559</ele>
        <time>2019-08-09T06:48:00Z</time>
      </trkpt>
      <trkpt lat="44.18494" lon="5.93792">
        <ele>559</ele>
        <time>2019-08-09T06:48:01Z</time>
      </trkpt>
      <trkpt lat="44.18491" lon="5.93786">
        <ele>559</ele>
        <time>2019-08-09T06:48:02Z</time>
      </trkpt>
      <trkpt lat="44.18487" lon="5.93781">
        <ele>559</ele>
        <time>2019-08-09T06:48:03Z</time>
      </trkpt>
      <trkpt lat="44.18484" lon="5.93775">
        <ele>559</ele>
        <time>2019-08-09T06:48:04Z</time>
      </trkpt>
      <trkpt lat="44.1848" lon="5.93769">
        <ele>559</ele>
        <time>2019-08-09T06:48:05Z</time>
      </trkpt>
      <trkpt lat="44.18476" lon="5.93763">
        <ele>559</ele>
        <time>2019-08-09T06:48:06Z</time>
      </trkpt>
      <trkpt lat="44.18473" lon="5.93757">
        <ele>559</ele>
        <time>2019-08-09T06:48:07Z</time>
      </trkpt>
      <trkpt lat="44.1847" lon="5.93751">
        <ele>559</ele>
        <time>2019-08-09T06:48:08Z</time>
      </trkpt>
      <trkpt lat="44.18466" lon="5.93745">
        <ele>559</ele>
        <time>2019-08-09T06:48:09Z</time>
      </trkpt>
      <trkpt lat="44.18463" lon="5.93739">
        <ele>559</ele>
        <time>2019-08-09T06:48:10Z</time>
      </trkpt>
      <trkpt lat="44.18459" lon="5.93733">
        <ele>559</ele>
        <time>2019-08-09T06:48:11Z</time>
      </trkpt>
      <trkpt lat="44.18456" lon="5.93727">
        <ele>559</ele>
        <time>2019-08-09T06:48:12Z</time>
      </trkpt>
      <trkpt lat="44.18452" lon="5.93721">
        <ele>559</ele>
        <time>2019-08-09T06:48:13Z</time>
      </trkpt>
      <trkpt lat="44.18448" lon="5.93715">
        <ele>559</ele>
        <time>2019-08-09T06:48:14Z</time>
      </trkpt>
      <trkpt lat="44.18444" lon="5.93709">
        <ele>559</ele>
        <time>2019-08-09T06:48:15Z</time>
      </trkpt>
      <trkpt lat="44.18441" lon="5.93703">
        <ele>559</ele>
        <time>2019-08-09T06:48:16Z</time>
      </trkpt>
      <trkpt lat="44.18437" lon="5.93697">
        <ele>559</ele>
        <time>2019-08-09T06:48:17Z</time>
      </trkpt>
      <trkpt lat="44.18433" lon="5.93691">
        <ele>559</ele>
        <time>2019-08-09T06:48:18Z</time>
      </trkpt>
      <trkpt lat="44.18429" lon="5.93684">
        <ele>560</ele>
        <time>2019-08-09T06:48:19Z</time>
      </trkpt>
      <trkpt lat="44.18426" lon="5.93678">
        <ele>560</ele>
        <time>2019-08-09T06:48:20Z</time>
      </trkpt>
      <trkpt lat="44.18422" lon="5.93672">
        <ele>560</ele>
        <time>2019-08-09T06:48:21Z</time>
      </trkpt>
      <trkpt lat="44.18418" lon="5.93666">
        <ele>560</ele>
        <time>2019-08-09T06:48:22Z</time>
      </trkpt>
      <trkpt lat="44.18414" lon="5.9366">
        <ele>561</ele>
        <time>2019-08-09T06:48:23Z</time>
      </trkpt>
      <trkpt lat="44.1841" lon="5.93654">
        <ele>561</ele>
        <time>2019-08-09T06:48:24Z</time>
      </trkpt>
      <trkpt lat="44.18407" lon="5.93648">
        <ele>561</ele>
        <time>2019-08-09T06:48:25Z</time>
      </trkpt>
      <trkpt lat="44.18403" lon="5.93642">
        <ele>561</ele>
        <time>2019-08-09T06:48:26Z</time>
      </trkpt>
      <trkpt lat="44.184" lon="5.93636">
        <ele>561</ele>
        <time>2019-08-09T06:48:27Z</time>
      </trkpt>
      <trkpt lat="44.18396" lon="5.9363">
        <ele>561</ele>
        <time>2019-08-09T06:48:28Z</time>
      </trkpt>
      <trkpt lat="44.18393" lon="5.93624">
        <ele>561</ele>
        <time>2019-08-09T06:48:29Z</time>
      </trkpt>
      <trkpt lat="44.18389" lon="5.93618">
        <ele>561</ele>
        <time>2019-08-09T06:48:30Z</time>
      </trkpt>
      <trkpt lat="44.18385" lon="5.93613">
        <ele>561</ele>
        <time>2019-08-09T06:48:31Z</time>
      </trkpt>
      <trkpt lat="44.18382" lon="5.93607">
        <ele>561</ele>
        <time>2019-08-09T06:48:32Z</time>
      </trkpt>
      <trkpt lat="44.18378" lon="5.93601">
        <ele>561</ele>
        <time>2019-08-09T06:48:33Z</time>
      </trkpt>
      <trkpt lat="44.18374" lon="5.93595">
        <ele>561</ele>
        <time>2019-08-09T06:48:34Z</time>
      </trkpt>
      <trkpt lat="44.1837" lon="5.93589">
        <ele>561</ele>
        <time>2019-08-09T06:48:35Z</time>
      </trkpt>
      <trkpt lat="44.18367" lon="5.93583">
        <ele>561</ele>
        <time>2019-08-09T06:48:36Z</time>
      </trkpt>
      <trkpt lat="44.18363" lon="5.93577">
        <ele>561</ele>
        <time>2019-08-09T06:48:37Z</time>
      </trkpt>
      <trkpt lat="44.18359" lon="5.93571">
        <ele>561</ele>
        <time>2019-08-09T06:48:38Z</time>
      </trkpt>
      <trkpt lat="44.18356" lon="5.93565">
        <ele>561</ele>
        <time>2019-08-09T06:48:39Z</time>
      </trkpt>
      <trkpt lat="44.18352" lon="5.93559">
        <ele>561</ele>
        <time>2019-08-09T06:48:40Z</time>
      </trkpt>
      <trkpt lat="44.18348" lon="5.93553">
        <ele>561</ele>
        <time>2019-08-09T06:48:41Z</time>
      </trkpt>
      <trkpt lat="44.18344" lon="5.93547">
        <ele>562</ele>
        <time>2019-08-09T06:48:42Z</time>
      </trkpt>
      <trkpt lat="44.18341" lon="5.9354">
        <ele>562</ele>
        <time>2019-08-09T06:48:43Z</time>
      </trkpt>
      <trkpt lat="44.18338" lon="5.93534">
        <ele>562</ele>
        <time>2019-08-09T06:48:44Z</time>
      </trkpt>
      <trkpt lat="44.18334" lon="5.93527">
        <ele>562</ele>
        <time>2019-08-09T06:48:45Z</time>
      </trkpt>
      <trkpt lat="44.18331" lon="5.9352">
        <ele>562</ele>
        <time>2019-08-09T06:48:46Z</time>
      </trkpt>
      <trkpt lat="44.18328" lon="5.93514">
        <ele>562</ele>
        <time>2019-08-09T06:48:47Z</time>
      </trkpt>
      <trkpt lat="44.18325" lon="5.93507">
        <ele>562</ele>
        <time>2019-08-09T06:48:48Z</time>
      </trkpt>
      <trkpt lat="44.18322" lon="5.935">
        <ele>563</ele>
        <time>2019-08-09T06:48:49Z</time>
      </trkpt>
      <trkpt lat="44.18318" lon="5.93494">
        <ele>563</ele>
        <time>2019-08-09T06:48:50Z</time>
      </trkpt>
      <trkpt lat="44.18316" lon="5.93487">
        <ele>563</ele>
        <time>2019-08-09T06:48:51Z</time>
      </trkpt>
      <trkpt lat="44.18313" lon="5.93481">
        <ele>563</ele>
        <time>2019-08-09T06:48:52Z</time>
      </trkpt>
      <trkpt lat="44.18311" lon="5.93474">
        <ele>563</ele>
        <time>2019-08-09T06:48:53Z</time>
      </trkpt>
      <trkpt lat="44.18308" lon="5.93468">
        <ele>563</ele>
        <time>2019-08-09T06:48:54Z</time>
      </trkpt>
      <trkpt lat="44.18306" lon="5.93461">
        <ele>563</ele>
        <time>2019-08-09T06:48:55Z</time>
      </trkpt>
      <trkpt lat="44.18304" lon="5.93455">
        <ele>563</ele>
        <time>2019-08-09T06:48:56Z</time>
      </trkpt>
      <trkpt lat="44.18301" lon="5.93448">
        <ele>563</ele>
        <time>2019-08-09T06:48:57Z</time>
      </trkpt>
      <trkpt lat="44.18299" lon="5.93442">
        <ele>564</ele>
        <time>2019-08-09T06:48:58Z</time>
      </trkpt>
      <trkpt lat="44.18297" lon="5.93436">
        <ele>564</ele>
        <time>2019-08-09T06:48:59Z</time>
      </trkpt>
      <trkpt lat="44.18295" lon="5.93431">
        <ele>564</ele>
        <time>2019-08-09T06:49:00Z</time>
      </trkpt>
      <trkpt lat="44.18293" lon="5.93425">
        <ele>564</ele>
        <time>2019-08-09T06:49:01Z</time>
      </trkpt>
      <trkpt lat="44.18291" lon="5.9342">
        <ele>564</ele>
        <time>2019-08-09T06:49:02Z</time>
      </trkpt>
      <trkpt lat="44.18289" lon="5.93414">
        <ele>564</ele>
        <time>2019-08-09T06:49:03Z</time>
      </trkpt>
      <trkpt lat="44.18287" lon="5.93408">
        <ele>564</ele>
        <time>2019-08-09T06:49:04Z</time>
      </trkpt>
      <trkpt lat="44.18285" lon="5.93403">
        <ele>564</ele>
        <time>2019-08-09T06:49:05Z</time>
      </trkpt>
      <trkpt lat="44.18283" lon="5.93397">
        <ele>564</ele>
        <time>2019-08-09T06:49:06Z</time>
      </trkpt>
      <trkpt lat="44.18281" lon="5.93391">
        <ele>564</ele>
        <time>2019-08-09T06:49:07Z</time>
      </trkpt>
      <trkpt lat="44.18279" lon="5.93384">
        <ele>565</ele>
        <time>2019-08-09T06:49:08Z</time>
      </trkpt>
      <trkpt lat="44.18277" lon="5.93377">
        <ele>565</ele>
        <time>2019-08-09T06:49:09Z</time>
      </trkpt>
      <trkpt lat="44.18275" lon="5.9337">
        <ele>565</ele>
        <time>2019-08-09T06:49:10Z</time>
      </trkpt>
      <trkpt lat="44.18273" lon="5.93363">
        <ele>565</ele>
        <time>2019-08-09T06:49:11Z</time>
      </trkpt>
      <trkpt lat="44.18271" lon="5.93356">
        <ele>565</ele>
        <time>2019-08-09T06:49:12Z</time>
      </trkpt>
      <trkpt lat="44.18269" lon="5.93348">
        <ele>565</ele>
        <time>2019-08-09T06:49:13Z</time>
      </trkpt>
      <trkpt lat="44.18267" lon="5.93339">
        <ele>565</ele>
        <time>2019-08-09T06:49:14Z</time>
      </trkpt>
      <trkpt lat="44.18264" lon="5.9333">
        <ele>565</ele>
        <time>2019-08-09T06:49:15Z</time>
      </trkpt>
      <trkpt lat="44.18261" lon="5.93321">
        <ele>565</ele>
        <time>2019-08-09T06:49:16Z</time>
      </trkpt>
      <trkpt lat="44.18259" lon="5.93312">
        <ele>565</ele>
        <time>2019-08-09T06:49:17Z</time>
      </trkpt>
      <trkpt lat="44.18256" lon="5.93302">
        <ele>565</ele>
        <time>2019-08-09T06:49:18Z</time>
      </trkpt>
      <trkpt lat="44.18253" lon="5.93292">
        <ele>565</ele>
        <time>2019-08-09T06:49:19Z</time>
      </trkpt>
      <trkpt lat="44.1825" lon="5.93282">
        <ele>565</ele>
        <time>2019-08-09T06:49:20Z</time>
      </trkpt>
      <trkpt lat="44.18246" lon="5.93272">
        <ele>565</ele>
        <time>2019-08-09T06:49:21Z</time>
      </trkpt>
      <trkpt lat="44.18243" lon="5.93263">
        <ele>565</ele>
        <time>2019-08-09T06:49:22Z</time>
      </trkpt>
      <trkpt lat="44.18238" lon="5.93253">
        <ele>565</ele>
        <time>2019-08-09T06:49:23Z</time>
      </trkpt>
      <trkpt lat="44.18233" lon="5.93245">
        <ele>565</ele>
        <time>2019-08-09T06:49:24Z</time>
      </trkpt>
      <trkpt lat="44.18228" lon="5.93238">
        <ele>565</ele>
        <time>2019-08-09T06:49:25Z</time>
      </trkpt>
      <trkpt lat="44.18223" lon="5.93232">
        <ele>565</ele>
        <time>2019-08-09T06:49:26Z</time>
      </trkpt>
      <trkpt lat="44.18218" lon="5.93227">
        <ele>565</ele>
        <time>2019-08-09T06:49:27Z</time>
      </trkpt>
      <trkpt lat="44.18213" lon="5.93223">
        <ele>565</ele>
        <time>2019-08-09T06:49:28Z</time>
      </trkpt>
      <trkpt lat="44.18208" lon="5.93219">
        <ele>565</ele>
        <time>2019-08-09T06:49:29Z</time>
      </trkpt>
      <trkpt lat="44.18203" lon="5.93217">
        <ele>565</ele>
        <time>2019-08-09T06:49:30Z</time>
      </trkpt>
      <trkpt lat="44.18198" lon="5.93215">
        <ele>565</ele>
        <time>2019-08-09T06:49:31Z</time>
      </trkpt>
      <trkpt lat="44.18193" lon="5.93213">
        <ele>565</ele>
        <time>2019-08-09T06:49:32Z</time>
      </trkpt>
      <trkpt lat="44.18187" lon="5.93212">
        <ele>565</ele>
        <time>2019-08-09T06:49:33Z</time>
      </trkpt>
      <trkpt lat="44.18182" lon="5.93211">
        <ele>565</ele>
        <time>2019-08-09T06:49:34Z</time>
      </trkpt>
      <trkpt lat="44.18176" lon="5.9321">
        <ele>565</ele>
        <time>2019-08-09T06:49:35Z</time>
      </trkpt>
      <trkpt lat="44.1817" lon="5.9321">
        <ele>565</ele>
        <time>2019-08-09T06:49:36Z</time>
      </trkpt>
      <trkpt lat="44.18164" lon="5.93209">
        <ele>565</ele>
        <time>2019-08-09T06:49:37Z</time>
      </trkpt>
      <trkpt lat="44.18157" lon="5.93207">
        <ele>565</ele>
        <time>2019-08-09T06:49:38Z</time>
      </trkpt>
      <trkpt lat="44.1815" lon="5.93205">
        <ele>565</ele>
        <time>2019-08-09T06:49:39Z</time>
      </trkpt>
      <trkpt lat="44.18143" lon="5.93204">
        <ele>565</ele>
        <time>2019-08-09T06:49:40Z</time>
      </trkpt>
      <trkpt lat="44.18135" lon="5.93202">
        <ele>564</ele>
        <time>2019-08-09T06:49:41Z</time>
      </trkpt>
      <trkpt lat="44.18127" lon="5.93201">
        <ele>564</ele>
        <time>2019-08-09T06:49:42Z</time>
      </trkpt>
      <trkpt lat="44.18119" lon="5.93199">
        <ele>563</ele>
        <time>2019-08-09T06:49:43Z</time>
      </trkpt>
      <trkpt lat="44.18111" lon="5.93196">
        <ele>563</ele>
        <time>2019-08-09T06:49:44Z</time>
      </trkpt>
      <trkpt lat="44.18102" lon="5.93194">
        <ele>563</ele>
        <time>2019-08-09T06:49:45Z</time>
      </trkpt>
      <trkpt lat="44.18093" lon="5.93192">
        <ele>562</ele>
        <time>2019-08-09T06:49:46Z</time>
      </trkpt>
      <trkpt lat="44.18084" lon="5.9319">
        <ele>562</ele>
        <time>2019-08-09T06:49:47Z</time>
      </trkpt>
      <trkpt lat="44.18074" lon="5.93188">
        <ele>561</ele>
        <time>2019-08-09T06:49:48Z</time>
      </trkpt>
      <trkpt lat="44.18064" lon="5.93186">
        <ele>560</ele>
        <time>2019-08-09T06:49:49Z</time>
      </trkpt>
      <trkpt lat="44.18053" lon="5.93185">
        <ele>560</ele>
        <time>2019-08-09T06:49:50Z</time>
      </trkpt>
      <trkpt lat="44.18043" lon="5.93183">
        <ele>559</ele>
        <time>2019-08-09T06:49:51Z</time>
      </trkpt>
      <trkpt lat="44.18032" lon="5.93182">
        <ele>558</ele>
        <time>2019-08-09T06:49:52Z</time>
      </trkpt>
      <trkpt lat="44.18021" lon="5.93181">
        <ele>557</ele>
        <time>2019-08-09T06:49:53Z</time>
      </trkpt>
      <trkpt lat="44.1801" lon="5.9318">
        <ele>556</ele>
        <time>2019-08-09T06:49:54Z</time>
      </trkpt>
      <trkpt lat="44.17999" lon="5.93179">
        <ele>555</ele>
        <time>2019-08-09T06:49:55Z</time>
      </trkpt>
      <trkpt lat="44.17988" lon="5.93177">
        <ele>554</ele>
        <time>2019-08-09T06:49:56Z</time>
      </trkpt>
      <trkpt lat="44.17978" lon="5.93174">
        <ele>553</ele>
        <time>2019-08-09T06:49:57Z</time>
      </trkpt>
      <trkpt lat="44.17968" lon="5.9317">
        <ele>552</ele>
        <time>2019-08-09T06:49:58Z</time>
      </trkpt>
      <trkpt lat="44.17958" lon="5.93164">
        <ele>551</ele>
        <time>2019-08-09T06:49:59Z</time>
      </trkpt>
      <trkpt lat="44.1795" lon="5.93158">
        <ele>550</ele>
        <time>2019-08-09T06:50:00Z</time>
      </trkpt>
      <trkpt lat="44.1794" lon="5.93151">
        <ele>549</ele>
        <time>2019-08-09T06:50:01Z</time>
      </trkpt>
      <trkpt lat="44.17931" lon="5.93144">
        <ele>549</ele>
        <time>2019-08-09T06:50:02Z</time>
      </trkpt>
      <trkpt lat="44.17923" lon="5.93137">
        <ele>548</ele>
        <time>2019-08-09T06:50:03Z</time>
      </trkpt>
      <trkpt lat="44.17914" lon="5.93129">
        <ele>547</ele>
        <time>2019-08-09T06:50:04Z</time>
      </trkpt>
      <trkpt lat="44.17906" lon="5.93121">
        <ele>546</ele>
        <time>2019-08-09T06:50:05Z</time>
      </trkpt>
      <trkpt lat="44.17897" lon="5.93113">
        <ele>546</ele>
        <time>2019-08-09T06:50:06Z</time>
      </trkpt>
      <trkpt lat="44.17889" lon="5.93103">
        <ele>545</ele>
        <time>2019-08-09T06:50:07Z</time>
      </trkpt>
      <trkpt lat="44.17882" lon="5.93093">
        <ele>544</ele>
        <time>2019-08-09T06:50:08Z</time>
      </trkpt>
      <trkpt lat="44.17876" lon="5.93081">
        <ele>543</ele>
        <time>2019-08-09T06:50:09Z</time>
      </trkpt>
      <trkpt lat="44.17872" lon="5.93067">
        <ele>542</ele>
        <time>2019-08-09T06:50:10Z</time>
      </trkpt>
      <trkpt lat="44.17869" lon="5.93053">
        <ele>541</ele>
        <time>2019-08-09T06:50:11Z</time>
      </trkpt>
      <trkpt lat="44.17867" lon="5.93038">
        <ele>540</ele>
        <time>2019-08-09T06:50:12Z</time>
      </trkpt>
      <trkpt lat="44.17867" lon="5.93022">
        <ele>539</ele>
        <time>2019-08-09T06:50:13Z</time>
      </trkpt>
      <trkpt lat="44.17867" lon="5.93007">
        <ele>538</ele>
        <time>2019-08-09T06:50:14Z</time>
      </trkpt>
      <trkpt lat="44.17866" lon="5.92992">
        <ele>537</ele>
        <time>2019-08-09T06:50:15Z</time>
      </trkpt>
      <trkpt lat="44.17865" lon="5.92977">
        <ele>537</ele>
        <time>2019-08-09T06:50:16Z</time>
      </trkpt>
      <trkpt lat="44.17862" lon="5.92963">
        <ele>536</ele>
        <time>2019-08-09T06:50:17Z</time>
      </trkpt>
      <trkpt lat="44.17858" lon="5.92949">
        <ele>535</ele>
        <time>2019-08-09T06:50:18Z</time>
      </trkpt>
      <trkpt lat="44.17855" lon="5.92935">
        <ele>534</ele>
        <time>2019-08-09T06:50:19Z</time>
      </trkpt>
      <trkpt lat="44.17852" lon="5.9292">
        <ele>533</ele>
        <time>2019-08-09T06:50:20Z</time>
      </trkpt>
      <trkpt lat="44.17851" lon="5.92905">
        <ele>533</ele>
        <time>2019-08-09T06:50:21Z</time>
      </trkpt>
      <trkpt lat="44.1785" lon="5.92889">
        <ele>532</ele>
        <time>2019-08-09T06:50:22Z</time>
      </trkpt>
      <trkpt lat="44.17849" lon="5.92874">
        <ele>531</ele>
        <time>2019-08-09T06:50:23Z</time>
      </trkpt>
      <trkpt lat="44.17848" lon="5.92857">
        <ele>530</ele>
        <time>2019-08-09T06:50:24Z</time>
      </trkpt>
      <trkpt lat="44.17848" lon="5.9284">
        <ele>529</ele>
        <time>2019-08-09T06:50:25Z</time>
      </trkpt>
      <trkpt lat="44.17849" lon="5.92823">
        <ele>528</ele>
        <time>2019-08-09T06:50:26Z</time>
      </trkpt>
      <trkpt lat="44.1785" lon="5.92807">
        <ele>527</ele>
        <time>2019-08-09T06:50:27Z</time>
      </trkpt>
      <trkpt lat="44.17853" lon="5.92791">
        <ele>526</ele>
        <time>2019-08-09T06:50:28Z</time>
      </trkpt>
      <trkpt lat="44.17856" lon="5.92775">
        <ele>525</ele>
        <time>2019-08-09T06:50:29Z</time>
      </trkpt>
      <trkpt lat="44.17859" lon="5.92759">
        <ele>524</ele>
        <time>2019-08-09T06:50:30Z</time>
      </trkpt>
      <trkpt lat="44.1786" lon="5.92743">
        <ele>523</ele>
        <time>2019-08-09T06:50:31Z</time>
      </trkpt>
      <trkpt lat="44.1786" lon="5.92727">
        <ele>522</ele>
        <time>2019-08-09T06:50:32Z</time>
      </trkpt>
      <trkpt lat="44.17859" lon="5.92711">
        <ele>521</ele>
        <time>2019-08-09T06:50:33Z</time>
      </trkpt>
      <trkpt lat="44.17857" lon="5.92696">
        <ele>520</ele>
        <time>2019-08-09T06:50:34Z</time>
      </trkpt>
      <trkpt lat="44.17855" lon="5.9268">
        <ele>519</ele>
        <time>2019-08-09T06:50:35Z</time>
      </trkpt>
      <trkpt lat="44.17853" lon="5.92664">
        <ele>518</ele>
        <time>2019-08-09T06:50:36Z</time>
      </trkpt>
      <trkpt lat="44.1785" lon="5.92648">
        <ele>517</ele>
        <time>2019-08-09T06:50:37Z</time>
      </trkpt>
      <trkpt lat="44.17847" lon="5.92632">
        <ele>516</ele>
        <time>2019-08-09T06:50:38Z</time>
      </trkpt>
      <trkpt lat="44.17844" lon="5.92616">
        <ele>516</ele>
        <time>2019-08-09T06:50:39Z</time>
      </trkpt>
      <trkpt lat="44.17842" lon="5.92599">
        <ele>515</ele>
        <time>2019-08-09T06:50:40Z</time>
      </trkpt>
      <trkpt lat="44.17838" lon="5.92584">
        <ele>514</ele>
        <time>2019-08-09T06:50:41Z</time>
      </trkpt>
      <trkpt lat="44.17834" lon="5.92569">
        <ele>513</ele>
        <time>2019-08-09T06:50:42Z</time>
      </trkpt>
      <trkpt lat="44.17828" lon="5.92556">
        <ele>512</ele>
        <time>2019-08-09T06:50:43Z</time>
      </trkpt>
      <trkpt lat="44.1782" lon="5.92544">
        <ele>511</ele>
        <time>2019-08-09T06:50:44Z</time>
      </trkpt>
      <trkpt lat="44.17812" lon="5.92532">
        <ele>510</ele>
        <time>2019-08-09T06:50:45Z</time>
      </trkpt>
      <trkpt lat="44.17803" lon="5.92522">
        <ele>509</ele>
        <time>2019-08-09T06:50:46Z</time>
      </trkpt>
      <trkpt lat="44.17793" lon="5.92514">
        <ele>508</ele>
        <time>2019-08-09T06:50:47Z</time>
      </trkpt>
      <trkpt lat="44.17783" lon="5.92509">
        <ele>507</ele>
        <time>2019-08-09T06:50:48Z</time>
      </trkpt>
      <trkpt lat="44.17773" lon="5.92507">
        <ele>506</ele>
        <time>2019-08-09T06:50:49Z</time>
      </trkpt>
      <trkpt lat="44.17764" lon="5.9251">
        <ele>505</ele>
        <time>2019-08-09T06:50:50Z</time>
      </trkpt>
      <trkpt lat="44.17754" lon="5.92515">
        <ele>504</ele>
        <time>2019-08-09T06:50:51Z</time>
      </trkpt>
      <trkpt lat="44.17744" lon="5.9252">
        <ele>503</ele>
        <time>2019-08-09T06:50:52Z</time>
      </trkpt>
      <trkpt lat="44.17735" lon="5.92526">
        <ele>502</ele>
        <time>2019-08-09T06:50:53Z</time>
      </trkpt>
      <trkpt lat="44.17725" lon="5.92532">
        <ele>502</ele>
        <time>2019-08-09T06:50:54Z</time>
      </trkpt>
      <trkpt lat="44.17717" lon="5.92539">
        <ele>502</ele>
        <time>2019-08-09T06:50:55Z</time>
      </trkpt>
      <trkpt lat="44.17709" lon="5.92545">
        <ele>501</ele>
        <time>2019-08-09T06:50:56Z</time>
      </trkpt>
      <trkpt lat="44.17701" lon="5.9255">
        <ele>501</ele>
        <time>2019-08-09T06:50:57Z</time>
      </trkpt>
      <trkpt lat="44.17693" lon="5.92554">
        <ele>501</ele>
        <time>2019-08-09T06:50:58Z</time>
      </trkpt>
      <trkpt lat="44.17686" lon="5.92557">
        <ele>500</ele>
        <time>2019-08-09T06:50:59Z</time>
      </trkpt>
      <trkpt lat="44.17679" lon="5.9256">
        <ele>500</ele>
        <time>2019-08-09T06:51:00Z</time>
      </trkpt>
      <trkpt lat="44.17672" lon="5.9256">
        <ele>500</ele>
        <time>2019-08-09T06:51:01Z</time>
      </trkpt>
      <trkpt lat="44.17664" lon="5.92561">
        <ele>500</ele>
        <time>2019-08-09T06:51:02Z</time>
      </trkpt>
      <trkpt lat="44.17657" lon="5.9256">
        <ele>500</ele>
        <time>2019-08-09T06:51:03Z</time>
      </trkpt>
      <trkpt lat="44.1765" lon="5.92559">
        <ele>500</ele>
        <time>2019-08-09T06:51:04Z</time>
      </trkpt>
      <trkpt lat="44.17643" lon="5.92558">
        <ele>500</ele>
        <time>2019-08-09T06:51:05Z</time>
      </trkpt>
      <trkpt lat="44.17636" lon="5.92557">
        <ele>500</ele>
        <time>2019-08-09T06:51:06Z</time>
      </trkpt>
      <trkpt lat="44.17629" lon="5.92555">
        <ele>500</ele>
        <time>2019-08-09T06:51:07Z</time>
      </trkpt>
      <trkpt lat="44.17622" lon="5.92553">
        <ele>500</ele>
        <time>2019-08-09T06:51:08Z</time>
      </trkpt>
      <trkpt lat="44.17615" lon="5.92551">
        <ele>500</ele>
        <time>2019-08-09T06:51:09Z</time>
      </trkpt>
      <trkpt lat="44.17609" lon="5.9255">
        <ele>500</ele>
        <time>2019-08-09T06:51:10Z</time>
      </trkpt>
      <trkpt lat="44.17602" lon="5.92549">
        <ele>500</ele>
        <time>2019-08-09T06:51:11Z</time>
      </trkpt>
      <trkpt lat="44.17595" lon="5.92547">
        <ele>500</ele>
        <time>2019-08-09T06:51:12Z</time>
      </trkpt>
      <trkpt lat="44.17589" lon="5.92545">
        <ele>500</ele>
        <time>2019-08-09T06:51:13Z</time>
      </trkpt>
      <trkpt lat="44.17582" lon="5.92544">
        <ele>500</ele>
        <time>2019-08-09T06:51:14Z</time>
      </trkpt>
      <trkpt lat="44.17576" lon="5.92542">
        <ele>500</ele>
        <time>2019-08-09T06:51:15Z</time>
      </trkpt>
      <trkpt lat="44.17569" lon="5.9254">
        <ele>500</ele>
        <time>2019-08-09T06:51:16Z</time>
      </trkpt>
      <trkpt lat="44.17563" lon="5.92538">
        <ele>500</ele>
        <time>2019-08-09T06:51:17Z</time>
      </trkpt>
      <trkpt lat="44.17557" lon="5.92536">
        <ele>500</ele>
        <time>2019-08-09T06:51:18Z</time>
      </trkpt>
      <trkpt lat="44.1755" lon="5.92534">
        <ele>500</ele>
        <time>2019-08-09T06:51:19Z</time>
      </trkpt>
      <trkpt lat="44.17544" lon="5.92533">
        <ele>500</ele>
        <time>2019-08-09T06:51:20Z</time>
      </trkpt>
      <trkpt lat="44.17538" lon="5.92531">
        <ele>500</ele>
        <time>2019-08-09T06:51:21Z</time>
      </trkpt>
      <trkpt lat="44.17531" lon="5.92529">
        <ele>501</ele>
        <time>2019-08-09T06:51:22Z</time>
      </trkpt>
      <trkpt lat="44.17525" lon="5.92527">
        <ele>501</ele>
        <time>2019-08-09T06:51:23Z</time>
      </trkpt>
      <trkpt lat="44.17519" lon="5.92526">
        <ele>501</ele>
        <time>2019-08-09T06:51:24Z</time>
      </trkpt>
      <trkpt lat="44.17512" lon="5.92524">
        <ele>501</ele>
        <time>2019-08-09T06:51:25Z</time>
      </trkpt>
      <trkpt lat="44.17506" lon="5.92522">
        <ele>501</ele>
        <time>2019-08-09T06:51:26Z</time>
      </trkpt>
      <trkpt lat="44.175" lon="5.9252">
        <ele>501</ele>
        <time>2019-08-09T06:51:27Z</time>
      </trkpt>
      <trkpt lat="44.17493" lon="5.92518">
        <ele>501</ele>
        <time>2019-08-09T06:51:28Z</time>
      </trkpt>
      <trkpt lat="44.17487" lon="5.92515">
        <ele>501</ele>
        <time>2019-08-09T06:51:29Z</time>
      </trkpt>
      <trkpt lat="44.1748" lon="5.92513">
        <ele>501</ele>
        <time>2019-08-09T06:51:30Z</time>
      </trkpt>
      <trkpt lat="44.17474" lon="5.9251">
        <ele>501</ele>
        <time>2019-08-09T06:51:31Z</time>
      </trkpt>
      <trkpt lat="44.17468" lon="5.92507">
        <ele>501</ele>
        <time>2019-08-09T06:51:32Z</time>
      </trkpt>
      <trkpt lat="44.17462" lon="5.92503">
        <ele>501</ele>
        <time>2019-08-09T06:51:33Z</time>
      </trkpt>
      <trkpt lat="44.17457" lon="5.925">
        <ele>501</ele>
        <time>2019-08-09T06:51:34Z</time>
      </trkpt>
      <trkpt lat="44.17451" lon="5.92495">
        <ele>501</ele>
        <time>2019-08-09T06:51:35Z</time>
      </trkpt>
      <trkpt lat="44.17445" lon="5.92491">
        <ele>501</ele>
        <time>2019-08-09T06:51:36Z</time>
      </trkpt>
      <trkpt lat="44.1744" lon="5.92486">
        <ele>501</ele>
        <time>2019-08-09T06:51:37Z</time>
      </trkpt>
      <trkpt lat="44.17434" lon="5.9248">
        <ele>501</ele>
        <time>2019-08-09T06:51:38Z</time>
      </trkpt>
      <trkpt lat="44.17429" lon="5.92474">
        <ele>501</ele>
        <time>2019-08-09T06:51:39Z</time>
      </trkpt>
      <trkpt lat="44.17424" lon="5.92468">
        <ele>501</ele>
        <time>2019-08-09T06:51:40Z</time>
      </trkpt>
      <trkpt lat="44.17419" lon="5.92462">
        <ele>501</ele>
        <time>2019-08-09T06:51:41Z</time>
      </trkpt>
      <trkpt lat="44.17415" lon="5.92455">
        <ele>501</ele>
        <time>2019-08-09T06:51:42Z</time>
      </trkpt>
      <trkpt lat="44.17411" lon="5.92448">
        <ele>501</ele>
        <time>2019-08-09T06:51:43Z</time>
      </trkpt>
      <trkpt lat="44.17406" lon="5.9244">
        <ele>501</ele>
        <time>2019-08-09T06:51:44Z</time>
      </trkpt>
      <trkpt lat="44.17402" lon="5.92432">
        <ele>501</ele>
        <time>2019-08-09T06:51:45Z</time>
      </trkpt>
      <trkpt lat="44.17397" lon="5.92424">
        <ele>501</ele>
        <time>2019-08-09T06:51:46Z</time>
      </trkpt>
      <trkpt lat="44.17393" lon="5.92416">
        <ele>501</ele>
        <time>2019-08-09T06:51:47Z</time>
      </trkpt>
      <trkpt lat="44.17389" lon="5.92407">
        <ele>501</ele>
        <time>2019-08-09T06:51:48Z</time>
      </trkpt>
      <trkpt lat="44.17385" lon="5.92399">
        <ele>501</ele>
        <time>2019-08-09T06:51:49Z</time>
      </trkpt>
      <trkpt lat="44.17381" lon="5.9239">
        <ele>501</ele>
        <time>2019-08-09T06:51:50Z</time>
      </trkpt>
      <trkpt lat="44.17377" lon="5.92381">
        <ele>501</ele>
        <time>2019-08-09T06:51:51Z</time>
      </trkpt>
      <trkpt lat="44.17374" lon="5.92373">
        <ele>501</ele>
        <time>2019-08-09T06:51:52Z</time>
      </trkpt>
      <trkpt lat="44.1737" lon="5.92364">
        <ele>501</ele>
        <time>2019-08-09T06:51:53Z</time>
      </trkpt>
      <trkpt lat="44.17366" lon="5.92355">
        <ele>501</ele>
        <time>2019-08-09T06:51:54Z</time>
      </trkpt>
      <trkpt lat="44.17362" lon="5.92346">
        <ele>501</ele>
        <time>2019-08-09T06:51:55Z</time>
      </trkpt>
      <trkpt lat="44.17358" lon="5.92338">
        <ele>501</ele>
        <time>2019-08-09T06:51:56Z</time>
      </trkpt>
      <trkpt lat="44.17354" lon="5.92329">
        <ele>501</ele>
        <time>2019-08-09T06:51:57Z</time>
      </trkpt>
      <trkpt lat="44.17351" lon="5.92319">
        <ele>501</ele>
        <time>2019-08-09T06:51:58Z</time>
      </trkpt>
      <trkpt lat="44.17347" lon="5.9231">
        <ele>501</ele>
        <time>2019-08-09T06:51:59Z</time>
      </trkpt>
      <trkpt lat="44.17343" lon="5.923">
        <ele>501</ele>
        <time>2019-08-09T06:52:00Z</time>
      </trkpt>
      <trkpt lat="44.1734" lon="5.92291">
        <ele>501</ele>
        <time>2019-08-09T06:52:01Z</time>
      </trkpt>
      <trkpt lat="44.17336" lon="5.92281">
        <ele>501</ele>
        <time>2019-08-09T06:52:02Z</time>
      </trkpt>
      <trkpt lat="44.17332" lon="5.92272">
        <ele>501</ele>
        <time>2019-08-09T06:52:03Z</time>
      </trkpt>
      <trkpt lat="44.17328" lon="5.92262">
        <ele>501</ele>
        <time>2019-08-09T06:52:04Z</time>
      </trkpt>
      <trkpt lat="44.17324" lon="5.92252">
        <ele>501</ele>
        <time>2019-08-09T06:52:05Z</time>
      </trkpt>
      <trkpt lat="44.1732" lon="5.92241">
        <ele>501</ele>
        <time>2019-08-09T06:52:06Z</time>
      </trkpt>
      <trkpt lat="44.17316" lon="5.92231">
        <ele>501</ele>
        <time>2019-08-09T06:52:07Z</time>
      </trkpt>
      <trkpt lat="44.17313" lon="5.92219">
        <ele>500</ele>
        <time>2019-08-09T06:52:08Z</time>
      </trkpt>
      <trkpt lat="44.17309" lon="5.92208">
        <ele>500</ele>
        <time>2019-08-09T06:52:09Z</time>
      </trkpt>
      <trkpt lat="44.17306" lon="5.92196">
        <ele>499</ele>
        <time>2019-08-09T06:52:10Z</time>
      </trkpt>
      <trkpt lat="44.17302" lon="5.92184">
        <ele>499</ele>
        <time>2019-08-09T06:52:11Z</time>
      </trkpt>
      <trkpt lat="44.17298" lon="5.92172">
        <ele>498</ele>
        <time>2019-08-09T06:52:12Z</time>
      </trkpt>
      <trkpt lat="44.17294" lon="5.9216">
        <ele>497</ele>
        <time>2019-08-09T06:52:13Z</time>
      </trkpt>
      <trkpt lat="44.17289" lon="5.92147">
        <ele>497</ele>
        <time>2019-08-09T06:52:14Z</time>
      </trkpt>
      <trkpt lat="44.17285" lon="5.92135">
        <ele>496</ele>
        <time>2019-08-09T06:52:15Z</time>
      </trkpt>
      <trkpt lat="44.1728" lon="5.92123">
        <ele>495</ele>
        <time>2019-08-09T06:52:16Z</time>
      </trkpt>
      <trkpt lat="44.17275" lon="5.9211">
        <ele>495</ele>
        <time>2019-08-09T06:52:17Z</time>
      </trkpt>
      <trkpt lat="44.1727" lon="5.92097">
        <ele>494</ele>
        <time>2019-08-09T06:52:18Z</time>
      </trkpt>
      <trkpt lat="44.17265" lon="5.92085">
        <ele>494</ele>
        <time>2019-08-09T06:52:19Z</time>
      </trkpt>
      <trkpt lat="44.1726" lon="5.92072">
        <ele>493</ele>
        <time>2019-08-09T06:52:20Z</time>
      </trkpt>
      <trkpt lat="44.17255" lon="5.92059">
        <ele>492</ele>
        <time>2019-08-09T06:52:21Z</time>
      </trkpt>
      <trkpt lat="44.1725" lon="5.92046">
        <ele>492</ele>
        <time>2019-08-09T06:52:22Z</time>
      </trkpt>
      <trkpt lat="44.17245" lon="5.92034">
        <ele>491</ele>
        <time>2019-08-09T06:52:23Z</time>
      </trkpt>
      <trkpt lat="44.1724" lon="5.92022">
        <ele>491</ele>
        <time>2019-08-09T06:52:24Z</time>
      </trkpt>
      <trkpt lat="44.17235" lon="5.9201">
        <ele>490</ele>
        <time>2019-08-09T06:52:25Z</time>
      </trkpt>
      <trkpt lat="44.1723" lon="5.91998">
        <ele>490</ele>
        <time>2019-08-09T06:52:26Z</time>
      </trkpt>
      <trkpt lat="44.17225" lon="5.91986">
        <ele>489</ele>
        <time>2019-08-09T06:52:27Z</time>
      </trkpt>
      <trkpt lat="44.17221" lon="5.91975">
        <ele>489</ele>
        <time>2019-08-09T06:52:28Z</time>
      </trkpt>
      <trkpt lat="44.17216" lon="5.91963">
        <ele>488</ele>
        <time>2019-08-09T06:52:29Z</time>
      </trkpt>
      <trkpt lat="44.17212" lon="5.91952">
        <ele>488</ele>
        <time>2019-08-09T06:52:30Z</time>
      </trkpt>
      <trkpt lat="44.17209" lon="5.9194">
        <ele>487</ele>
        <time>2019-08-09T06:52:31Z</time>
      </trkpt>
      <trkpt lat="44.17206" lon="5.91928">
        <ele>487</ele>
        <time>2019-08-09T06:52:32Z</time>
      </trkpt>
      <trkpt lat="44.17205" lon="5.91916">
        <ele>486</ele>
        <time>2019-08-09T06:52:33Z</time>
      </trkpt>
      <trkpt lat="44.17204" lon="5.91903">
        <ele>486</ele>
        <time>2019-08-09T06:52:34Z</time>
      </trkpt>
      <trkpt lat="44.17203" lon="5.9189">
        <ele>485</ele>
        <time>2019-08-09T06:52:35Z</time>
      </trkpt>
      <trkpt lat="44.17201" lon="5.91879">
        <ele>485</ele>
        <time>2019-08-09T06:52:36Z</time>
      </trkpt>
      <trkpt lat="44.17198" lon="5.91868">
        <ele>484</ele>
        <time>2019-08-09T06:52:37Z</time>
      </trkpt>
      <trkpt lat="44.17194" lon="5.91858">
        <ele>484</ele>
        <time>2019-08-09T06:52:38Z</time>
      </trkpt>
      <trkpt lat="44.1719" lon="5.9185">
        <ele>483</ele>
        <time>2019-08-09T06:52:39Z</time>
      </trkpt>
      <trkpt lat="44.17186" lon="5.91842">
        <ele>483</ele>
        <time>2019-08-09T06:52:40Z</time>
      </trkpt>
      <trkpt lat="44.17182" lon="5.91834">
        <ele>482</ele>
        <time>2019-08-09T06:52:41Z</time>
      </trkpt>
      <trkpt lat="44.17178" lon="5.91826">
        <ele>482</ele>
        <time>2019-08-09T06:52:42Z</time>
      </trkpt>
      <trkpt lat="44.17176" lon="5.91818">
        <ele>482</ele>
        <time>2019-08-09T06:52:43Z</time>
      </trkpt>
      <trkpt lat="44.17176" lon="5.91809">
        <ele>482</ele>
        <time>2019-08-09T06:52:44Z</time>
      </trkpt>
      <trkpt lat="44.17176" lon="5.91799">
        <ele>482</ele>
        <time>2019-08-09T06:52:45Z</time>
      </trkpt>
      <trkpt lat="44.17178" lon="5.9179">
        <ele>482</ele>
        <time>2019-08-09T06:52:46Z</time>
      </trkpt>
      <trkpt lat="44.1718" lon="5.9178">
        <ele>482</ele>
        <time>2019-08-09T06:52:47Z</time>
      </trkpt>
      <trkpt lat="44.17181" lon="5.91771">
        <ele>482</ele>
        <time>2019-08-09T06:52:48Z</time>
      </trkpt>
      <trkpt lat="44.17183" lon="5.91761">
        <ele>482</ele>
        <time>2019-08-09T06:52:49Z</time>
      </trkpt>
      <trkpt lat="44.17184" lon="5.91751">
        <ele>482</ele>
        <time>2019-08-09T06:52:50Z</time>
      </trkpt>
      <trkpt lat="44.17186" lon="5.91742">
        <ele>482</ele>
        <time>2019-08-09T06:52:51Z</time>
      </trkpt>
      <trkpt lat="44.17187" lon="5.91733">
        <ele>482</ele>
        <time>2019-08-09T06:52:52Z</time>
      </trkpt>
      <trkpt lat="44.17189" lon="5.91724">
        <ele>482</ele>
        <time>2019-08-09T06:52:53Z</time>
      </trkpt>
      <trkpt lat="44.1719" lon="5.91714">
        <ele>482</ele>
        <time>2019-08-09T06:52:54Z</time>
      </trkpt>
      <trkpt lat="44.17192" lon="5.91706">
        <ele>482</ele>
        <time>2019-08-09T06:52:55Z</time>
      </trkpt>
      <trkpt lat="44.17193" lon="5.91697">
        <ele>482</ele>
        <time>2019-08-09T06:52:56Z</time>
      </trkpt>
      <trkpt lat="44.17195" lon="5.91688">
        <ele>482</ele>
        <time>2019-08-09T06:52:57Z</time>
      </trkpt>
      <trkpt lat="44.17196" lon="5.91678">
        <ele>482</ele>
        <time>2019-08-09T06:52:58Z</time>
      </trkpt>
      <trkpt lat="44.17198" lon="5.9167">
        <ele>482</ele>
        <time>2019-08-09T06:52:59Z</time>
      </trkpt>
      <trkpt lat="44.17199" lon="5.91661">
        <ele>482</ele>
        <time>2019-08-09T06:53:00Z</time>
      </trkpt>
      <trkpt lat="44.17201" lon="5.91652">
        <ele>482</ele>
        <time>2019-08-09T06:53:01Z</time>
      </trkpt>
      <trkpt lat="44.17202" lon="5.91644">
        <ele>482</ele>
        <time>2019-08-09T06:53:02Z</time>
      </trkpt>
      <trkpt lat="44.17204" lon="5.91636">
        <ele>482</ele>
        <time>2019-08-09T06:53:03Z</time>
      </trkpt>
      <trkpt lat="44.17205" lon="5.91627">
        <ele>482</ele>
        <time>2019-08-09T06:53:04Z</time>
      </trkpt>
      <trkpt lat="44.17207" lon="5.91619">
        <ele>482</ele>
        <time>2019-08-09T06:53:05Z</time>
      </trkpt>
      <trkpt lat="44.17208" lon="5.9161">
        <ele>482</ele>
        <time>2019-08-09T06:53:06Z</time>
      </trkpt>
      <trkpt lat="44.1721" lon="5.91602">
        <ele>482</ele>
        <time>2019-08-09T06:53:07Z</time>
      </trkpt>
      <trkpt lat="44.17212" lon="5.91594">
        <ele>482</ele>
        <time>2019-08-09T06:53:08Z</time>
      </trkpt>
      <trkpt lat="44.17213" lon="5.91585">
        <ele>482</ele>
        <time>2019-08-09T06:53:09Z</time>
      </trkpt>
      <trkpt lat="44.17215" lon="5.91576">
        <ele>482</ele>
        <time>2019-08-09T06:53:10Z</time>
      </trkpt>
      <trkpt lat="44.17217" lon="5.91568">
        <ele>482</ele>
        <time>2019-08-09T06:53:11Z</time>
      </trkpt>
      <trkpt lat="44.1722" lon="5.91558">
        <ele>483</ele>
        <time>2019-08-09T06:53:12Z</time>
      </trkpt>
      <trkpt lat="44.17221" lon="5.9155">
        <ele>483</ele>
        <time>2019-08-09T06:53:13Z</time>
      </trkpt>
      <trkpt lat="44.17224" lon="5.91542">
        <ele>483</ele>
        <time>2019-08-09T06:53:14Z</time>
      </trkpt>
      <trkpt lat="44.17226" lon="5.91533">
        <ele>484</ele>
        <time>2019-08-09T06:53:15Z</time>
      </trkpt>
      <trkpt lat="44.17227" lon="5.91523">
        <ele>484</ele>
        <time>2019-08-09T06:53:16Z</time>
      </trkpt>
      <trkpt lat="44.17229" lon="5.91513">
        <ele>484</ele>
        <time>2019-08-09T06:53:17Z</time>
      </trkpt>
      <trkpt lat="44.17231" lon="5.91503">
        <ele>484</ele>
        <time>2019-08-09T06:53:18Z</time>
      </trkpt>
      <trkpt lat="44.17233" lon="5.91494">
        <ele>484</ele>
        <time>2019-08-09T06:53:19Z</time>
      </trkpt>
      <trkpt lat="44.17235" lon="5.91484">
        <ele>484</ele>
        <time>2019-08-09T06:53:20Z</time>
      </trkpt>
      <trkpt lat="44.17236" lon="5.91474">
        <ele>484</ele>
        <time>2019-08-09T06:53:21Z</time>
      </trkpt>
      <trkpt lat="44.17238" lon="5.91464">
        <ele>484</ele>
        <time>2019-08-09T06:53:22Z</time>
      </trkpt>
      <trkpt lat="44.17239" lon="5.91454">
        <ele>484</ele>
        <time>2019-08-09T06:53:23Z</time>
      </trkpt>
      <trkpt lat="44.17241" lon="5.91444">
        <ele>484</ele>
        <time>2019-08-09T06:53:24Z</time>
      </trkpt>
      <trkpt lat="44.17242" lon="5.91435">
        <ele>484</ele>
        <time>2019-08-09T06:53:25Z</time>
      </trkpt>
      <trkpt lat="44.17244" lon="5.91426">
        <ele>484</ele>
        <time>2019-08-09T06:53:26Z</time>
      </trkpt>
      <trkpt lat="44.17245" lon="5.91417">
        <ele>484</ele>
        <time>2019-08-09T06:53:27Z</time>
      </trkpt>
      <trkpt lat="44.17247" lon="5.91408">
        <ele>484</ele>
        <time>2019-08-09T06:53:28Z</time>
      </trkpt>
      <trkpt lat="44.17248" lon="5.91399">
        <ele>484</ele>
        <time>2019-08-09T06:53:29Z</time>
      </trkpt>
      <trkpt lat="44.1725" lon="5.91391">
        <ele>484</ele>
        <time>2019-08-09T06:53:30Z</time>
      </trkpt>
      <trkpt lat="44.17251" lon="5.91382">
        <ele>484</ele>
        <time>2019-08-09T06:53:31Z</time>
      </trkpt>
      <trkpt lat="44.17253" lon="5.91374">
        <ele>484</ele>
        <time>2019-08-09T06:53:32Z</time>
      </trkpt>
      <trkpt lat="44.17255" lon="5.91365">
        <ele>484</ele>
        <time>2019-08-09T06:53:33Z</time>
      </trkpt>
      <trkpt lat="44.17257" lon="5.91357">
        <ele>484</ele>
        <time>2019-08-09T06:53:34Z</time>
      </trkpt>
      <trkpt lat="44.1726" lon="5.91349">
        <ele>484</ele>
        <time>2019-08-09T06:53:35Z</time>
      </trkpt>
      <trkpt lat="44.17262" lon="5.91341">
        <ele>484</ele>
        <time>2019-08-09T06:53:36Z</time>
      </trkpt>
      <trkpt lat="44.17264" lon="5.91332">
        <ele>484</ele>
        <time>2019-08-09T06:53:37Z</time>
      </trkpt>
      <trkpt lat="44.17267" lon="5.91324">
        <ele>484</ele>
        <time>2019-08-09T06:53:38Z</time>
      </trkpt>
      <trkpt lat="44.17269" lon="5.91316">
        <ele>484</ele>
        <time>2019-08-09T06:53:39Z</time>
      </trkpt>
      <trkpt lat="44.17271" lon="5.91308">
        <ele>484</ele>
        <time>2019-08-09T06:53:40Z</time>
      </trkpt>
      <trkpt lat="44.17274" lon="5.91301">
        <ele>484</ele>
        <time>2019-08-09T06:53:41Z</time>
      </trkpt>
      <trkpt lat="44.17277" lon="5.91294">
        <ele>484</ele>
        <time>2019-08-09T06:53:42Z</time>
      </trkpt>
      <trkpt lat="44.1728" lon="5.91287">
        <ele>484</ele>
        <time>2019-08-09T06:53:43Z</time>
      </trkpt>
      <trkpt lat="44.17283" lon="5.9128">
        <ele>484</ele>
        <time>2019-08-09T06:53:44Z</time>
      </trkpt>
      <trkpt lat="44.17286" lon="5.91273">
        <ele>484</ele>
        <time>2019-08-09T06:53:45Z</time>
      </trkpt>
      <trkpt lat="44.17289" lon="5.91266">
        <ele>484</ele>
        <time>2019-08-09T06:53:46Z</time>
      </trkpt>
      <trkpt lat="44.17292" lon="5.91259">
        <ele>484</ele>
        <time>2019-08-09T06:53:47Z</time>
      </trkpt>
      <trkpt lat="44.17296" lon="5.91252">
        <ele>484</ele>
        <time>2019-08-09T06:53:48Z</time>
      </trkpt>
      <trkpt lat="44.17299" lon="5.91245">
        <ele>484</ele>
        <time>2019-08-09T06:53:49Z</time>
      </trkpt>
      <trkpt lat="44.17302" lon="5.91238">
        <ele>484</ele>
        <time>2019-08-09T06:53:50Z</time>
      </trkpt>
      <trkpt lat="44.17306" lon="5.91231">
        <ele>484</ele>
        <time>2019-08-09T06:53:51Z</time>
      </trkpt>
      <trkpt lat="44.1731" lon="5.91224">
        <ele>485</ele>
        <time>2019-08-09T06:53:52Z</time>
      </trkpt>
      <trkpt lat="44.17314" lon="5.91217">
        <ele>485</ele>
        <time>2019-08-09T06:53:53Z</time>
      </trkpt>
      <trkpt lat="44.17318" lon="5.91209">
        <ele>485</ele>
        <time>2019-08-09T06:53:54Z</time>
      </trkpt>
      <trkpt lat="44.17322" lon="5.91201">
        <ele>485</ele>
        <time>2019-08-09T06:53:55Z</time>
      </trkpt>
      <trkpt lat="44.17325" lon="5.91194">
        <ele>485</ele>
        <time>2019-08-09T06:53:56Z</time>
      </trkpt>
      <trkpt lat="44.17329" lon="5.91186">
        <ele>485</ele>
        <time>2019-08-09T06:53:57Z</time>
      </trkpt>
      <trkpt lat="44.17333" lon="5.91179">
        <ele>485</ele>
        <time>2019-08-09T06:53:58Z</time>
      </trkpt>
      <trkpt lat="44.17336" lon="5.91171">
        <ele>485</ele>
        <time>2019-08-09T06:53:59Z</time>
      </trkpt>
      <trkpt lat="44.17339" lon="5.91162">
        <ele>485</ele>
        <time>2019-08-09T06:54:00Z</time>
      </trkpt>
      <trkpt lat="44.17343" lon="5.91153">
        <ele>485</ele>
        <time>2019-08-09T06:54:01Z</time>
      </trkpt>
      <trkpt lat="44.17345" lon="5.91144">
        <ele>485</ele>
        <time>2019-08-09T06:54:02Z</time>
      </trkpt>
      <trkpt lat="44.17347" lon="5.91135">
        <ele>485</ele>
        <time>2019-08-09T06:54:03Z</time>
      </trkpt>
      <trkpt lat="44.17348" lon="5.91127">
        <ele>485</ele>
        <time>2019-08-09T06:54:04Z</time>
      </trkpt>
      <trkpt lat="44.1735" lon="5.91118">
        <ele>485</ele>
        <time>2019-08-09T06:54:05Z</time>
      </trkpt>
      <trkpt lat="44.17352" lon="5.91109">
        <ele>485</ele>
        <time>2019-08-09T06:54:06Z</time>
      </trkpt>
      <trkpt lat="44.17353" lon="5.91101">
        <ele>485</ele>
        <time>2019-08-09T06:54:07Z</time>
      </trkpt>
      <trkpt lat="44.17353" lon="5.91093">
        <ele>485</ele>
        <time>2019-08-09T06:54:08Z</time>
      </trkpt>
      <trkpt lat="44.17354" lon="5.91084">
        <ele>485</ele>
        <time>2019-08-09T06:54:09Z</time>
      </trkpt>
      <trkpt lat="44.17355" lon="5.91076">
        <ele>485</ele>
        <time>2019-08-09T06:54:10Z</time>
      </trkpt>
      <trkpt lat="44.17356" lon="5.91067">
        <ele>485</ele>
        <time>2019-08-09T06:54:11Z</time>
      </trkpt>
      <trkpt lat="44.17356" lon="5.91059">
        <ele>485</ele>
        <time>2019-08-09T06:54:12Z</time>
      </trkpt>
      <trkpt lat="44.17357" lon="5.91051">
        <ele>485</ele>
        <time>2019-08-09T06:54:13Z</time>
      </trkpt>
      <trkpt lat="44.17357" lon="5.91043">
        <ele>485</ele>
        <time>2019-08-09T06:54:14Z</time>
      </trkpt>
      <trkpt lat="44.17358" lon="5.91036">
        <ele>485</ele>
        <time>2019-08-09T06:54:15Z</time>
      </trkpt>
      <trkpt lat="44.17358" lon="5.91028">
        <ele>485</ele>
        <time>2019-08-09T06:54:16Z</time>
      </trkpt>
      <trkpt lat="44.17358" lon="5.91021">
        <ele>485</ele>
        <time>2019-08-09T06:54:17Z</time>
      </trkpt>
      <trkpt lat="44.17359" lon="5.91014">
        <ele>485</ele>
        <time>2019-08-09T06:54:18Z</time>
      </trkpt>
      <trkpt lat="44.1736" lon="5.91007">
        <ele>485</ele>
        <time>2019-08-09T06:54:19Z</time>
      </trkpt>
      <trkpt lat="44.1736" lon="5.90999">
        <ele>485</ele>
        <time>2019-08-09T06:54:20Z</time>
      </trkpt>
      <trkpt lat="44.17361" lon="5.90992">
        <ele>485</ele>
        <time>2019-08-09T06:54:21Z</time>
      </trkpt>
      <trkpt lat="44.17362" lon="5.90986">
        <ele>485</ele>
        <time>2019-08-09T06:54:22Z</time>
      </trkpt>
      <trkpt lat="44.17363" lon="5.90979">
        <ele>485</ele>
        <time>2019-08-09T06:54:23Z</time>
      </trkpt>
      <trkpt lat="44.17364" lon="5.90972">
        <ele>485</ele>
        <time>2019-08-09T06:54:24Z</time>
      </trkpt>
      <trkpt lat="44.17365" lon="5.90964">
        <ele>485</ele>
        <time>2019-08-09T06:54:25Z</time>
      </trkpt>
      <trkpt lat="44.17365" lon="5.90958">
        <ele>485</ele>
        <time>2019-08-09T06:54:26Z</time>
      </trkpt>
      <trkpt lat="44.17366" lon="5.90951">
        <ele>485</ele>
        <time>2019-08-09T06:54:27Z</time>
      </trkpt>
      <trkpt lat="44.17366" lon="5.90943">
        <ele>485</ele>
        <time>2019-08-09T06:54:28Z</time>
      </trkpt>
      <trkpt lat="44.17367" lon="5.90936">
        <ele>485</ele>
        <time>2019-08-09T06:54:29Z</time>
      </trkpt>
      <trkpt lat="44.17368" lon="5.90929">
        <ele>485</ele>
        <time>2019-08-09T06:54:30Z</time>
      </trkpt>
      <trkpt lat="44.17369" lon="5.90921">
        <ele>485</ele>
        <time>2019-08-09T06:54:31Z</time>
      </trkpt>
      <trkpt lat="44.1737" lon="5.90913">
        <ele>485</ele>
        <time>2019-08-09T06:54:32Z</time>
      </trkpt>
      <trkpt lat="44.17371" lon="5.90906">
        <ele>485</ele>
        <time>2019-08-09T06:54:33Z</time>
      </trkpt>
      <trkpt lat="44.17371" lon="5.90899">
        <ele>485</ele>
        <time>2019-08-09T06:54:34Z</time>
      </trkpt>
      <trkpt lat="44.17372" lon="5.90891">
        <ele>485</ele>
        <time>2019-08-09T06:54:35Z</time>
      </trkpt>
      <trkpt lat="44.17373" lon="5.90884">
        <ele>485</ele>
        <time>2019-08-09T06:54:36Z</time>
      </trkpt>
      <trkpt lat="44.17374" lon="5.90877">
        <ele>485</ele>
        <time>2019-08-09T06:54:37Z</time>
      </trkpt>
      <trkpt lat="44.17374" lon="5.90869">
        <ele>485</ele>
        <time>2019-08-09T06:54:38Z</time>
      </trkpt>
      <trkpt lat="44.17375" lon="5.90862">
        <ele>485</ele>
        <time>2019-08-09T06:54:39Z</time>
      </trkpt>
      <trkpt lat="44.17376" lon="5.90855">
        <ele>485</ele>
        <time>2019-08-09T06:54:40Z</time>
      </trkpt>
      <trkpt lat="44.17377" lon="5.90847">
        <ele>485</ele>
        <time>2019-08-09T06:54:41Z</time>
      </trkpt>
      <trkpt lat="44.17377" lon="5.9084">
        <ele>485</ele>
        <time>2019-08-09T06:54:42Z</time>
      </trkpt>
      <trkpt lat="44.17378" lon="5.90834">
        <ele>485</ele>
        <time>2019-08-09T06:54:43Z</time>
      </trkpt>
      <trkpt lat="44.17379" lon="5.90827">
        <ele>485</ele>
        <time>2019-08-09T06:54:44Z</time>
      </trkpt>
      <trkpt lat="44.1738" lon="5.9082">
        <ele>485</ele>
        <time>2019-08-09T06:54:45Z</time>
      </trkpt>
      <trkpt lat="44.17381" lon="5.90811">
        <ele>485</ele>
        <time>2019-08-09T06:54:46Z</time>
      </trkpt>
      <trkpt lat="44.17382" lon="5.90804">
        <ele>485</ele>
        <time>2019-08-09T06:54:47Z</time>
      </trkpt>
      <trkpt lat="44.17382" lon="5.90796">
        <ele>485</ele>
        <time>2019-08-09T06:54:48Z</time>
      </trkpt>
      <trkpt lat="44.17382" lon="5.90789">
        <ele>485</ele>
        <time>2019-08-09T06:54:49Z</time>
      </trkpt>
      <trkpt lat="44.17382" lon="5.90781">
        <ele>485</ele>
        <time>2019-08-09T06:54:50Z</time>
      </trkpt>
      <trkpt lat="44.17382" lon="5.90773">
        <ele>485</ele>
        <time>2019-08-09T06:54:51Z</time>
      </trkpt>
      <trkpt lat="44.17383" lon="5.90764">
        <ele>485</ele>
        <time>2019-08-09T06:54:52Z</time>
      </trkpt>
      <trkpt lat="44.17383" lon="5.90755">
        <ele>485</ele>
        <time>2019-08-09T06:54:53Z</time>
      </trkpt>
      <trkpt lat="44.17383" lon="5.90747">
        <ele>485</ele>
        <time>2019-08-09T06:54:54Z</time>
      </trkpt>
      <trkpt lat="44.17383" lon="5.90738">
        <ele>485</ele>
        <time>2019-08-09T06:54:55Z</time>
      </trkpt>
      <trkpt lat="44.17383" lon="5.90729">
        <ele>485</ele>
        <time>2019-08-09T06:54:56Z</time>
      </trkpt>
      <trkpt lat="44.17383" lon="5.9072">
        <ele>485</ele>
        <time>2019-08-09T06:54:57Z</time>
      </trkpt>
      <trkpt lat="44.17383" lon="5.90711">
        <ele>485</ele>
        <time>2019-08-09T06:54:58Z</time>
      </trkpt>
      <trkpt lat="44.17383" lon="5.90701">
        <ele>485</ele>
        <time>2019-08-09T06:54:59Z</time>
      </trkpt>
      <trkpt lat="44.17383" lon="5.90692">
        <ele>485</ele>
        <time>2019-08-09T06:55:00Z</time>
      </trkpt>
      <trkpt lat="44.17383" lon="5.90683">
        <ele>485</ele>
        <time>2019-08-09T06:55:01Z</time>
      </trkpt>
      <trkpt lat="44.17383" lon="5.90673">
        <ele>485</ele>
        <time>2019-08-09T06:55:02Z</time>
      </trkpt>
      <trkpt lat="44.17383" lon="5.90665">
        <ele>485</ele>
        <time>2019-08-09T06:55:03Z</time>
      </trkpt>
      <trkpt lat="44.17383" lon="5.90656">
        <ele>485</ele>
        <time>2019-08-09T06:55:04Z</time>
      </trkpt>
      <trkpt lat="44.17383" lon="5.90647">
        <ele>485</ele>
        <time>2019-08-09T06:55:05Z</time>
      </trkpt>
      <trkpt lat="44.17383" lon="5.90638">
        <ele>485</ele>
        <time>2019-08-09T06:55:06Z</time>
      </trkpt>
      <trkpt lat="44.17383" lon="5.90629">
        <ele>485</ele>
        <time>2019-08-09T06:55:07Z</time>
      </trkpt>
      <trkpt lat="44.17383" lon="5.9062">
        <ele>485</ele>
        <time>2019-08-09T06:55:08Z</time>
      </trkpt>
      <trkpt lat="44.17383" lon="5.90611">
        <ele>485</ele>
        <time>2019-08-09T06:55:09Z</time>
      </trkpt>
      <trkpt lat="44.17383" lon="5.90602">
        <ele>485</ele>
        <time>2019-08-09T06:55:10Z</time>
      </trkpt>
      <trkpt lat="44.17383" lon="5.90593">
        <ele>485</ele>
        <time>2019-08-09T06:55:11Z</time>
      </trkpt>
      <trkpt lat="44.17383" lon="5.90585">
        <ele>485</ele>
        <time>2019-08-09T06:55:12Z</time>
      </trkpt>
      <trkpt lat="44.17383" lon="5.90576">
        <ele>485</ele>
        <time>2019-08-09T06:55:13Z</time>
      </trkpt>
      <trkpt lat="44.17383" lon="5.90566">
        <ele>485</ele>
        <time>2019-08-09T06:55:14Z</time>
      </trkpt>
      <trkpt lat="44.17383" lon="5.90557">
        <ele>485</ele>
        <time>2019-08-09T06:55:15Z</time>
      </trkpt>
      <trkpt lat="44.17383" lon="5.90548">
        <ele>485</ele>
        <time>2019-08-09T06:55:16Z</time>
      </trkpt>
      <trkpt lat="44.17383" lon="5.90539">
        <ele>485</ele>
        <time>2019-08-09T06:55:17Z</time>
      </trkpt>
      <trkpt lat="44.17384" lon="5.9053">
        <ele>485</ele>
        <time>2019-08-09T06:55:18Z</time>
      </trkpt>
      <trkpt lat="44.17384" lon="5.90521">
        <ele>485</ele>
        <time>2019-08-09T06:55:19Z</time>
      </trkpt>
      <trkpt lat="44.17384" lon="5.90512">
        <ele>485</ele>
        <time>2019-08-09T06:55:20Z</time>
      </trkpt>
      <trkpt lat="44.17383" lon="5.90504">
        <ele>485</ele>
        <time>2019-08-09T06:55:21Z</time>
      </trkpt>
      <trkpt lat="44.17383" lon="5.90494">
        <ele>485</ele>
        <time>2019-08-09T06:55:22Z</time>
      </trkpt>
      <trkpt lat="44.17383" lon="5.90486">
        <ele>485</ele>
        <time>2019-08-09T06:55:23Z</time>
      </trkpt>
      <trkpt lat="44.17384" lon="5.90477">
        <ele>485</ele>
        <time>2019-08-09T06:55:24Z</time>
      </trkpt>
      <trkpt lat="44.17384" lon="5.90468">
        <ele>485</ele>
        <time>2019-08-09T06:55:25Z</time>
      </trkpt>
      <trkpt lat="44.17384" lon="5.90459">
        <ele>485</ele>
        <time>2019-08-09T06:55:26Z</time>
      </trkpt>
      <trkpt lat="44.17384" lon="5.9045">
        <ele>485</ele>
        <time>2019-08-09T06:55:27Z</time>
      </trkpt>
      <trkpt lat="44.17384" lon="5.90441">
        <ele>485</ele>
        <time>2019-08-09T06:55:28Z</time>
      </trkpt>
      <trkpt lat="44.17384" lon="5.90432">
        <ele>485</ele>
        <time>2019-08-09T06:55:29Z</time>
      </trkpt>
      <trkpt lat="44.17384" lon="5.90423">
        <ele>485</ele>
        <time>2019-08-09T06:55:30Z</time>
      </trkpt>
      <trkpt lat="44.17384" lon="5.90414">
        <ele>485</ele>
        <time>2019-08-09T06:55:31Z</time>
      </trkpt>
      <trkpt lat="44.17384" lon="5.90405">
        <ele>485</ele>
        <time>2019-08-09T06:55:32Z</time>
      </trkpt>
      <trkpt lat="44.17384" lon="5.90395">
        <ele>485</ele>
        <time>2019-08-09T06:55:33Z</time>
      </trkpt>
      <trkpt lat="44.17385" lon="5.90387">
        <ele>485</ele>
        <time>2019-08-09T06:55:34Z</time>
      </trkpt>
      <trkpt lat="44.17386" lon="5.90378">
        <ele>485</ele>
        <time>2019-08-09T06:55:35Z</time>
      </trkpt>
      <trkpt lat="44.17387" lon="5.90369">
        <ele>485</ele>
        <time>2019-08-09T06:55:36Z</time>
      </trkpt>
      <trkpt lat="44.17387" lon="5.9036">
        <ele>485</ele>
        <time>2019-08-09T06:55:37Z</time>
      </trkpt>
      <trkpt lat="44.17388" lon="5.90353">
        <ele>485</ele>
        <time>2019-08-09T06:55:38Z</time>
      </trkpt>
      <trkpt lat="44.17389" lon="5.90344">
        <ele>485</ele>
        <time>2019-08-09T06:55:39Z</time>
      </trkpt>
      <trkpt lat="44.1739" lon="5.90336">
        <ele>485</ele>
        <time>2019-08-09T06:55:40Z</time>
      </trkpt>
      <trkpt lat="44.17392" lon="5.90328">
        <ele>485</ele>
        <time>2019-08-09T06:55:41Z</time>
      </trkpt>
      <trkpt lat="44.17392" lon="5.9032">
        <ele>485</ele>
        <time>2019-08-09T06:55:42Z</time>
      </trkpt>
      <trkpt lat="44.17394" lon="5.90313">
        <ele>485</ele>
        <time>2019-08-09T06:55:43Z</time>
      </trkpt>
      <trkpt lat="44.17395" lon="5.90305">
        <ele>485</ele>
        <time>2019-08-09T06:55:44Z</time>
      </trkpt>
      <trkpt lat="44.17395" lon="5.90298">
        <ele>486</ele>
        <time>2019-08-09T06:55:45Z</time>
      </trkpt>
      <trkpt lat="44.17396" lon="5.90291">
        <ele>486</ele>
        <time>2019-08-09T06:55:46Z</time>
      </trkpt>
      <trkpt lat="44.17397" lon="5.90283">
        <ele>486</ele>
        <time>2019-08-09T06:55:47Z</time>
      </trkpt>
      <trkpt lat="44.17398" lon="5.90275">
        <ele>486</ele>
        <time>2019-08-09T06:55:48Z</time>
      </trkpt>
      <trkpt lat="44.17398" lon="5.90267">
        <ele>487</ele>
        <time>2019-08-09T06:55:49Z</time>
      </trkpt>
      <trkpt lat="44.17399" lon="5.9026">
        <ele>487</ele>
        <time>2019-08-09T06:55:50Z</time>
      </trkpt>
      <trkpt lat="44.17399" lon="5.90252">
        <ele>487</ele>
        <time>2019-08-09T06:55:51Z</time>
      </trkpt>
      <trkpt lat="44.174" lon="5.90244">
        <ele>487</ele>
        <time>2019-08-09T06:55:52Z</time>
      </trkpt>
      <trkpt lat="44.174" lon="5.90237">
        <ele>487</ele>
        <time>2019-08-09T06:55:53Z</time>
      </trkpt>
      <trkpt lat="44.174" lon="5.90229">
        <ele>487</ele>
        <time>2019-08-09T06:55:54Z</time>
      </trkpt>
      <trkpt lat="44.174" lon="5.90221">
        <ele>487</ele>
        <time>2019-08-09T06:55:55Z</time>
      </trkpt>
      <trkpt lat="44.17401" lon="5.90213">
        <ele>487</ele>
        <time>2019-08-09T06:55:56Z</time>
      </trkpt>
      <trkpt lat="44.17401" lon="5.90205">
        <ele>487</ele>
        <time>2019-08-09T06:55:57Z</time>
      </trkpt>
      <trkpt lat="44.17401" lon="5.90197">
        <ele>488</ele>
        <time>2019-08-09T06:55:58Z</time>
      </trkpt>
      <trkpt lat="44.17402" lon="5.90189">
        <ele>488</ele>
        <time>2019-08-09T06:55:59Z</time>
      </trkpt>
      <trkpt lat="44.17402" lon="5.90181">
        <ele>488</ele>
        <time>2019-08-09T06:56:00Z</time>
      </trkpt>
      <trkpt lat="44.17402" lon="5.90172">
        <ele>488</ele>
        <time>2019-08-09T06:56:01Z</time>
      </trkpt>
      <trkpt lat="44.17403" lon="5.90164">
        <ele>488</ele>
        <time>2019-08-09T06:56:02Z</time>
      </trkpt>
      <trkpt lat="44.17403" lon="5.90155">
        <ele>489</ele>
        <time>2019-08-09T06:56:03Z</time>
      </trkpt>
      <trkpt lat="44.17403" lon="5.90146">
        <ele>489</ele>
        <time>2019-08-09T06:56:04Z</time>
      </trkpt>
      <trkpt lat="44.17403" lon="5.90137">
        <ele>489</ele>
        <time>2019-08-09T06:56:05Z</time>
      </trkpt>
      <trkpt lat="44.17403" lon="5.90129">
        <ele>489</ele>
        <time>2019-08-09T06:56:06Z</time>
      </trkpt>
      <trkpt lat="44.17402" lon="5.9012">
        <ele>489</ele>
        <time>2019-08-09T06:56:07Z</time>
      </trkpt>
      <trkpt lat="44.17401" lon="5.9011">
        <ele>489</ele>
        <time>2019-08-09T06:56:08Z</time>
      </trkpt>
      <trkpt lat="44.174" lon="5.90101">
        <ele>490</ele>
        <time>2019-08-09T06:56:09Z</time>
      </trkpt>
      <trkpt lat="44.17399" lon="5.90093">
        <ele>490</ele>
        <time>2019-08-09T06:56:10Z</time>
      </trkpt>
      <trkpt lat="44.17397" lon="5.90084">
        <ele>490</ele>
        <time>2019-08-09T06:56:11Z</time>
      </trkpt>
      <trkpt lat="44.17396" lon="5.90075">
        <ele>490</ele>
        <time>2019-08-09T06:56:12Z</time>
      </trkpt>
      <trkpt lat="44.17394" lon="5.90066">
        <ele>490</ele>
        <time>2019-08-09T06:56:13Z</time>
      </trkpt>
      <trkpt lat="44.17392" lon="5.90058">
        <ele>490</ele>
        <time>2019-08-09T06:56:14Z</time>
      </trkpt>
      <trkpt lat="44.1739" lon="5.90049">
        <ele>490</ele>
        <time>2019-08-09T06:56:15Z</time>
      </trkpt>
      <trkpt lat="44.17388" lon="5.90041">
        <ele>490</ele>
        <time>2019-08-09T06:56:16Z</time>
      </trkpt>
      <trkpt lat="44.17386" lon="5.90032">
        <ele>490</ele>
        <time>2019-08-09T06:56:17Z</time>
      </trkpt>
      <trkpt lat="44.17384" lon="5.90024">
        <ele>490</ele>
        <time>2019-08-09T06:56:18Z</time>
      </trkpt>
      <trkpt lat="44.17382" lon="5.90016">
        <ele>490</ele>
        <time>2019-08-09T06:56:19Z</time>
      </trkpt>
      <trkpt lat="44.1738" lon="5.90008">
        <ele>490</ele>
        <time>2019-08-09T06:56:20Z</time>
      </trkpt>
      <trkpt lat="44.17377" lon="5.9">
        <ele>490</ele>
        <time>2019-08-09T06:56:21Z</time>
      </trkpt>
      <trkpt lat="44.17375" lon="5.89992">
        <ele>490</ele>
        <time>2019-08-09T06:56:22Z</time>
      </trkpt>
      <trkpt lat="44.17372" lon="5.89984">
        <ele>490</ele>
        <time>2019-08-09T06:56:23Z</time>
      </trkpt>
      <trkpt lat="44.1737" lon="5.89976">
        <ele>490</ele>
        <time>2019-08-09T06:56:24Z</time>
      </trkpt>
      <trkpt lat="44.17367" lon="5.89968">
        <ele>490</ele>
        <time>2019-08-09T06:56:25Z</time>
      </trkpt>
      <trkpt lat="44.17364" lon="5.8996">
        <ele>490</ele>
        <time>2019-08-09T06:56:26Z</time>
      </trkpt>
      <trkpt lat="44.17361" lon="5.89952">
        <ele>490</ele>
        <time>2019-08-09T06:56:27Z</time>
      </trkpt>
      <trkpt lat="44.17358" lon="5.89944">
        <ele>490</ele>
        <time>2019-08-09T06:56:28Z</time>
      </trkpt>
      <trkpt lat="44.17356" lon="5.89935">
        <ele>490</ele>
        <time>2019-08-09T06:56:29Z</time>
      </trkpt>
      <trkpt lat="44.17353" lon="5.89927">
        <ele>490</ele>
        <time>2019-08-09T06:56:30Z</time>
      </trkpt>
      <trkpt lat="44.17351" lon="5.89918">
        <ele>490</ele>
        <time>2019-08-09T06:56:31Z</time>
      </trkpt>
      <trkpt lat="44.17348" lon="5.89909">
        <ele>490</ele>
        <time>2019-08-09T06:56:32Z</time>
      </trkpt>
      <trkpt lat="44.17346" lon="5.89901">
        <ele>490</ele>
        <time>2019-08-09T06:56:33Z</time>
      </trkpt>
      <trkpt lat="44.17344" lon="5.89892">
        <ele>490</ele>
        <time>2019-08-09T06:56:34Z</time>
      </trkpt>
      <trkpt lat="44.17342" lon="5.89883">
        <ele>490</ele>
        <time>2019-08-09T06:56:35Z</time>
      </trkpt>
      <trkpt lat="44.1734" lon="5.89874">
        <ele>490</ele>
        <time>2019-08-09T06:56:36Z</time>
      </trkpt>
      <trkpt lat="44.17339" lon="5.89865">
        <ele>490</ele>
        <time>2019-08-09T06:56:37Z</time>
      </trkpt>
      <trkpt lat="44.17337" lon="5.89856">
        <ele>490</ele>
        <time>2019-08-09T06:56:38Z</time>
      </trkpt>
      <trkpt lat="44.17336" lon="5.89848">
        <ele>490</ele>
        <time>2019-08-09T06:56:39Z</time>
      </trkpt>
      <trkpt lat="44.17334" lon="5.89839">
        <ele>490</ele>
        <time>2019-08-09T06:56:40Z</time>
      </trkpt>
      <trkpt lat="44.17333" lon="5.8983">
        <ele>490</ele>
        <time>2019-08-09T06:56:41Z</time>
      </trkpt>
      <trkpt lat="44.17331" lon="5.89821">
        <ele>490</ele>
        <time>2019-08-09T06:56:42Z</time>
      </trkpt>
      <trkpt lat="44.1733" lon="5.89812">
        <ele>491</ele>
        <time>2019-08-09T06:56:43Z</time>
      </trkpt>
      <trkpt lat="44.17328" lon="5.89803">
        <ele>491</ele>
        <time>2019-08-09T06:56:44Z</time>
      </trkpt>
      <trkpt lat="44.17326" lon="5.89794">
        <ele>491</ele>
        <time>2019-08-09T06:56:45Z</time>
      </trkpt>
      <trkpt lat="44.17325" lon="5.89785">
        <ele>491</ele>
        <time>2019-08-09T06:56:46Z</time>
      </trkpt>
      <trkpt lat="44.17323" lon="5.89776">
        <ele>491</ele>
        <time>2019-08-09T06:56:47Z</time>
      </trkpt>
      <trkpt lat="44.17322" lon="5.89767">
        <ele>491</ele>
        <time>2019-08-09T06:56:48Z</time>
      </trkpt>
      <trkpt lat="44.1732" lon="5.89758">
        <ele>491</ele>
        <time>2019-08-09T06:56:49Z</time>
      </trkpt>
      <trkpt lat="44.17319" lon="5.89749">
        <ele>491</ele>
        <time>2019-08-09T06:56:50Z</time>
      </trkpt>
      <trkpt lat="44.17317" lon="5.8974">
        <ele>491</ele>
        <time>2019-08-09T06:56:51Z</time>
      </trkpt>
      <trkpt lat="44.17316" lon="5.89731">
        <ele>491</ele>
        <time>2019-08-09T06:56:52Z</time>
      </trkpt>
      <trkpt lat="44.17314" lon="5.89722">
        <ele>491</ele>
        <time>2019-08-09T06:56:53Z</time>
      </trkpt>
      <trkpt lat="44.17313" lon="5.89713">
        <ele>491</ele>
        <time>2019-08-09T06:56:54Z</time>
      </trkpt>
      <trkpt lat="44.17311" lon="5.89704">
        <ele>491</ele>
        <time>2019-08-09T06:56:55Z</time>
      </trkpt>
      <trkpt lat="44.17309" lon="5.89695">
        <ele>491</ele>
        <time>2019-08-09T06:56:56Z</time>
      </trkpt>
      <trkpt lat="44.17308" lon="5.89686">
        <ele>491</ele>
        <time>2019-08-09T06:56:57Z</time>
      </trkpt>
      <trkpt lat="44.17306" lon="5.89677">
        <ele>491</ele>
        <time>2019-08-09T06:56:58Z</time>
      </trkpt>
      <trkpt lat="44.17305" lon="5.89667">
        <ele>491</ele>
        <time>2019-08-09T06:56:59Z</time>
      </trkpt>
      <trkpt lat="44.17303" lon="5.89657">
        <ele>491</ele>
        <time>2019-08-09T06:57:00Z</time>
      </trkpt>
      <trkpt lat="44.17302" lon="5.89648">
        <ele>491</ele>
        <time>2019-08-09T06:57:01Z</time>
      </trkpt>
      <trkpt lat="44.17301" lon="5.89638">
        <ele>491</ele>
        <time>2019-08-09T06:57:02Z</time>
      </trkpt>
      <trkpt lat="44.173" lon="5.89629">
        <ele>491</ele>
        <time>2019-08-09T06:57:03Z</time>
      </trkpt>
      <trkpt lat="44.17299" lon="5.89619">
        <ele>491</ele>
        <time>2019-08-09T06:57:04Z</time>
      </trkpt>
      <trkpt lat="44.17298" lon="5.89609">
        <ele>491</ele>
        <time>2019-08-09T06:57:05Z</time>
      </trkpt>
      <trkpt lat="44.17297" lon="5.896">
        <ele>491</ele>
        <time>2019-08-09T06:57:06Z</time>
      </trkpt>
      <trkpt lat="44.17296" lon="5.8959">
        <ele>491</ele>
        <time>2019-08-09T06:57:07Z</time>
      </trkpt>
      <trkpt lat="44.17295" lon="5.89581">
        <ele>491</ele>
        <time>2019-08-09T06:57:08Z</time>
      </trkpt>
      <trkpt lat="44.17294" lon="5.89572">
        <ele>491</ele>
        <time>2019-08-09T06:57:09Z</time>
      </trkpt>
      <trkpt lat="44.17293" lon="5.89563">
        <ele>492</ele>
        <time>2019-08-09T06:57:10Z</time>
      </trkpt>
      <trkpt lat="44.17292" lon="5.89553">
        <ele>492</ele>
        <time>2019-08-09T06:57:11Z</time>
      </trkpt>
      <trkpt lat="44.1729" lon="5.89545">
        <ele>492</ele>
        <time>2019-08-09T06:57:12Z</time>
      </trkpt>
      <trkpt lat="44.17289" lon="5.89536">
        <ele>492</ele>
        <time>2019-08-09T06:57:13Z</time>
      </trkpt>
      <trkpt lat="44.17288" lon="5.89527">
        <ele>492</ele>
        <time>2019-08-09T06:57:14Z</time>
      </trkpt>
      <trkpt lat="44.17287" lon="5.89519">
        <ele>492</ele>
        <time>2019-08-09T06:57:15Z</time>
      </trkpt>
      <trkpt lat="44.17286" lon="5.8951">
        <ele>492</ele>
        <time>2019-08-09T06:57:16Z</time>
      </trkpt>
      <trkpt lat="44.17285" lon="5.89502">
        <ele>492</ele>
        <time>2019-08-09T06:57:17Z</time>
      </trkpt>
      <trkpt lat="44.17284" lon="5.89493">
        <ele>493</ele>
        <time>2019-08-09T06:57:18Z</time>
      </trkpt>
      <trkpt lat="44.17282" lon="5.89485">
        <ele>493</ele>
        <time>2019-08-09T06:57:19Z</time>
      </trkpt>
      <trkpt lat="44.17281" lon="5.89477">
        <ele>493</ele>
        <time>2019-08-09T06:57:20Z</time>
      </trkpt>
      <trkpt lat="44.17281" lon="5.89468">
        <ele>493</ele>
        <time>2019-08-09T06:57:21Z</time>
      </trkpt>
      <trkpt lat="44.1728" lon="5.8946">
        <ele>493</ele>
        <time>2019-08-09T06:57:22Z</time>
      </trkpt>
      <trkpt lat="44.17279" lon="5.89451">
        <ele>494</ele>
        <time>2019-08-09T06:57:23Z</time>
      </trkpt>
      <trkpt lat="44.17278" lon="5.89443">
        <ele>494</ele>
        <time>2019-08-09T06:57:24Z</time>
      </trkpt>
      <trkpt lat="44.17276" lon="5.89435">
        <ele>494</ele>
        <time>2019-08-09T06:57:25Z</time>
      </trkpt>
      <trkpt lat="44.17276" lon="5.89427">
        <ele>494</ele>
        <time>2019-08-09T06:57:26Z</time>
      </trkpt>
      <trkpt lat="44.17274" lon="5.89418">
        <ele>494</ele>
        <time>2019-08-09T06:57:27Z</time>
      </trkpt>
      <trkpt lat="44.17273" lon="5.8941">
        <ele>494</ele>
        <time>2019-08-09T06:57:28Z</time>
      </trkpt>
      <trkpt lat="44.17273" lon="5.89402">
        <ele>494</ele>
        <time>2019-08-09T06:57:29Z</time>
      </trkpt>
      <trkpt lat="44.17272" lon="5.89393">
        <ele>495</ele>
        <time>2019-08-09T06:57:30Z</time>
      </trkpt>
      <trkpt lat="44.17271" lon="5.89385">
        <ele>495</ele>
        <time>2019-08-09T06:57:31Z</time>
      </trkpt>
      <trkpt lat="44.1727" lon="5.89376">
        <ele>495</ele>
        <time>2019-08-09T06:57:32Z</time>
      </trkpt>
      <trkpt lat="44.17269" lon="5.89367">
        <ele>495</ele>
        <time>2019-08-09T06:57:33Z</time>
      </trkpt>
      <trkpt lat="44.17268" lon="5.89358">
        <ele>495</ele>
        <time>2019-08-09T06:57:34Z</time>
      </trkpt>
      <trkpt lat="44.17267" lon="5.89349">
        <ele>495</ele>
        <time>2019-08-09T06:57:35Z</time>
      </trkpt>
      <trkpt lat="44.17266" lon="5.8934">
        <ele>495</ele>
        <time>2019-08-09T06:57:36Z</time>
      </trkpt>
      <trkpt lat="44.17265" lon="5.89331">
        <ele>495</ele>
        <time>2019-08-09T06:57:37Z</time>
      </trkpt>
      <trkpt lat="44.17264" lon="5.89322">
        <ele>495</ele>
        <time>2019-08-09T06:57:38Z</time>
      </trkpt>
      <trkpt lat="44.17263" lon="5.89314">
        <ele>496</ele>
        <time>2019-08-09T06:57:39Z</time>
      </trkpt>
      <trkpt lat="44.17262" lon="5.89305">
        <ele>496</ele>
        <time>2019-08-09T06:57:40Z</time>
      </trkpt>
      <trkpt lat="44.17261" lon="5.89296">
        <ele>496</ele>
        <time>2019-08-09T06:57:41Z</time>
      </trkpt>
      <trkpt lat="44.1726" lon="5.89287">
        <ele>496</ele>
        <time>2019-08-09T06:57:42Z</time>
      </trkpt>
      <trkpt lat="44.17259" lon="5.89279">
        <ele>496</ele>
        <time>2019-08-09T06:57:43Z</time>
      </trkpt>
      <trkpt lat="44.17257" lon="5.8927">
        <ele>496</ele>
        <time>2019-08-09T06:57:44Z</time>
      </trkpt>
      <trkpt lat="44.17256" lon="5.89262">
        <ele>496</ele>
        <time>2019-08-09T06:57:45Z</time>
      </trkpt>
      <trkpt lat="44.17254" lon="5.89254">
        <ele>496</ele>
        <time>2019-08-09T06:57:46Z</time>
      </trkpt>
      <trkpt lat="44.17252" lon="5.89246">
        <ele>496</ele>
        <time>2019-08-09T06:57:47Z</time>
      </trkpt>
      <trkpt lat="44.1725" lon="5.89237">
        <ele>496</ele>
        <time>2019-08-09T06:57:48Z</time>
      </trkpt>
      <trkpt lat="44.17248" lon="5.89229">
        <ele>496</ele>
        <time>2019-08-09T06:57:49Z</time>
      </trkpt>
      <trkpt lat="44.17246" lon="5.89222">
        <ele>496</ele>
        <time>2019-08-09T06:57:50Z</time>
      </trkpt>
      <trkpt lat="44.17243" lon="5.89214">
        <ele>496</ele>
        <time>2019-08-09T06:57:51Z</time>
      </trkpt>
      <trkpt lat="44.1724" lon="5.89206">
        <ele>496</ele>
        <time>2019-08-09T06:57:52Z</time>
      </trkpt>
      <trkpt lat="44.17237" lon="5.89198">
        <ele>496</ele>
        <time>2019-08-09T06:57:53Z</time>
      </trkpt>
      <trkpt lat="44.17234" lon="5.89189">
        <ele>497</ele>
        <time>2019-08-09T06:57:54Z</time>
      </trkpt>
      <trkpt lat="44.17231" lon="5.89182">
        <ele>497</ele>
        <time>2019-08-09T06:57:55Z</time>
      </trkpt>
      <trkpt lat="44.17228" lon="5.89173">
        <ele>497</ele>
        <time>2019-08-09T06:57:56Z</time>
      </trkpt>
      <trkpt lat="44.17225" lon="5.89165">
        <ele>497</ele>
        <time>2019-08-09T06:57:57Z</time>
      </trkpt>
      <trkpt lat="44.17222" lon="5.89157">
        <ele>497</ele>
        <time>2019-08-09T06:57:58Z</time>
      </trkpt>
      <trkpt lat="44.17219" lon="5.8915">
        <ele>497</ele>
        <time>2019-08-09T06:57:59Z</time>
      </trkpt>
      <trkpt lat="44.17216" lon="5.89142">
        <ele>497</ele>
        <time>2019-08-09T06:58:00Z</time>
      </trkpt>
      <trkpt lat="44.17213" lon="5.89134">
        <ele>497</ele>
        <time>2019-08-09T06:58:01Z</time>
      </trkpt>
      <trkpt lat="44.1721" lon="5.89126">
        <ele>497</ele>
        <time>2019-08-09T06:58:02Z</time>
      </trkpt>
      <trkpt lat="44.17208" lon="5.89119">
        <ele>497</ele>
        <time>2019-08-09T06:58:03Z</time>
      </trkpt>
      <trkpt lat="44.17205" lon="5.89111">
        <ele>497</ele>
        <time>2019-08-09T06:58:04Z</time>
      </trkpt>
      <trkpt lat="44.17203" lon="5.89104">
        <ele>497</ele>
        <time>2019-08-09T06:58:05Z</time>
      </trkpt>
      <trkpt lat="44.172" lon="5.89097">
        <ele>497</ele>
        <time>2019-08-09T06:58:06Z</time>
      </trkpt>
      <trkpt lat="44.17198" lon="5.8909">
        <ele>497</ele>
        <time>2019-08-09T06:58:07Z</time>
      </trkpt>
      <trkpt lat="44.17195" lon="5.89082">
        <ele>497</ele>
        <time>2019-08-09T06:58:08Z</time>
      </trkpt>
      <trkpt lat="44.17192" lon="5.89075">
        <ele>497</ele>
        <time>2019-08-09T06:58:09Z</time>
      </trkpt>
      <trkpt lat="44.1719" lon="5.89068">
        <ele>497</ele>
        <time>2019-08-09T06:58:10Z</time>
      </trkpt>
      <trkpt lat="44.17188" lon="5.8906">
        <ele>497</ele>
        <time>2019-08-09T06:58:11Z</time>
      </trkpt>
      <trkpt lat="44.17186" lon="5.89053">
        <ele>497</ele>
        <time>2019-08-09T06:58:12Z</time>
      </trkpt>
      <trkpt lat="44.17184" lon="5.89045">
        <ele>497</ele>
        <time>2019-08-09T06:58:13Z</time>
      </trkpt>
      <trkpt lat="44.17182" lon="5.89037">
        <ele>497</ele>
        <time>2019-08-09T06:58:14Z</time>
      </trkpt>
      <trkpt lat="44.1718" lon="5.89029">
        <ele>497</ele>
        <time>2019-08-09T06:58:15Z</time>
      </trkpt>
      <trkpt lat="44.17179" lon="5.89021">
        <ele>498</ele>
        <time>2019-08-09T06:58:16Z</time>
      </trkpt>
      <trkpt lat="44.17177" lon="5.89012">
        <ele>498</ele>
        <time>2019-08-09T06:58:17Z</time>
      </trkpt>
      <trkpt lat="44.17176" lon="5.89004">
        <ele>498</ele>
        <time>2019-08-09T06:58:18Z</time>
      </trkpt>
      <trkpt lat="44.17174" lon="5.88996">
        <ele>499</ele>
        <time>2019-08-09T06:58:19Z</time>
      </trkpt>
      <trkpt lat="44.17173" lon="5.88987">
        <ele>500</ele>
        <time>2019-08-09T06:58:20Z</time>
      </trkpt>
      <trkpt lat="44.17171" lon="5.88978">
        <ele>500</ele>
        <time>2019-08-09T06:58:21Z</time>
      </trkpt>
      <trkpt lat="44.17169" lon="5.8897">
        <ele>500</ele>
        <time>2019-08-09T06:58:22Z</time>
      </trkpt>
      <trkpt lat="44.17167" lon="5.88961">
        <ele>500</ele>
        <time>2019-08-09T06:58:23Z</time>
      </trkpt>
      <trkpt lat="44.17165" lon="5.88952">
        <ele>500</ele>
        <time>2019-08-09T06:58:24Z</time>
      </trkpt>
      <trkpt lat="44.17163" lon="5.88943">
        <ele>500</ele>
        <time>2019-08-09T06:58:25Z</time>
      </trkpt>
      <trkpt lat="44.17161" lon="5.88935">
        <ele>500</ele>
        <time>2019-08-09T06:58:26Z</time>
      </trkpt>
      <trkpt lat="44.17158" lon="5.88926">
        <ele>500</ele>
        <time>2019-08-09T06:58:27Z</time>
      </trkpt>
      <trkpt lat="44.17155" lon="5.88918">
        <ele>500</ele>
        <time>2019-08-09T06:58:28Z</time>
      </trkpt>
      <trkpt lat="44.17152" lon="5.88909">
        <ele>500</ele>
        <time>2019-08-09T06:58:29Z</time>
      </trkpt>
      <trkpt lat="44.17149" lon="5.88901">
        <ele>500</ele>
        <time>2019-08-09T06:58:30Z</time>
      </trkpt>
      <trkpt lat="44.17146" lon="5.88893">
        <ele>500</ele>
        <time>2019-08-09T06:58:31Z</time>
      </trkpt>
      <trkpt lat="44.17142" lon="5.88884">
        <ele>500</ele>
        <time>2019-08-09T06:58:32Z</time>
      </trkpt>
      <trkpt lat="44.17139" lon="5.88876">
        <ele>500</ele>
        <time>2019-08-09T06:58:33Z</time>
      </trkpt>
      <trkpt lat="44.17136" lon="5.88867">
        <ele>500</ele>
        <time>2019-08-09T06:58:34Z</time>
      </trkpt>
      <trkpt lat="44.17133" lon="5.88859">
        <ele>500</ele>
        <time>2019-08-09T06:58:35Z</time>
      </trkpt>
      <trkpt lat="44.17129" lon="5.8885">
        <ele>500</ele>
        <time>2019-08-09T06:58:36Z</time>
      </trkpt>
      <trkpt lat="44.17126" lon="5.88842">
        <ele>500</ele>
        <time>2019-08-09T06:58:37Z</time>
      </trkpt>
      <trkpt lat="44.17123" lon="5.88834">
        <ele>500</ele>
        <time>2019-08-09T06:58:38Z</time>
      </trkpt>
      <trkpt lat="44.1712" lon="5.88825">
        <ele>500</ele>
        <time>2019-08-09T06:58:39Z</time>
      </trkpt>
      <trkpt lat="44.17117" lon="5.88817">
        <ele>500</ele>
        <time>2019-08-09T06:58:40Z</time>
      </trkpt>
      <trkpt lat="44.17114" lon="5.88808">
        <ele>500</ele>
        <time>2019-08-09T06:58:41Z</time>
      </trkpt>
      <trkpt lat="44.1711" lon="5.888">
        <ele>500</ele>
        <time>2019-08-09T06:58:42Z</time>
      </trkpt>
      <trkpt lat="44.17107" lon="5.88792">
        <ele>500</ele>
        <time>2019-08-09T06:58:43Z</time>
      </trkpt>
      <trkpt lat="44.17104" lon="5.88783">
        <ele>500</ele>
        <time>2019-08-09T06:58:44Z</time>
      </trkpt>
      <trkpt lat="44.17101" lon="5.88775">
        <ele>500</ele>
        <time>2019-08-09T06:58:45Z</time>
      </trkpt>
      <trkpt lat="44.17098" lon="5.88767">
        <ele>500</ele>
        <time>2019-08-09T06:58:46Z</time>
      </trkpt>
      <trkpt lat="44.17095" lon="5.88759">
        <ele>500</ele>
        <time>2019-08-09T06:58:47Z</time>
      </trkpt>
      <trkpt lat="44.17092" lon="5.88751">
        <ele>500</ele>
        <time>2019-08-09T06:58:48Z</time>
      </trkpt>
      <trkpt lat="44.17089" lon="5.88743">
        <ele>500</ele>
        <time>2019-08-09T06:58:49Z</time>
      </trkpt>
      <trkpt lat="44.17086" lon="5.88735">
        <ele>500</ele>
        <time>2019-08-09T06:58:50Z</time>
      </trkpt>
      <trkpt lat="44.17083" lon="5.88727">
        <ele>500</ele>
        <time>2019-08-09T06:58:51Z</time>
      </trkpt>
      <trkpt lat="44.17081" lon="5.88719">
        <ele>500</ele>
        <time>2019-08-09T06:58:52Z</time>
      </trkpt>
      <trkpt lat="44.17078" lon="5.88711">
        <ele>500</ele>
        <time>2019-08-09T06:58:53Z</time>
      </trkpt>
      <trkpt lat="44.17076" lon="5.88703">
        <ele>500</ele>
        <time>2019-08-09T06:58:54Z</time>
      </trkpt>
      <trkpt lat="44.17074" lon="5.88695">
        <ele>500</ele>
        <time>2019-08-09T06:58:55Z</time>
      </trkpt>
      <trkpt lat="44.17071" lon="5.88687">
        <ele>500</ele>
        <time>2019-08-09T06:58:56Z</time>
      </trkpt>
      <trkpt lat="44.17069" lon="5.88679">
        <ele>500</ele>
        <time>2019-08-09T06:58:57Z</time>
      </trkpt>
      <trkpt lat="44.17067" lon="5.8867">
        <ele>500</ele>
        <time>2019-08-09T06:58:58Z</time>
      </trkpt>
      <trkpt lat="44.17065" lon="5.88661">
        <ele>500</ele>
        <time>2019-08-09T06:58:59Z</time>
      </trkpt>
      <trkpt lat="44.17062" lon="5.88653">
        <ele>500</ele>
        <time>2019-08-09T06:59:00Z</time>
      </trkpt>
      <trkpt lat="44.1706" lon="5.88644">
        <ele>500</ele>
        <time>2019-08-09T06:59:01Z</time>
      </trkpt>
      <trkpt lat="44.17058" lon="5.88635">
        <ele>500</ele>
        <time>2019-08-09T06:59:02Z</time>
      </trkpt>
      <trkpt lat="44.17055" lon="5.88626">
        <ele>500</ele>
        <time>2019-08-09T06:59:03Z</time>
      </trkpt>
      <trkpt lat="44.17052" lon="5.88618">
        <ele>500</ele>
        <time>2019-08-09T06:59:04Z</time>
      </trkpt>
      <trkpt lat="44.1705" lon="5.8861">
        <ele>500</ele>
        <time>2019-08-09T06:59:05Z</time>
      </trkpt>
      <trkpt lat="44.17047" lon="5.88602">
        <ele>500</ele>
        <time>2019-08-09T06:59:06Z</time>
      </trkpt>
      <trkpt lat="44.17044" lon="5.88593">
        <ele>500</ele>
        <time>2019-08-09T06:59:07Z</time>
      </trkpt>
      <trkpt lat="44.17041" lon="5.88585">
        <ele>500</ele>
        <time>2019-08-09T06:59:08Z</time>
      </trkpt>
      <trkpt lat="44.17038" lon="5.88577">
        <ele>500</ele>
        <time>2019-08-09T06:59:09Z</time>
      </trkpt>
      <trkpt lat="44.17035" lon="5.88569">
        <ele>500</ele>
        <time>2019-08-09T06:59:10Z</time>
      </trkpt>
      <trkpt lat="44.17032" lon="5.88561">
        <ele>500</ele>
        <time>2019-08-09T06:59:11Z</time>
      </trkpt>
      <trkpt lat="44.1703" lon="5.88553">
        <ele>500</ele>
        <time>2019-08-09T06:59:12Z</time>
      </trkpt>
      <trkpt lat="44.17027" lon="5.88545">
        <ele>500</ele>
        <time>2019-08-09T06:59:13Z</time>
      </trkpt>
      <trkpt lat="44.17024" lon="5.88537">
        <ele>500</ele>
        <time>2019-08-09T06:59:14Z</time>
      </trkpt>
      <trkpt lat="44.17021" lon="5.8853">
        <ele>500</ele>
        <time>2019-08-09T06:59:15Z</time>
      </trkpt>
      <trkpt lat="44.17018" lon="5.88523">
        <ele>500</ele>
        <time>2019-08-09T06:59:16Z</time>
      </trkpt>
      <trkpt lat="44.17014" lon="5.88516">
        <ele>500</ele>
        <time>2019-08-09T06:59:17Z</time>
      </trkpt>
      <trkpt lat="44.17011" lon="5.88509">
        <ele>500</ele>
        <time>2019-08-09T06:59:18Z</time>
      </trkpt>
      <trkpt lat="44.17008" lon="5.88502">
        <ele>500</ele>
        <time>2019-08-09T06:59:19Z</time>
      </trkpt>
      <trkpt lat="44.17005" lon="5.88495">
        <ele>500</ele>
        <time>2019-08-09T06:59:20Z</time>
      </trkpt>
      <trkpt lat="44.17001" lon="5.88488">
        <ele>500</ele>
        <time>2019-08-09T06:59:21Z</time>
      </trkpt>
      <trkpt lat="44.16998" lon="5.88481">
        <ele>500</ele>
        <time>2019-08-09T06:59:22Z</time>
      </trkpt>
      <trkpt lat="44.16995" lon="5.88474">
        <ele>500</ele>
        <time>2019-08-09T06:59:23Z</time>
      </trkpt>
      <trkpt lat="44.16991" lon="5.88467">
        <ele>500</ele>
        <time>2019-08-09T06:59:24Z</time>
      </trkpt>
      <trkpt lat="44.16988" lon="5.88459">
        <ele>500</ele>
        <time>2019-08-09T06:59:25Z</time>
      </trkpt>
      <trkpt lat="44.16985" lon="5.88452">
        <ele>500</ele>
        <time>2019-08-09T06:59:26Z</time>
      </trkpt>
      <trkpt lat="44.16982" lon="5.88445">
        <ele>500</ele>
        <time>2019-08-09T06:59:27Z</time>
      </trkpt>
      <trkpt lat="44.16979" lon="5.88437">
        <ele>500</ele>
        <time>2019-08-09T06:59:28Z</time>
      </trkpt>
      <trkpt lat="44.16976" lon="5.88429">
        <ele>500</ele>
        <time>2019-08-09T06:59:29Z</time>
      </trkpt>
      <trkpt lat="44.16974" lon="5.88421">
        <ele>500</ele>
        <time>2019-08-09T06:59:30Z</time>
      </trkpt>
      <trkpt lat="44.16972" lon="5.88413">
        <ele>500</ele>
        <time>2019-08-09T06:59:31Z</time>
      </trkpt>
      <trkpt lat="44.1697" lon="5.88404">
        <ele>500</ele>
        <time>2019-08-09T06:59:32Z</time>
      </trkpt>
      <trkpt lat="44.16969" lon="5.88396">
        <ele>500</ele>
        <time>2019-08-09T06:59:33Z</time>
      </trkpt>
      <trkpt lat="44.16968" lon="5.88387">
        <ele>500</ele>
        <time>2019-08-09T06:59:34Z</time>
      </trkpt>
      <trkpt lat="44.16967" lon="5.88378">
        <ele>501</ele>
        <time>2019-08-09T06:59:35Z</time>
      </trkpt>
      <trkpt lat="44.16966" lon="5.88369">
        <ele>501</ele>
        <time>2019-08-09T06:59:36Z</time>
      </trkpt>
      <trkpt lat="44.16964" lon="5.88361">
        <ele>501</ele>
        <time>2019-08-09T06:59:37Z</time>
      </trkpt>
      <trkpt lat="44.16963" lon="5.88352">
        <ele>501</ele>
        <time>2019-08-09T06:59:38Z</time>
      </trkpt>
      <trkpt lat="44.16962" lon="5.88343">
        <ele>501</ele>
        <time>2019-08-09T06:59:39Z</time>
      </trkpt>
      <trkpt lat="44.16961" lon="5.88334">
        <ele>501</ele>
        <time>2019-08-09T06:59:40Z</time>
      </trkpt>
      <trkpt lat="44.1696" lon="5.88325">
        <ele>501</ele>
        <time>2019-08-09T06:59:41Z</time>
      </trkpt>
      <trkpt lat="44.16959" lon="5.88316">
        <ele>501</ele>
        <time>2019-08-09T06:59:42Z</time>
      </trkpt>
      <trkpt lat="44.16958" lon="5.88307">
        <ele>501</ele>
        <time>2019-08-09T06:59:43Z</time>
      </trkpt>
      <trkpt lat="44.16957" lon="5.88298">
        <ele>502</ele>
        <time>2019-08-09T06:59:44Z</time>
      </trkpt>
      <trkpt lat="44.16956" lon="5.88289">
        <ele>502</ele>
        <time>2019-08-09T06:59:45Z</time>
      </trkpt>
      <trkpt lat="44.16955" lon="5.8828">
        <ele>502</ele>
        <time>2019-08-09T06:59:46Z</time>
      </trkpt>
      <trkpt lat="44.16954" lon="5.88271">
        <ele>502</ele>
        <time>2019-08-09T06:59:47Z</time>
      </trkpt>
      <trkpt lat="44.16953" lon="5.88262">
        <ele>502</ele>
        <time>2019-08-09T06:59:48Z</time>
      </trkpt>
      <trkpt lat="44.16951" lon="5.88252">
        <ele>502</ele>
        <time>2019-08-09T06:59:49Z</time>
      </trkpt>
      <trkpt lat="44.1695" lon="5.88243">
        <ele>502</ele>
        <time>2019-08-09T06:59:50Z</time>
      </trkpt>
      <trkpt lat="44.16948" lon="5.88234">
        <ele>502</ele>
        <time>2019-08-09T06:59:51Z</time>
      </trkpt>
      <trkpt lat="44.16945" lon="5.88224">
        <ele>502</ele>
        <time>2019-08-09T06:59:52Z</time>
      </trkpt>
      <trkpt lat="44.16942" lon="5.88215">
        <ele>502</ele>
        <time>2019-08-09T06:59:53Z</time>
      </trkpt>
      <trkpt lat="44.16939" lon="5.88206">
        <ele>502</ele>
        <time>2019-08-09T06:59:54Z</time>
      </trkpt>
      <trkpt lat="44.16935" lon="5.88197">
        <ele>502</ele>
        <time>2019-08-09T06:59:55Z</time>
      </trkpt>
      <trkpt lat="44.16931" lon="5.88188">
        <ele>502</ele>
        <time>2019-08-09T06:59:56Z</time>
      </trkpt>
      <trkpt lat="44.16927" lon="5.88178">
        <ele>502</ele>
        <time>2019-08-09T06:59:57Z</time>
      </trkpt>
      <trkpt lat="44.16923" lon="5.88169">
        <ele>502</ele>
        <time>2019-08-09T06:59:58Z</time>
      </trkpt>
      <trkpt lat="44.16919" lon="5.8816">
        <ele>502</ele>
        <time>2019-08-09T06:59:59Z</time>
      </trkpt>
      <trkpt lat="44.16916" lon="5.8815">
        <ele>502</ele>
        <time>2019-08-09T07:00:00Z</time>
      </trkpt>
      <trkpt lat="44.16912" lon="5.8814">
        <ele>502</ele>
        <time>2019-08-09T07:00:01Z</time>
      </trkpt>
      <trkpt lat="44.16909" lon="5.8813">
        <ele>502</ele>
        <time>2019-08-09T07:00:02Z</time>
      </trkpt>
      <trkpt lat="44.16907" lon="5.88119">
        <ele>502</ele>
        <time>2019-08-09T07:00:03Z</time>
      </trkpt>
      <trkpt lat="44.16904" lon="5.88108">
        <ele>502</ele>
        <time>2019-08-09T07:00:04Z</time>
      </trkpt>
      <trkpt lat="44.16903" lon="5.88097">
        <ele>502</ele>
        <time>2019-08-09T07:00:05Z</time>
      </trkpt>
      <trkpt lat="44.16901" lon="5.88086">
        <ele>502</ele>
        <time>2019-08-09T07:00:06Z</time>
      </trkpt>
      <trkpt lat="44.16899" lon="5.88075">
        <ele>502</ele>
        <time>2019-08-09T07:00:07Z</time>
      </trkpt>
      <trkpt lat="44.16897" lon="5.88064">
        <ele>502</ele>
        <time>2019-08-09T07:00:08Z</time>
      </trkpt>
      <trkpt lat="44.16895" lon="5.88053">
        <ele>502</ele>
        <time>2019-08-09T07:00:09Z</time>
      </trkpt>
      <trkpt lat="44.16893" lon="5.88042">
        <ele>502</ele>
        <time>2019-08-09T07:00:10Z</time>
      </trkpt>
      <trkpt lat="44.16892" lon="5.88031">
        <ele>502</ele>
        <time>2019-08-09T07:00:11Z</time>
      </trkpt>
      <trkpt lat="44.1689" lon="5.8802">
        <ele>502</ele>
        <time>2019-08-09T07:00:12Z</time>
      </trkpt>
      <trkpt lat="44.16888" lon="5.8801">
        <ele>502</ele>
        <time>2019-08-09T07:00:13Z</time>
      </trkpt>
      <trkpt lat="44.16887" lon="5.87999">
        <ele>502</ele>
        <time>2019-08-09T07:00:14Z</time>
      </trkpt>
      <trkpt lat="44.16885" lon="5.87989">
        <ele>502</ele>
        <time>2019-08-09T07:00:15Z</time>
      </trkpt>
      <trkpt lat="44.16884" lon="5.87979">
        <ele>502</ele>
        <time>2019-08-09T07:00:16Z</time>
      </trkpt>
      <trkpt lat="44.16882" lon="5.87969">
        <ele>502</ele>
        <time>2019-08-09T07:00:17Z</time>
      </trkpt>
      <trkpt lat="44.1688" lon="5.87959">
        <ele>502</ele>
        <time>2019-08-09T07:00:18Z</time>
      </trkpt>
      <trkpt lat="44.16879" lon="5.87949">
        <ele>502</ele>
        <time>2019-08-09T07:00:19Z</time>
      </trkpt>
      <trkpt lat="44.16877" lon="5.87939">
        <ele>502</ele>
        <time>2019-08-09T07:00:20Z</time>
      </trkpt>
      <trkpt lat="44.16875" lon="5.8793">
        <ele>502</ele>
        <time>2019-08-09T07:00:21Z</time>
      </trkpt>
      <trkpt lat="44.16874" lon="5.8792">
        <ele>502</ele>
        <time>2019-08-09T07:00:22Z</time>
      </trkpt>
      <trkpt lat="44.16872" lon="5.87911">
        <ele>502</ele>
        <time>2019-08-09T07:00:23Z</time>
      </trkpt>
      <trkpt lat="44.16871" lon="5.87901">
        <ele>502</ele>
        <time>2019-08-09T07:00:24Z</time>
      </trkpt>
      <trkpt lat="44.16869" lon="5.87892">
        <ele>502</ele>
        <time>2019-08-09T07:00:25Z</time>
      </trkpt>
      <trkpt lat="44.16868" lon="5.87882">
        <ele>502</ele>
        <time>2019-08-09T07:00:26Z</time>
      </trkpt>
      <trkpt lat="44.16866" lon="5.87873">
        <ele>502</ele>
        <time>2019-08-09T07:00:27Z</time>
      </trkpt>
      <trkpt lat="44.16865" lon="5.87863">
        <ele>502</ele>
        <time>2019-08-09T07:00:28Z</time>
      </trkpt>
      <trkpt lat="44.16863" lon="5.87854">
        <ele>502</ele>
        <time>2019-08-09T07:00:29Z</time>
      </trkpt>
      <trkpt lat="44.16862" lon="5.87844">
        <ele>502</ele>
        <time>2019-08-09T07:00:30Z</time>
      </trkpt>
      <trkpt lat="44.1686" lon="5.87835">
        <ele>502</ele>
        <time>2019-08-09T07:00:31Z</time>
      </trkpt>
      <trkpt lat="44.16859" lon="5.87826">
        <ele>502</ele>
        <time>2019-08-09T07:00:32Z</time>
      </trkpt>
      <trkpt lat="44.16857" lon="5.87816">
        <ele>502</ele>
        <time>2019-08-09T07:00:33Z</time>
      </trkpt>
      <trkpt lat="44.16855" lon="5.87807">
        <ele>502</ele>
        <time>2019-08-09T07:00:34Z</time>
      </trkpt>
      <trkpt lat="44.16854" lon="5.87797">
        <ele>502</ele>
        <time>2019-08-09T07:00:35Z</time>
      </trkpt>
      <trkpt lat="44.16852" lon="5.87788">
        <ele>502</ele>
        <time>2019-08-09T07:00:36Z</time>
      </trkpt>
      <trkpt lat="44.16851" lon="5.87779">
        <ele>502</ele>
        <time>2019-08-09T07:00:37Z</time>
      </trkpt>
      <trkpt lat="44.16849" lon="5.87769">
        <ele>502</ele>
        <time>2019-08-09T07:00:38Z</time>
      </trkpt>
      <trkpt lat="44.16848" lon="5.8776">
        <ele>502</ele>
        <time>2019-08-09T07:00:39Z</time>
      </trkpt>
      <trkpt lat="44.16846" lon="5.87751">
        <ele>502</ele>
        <time>2019-08-09T07:00:40Z</time>
      </trkpt>
      <trkpt lat="44.16845" lon="5.87741">
        <ele>502</ele>
        <time>2019-08-09T07:00:41Z</time>
      </trkpt>
      <trkpt lat="44.16843" lon="5.87732">
        <ele>502</ele>
        <time>2019-08-09T07:00:42Z</time>
      </trkpt>
      <trkpt lat="44.16842" lon="5.87723">
        <ele>502</ele>
        <time>2019-08-09T07:00:43Z</time>
      </trkpt>
      <trkpt lat="44.1684" lon="5.87714">
        <ele>502</ele>
        <time>2019-08-09T07:00:44Z</time>
      </trkpt>
      <trkpt lat="44.16839" lon="5.87705">
        <ele>502</ele>
        <time>2019-08-09T07:00:45Z</time>
      </trkpt>
      <trkpt lat="44.16837" lon="5.87696">
        <ele>502</ele>
        <time>2019-08-09T07:00:46Z</time>
      </trkpt>
      <trkpt lat="44.16835" lon="5.87686">
        <ele>502</ele>
        <time>2019-08-09T07:00:47Z</time>
      </trkpt>
      <trkpt lat="44.16834" lon="5.87677">
        <ele>502</ele>
        <time>2019-08-09T07:00:48Z</time>
      </trkpt>
      <trkpt lat="44.16832" lon="5.87668">
        <ele>502</ele>
        <time>2019-08-09T07:00:49Z</time>
      </trkpt>
      <trkpt lat="44.16831" lon="5.87659">
        <ele>502</ele>
        <time>2019-08-09T07:00:50Z</time>
      </trkpt>
      <trkpt lat="44.16829" lon="5.87649">
        <ele>502</ele>
        <time>2019-08-09T07:00:51Z</time>
      </trkpt>
      <trkpt lat="44.16828" lon="5.8764">
        <ele>502</ele>
        <time>2019-08-09T07:00:52Z</time>
      </trkpt>
      <trkpt lat="44.16827" lon="5.87631">
        <ele>502</ele>
        <time>2019-08-09T07:00:53Z</time>
      </trkpt>
      <trkpt lat="44.16825" lon="5.87622">
        <ele>502</ele>
        <time>2019-08-09T07:00:54Z</time>
      </trkpt>
      <trkpt lat="44.16824" lon="5.87612">
        <ele>502</ele>
        <time>2019-08-09T07:00:55Z</time>
      </trkpt>
      <trkpt lat="44.16822" lon="5.87603">
        <ele>502</ele>
        <time>2019-08-09T07:00:56Z</time>
      </trkpt>
      <trkpt lat="44.16821" lon="5.87594">
        <ele>502</ele>
        <time>2019-08-09T07:00:57Z</time>
      </trkpt>
      <trkpt lat="44.16819" lon="5.87585">
        <ele>502</ele>
        <time>2019-08-09T07:00:58Z</time>
      </trkpt>
      <trkpt lat="44.16818" lon="5.87575">
        <ele>502</ele>
        <time>2019-08-09T07:00:59Z</time>
      </trkpt>
      <trkpt lat="44.16816" lon="5.87566">
        <ele>502</ele>
        <time>2019-08-09T07:01:00Z</time>
      </trkpt>
      <trkpt lat="44.16815" lon="5.87557">
        <ele>502</ele>
        <time>2019-08-09T07:01:01Z</time>
      </trkpt>
      <trkpt lat="44.16813" lon="5.87548">
        <ele>502</ele>
        <time>2019-08-09T07:01:02Z</time>
      </trkpt>
      <trkpt lat="44.16811" lon="5.8754">
        <ele>502</ele>
        <time>2019-08-09T07:01:03Z</time>
      </trkpt>
      <trkpt lat="44.1681" lon="5.87532">
        <ele>502</ele>
        <time>2019-08-09T07:01:04Z</time>
      </trkpt>
      <trkpt lat="44.16808" lon="5.87524">
        <ele>502</ele>
        <time>2019-08-09T07:01:05Z</time>
      </trkpt>
      <trkpt lat="44.16806" lon="5.87516">
        <ele>502</ele>
        <time>2019-08-09T07:01:06Z</time>
      </trkpt>
      <trkpt lat="44.16803" lon="5.87509">
        <ele>502</ele>
        <time>2019-08-09T07:01:07Z</time>
      </trkpt>
      <trkpt lat="44.16801" lon="5.87501">
        <ele>502</ele>
        <time>2019-08-09T07:01:08Z</time>
      </trkpt>
      <trkpt lat="44.16799" lon="5.87493">
        <ele>502</ele>
        <time>2019-08-09T07:01:09Z</time>
      </trkpt>
      <trkpt lat="44.16797" lon="5.87485">
        <ele>502</ele>
        <time>2019-08-09T07:01:10Z</time>
      </trkpt>
      <trkpt lat="44.16795" lon="5.87477">
        <ele>502</ele>
        <time>2019-08-09T07:01:11Z</time>
      </trkpt>
      <trkpt lat="44.16794" lon="5.87469">
        <ele>502</ele>
        <time>2019-08-09T07:01:12Z</time>
      </trkpt>
      <trkpt lat="44.16792" lon="5.87462">
        <ele>502</ele>
        <time>2019-08-09T07:01:13Z</time>
      </trkpt>
      <trkpt lat="44.1679" lon="5.87454">
        <ele>502</ele>
        <time>2019-08-09T07:01:14Z</time>
      </trkpt>
      <trkpt lat="44.1679" lon="5.87446">
        <ele>502</ele>
        <time>2019-08-09T07:01:15Z</time>
      </trkpt>
      <trkpt lat="44.16789" lon="5.87439">
        <ele>502</ele>
        <time>2019-08-09T07:01:16Z</time>
      </trkpt>
      <trkpt lat="44.16788" lon="5.87431">
        <ele>502</ele>
        <time>2019-08-09T07:01:17Z</time>
      </trkpt>
      <trkpt lat="44.16787" lon="5.87424">
        <ele>502</ele>
        <time>2019-08-09T07:01:18Z</time>
      </trkpt>
      <trkpt lat="44.16787" lon="5.87417">
        <ele>502</ele>
        <time>2019-08-09T07:01:19Z</time>
      </trkpt>
      <trkpt lat="44.16786" lon="5.87409">
        <ele>502</ele>
        <time>2019-08-09T07:01:20Z</time>
      </trkpt>
      <trkpt lat="44.16786" lon="5.87401">
        <ele>502</ele>
        <time>2019-08-09T07:01:21Z</time>
      </trkpt>
      <trkpt lat="44.16785" lon="5.87394">
        <ele>502</ele>
        <time>2019-08-09T07:01:22Z</time>
      </trkpt>
      <trkpt lat="44.16784" lon="5.87386">
        <ele>502</ele>
        <time>2019-08-09T07:01:23Z</time>
      </trkpt>
      <trkpt lat="44.16783" lon="5.87378">
        <ele>502</ele>
        <time>2019-08-09T07:01:24Z</time>
      </trkpt>
      <trkpt lat="44.16782" lon="5.8737">
        <ele>502</ele>
        <time>2019-08-09T07:01:25Z</time>
      </trkpt>
      <trkpt lat="44.16781" lon="5.87361">
        <ele>502</ele>
        <time>2019-08-09T07:01:26Z</time>
      </trkpt>
      <trkpt lat="44.16779" lon="5.87351">
        <ele>502</ele>
        <time>2019-08-09T07:01:27Z</time>
      </trkpt>
      <trkpt lat="44.16778" lon="5.87342">
        <ele>502</ele>
        <time>2019-08-09T07:01:28Z</time>
      </trkpt>
      <trkpt lat="44.16777" lon="5.87332">
        <ele>502</ele>
        <time>2019-08-09T07:01:29Z</time>
      </trkpt>
      <trkpt lat="44.16776" lon="5.87322">
        <ele>502</ele>
        <time>2019-08-09T07:01:30Z</time>
      </trkpt>
      <trkpt lat="44.16775" lon="5.87313">
        <ele>502</ele>
        <time>2019-08-09T07:01:31Z</time>
      </trkpt>
      <trkpt lat="44.16773" lon="5.87303">
        <ele>502</ele>
        <time>2019-08-09T07:01:32Z</time>
      </trkpt>
      <trkpt lat="44.16772" lon="5.87293">
        <ele>502</ele>
        <time>2019-08-09T07:01:33Z</time>
      </trkpt>
      <trkpt lat="44.16771" lon="5.87284">
        <ele>502</ele>
        <time>2019-08-09T07:01:34Z</time>
      </trkpt>
      <trkpt lat="44.16769" lon="5.87275">
        <ele>502</ele>
        <time>2019-08-09T07:01:35Z</time>
      </trkpt>
      <trkpt lat="44.16768" lon="5.87266">
        <ele>502</ele>
        <time>2019-08-09T07:01:36Z</time>
      </trkpt>
      <trkpt lat="44.16767" lon="5.87258">
        <ele>502</ele>
        <time>2019-08-09T07:01:37Z</time>
      </trkpt>
      <trkpt lat="44.16766" lon="5.8725">
        <ele>503</ele>
        <time>2019-08-09T07:01:38Z</time>
      </trkpt>
      <trkpt lat="44.16764" lon="5.87241">
        <ele>503</ele>
        <time>2019-08-09T07:01:39Z</time>
      </trkpt>
      <trkpt lat="44.16763" lon="5.87233">
        <ele>503</ele>
        <time>2019-08-09T07:01:40Z</time>
      </trkpt>
      <trkpt lat="44.16762" lon="5.87224">
        <ele>503</ele>
        <time>2019-08-09T07:01:41Z</time>
      </trkpt>
      <trkpt lat="44.16761" lon="5.87216">
        <ele>503</ele>
        <time>2019-08-09T07:01:42Z</time>
      </trkpt>
      <trkpt lat="44.1676" lon="5.87208">
        <ele>504</ele>
        <time>2019-08-09T07:01:43Z</time>
      </trkpt>
      <trkpt lat="44.16758" lon="5.872">
        <ele>504</ele>
        <time>2019-08-09T07:01:44Z</time>
      </trkpt>
      <trkpt lat="44.16758" lon="5.87192">
        <ele>504</ele>
        <time>2019-08-09T07:01:45Z</time>
      </trkpt>
      <trkpt lat="44.16756" lon="5.87185">
        <ele>504</ele>
        <time>2019-08-09T07:01:46Z</time>
      </trkpt>
      <trkpt lat="44.16756" lon="5.87178">
        <ele>505</ele>
        <time>2019-08-09T07:01:47Z</time>
      </trkpt>
      <trkpt lat="44.16755" lon="5.87171">
        <ele>505</ele>
        <time>2019-08-09T07:01:48Z</time>
      </trkpt>
      <trkpt lat="44.16754" lon="5.87164">
        <ele>505</ele>
        <time>2019-08-09T07:01:49Z</time>
      </trkpt>
      <trkpt lat="44.16753" lon="5.87158">
        <ele>506</ele>
        <time>2019-08-09T07:01:50Z</time>
      </trkpt>
      <trkpt lat="44.16752" lon="5.87152">
        <ele>506</ele>
        <time>2019-08-09T07:01:51Z</time>
      </trkpt>
      <trkpt lat="44.16751" lon="5.87146">
        <ele>507</ele>
        <time>2019-08-09T07:01:52Z</time>
      </trkpt>
      <trkpt lat="44.16749" lon="5.87141">
        <ele>507</ele>
        <time>2019-08-09T07:01:53Z</time>
      </trkpt>
      <trkpt lat="44.16747" lon="5.87136">
        <ele>507</ele>
        <time>2019-08-09T07:01:54Z</time>
      </trkpt>
      <trkpt lat="44.16744" lon="5.87132">
        <ele>508</ele>
        <time>2019-08-09T07:01:55Z</time>
      </trkpt>
      <trkpt lat="44.1674" lon="5.87128">
        <ele>508</ele>
        <time>2019-08-09T07:01:56Z</time>
      </trkpt>
      <trkpt lat="44.16737" lon="5.87123">
        <ele>508</ele>
        <time>2019-08-09T07:01:57Z</time>
      </trkpt>
      <trkpt lat="44.16733" lon="5.87119">
        <ele>508</ele>
        <time>2019-08-09T07:01:58Z</time>
      </trkpt>
      <trkpt lat="44.16729" lon="5.87114">
        <ele>509</ele>
        <time>2019-08-09T07:01:59Z</time>
      </trkpt>
      <trkpt lat="44.16724" lon="5.8711">
        <ele>509</ele>
        <time>2019-08-09T07:02:00Z</time>
      </trkpt>
      <trkpt lat="44.16719" lon="5.87107">
        <ele>509</ele>
        <time>2019-08-09T07:02:01Z</time>
      </trkpt>
      <trkpt lat="44.16713" lon="5.87105">
        <ele>509</ele>
        <time>2019-08-09T07:02:02Z</time>
      </trkpt>
      <trkpt lat="44.16707" lon="5.87103">
        <ele>509</ele>
        <time>2019-08-09T07:02:03Z</time>
      </trkpt>
      <trkpt lat="44.16701" lon="5.87102">
        <ele>509</ele>
        <time>2019-08-09T07:02:04Z</time>
      </trkpt>
      <trkpt lat="44.16694" lon="5.87101">
        <ele>509</ele>
        <time>2019-08-09T07:02:05Z</time>
      </trkpt>
      <trkpt lat="44.16688" lon="5.871">
        <ele>509</ele>
        <time>2019-08-09T07:02:06Z</time>
      </trkpt>
      <trkpt lat="44.16682" lon="5.871">
        <ele>509</ele>
        <time>2019-08-09T07:02:07Z</time>
      </trkpt>
      <trkpt lat="44.16675" lon="5.871">
        <ele>509</ele>
        <time>2019-08-09T07:02:08Z</time>
      </trkpt>
      <trkpt lat="44.16669" lon="5.871">
        <ele>509</ele>
        <time>2019-08-09T07:02:09Z</time>
      </trkpt>
      <trkpt lat="44.16663" lon="5.871">
        <ele>509</ele>
        <time>2019-08-09T07:02:10Z</time>
      </trkpt>
      <trkpt lat="44.16656" lon="5.871">
        <ele>509</ele>
        <time>2019-08-09T07:02:11Z</time>
      </trkpt>
      <trkpt lat="44.1665" lon="5.871">
        <ele>509</ele>
        <time>2019-08-09T07:02:12Z</time>
      </trkpt>
      <trkpt lat="44.16643" lon="5.871">
        <ele>509</ele>
        <time>2019-08-09T07:02:13Z</time>
      </trkpt>
      <trkpt lat="44.16637" lon="5.87101">
        <ele>509</ele>
        <time>2019-08-09T07:02:14Z</time>
      </trkpt>
      <trkpt lat="44.16631" lon="5.87101">
        <ele>509</ele>
        <time>2019-08-09T07:02:15Z</time>
      </trkpt>
      <trkpt lat="44.16624" lon="5.87101">
        <ele>509</ele>
        <time>2019-08-09T07:02:16Z</time>
      </trkpt>
      <trkpt lat="44.16618" lon="5.87101">
        <ele>509</ele>
        <time>2019-08-09T07:02:17Z</time>
      </trkpt>
      <trkpt lat="44.16611" lon="5.871">
        <ele>509</ele>
        <time>2019-08-09T07:02:18Z</time>
      </trkpt>
      <trkpt lat="44.16605" lon="5.871">
        <ele>509</ele>
        <time>2019-08-09T07:02:19Z</time>
      </trkpt>
      <trkpt lat="44.16598" lon="5.871">
        <ele>509</ele>
        <time>2019-08-09T07:02:20Z</time>
      </trkpt>
      <trkpt lat="44.16592" lon="5.871">
        <ele>509</ele>
        <time>2019-08-09T07:02:21Z</time>
      </trkpt>
      <trkpt lat="44.16585" lon="5.871">
        <ele>509</ele>
        <time>2019-08-09T07:02:22Z</time>
      </trkpt>
      <trkpt lat="44.16578" lon="5.871">
        <ele>509</ele>
        <time>2019-08-09T07:02:23Z</time>
      </trkpt>
      <trkpt lat="44.16572" lon="5.871">
        <ele>509</ele>
        <time>2019-08-09T07:02:24Z</time>
      </trkpt>
      <trkpt lat="44.16565" lon="5.87101">
        <ele>509</ele>
        <time>2019-08-09T07:02:25Z</time>
      </trkpt>
      <trkpt lat="44.16558" lon="5.87101">
        <ele>509</ele>
        <time>2019-08-09T07:02:26Z</time>
      </trkpt>
      <trkpt lat="44.16552" lon="5.87102">
        <ele>509</ele>
        <time>2019-08-09T07:02:27Z</time>
      </trkpt>
      <trkpt lat="44.16545" lon="5.87102">
        <ele>509</ele>
        <time>2019-08-09T07:02:28Z</time>
      </trkpt>
      <trkpt lat="44.16538" lon="5.87103">
        <ele>509</ele>
        <time>2019-08-09T07:02:29Z</time>
      </trkpt>
      <trkpt lat="44.16531" lon="5.87102">
        <ele>509</ele>
        <time>2019-08-09T07:02:30Z</time>
      </trkpt>
      <trkpt lat="44.16525" lon="5.87102">
        <ele>509</ele>
        <time>2019-08-09T07:02:31Z</time>
      </trkpt>
      <trkpt lat="44.16518" lon="5.87103">
        <ele>509</ele>
        <time>2019-08-09T07:02:32Z</time>
      </trkpt>
      <trkpt lat="44.16511" lon="5.87103">
        <ele>509</ele>
        <time>2019-08-09T07:02:33Z</time>
      </trkpt>
      <trkpt lat="44.16504" lon="5.87103">
        <ele>509</ele>
        <time>2019-08-09T07:02:34Z</time>
      </trkpt>
      <trkpt lat="44.16497" lon="5.87103">
        <ele>509</ele>
        <time>2019-08-09T07:02:35Z</time>
      </trkpt>
      <trkpt lat="44.16491" lon="5.87104">
        <ele>509</ele>
        <time>2019-08-09T07:02:36Z</time>
      </trkpt>
      <trkpt lat="44.16484" lon="5.87103">
        <ele>509</ele>
        <time>2019-08-09T07:02:37Z</time>
      </trkpt>
      <trkpt lat="44.16478" lon="5.87103">
        <ele>509</ele>
        <time>2019-08-09T07:02:38Z</time>
      </trkpt>
      <trkpt lat="44.1647" lon="5.87103">
        <ele>509</ele>
        <time>2019-08-09T07:02:39Z</time>
      </trkpt>
      <trkpt lat="44.16463" lon="5.87103">
        <ele>509</ele>
        <time>2019-08-09T07:02:40Z</time>
      </trkpt>
      <trkpt lat="44.16457" lon="5.87103">
        <ele>509</ele>
        <time>2019-08-09T07:02:41Z</time>
      </trkpt>
      <trkpt lat="44.16449" lon="5.87103">
        <ele>509</ele>
        <time>2019-08-09T07:02:42Z</time>
      </trkpt>
      <trkpt lat="44.16442" lon="5.87103">
        <ele>509</ele>
        <time>2019-08-09T07:02:43Z</time>
      </trkpt>
      <trkpt lat="44.16436" lon="5.87103">
        <ele>509</ele>
        <time>2019-08-09T07:02:44Z</time>
      </trkpt>
      <trkpt lat="44.16428" lon="5.87102">
        <ele>509</ele>
        <time>2019-08-09T07:02:45Z</time>
      </trkpt>
      <trkpt lat="44.16422" lon="5.871">
        <ele>509</ele>
        <time>2019-08-09T07:02:46Z</time>
      </trkpt>
      <trkpt lat="44.16416" lon="5.87097">
        <ele>509</ele>
        <time>2019-08-09T07:02:47Z</time>
      </trkpt>
      <trkpt lat="44.1641" lon="5.87094">
        <ele>509</ele>
        <time>2019-08-09T07:02:48Z</time>
      </trkpt>
      <trkpt lat="44.16404" lon="5.8709">
        <ele>509</ele>
        <time>2019-08-09T07:02:49Z</time>
      </trkpt>
      <trkpt lat="44.16399" lon="5.87085">
        <ele>509</ele>
        <time>2019-08-09T07:02:50Z</time>
      </trkpt>
      <trkpt lat="44.16395" lon="5.8708">
        <ele>509</ele>
        <time>2019-08-09T07:02:51Z</time>
      </trkpt>
      <trkpt lat="44.16392" lon="5.87074">
        <ele>509</ele>
        <time>2019-08-09T07:02:52Z</time>
      </trkpt>
      <trkpt lat="44.1639" lon="5.87068">
        <ele>509</ele>
        <time>2019-08-09T07:02:53Z</time>
      </trkpt>
      <trkpt lat="44.16388" lon="5.87062">
        <ele>509</ele>
        <time>2019-08-09T07:02:54Z</time>
      </trkpt>
      <trkpt lat="44.16386" lon="5.87056">
        <ele>509</ele>
        <time>2019-08-09T07:02:55Z</time>
      </trkpt>
      <trkpt lat="44.16383" lon="5.87051">
        <ele>509</ele>
        <time>2019-08-09T07:02:56Z</time>
      </trkpt>
      <trkpt lat="44.16381" lon="5.87046">
        <ele>510</ele>
        <time>2019-08-09T07:02:57Z</time>
      </trkpt>
      <trkpt lat="44.1638" lon="5.8704">
        <ele>511</ele>
        <time>2019-08-09T07:02:58Z</time>
      </trkpt>
      <trkpt lat="44.16377" lon="5.87034">
        <ele>511</ele>
        <time>2019-08-09T07:02:59Z</time>
      </trkpt>
      <trkpt lat="44.16375" lon="5.87029">
        <ele>512</ele>
        <time>2019-08-09T07:03:00Z</time>
      </trkpt>
      <trkpt lat="44.16373" lon="5.87024">
        <ele>512</ele>
        <time>2019-08-09T07:03:01Z</time>
      </trkpt>
      <trkpt lat="44.16371" lon="5.87018">
        <ele>512</ele>
        <time>2019-08-09T07:03:02Z</time>
      </trkpt>
      <trkpt lat="44.16368" lon="5.87012">
        <ele>513</ele>
        <time>2019-08-09T07:03:03Z</time>
      </trkpt>
      <trkpt lat="44.16366" lon="5.87007">
        <ele>513</ele>
        <time>2019-08-09T07:03:04Z</time>
      </trkpt>
      <trkpt lat="44.16364" lon="5.87001">
        <ele>513</ele>
        <time>2019-08-09T07:03:05Z</time>
      </trkpt>
      <trkpt lat="44.16362" lon="5.86996">
        <ele>514</ele>
        <time>2019-08-09T07:03:06Z</time>
      </trkpt>
      <trkpt lat="44.16359" lon="5.86991">
        <ele>514</ele>
        <time>2019-08-09T07:03:07Z</time>
      </trkpt>
      <trkpt lat="44.16357" lon="5.86987">
        <ele>514</ele>
        <time>2019-08-09T07:03:08Z</time>
      </trkpt>
      <trkpt lat="44.16354" lon="5.86982">
        <ele>515</ele>
        <time>2019-08-09T07:03:09Z</time>
      </trkpt>
      <trkpt lat="44.16351" lon="5.86979">
        <ele>515</ele>
        <time>2019-08-09T07:03:10Z</time>
      </trkpt>
      <trkpt lat="44.16348" lon="5.86976">
        <ele>516</ele>
        <time>2019-08-09T07:03:11Z</time>
      </trkpt>
      <trkpt lat="44.16344" lon="5.86973">
        <ele>517</ele>
        <time>2019-08-09T07:03:12Z</time>
      </trkpt>
      <trkpt lat="44.1634" lon="5.8697">
        <ele>517</ele>
        <time>2019-08-09T07:03:13Z</time>
      </trkpt>
      <trkpt lat="44.16336" lon="5.86968">
        <ele>517</ele>
        <time>2019-08-09T07:03:14Z</time>
      </trkpt>
      <trkpt lat="44.16332" lon="5.86965">
        <ele>517</ele>
        <time>2019-08-09T07:03:15Z</time>
      </trkpt>
      <trkpt lat="44.16327" lon="5.86963">
        <ele>517</ele>
        <time>2019-08-09T07:03:16Z</time>
      </trkpt>
      <trkpt lat="44.16322" lon="5.86962">
        <ele>517</ele>
        <time>2019-08-09T07:03:17Z</time>
      </trkpt>
      <trkpt lat="44.16318" lon="5.86961">
        <ele>517</ele>
        <time>2019-08-09T07:03:18Z</time>
      </trkpt>
      <trkpt lat="44.16313" lon="5.86961">
        <ele>517</ele>
        <time>2019-08-09T07:03:19Z</time>
      </trkpt>
      <trkpt lat="44.16308" lon="5.86959">
        <ele>517</ele>
        <time>2019-08-09T07:03:20Z</time>
      </trkpt>
      <trkpt lat="44.16303" lon="5.86957">
        <ele>517</ele>
        <time>2019-08-09T07:03:21Z</time>
      </trkpt>
      <trkpt lat="44.16298" lon="5.86954">
        <ele>517</ele>
        <time>2019-08-09T07:03:22Z</time>
      </trkpt>
      <trkpt lat="44.16293" lon="5.86951">
        <ele>517</ele>
        <time>2019-08-09T07:03:23Z</time>
      </trkpt>
      <trkpt lat="44.16288" lon="5.86948">
        <ele>517</ele>
        <time>2019-08-09T07:03:24Z</time>
      </trkpt>
      <trkpt lat="44.16284" lon="5.86944">
        <ele>517</ele>
        <time>2019-08-09T07:03:25Z</time>
      </trkpt>
      <trkpt lat="44.16279" lon="5.8694">
        <ele>517</ele>
        <time>2019-08-09T07:03:26Z</time>
      </trkpt>
      <trkpt lat="44.16274" lon="5.86937">
        <ele>517</ele>
        <time>2019-08-09T07:03:27Z</time>
      </trkpt>
      <trkpt lat="44.1627" lon="5.86933">
        <ele>517</ele>
        <time>2019-08-09T07:03:28Z</time>
      </trkpt>
      <trkpt lat="44.16266" lon="5.86928">
        <ele>517</ele>
        <time>2019-08-09T07:03:29Z</time>
      </trkpt>
      <trkpt lat="44.16261" lon="5.86924">
        <ele>517</ele>
        <time>2019-08-09T07:03:30Z</time>
      </trkpt>
      <trkpt lat="44.16257" lon="5.8692">
        <ele>517</ele>
        <time>2019-08-09T07:03:31Z</time>
      </trkpt>
      <trkpt lat="44.16253" lon="5.86916">
        <ele>517</ele>
        <time>2019-08-09T07:03:32Z</time>
      </trkpt>
      <trkpt lat="44.16248" lon="5.86911">
        <ele>517</ele>
        <time>2019-08-09T07:03:33Z</time>
      </trkpt>
      <trkpt lat="44.16244" lon="5.86906">
        <ele>517</ele>
        <time>2019-08-09T07:03:34Z</time>
      </trkpt>
      <trkpt lat="44.1624" lon="5.86901">
        <ele>517</ele>
        <time>2019-08-09T07:03:35Z</time>
      </trkpt>
      <trkpt lat="44.16236" lon="5.86895">
        <ele>517</ele>
        <time>2019-08-09T07:03:36Z</time>
      </trkpt>
      <trkpt lat="44.16232" lon="5.8689">
        <ele>517</ele>
        <time>2019-08-09T07:03:37Z</time>
      </trkpt>
      <trkpt lat="44.16228" lon="5.86884">
        <ele>517</ele>
        <time>2019-08-09T07:03:38Z</time>
      </trkpt>
      <trkpt lat="44.16224" lon="5.86878">
        <ele>517</ele>
        <time>2019-08-09T07:03:39Z</time>
      </trkpt>
      <trkpt lat="44.1622" lon="5.86872">
        <ele>517</ele>
        <time>2019-08-09T07:03:40Z</time>
      </trkpt>
      <trkpt lat="44.16216" lon="5.86867">
        <ele>517</ele>
        <time>2019-08-09T07:03:41Z</time>
      </trkpt>
      <trkpt lat="44.16212" lon="5.86862">
        <ele>517</ele>
        <time>2019-08-09T07:03:42Z</time>
      </trkpt>
      <trkpt lat="44.16208" lon="5.86857">
        <ele>517</ele>
        <time>2019-08-09T07:03:43Z</time>
      </trkpt>
      <trkpt lat="44.16203" lon="5.86853">
        <ele>517</ele>
        <time>2019-08-09T07:03:44Z</time>
      </trkpt>
      <trkpt lat="44.16199" lon="5.86849">
        <ele>517</ele>
        <time>2019-08-09T07:03:45Z</time>
      </trkpt>
      <trkpt lat="44.16194" lon="5.86847">
        <ele>517</ele>
        <time>2019-08-09T07:03:46Z</time>
      </trkpt>
      <trkpt lat="44.16189" lon="5.86844">
        <ele>517</ele>
        <time>2019-08-09T07:03:47Z</time>
      </trkpt>
      <trkpt lat="44.16184" lon="5.86842">
        <ele>518</ele>
        <time>2019-08-09T07:03:48Z</time>
      </trkpt>
      <trkpt lat="44.16179" lon="5.8684">
        <ele>518</ele>
        <time>2019-08-09T07:03:49Z</time>
      </trkpt>
      <trkpt lat="44.16174" lon="5.86838">
        <ele>518</ele>
        <time>2019-08-09T07:03:50Z</time>
      </trkpt>
      <trkpt lat="44.16169" lon="5.86837">
        <ele>519</ele>
        <time>2019-08-09T07:03:51Z</time>
      </trkpt>
      <trkpt lat="44.16164" lon="5.86835">
        <ele>519</ele>
        <time>2019-08-09T07:03:52Z</time>
      </trkpt>
      <trkpt lat="44.16158" lon="5.86834">
        <ele>519</ele>
        <time>2019-08-09T07:03:53Z</time>
      </trkpt>
      <trkpt lat="44.16153" lon="5.86833">
        <ele>520</ele>
        <time>2019-08-09T07:03:54Z</time>
      </trkpt>
      <trkpt lat="44.16147" lon="5.86831">
        <ele>520</ele>
        <time>2019-08-09T07:03:55Z</time>
      </trkpt>
      <trkpt lat="44.16141" lon="5.8683">
        <ele>520</ele>
        <time>2019-08-09T07:03:56Z</time>
      </trkpt>
      <trkpt lat="44.16135" lon="5.86827">
        <ele>520</ele>
        <time>2019-08-09T07:03:57Z</time>
      </trkpt>
      <trkpt lat="44.16129" lon="5.86825">
        <ele>520</ele>
        <time>2019-08-09T07:03:58Z</time>
      </trkpt>
      <trkpt lat="44.16123" lon="5.86822">
        <ele>520</ele>
        <time>2019-08-09T07:03:59Z</time>
      </trkpt>
      <trkpt lat="44.16118" lon="5.86818">
        <ele>520</ele>
        <time>2019-08-09T07:04:00Z</time>
      </trkpt>
      <trkpt lat="44.16112" lon="5.86814">
        <ele>520</ele>
        <time>2019-08-09T07:04:01Z</time>
      </trkpt>
      <trkpt lat="44.16106" lon="5.8681">
        <ele>520</ele>
        <time>2019-08-09T07:04:02Z</time>
      </trkpt>
      <trkpt lat="44.16101" lon="5.86805">
        <ele>520</ele>
        <time>2019-08-09T07:04:03Z</time>
      </trkpt>
      <trkpt lat="44.16095" lon="5.86801">
        <ele>520</ele>
        <time>2019-08-09T07:04:04Z</time>
      </trkpt>
      <trkpt lat="44.16089" lon="5.86796">
        <ele>520</ele>
        <time>2019-08-09T07:04:05Z</time>
      </trkpt>
      <trkpt lat="44.16082" lon="5.86791">
        <ele>520</ele>
        <time>2019-08-09T07:04:06Z</time>
      </trkpt>
      <trkpt lat="44.16076" lon="5.86786">
        <ele>520</ele>
        <time>2019-08-09T07:04:07Z</time>
      </trkpt>
      <trkpt lat="44.16069" lon="5.86782">
        <ele>520</ele>
        <time>2019-08-09T07:04:08Z</time>
      </trkpt>
      <trkpt lat="44.16061" lon="5.86778">
        <ele>520</ele>
        <time>2019-08-09T07:04:09Z</time>
      </trkpt>
      <trkpt lat="44.16054" lon="5.86776">
        <ele>520</ele>
        <time>2019-08-09T07:04:10Z</time>
      </trkpt>
      <trkpt lat="44.16046" lon="5.86774">
        <ele>520</ele>
        <time>2019-08-09T07:04:11Z</time>
      </trkpt>
      <trkpt lat="44.16037" lon="5.86775">
        <ele>520</ele>
        <time>2019-08-09T07:04:12Z</time>
      </trkpt>
      <trkpt lat="44.16029" lon="5.86777">
        <ele>520</ele>
        <time>2019-08-09T07:04:13Z</time>
      </trkpt>
      <trkpt lat="44.16022" lon="5.86781">
        <ele>520</ele>
        <time>2019-08-09T07:04:14Z</time>
      </trkpt>
      <trkpt lat="44.16014" lon="5.86785">
        <ele>520</ele>
        <time>2019-08-09T07:04:15Z</time>
      </trkpt>
      <trkpt lat="44.16007" lon="5.8679">
        <ele>520</ele>
        <time>2019-08-09T07:04:16Z</time>
      </trkpt>
      <trkpt lat="44.16" lon="5.86794">
        <ele>520</ele>
        <time>2019-08-09T07:04:17Z</time>
      </trkpt>
      <trkpt lat="44.15994" lon="5.86799">
        <ele>520</ele>
        <time>2019-08-09T07:04:18Z</time>
      </trkpt>
      <trkpt lat="44.15987" lon="5.86804">
        <ele>520</ele>
        <time>2019-08-09T07:04:19Z</time>
      </trkpt>
      <trkpt lat="44.15981" lon="5.86809">
        <ele>520</ele>
        <time>2019-08-09T07:04:20Z</time>
      </trkpt>
      <trkpt lat="44.15975" lon="5.86815">
        <ele>520</ele>
        <time>2019-08-09T07:04:21Z</time>
      </trkpt>
      <trkpt lat="44.15969" lon="5.8682">
        <ele>520</ele>
        <time>2019-08-09T07:04:22Z</time>
      </trkpt>
      <trkpt lat="44.15963" lon="5.86825">
        <ele>520</ele>
        <time>2019-08-09T07:04:23Z</time>
      </trkpt>
      <trkpt lat="44.15957" lon="5.8683">
        <ele>520</ele>
        <time>2019-08-09T07:04:24Z</time>
      </trkpt>
      <trkpt lat="44.15951" lon="5.86835">
        <ele>520</ele>
        <time>2019-08-09T07:04:25Z</time>
      </trkpt>
      <trkpt lat="44.15945" lon="5.86839">
        <ele>520</ele>
        <time>2019-08-09T07:04:26Z</time>
      </trkpt>
      <trkpt lat="44.1594" lon="5.86843">
        <ele>520</ele>
        <time>2019-08-09T07:04:27Z</time>
      </trkpt>
      <trkpt lat="44.15934" lon="5.86847">
        <ele>520</ele>
        <time>2019-08-09T07:04:28Z</time>
      </trkpt>
      <trkpt lat="44.15928" lon="5.86851">
        <ele>520</ele>
        <time>2019-08-09T07:04:29Z</time>
      </trkpt>
      <trkpt lat="44.15923" lon="5.86855">
        <ele>520</ele>
        <time>2019-08-09T07:04:30Z</time>
      </trkpt>
      <trkpt lat="44.15916" lon="5.86859">
        <ele>520</ele>
        <time>2019-08-09T07:04:31Z</time>
      </trkpt>
      <trkpt lat="44.1591" lon="5.86862">
        <ele>520</ele>
        <time>2019-08-09T07:04:32Z</time>
      </trkpt>
      <trkpt lat="44.15904" lon="5.86865">
        <ele>520</ele>
        <time>2019-08-09T07:04:33Z</time>
      </trkpt>
      <trkpt lat="44.15898" lon="5.86867">
        <ele>520</ele>
        <time>2019-08-09T07:04:34Z</time>
      </trkpt>
      <trkpt lat="44.15892" lon="5.8687">
        <ele>520</ele>
        <time>2019-08-09T07:04:35Z</time>
      </trkpt>
      <trkpt lat="44.15886" lon="5.86873">
        <ele>520</ele>
        <time>2019-08-09T07:04:36Z</time>
      </trkpt>
      <trkpt lat="44.1588" lon="5.86875">
        <ele>520</ele>
        <time>2019-08-09T07:04:37Z</time>
      </trkpt>
      <trkpt lat="44.15873" lon="5.86877">
        <ele>520</ele>
        <time>2019-08-09T07:04:38Z</time>
      </trkpt>
      <trkpt lat="44.15867" lon="5.86879">
        <ele>520</ele>
        <time>2019-08-09T07:04:39Z</time>
      </trkpt>
      <trkpt lat="44.15862" lon="5.86882">
        <ele>520</ele>
        <time>2019-08-09T07:04:40Z</time>
      </trkpt>
      <trkpt lat="44.15855" lon="5.86884">
        <ele>520</ele>
        <time>2019-08-09T07:04:41Z</time>
      </trkpt>
      <trkpt lat="44.1585" lon="5.86887">
        <ele>520</ele>
        <time>2019-08-09T07:04:42Z</time>
      </trkpt>
      <trkpt lat="44.15844" lon="5.86889">
        <ele>520</ele>
        <time>2019-08-09T07:04:43Z</time>
      </trkpt>
      <trkpt lat="44.15837" lon="5.86891">
        <ele>520</ele>
        <time>2019-08-09T07:04:44Z</time>
      </trkpt>
      <trkpt lat="44.15831" lon="5.86894">
        <ele>520</ele>
        <time>2019-08-09T07:04:45Z</time>
      </trkpt>
      <trkpt lat="44.15826" lon="5.86897">
        <ele>520</ele>
        <time>2019-08-09T07:04:46Z</time>
      </trkpt>
      <trkpt lat="44.1582" lon="5.86901">
        <ele>520</ele>
        <time>2019-08-09T07:04:47Z</time>
      </trkpt>
      <trkpt lat="44.15815" lon="5.86906">
        <ele>520</ele>
        <time>2019-08-09T07:04:48Z</time>
      </trkpt>
      <trkpt lat="44.1581" lon="5.86911">
        <ele>520</ele>
        <time>2019-08-09T07:04:49Z</time>
      </trkpt>
      <trkpt lat="44.15806" lon="5.86916">
        <ele>520</ele>
        <time>2019-08-09T07:04:50Z</time>
      </trkpt>
      <trkpt lat="44.15801" lon="5.86921">
        <ele>520</ele>
        <time>2019-08-09T07:04:51Z</time>
      </trkpt>
      <trkpt lat="44.15797" lon="5.86926">
        <ele>520</ele>
        <time>2019-08-09T07:04:52Z</time>
      </trkpt>
      <trkpt lat="44.15792" lon="5.86931">
        <ele>520</ele>
        <time>2019-08-09T07:04:53Z</time>
      </trkpt>
      <trkpt lat="44.15788" lon="5.86935">
        <ele>520</ele>
        <time>2019-08-09T07:04:54Z</time>
      </trkpt>
      <trkpt lat="44.15783" lon="5.86939">
        <ele>520</ele>
        <time>2019-08-09T07:04:55Z</time>
      </trkpt>
      <trkpt lat="44.15777" lon="5.86943">
        <ele>520</ele>
        <time>2019-08-09T07:04:56Z</time>
      </trkpt>
      <trkpt lat="44.15772" lon="5.86946">
        <ele>520</ele>
        <time>2019-08-09T07:04:57Z</time>
      </trkpt>
      <trkpt lat="44.15767" lon="5.86949">
        <ele>520</ele>
        <time>2019-08-09T07:04:58Z</time>
      </trkpt>
      <trkpt lat="44.15762" lon="5.86952">
        <ele>521</ele>
        <time>2019-08-09T07:04:59Z</time>
      </trkpt>
      <trkpt lat="44.15757" lon="5.86954">
        <ele>521</ele>
        <time>2019-08-09T07:05:00Z</time>
      </trkpt>
      <trkpt lat="44.15752" lon="5.86956">
        <ele>521</ele>
        <time>2019-08-09T07:05:01Z</time>
      </trkpt>
      <trkpt lat="44.15747" lon="5.86958">
        <ele>522</ele>
        <time>2019-08-09T07:05:02Z</time>
      </trkpt>
      <trkpt lat="44.15742" lon="5.86959">
        <ele>522</ele>
        <time>2019-08-09T07:05:03Z</time>
      </trkpt>
      <trkpt lat="44.15738" lon="5.86961">
        <ele>522</ele>
        <time>2019-08-09T07:05:04Z</time>
      </trkpt>
      <trkpt lat="44.15733" lon="5.86963">
        <ele>523</ele>
        <time>2019-08-09T07:05:05Z</time>
      </trkpt>
      <trkpt lat="44.15728" lon="5.86965">
        <ele>523</ele>
        <time>2019-08-09T07:05:06Z</time>
      </trkpt>
      <trkpt lat="44.15724" lon="5.86968">
        <ele>523</ele>
        <time>2019-08-09T07:05:07Z</time>
      </trkpt>
      <trkpt lat="44.1572" lon="5.86971">
        <ele>524</ele>
        <time>2019-08-09T07:05:08Z</time>
      </trkpt>
      <trkpt lat="44.15716" lon="5.86975">
        <ele>524</ele>
        <time>2019-08-09T07:05:09Z</time>
      </trkpt>
      <trkpt lat="44.15712" lon="5.86979">
        <ele>524</ele>
        <time>2019-08-09T07:05:10Z</time>
      </trkpt>
      <trkpt lat="44.15708" lon="5.86984">
        <ele>524</ele>
        <time>2019-08-09T07:05:11Z</time>
      </trkpt>
      <trkpt lat="44.15704" lon="5.86988">
        <ele>524</ele>
        <time>2019-08-09T07:05:12Z</time>
      </trkpt>
      <trkpt lat="44.15701" lon="5.86993">
        <ele>524</ele>
        <time>2019-08-09T07:05:13Z</time>
      </trkpt>
      <trkpt lat="44.15696" lon="5.86997">
        <ele>525</ele>
        <time>2019-08-09T07:05:14Z</time>
      </trkpt>
      <trkpt lat="44.15693" lon="5.87">
        <ele>525</ele>
        <time>2019-08-09T07:05:15Z</time>
      </trkpt>
      <trkpt lat="44.15689" lon="5.87004">
        <ele>525</ele>
        <time>2019-08-09T07:05:16Z</time>
      </trkpt>
      <trkpt lat="44.15685" lon="5.87007">
        <ele>525</ele>
        <time>2019-08-09T07:05:17Z</time>
      </trkpt>
      <trkpt lat="44.15681" lon="5.87011">
        <ele>525</ele>
        <time>2019-08-09T07:05:18Z</time>
      </trkpt>
      <trkpt lat="44.15677" lon="5.87016">
        <ele>525</ele>
        <time>2019-08-09T07:05:19Z</time>
      </trkpt>
      <trkpt lat="44.15673" lon="5.8702">
        <ele>525</ele>
        <time>2019-08-09T07:05:20Z</time>
      </trkpt>
      <trkpt lat="44.15668" lon="5.87026">
        <ele>525</ele>
        <time>2019-08-09T07:05:21Z</time>
      </trkpt>
      <trkpt lat="44.15664" lon="5.87031">
        <ele>525</ele>
        <time>2019-08-09T07:05:22Z</time>
      </trkpt>
      <trkpt lat="44.1566" lon="5.87034">
        <ele>525</ele>
        <time>2019-08-09T07:05:23Z</time>
      </trkpt>
      <trkpt lat="44.15656" lon="5.87039">
        <ele>525</ele>
        <time>2019-08-09T07:05:24Z</time>
      </trkpt>
      <trkpt lat="44.15651" lon="5.87043">
        <ele>525</ele>
        <time>2019-08-09T07:05:25Z</time>
      </trkpt>
      <trkpt lat="44.15647" lon="5.87049">
        <ele>525</ele>
        <time>2019-08-09T07:05:26Z</time>
      </trkpt>
      <trkpt lat="44.15643" lon="5.87055">
        <ele>525</ele>
        <time>2019-08-09T07:05:27Z</time>
      </trkpt>
      <trkpt lat="44.15638" lon="5.87062">
        <ele>525</ele>
        <time>2019-08-09T07:05:28Z</time>
      </trkpt>
      <trkpt lat="44.15635" lon="5.87068">
        <ele>525</ele>
        <time>2019-08-09T07:05:29Z</time>
      </trkpt>
      <trkpt lat="44.15631" lon="5.87074">
        <ele>526</ele>
        <time>2019-08-09T07:05:30Z</time>
      </trkpt>
      <trkpt lat="44.15628" lon="5.8708">
        <ele>526</ele>
        <time>2019-08-09T07:05:31Z</time>
      </trkpt>
      <trkpt lat="44.15624" lon="5.87086">
        <ele>526</ele>
        <time>2019-08-09T07:05:32Z</time>
      </trkpt>
      <trkpt lat="44.1562" lon="5.87092">
        <ele>526</ele>
        <time>2019-08-09T07:05:33Z</time>
      </trkpt>
      <trkpt lat="44.15617" lon="5.87099">
        <ele>527</ele>
        <time>2019-08-09T07:05:34Z</time>
      </trkpt>
      <trkpt lat="44.15614" lon="5.87106">
        <ele>527</ele>
        <time>2019-08-09T07:05:35Z</time>
      </trkpt>
      <trkpt lat="44.15611" lon="5.87114">
        <ele>528</ele>
        <time>2019-08-09T07:05:36Z</time>
      </trkpt>
      <trkpt lat="44.15607" lon="5.8712">
        <ele>529</ele>
        <time>2019-08-09T07:05:37Z</time>
      </trkpt>
      <trkpt lat="44.15603" lon="5.87126">
        <ele>530</ele>
        <time>2019-08-09T07:05:38Z</time>
      </trkpt>
      <trkpt lat="44.15599" lon="5.87133">
        <ele>530</ele>
        <time>2019-08-09T07:05:39Z</time>
      </trkpt>
      <trkpt lat="44.15595" lon="5.8714">
        <ele>531</ele>
        <time>2019-08-09T07:05:40Z</time>
      </trkpt>
      <trkpt lat="44.15591" lon="5.87145">
        <ele>531</ele>
        <time>2019-08-09T07:05:41Z</time>
      </trkpt>
      <trkpt lat="44.15587" lon="5.87151">
        <ele>532</ele>
        <time>2019-08-09T07:05:42Z</time>
      </trkpt>
      <trkpt lat="44.15582" lon="5.87157">
        <ele>532</ele>
        <time>2019-08-09T07:05:43Z</time>
      </trkpt>
      <trkpt lat="44.15578" lon="5.87162">
        <ele>532</ele>
        <time>2019-08-09T07:05:44Z</time>
      </trkpt>
      <trkpt lat="44.15574" lon="5.87168">
        <ele>532</ele>
        <time>2019-08-09T07:05:45Z</time>
      </trkpt>
      <trkpt lat="44.15569" lon="5.87173">
        <ele>532</ele>
        <time>2019-08-09T07:05:46Z</time>
      </trkpt>
      <trkpt lat="44.15564" lon="5.87179">
        <ele>533</ele>
        <time>2019-08-09T07:05:47Z</time>
      </trkpt>
      <trkpt lat="44.1556" lon="5.87184">
        <ele>533</ele>
        <time>2019-08-09T07:05:48Z</time>
      </trkpt>
      <trkpt lat="44.15556" lon="5.87189">
        <ele>534</ele>
        <time>2019-08-09T07:05:49Z</time>
      </trkpt>
      <trkpt lat="44.15551" lon="5.87195">
        <ele>535</ele>
        <time>2019-08-09T07:05:50Z</time>
      </trkpt>
      <trkpt lat="44.15547" lon="5.872">
        <ele>535</ele>
        <time>2019-08-09T07:05:51Z</time>
      </trkpt>
      <trkpt lat="44.15542" lon="5.87205">
        <ele>535</ele>
        <time>2019-08-09T07:05:52Z</time>
      </trkpt>
      <trkpt lat="44.15538" lon="5.8721">
        <ele>536</ele>
        <time>2019-08-09T07:05:53Z</time>
      </trkpt>
      <trkpt lat="44.15533" lon="5.87215">
        <ele>536</ele>
        <time>2019-08-09T07:05:54Z</time>
      </trkpt>
      <trkpt lat="44.15529" lon="5.87221">
        <ele>537</ele>
        <time>2019-08-09T07:05:55Z</time>
      </trkpt>
      <trkpt lat="44.15525" lon="5.87226">
        <ele>538</ele>
        <time>2019-08-09T07:05:56Z</time>
      </trkpt>
      <trkpt lat="44.1552" lon="5.87231">
        <ele>538</ele>
        <time>2019-08-09T07:05:57Z</time>
      </trkpt>
      <trkpt lat="44.15516" lon="5.87235">
        <ele>538</ele>
        <time>2019-08-09T07:05:58Z</time>
      </trkpt>
      <trkpt lat="44.15511" lon="5.87239">
        <ele>539</ele>
        <time>2019-08-09T07:05:59Z</time>
      </trkpt>
      <trkpt lat="44.15506" lon="5.87243">
        <ele>539</ele>
        <time>2019-08-09T07:06:00Z</time>
      </trkpt>
      <trkpt lat="44.155" lon="5.87246">
        <ele>539</ele>
        <time>2019-08-09T07:06:01Z</time>
      </trkpt>
      <trkpt lat="44.15495" lon="5.87249">
        <ele>539</ele>
        <time>2019-08-09T07:06:02Z</time>
      </trkpt>
      <trkpt lat="44.1549" lon="5.87252">
        <ele>539</ele>
        <time>2019-08-09T07:06:03Z</time>
      </trkpt>
      <trkpt lat="44.15484" lon="5.87255">
        <ele>539</ele>
        <time>2019-08-09T07:06:04Z</time>
      </trkpt>
      <trkpt lat="44.15479" lon="5.87258">
        <ele>540</ele>
        <time>2019-08-09T07:06:05Z</time>
      </trkpt>
      <trkpt lat="44.15474" lon="5.87262">
        <ele>540</ele>
        <time>2019-08-09T07:06:06Z</time>
      </trkpt>
      <trkpt lat="44.15468" lon="5.87265">
        <ele>541</ele>
        <time>2019-08-09T07:06:07Z</time>
      </trkpt>
      <trkpt lat="44.15463" lon="5.87269">
        <ele>541</ele>
        <time>2019-08-09T07:06:08Z</time>
      </trkpt>
      <trkpt lat="44.15458" lon="5.87273">
        <ele>542</ele>
        <time>2019-08-09T07:06:09Z</time>
      </trkpt>
      <trkpt lat="44.15453" lon="5.87277">
        <ele>542</ele>
        <time>2019-08-09T07:06:10Z</time>
      </trkpt>
      <trkpt lat="44.15448" lon="5.87281">
        <ele>542</ele>
        <time>2019-08-09T07:06:11Z</time>
      </trkpt>
      <trkpt lat="44.15443" lon="5.87284">
        <ele>542</ele>
        <time>2019-08-09T07:06:12Z</time>
      </trkpt>
      <trkpt lat="44.15438" lon="5.87288">
        <ele>542</ele>
        <time>2019-08-09T07:06:13Z</time>
      </trkpt>
      <trkpt lat="44.15433" lon="5.87291">
        <ele>542</ele>
        <time>2019-08-09T07:06:14Z</time>
      </trkpt>
      <trkpt lat="44.15429" lon="5.87295">
        <ele>542</ele>
        <time>2019-08-09T07:06:15Z</time>
      </trkpt>
      <trkpt lat="44.15424" lon="5.87299">
        <ele>542</ele>
        <time>2019-08-09T07:06:16Z</time>
      </trkpt>
      <trkpt lat="44.15419" lon="5.87302">
        <ele>542</ele>
        <time>2019-08-09T07:06:17Z</time>
      </trkpt>
      <trkpt lat="44.15414" lon="5.87306">
        <ele>542</ele>
        <time>2019-08-09T07:06:18Z</time>
      </trkpt>
      <trkpt lat="44.15409" lon="5.8731">
        <ele>542</ele>
        <time>2019-08-09T07:06:19Z</time>
      </trkpt>
      <trkpt lat="44.15405" lon="5.87314">
        <ele>542</ele>
        <time>2019-08-09T07:06:20Z</time>
      </trkpt>
      <trkpt lat="44.154" lon="5.87318">
        <ele>542</ele>
        <time>2019-08-09T07:06:21Z</time>
      </trkpt>
      <trkpt lat="44.15396" lon="5.87321">
        <ele>542</ele>
        <time>2019-08-09T07:06:22Z</time>
      </trkpt>
      <trkpt lat="44.1539" lon="5.87324">
        <ele>542</ele>
        <time>2019-08-09T07:06:23Z</time>
      </trkpt>
      <trkpt lat="44.15386" lon="5.87327">
        <ele>542</ele>
        <time>2019-08-09T07:06:24Z</time>
      </trkpt>
      <trkpt lat="44.15382" lon="5.8733">
        <ele>542</ele>
        <time>2019-08-09T07:06:25Z</time>
      </trkpt>
      <trkpt lat="44.15377" lon="5.87333">
        <ele>542</ele>
        <time>2019-08-09T07:06:26Z</time>
      </trkpt>
      <trkpt lat="44.15372" lon="5.87336">
        <ele>542</ele>
        <time>2019-08-09T07:06:27Z</time>
      </trkpt>
      <trkpt lat="44.15367" lon="5.8734">
        <ele>542</ele>
        <time>2019-08-09T07:06:28Z</time>
      </trkpt>
      <trkpt lat="44.15363" lon="5.87344">
        <ele>542</ele>
        <time>2019-08-09T07:06:29Z</time>
      </trkpt>
      <trkpt lat="44.15358" lon="5.87348">
        <ele>542</ele>
        <time>2019-08-09T07:06:30Z</time>
      </trkpt>
      <trkpt lat="44.15353" lon="5.87352">
        <ele>542</ele>
        <time>2019-08-09T07:06:31Z</time>
      </trkpt>
      <trkpt lat="44.15348" lon="5.87356">
        <ele>542</ele>
        <time>2019-08-09T07:06:32Z</time>
      </trkpt>
      <trkpt lat="44.15344" lon="5.87361">
        <ele>542</ele>
        <time>2019-08-09T07:06:33Z</time>
      </trkpt>
      <trkpt lat="44.15339" lon="5.87365">
        <ele>542</ele>
        <time>2019-08-09T07:06:34Z</time>
      </trkpt>
      <trkpt lat="44.15334" lon="5.8737">
        <ele>542</ele>
        <time>2019-08-09T07:06:35Z</time>
      </trkpt>
      <trkpt lat="44.15329" lon="5.87375">
        <ele>542</ele>
        <time>2019-08-09T07:06:36Z</time>
      </trkpt>
      <trkpt lat="44.15324" lon="5.87381">
        <ele>542</ele>
        <time>2019-08-09T07:06:37Z</time>
      </trkpt>
      <trkpt lat="44.15319" lon="5.87386">
        <ele>542</ele>
        <time>2019-08-09T07:06:38Z</time>
      </trkpt>
      <trkpt lat="44.15314" lon="5.87391">
        <ele>542</ele>
        <time>2019-08-09T07:06:39Z</time>
      </trkpt>
      <trkpt lat="44.15309" lon="5.87396">
        <ele>542</ele>
        <time>2019-08-09T07:06:40Z</time>
      </trkpt>
      <trkpt lat="44.15303" lon="5.87401">
        <ele>543</ele>
        <time>2019-08-09T07:06:41Z</time>
      </trkpt>
      <trkpt lat="44.15298" lon="5.87407">
        <ele>543</ele>
        <time>2019-08-09T07:06:42Z</time>
      </trkpt>
      <trkpt lat="44.15293" lon="5.87412">
        <ele>544</ele>
        <time>2019-08-09T07:06:43Z</time>
      </trkpt>
      <trkpt lat="44.15288" lon="5.87417">
        <ele>545</ele>
        <time>2019-08-09T07:06:44Z</time>
      </trkpt>
      <trkpt lat="44.15284" lon="5.87422">
        <ele>546</ele>
        <time>2019-08-09T07:06:45Z</time>
      </trkpt>
      <trkpt lat="44.15279" lon="5.87427">
        <ele>547</ele>
        <time>2019-08-09T07:06:46Z</time>
      </trkpt>
      <trkpt lat="44.15274" lon="5.87432">
        <ele>548</ele>
        <time>2019-08-09T07:06:47Z</time>
      </trkpt>
      <trkpt lat="44.15269" lon="5.87437">
        <ele>549</ele>
        <time>2019-08-09T07:06:48Z</time>
      </trkpt>
      <trkpt lat="44.15265" lon="5.87441">
        <ele>549</ele>
        <time>2019-08-09T07:06:49Z</time>
      </trkpt>
      <trkpt lat="44.15261" lon="5.87445">
        <ele>549</ele>
        <time>2019-08-09T07:06:50Z</time>
      </trkpt>
      <trkpt lat="44.15258" lon="5.8745">
        <ele>549</ele>
        <time>2019-08-09T07:06:51Z</time>
      </trkpt>
      <trkpt lat="44.15254" lon="5.87455">
        <ele>549</ele>
        <time>2019-08-09T07:06:52Z</time>
      </trkpt>
      <trkpt lat="44.15251" lon="5.8746">
        <ele>549</ele>
        <time>2019-08-09T07:06:53Z</time>
      </trkpt>
      <trkpt lat="44.15248" lon="5.87465">
        <ele>549</ele>
        <time>2019-08-09T07:06:54Z</time>
      </trkpt>
      <trkpt lat="44.15244" lon="5.8747">
        <ele>549</ele>
        <time>2019-08-09T07:06:55Z</time>
      </trkpt>
      <trkpt lat="44.15241" lon="5.87476">
        <ele>549</ele>
        <time>2019-08-09T07:06:56Z</time>
      </trkpt>
      <trkpt lat="44.15238" lon="5.87483">
        <ele>548</ele>
        <time>2019-08-09T07:06:57Z</time>
      </trkpt>
      <trkpt lat="44.15235" lon="5.87489">
        <ele>547</ele>
        <time>2019-08-09T07:06:58Z</time>
      </trkpt>
      <trkpt lat="44.15232" lon="5.87495">
        <ele>547</ele>
        <time>2019-08-09T07:06:59Z</time>
      </trkpt>
      <trkpt lat="44.1523" lon="5.87501">
        <ele>547</ele>
        <time>2019-08-09T07:07:00Z</time>
      </trkpt>
      <trkpt lat="44.15228" lon="5.87508">
        <ele>546</ele>
        <time>2019-08-09T07:07:01Z</time>
      </trkpt>
      <trkpt lat="44.15226" lon="5.87515">
        <ele>546</ele>
        <time>2019-08-09T07:07:02Z</time>
      </trkpt>
      <trkpt lat="44.15224" lon="5.87522">
        <ele>545</ele>
        <time>2019-08-09T07:07:03Z</time>
      </trkpt>
      <trkpt lat="44.15222" lon="5.87529">
        <ele>545</ele>
        <time>2019-08-09T07:07:04Z</time>
      </trkpt>
      <trkpt lat="44.15219" lon="5.87535">
        <ele>545</ele>
        <time>2019-08-09T07:07:05Z</time>
      </trkpt>
      <trkpt lat="44.15218" lon="5.87542">
        <ele>545</ele>
        <time>2019-08-09T07:07:06Z</time>
      </trkpt>
      <trkpt lat="44.15216" lon="5.87549">
        <ele>545</ele>
        <time>2019-08-09T07:07:07Z</time>
      </trkpt>
      <trkpt lat="44.15214" lon="5.87557">
        <ele>545</ele>
        <time>2019-08-09T07:07:08Z</time>
      </trkpt>
      <trkpt lat="44.15211" lon="5.87564">
        <ele>545</ele>
        <time>2019-08-09T07:07:09Z</time>
      </trkpt>
      <trkpt lat="44.1521" lon="5.8757">
        <ele>545</ele>
        <time>2019-08-09T07:07:10Z</time>
      </trkpt>
      <trkpt lat="44.15208" lon="5.87577">
        <ele>545</ele>
        <time>2019-08-09T07:07:11Z</time>
      </trkpt>
      <trkpt lat="44.15206" lon="5.87584">
        <ele>545</ele>
        <time>2019-08-09T07:07:12Z</time>
      </trkpt>
      <trkpt lat="44.15204" lon="5.87591">
        <ele>545</ele>
        <time>2019-08-09T07:07:13Z</time>
      </trkpt>
      <trkpt lat="44.15201" lon="5.87597">
        <ele>545</ele>
        <time>2019-08-09T07:07:14Z</time>
      </trkpt>
      <trkpt lat="44.15198" lon="5.87604">
        <ele>545</ele>
        <time>2019-08-09T07:07:15Z</time>
      </trkpt>
      <trkpt lat="44.15194" lon="5.87609">
        <ele>545</ele>
        <time>2019-08-09T07:07:16Z</time>
      </trkpt>
      <trkpt lat="44.1519" lon="5.87614">
        <ele>545</ele>
        <time>2019-08-09T07:07:17Z</time>
      </trkpt>
      <trkpt lat="44.15186" lon="5.87618">
        <ele>545</ele>
        <time>2019-08-09T07:07:18Z</time>
      </trkpt>
      <trkpt lat="44.15181" lon="5.8762">
        <ele>545</ele>
        <time>2019-08-09T07:07:19Z</time>
      </trkpt>
      <trkpt lat="44.15175" lon="5.87622">
        <ele>545</ele>
        <time>2019-08-09T07:07:20Z</time>
      </trkpt>
      <trkpt lat="44.15169" lon="5.87622">
        <ele>545</ele>
        <time>2019-08-09T07:07:21Z</time>
      </trkpt>
      <trkpt lat="44.15163" lon="5.87623">
        <ele>545</ele>
        <time>2019-08-09T07:07:22Z</time>
      </trkpt>
      <trkpt lat="44.15158" lon="5.87623">
        <ele>545</ele>
        <time>2019-08-09T07:07:23Z</time>
      </trkpt>
      <trkpt lat="44.15152" lon="5.87623">
        <ele>545</ele>
        <time>2019-08-09T07:07:24Z</time>
      </trkpt>
      <trkpt lat="44.15146" lon="5.87623">
        <ele>545</ele>
        <time>2019-08-09T07:07:25Z</time>
      </trkpt>
      <trkpt lat="44.1514" lon="5.87623">
        <ele>545</ele>
        <time>2019-08-09T07:07:26Z</time>
      </trkpt>
      <trkpt lat="44.15134" lon="5.87624">
        <ele>545</ele>
        <time>2019-08-09T07:07:27Z</time>
      </trkpt>
      <trkpt lat="44.15128" lon="5.87625">
        <ele>545</ele>
        <time>2019-08-09T07:07:28Z</time>
      </trkpt>
      <trkpt lat="44.15122" lon="5.87626">
        <ele>545</ele>
        <time>2019-08-09T07:07:29Z</time>
      </trkpt>
      <trkpt lat="44.15116" lon="5.87627">
        <ele>545</ele>
        <time>2019-08-09T07:07:30Z</time>
      </trkpt>
      <trkpt lat="44.1511" lon="5.87628">
        <ele>545</ele>
        <time>2019-08-09T07:07:31Z</time>
      </trkpt>
      <trkpt lat="44.15104" lon="5.87629">
        <ele>545</ele>
        <time>2019-08-09T07:07:32Z</time>
      </trkpt>
      <trkpt lat="44.15098" lon="5.87629">
        <ele>545</ele>
        <time>2019-08-09T07:07:33Z</time>
      </trkpt>
      <trkpt lat="44.15092" lon="5.8763">
        <ele>545</ele>
        <time>2019-08-09T07:07:34Z</time>
      </trkpt>
      <trkpt lat="44.15086" lon="5.87631">
        <ele>545</ele>
        <time>2019-08-09T07:07:35Z</time>
      </trkpt>
      <trkpt lat="44.1508" lon="5.87632">
        <ele>545</ele>
        <time>2019-08-09T07:07:36Z</time>
      </trkpt>
      <trkpt lat="44.15074" lon="5.87633">
        <ele>545</ele>
        <time>2019-08-09T07:07:37Z</time>
      </trkpt>
      <trkpt lat="44.15068" lon="5.87633">
        <ele>546</ele>
        <time>2019-08-09T07:07:38Z</time>
      </trkpt>
      <trkpt lat="44.15062" lon="5.87633">
        <ele>546</ele>
        <time>2019-08-09T07:07:39Z</time>
      </trkpt>
      <trkpt lat="44.15057" lon="5.87634">
        <ele>546</ele>
        <time>2019-08-09T07:07:40Z</time>
      </trkpt>
      <trkpt lat="44.15051" lon="5.87635">
        <ele>546</ele>
        <time>2019-08-09T07:07:41Z</time>
      </trkpt>
      <trkpt lat="44.15045" lon="5.87636">
        <ele>546</ele>
        <time>2019-08-09T07:07:42Z</time>
      </trkpt>
      <trkpt lat="44.1504" lon="5.87638">
        <ele>546</ele>
        <time>2019-08-09T07:07:43Z</time>
      </trkpt>
      <trkpt lat="44.15035" lon="5.87639">
        <ele>546</ele>
        <time>2019-08-09T07:07:44Z</time>
      </trkpt>
      <trkpt lat="44.1503" lon="5.87641">
        <ele>547</ele>
        <time>2019-08-09T07:07:45Z</time>
      </trkpt>
      <trkpt lat="44.15024" lon="5.87643">
        <ele>547</ele>
        <time>2019-08-09T07:07:46Z</time>
      </trkpt>
      <trkpt lat="44.15019" lon="5.87646">
        <ele>547</ele>
        <time>2019-08-09T07:07:47Z</time>
      </trkpt>
      <trkpt lat="44.15014" lon="5.8765">
        <ele>547</ele>
        <time>2019-08-09T07:07:48Z</time>
      </trkpt>
      <trkpt lat="44.15009" lon="5.87653">
        <ele>547</ele>
        <time>2019-08-09T07:07:49Z</time>
      </trkpt>
      <trkpt lat="44.15004" lon="5.87657">
        <ele>548</ele>
        <time>2019-08-09T07:07:50Z</time>
      </trkpt>
      <trkpt lat="44.15" lon="5.87661">
        <ele>548</ele>
        <time>2019-08-09T07:07:51Z</time>
      </trkpt>
      <trkpt lat="44.14996" lon="5.87665">
        <ele>549</ele>
        <time>2019-08-09T07:07:52Z</time>
      </trkpt>
      <trkpt lat="44.14993" lon="5.8767">
        <ele>549</ele>
        <time>2019-08-09T07:07:53Z</time>
      </trkpt>
      <trkpt lat="44.1499" lon="5.87674">
        <ele>549</ele>
        <time>2019-08-09T07:07:54Z</time>
      </trkpt>
      <trkpt lat="44.14987" lon="5.87678">
        <ele>549</ele>
        <time>2019-08-09T07:07:55Z</time>
      </trkpt>
      <trkpt lat="44.14983" lon="5.87683">
        <ele>549</ele>
        <time>2019-08-09T07:07:56Z</time>
      </trkpt>
      <trkpt lat="44.1498" lon="5.87688">
        <ele>549</ele>
        <time>2019-08-09T07:07:57Z</time>
      </trkpt>
      <trkpt lat="44.14977" lon="5.87692">
        <ele>549</ele>
        <time>2019-08-09T07:07:58Z</time>
      </trkpt>
      <trkpt lat="44.14973" lon="5.87697">
        <ele>550</ele>
        <time>2019-08-09T07:07:59Z</time>
      </trkpt>
      <trkpt lat="44.1497" lon="5.87701">
        <ele>551</ele>
        <time>2019-08-09T07:08:00Z</time>
      </trkpt>
      <trkpt lat="44.14967" lon="5.87705">
        <ele>551</ele>
        <time>2019-08-09T07:08:01Z</time>
      </trkpt>
      <trkpt lat="44.14964" lon="5.8771">
        <ele>551</ele>
        <time>2019-08-09T07:08:02Z</time>
      </trkpt>
      <trkpt lat="44.14961" lon="5.87715">
        <ele>551</ele>
        <time>2019-08-09T07:08:03Z</time>
      </trkpt>
      <trkpt lat="44.14958" lon="5.8772">
        <ele>551</ele>
        <time>2019-08-09T07:08:04Z</time>
      </trkpt>
      <trkpt lat="44.14955" lon="5.87724">
        <ele>551</ele>
        <time>2019-08-09T07:08:05Z</time>
      </trkpt>
      <trkpt lat="44.14952" lon="5.87729">
        <ele>551</ele>
        <time>2019-08-09T07:08:06Z</time>
      </trkpt>
      <trkpt lat="44.14949" lon="5.87735">
        <ele>551</ele>
        <time>2019-08-09T07:08:07Z</time>
      </trkpt>
      <trkpt lat="44.14946" lon="5.8774">
        <ele>551</ele>
        <time>2019-08-09T07:08:08Z</time>
      </trkpt>
      <trkpt lat="44.14942" lon="5.87745">
        <ele>551</ele>
        <time>2019-08-09T07:08:09Z</time>
      </trkpt>
      <trkpt lat="44.14939" lon="5.8775">
        <ele>551</ele>
        <time>2019-08-09T07:08:10Z</time>
      </trkpt>
      <trkpt lat="44.14936" lon="5.87754">
        <ele>551</ele>
        <time>2019-08-09T07:08:11Z</time>
      </trkpt>
      <trkpt lat="44.14933" lon="5.87759">
        <ele>551</ele>
        <time>2019-08-09T07:08:12Z</time>
      </trkpt>
      <trkpt lat="44.1493" lon="5.87764">
        <ele>551</ele>
        <time>2019-08-09T07:08:13Z</time>
      </trkpt>
      <trkpt lat="44.14927" lon="5.87769">
        <ele>551</ele>
        <time>2019-08-09T07:08:14Z</time>
      </trkpt>
      <trkpt lat="44.14924" lon="5.87773">
        <ele>551</ele>
        <time>2019-08-09T07:08:15Z</time>
      </trkpt>
      <trkpt lat="44.14921" lon="5.87778">
        <ele>551</ele>
        <time>2019-08-09T07:08:16Z</time>
      </trkpt>
      <trkpt lat="44.14918" lon="5.87784">
        <ele>551</ele>
        <time>2019-08-09T07:08:17Z</time>
      </trkpt>
      <trkpt lat="44.14915" lon="5.87789">
        <ele>551</ele>
        <time>2019-08-09T07:08:18Z</time>
      </trkpt>
      <trkpt lat="44.14912" lon="5.87794">
        <ele>551</ele>
        <time>2019-08-09T07:08:19Z</time>
      </trkpt>
      <trkpt lat="44.14909" lon="5.87799">
        <ele>551</ele>
        <time>2019-08-09T07:08:20Z</time>
      </trkpt>
      <trkpt lat="44.14905" lon="5.87805">
        <ele>551</ele>
        <time>2019-08-09T07:08:21Z</time>
      </trkpt>
      <trkpt lat="44.14902" lon="5.8781">
        <ele>551</ele>
        <time>2019-08-09T07:08:22Z</time>
      </trkpt>
      <trkpt lat="44.14899" lon="5.87814">
        <ele>551</ele>
        <time>2019-08-09T07:08:23Z</time>
      </trkpt>
      <trkpt lat="44.14896" lon="5.87819">
        <ele>551</ele>
        <time>2019-08-09T07:08:24Z</time>
      </trkpt>
      <trkpt lat="44.14893" lon="5.87824">
        <ele>552</ele>
        <time>2019-08-09T07:08:25Z</time>
      </trkpt>
      <trkpt lat="44.1489" lon="5.87829">
        <ele>552</ele>
        <time>2019-08-09T07:08:26Z</time>
      </trkpt>
      <trkpt lat="44.14887" lon="5.87833">
        <ele>553</ele>
        <time>2019-08-09T07:08:27Z</time>
      </trkpt>
      <trkpt lat="44.14884" lon="5.87838">
        <ele>554</ele>
        <time>2019-08-09T07:08:28Z</time>
      </trkpt>
      <trkpt lat="44.14881" lon="5.87842">
        <ele>555</ele>
        <time>2019-08-09T07:08:29Z</time>
      </trkpt>
      <trkpt lat="44.14878" lon="5.87847">
        <ele>556</ele>
        <time>2019-08-09T07:08:30Z</time>
      </trkpt>
      <trkpt lat="44.14875" lon="5.87852">
        <ele>557</ele>
        <time>2019-08-09T07:08:31Z</time>
      </trkpt>
      <trkpt lat="44.14872" lon="5.87857">
        <ele>558</ele>
        <time>2019-08-09T07:08:32Z</time>
      </trkpt>
      <trkpt lat="44.1487" lon="5.87861">
        <ele>559</ele>
        <time>2019-08-09T07:08:33Z</time>
      </trkpt>
      <trkpt lat="44.14867" lon="5.87866">
        <ele>560</ele>
        <time>2019-08-09T07:08:34Z</time>
      </trkpt>
      <trkpt lat="44.14865" lon="5.87872">
        <ele>561</ele>
        <time>2019-08-09T07:08:35Z</time>
      </trkpt>
      <trkpt lat="44.14863" lon="5.87878">
        <ele>562</ele>
        <time>2019-08-09T07:08:36Z</time>
      </trkpt>
      <trkpt lat="44.14862" lon="5.87883">
        <ele>562</ele>
        <time>2019-08-09T07:08:37Z</time>
      </trkpt>
      <trkpt lat="44.14859" lon="5.87888">
        <ele>562</ele>
        <time>2019-08-09T07:08:38Z</time>
      </trkpt>
      <trkpt lat="44.14857" lon="5.87893">
        <ele>562</ele>
        <time>2019-08-09T07:08:39Z</time>
      </trkpt>
      <trkpt lat="44.14855" lon="5.87899">
        <ele>562</ele>
        <time>2019-08-09T07:08:40Z</time>
      </trkpt>
      <trkpt lat="44.14853" lon="5.87903">
        <ele>562</ele>
        <time>2019-08-09T07:08:41Z</time>
      </trkpt>
      <trkpt lat="44.14851" lon="5.87908">
        <ele>561</ele>
        <time>2019-08-09T07:08:42Z</time>
      </trkpt>
      <trkpt lat="44.14849" lon="5.87913">
        <ele>561</ele>
        <time>2019-08-09T07:08:43Z</time>
      </trkpt>
      <trkpt lat="44.14846" lon="5.87918">
        <ele>561</ele>
        <time>2019-08-09T07:08:44Z</time>
      </trkpt>
      <trkpt lat="44.14843" lon="5.87922">
        <ele>561</ele>
        <time>2019-08-09T07:08:45Z</time>
      </trkpt>
      <trkpt lat="44.14841" lon="5.87926">
        <ele>561</ele>
        <time>2019-08-09T07:08:46Z</time>
      </trkpt>
      <trkpt lat="44.14839" lon="5.8793">
        <ele>561</ele>
        <time>2019-08-09T07:08:47Z</time>
      </trkpt>
      <trkpt lat="44.14837" lon="5.87935">
        <ele>561</ele>
        <time>2019-08-09T07:08:48Z</time>
      </trkpt>
      <trkpt lat="44.14835" lon="5.8794">
        <ele>561</ele>
        <time>2019-08-09T07:08:49Z</time>
      </trkpt>
      <trkpt lat="44.14832" lon="5.87944">
        <ele>561</ele>
        <time>2019-08-09T07:08:50Z</time>
      </trkpt>
      <trkpt lat="44.1483" lon="5.87948">
        <ele>561</ele>
        <time>2019-08-09T07:08:51Z</time>
      </trkpt>
      <trkpt lat="44.14828" lon="5.87953">
        <ele>561</ele>
        <time>2019-08-09T07:08:52Z</time>
      </trkpt>
      <trkpt lat="44.14826" lon="5.87957">
        <ele>561</ele>
        <time>2019-08-09T07:08:53Z</time>
      </trkpt>
      <trkpt lat="44.14824" lon="5.87962">
        <ele>561</ele>
        <time>2019-08-09T07:08:54Z</time>
      </trkpt>
      <trkpt lat="44.14822" lon="5.87966">
        <ele>561</ele>
        <time>2019-08-09T07:08:55Z</time>
      </trkpt>
      <trkpt lat="44.14819" lon="5.8797">
        <ele>561</ele>
        <time>2019-08-09T07:08:56Z</time>
      </trkpt>
      <trkpt lat="44.14817" lon="5.87974">
        <ele>561</ele>
        <time>2019-08-09T07:08:57Z</time>
      </trkpt>
      <trkpt lat="44.14815" lon="5.87978">
        <ele>561</ele>
        <time>2019-08-09T07:08:58Z</time>
      </trkpt>
      <trkpt lat="44.14813" lon="5.87982">
        <ele>561</ele>
        <time>2019-08-09T07:08:59Z</time>
      </trkpt>
      <trkpt lat="44.1481" lon="5.87987">
        <ele>561</ele>
        <time>2019-08-09T07:09:00Z</time>
      </trkpt>
      <trkpt lat="44.14808" lon="5.8799">
        <ele>561</ele>
        <time>2019-08-09T07:09:01Z</time>
      </trkpt>
      <trkpt lat="44.14806" lon="5.87992">
        <ele>561</ele>
        <time>2019-08-09T07:09:02Z</time>
      </trkpt>
      <trkpt lat="44.14803" lon="5.87994">
        <ele>561</ele>
        <time>2019-08-09T07:09:03Z</time>
      </trkpt>
      <trkpt lat="44.14801" lon="5.87997">
        <ele>561</ele>
        <time>2019-08-09T07:09:04Z</time>
      </trkpt>
      <trkpt lat="44.14798" lon="5.88">
        <ele>561</ele>
        <time>2019-08-09T07:09:05Z</time>
      </trkpt>
      <trkpt lat="44.14796" lon="5.88003">
        <ele>561</ele>
        <time>2019-08-09T07:09:06Z</time>
      </trkpt>
      <trkpt lat="44.14794" lon="5.88006">
        <ele>561</ele>
        <time>2019-08-09T07:09:07Z</time>
      </trkpt>
      <trkpt lat="44.14792" lon="5.88008">
        <ele>561</ele>
        <time>2019-08-09T07:09:08Z</time>
      </trkpt>
      <trkpt lat="44.14791" lon="5.8801">
        <ele>561</ele>
        <time>2019-08-09T07:09:09Z</time>
      </trkpt>
      <trkpt lat="44.14789" lon="5.88012">
        <ele>561</ele>
        <time>2019-08-09T07:09:11Z</time>
      </trkpt>
      <trkpt lat="44.14789" lon="5.88014">
        <ele>561</ele>
        <time>2019-08-09T07:09:15Z</time>
      </trkpt>
      <trkpt lat="44.14789" lon="5.88016">
        <ele>561</ele>
        <time>2019-08-09T07:09:18Z</time>
      </trkpt>
      <trkpt lat="44.14788" lon="5.88016">
        <ele>561</ele>
        <time>2019-08-09T07:09:21Z</time>
      </trkpt>
      <trkpt lat="44.14787" lon="5.88016">
        <ele>561</ele>
        <time>2019-08-09T07:09:25Z</time>
      </trkpt>
      <trkpt lat="44.14788" lon="5.88015">
        <ele>560</ele>
        <time>2019-08-09T07:09:46Z</time>
      </trkpt>
      <trkpt lat="44.14787" lon="5.88014">
        <ele>557</ele>
        <time>2019-08-09T07:10:14Z</time>
      </trkpt>
      <trkpt lat="44.14785" lon="5.88014">
        <ele>555</ele>
        <time>2019-08-09T07:10:58Z</time>
      </trkpt>
      <trkpt lat="44.14786" lon="5.88016">
        <ele>555</ele>
        <time>2019-08-09T07:12:31Z</time>
      </trkpt>
      <trkpt lat="44.14784" lon="5.88016">
        <ele>555</ele>
        <time>2019-08-09T07:12:37Z</time>
      </trkpt>
      <trkpt lat="44.14783" lon="5.88016">
        <ele>558</ele>
        <time>2019-08-09T07:12:41Z</time>
      </trkpt>
      <trkpt lat="44.14782" lon="5.88015">
        <ele>562</ele>
        <time>2019-08-09T07:12:45Z</time>
      </trkpt>
      <trkpt lat="44.14784" lon="5.88016">
        <ele>562</ele>
        <time>2019-08-09T07:12:47Z</time>
      </trkpt>
      <trkpt lat="44.14785" lon="5.88015">
        <ele>564</ele>
        <time>2019-08-09T07:12:52Z</time>
      </trkpt>
      <trkpt lat="44.14787" lon="5.88014">
        <ele>565</ele>
        <time>2019-08-09T07:12:58Z</time>
      </trkpt>
      <trkpt lat="44.14787" lon="5.88016">
        <ele>566</ele>
        <time>2019-08-09T07:13:06Z</time>
      </trkpt>
      <trkpt lat="44.14788" lon="5.88016">
        <ele>566</ele>
        <time>2019-08-09T07:13:14Z</time>
      </trkpt>
      <trkpt lat="44.14789" lon="5.88015">
        <ele>566</ele>
        <time>2019-08-09T07:13:18Z</time>
      </trkpt>
      <trkpt lat="44.14788" lon="5.88014">
        <ele>566</ele>
        <time>2019-08-09T07:13:41Z</time>
      </trkpt>
      <trkpt lat="44.14789" lon="5.88013">
        <ele>569</ele>
        <time>2019-08-09T07:13:46Z</time>
      </trkpt>
      <trkpt lat="44.14788" lon="5.88014">
        <ele>570</ele>
        <time>2019-08-09T07:13:51Z</time>
      </trkpt>
      <trkpt lat="44.14787" lon="5.88015">
        <ele>570</ele>
        <time>2019-08-09T07:13:54Z</time>
      </trkpt>
      <trkpt lat="44.14787" lon="5.88017">
        <ele>570</ele>
        <time>2019-08-09T07:13:57Z</time>
      </trkpt>
      <trkpt lat="44.14787" lon="5.8802">
        <ele>570</ele>
        <time>2019-08-09T07:13:59Z</time>
      </trkpt>
      <trkpt lat="44.14788" lon="5.88022">
        <ele>570</ele>
        <time>2019-08-09T07:14:01Z</time>
      </trkpt>
      <trkpt lat="44.14789" lon="5.88023">
        <ele>570</ele>
        <time>2019-08-09T07:14:14Z</time>
      </trkpt>
      <trkpt lat="44.1479" lon="5.88026">
        <ele>570</ele>
        <time>2019-08-09T07:14:19Z</time>
      </trkpt>
      <trkpt lat="44.14789" lon="5.88028">
        <ele>570</ele>
        <time>2019-08-09T07:14:20Z</time>
      </trkpt>
      <trkpt lat="44.1479" lon="5.8803">
        <ele>570</ele>
        <time>2019-08-09T07:14:21Z</time>
      </trkpt>
      <trkpt lat="44.1479" lon="5.88032">
        <ele>570</ele>
        <time>2019-08-09T07:14:22Z</time>
      </trkpt>
      <trkpt lat="44.1479" lon="5.88035">
        <ele>570</ele>
        <time>2019-08-09T07:14:23Z</time>
      </trkpt>
      <trkpt lat="44.14791" lon="5.88039">
        <ele>570</ele>
        <time>2019-08-09T07:14:24Z</time>
      </trkpt>
      <trkpt lat="44.14791" lon="5.88042">
        <ele>570</ele>
        <time>2019-08-09T07:14:25Z</time>
      </trkpt>
      <trkpt lat="44.14791" lon="5.88047">
        <ele>570</ele>
        <time>2019-08-09T07:14:26Z</time>
      </trkpt>
      <trkpt lat="44.14791" lon="5.88051">
        <ele>570</ele>
        <time>2019-08-09T07:14:27Z</time>
      </trkpt>
      <trkpt lat="44.14791" lon="5.88055">
        <ele>570</ele>
        <time>2019-08-09T07:14:28Z</time>
      </trkpt>
      <trkpt lat="44.14792" lon="5.8806">
        <ele>570</ele>
        <time>2019-08-09T07:14:29Z</time>
      </trkpt>
      <trkpt lat="44.14793" lon="5.88064">
        <ele>570</ele>
        <time>2019-08-09T07:14:30Z</time>
      </trkpt>
      <trkpt lat="44.14795" lon="5.88068">
        <ele>570</ele>
        <time>2019-08-09T07:14:31Z</time>
      </trkpt>
      <trkpt lat="44.14798" lon="5.88073">
        <ele>570</ele>
        <time>2019-08-09T07:14:32Z</time>
      </trkpt>
      <trkpt lat="44.14801" lon="5.88078">
        <ele>570</ele>
        <time>2019-08-09T07:14:33Z</time>
      </trkpt>
      <trkpt lat="44.14804" lon="5.88084">
        <ele>570</ele>
        <time>2019-08-09T07:14:34Z</time>
      </trkpt>
      <trkpt lat="44.14807" lon="5.8809">
        <ele>570</ele>
        <time>2019-08-09T07:14:35Z</time>
      </trkpt>
      <trkpt lat="44.14811" lon="5.88096">
        <ele>570</ele>
        <time>2019-08-09T07:14:36Z</time>
      </trkpt>
      <trkpt lat="44.14814" lon="5.88101">
        <ele>569</ele>
        <time>2019-08-09T07:14:37Z</time>
      </trkpt>
      <trkpt lat="44.14819" lon="5.88107">
        <ele>569</ele>
        <time>2019-08-09T07:14:38Z</time>
      </trkpt>
      <trkpt lat="44.14822" lon="5.88112">
        <ele>568</ele>
        <time>2019-08-09T07:14:39Z</time>
      </trkpt>
      <trkpt lat="44.14825" lon="5.88118">
        <ele>568</ele>
        <time>2019-08-09T07:14:40Z</time>
      </trkpt>
      <trkpt lat="44.14827" lon="5.88123">
        <ele>567</ele>
        <time>2019-08-09T07:14:41Z</time>
      </trkpt>
      <trkpt lat="44.14829" lon="5.88128">
        <ele>567</ele>
        <time>2019-08-09T07:14:42Z</time>
      </trkpt>
      <trkpt lat="44.1483" lon="5.88132">
        <ele>567</ele>
        <time>2019-08-09T07:14:43Z</time>
      </trkpt>
      <trkpt lat="44.14833" lon="5.88137">
        <ele>567</ele>
        <time>2019-08-09T07:14:44Z</time>
      </trkpt>
      <trkpt lat="44.14834" lon="5.88142">
        <ele>567</ele>
        <time>2019-08-09T07:14:45Z</time>
      </trkpt>
      <trkpt lat="44.14835" lon="5.88147">
        <ele>567</ele>
        <time>2019-08-09T07:14:46Z</time>
      </trkpt>
      <trkpt lat="44.14836" lon="5.88153">
        <ele>567</ele>
        <time>2019-08-09T07:14:47Z</time>
      </trkpt>
      <trkpt lat="44.14837" lon="5.88158">
        <ele>567</ele>
        <time>2019-08-09T07:14:48Z</time>
      </trkpt>
      <trkpt lat="44.14838" lon="5.88163">
        <ele>567</ele>
        <time>2019-08-09T07:14:49Z</time>
      </trkpt>
      <trkpt lat="44.14839" lon="5.88168">
        <ele>567</ele>
        <time>2019-08-09T07:14:50Z</time>
      </trkpt>
      <trkpt lat="44.1484" lon="5.88173">
        <ele>567</ele>
        <time>2019-08-09T07:14:51Z</time>
      </trkpt>
      <trkpt lat="44.14842" lon="5.88179">
        <ele>567</ele>
        <time>2019-08-09T07:14:52Z</time>
      </trkpt>
      <trkpt lat="44.14844" lon="5.88185">
        <ele>567</ele>
        <time>2019-08-09T07:14:53Z</time>
      </trkpt>
      <trkpt lat="44.14846" lon="5.8819">
        <ele>567</ele>
        <time>2019-08-09T07:14:54Z</time>
      </trkpt>
      <trkpt lat="44.14846" lon="5.88196">
        <ele>567</ele>
        <time>2019-08-09T07:14:55Z</time>
      </trkpt>
      <trkpt lat="44.14847" lon="5.882">
        <ele>567</ele>
        <time>2019-08-09T07:14:56Z</time>
      </trkpt>
      <trkpt lat="44.14847" lon="5.88205">
        <ele>567</ele>
        <time>2019-08-09T07:14:57Z</time>
      </trkpt>
      <trkpt lat="44.14848" lon="5.8821">
        <ele>567</ele>
        <time>2019-08-09T07:14:58Z</time>
      </trkpt>
      <trkpt lat="44.14849" lon="5.88217">
        <ele>567</ele>
        <time>2019-08-09T07:14:59Z</time>
      </trkpt>
      <trkpt lat="44.14851" lon="5.88223">
        <ele>567</ele>
        <time>2019-08-09T07:15:00Z</time>
      </trkpt>
      <trkpt lat="44.14853" lon="5.88229">
        <ele>567</ele>
        <time>2019-08-09T07:15:01Z</time>
      </trkpt>
      <trkpt lat="44.14854" lon="5.88236">
        <ele>567</ele>
        <time>2019-08-09T07:15:02Z</time>
      </trkpt>
      <trkpt lat="44.14855" lon="5.88242">
        <ele>567</ele>
        <time>2019-08-09T07:15:03Z</time>
      </trkpt>
      <trkpt lat="44.14856" lon="5.88248">
        <ele>567</ele>
        <time>2019-08-09T07:15:04Z</time>
      </trkpt>
      <trkpt lat="44.14855" lon="5.88254">
        <ele>566</ele>
        <time>2019-08-09T07:15:05Z</time>
      </trkpt>
      <trkpt lat="44.14855" lon="5.8826">
        <ele>566</ele>
        <time>2019-08-09T07:15:06Z</time>
      </trkpt>
      <trkpt lat="44.14854" lon="5.88266">
        <ele>566</ele>
        <time>2019-08-09T07:15:07Z</time>
      </trkpt>
      <trkpt lat="44.14853" lon="5.88271">
        <ele>565</ele>
        <time>2019-08-09T07:15:08Z</time>
      </trkpt>
      <trkpt lat="44.14851" lon="5.88276">
        <ele>565</ele>
        <time>2019-08-09T07:15:09Z</time>
      </trkpt>
      <trkpt lat="44.1485" lon="5.88282">
        <ele>564</ele>
        <time>2019-08-09T07:15:10Z</time>
      </trkpt>
      <trkpt lat="44.14848" lon="5.88287">
        <ele>564</ele>
        <time>2019-08-09T07:15:11Z</time>
      </trkpt>
      <trkpt lat="44.14846" lon="5.88293">
        <ele>564</ele>
        <time>2019-08-09T07:15:12Z</time>
      </trkpt>
      <trkpt lat="44.14845" lon="5.88298">
        <ele>563</ele>
        <time>2019-08-09T07:15:13Z</time>
      </trkpt>
      <trkpt lat="44.14843" lon="5.88303">
        <ele>563</ele>
        <time>2019-08-09T07:15:14Z</time>
      </trkpt>
      <trkpt lat="44.14841" lon="5.88308">
        <ele>563</ele>
        <time>2019-08-09T07:15:15Z</time>
      </trkpt>
      <trkpt lat="44.1484" lon="5.88313">
        <ele>563</ele>
        <time>2019-08-09T07:15:16Z</time>
      </trkpt>
      <trkpt lat="44.14838" lon="5.88319">
        <ele>563</ele>
        <time>2019-08-09T07:15:17Z</time>
      </trkpt>
      <trkpt lat="44.14837" lon="5.88325">
        <ele>563</ele>
        <time>2019-08-09T07:15:18Z</time>
      </trkpt>
      <trkpt lat="44.14836" lon="5.88331">
        <ele>563</ele>
        <time>2019-08-09T07:15:19Z</time>
      </trkpt>
      <trkpt lat="44.14835" lon="5.88337">
        <ele>563</ele>
        <time>2019-08-09T07:15:20Z</time>
      </trkpt>
      <trkpt lat="44.14834" lon="5.88343">
        <ele>563</ele>
        <time>2019-08-09T07:15:21Z</time>
      </trkpt>
      <trkpt lat="44.14833" lon="5.88349">
        <ele>563</ele>
        <time>2019-08-09T07:15:22Z</time>
      </trkpt>
      <trkpt lat="44.14832" lon="5.88355">
        <ele>563</ele>
        <time>2019-08-09T07:15:23Z</time>
      </trkpt>
      <trkpt lat="44.14831" lon="5.88361">
        <ele>563</ele>
        <time>2019-08-09T07:15:24Z</time>
      </trkpt>
      <trkpt lat="44.1483" lon="5.88367">
        <ele>563</ele>
        <time>2019-08-09T07:15:25Z</time>
      </trkpt>
      <trkpt lat="44.14829" lon="5.88374">
        <ele>563</ele>
        <time>2019-08-09T07:15:26Z</time>
      </trkpt>
      <trkpt lat="44.14828" lon="5.88379">
        <ele>563</ele>
        <time>2019-08-09T07:15:27Z</time>
      </trkpt>
      <trkpt lat="44.14827" lon="5.88386">
        <ele>563</ele>
        <time>2019-08-09T07:15:28Z</time>
      </trkpt>
      <trkpt lat="44.14826" lon="5.88392">
        <ele>563</ele>
        <time>2019-08-09T07:15:29Z</time>
      </trkpt>
      <trkpt lat="44.14825" lon="5.88398">
        <ele>563</ele>
        <time>2019-08-09T07:15:30Z</time>
      </trkpt>
      <trkpt lat="44.14824" lon="5.88404">
        <ele>563</ele>
        <time>2019-08-09T07:15:31Z</time>
      </trkpt>
      <trkpt lat="44.14823" lon="5.8841">
        <ele>563</ele>
        <time>2019-08-09T07:15:32Z</time>
      </trkpt>
      <trkpt lat="44.14822" lon="5.88416">
        <ele>563</ele>
        <time>2019-08-09T07:15:33Z</time>
      </trkpt>
      <trkpt lat="44.14821" lon="5.88421">
        <ele>563</ele>
        <time>2019-08-09T07:15:34Z</time>
      </trkpt>
      <trkpt lat="44.1482" lon="5.88427">
        <ele>563</ele>
        <time>2019-08-09T07:15:35Z</time>
      </trkpt>
      <trkpt lat="44.14819" lon="5.88433">
        <ele>563</ele>
        <time>2019-08-09T07:15:36Z</time>
      </trkpt>
      <trkpt lat="44.14819" lon="5.88439">
        <ele>563</ele>
        <time>2019-08-09T07:15:37Z</time>
      </trkpt>
      <trkpt lat="44.14819" lon="5.88445">
        <ele>563</ele>
        <time>2019-08-09T07:15:38Z</time>
      </trkpt>
      <trkpt lat="44.14818" lon="5.8845">
        <ele>563</ele>
        <time>2019-08-09T07:15:39Z</time>
      </trkpt>
      <trkpt lat="44.14818" lon="5.88456">
        <ele>563</ele>
        <time>2019-08-09T07:15:40Z</time>
      </trkpt>
      <trkpt lat="44.14818" lon="5.88463">
        <ele>563</ele>
        <time>2019-08-09T07:15:41Z</time>
      </trkpt>
      <trkpt lat="44.14819" lon="5.88469">
        <ele>563</ele>
        <time>2019-08-09T07:15:42Z</time>
      </trkpt>
      <trkpt lat="44.1482" lon="5.88476">
        <ele>563</ele>
        <time>2019-08-09T07:15:43Z</time>
      </trkpt>
      <trkpt lat="44.14822" lon="5.88482">
        <ele>563</ele>
        <time>2019-08-09T07:15:44Z</time>
      </trkpt>
      <trkpt lat="44.14823" lon="5.88488">
        <ele>563</ele>
        <time>2019-08-09T07:15:45Z</time>
      </trkpt>
      <trkpt lat="44.14824" lon="5.88495">
        <ele>563</ele>
        <time>2019-08-09T07:15:46Z</time>
      </trkpt>
      <trkpt lat="44.14825" lon="5.88502">
        <ele>563</ele>
        <time>2019-08-09T07:15:47Z</time>
      </trkpt>
      <trkpt lat="44.14826" lon="5.88508">
        <ele>563</ele>
        <time>2019-08-09T07:15:48Z</time>
      </trkpt>
      <trkpt lat="44.14826" lon="5.88515">
        <ele>563</ele>
        <time>2019-08-09T07:15:49Z</time>
      </trkpt>
      <trkpt lat="44.14825" lon="5.88521">
        <ele>563</ele>
        <time>2019-08-09T07:15:50Z</time>
      </trkpt>
      <trkpt lat="44.14824" lon="5.88527">
        <ele>563</ele>
        <time>2019-08-09T07:15:51Z</time>
      </trkpt>
      <trkpt lat="44.14822" lon="5.88532">
        <ele>563</ele>
        <time>2019-08-09T07:15:52Z</time>
      </trkpt>
      <trkpt lat="44.14819" lon="5.88537">
        <ele>563</ele>
        <time>2019-08-09T07:15:53Z</time>
      </trkpt>
      <trkpt lat="44.14816" lon="5.88541">
        <ele>563</ele>
        <time>2019-08-09T07:15:54Z</time>
      </trkpt>
      <trkpt lat="44.14812" lon="5.88545">
        <ele>563</ele>
        <time>2019-08-09T07:15:55Z</time>
      </trkpt>
      <trkpt lat="44.14809" lon="5.88549">
        <ele>563</ele>
        <time>2019-08-09T07:15:56Z</time>
      </trkpt>
      <trkpt lat="44.14805" lon="5.88552">
        <ele>563</ele>
        <time>2019-08-09T07:15:57Z</time>
      </trkpt>
      <trkpt lat="44.14801" lon="5.88555">
        <ele>564</ele>
        <time>2019-08-09T07:15:58Z</time>
      </trkpt>
      <trkpt lat="44.14798" lon="5.88559">
        <ele>565</ele>
        <time>2019-08-09T07:15:59Z</time>
      </trkpt>
      <trkpt lat="44.14795" lon="5.88562">
        <ele>566</ele>
        <time>2019-08-09T07:16:00Z</time>
      </trkpt>
      <trkpt lat="44.14791" lon="5.88565">
        <ele>566</ele>
        <time>2019-08-09T07:16:01Z</time>
      </trkpt>
      <trkpt lat="44.14788" lon="5.88568">
        <ele>567</ele>
        <time>2019-08-09T07:16:02Z</time>
      </trkpt>
      <trkpt lat="44.14785" lon="5.88572">
        <ele>568</ele>
        <time>2019-08-09T07:16:03Z</time>
      </trkpt>
      <trkpt lat="44.14782" lon="5.88577">
        <ele>569</ele>
        <time>2019-08-09T07:16:04Z</time>
      </trkpt>
      <trkpt lat="44.14779" lon="5.88581">
        <ele>569</ele>
        <time>2019-08-09T07:16:05Z</time>
      </trkpt>
      <trkpt lat="44.14775" lon="5.88585">
        <ele>569</ele>
        <time>2019-08-09T07:16:06Z</time>
      </trkpt>
      <trkpt lat="44.14772" lon="5.88588">
        <ele>570</ele>
        <time>2019-08-09T07:16:07Z</time>
      </trkpt>
      <trkpt lat="44.14769" lon="5.88593">
        <ele>570</ele>
        <time>2019-08-09T07:16:08Z</time>
      </trkpt>
      <trkpt lat="44.14766" lon="5.88597">
        <ele>570</ele>
        <time>2019-08-09T07:16:09Z</time>
      </trkpt>
      <trkpt lat="44.14763" lon="5.88601">
        <ele>571</ele>
        <time>2019-08-09T07:16:10Z</time>
      </trkpt>
      <trkpt lat="44.14759" lon="5.88605">
        <ele>571</ele>
        <time>2019-08-09T07:16:11Z</time>
      </trkpt>
      <trkpt lat="44.14756" lon="5.88609">
        <ele>571</ele>
        <time>2019-08-09T07:16:12Z</time>
      </trkpt>
      <trkpt lat="44.14753" lon="5.88612">
        <ele>572</ele>
        <time>2019-08-09T07:16:13Z</time>
      </trkpt>
      <trkpt lat="44.14749" lon="5.88616">
        <ele>572</ele>
        <time>2019-08-09T07:16:14Z</time>
      </trkpt>
      <trkpt lat="44.14746" lon="5.88619">
        <ele>573</ele>
        <time>2019-08-09T07:16:15Z</time>
      </trkpt>
      <trkpt lat="44.14742" lon="5.88622">
        <ele>573</ele>
        <time>2019-08-09T07:16:16Z</time>
      </trkpt>
      <trkpt lat="44.14738" lon="5.88625">
        <ele>573</ele>
        <time>2019-08-09T07:16:17Z</time>
      </trkpt>
      <trkpt lat="44.14735" lon="5.88628">
        <ele>574</ele>
        <time>2019-08-09T07:16:18Z</time>
      </trkpt>
      <trkpt lat="44.14731" lon="5.88632">
        <ele>574</ele>
        <time>2019-08-09T07:16:19Z</time>
      </trkpt>
      <trkpt lat="44.14727" lon="5.88635">
        <ele>574</ele>
        <time>2019-08-09T07:16:20Z</time>
      </trkpt>
      <trkpt lat="44.14724" lon="5.88638">
        <ele>574</ele>
        <time>2019-08-09T07:16:21Z</time>
      </trkpt>
      <trkpt lat="44.1472" lon="5.88641">
        <ele>574</ele>
        <time>2019-08-09T07:16:22Z</time>
      </trkpt>
      <trkpt lat="44.14716" lon="5.88644">
        <ele>574</ele>
        <time>2019-08-09T07:16:23Z</time>
      </trkpt>
      <trkpt lat="44.14713" lon="5.88646">
        <ele>575</ele>
        <time>2019-08-09T07:16:24Z</time>
      </trkpt>
      <trkpt lat="44.14709" lon="5.88649">
        <ele>575</ele>
        <time>2019-08-09T07:16:25Z</time>
      </trkpt>
      <trkpt lat="44.14706" lon="5.88652">
        <ele>575</ele>
        <time>2019-08-09T07:16:26Z</time>
      </trkpt>
      <trkpt lat="44.14702" lon="5.88655">
        <ele>575</ele>
        <time>2019-08-09T07:16:27Z</time>
      </trkpt>
      <trkpt lat="44.14698" lon="5.88658">
        <ele>575</ele>
        <time>2019-08-09T07:16:28Z</time>
      </trkpt>
      <trkpt lat="44.14695" lon="5.88661">
        <ele>576</ele>
        <time>2019-08-09T07:16:29Z</time>
      </trkpt>
      <trkpt lat="44.14691" lon="5.88664">
        <ele>576</ele>
        <time>2019-08-09T07:16:30Z</time>
      </trkpt>
      <trkpt lat="44.14688" lon="5.88667">
        <ele>576</ele>
        <time>2019-08-09T07:16:31Z</time>
      </trkpt>
      <trkpt lat="44.14685" lon="5.8867">
        <ele>577</ele>
        <time>2019-08-09T07:16:32Z</time>
      </trkpt>
      <trkpt lat="44.14682" lon="5.88673">
        <ele>577</ele>
        <time>2019-08-09T07:16:33Z</time>
      </trkpt>
      <trkpt lat="44.14679" lon="5.88676">
        <ele>577</ele>
        <time>2019-08-09T07:16:34Z</time>
      </trkpt>
      <trkpt lat="44.14676" lon="5.88679">
        <ele>577</ele>
        <time>2019-08-09T07:16:35Z</time>
      </trkpt>
      <trkpt lat="44.14673" lon="5.88683">
        <ele>577</ele>
        <time>2019-08-09T07:16:36Z</time>
      </trkpt>
      <trkpt lat="44.1467" lon="5.88686">
        <ele>577</ele>
        <time>2019-08-09T07:16:37Z</time>
      </trkpt>
      <trkpt lat="44.14666" lon="5.8869">
        <ele>577</ele>
        <time>2019-08-09T07:16:38Z</time>
      </trkpt>
      <trkpt lat="44.14663" lon="5.88693">
        <ele>577</ele>
        <time>2019-08-09T07:16:39Z</time>
      </trkpt>
      <trkpt lat="44.1466" lon="5.88697">
        <ele>577</ele>
        <time>2019-08-09T07:16:40Z</time>
      </trkpt>
      <trkpt lat="44.14656" lon="5.887">
        <ele>577</ele>
        <time>2019-08-09T07:16:41Z</time>
      </trkpt>
      <trkpt lat="44.14653" lon="5.88704">
        <ele>577</ele>
        <time>2019-08-09T07:16:42Z</time>
      </trkpt>
      <trkpt lat="44.1465" lon="5.88707">
        <ele>577</ele>
        <time>2019-08-09T07:16:43Z</time>
      </trkpt>
      <trkpt lat="44.14646" lon="5.8871">
        <ele>577</ele>
        <time>2019-08-09T07:16:44Z</time>
      </trkpt>
      <trkpt lat="44.14643" lon="5.88714">
        <ele>577</ele>
        <time>2019-08-09T07:16:45Z</time>
      </trkpt>
      <trkpt lat="44.1464" lon="5.88719">
        <ele>577</ele>
        <time>2019-08-09T07:16:46Z</time>
      </trkpt>
      <trkpt lat="44.14637" lon="5.88725">
        <ele>577</ele>
        <time>2019-08-09T07:16:47Z</time>
      </trkpt>
      <trkpt lat="44.14635" lon="5.8873">
        <ele>577</ele>
        <time>2019-08-09T07:16:48Z</time>
      </trkpt>
      <trkpt lat="44.14633" lon="5.88735">
        <ele>577</ele>
        <time>2019-08-09T07:16:49Z</time>
      </trkpt>
      <trkpt lat="44.14631" lon="5.88742">
        <ele>577</ele>
        <time>2019-08-09T07:16:50Z</time>
      </trkpt>
      <trkpt lat="44.14629" lon="5.88748">
        <ele>577</ele>
        <time>2019-08-09T07:16:51Z</time>
      </trkpt>
      <trkpt lat="44.14628" lon="5.88754">
        <ele>577</ele>
        <time>2019-08-09T07:16:52Z</time>
      </trkpt>
      <trkpt lat="44.14627" lon="5.88761">
        <ele>577</ele>
        <time>2019-08-09T07:16:53Z</time>
      </trkpt>
      <trkpt lat="44.14626" lon="5.88767">
        <ele>577</ele>
        <time>2019-08-09T07:16:54Z</time>
      </trkpt>
      <trkpt lat="44.14625" lon="5.88773">
        <ele>577</ele>
        <time>2019-08-09T07:16:55Z</time>
      </trkpt>
      <trkpt lat="44.14625" lon="5.88779">
        <ele>577</ele>
        <time>2019-08-09T07:16:56Z</time>
      </trkpt>
      <trkpt lat="44.14625" lon="5.88786">
        <ele>577</ele>
        <time>2019-08-09T07:16:57Z</time>
      </trkpt>
      <trkpt lat="44.14626" lon="5.88793">
        <ele>577</ele>
        <time>2019-08-09T07:16:58Z</time>
      </trkpt>
      <trkpt lat="44.14628" lon="5.888">
        <ele>577</ele>
        <time>2019-08-09T07:16:59Z</time>
      </trkpt>
      <trkpt lat="44.14629" lon="5.88807">
        <ele>577</ele>
        <time>2019-08-09T07:17:00Z</time>
      </trkpt>
      <trkpt lat="44.14632" lon="5.88814">
        <ele>577</ele>
        <time>2019-08-09T07:17:01Z</time>
      </trkpt>
      <trkpt lat="44.14634" lon="5.88822">
        <ele>577</ele>
        <time>2019-08-09T07:17:02Z</time>
      </trkpt>
      <trkpt lat="44.14636" lon="5.8883">
        <ele>577</ele>
        <time>2019-08-09T07:17:03Z</time>
      </trkpt>
      <trkpt lat="44.14638" lon="5.88839">
        <ele>577</ele>
        <time>2019-08-09T07:17:04Z</time>
      </trkpt>
      <trkpt lat="44.14639" lon="5.88848">
        <ele>577</ele>
        <time>2019-08-09T07:17:05Z</time>
      </trkpt>
      <trkpt lat="44.1464" lon="5.88858">
        <ele>577</ele>
        <time>2019-08-09T07:17:06Z</time>
      </trkpt>
      <trkpt lat="44.14641" lon="5.88868">
        <ele>577</ele>
        <time>2019-08-09T07:17:07Z</time>
      </trkpt>
      <trkpt lat="44.1464" lon="5.88879">
        <ele>577</ele>
        <time>2019-08-09T07:17:08Z</time>
      </trkpt>
      <trkpt lat="44.14639" lon="5.88891">
        <ele>577</ele>
        <time>2019-08-09T07:17:09Z</time>
      </trkpt>
      <trkpt lat="44.14637" lon="5.88903">
        <ele>577</ele>
        <time>2019-08-09T07:17:10Z</time>
      </trkpt>
      <trkpt lat="44.14635" lon="5.88915">
        <ele>577</ele>
        <time>2019-08-09T07:17:11Z</time>
      </trkpt>
      <trkpt lat="44.14632" lon="5.88927">
        <ele>577</ele>
        <time>2019-08-09T07:17:12Z</time>
      </trkpt>
      <trkpt lat="44.14629" lon="5.88939">
        <ele>577</ele>
        <time>2019-08-09T07:17:13Z</time>
      </trkpt>
      <trkpt lat="44.14626" lon="5.8895">
        <ele>577</ele>
        <time>2019-08-09T07:17:14Z</time>
      </trkpt>
      <trkpt lat="44.14622" lon="5.88961">
        <ele>577</ele>
        <time>2019-08-09T07:17:15Z</time>
      </trkpt>
      <trkpt lat="44.14618" lon="5.88971">
        <ele>577</ele>
        <time>2019-08-09T07:17:16Z</time>
      </trkpt>
      <trkpt lat="44.14613" lon="5.88979">
        <ele>577</ele>
        <time>2019-08-09T07:17:17Z</time>
      </trkpt>
      <trkpt lat="44.14608" lon="5.88987">
        <ele>577</ele>
        <time>2019-08-09T07:17:18Z</time>
      </trkpt>
      <trkpt lat="44.14603" lon="5.88993">
        <ele>577</ele>
        <time>2019-08-09T07:17:19Z</time>
      </trkpt>
      <trkpt lat="44.14598" lon="5.88997">
        <ele>577</ele>
        <time>2019-08-09T07:17:20Z</time>
      </trkpt>
      <trkpt lat="44.14594" lon="5.89">
        <ele>577</ele>
        <time>2019-08-09T07:17:21Z</time>
      </trkpt>
      <trkpt lat="44.14589" lon="5.89003">
        <ele>577</ele>
        <time>2019-08-09T07:17:22Z</time>
      </trkpt>
      <trkpt lat="44.14585" lon="5.89005">
        <ele>577</ele>
        <time>2019-08-09T07:17:23Z</time>
      </trkpt>
      <trkpt lat="44.14581" lon="5.89007">
        <ele>577</ele>
        <time>2019-08-09T07:17:24Z</time>
      </trkpt>
      <trkpt lat="44.14577" lon="5.89009">
        <ele>577</ele>
        <time>2019-08-09T07:17:25Z</time>
      </trkpt>
      <trkpt lat="44.14574" lon="5.8901">
        <ele>577</ele>
        <time>2019-08-09T07:17:26Z</time>
      </trkpt>
      <trkpt lat="44.1457" lon="5.89011">
        <ele>577</ele>
        <time>2019-08-09T07:17:27Z</time>
      </trkpt>
      <trkpt lat="44.14567" lon="5.89012">
        <ele>577</ele>
        <time>2019-08-09T07:17:28Z</time>
      </trkpt>
      <trkpt lat="44.14563" lon="5.89013">
        <ele>577</ele>
        <time>2019-08-09T07:17:29Z</time>
      </trkpt>
      <trkpt lat="44.1456" lon="5.89015">
        <ele>577</ele>
        <time>2019-08-09T07:17:30Z</time>
      </trkpt>
      <trkpt lat="44.14557" lon="5.89016">
        <ele>577</ele>
        <time>2019-08-09T07:17:31Z</time>
      </trkpt>
      <trkpt lat="44.14554" lon="5.89018">
        <ele>577</ele>
        <time>2019-08-09T07:17:32Z</time>
      </trkpt>
      <trkpt lat="44.14551" lon="5.89019">
        <ele>577</ele>
        <time>2019-08-09T07:17:33Z</time>
      </trkpt>
      <trkpt lat="44.14548" lon="5.89021">
        <ele>577</ele>
        <time>2019-08-09T07:17:34Z</time>
      </trkpt>
      <trkpt lat="44.14545" lon="5.89023">
        <ele>578</ele>
        <time>2019-08-09T07:17:35Z</time>
      </trkpt>
      <trkpt lat="44.14543" lon="5.89025">
        <ele>578</ele>
        <time>2019-08-09T07:17:36Z</time>
      </trkpt>
      <trkpt lat="44.1454" lon="5.89027">
        <ele>578</ele>
        <time>2019-08-09T07:17:37Z</time>
      </trkpt>
      <trkpt lat="44.14538" lon="5.8903">
        <ele>579</ele>
        <time>2019-08-09T07:17:38Z</time>
      </trkpt>
      <trkpt lat="44.14535" lon="5.89033">
        <ele>579</ele>
        <time>2019-08-09T07:17:39Z</time>
      </trkpt>
      <trkpt lat="44.14532" lon="5.89035">
        <ele>580</ele>
        <time>2019-08-09T07:17:40Z</time>
      </trkpt>
      <trkpt lat="44.1453" lon="5.89038">
        <ele>580</ele>
        <time>2019-08-09T07:17:41Z</time>
      </trkpt>
      <trkpt lat="44.14528" lon="5.8904">
        <ele>581</ele>
        <time>2019-08-09T07:17:42Z</time>
      </trkpt>
      <trkpt lat="44.14525" lon="5.89042">
        <ele>582</ele>
        <time>2019-08-09T07:17:43Z</time>
      </trkpt>
      <trkpt lat="44.14523" lon="5.89044">
        <ele>582</ele>
        <time>2019-08-09T07:17:44Z</time>
      </trkpt>
      <trkpt lat="44.14521" lon="5.89047">
        <ele>583</ele>
        <time>2019-08-09T07:17:45Z</time>
      </trkpt>
      <trkpt lat="44.14519" lon="5.89049">
        <ele>584</ele>
        <time>2019-08-09T07:17:46Z</time>
      </trkpt>
      <trkpt lat="44.14516" lon="5.89052">
        <ele>585</ele>
        <time>2019-08-09T07:17:47Z</time>
      </trkpt>
      <trkpt lat="44.14514" lon="5.89056">
        <ele>586</ele>
        <time>2019-08-09T07:17:48Z</time>
      </trkpt>
      <trkpt lat="44.14512" lon="5.8906">
        <ele>587</ele>
        <time>2019-08-09T07:17:49Z</time>
      </trkpt>
      <trkpt lat="44.1451" lon="5.89065">
        <ele>587</ele>
        <time>2019-08-09T07:17:50Z</time>
      </trkpt>
      <trkpt lat="44.14509" lon="5.8907">
        <ele>587</ele>
        <time>2019-08-09T07:17:51Z</time>
      </trkpt>
      <trkpt lat="44.14508" lon="5.89075">
        <ele>587</ele>
        <time>2019-08-09T07:17:52Z</time>
      </trkpt>
      <trkpt lat="44.14507" lon="5.8908">
        <ele>588</ele>
        <time>2019-08-09T07:17:53Z</time>
      </trkpt>
      <trkpt lat="44.14506" lon="5.89085">
        <ele>588</ele>
        <time>2019-08-09T07:17:54Z</time>
      </trkpt>
      <trkpt lat="44.14505" lon="5.8909">
        <ele>588</ele>
        <time>2019-08-09T07:17:55Z</time>
      </trkpt>
      <trkpt lat="44.14504" lon="5.89095">
        <ele>588</ele>
        <time>2019-08-09T07:17:56Z</time>
      </trkpt>
      <trkpt lat="44.14503" lon="5.89099">
        <ele>589</ele>
        <time>2019-08-09T07:17:57Z</time>
      </trkpt>
      <trkpt lat="44.14502" lon="5.89104">
        <ele>589</ele>
        <time>2019-08-09T07:17:58Z</time>
      </trkpt>
      <trkpt lat="44.14501" lon="5.89108">
        <ele>589</ele>
        <time>2019-08-09T07:17:59Z</time>
      </trkpt>
      <trkpt lat="44.145" lon="5.89113">
        <ele>589</ele>
        <time>2019-08-09T07:18:00Z</time>
      </trkpt>
      <trkpt lat="44.14499" lon="5.89117">
        <ele>589</ele>
        <time>2019-08-09T07:18:01Z</time>
      </trkpt>
      <trkpt lat="44.14499" lon="5.89122">
        <ele>589</ele>
        <time>2019-08-09T07:18:02Z</time>
      </trkpt>
      <trkpt lat="44.14498" lon="5.89127">
        <ele>589</ele>
        <time>2019-08-09T07:18:03Z</time>
      </trkpt>
      <trkpt lat="44.14497" lon="5.89132">
        <ele>589</ele>
        <time>2019-08-09T07:18:04Z</time>
      </trkpt>
      <trkpt lat="44.14495" lon="5.89136">
        <ele>589</ele>
        <time>2019-08-09T07:18:05Z</time>
      </trkpt>
      <trkpt lat="44.14494" lon="5.89141">
        <ele>589</ele>
        <time>2019-08-09T07:18:06Z</time>
      </trkpt>
      <trkpt lat="44.14493" lon="5.89145">
        <ele>590</ele>
        <time>2019-08-09T07:18:07Z</time>
      </trkpt>
      <trkpt lat="44.14491" lon="5.8915">
        <ele>590</ele>
        <time>2019-08-09T07:18:08Z</time>
      </trkpt>
      <trkpt lat="44.14489" lon="5.89154">
        <ele>590</ele>
        <time>2019-08-09T07:18:09Z</time>
      </trkpt>
      <trkpt lat="44.14488" lon="5.89159">
        <ele>590</ele>
        <time>2019-08-09T07:18:10Z</time>
      </trkpt>
      <trkpt lat="44.14486" lon="5.89164">
        <ele>590</ele>
        <time>2019-08-09T07:18:11Z</time>
      </trkpt>
      <trkpt lat="44.14484" lon="5.89168">
        <ele>590</ele>
        <time>2019-08-09T07:18:12Z</time>
      </trkpt>
      <trkpt lat="44.14482" lon="5.89173">
        <ele>591</ele>
        <time>2019-08-09T07:18:13Z</time>
      </trkpt>
      <trkpt lat="44.1448" lon="5.89178">
        <ele>591</ele>
        <time>2019-08-09T07:18:14Z</time>
      </trkpt>
      <trkpt lat="44.14478" lon="5.89183">
        <ele>591</ele>
        <time>2019-08-09T07:18:15Z</time>
      </trkpt>
      <trkpt lat="44.14476" lon="5.89188">
        <ele>591</ele>
        <time>2019-08-09T07:18:16Z</time>
      </trkpt>
      <trkpt lat="44.14473" lon="5.89193">
        <ele>591</ele>
        <time>2019-08-09T07:18:17Z</time>
      </trkpt>
      <trkpt lat="44.14471" lon="5.89197">
        <ele>591</ele>
        <time>2019-08-09T07:18:18Z</time>
      </trkpt>
      <trkpt lat="44.14468" lon="5.89202">
        <ele>591</ele>
        <time>2019-08-09T07:18:19Z</time>
      </trkpt>
      <trkpt lat="44.14466" lon="5.89207">
        <ele>591</ele>
        <time>2019-08-09T07:18:20Z</time>
      </trkpt>
      <trkpt lat="44.14463" lon="5.89212">
        <ele>591</ele>
        <time>2019-08-09T07:18:21Z</time>
      </trkpt>
      <trkpt lat="44.14461" lon="5.89217">
        <ele>591</ele>
        <time>2019-08-09T07:18:22Z</time>
      </trkpt>
      <trkpt lat="44.14459" lon="5.89222">
        <ele>591</ele>
        <time>2019-08-09T07:18:23Z</time>
      </trkpt>
      <trkpt lat="44.14456" lon="5.89226">
        <ele>591</ele>
        <time>2019-08-09T07:18:24Z</time>
      </trkpt>
      <trkpt lat="44.14454" lon="5.89231">
        <ele>591</ele>
        <time>2019-08-09T07:18:25Z</time>
      </trkpt>
      <trkpt lat="44.14452" lon="5.89236">
        <ele>591</ele>
        <time>2019-08-09T07:18:26Z</time>
      </trkpt>
      <trkpt lat="44.14449" lon="5.89241">
        <ele>591</ele>
        <time>2019-08-09T07:18:27Z</time>
      </trkpt>
      <trkpt lat="44.14446" lon="5.89246">
        <ele>591</ele>
        <time>2019-08-09T07:18:28Z</time>
      </trkpt>
      <trkpt lat="44.14444" lon="5.89251">
        <ele>591</ele>
        <time>2019-08-09T07:18:29Z</time>
      </trkpt>
      <trkpt lat="44.14442" lon="5.89256">
        <ele>591</ele>
        <time>2019-08-09T07:18:30Z</time>
      </trkpt>
      <trkpt lat="44.1444" lon="5.8926">
        <ele>591</ele>
        <time>2019-08-09T07:18:31Z</time>
      </trkpt>
      <trkpt lat="44.14437" lon="5.89265">
        <ele>591</ele>
        <time>2019-08-09T07:18:32Z</time>
      </trkpt>
      <trkpt lat="44.14434" lon="5.8927">
        <ele>591</ele>
        <time>2019-08-09T07:18:33Z</time>
      </trkpt>
      <trkpt lat="44.14432" lon="5.89275">
        <ele>591</ele>
        <time>2019-08-09T07:18:34Z</time>
      </trkpt>
      <trkpt lat="44.14429" lon="5.89279">
        <ele>591</ele>
        <time>2019-08-09T07:18:35Z</time>
      </trkpt>
      <trkpt lat="44.14426" lon="5.89283">
        <ele>591</ele>
        <time>2019-08-09T07:18:36Z</time>
      </trkpt>
      <trkpt lat="44.14424" lon="5.89287">
        <ele>591</ele>
        <time>2019-08-09T07:18:37Z</time>
      </trkpt>
      <trkpt lat="44.14421" lon="5.89291">
        <ele>592</ele>
        <time>2019-08-09T07:18:38Z</time>
      </trkpt>
      <trkpt lat="44.14419" lon="5.89296">
        <ele>592</ele>
        <time>2019-08-09T07:18:39Z</time>
      </trkpt>
      <trkpt lat="44.14417" lon="5.89301">
        <ele>592</ele>
        <time>2019-08-09T07:18:40Z</time>
      </trkpt>
      <trkpt lat="44.14414" lon="5.89306">
        <ele>592</ele>
        <time>2019-08-09T07:18:41Z</time>
      </trkpt>
      <trkpt lat="44.14412" lon="5.89311">
        <ele>593</ele>
        <time>2019-08-09T07:18:42Z</time>
      </trkpt>
      <trkpt lat="44.14409" lon="5.89315">
        <ele>593</ele>
        <time>2019-08-09T07:18:43Z</time>
      </trkpt>
      <trkpt lat="44.14407" lon="5.8932">
        <ele>593</ele>
        <time>2019-08-09T07:18:44Z</time>
      </trkpt>
      <trkpt lat="44.14404" lon="5.89325">
        <ele>593</ele>
        <time>2019-08-09T07:18:45Z</time>
      </trkpt>
      <trkpt lat="44.14402" lon="5.8933">
        <ele>594</ele>
        <time>2019-08-09T07:18:46Z</time>
      </trkpt>
      <trkpt lat="44.144" lon="5.89335">
        <ele>594</ele>
        <time>2019-08-09T07:18:47Z</time>
      </trkpt>
      <trkpt lat="44.14398" lon="5.8934">
        <ele>594</ele>
        <time>2019-08-09T07:18:48Z</time>
      </trkpt>
      <trkpt lat="44.14396" lon="5.89346">
        <ele>595</ele>
        <time>2019-08-09T07:18:49Z</time>
      </trkpt>
      <trkpt lat="44.14394" lon="5.89351">
        <ele>595</ele>
        <time>2019-08-09T07:18:50Z</time>
      </trkpt>
      <trkpt lat="44.14392" lon="5.89356">
        <ele>595</ele>
        <time>2019-08-09T07:18:51Z</time>
      </trkpt>
      <trkpt lat="44.14389" lon="5.8936">
        <ele>595</ele>
        <time>2019-08-09T07:18:52Z</time>
      </trkpt>
      <trkpt lat="44.14387" lon="5.89364">
        <ele>596</ele>
        <time>2019-08-09T07:18:53Z</time>
      </trkpt>
      <trkpt lat="44.14384" lon="5.89368">
        <ele>596</ele>
        <time>2019-08-09T07:18:54Z</time>
      </trkpt>
      <trkpt lat="44.14381" lon="5.89372">
        <ele>596</ele>
        <time>2019-08-09T07:18:55Z</time>
      </trkpt>
      <trkpt lat="44.14378" lon="5.89375">
        <ele>596</ele>
        <time>2019-08-09T07:18:56Z</time>
      </trkpt>
      <trkpt lat="44.14375" lon="5.89379">
        <ele>596</ele>
        <time>2019-08-09T07:18:57Z</time>
      </trkpt>
      <trkpt lat="44.14372" lon="5.89382">
        <ele>596</ele>
        <time>2019-08-09T07:18:58Z</time>
      </trkpt>
      <trkpt lat="44.14368" lon="5.89386">
        <ele>596</ele>
        <time>2019-08-09T07:18:59Z</time>
      </trkpt>
      <trkpt lat="44.14365" lon="5.8939">
        <ele>596</ele>
        <time>2019-08-09T07:19:00Z</time>
      </trkpt>
      <trkpt lat="44.14362" lon="5.89393">
        <ele>596</ele>
        <time>2019-08-09T07:19:01Z</time>
      </trkpt>
      <trkpt lat="44.14358" lon="5.89397">
        <ele>597</ele>
        <time>2019-08-09T07:19:02Z</time>
      </trkpt>
      <trkpt lat="44.14355" lon="5.89402">
        <ele>597</ele>
        <time>2019-08-09T07:19:03Z</time>
      </trkpt>
      <trkpt lat="44.14352" lon="5.89407">
        <ele>597</ele>
        <time>2019-08-09T07:19:04Z</time>
      </trkpt>
      <trkpt lat="44.14349" lon="5.89411">
        <ele>597</ele>
        <time>2019-08-09T07:19:05Z</time>
      </trkpt>
      <trkpt lat="44.14347" lon="5.89416">
        <ele>597</ele>
        <time>2019-08-09T07:19:06Z</time>
      </trkpt>
      <trkpt lat="44.14344" lon="5.8942">
        <ele>597</ele>
        <time>2019-08-09T07:19:07Z</time>
      </trkpt>
      <trkpt lat="44.14341" lon="5.89424">
        <ele>597</ele>
        <time>2019-08-09T07:19:08Z</time>
      </trkpt>
      <trkpt lat="44.14339" lon="5.89429">
        <ele>597</ele>
        <time>2019-08-09T07:19:09Z</time>
      </trkpt>
      <trkpt lat="44.14336" lon="5.89433">
        <ele>597</ele>
        <time>2019-08-09T07:19:10Z</time>
      </trkpt>
      <trkpt lat="44.14333" lon="5.89438">
        <ele>597</ele>
        <time>2019-08-09T07:19:11Z</time>
      </trkpt>
      <trkpt lat="44.1433" lon="5.89443">
        <ele>597</ele>
        <time>2019-08-09T07:19:12Z</time>
      </trkpt>
      <trkpt lat="44.14326" lon="5.89448">
        <ele>597</ele>
        <time>2019-08-09T07:19:13Z</time>
      </trkpt>
      <trkpt lat="44.14323" lon="5.89452">
        <ele>597</ele>
        <time>2019-08-09T07:19:14Z</time>
      </trkpt>
      <trkpt lat="44.1432" lon="5.89457">
        <ele>597</ele>
        <time>2019-08-09T07:19:15Z</time>
      </trkpt>
      <trkpt lat="44.14317" lon="5.89462">
        <ele>597</ele>
        <time>2019-08-09T07:19:16Z</time>
      </trkpt>
      <trkpt lat="44.14313" lon="5.89467">
        <ele>597</ele>
        <time>2019-08-09T07:19:17Z</time>
      </trkpt>
      <trkpt lat="44.1431" lon="5.89472">
        <ele>597</ele>
        <time>2019-08-09T07:19:18Z</time>
      </trkpt>
      <trkpt lat="44.14307" lon="5.89478">
        <ele>597</ele>
        <time>2019-08-09T07:19:19Z</time>
      </trkpt>
      <trkpt lat="44.14304" lon="5.89483">
        <ele>597</ele>
        <time>2019-08-09T07:19:20Z</time>
      </trkpt>
      <trkpt lat="44.14301" lon="5.89488">
        <ele>597</ele>
        <time>2019-08-09T07:19:21Z</time>
      </trkpt>
      <trkpt lat="44.14297" lon="5.89495">
        <ele>597</ele>
        <time>2019-08-09T07:19:22Z</time>
      </trkpt>
      <trkpt lat="44.14293" lon="5.89502">
        <ele>597</ele>
        <time>2019-08-09T07:19:23Z</time>
      </trkpt>
      <trkpt lat="44.1429" lon="5.89507">
        <ele>598</ele>
        <time>2019-08-09T07:19:24Z</time>
      </trkpt>
      <trkpt lat="44.14287" lon="5.89512">
        <ele>599</ele>
        <time>2019-08-09T07:19:25Z</time>
      </trkpt>
      <trkpt lat="44.14285" lon="5.89517">
        <ele>600</ele>
        <time>2019-08-09T07:19:26Z</time>
      </trkpt>
      <trkpt lat="44.14282" lon="5.89521">
        <ele>600</ele>
        <time>2019-08-09T07:19:27Z</time>
      </trkpt>
      <trkpt lat="44.14279" lon="5.89525">
        <ele>600</ele>
        <time>2019-08-09T07:19:28Z</time>
      </trkpt>
      <trkpt lat="44.14276" lon="5.89528">
        <ele>601</ele>
        <time>2019-08-09T07:19:29Z</time>
      </trkpt>
      <trkpt lat="44.14273" lon="5.89532">
        <ele>601</ele>
        <time>2019-08-09T07:19:30Z</time>
      </trkpt>
      <trkpt lat="44.1427" lon="5.89535">
        <ele>601</ele>
        <time>2019-08-09T07:19:31Z</time>
      </trkpt>
      <trkpt lat="44.14267" lon="5.89538">
        <ele>601</ele>
        <time>2019-08-09T07:19:32Z</time>
      </trkpt>
      <trkpt lat="44.14264" lon="5.89541">
        <ele>602</ele>
        <time>2019-08-09T07:19:33Z</time>
      </trkpt>
      <trkpt lat="44.1426" lon="5.89543">
        <ele>602</ele>
        <time>2019-08-09T07:19:34Z</time>
      </trkpt>
      <trkpt lat="44.14257" lon="5.89546">
        <ele>602</ele>
        <time>2019-08-09T07:19:35Z</time>
      </trkpt>
      <trkpt lat="44.14254" lon="5.89548">
        <ele>603</ele>
        <time>2019-08-09T07:19:36Z</time>
      </trkpt>
      <trkpt lat="44.1425" lon="5.8955">
        <ele>603</ele>
        <time>2019-08-09T07:19:37Z</time>
      </trkpt>
      <trkpt lat="44.14247" lon="5.89552">
        <ele>603</ele>
        <time>2019-08-09T07:19:38Z</time>
      </trkpt>
      <trkpt lat="44.14243" lon="5.89554">
        <ele>603</ele>
        <time>2019-08-09T07:19:39Z</time>
      </trkpt>
      <trkpt lat="44.1424" lon="5.89556">
        <ele>603</ele>
        <time>2019-08-09T07:19:40Z</time>
      </trkpt>
      <trkpt lat="44.14237" lon="5.89559">
        <ele>603</ele>
        <time>2019-08-09T07:19:41Z</time>
      </trkpt>
      <trkpt lat="44.14234" lon="5.89562">
        <ele>603</ele>
        <time>2019-08-09T07:19:42Z</time>
      </trkpt>
      <trkpt lat="44.1423" lon="5.89564">
        <ele>604</ele>
        <time>2019-08-09T07:19:43Z</time>
      </trkpt>
      <trkpt lat="44.14227" lon="5.89568">
        <ele>604</ele>
        <time>2019-08-09T07:19:44Z</time>
      </trkpt>
      <trkpt lat="44.14224" lon="5.89571">
        <ele>604</ele>
        <time>2019-08-09T07:19:45Z</time>
      </trkpt>
      <trkpt lat="44.14221" lon="5.89574">
        <ele>604</ele>
        <time>2019-08-09T07:19:46Z</time>
      </trkpt>
      <trkpt lat="44.14219" lon="5.89577">
        <ele>604</ele>
        <time>2019-08-09T07:19:47Z</time>
      </trkpt>
      <trkpt lat="44.14216" lon="5.89581">
        <ele>604</ele>
        <time>2019-08-09T07:19:48Z</time>
      </trkpt>
      <trkpt lat="44.14213" lon="5.89584">
        <ele>604</ele>
        <time>2019-08-09T07:19:49Z</time>
      </trkpt>
      <trkpt lat="44.14211" lon="5.89588">
        <ele>604</ele>
        <time>2019-08-09T07:19:50Z</time>
      </trkpt>
      <trkpt lat="44.14208" lon="5.89591">
        <ele>604</ele>
        <time>2019-08-09T07:19:51Z</time>
      </trkpt>
      <trkpt lat="44.14206" lon="5.89595">
        <ele>604</ele>
        <time>2019-08-09T07:19:52Z</time>
      </trkpt>
      <trkpt lat="44.14204" lon="5.89598">
        <ele>604</ele>
        <time>2019-08-09T07:19:53Z</time>
      </trkpt>
      <trkpt lat="44.14201" lon="5.89602">
        <ele>604</ele>
        <time>2019-08-09T07:19:54Z</time>
      </trkpt>
      <trkpt lat="44.14199" lon="5.89606">
        <ele>604</ele>
        <time>2019-08-09T07:19:55Z</time>
      </trkpt>
      <trkpt lat="44.14196" lon="5.89609">
        <ele>604</ele>
        <time>2019-08-09T07:19:56Z</time>
      </trkpt>
      <trkpt lat="44.14194" lon="5.89613">
        <ele>604</ele>
        <time>2019-08-09T07:19:57Z</time>
      </trkpt>
      <trkpt lat="44.14192" lon="5.89617">
        <ele>604</ele>
        <time>2019-08-09T07:19:58Z</time>
      </trkpt>
      <trkpt lat="44.1419" lon="5.8962">
        <ele>604</ele>
        <time>2019-08-09T07:19:59Z</time>
      </trkpt>
      <trkpt lat="44.14187" lon="5.89623">
        <ele>604</ele>
        <time>2019-08-09T07:20:00Z</time>
      </trkpt>
      <trkpt lat="44.14185" lon="5.89627">
        <ele>604</ele>
        <time>2019-08-09T07:20:01Z</time>
      </trkpt>
      <trkpt lat="44.14183" lon="5.8963">
        <ele>604</ele>
        <time>2019-08-09T07:20:02Z</time>
      </trkpt>
      <trkpt lat="44.14181" lon="5.89633">
        <ele>604</ele>
        <time>2019-08-09T07:20:03Z</time>
      </trkpt>
      <trkpt lat="44.14178" lon="5.89637">
        <ele>604</ele>
        <time>2019-08-09T07:20:04Z</time>
      </trkpt>
      <trkpt lat="44.14177" lon="5.8964">
        <ele>604</ele>
        <time>2019-08-09T07:20:05Z</time>
      </trkpt>
      <trkpt lat="44.14174" lon="5.89644">
        <ele>605</ele>
        <time>2019-08-09T07:20:06Z</time>
      </trkpt>
      <trkpt lat="44.14172" lon="5.89647">
        <ele>605</ele>
        <time>2019-08-09T07:20:07Z</time>
      </trkpt>
      <trkpt lat="44.14169" lon="5.8965">
        <ele>605</ele>
        <time>2019-08-09T07:20:08Z</time>
      </trkpt>
      <trkpt lat="44.14167" lon="5.89653">
        <ele>605</ele>
        <time>2019-08-09T07:20:09Z</time>
      </trkpt>
      <trkpt lat="44.14165" lon="5.89656">
        <ele>605</ele>
        <time>2019-08-09T07:20:10Z</time>
      </trkpt>
      <trkpt lat="44.14163" lon="5.8966">
        <ele>606</ele>
        <time>2019-08-09T07:20:11Z</time>
      </trkpt>
      <trkpt lat="44.1416" lon="5.89663">
        <ele>606</ele>
        <time>2019-08-09T07:20:12Z</time>
      </trkpt>
      <trkpt lat="44.14158" lon="5.89666">
        <ele>606</ele>
        <time>2019-08-09T07:20:13Z</time>
      </trkpt>
      <trkpt lat="44.14155" lon="5.89669">
        <ele>606</ele>
        <time>2019-08-09T07:20:14Z</time>
      </trkpt>
      <trkpt lat="44.14153" lon="5.89673">
        <ele>607</ele>
        <time>2019-08-09T07:20:15Z</time>
      </trkpt>
      <trkpt lat="44.1415" lon="5.89676">
        <ele>607</ele>
        <time>2019-08-09T07:20:16Z</time>
      </trkpt>
      <trkpt lat="44.14148" lon="5.89679">
        <ele>607</ele>
        <time>2019-08-09T07:20:17Z</time>
      </trkpt>
      <trkpt lat="44.14145" lon="5.89682">
        <ele>607</ele>
        <time>2019-08-09T07:20:18Z</time>
      </trkpt>
      <trkpt lat="44.14143" lon="5.89685">
        <ele>607</ele>
        <time>2019-08-09T07:20:19Z</time>
      </trkpt>
      <trkpt lat="44.14141" lon="5.89688">
        <ele>608</ele>
        <time>2019-08-09T07:20:20Z</time>
      </trkpt>
      <trkpt lat="44.14138" lon="5.8969">
        <ele>608</ele>
        <time>2019-08-09T07:20:21Z</time>
      </trkpt>
      <trkpt lat="44.14135" lon="5.89694">
        <ele>608</ele>
        <time>2019-08-09T07:20:22Z</time>
      </trkpt>
      <trkpt lat="44.14133" lon="5.89697">
        <ele>608</ele>
        <time>2019-08-09T07:20:23Z</time>
      </trkpt>
      <trkpt lat="44.1413" lon="5.89699">
        <ele>608</ele>
        <time>2019-08-09T07:20:24Z</time>
      </trkpt>
      <trkpt lat="44.14127" lon="5.89702">
        <ele>608</ele>
        <time>2019-08-09T07:20:25Z</time>
      </trkpt>
      <trkpt lat="44.14125" lon="5.89705">
        <ele>609</ele>
        <time>2019-08-09T07:20:26Z</time>
      </trkpt>
      <trkpt lat="44.14122" lon="5.89708">
        <ele>609</ele>
        <time>2019-08-09T07:20:27Z</time>
      </trkpt>
      <trkpt lat="44.14119" lon="5.8971">
        <ele>609</ele>
        <time>2019-08-09T07:20:28Z</time>
      </trkpt>
      <trkpt lat="44.14116" lon="5.89712">
        <ele>609</ele>
        <time>2019-08-09T07:20:29Z</time>
      </trkpt>
      <trkpt lat="44.14114" lon="5.89714">
        <ele>609</ele>
        <time>2019-08-09T07:20:30Z</time>
      </trkpt>
      <trkpt lat="44.14111" lon="5.89717">
        <ele>609</ele>
        <time>2019-08-09T07:20:31Z</time>
      </trkpt>
      <trkpt lat="44.14108" lon="5.8972">
        <ele>609</ele>
        <time>2019-08-09T07:20:32Z</time>
      </trkpt>
      <trkpt lat="44.14105" lon="5.89723">
        <ele>609</ele>
        <time>2019-08-09T07:20:33Z</time>
      </trkpt>
      <trkpt lat="44.14102" lon="5.89726">
        <ele>609</ele>
        <time>2019-08-09T07:20:34Z</time>
      </trkpt>
      <trkpt lat="44.141" lon="5.8973">
        <ele>609</ele>
        <time>2019-08-09T07:20:35Z</time>
      </trkpt>
      <trkpt lat="44.14097" lon="5.89733">
        <ele>609</ele>
        <time>2019-08-09T07:20:36Z</time>
      </trkpt>
      <trkpt lat="44.14094" lon="5.89737">
        <ele>609</ele>
        <time>2019-08-09T07:20:37Z</time>
      </trkpt>
      <trkpt lat="44.14092" lon="5.8974">
        <ele>610</ele>
        <time>2019-08-09T07:20:38Z</time>
      </trkpt>
      <trkpt lat="44.1409" lon="5.89743">
        <ele>610</ele>
        <time>2019-08-09T07:20:39Z</time>
      </trkpt>
      <trkpt lat="44.14087" lon="5.89747">
        <ele>610</ele>
        <time>2019-08-09T07:20:40Z</time>
      </trkpt>
      <trkpt lat="44.14085" lon="5.8975">
        <ele>610</ele>
        <time>2019-08-09T07:20:41Z</time>
      </trkpt>
      <trkpt lat="44.14083" lon="5.89754">
        <ele>611</ele>
        <time>2019-08-09T07:20:42Z</time>
      </trkpt>
      <trkpt lat="44.14081" lon="5.89757">
        <ele>611</ele>
        <time>2019-08-09T07:20:43Z</time>
      </trkpt>
      <trkpt lat="44.14078" lon="5.8976">
        <ele>611</ele>
        <time>2019-08-09T07:20:44Z</time>
      </trkpt>
      <trkpt lat="44.14076" lon="5.89764">
        <ele>611</ele>
        <time>2019-08-09T07:20:45Z</time>
      </trkpt>
      <trkpt lat="44.14074" lon="5.89767">
        <ele>611</ele>
        <time>2019-08-09T07:20:46Z</time>
      </trkpt>
      <trkpt lat="44.14072" lon="5.89771">
        <ele>612</ele>
        <time>2019-08-09T07:20:47Z</time>
      </trkpt>
      <trkpt lat="44.14069" lon="5.89774">
        <ele>612</ele>
        <time>2019-08-09T07:20:48Z</time>
      </trkpt>
      <trkpt lat="44.14067" lon="5.89778">
        <ele>612</ele>
        <time>2019-08-09T07:20:49Z</time>
      </trkpt>
      <trkpt lat="44.14065" lon="5.89781">
        <ele>613</ele>
        <time>2019-08-09T07:20:50Z</time>
      </trkpt>
      <trkpt lat="44.14063" lon="5.89784">
        <ele>613</ele>
        <time>2019-08-09T07:20:51Z</time>
      </trkpt>
      <trkpt lat="44.14061" lon="5.89788">
        <ele>613</ele>
        <time>2019-08-09T07:20:52Z</time>
      </trkpt>
      <trkpt lat="44.14059" lon="5.89791">
        <ele>614</ele>
        <time>2019-08-09T07:20:53Z</time>
      </trkpt>
      <trkpt lat="44.14058" lon="5.89794">
        <ele>614</ele>
        <time>2019-08-09T07:20:54Z</time>
      </trkpt>
      <trkpt lat="44.14056" lon="5.89798">
        <ele>614</ele>
        <time>2019-08-09T07:20:55Z</time>
      </trkpt>
      <trkpt lat="44.14054" lon="5.89801">
        <ele>614</ele>
        <time>2019-08-09T07:20:56Z</time>
      </trkpt>
      <trkpt lat="44.14052" lon="5.89805">
        <ele>615</ele>
        <time>2019-08-09T07:20:57Z</time>
      </trkpt>
      <trkpt lat="44.1405" lon="5.89808">
        <ele>615</ele>
        <time>2019-08-09T07:20:58Z</time>
      </trkpt>
      <trkpt lat="44.14049" lon="5.89811">
        <ele>615</ele>
        <time>2019-08-09T07:20:59Z</time>
      </trkpt>
      <trkpt lat="44.14047" lon="5.89814">
        <ele>616</ele>
        <time>2019-08-09T07:21:00Z</time>
      </trkpt>
      <trkpt lat="44.14045" lon="5.89818">
        <ele>616</ele>
        <time>2019-08-09T07:21:01Z</time>
      </trkpt>
      <trkpt lat="44.14044" lon="5.89821">
        <ele>616</ele>
        <time>2019-08-09T07:21:02Z</time>
      </trkpt>
      <trkpt lat="44.14042" lon="5.89824">
        <ele>616</ele>
        <time>2019-08-09T07:21:03Z</time>
      </trkpt>
      <trkpt lat="44.1404" lon="5.89827">
        <ele>617</ele>
        <time>2019-08-09T07:21:04Z</time>
      </trkpt>
      <trkpt lat="44.14038" lon="5.89831">
        <ele>617</ele>
        <time>2019-08-09T07:21:05Z</time>
      </trkpt>
      <trkpt lat="44.14037" lon="5.89834">
        <ele>617</ele>
        <time>2019-08-09T07:21:06Z</time>
      </trkpt>
      <trkpt lat="44.14035" lon="5.89837">
        <ele>618</ele>
        <time>2019-08-09T07:21:07Z</time>
      </trkpt>
      <trkpt lat="44.14033" lon="5.8984">
        <ele>618</ele>
        <time>2019-08-09T07:21:08Z</time>
      </trkpt>
      <trkpt lat="44.14032" lon="5.89843">
        <ele>618</ele>
        <time>2019-08-09T07:21:09Z</time>
      </trkpt>
      <trkpt lat="44.1403" lon="5.89845">
        <ele>618</ele>
        <time>2019-08-09T07:21:10Z</time>
      </trkpt>
      <trkpt lat="44.14028" lon="5.89848">
        <ele>619</ele>
        <time>2019-08-09T07:21:11Z</time>
      </trkpt>
      <trkpt lat="44.14027" lon="5.89851">
        <ele>619</ele>
        <time>2019-08-09T07:21:12Z</time>
      </trkpt>
      <trkpt lat="44.14025" lon="5.89854">
        <ele>619</ele>
        <time>2019-08-09T07:21:13Z</time>
      </trkpt>
      <trkpt lat="44.14023" lon="5.89857">
        <ele>619</ele>
        <time>2019-08-09T07:21:14Z</time>
      </trkpt>
      <trkpt lat="44.14021" lon="5.89859">
        <ele>619</ele>
        <time>2019-08-09T07:21:15Z</time>
      </trkpt>
      <trkpt lat="44.14019" lon="5.89862">
        <ele>620</ele>
        <time>2019-08-09T07:21:16Z</time>
      </trkpt>
      <trkpt lat="44.14018" lon="5.89864">
        <ele>620</ele>
        <time>2019-08-09T07:21:17Z</time>
      </trkpt>
      <trkpt lat="44.14016" lon="5.89867">
        <ele>620</ele>
        <time>2019-08-09T07:21:18Z</time>
      </trkpt>
      <trkpt lat="44.14014" lon="5.8987">
        <ele>620</ele>
        <time>2019-08-09T07:21:19Z</time>
      </trkpt>
      <trkpt lat="44.14012" lon="5.89872">
        <ele>621</ele>
        <time>2019-08-09T07:21:20Z</time>
      </trkpt>
      <trkpt lat="44.1401" lon="5.89875">
        <ele>621</ele>
        <time>2019-08-09T07:21:21Z</time>
      </trkpt>
      <trkpt lat="44.14008" lon="5.89878">
        <ele>621</ele>
        <time>2019-08-09T07:21:22Z</time>
      </trkpt>
      <trkpt lat="44.14006" lon="5.8988">
        <ele>621</ele>
        <time>2019-08-09T07:21:23Z</time>
      </trkpt>
      <trkpt lat="44.14005" lon="5.89883">
        <ele>621</ele>
        <time>2019-08-09T07:21:24Z</time>
      </trkpt>
      <trkpt lat="44.14003" lon="5.89885">
        <ele>621</ele>
        <time>2019-08-09T07:21:25Z</time>
      </trkpt>
      <trkpt lat="44.14001" lon="5.89887">
        <ele>621</ele>
        <time>2019-08-09T07:21:26Z</time>
      </trkpt>
      <trkpt lat="44.13999" lon="5.89889">
        <ele>621</ele>
        <time>2019-08-09T07:21:27Z</time>
      </trkpt>
      <trkpt lat="44.13997" lon="5.89891">
        <ele>622</ele>
        <time>2019-08-09T07:21:28Z</time>
      </trkpt>
      <trkpt lat="44.13994" lon="5.89894">
        <ele>622</ele>
        <time>2019-08-09T07:21:29Z</time>
      </trkpt>
      <trkpt lat="44.13992" lon="5.89896">
        <ele>622</ele>
        <time>2019-08-09T07:21:30Z</time>
      </trkpt>
      <trkpt lat="44.1399" lon="5.89898">
        <ele>622</ele>
        <time>2019-08-09T07:21:31Z</time>
      </trkpt>
      <trkpt lat="44.13987" lon="5.899">
        <ele>623</ele>
        <time>2019-08-09T07:21:32Z</time>
      </trkpt>
      <trkpt lat="44.13985" lon="5.89902">
        <ele>623</ele>
        <time>2019-08-09T07:21:33Z</time>
      </trkpt>
      <trkpt lat="44.13983" lon="5.89904">
        <ele>623</ele>
        <time>2019-08-09T07:21:34Z</time>
      </trkpt>
      <trkpt lat="44.1398" lon="5.89906">
        <ele>623</ele>
        <time>2019-08-09T07:21:35Z</time>
      </trkpt>
      <trkpt lat="44.13978" lon="5.89909">
        <ele>624</ele>
        <time>2019-08-09T07:21:36Z</time>
      </trkpt>
      <trkpt lat="44.13976" lon="5.89911">
        <ele>624</ele>
        <time>2019-08-09T07:21:37Z</time>
      </trkpt>
      <trkpt lat="44.13974" lon="5.89913">
        <ele>624</ele>
        <time>2019-08-09T07:21:38Z</time>
      </trkpt>
      <trkpt lat="44.13972" lon="5.89915">
        <ele>624</ele>
        <time>2019-08-09T07:21:39Z</time>
      </trkpt>
      <trkpt lat="44.1397" lon="5.89918">
        <ele>624</ele>
        <time>2019-08-09T07:21:40Z</time>
      </trkpt>
      <trkpt lat="44.13968" lon="5.8992">
        <ele>624</ele>
        <time>2019-08-09T07:21:41Z</time>
      </trkpt>
      <trkpt lat="44.13967" lon="5.89923">
        <ele>624</ele>
        <time>2019-08-09T07:21:42Z</time>
      </trkpt>
      <trkpt lat="44.13965" lon="5.89926">
        <ele>625</ele>
        <time>2019-08-09T07:21:43Z</time>
      </trkpt>
      <trkpt lat="44.13963" lon="5.89929">
        <ele>625</ele>
        <time>2019-08-09T07:21:44Z</time>
      </trkpt>
      <trkpt lat="44.13961" lon="5.89932">
        <ele>625</ele>
        <time>2019-08-09T07:21:45Z</time>
      </trkpt>
      <trkpt lat="44.1396" lon="5.89935">
        <ele>625</ele>
        <time>2019-08-09T07:21:46Z</time>
      </trkpt>
      <trkpt lat="44.13958" lon="5.89938">
        <ele>625</ele>
        <time>2019-08-09T07:21:47Z</time>
      </trkpt>
      <trkpt lat="44.13957" lon="5.89941">
        <ele>625</ele>
        <time>2019-08-09T07:21:48Z</time>
      </trkpt>
      <trkpt lat="44.13956" lon="5.89944">
        <ele>625</ele>
        <time>2019-08-09T07:21:49Z</time>
      </trkpt>
      <trkpt lat="44.13955" lon="5.89947">
        <ele>625</ele>
        <time>2019-08-09T07:21:50Z</time>
      </trkpt>
      <trkpt lat="44.13954" lon="5.8995">
        <ele>625</ele>
        <time>2019-08-09T07:21:51Z</time>
      </trkpt>
      <trkpt lat="44.13952" lon="5.89953">
        <ele>625</ele>
        <time>2019-08-09T07:21:52Z</time>
      </trkpt>
      <trkpt lat="44.13951" lon="5.89956">
        <ele>625</ele>
        <time>2019-08-09T07:21:53Z</time>
      </trkpt>
      <trkpt lat="44.1395" lon="5.89958">
        <ele>625</ele>
        <time>2019-08-09T07:21:54Z</time>
      </trkpt>
      <trkpt lat="44.13948" lon="5.89962">
        <ele>625</ele>
        <time>2019-08-09T07:21:55Z</time>
      </trkpt>
      <trkpt lat="44.13947" lon="5.89965">
        <ele>625</ele>
        <time>2019-08-09T07:21:56Z</time>
      </trkpt>
      <trkpt lat="44.13945" lon="5.89968">
        <ele>625</ele>
        <time>2019-08-09T07:21:57Z</time>
      </trkpt>
      <trkpt lat="44.13944" lon="5.89971">
        <ele>625</ele>
        <time>2019-08-09T07:21:58Z</time>
      </trkpt>
      <trkpt lat="44.13942" lon="5.89974">
        <ele>625</ele>
        <time>2019-08-09T07:21:59Z</time>
      </trkpt>
      <trkpt lat="44.13941" lon="5.89977">
        <ele>625</ele>
        <time>2019-08-09T07:22:00Z</time>
      </trkpt>
      <trkpt lat="44.1394" lon="5.89979">
        <ele>625</ele>
        <time>2019-08-09T07:22:01Z</time>
      </trkpt>
      <trkpt lat="44.13939" lon="5.89981">
        <ele>625</ele>
        <time>2019-08-09T07:22:02Z</time>
      </trkpt>
      <trkpt lat="44.13937" lon="5.89983">
        <ele>625</ele>
        <time>2019-08-09T07:22:03Z</time>
      </trkpt>
      <trkpt lat="44.13935" lon="5.89985">
        <ele>625</ele>
        <time>2019-08-09T07:22:04Z</time>
      </trkpt>
      <trkpt lat="44.13933" lon="5.89987">
        <ele>625</ele>
        <time>2019-08-09T07:22:05Z</time>
      </trkpt>
      <trkpt lat="44.13932" lon="5.89989">
        <ele>625</ele>
        <time>2019-08-09T07:22:06Z</time>
      </trkpt>
      <trkpt lat="44.1393" lon="5.89991">
        <ele>625</ele>
        <time>2019-08-09T07:22:07Z</time>
      </trkpt>
      <trkpt lat="44.13928" lon="5.89993">
        <ele>625</ele>
        <time>2019-08-09T07:22:08Z</time>
      </trkpt>
      <trkpt lat="44.13926" lon="5.89994">
        <ele>625</ele>
        <time>2019-08-09T07:22:09Z</time>
      </trkpt>
      <trkpt lat="44.13923" lon="5.89996">
        <ele>625</ele>
        <time>2019-08-09T07:22:10Z</time>
      </trkpt>
      <trkpt lat="44.13921" lon="5.89997">
        <ele>625</ele>
        <time>2019-08-09T07:22:11Z</time>
      </trkpt>
      <trkpt lat="44.13919" lon="5.89999">
        <ele>625</ele>
        <time>2019-08-09T07:22:12Z</time>
      </trkpt>
      <trkpt lat="44.13917" lon="5.90001">
        <ele>625</ele>
        <time>2019-08-09T07:22:13Z</time>
      </trkpt>
      <trkpt lat="44.13915" lon="5.90003">
        <ele>625</ele>
        <time>2019-08-09T07:22:14Z</time>
      </trkpt>
      <trkpt lat="44.13913" lon="5.90004">
        <ele>626</ele>
        <time>2019-08-09T07:22:15Z</time>
      </trkpt>
      <trkpt lat="44.1391" lon="5.90006">
        <ele>626</ele>
        <time>2019-08-09T07:22:16Z</time>
      </trkpt>
      <trkpt lat="44.13909" lon="5.90008">
        <ele>626</ele>
        <time>2019-08-09T07:22:17Z</time>
      </trkpt>
      <trkpt lat="44.13907" lon="5.9001">
        <ele>626</ele>
        <time>2019-08-09T07:22:18Z</time>
      </trkpt>
      <trkpt lat="44.13905" lon="5.90012">
        <ele>627</ele>
        <time>2019-08-09T07:22:19Z</time>
      </trkpt>
      <trkpt lat="44.13903" lon="5.90014">
        <ele>627</ele>
        <time>2019-08-09T07:22:20Z</time>
      </trkpt>
      <trkpt lat="44.13902" lon="5.90015">
        <ele>628</ele>
        <time>2019-08-09T07:22:21Z</time>
      </trkpt>
      <trkpt lat="44.139" lon="5.90017">
        <ele>628</ele>
        <time>2019-08-09T07:22:22Z</time>
      </trkpt>
      <trkpt lat="44.13899" lon="5.90019">
        <ele>628</ele>
        <time>2019-08-09T07:22:23Z</time>
      </trkpt>
      <trkpt lat="44.13897" lon="5.90021">
        <ele>628</ele>
        <time>2019-08-09T07:22:24Z</time>
      </trkpt>
      <trkpt lat="44.13895" lon="5.90023">
        <ele>629</ele>
        <time>2019-08-09T07:22:25Z</time>
      </trkpt>
      <trkpt lat="44.13893" lon="5.90026">
        <ele>629</ele>
        <time>2019-08-09T07:22:26Z</time>
      </trkpt>
      <trkpt lat="44.13892" lon="5.90028">
        <ele>629</ele>
        <time>2019-08-09T07:22:27Z</time>
      </trkpt>
      <trkpt lat="44.1389" lon="5.90029">
        <ele>630</ele>
        <time>2019-08-09T07:22:28Z</time>
      </trkpt>
      <trkpt lat="44.13889" lon="5.90031">
        <ele>631</ele>
        <time>2019-08-09T07:22:29Z</time>
      </trkpt>
      <trkpt lat="44.13888" lon="5.90034">
        <ele>631</ele>
        <time>2019-08-09T07:22:30Z</time>
      </trkpt>
      <trkpt lat="44.13887" lon="5.90037">
        <ele>631</ele>
        <time>2019-08-09T07:22:31Z</time>
      </trkpt>
      <trkpt lat="44.13885" lon="5.90041">
        <ele>631</ele>
        <time>2019-08-09T07:22:32Z</time>
      </trkpt>
      <trkpt lat="44.13884" lon="5.90044">
        <ele>631</ele>
        <time>2019-08-09T07:22:33Z</time>
      </trkpt>
      <trkpt lat="44.13883" lon="5.90047">
        <ele>631</ele>
        <time>2019-08-09T07:22:34Z</time>
      </trkpt>
      <trkpt lat="44.13882" lon="5.9005">
        <ele>631</ele>
        <time>2019-08-09T07:22:35Z</time>
      </trkpt>
      <trkpt lat="44.13881" lon="5.90053">
        <ele>631</ele>
        <time>2019-08-09T07:22:36Z</time>
      </trkpt>
      <trkpt lat="44.13879" lon="5.90057">
        <ele>631</ele>
        <time>2019-08-09T07:22:37Z</time>
      </trkpt>
      <trkpt lat="44.13878" lon="5.9006">
        <ele>631</ele>
        <time>2019-08-09T07:22:38Z</time>
      </trkpt>
      <trkpt lat="44.13877" lon="5.90063">
        <ele>631</ele>
        <time>2019-08-09T07:22:39Z</time>
      </trkpt>
      <trkpt lat="44.13876" lon="5.90066">
        <ele>631</ele>
        <time>2019-08-09T07:22:40Z</time>
      </trkpt>
      <trkpt lat="44.13876" lon="5.90069">
        <ele>631</ele>
        <time>2019-08-09T07:22:41Z</time>
      </trkpt>
      <trkpt lat="44.13875" lon="5.90071">
        <ele>631</ele>
        <time>2019-08-09T07:22:42Z</time>
      </trkpt>
      <trkpt lat="44.13874" lon="5.90075">
        <ele>631</ele>
        <time>2019-08-09T07:22:43Z</time>
      </trkpt>
      <trkpt lat="44.13873" lon="5.90078">
        <ele>631</ele>
        <time>2019-08-09T07:22:44Z</time>
      </trkpt>
      <trkpt lat="44.13871" lon="5.90082">
        <ele>631</ele>
        <time>2019-08-09T07:22:45Z</time>
      </trkpt>
      <trkpt lat="44.1387" lon="5.90085">
        <ele>632</ele>
        <time>2019-08-09T07:22:46Z</time>
      </trkpt>
      <trkpt lat="44.1387" lon="5.90088">
        <ele>633</ele>
        <time>2019-08-09T07:22:47Z</time>
      </trkpt>
      <trkpt lat="44.13869" lon="5.90092">
        <ele>633</ele>
        <time>2019-08-09T07:22:48Z</time>
      </trkpt>
      <trkpt lat="44.13868" lon="5.90095">
        <ele>634</ele>
        <time>2019-08-09T07:22:49Z</time>
      </trkpt>
      <trkpt lat="44.13868" lon="5.90098">
        <ele>635</ele>
        <time>2019-08-09T07:22:50Z</time>
      </trkpt>
      <trkpt lat="44.13867" lon="5.90101">
        <ele>636</ele>
        <time>2019-08-09T07:22:51Z</time>
      </trkpt>
      <trkpt lat="44.13866" lon="5.90104">
        <ele>636</ele>
        <time>2019-08-09T07:22:52Z</time>
      </trkpt>
      <trkpt lat="44.13866" lon="5.90108">
        <ele>637</ele>
        <time>2019-08-09T07:22:53Z</time>
      </trkpt>
      <trkpt lat="44.13864" lon="5.90111">
        <ele>637</ele>
        <time>2019-08-09T07:22:54Z</time>
      </trkpt>
      <trkpt lat="44.13864" lon="5.90113">
        <ele>638</ele>
        <time>2019-08-09T07:22:55Z</time>
      </trkpt>
      <trkpt lat="44.13863" lon="5.90116">
        <ele>638</ele>
        <time>2019-08-09T07:22:56Z</time>
      </trkpt>
      <trkpt lat="44.13863" lon="5.90119">
        <ele>639</ele>
        <time>2019-08-09T07:22:57Z</time>
      </trkpt>
      <trkpt lat="44.13862" lon="5.90123">
        <ele>639</ele>
        <time>2019-08-09T07:22:58Z</time>
      </trkpt>
      <trkpt lat="44.13861" lon="5.90126">
        <ele>639</ele>
        <time>2019-08-09T07:22:59Z</time>
      </trkpt>
      <trkpt lat="44.1386" lon="5.9013">
        <ele>639</ele>
        <time>2019-08-09T07:23:00Z</time>
      </trkpt>
      <trkpt lat="44.1386" lon="5.90133">
        <ele>640</ele>
        <time>2019-08-09T07:23:01Z</time>
      </trkpt>
      <trkpt lat="44.13858" lon="5.90135">
        <ele>640</ele>
        <time>2019-08-09T07:23:02Z</time>
      </trkpt>
      <trkpt lat="44.13858" lon="5.90138">
        <ele>641</ele>
        <time>2019-08-09T07:23:03Z</time>
      </trkpt>
      <trkpt lat="44.13857" lon="5.90142">
        <ele>641</ele>
        <time>2019-08-09T07:23:04Z</time>
      </trkpt>
      <trkpt lat="44.13856" lon="5.90145">
        <ele>642</ele>
        <time>2019-08-09T07:23:05Z</time>
      </trkpt>
      <trkpt lat="44.13855" lon="5.90148">
        <ele>643</ele>
        <time>2019-08-09T07:23:06Z</time>
      </trkpt>
      <trkpt lat="44.13854" lon="5.90152">
        <ele>643</ele>
        <time>2019-08-09T07:23:07Z</time>
      </trkpt>
      <trkpt lat="44.13853" lon="5.90155">
        <ele>644</ele>
        <time>2019-08-09T07:23:08Z</time>
      </trkpt>
      <trkpt lat="44.13852" lon="5.90157">
        <ele>645</ele>
        <time>2019-08-09T07:23:09Z</time>
      </trkpt>
      <trkpt lat="44.13851" lon="5.9016">
        <ele>646</ele>
        <time>2019-08-09T07:23:10Z</time>
      </trkpt>
      <trkpt lat="44.1385" lon="5.90162">
        <ele>647</ele>
        <time>2019-08-09T07:23:11Z</time>
      </trkpt>
      <trkpt lat="44.13849" lon="5.90165">
        <ele>647</ele>
        <time>2019-08-09T07:23:12Z</time>
      </trkpt>
      <trkpt lat="44.13848" lon="5.90167">
        <ele>648</ele>
        <time>2019-08-09T07:23:13Z</time>
      </trkpt>
      <trkpt lat="44.13847" lon="5.90169">
        <ele>649</ele>
        <time>2019-08-09T07:23:14Z</time>
      </trkpt>
      <trkpt lat="44.13846" lon="5.90172">
        <ele>650</ele>
        <time>2019-08-09T07:23:15Z</time>
      </trkpt>
      <trkpt lat="44.13845" lon="5.90174">
        <ele>650</ele>
        <time>2019-08-09T07:23:16Z</time>
      </trkpt>
      <trkpt lat="44.13844" lon="5.90177">
        <ele>651</ele>
        <time>2019-08-09T07:23:17Z</time>
      </trkpt>
      <trkpt lat="44.13842" lon="5.9018">
        <ele>651</ele>
        <time>2019-08-09T07:23:18Z</time>
      </trkpt>
      <trkpt lat="44.13842" lon="5.90183">
        <ele>652</ele>
        <time>2019-08-09T07:23:19Z</time>
      </trkpt>
      <trkpt lat="44.1384" lon="5.90185">
        <ele>652</ele>
        <time>2019-08-09T07:23:20Z</time>
      </trkpt>
      <trkpt lat="44.13839" lon="5.90188">
        <ele>652</ele>
        <time>2019-08-09T07:23:21Z</time>
      </trkpt>
      <trkpt lat="44.13838" lon="5.90191">
        <ele>653</ele>
        <time>2019-08-09T07:23:22Z</time>
      </trkpt>
      <trkpt lat="44.13837" lon="5.90194">
        <ele>653</ele>
        <time>2019-08-09T07:23:24Z</time>
      </trkpt>
      <trkpt lat="44.13837" lon="5.90196">
        <ele>653</ele>
        <time>2019-08-09T07:23:24Z</time>
      </trkpt>
      <trkpt lat="44.13836" lon="5.90198">
        <ele>653</ele>
        <time>2019-08-09T07:23:25Z</time>
      </trkpt>
      <trkpt lat="44.13836" lon="5.902">
        <ele>653</ele>
        <time>2019-08-09T07:23:26Z</time>
      </trkpt>
      <trkpt lat="44.13835" lon="5.90203">
        <ele>653</ele>
        <time>2019-08-09T07:23:27Z</time>
      </trkpt>
      <trkpt lat="44.13834" lon="5.90205">
        <ele>653</ele>
        <time>2019-08-09T07:23:28Z</time>
      </trkpt>
      <trkpt lat="44.13834" lon="5.90208">
        <ele>653</ele>
        <time>2019-08-09T07:23:29Z</time>
      </trkpt>
      <trkpt lat="44.13832" lon="5.90211">
        <ele>653</ele>
        <time>2019-08-09T07:23:30Z</time>
      </trkpt>
      <trkpt lat="44.13831" lon="5.90214">
        <ele>653</ele>
        <time>2019-08-09T07:23:31Z</time>
      </trkpt>
      <trkpt lat="44.1383" lon="5.90217">
        <ele>653</ele>
        <time>2019-08-09T07:23:32Z</time>
      </trkpt>
      <trkpt lat="44.13829" lon="5.90219">
        <ele>653</ele>
        <time>2019-08-09T07:23:33Z</time>
      </trkpt>
      <trkpt lat="44.13828" lon="5.90223">
        <ele>653</ele>
        <time>2019-08-09T07:23:34Z</time>
      </trkpt>
      <trkpt lat="44.13827" lon="5.90225">
        <ele>653</ele>
        <time>2019-08-09T07:23:35Z</time>
      </trkpt>
      <trkpt lat="44.13826" lon="5.90228">
        <ele>653</ele>
        <time>2019-08-09T07:23:36Z</time>
      </trkpt>
      <trkpt lat="44.13826" lon="5.9023">
        <ele>653</ele>
        <time>2019-08-09T07:23:37Z</time>
      </trkpt>
      <trkpt lat="44.13825" lon="5.90233">
        <ele>653</ele>
        <time>2019-08-09T07:23:38Z</time>
      </trkpt>
      <trkpt lat="44.13824" lon="5.90236">
        <ele>653</ele>
        <time>2019-08-09T07:23:39Z</time>
      </trkpt>
      <trkpt lat="44.13823" lon="5.90238">
        <ele>653</ele>
        <time>2019-08-09T07:23:40Z</time>
      </trkpt>
      <trkpt lat="44.13822" lon="5.90241">
        <ele>653</ele>
        <time>2019-08-09T07:23:41Z</time>
      </trkpt>
      <trkpt lat="44.13821" lon="5.90243">
        <ele>653</ele>
        <time>2019-08-09T07:23:42Z</time>
      </trkpt>
      <trkpt lat="44.13819" lon="5.90246">
        <ele>653</ele>
        <time>2019-08-09T07:23:43Z</time>
      </trkpt>
      <trkpt lat="44.13818" lon="5.90248">
        <ele>654</ele>
        <time>2019-08-09T07:23:44Z</time>
      </trkpt>
      <trkpt lat="44.13817" lon="5.90251">
        <ele>654</ele>
        <time>2019-08-09T07:23:45Z</time>
      </trkpt>
      <trkpt lat="44.13816" lon="5.90253">
        <ele>654</ele>
        <time>2019-08-09T07:23:46Z</time>
      </trkpt>
      <trkpt lat="44.13815" lon="5.90255">
        <ele>654</ele>
        <time>2019-08-09T07:23:47Z</time>
      </trkpt>
      <trkpt lat="44.13814" lon="5.90257">
        <ele>655</ele>
        <time>2019-08-09T07:23:48Z</time>
      </trkpt>
      <trkpt lat="44.13813" lon="5.90259">
        <ele>655</ele>
        <time>2019-08-09T07:23:49Z</time>
      </trkpt>
      <trkpt lat="44.13811" lon="5.90261">
        <ele>655</ele>
        <time>2019-08-09T07:23:50Z</time>
      </trkpt>
      <trkpt lat="44.1381" lon="5.90264">
        <ele>656</ele>
        <time>2019-08-09T07:23:51Z</time>
      </trkpt>
      <trkpt lat="44.13809" lon="5.90267">
        <ele>656</ele>
        <time>2019-08-09T07:23:52Z</time>
      </trkpt>
      <trkpt lat="44.13808" lon="5.90269">
        <ele>656</ele>
        <time>2019-08-09T07:23:53Z</time>
      </trkpt>
      <trkpt lat="44.13806" lon="5.90272">
        <ele>656</ele>
        <time>2019-08-09T07:23:54Z</time>
      </trkpt>
      <trkpt lat="44.13805" lon="5.90275">
        <ele>656</ele>
        <time>2019-08-09T07:23:55Z</time>
      </trkpt>
      <trkpt lat="44.13803" lon="5.90278">
        <ele>656</ele>
        <time>2019-08-09T07:23:56Z</time>
      </trkpt>
      <trkpt lat="44.13802" lon="5.9028">
        <ele>656</ele>
        <time>2019-08-09T07:23:57Z</time>
      </trkpt>
      <trkpt lat="44.13802" lon="5.90283">
        <ele>656</ele>
        <time>2019-08-09T07:23:58Z</time>
      </trkpt>
      <trkpt lat="44.138" lon="5.90286">
        <ele>656</ele>
        <time>2019-08-09T07:23:59Z</time>
      </trkpt>
      <trkpt lat="44.138" lon="5.90289">
        <ele>656</ele>
        <time>2019-08-09T07:24:00Z</time>
      </trkpt>
      <trkpt lat="44.13799" lon="5.90291">
        <ele>656</ele>
        <time>2019-08-09T07:24:01Z</time>
      </trkpt>
      <trkpt lat="44.13798" lon="5.90294">
        <ele>656</ele>
        <time>2019-08-09T07:24:02Z</time>
      </trkpt>
      <trkpt lat="44.13797" lon="5.90297">
        <ele>656</ele>
        <time>2019-08-09T07:24:03Z</time>
      </trkpt>
      <trkpt lat="44.13796" lon="5.90299">
        <ele>656</ele>
        <time>2019-08-09T07:24:04Z</time>
      </trkpt>
      <trkpt lat="44.13795" lon="5.90302">
        <ele>656</ele>
        <time>2019-08-09T07:24:05Z</time>
      </trkpt>
      <trkpt lat="44.13795" lon="5.90305">
        <ele>656</ele>
        <time>2019-08-09T07:24:06Z</time>
      </trkpt>
      <trkpt lat="44.13794" lon="5.90307">
        <ele>656</ele>
        <time>2019-08-09T07:24:07Z</time>
      </trkpt>
      <trkpt lat="44.13794" lon="5.9031">
        <ele>656</ele>
        <time>2019-08-09T07:24:08Z</time>
      </trkpt>
      <trkpt lat="44.13792" lon="5.90313">
        <ele>656</ele>
        <time>2019-08-09T07:24:09Z</time>
      </trkpt>
      <trkpt lat="44.13792" lon="5.90315">
        <ele>656</ele>
        <time>2019-08-09T07:24:10Z</time>
      </trkpt>
      <trkpt lat="44.13791" lon="5.90318">
        <ele>656</ele>
        <time>2019-08-09T07:24:11Z</time>
      </trkpt>
      <trkpt lat="44.1379" lon="5.9032">
        <ele>656</ele>
        <time>2019-08-09T07:24:12Z</time>
      </trkpt>
      <trkpt lat="44.13789" lon="5.90322">
        <ele>656</ele>
        <time>2019-08-09T07:24:13Z</time>
      </trkpt>
      <trkpt lat="44.13789" lon="5.90325">
        <ele>656</ele>
        <time>2019-08-09T07:24:14Z</time>
      </trkpt>
      <trkpt lat="44.13788" lon="5.90328">
        <ele>656</ele>
        <time>2019-08-09T07:24:15Z</time>
      </trkpt>
      <trkpt lat="44.13787" lon="5.90331">
        <ele>656</ele>
        <time>2019-08-09T07:24:16Z</time>
      </trkpt>
      <trkpt lat="44.13786" lon="5.90333">
        <ele>656</ele>
        <time>2019-08-09T07:24:17Z</time>
      </trkpt>
      <trkpt lat="44.13785" lon="5.90336">
        <ele>656</ele>
        <time>2019-08-09T07:24:18Z</time>
      </trkpt>
      <trkpt lat="44.13784" lon="5.90338">
        <ele>657</ele>
        <time>2019-08-09T07:24:19Z</time>
      </trkpt>
      <trkpt lat="44.13782" lon="5.9034">
        <ele>657</ele>
        <time>2019-08-09T07:24:20Z</time>
      </trkpt>
      <trkpt lat="44.13781" lon="5.90342">
        <ele>658</ele>
        <time>2019-08-09T07:24:21Z</time>
      </trkpt>
      <trkpt lat="44.1378" lon="5.90345">
        <ele>658</ele>
        <time>2019-08-09T07:24:22Z</time>
      </trkpt>
      <trkpt lat="44.13779" lon="5.90348">
        <ele>658</ele>
        <time>2019-08-09T07:24:23Z</time>
      </trkpt>
      <trkpt lat="44.13777" lon="5.90351">
        <ele>658</ele>
        <time>2019-08-09T07:24:24Z</time>
      </trkpt>
      <trkpt lat="44.13776" lon="5.90353">
        <ele>658</ele>
        <time>2019-08-09T07:24:25Z</time>
      </trkpt>
      <trkpt lat="44.13774" lon="5.90356">
        <ele>658</ele>
        <time>2019-08-09T07:24:26Z</time>
      </trkpt>
      <trkpt lat="44.13773" lon="5.90358">
        <ele>658</ele>
        <time>2019-08-09T07:24:27Z</time>
      </trkpt>
      <trkpt lat="44.13771" lon="5.9036">
        <ele>658</ele>
        <time>2019-08-09T07:24:28Z</time>
      </trkpt>
      <trkpt lat="44.1377" lon="5.90363">
        <ele>658</ele>
        <time>2019-08-09T07:24:29Z</time>
      </trkpt>
      <trkpt lat="44.13768" lon="5.90365">
        <ele>658</ele>
        <time>2019-08-09T07:24:30Z</time>
      </trkpt>
      <trkpt lat="44.13766" lon="5.90367">
        <ele>658</ele>
        <time>2019-08-09T07:24:31Z</time>
      </trkpt>
      <trkpt lat="44.13765" lon="5.90368">
        <ele>658</ele>
        <time>2019-08-09T07:24:32Z</time>
      </trkpt>
      <trkpt lat="44.13763" lon="5.90369">
        <ele>658</ele>
        <time>2019-08-09T07:24:33Z</time>
      </trkpt>
      <trkpt lat="44.13761" lon="5.9037">
        <ele>658</ele>
        <time>2019-08-09T07:24:34Z</time>
      </trkpt>
      <trkpt lat="44.13759" lon="5.9037">
        <ele>658</ele>
        <time>2019-08-09T07:24:35Z</time>
      </trkpt>
      <trkpt lat="44.13757" lon="5.90371">
        <ele>658</ele>
        <time>2019-08-09T07:24:36Z</time>
      </trkpt>
      <trkpt lat="44.13755" lon="5.90372">
        <ele>658</ele>
        <time>2019-08-09T07:24:37Z</time>
      </trkpt>
      <trkpt lat="44.13752" lon="5.90374">
        <ele>659</ele>
        <time>2019-08-09T07:24:38Z</time>
      </trkpt>
      <trkpt lat="44.1375" lon="5.90374">
        <ele>660</ele>
        <time>2019-08-09T07:24:39Z</time>
      </trkpt>
      <trkpt lat="44.13747" lon="5.90375">
        <ele>661</ele>
        <time>2019-08-09T07:24:40Z</time>
      </trkpt>
      <trkpt lat="44.13744" lon="5.90377">
        <ele>662</ele>
        <time>2019-08-09T07:24:41Z</time>
      </trkpt>
      <trkpt lat="44.13742" lon="5.90377">
        <ele>663</ele>
        <time>2019-08-09T07:24:42Z</time>
      </trkpt>
      <trkpt lat="44.1374" lon="5.90378">
        <ele>664</ele>
        <time>2019-08-09T07:24:43Z</time>
      </trkpt>
      <trkpt lat="44.13738" lon="5.90379">
        <ele>665</ele>
        <time>2019-08-09T07:24:44Z</time>
      </trkpt>
      <trkpt lat="44.13736" lon="5.9038">
        <ele>666</ele>
        <time>2019-08-09T07:24:45Z</time>
      </trkpt>
      <trkpt lat="44.13733" lon="5.9038">
        <ele>667</ele>
        <time>2019-08-09T07:24:46Z</time>
      </trkpt>
      <trkpt lat="44.13731" lon="5.90381">
        <ele>668</ele>
        <time>2019-08-09T07:24:47Z</time>
      </trkpt>
      <trkpt lat="44.13729" lon="5.90382">
        <ele>669</ele>
        <time>2019-08-09T07:24:48Z</time>
      </trkpt>
      <trkpt lat="44.13727" lon="5.90382">
        <ele>670</ele>
        <time>2019-08-09T07:24:49Z</time>
      </trkpt>
      <trkpt lat="44.13724" lon="5.90383">
        <ele>671</ele>
        <time>2019-08-09T07:24:50Z</time>
      </trkpt>
      <trkpt lat="44.13721" lon="5.90385">
        <ele>672</ele>
        <time>2019-08-09T07:24:51Z</time>
      </trkpt>
      <trkpt lat="44.13719" lon="5.90386">
        <ele>673</ele>
        <time>2019-08-09T07:24:52Z</time>
      </trkpt>
      <trkpt lat="44.13717" lon="5.90387">
        <ele>674</ele>
        <time>2019-08-09T07:24:53Z</time>
      </trkpt>
      <trkpt lat="44.13715" lon="5.90387">
        <ele>675</ele>
        <time>2019-08-09T07:24:54Z</time>
      </trkpt>
      <trkpt lat="44.13713" lon="5.90387">
        <ele>676</ele>
        <time>2019-08-09T07:24:55Z</time>
      </trkpt>
      <trkpt lat="44.13711" lon="5.90387">
        <ele>677</ele>
        <time>2019-08-09T07:24:56Z</time>
      </trkpt>
      <trkpt lat="44.13709" lon="5.90388">
        <ele>678</ele>
        <time>2019-08-09T07:24:57Z</time>
      </trkpt>
      <trkpt lat="44.13706" lon="5.90389">
        <ele>679</ele>
        <time>2019-08-09T07:24:58Z</time>
      </trkpt>
      <trkpt lat="44.13704" lon="5.9039">
        <ele>680</ele>
        <time>2019-08-09T07:24:59Z</time>
      </trkpt>
      <trkpt lat="44.13701" lon="5.90391">
        <ele>681</ele>
        <time>2019-08-09T07:25:00Z</time>
      </trkpt>
      <trkpt lat="44.13699" lon="5.90392">
        <ele>681</ele>
        <time>2019-08-09T07:25:01Z</time>
      </trkpt>
      <trkpt lat="44.13696" lon="5.90393">
        <ele>682</ele>
        <time>2019-08-09T07:25:02Z</time>
      </trkpt>
      <trkpt lat="44.13694" lon="5.90393">
        <ele>682</ele>
        <time>2019-08-09T07:25:03Z</time>
      </trkpt>
      <trkpt lat="44.13691" lon="5.90394">
        <ele>683</ele>
        <time>2019-08-09T07:25:04Z</time>
      </trkpt>
      <trkpt lat="44.13689" lon="5.90395">
        <ele>683</ele>
        <time>2019-08-09T07:25:05Z</time>
      </trkpt>
      <trkpt lat="44.13686" lon="5.90397">
        <ele>683</ele>
        <time>2019-08-09T07:25:06Z</time>
      </trkpt>
      <trkpt lat="44.13683" lon="5.90399">
        <ele>683</ele>
        <time>2019-08-09T07:25:07Z</time>
      </trkpt>
      <trkpt lat="44.1368" lon="5.904">
        <ele>683</ele>
        <time>2019-08-09T07:25:08Z</time>
      </trkpt>
      <trkpt lat="44.13677" lon="5.90402">
        <ele>683</ele>
        <time>2019-08-09T07:25:09Z</time>
      </trkpt>
      <trkpt lat="44.13675" lon="5.90403">
        <ele>683</ele>
        <time>2019-08-09T07:25:10Z</time>
      </trkpt>
      <trkpt lat="44.13672" lon="5.90405">
        <ele>683</ele>
        <time>2019-08-09T07:25:11Z</time>
      </trkpt>
      <trkpt lat="44.13669" lon="5.90406">
        <ele>683</ele>
        <time>2019-08-09T07:25:12Z</time>
      </trkpt>
      <trkpt lat="44.13666" lon="5.90407">
        <ele>683</ele>
        <time>2019-08-09T07:25:13Z</time>
      </trkpt>
      <trkpt lat="44.13663" lon="5.90408">
        <ele>683</ele>
        <time>2019-08-09T07:25:14Z</time>
      </trkpt>
      <trkpt lat="44.1366" lon="5.9041">
        <ele>683</ele>
        <time>2019-08-09T07:25:15Z</time>
      </trkpt>
      <trkpt lat="44.13658" lon="5.90411">
        <ele>683</ele>
        <time>2019-08-09T07:25:16Z</time>
      </trkpt>
      <trkpt lat="44.13656" lon="5.90412">
        <ele>683</ele>
        <time>2019-08-09T07:25:17Z</time>
      </trkpt>
      <trkpt lat="44.13653" lon="5.90413">
        <ele>683</ele>
        <time>2019-08-09T07:25:18Z</time>
      </trkpt>
      <trkpt lat="44.1365" lon="5.90413">
        <ele>684</ele>
        <time>2019-08-09T07:25:19Z</time>
      </trkpt>
      <trkpt lat="44.13648" lon="5.90414">
        <ele>684</ele>
        <time>2019-08-09T07:25:20Z</time>
      </trkpt>
      <trkpt lat="44.13645" lon="5.90416">
        <ele>684</ele>
        <time>2019-08-09T07:25:21Z</time>
      </trkpt>
      <trkpt lat="44.13642" lon="5.90418">
        <ele>684</ele>
        <time>2019-08-09T07:25:22Z</time>
      </trkpt>
      <trkpt lat="44.13639" lon="5.9042">
        <ele>685</ele>
        <time>2019-08-09T07:25:23Z</time>
      </trkpt>
      <trkpt lat="44.13636" lon="5.90422">
        <ele>685</ele>
        <time>2019-08-09T07:25:24Z</time>
      </trkpt>
      <trkpt lat="44.13634" lon="5.90424">
        <ele>685</ele>
        <time>2019-08-09T07:25:25Z</time>
      </trkpt>
      <trkpt lat="44.13631" lon="5.90425">
        <ele>685</ele>
        <time>2019-08-09T07:25:26Z</time>
      </trkpt>
      <trkpt lat="44.13628" lon="5.90427">
        <ele>685</ele>
        <time>2019-08-09T07:25:27Z</time>
      </trkpt>
      <trkpt lat="44.13626" lon="5.90429">
        <ele>685</ele>
        <time>2019-08-09T07:25:28Z</time>
      </trkpt>
      <trkpt lat="44.13624" lon="5.90431">
        <ele>685</ele>
        <time>2019-08-09T07:25:29Z</time>
      </trkpt>
      <trkpt lat="44.13621" lon="5.90433">
        <ele>685</ele>
        <time>2019-08-09T07:25:30Z</time>
      </trkpt>
      <trkpt lat="44.13618" lon="5.90435">
        <ele>685</ele>
        <time>2019-08-09T07:25:31Z</time>
      </trkpt>
      <trkpt lat="44.13616" lon="5.90437">
        <ele>685</ele>
        <time>2019-08-09T07:25:32Z</time>
      </trkpt>
      <trkpt lat="44.13613" lon="5.90439">
        <ele>685</ele>
        <time>2019-08-09T07:25:33Z</time>
      </trkpt>
      <trkpt lat="44.1361" lon="5.90442">
        <ele>685</ele>
        <time>2019-08-09T07:25:34Z</time>
      </trkpt>
      <trkpt lat="44.13608" lon="5.90444">
        <ele>685</ele>
        <time>2019-08-09T07:25:35Z</time>
      </trkpt>
      <trkpt lat="44.13605" lon="5.90445">
        <ele>685</ele>
        <time>2019-08-09T07:25:36Z</time>
      </trkpt>
      <trkpt lat="44.13603" lon="5.90446">
        <ele>685</ele>
        <time>2019-08-09T07:25:37Z</time>
      </trkpt>
      <trkpt lat="44.136" lon="5.90447">
        <ele>685</ele>
        <time>2019-08-09T07:25:38Z</time>
      </trkpt>
      <trkpt lat="44.13598" lon="5.90449">
        <ele>684</ele>
        <time>2019-08-09T07:25:39Z</time>
      </trkpt>
      <trkpt lat="44.13595" lon="5.90451">
        <ele>683</ele>
        <time>2019-08-09T07:25:40Z</time>
      </trkpt>
      <trkpt lat="44.13593" lon="5.90452">
        <ele>683</ele>
        <time>2019-08-09T07:25:41Z</time>
      </trkpt>
      <trkpt lat="44.1359" lon="5.90454">
        <ele>682</ele>
        <time>2019-08-09T07:25:42Z</time>
      </trkpt>
      <trkpt lat="44.13588" lon="5.90456">
        <ele>682</ele>
        <time>2019-08-09T07:25:43Z</time>
      </trkpt>
      <trkpt lat="44.13585" lon="5.90458">
        <ele>681</ele>
        <time>2019-08-09T07:25:44Z</time>
      </trkpt>
      <trkpt lat="44.13582" lon="5.9046">
        <ele>680</ele>
        <time>2019-08-09T07:25:45Z</time>
      </trkpt>
      <trkpt lat="44.1358" lon="5.90461">
        <ele>680</ele>
        <time>2019-08-09T07:25:46Z</time>
      </trkpt>
      <trkpt lat="44.13577" lon="5.90463">
        <ele>680</ele>
        <time>2019-08-09T07:25:47Z</time>
      </trkpt>
      <trkpt lat="44.13575" lon="5.90465">
        <ele>680</ele>
        <time>2019-08-09T07:25:48Z</time>
      </trkpt>
      <trkpt lat="44.13573" lon="5.90467">
        <ele>680</ele>
        <time>2019-08-09T07:25:49Z</time>
      </trkpt>
      <trkpt lat="44.1357" lon="5.90469">
        <ele>680</ele>
        <time>2019-08-09T07:25:50Z</time>
      </trkpt>
      <trkpt lat="44.13568" lon="5.90471">
        <ele>680</ele>
        <time>2019-08-09T07:25:51Z</time>
      </trkpt>
      <trkpt lat="44.13566" lon="5.90474">
        <ele>680</ele>
        <time>2019-08-09T07:25:52Z</time>
      </trkpt>
      <trkpt lat="44.13564" lon="5.90477">
        <ele>680</ele>
        <time>2019-08-09T07:25:53Z</time>
      </trkpt>
      <trkpt lat="44.13562" lon="5.90479">
        <ele>680</ele>
        <time>2019-08-09T07:25:54Z</time>
      </trkpt>
      <trkpt lat="44.13559" lon="5.90482">
        <ele>679</ele>
        <time>2019-08-09T07:25:55Z</time>
      </trkpt>
      <trkpt lat="44.13557" lon="5.90484">
        <ele>678</ele>
        <time>2019-08-09T07:25:56Z</time>
      </trkpt>
      <trkpt lat="44.13555" lon="5.90487">
        <ele>678</ele>
        <time>2019-08-09T07:25:57Z</time>
      </trkpt>
      <trkpt lat="44.13552" lon="5.90491">
        <ele>677</ele>
        <time>2019-08-09T07:25:58Z</time>
      </trkpt>
      <trkpt lat="44.13551" lon="5.90495">
        <ele>677</ele>
        <time>2019-08-09T07:25:59Z</time>
      </trkpt>
      <trkpt lat="44.13548" lon="5.90498">
        <ele>676</ele>
        <time>2019-08-09T07:26:00Z</time>
      </trkpt>
      <trkpt lat="44.13546" lon="5.90501">
        <ele>676</ele>
        <time>2019-08-09T07:26:01Z</time>
      </trkpt>
      <trkpt lat="44.13544" lon="5.90505">
        <ele>675</ele>
        <time>2019-08-09T07:26:02Z</time>
      </trkpt>
      <trkpt lat="44.13542" lon="5.90508">
        <ele>675</ele>
        <time>2019-08-09T07:26:03Z</time>
      </trkpt>
      <trkpt lat="44.1354" lon="5.90512">
        <ele>675</ele>
        <time>2019-08-09T07:26:04Z</time>
      </trkpt>
      <trkpt lat="44.13539" lon="5.90517">
        <ele>675</ele>
        <time>2019-08-09T07:26:05Z</time>
      </trkpt>
      <trkpt lat="44.13538" lon="5.90521">
        <ele>675</ele>
        <time>2019-08-09T07:26:06Z</time>
      </trkpt>
      <trkpt lat="44.13537" lon="5.90525">
        <ele>675</ele>
        <time>2019-08-09T07:26:07Z</time>
      </trkpt>
      <trkpt lat="44.13535" lon="5.9053">
        <ele>675</ele>
        <time>2019-08-09T07:26:08Z</time>
      </trkpt>
      <trkpt lat="44.13534" lon="5.90534">
        <ele>675</ele>
        <time>2019-08-09T07:26:09Z</time>
      </trkpt>
      <trkpt lat="44.13533" lon="5.90539">
        <ele>675</ele>
        <time>2019-08-09T07:26:10Z</time>
      </trkpt>
      <trkpt lat="44.13531" lon="5.90543">
        <ele>675</ele>
        <time>2019-08-09T07:26:11Z</time>
      </trkpt>
      <trkpt lat="44.13531" lon="5.90548">
        <ele>675</ele>
        <time>2019-08-09T07:26:12Z</time>
      </trkpt>
      <trkpt lat="44.1353" lon="5.90552">
        <ele>675</ele>
        <time>2019-08-09T07:26:13Z</time>
      </trkpt>
      <trkpt lat="44.1353" lon="5.90557">
        <ele>675</ele>
        <time>2019-08-09T07:26:14Z</time>
      </trkpt>
      <trkpt lat="44.13529" lon="5.90561">
        <ele>675</ele>
        <time>2019-08-09T07:26:15Z</time>
      </trkpt>
      <trkpt lat="44.13528" lon="5.90565">
        <ele>675</ele>
        <time>2019-08-09T07:26:16Z</time>
      </trkpt>
      <trkpt lat="44.13527" lon="5.90569">
        <ele>675</ele>
        <time>2019-08-09T07:26:17Z</time>
      </trkpt>
      <trkpt lat="44.13525" lon="5.90573">
        <ele>675</ele>
        <time>2019-08-09T07:26:18Z</time>
      </trkpt>
      <trkpt lat="44.13523" lon="5.90577">
        <ele>675</ele>
        <time>2019-08-09T07:26:19Z</time>
      </trkpt>
      <trkpt lat="44.13521" lon="5.90579">
        <ele>675</ele>
        <time>2019-08-09T07:26:20Z</time>
      </trkpt>
      <trkpt lat="44.13518" lon="5.90582">
        <ele>675</ele>
        <time>2019-08-09T07:26:21Z</time>
      </trkpt>
      <trkpt lat="44.13515" lon="5.90584">
        <ele>675</ele>
        <time>2019-08-09T07:26:22Z</time>
      </trkpt>
      <trkpt lat="44.13512" lon="5.90586">
        <ele>676</ele>
        <time>2019-08-09T07:26:23Z</time>
      </trkpt>
      <trkpt lat="44.13508" lon="5.90587">
        <ele>677</ele>
        <time>2019-08-09T07:26:24Z</time>
      </trkpt>
      <trkpt lat="44.13505" lon="5.90588">
        <ele>678</ele>
        <time>2019-08-09T07:26:25Z</time>
      </trkpt>
      <trkpt lat="44.13501" lon="5.9059">
        <ele>679</ele>
        <time>2019-08-09T07:26:26Z</time>
      </trkpt>
      <trkpt lat="44.13498" lon="5.90592">
        <ele>680</ele>
        <time>2019-08-09T07:26:27Z</time>
      </trkpt>
      <trkpt lat="44.13494" lon="5.90593">
        <ele>680</ele>
        <time>2019-08-09T07:26:28Z</time>
      </trkpt>
      <trkpt lat="44.1349" lon="5.90595">
        <ele>681</ele>
        <time>2019-08-09T07:26:29Z</time>
      </trkpt>
      <trkpt lat="44.13487" lon="5.90597">
        <ele>681</ele>
        <time>2019-08-09T07:26:30Z</time>
      </trkpt>
      <trkpt lat="44.13483" lon="5.90598">
        <ele>682</ele>
        <time>2019-08-09T07:26:31Z</time>
      </trkpt>
      <trkpt lat="44.13478" lon="5.906">
        <ele>682</ele>
        <time>2019-08-09T07:26:32Z</time>
      </trkpt>
      <trkpt lat="44.13474" lon="5.90601">
        <ele>682</ele>
        <time>2019-08-09T07:26:33Z</time>
      </trkpt>
      <trkpt lat="44.1347" lon="5.90602">
        <ele>683</ele>
        <time>2019-08-09T07:26:34Z</time>
      </trkpt>
      <trkpt lat="44.13466" lon="5.90602">
        <ele>684</ele>
        <time>2019-08-09T07:26:35Z</time>
      </trkpt>
      <trkpt lat="44.13462" lon="5.90601">
        <ele>684</ele>
        <time>2019-08-09T07:26:36Z</time>
      </trkpt>
      <trkpt lat="44.13459" lon="5.90601">
        <ele>685</ele>
        <time>2019-08-09T07:26:37Z</time>
      </trkpt>
      <trkpt lat="44.13455" lon="5.906">
        <ele>685</ele>
        <time>2019-08-09T07:26:38Z</time>
      </trkpt>
      <trkpt lat="44.13451" lon="5.90599">
        <ele>686</ele>
        <time>2019-08-09T07:26:39Z</time>
      </trkpt>
      <trkpt lat="44.13447" lon="5.90598">
        <ele>686</ele>
        <time>2019-08-09T07:26:40Z</time>
      </trkpt>
      <trkpt lat="44.13444" lon="5.90597">
        <ele>687</ele>
        <time>2019-08-09T07:26:41Z</time>
      </trkpt>
      <trkpt lat="44.13441" lon="5.90595">
        <ele>688</ele>
        <time>2019-08-09T07:26:42Z</time>
      </trkpt>
      <trkpt lat="44.13438" lon="5.90593">
        <ele>688</ele>
        <time>2019-08-09T07:26:43Z</time>
      </trkpt>
      <trkpt lat="44.13435" lon="5.90592">
        <ele>689</ele>
        <time>2019-08-09T07:26:44Z</time>
      </trkpt>
      <trkpt lat="44.13433" lon="5.90592">
        <ele>690</ele>
        <time>2019-08-09T07:26:45Z</time>
      </trkpt>
      <trkpt lat="44.1343" lon="5.9059">
        <ele>690</ele>
        <time>2019-08-09T07:26:46Z</time>
      </trkpt>
      <trkpt lat="44.13427" lon="5.9059">
        <ele>691</ele>
        <time>2019-08-09T07:26:47Z</time>
      </trkpt>
      <trkpt lat="44.13424" lon="5.90589">
        <ele>692</ele>
        <time>2019-08-09T07:26:48Z</time>
      </trkpt>
      <trkpt lat="44.13421" lon="5.90588">
        <ele>692</ele>
        <time>2019-08-09T07:26:49Z</time>
      </trkpt>
      <trkpt lat="44.13419" lon="5.90587">
        <ele>693</ele>
        <time>2019-08-09T07:26:50Z</time>
      </trkpt>
      <trkpt lat="44.13416" lon="5.90587">
        <ele>694</ele>
        <time>2019-08-09T07:26:51Z</time>
      </trkpt>
      <trkpt lat="44.13413" lon="5.90586">
        <ele>694</ele>
        <time>2019-08-09T07:26:52Z</time>
      </trkpt>
      <trkpt lat="44.1341" lon="5.90586">
        <ele>695</ele>
        <time>2019-08-09T07:26:53Z</time>
      </trkpt>
      <trkpt lat="44.13407" lon="5.90585">
        <ele>695</ele>
        <time>2019-08-09T07:26:54Z</time>
      </trkpt>
      <trkpt lat="44.13404" lon="5.90585">
        <ele>696</ele>
        <time>2019-08-09T07:26:55Z</time>
      </trkpt>
      <trkpt lat="44.13401" lon="5.90585">
        <ele>696</ele>
        <time>2019-08-09T07:26:56Z</time>
      </trkpt>
      <trkpt lat="44.13398" lon="5.90584">
        <ele>697</ele>
        <time>2019-08-09T07:26:57Z</time>
      </trkpt>
      <trkpt lat="44.13395" lon="5.90584">
        <ele>697</ele>
        <time>2019-08-09T07:26:58Z</time>
      </trkpt>
      <trkpt lat="44.13391" lon="5.90583">
        <ele>698</ele>
        <time>2019-08-09T07:26:59Z</time>
      </trkpt>
      <trkpt lat="44.13388" lon="5.90583">
        <ele>699</ele>
        <time>2019-08-09T07:27:00Z</time>
      </trkpt>
      <trkpt lat="44.13384" lon="5.90583">
        <ele>699</ele>
        <time>2019-08-09T07:27:01Z</time>
      </trkpt>
      <trkpt lat="44.13381" lon="5.90583">
        <ele>700</ele>
        <time>2019-08-09T07:27:02Z</time>
      </trkpt>
      <trkpt lat="44.13378" lon="5.90583">
        <ele>701</ele>
        <time>2019-08-09T07:27:03Z</time>
      </trkpt>
      <trkpt lat="44.13374" lon="5.90583">
        <ele>701</ele>
        <time>2019-08-09T07:27:04Z</time>
      </trkpt>
      <trkpt lat="44.13371" lon="5.90583">
        <ele>702</ele>
        <time>2019-08-09T07:27:05Z</time>
      </trkpt>
      <trkpt lat="44.13368" lon="5.90583">
        <ele>703</ele>
        <time>2019-08-09T07:27:06Z</time>
      </trkpt>
      <trkpt lat="44.13365" lon="5.90583">
        <ele>703</ele>
        <time>2019-08-09T07:27:07Z</time>
      </trkpt>
      <trkpt lat="44.13362" lon="5.90582">
        <ele>704</ele>
        <time>2019-08-09T07:27:08Z</time>
      </trkpt>
      <trkpt lat="44.13359" lon="5.90582">
        <ele>704</ele>
        <time>2019-08-09T07:27:09Z</time>
      </trkpt>
      <trkpt lat="44.13356" lon="5.90581">
        <ele>704</ele>
        <time>2019-08-09T07:27:10Z</time>
      </trkpt>
      <trkpt lat="44.13353" lon="5.90581">
        <ele>704</ele>
        <time>2019-08-09T07:27:11Z</time>
      </trkpt>
      <trkpt lat="44.1335" lon="5.9058">
        <ele>704</ele>
        <time>2019-08-09T07:27:12Z</time>
      </trkpt>
      <trkpt lat="44.13347" lon="5.9058">
        <ele>704</ele>
        <time>2019-08-09T07:27:13Z</time>
      </trkpt>
      <trkpt lat="44.13344" lon="5.9058">
        <ele>704</ele>
        <time>2019-08-09T07:27:14Z</time>
      </trkpt>
      <trkpt lat="44.13341" lon="5.9058">
        <ele>704</ele>
        <time>2019-08-09T07:27:15Z</time>
      </trkpt>
      <trkpt lat="44.13339" lon="5.90579">
        <ele>704</ele>
        <time>2019-08-09T07:27:16Z</time>
      </trkpt>
      <trkpt lat="44.13336" lon="5.90579">
        <ele>705</ele>
        <time>2019-08-09T07:27:17Z</time>
      </trkpt>
      <trkpt lat="44.13333" lon="5.90578">
        <ele>705</ele>
        <time>2019-08-09T07:27:18Z</time>
      </trkpt>
      <trkpt lat="44.1333" lon="5.90578">
        <ele>705</ele>
        <time>2019-08-09T07:27:19Z</time>
      </trkpt>
      <trkpt lat="44.13328" lon="5.90578">
        <ele>705</ele>
        <time>2019-08-09T07:27:20Z</time>
      </trkpt>
      <trkpt lat="44.13326" lon="5.90577">
        <ele>705</ele>
        <time>2019-08-09T07:27:21Z</time>
      </trkpt>
      <trkpt lat="44.13323" lon="5.90577">
        <ele>705</ele>
        <time>2019-08-09T07:27:22Z</time>
      </trkpt>
      <trkpt lat="44.13321" lon="5.90577">
        <ele>705</ele>
        <time>2019-08-09T07:27:23Z</time>
      </trkpt>
      <trkpt lat="44.13318" lon="5.90576">
        <ele>705</ele>
        <time>2019-08-09T07:27:24Z</time>
      </trkpt>
      <trkpt lat="44.13316" lon="5.90576">
        <ele>705</ele>
        <time>2019-08-09T07:27:25Z</time>
      </trkpt>
      <trkpt lat="44.13313" lon="5.90576">
        <ele>706</ele>
        <time>2019-08-09T07:27:26Z</time>
      </trkpt>
      <trkpt lat="44.13311" lon="5.90576">
        <ele>706</ele>
        <time>2019-08-09T07:27:27Z</time>
      </trkpt>
      <trkpt lat="44.13309" lon="5.90576">
        <ele>706</ele>
        <time>2019-08-09T07:27:28Z</time>
      </trkpt>
      <trkpt lat="44.13306" lon="5.90576">
        <ele>706</ele>
        <time>2019-08-09T07:27:29Z</time>
      </trkpt>
      <trkpt lat="44.13304" lon="5.90577">
        <ele>707</ele>
        <time>2019-08-09T07:27:30Z</time>
      </trkpt>
      <trkpt lat="44.13301" lon="5.90577">
        <ele>707</ele>
        <time>2019-08-09T07:27:31Z</time>
      </trkpt>
      <trkpt lat="44.13299" lon="5.90578">
        <ele>708</ele>
        <time>2019-08-09T07:27:32Z</time>
      </trkpt>
      <trkpt lat="44.13297" lon="5.90579">
        <ele>708</ele>
        <time>2019-08-09T07:27:33Z</time>
      </trkpt>
      <trkpt lat="44.13295" lon="5.9058">
        <ele>709</ele>
        <time>2019-08-09T07:27:34Z</time>
      </trkpt>
      <trkpt lat="44.13293" lon="5.9058">
        <ele>709</ele>
        <time>2019-08-09T07:27:35Z</time>
      </trkpt>
      <trkpt lat="44.1329" lon="5.90581">
        <ele>709</ele>
        <time>2019-08-09T07:27:36Z</time>
      </trkpt>
      <trkpt lat="44.13289" lon="5.90582">
        <ele>709</ele>
        <time>2019-08-09T07:27:37Z</time>
      </trkpt>
      <trkpt lat="44.13287" lon="5.90583">
        <ele>709</ele>
        <time>2019-08-09T07:27:38Z</time>
      </trkpt>
      <trkpt lat="44.13285" lon="5.90584">
        <ele>709</ele>
        <time>2019-08-09T07:27:39Z</time>
      </trkpt>
      <trkpt lat="44.13284" lon="5.90585">
        <ele>709</ele>
        <time>2019-08-09T07:27:40Z</time>
      </trkpt>
      <trkpt lat="44.13282" lon="5.90586">
        <ele>709</ele>
        <time>2019-08-09T07:27:41Z</time>
      </trkpt>
      <trkpt lat="44.1328" lon="5.90587">
        <ele>709</ele>
        <time>2019-08-09T07:27:42Z</time>
      </trkpt>
      <trkpt lat="44.13279" lon="5.90588">
        <ele>709</ele>
        <time>2019-08-09T07:27:43Z</time>
      </trkpt>
      <trkpt lat="44.13277" lon="5.90589">
        <ele>709</ele>
        <time>2019-08-09T07:27:44Z</time>
      </trkpt>
      <trkpt lat="44.13276" lon="5.9059">
        <ele>709</ele>
        <time>2019-08-09T07:27:45Z</time>
      </trkpt>
      <trkpt lat="44.13274" lon="5.90591">
        <ele>709</ele>
        <time>2019-08-09T07:27:46Z</time>
      </trkpt>
      <trkpt lat="44.13272" lon="5.90592">
        <ele>709</ele>
        <time>2019-08-09T07:27:47Z</time>
      </trkpt>
      <trkpt lat="44.1327" lon="5.90593">
        <ele>709</ele>
        <time>2019-08-09T07:27:48Z</time>
      </trkpt>
      <trkpt lat="44.13269" lon="5.90595">
        <ele>709</ele>
        <time>2019-08-09T07:27:49Z</time>
      </trkpt>
      <trkpt lat="44.13267" lon="5.90596">
        <ele>709</ele>
        <time>2019-08-09T07:27:50Z</time>
      </trkpt>
      <trkpt lat="44.13265" lon="5.90597">
        <ele>709</ele>
        <time>2019-08-09T07:27:51Z</time>
      </trkpt>
      <trkpt lat="44.13263" lon="5.90599">
        <ele>709</ele>
        <time>2019-08-09T07:27:52Z</time>
      </trkpt>
      <trkpt lat="44.13262" lon="5.906">
        <ele>709</ele>
        <time>2019-08-09T07:27:53Z</time>
      </trkpt>
      <trkpt lat="44.1326" lon="5.90601">
        <ele>709</ele>
        <time>2019-08-09T07:27:54Z</time>
      </trkpt>
      <trkpt lat="44.13258" lon="5.90602">
        <ele>709</ele>
        <time>2019-08-09T07:27:55Z</time>
      </trkpt>
      <trkpt lat="44.13256" lon="5.90603">
        <ele>709</ele>
        <time>2019-08-09T07:27:56Z</time>
      </trkpt>
      <trkpt lat="44.13255" lon="5.90604">
        <ele>709</ele>
        <time>2019-08-09T07:27:57Z</time>
      </trkpt>
      <trkpt lat="44.13253" lon="5.90606">
        <ele>710</ele>
        <time>2019-08-09T07:27:58Z</time>
      </trkpt>
      <trkpt lat="44.13251" lon="5.90607">
        <ele>710</ele>
        <time>2019-08-09T07:27:59Z</time>
      </trkpt>
      <trkpt lat="44.1325" lon="5.90607">
        <ele>710</ele>
        <time>2019-08-09T07:28:00Z</time>
      </trkpt>
      <trkpt lat="44.13248" lon="5.90608">
        <ele>710</ele>
        <time>2019-08-09T07:28:01Z</time>
      </trkpt>
      <trkpt lat="44.13245" lon="5.90608">
        <ele>710</ele>
        <time>2019-08-09T07:28:02Z</time>
      </trkpt>
      <trkpt lat="44.13243" lon="5.90609">
        <ele>710</ele>
        <time>2019-08-09T07:28:03Z</time>
      </trkpt>
      <trkpt lat="44.13242" lon="5.9061">
        <ele>710</ele>
        <time>2019-08-09T07:28:04Z</time>
      </trkpt>
      <trkpt lat="44.1324" lon="5.9061">
        <ele>710</ele>
        <time>2019-08-09T07:28:05Z</time>
      </trkpt>
      <trkpt lat="44.13237" lon="5.90611">
        <ele>710</ele>
        <time>2019-08-09T07:28:06Z</time>
      </trkpt>
      <trkpt lat="44.13235" lon="5.90611">
        <ele>710</ele>
        <time>2019-08-09T07:28:07Z</time>
      </trkpt>
      <trkpt lat="44.13233" lon="5.90611">
        <ele>710</ele>
        <time>2019-08-09T07:28:08Z</time>
      </trkpt>
      <trkpt lat="44.13231" lon="5.90611">
        <ele>711</ele>
        <time>2019-08-09T07:28:09Z</time>
      </trkpt>
      <trkpt lat="44.13229" lon="5.90612">
        <ele>711</ele>
        <time>2019-08-09T07:28:10Z</time>
      </trkpt>
      <trkpt lat="44.13227" lon="5.90612">
        <ele>711</ele>
        <time>2019-08-09T07:28:11Z</time>
      </trkpt>
      <trkpt lat="44.13224" lon="5.90613">
        <ele>712</ele>
        <time>2019-08-09T07:28:12Z</time>
      </trkpt>
      <trkpt lat="44.13222" lon="5.90613">
        <ele>712</ele>
        <time>2019-08-09T07:28:13Z</time>
      </trkpt>
      <trkpt lat="44.1322" lon="5.90613">
        <ele>712</ele>
        <time>2019-08-09T07:28:14Z</time>
      </trkpt>
      <trkpt lat="44.13218" lon="5.90613">
        <ele>713</ele>
        <time>2019-08-09T07:28:15Z</time>
      </trkpt>
      <trkpt lat="44.13216" lon="5.90613">
        <ele>713</ele>
        <time>2019-08-09T07:28:16Z</time>
      </trkpt>
      <trkpt lat="44.13214" lon="5.90613">
        <ele>713</ele>
        <time>2019-08-09T07:28:17Z</time>
      </trkpt>
      <trkpt lat="44.13212" lon="5.90613">
        <ele>713</ele>
        <time>2019-08-09T07:28:18Z</time>
      </trkpt>
      <trkpt lat="44.1321" lon="5.90614">
        <ele>713</ele>
        <time>2019-08-09T07:28:19Z</time>
      </trkpt>
      <trkpt lat="44.13208" lon="5.90614">
        <ele>714</ele>
        <time>2019-08-09T07:28:20Z</time>
      </trkpt>
      <trkpt lat="44.13205" lon="5.90614">
        <ele>714</ele>
        <time>2019-08-09T07:28:21Z</time>
      </trkpt>
      <trkpt lat="44.13203" lon="5.90614">
        <ele>715</ele>
        <time>2019-08-09T07:28:22Z</time>
      </trkpt>
      <trkpt lat="44.13201" lon="5.90614">
        <ele>715</ele>
        <time>2019-08-09T07:28:23Z</time>
      </trkpt>
      <trkpt lat="44.13199" lon="5.90615">
        <ele>716</ele>
        <time>2019-08-09T07:28:24Z</time>
      </trkpt>
      <trkpt lat="44.13197" lon="5.90615">
        <ele>716</ele>
        <time>2019-08-09T07:28:25Z</time>
      </trkpt>
      <trkpt lat="44.13195" lon="5.90615">
        <ele>716</ele>
        <time>2019-08-09T07:28:26Z</time>
      </trkpt>
      <trkpt lat="44.13193" lon="5.90615">
        <ele>717</ele>
        <time>2019-08-09T07:28:27Z</time>
      </trkpt>
      <trkpt lat="44.13191" lon="5.90615">
        <ele>717</ele>
        <time>2019-08-09T07:28:28Z</time>
      </trkpt>
      <trkpt lat="44.13189" lon="5.90616">
        <ele>717</ele>
        <time>2019-08-09T07:28:29Z</time>
      </trkpt>
      <trkpt lat="44.13187" lon="5.90616">
        <ele>718</ele>
        <time>2019-08-09T07:28:30Z</time>
      </trkpt>
      <trkpt lat="44.13184" lon="5.90616">
        <ele>718</ele>
        <time>2019-08-09T07:28:31Z</time>
      </trkpt>
      <trkpt lat="44.13182" lon="5.90616">
        <ele>719</ele>
        <time>2019-08-09T07:28:32Z</time>
      </trkpt>
      <trkpt lat="44.1318" lon="5.90616">
        <ele>720</ele>
        <time>2019-08-09T07:28:33Z</time>
      </trkpt>
      <trkpt lat="44.13177" lon="5.90616">
        <ele>720</ele>
        <time>2019-08-09T07:28:34Z</time>
      </trkpt>
      <trkpt lat="44.13175" lon="5.90617">
        <ele>721</ele>
        <time>2019-08-09T07:28:35Z</time>
      </trkpt>
      <trkpt lat="44.13173" lon="5.90617">
        <ele>721</ele>
        <time>2019-08-09T07:28:36Z</time>
      </trkpt>
      <trkpt lat="44.1317" lon="5.90618">
        <ele>722</ele>
        <time>2019-08-09T07:28:37Z</time>
      </trkpt>
      <trkpt lat="44.13168" lon="5.90618">
        <ele>722</ele>
        <time>2019-08-09T07:28:38Z</time>
      </trkpt>
      <trkpt lat="44.13166" lon="5.90618">
        <ele>723</ele>
        <time>2019-08-09T07:28:39Z</time>
      </trkpt>
      <trkpt lat="44.13164" lon="5.90618">
        <ele>723</ele>
        <time>2019-08-09T07:28:40Z</time>
      </trkpt>
      <trkpt lat="44.13161" lon="5.90618">
        <ele>723</ele>
        <time>2019-08-09T07:28:41Z</time>
      </trkpt>
      <trkpt lat="44.13159" lon="5.90618">
        <ele>724</ele>
        <time>2019-08-09T07:28:42Z</time>
      </trkpt>
      <trkpt lat="44.13157" lon="5.90619">
        <ele>724</ele>
        <time>2019-08-09T07:28:43Z</time>
      </trkpt>
      <trkpt lat="44.13155" lon="5.90619">
        <ele>724</ele>
        <time>2019-08-09T07:28:44Z</time>
      </trkpt>
      <trkpt lat="44.13153" lon="5.90619">
        <ele>724</ele>
        <time>2019-08-09T07:28:45Z</time>
      </trkpt>
      <trkpt lat="44.13151" lon="5.90619">
        <ele>725</ele>
        <time>2019-08-09T07:28:46Z</time>
      </trkpt>
      <trkpt lat="44.13149" lon="5.90619">
        <ele>725</ele>
        <time>2019-08-09T07:28:47Z</time>
      </trkpt>
      <trkpt lat="44.13147" lon="5.9062">
        <ele>725</ele>
        <time>2019-08-09T07:28:48Z</time>
      </trkpt>
      <trkpt lat="44.13145" lon="5.9062">
        <ele>725</ele>
        <time>2019-08-09T07:28:49Z</time>
      </trkpt>
      <trkpt lat="44.13143" lon="5.9062">
        <ele>726</ele>
        <time>2019-08-09T07:28:50Z</time>
      </trkpt>
      <trkpt lat="44.13141" lon="5.90621">
        <ele>726</ele>
        <time>2019-08-09T07:28:51Z</time>
      </trkpt>
      <trkpt lat="44.13139" lon="5.90621">
        <ele>726</ele>
        <time>2019-08-09T07:28:52Z</time>
      </trkpt>
      <trkpt lat="44.13137" lon="5.90621">
        <ele>727</ele>
        <time>2019-08-09T07:28:53Z</time>
      </trkpt>
      <trkpt lat="44.13135" lon="5.90621">
        <ele>727</ele>
        <time>2019-08-09T07:28:54Z</time>
      </trkpt>
      <trkpt lat="44.13133" lon="5.90621">
        <ele>727</ele>
        <time>2019-08-09T07:28:55Z</time>
      </trkpt>
      <trkpt lat="44.13131" lon="5.90621">
        <ele>727</ele>
        <time>2019-08-09T07:28:56Z</time>
      </trkpt>
      <trkpt lat="44.13129" lon="5.90621">
        <ele>727</ele>
        <time>2019-08-09T07:28:57Z</time>
      </trkpt>
      <trkpt lat="44.13127" lon="5.90621">
        <ele>727</ele>
        <time>2019-08-09T07:28:58Z</time>
      </trkpt>
      <trkpt lat="44.13125" lon="5.90622">
        <ele>727</ele>
        <time>2019-08-09T07:28:59Z</time>
      </trkpt>
      <trkpt lat="44.13123" lon="5.90623">
        <ele>727</ele>
        <time>2019-08-09T07:29:00Z</time>
      </trkpt>
      <trkpt lat="44.13121" lon="5.90623">
        <ele>727</ele>
        <time>2019-08-09T07:29:01Z</time>
      </trkpt>
      <trkpt lat="44.13119" lon="5.90623">
        <ele>727</ele>
        <time>2019-08-09T07:29:02Z</time>
      </trkpt>
      <trkpt lat="44.13117" lon="5.90624">
        <ele>727</ele>
        <time>2019-08-09T07:29:03Z</time>
      </trkpt>
      <trkpt lat="44.13115" lon="5.90624">
        <ele>727</ele>
        <time>2019-08-09T07:29:04Z</time>
      </trkpt>
      <trkpt lat="44.13113" lon="5.90624">
        <ele>727</ele>
        <time>2019-08-09T07:29:05Z</time>
      </trkpt>
      <trkpt lat="44.13111" lon="5.90624">
        <ele>727</ele>
        <time>2019-08-09T07:29:06Z</time>
      </trkpt>
      <trkpt lat="44.13109" lon="5.90625">
        <ele>727</ele>
        <time>2019-08-09T07:29:07Z</time>
      </trkpt>
      <trkpt lat="44.13107" lon="5.90626">
        <ele>727</ele>
        <time>2019-08-09T07:29:08Z</time>
      </trkpt>
      <trkpt lat="44.13105" lon="5.90626">
        <ele>727</ele>
        <time>2019-08-09T07:29:09Z</time>
      </trkpt>
      <trkpt lat="44.13102" lon="5.90627">
        <ele>727</ele>
        <time>2019-08-09T07:29:10Z</time>
      </trkpt>
      <trkpt lat="44.131" lon="5.90627">
        <ele>727</ele>
        <time>2019-08-09T07:29:11Z</time>
      </trkpt>
      <trkpt lat="44.13098" lon="5.90627">
        <ele>728</ele>
        <time>2019-08-09T07:29:12Z</time>
      </trkpt>
      <trkpt lat="44.13096" lon="5.90628">
        <ele>728</ele>
        <time>2019-08-09T07:29:13Z</time>
      </trkpt>
      <trkpt lat="44.13094" lon="5.90628">
        <ele>728</ele>
        <time>2019-08-09T07:29:14Z</time>
      </trkpt>
      <trkpt lat="44.13091" lon="5.90629">
        <ele>728</ele>
        <time>2019-08-09T07:29:15Z</time>
      </trkpt>
      <trkpt lat="44.13089" lon="5.9063">
        <ele>729</ele>
        <time>2019-08-09T07:29:16Z</time>
      </trkpt>
      <trkpt lat="44.13087" lon="5.9063">
        <ele>730</ele>
        <time>2019-08-09T07:29:17Z</time>
      </trkpt>
      <trkpt lat="44.13085" lon="5.9063">
        <ele>730</ele>
        <time>2019-08-09T07:29:18Z</time>
      </trkpt>
      <trkpt lat="44.13082" lon="5.90631">
        <ele>730</ele>
        <time>2019-08-09T07:29:19Z</time>
      </trkpt>
      <trkpt lat="44.13079" lon="5.90631">
        <ele>731</ele>
        <time>2019-08-09T07:29:20Z</time>
      </trkpt>
      <trkpt lat="44.13077" lon="5.90631">
        <ele>731</ele>
        <time>2019-08-09T07:29:21Z</time>
      </trkpt>
      <trkpt lat="44.13074" lon="5.90631">
        <ele>731</ele>
        <time>2019-08-09T07:29:22Z</time>
      </trkpt>
      <trkpt lat="44.13072" lon="5.90632">
        <ele>731</ele>
        <time>2019-08-09T07:29:23Z</time>
      </trkpt>
      <trkpt lat="44.13069" lon="5.90632">
        <ele>731</ele>
        <time>2019-08-09T07:29:24Z</time>
      </trkpt>
      <trkpt lat="44.13066" lon="5.90632">
        <ele>731</ele>
        <time>2019-08-09T07:29:25Z</time>
      </trkpt>
      <trkpt lat="44.13063" lon="5.90633">
        <ele>731</ele>
        <time>2019-08-09T07:29:26Z</time>
      </trkpt>
      <trkpt lat="44.1306" lon="5.90632">
        <ele>731</ele>
        <time>2019-08-09T07:29:27Z</time>
      </trkpt>
      <trkpt lat="44.13057" lon="5.90632">
        <ele>732</ele>
        <time>2019-08-09T07:29:28Z</time>
      </trkpt>
      <trkpt lat="44.13055" lon="5.90631">
        <ele>732</ele>
        <time>2019-08-09T07:29:29Z</time>
      </trkpt>
      <trkpt lat="44.13052" lon="5.90631">
        <ele>732</ele>
        <time>2019-08-09T07:29:30Z</time>
      </trkpt>
      <trkpt lat="44.13049" lon="5.90629">
        <ele>732</ele>
        <time>2019-08-09T07:29:31Z</time>
      </trkpt>
      <trkpt lat="44.13046" lon="5.90628">
        <ele>732</ele>
        <time>2019-08-09T07:29:32Z</time>
      </trkpt>
      <trkpt lat="44.13044" lon="5.90627">
        <ele>732</ele>
        <time>2019-08-09T07:29:33Z</time>
      </trkpt>
      <trkpt lat="44.13041" lon="5.90625">
        <ele>732</ele>
        <time>2019-08-09T07:29:34Z</time>
      </trkpt>
      <trkpt lat="44.13039" lon="5.90623">
        <ele>732</ele>
        <time>2019-08-09T07:29:35Z</time>
      </trkpt>
      <trkpt lat="44.13036" lon="5.90621">
        <ele>732</ele>
        <time>2019-08-09T07:29:36Z</time>
      </trkpt>
      <trkpt lat="44.13034" lon="5.90618">
        <ele>732</ele>
        <time>2019-08-09T07:29:37Z</time>
      </trkpt>
      <trkpt lat="44.13032" lon="5.90615">
        <ele>732</ele>
        <time>2019-08-09T07:29:38Z</time>
      </trkpt>
      <trkpt lat="44.1303" lon="5.90612">
        <ele>732</ele>
        <time>2019-08-09T07:29:39Z</time>
      </trkpt>
      <trkpt lat="44.13028" lon="5.90609">
        <ele>732</ele>
        <time>2019-08-09T07:29:40Z</time>
      </trkpt>
      <trkpt lat="44.13026" lon="5.90607">
        <ele>732</ele>
        <time>2019-08-09T07:29:41Z</time>
      </trkpt>
      <trkpt lat="44.13023" lon="5.90604">
        <ele>732</ele>
        <time>2019-08-09T07:29:42Z</time>
      </trkpt>
      <trkpt lat="44.13021" lon="5.90602">
        <ele>732</ele>
        <time>2019-08-09T07:29:43Z</time>
      </trkpt>
      <trkpt lat="44.13019" lon="5.906">
        <ele>732</ele>
        <time>2019-08-09T07:29:44Z</time>
      </trkpt>
      <trkpt lat="44.13017" lon="5.90597">
        <ele>732</ele>
        <time>2019-08-09T07:29:45Z</time>
      </trkpt>
      <trkpt lat="44.13015" lon="5.90595">
        <ele>731</ele>
        <time>2019-08-09T07:29:46Z</time>
      </trkpt>
      <trkpt lat="44.13013" lon="5.90592">
        <ele>731</ele>
        <time>2019-08-09T07:29:47Z</time>
      </trkpt>
      <trkpt lat="44.13011" lon="5.90591">
        <ele>731</ele>
        <time>2019-08-09T07:29:48Z</time>
      </trkpt>
      <trkpt lat="44.1301" lon="5.90589">
        <ele>730</ele>
        <time>2019-08-09T07:29:49Z</time>
      </trkpt>
      <trkpt lat="44.13007" lon="5.90587">
        <ele>730</ele>
        <time>2019-08-09T07:29:50Z</time>
      </trkpt>
      <trkpt lat="44.13005" lon="5.90585">
        <ele>730</ele>
        <time>2019-08-09T07:29:51Z</time>
      </trkpt>
      <trkpt lat="44.13004" lon="5.90582">
        <ele>730</ele>
        <time>2019-08-09T07:29:52Z</time>
      </trkpt>
      <trkpt lat="44.13002" lon="5.9058">
        <ele>729</ele>
        <time>2019-08-09T07:29:53Z</time>
      </trkpt>
      <trkpt lat="44.13" lon="5.90578">
        <ele>729</ele>
        <time>2019-08-09T07:29:54Z</time>
      </trkpt>
      <trkpt lat="44.12998" lon="5.90576">
        <ele>729</ele>
        <time>2019-08-09T07:29:55Z</time>
      </trkpt>
      <trkpt lat="44.12996" lon="5.90574">
        <ele>729</ele>
        <time>2019-08-09T07:29:56Z</time>
      </trkpt>
      <trkpt lat="44.12994" lon="5.90572">
        <ele>729</ele>
        <time>2019-08-09T07:29:57Z</time>
      </trkpt>
      <trkpt lat="44.12993" lon="5.9057">
        <ele>729</ele>
        <time>2019-08-09T07:29:58Z</time>
      </trkpt>
      <trkpt lat="44.12991" lon="5.90568">
        <ele>729</ele>
        <time>2019-08-09T07:29:59Z</time>
      </trkpt>
      <trkpt lat="44.12989" lon="5.90565">
        <ele>728</ele>
        <time>2019-08-09T07:30:00Z</time>
      </trkpt>
      <trkpt lat="44.12987" lon="5.90563">
        <ele>728</ele>
        <time>2019-08-09T07:30:01Z</time>
      </trkpt>
      <trkpt lat="44.12986" lon="5.90561">
        <ele>728</ele>
        <time>2019-08-09T07:30:02Z</time>
      </trkpt>
      <trkpt lat="44.12984" lon="5.90559">
        <ele>727</ele>
        <time>2019-08-09T07:30:03Z</time>
      </trkpt>
      <trkpt lat="44.12983" lon="5.90556">
        <ele>727</ele>
        <time>2019-08-09T07:30:04Z</time>
      </trkpt>
      <trkpt lat="44.12982" lon="5.90554">
        <ele>727</ele>
        <time>2019-08-09T07:30:05Z</time>
      </trkpt>
      <trkpt lat="44.1298" lon="5.90551">
        <ele>727</ele>
        <time>2019-08-09T07:30:06Z</time>
      </trkpt>
      <trkpt lat="44.12978" lon="5.90548">
        <ele>727</ele>
        <time>2019-08-09T07:30:07Z</time>
      </trkpt>
      <trkpt lat="44.12977" lon="5.90545">
        <ele>727</ele>
        <time>2019-08-09T07:30:08Z</time>
      </trkpt>
      <trkpt lat="44.12976" lon="5.90542">
        <ele>727</ele>
        <time>2019-08-09T07:30:09Z</time>
      </trkpt>
      <trkpt lat="44.12975" lon="5.90538">
        <ele>727</ele>
        <time>2019-08-09T07:30:10Z</time>
      </trkpt>
      <trkpt lat="44.12975" lon="5.90534">
        <ele>727</ele>
        <time>2019-08-09T07:30:11Z</time>
      </trkpt>
      <trkpt lat="44.12976" lon="5.9053">
        <ele>727</ele>
        <time>2019-08-09T07:30:12Z</time>
      </trkpt>
      <trkpt lat="44.12977" lon="5.90527">
        <ele>727</ele>
        <time>2019-08-09T07:30:13Z</time>
      </trkpt>
      <trkpt lat="44.12978" lon="5.90523">
        <ele>727</ele>
        <time>2019-08-09T07:30:14Z</time>
      </trkpt>
      <trkpt lat="44.12979" lon="5.9052">
        <ele>727</ele>
        <time>2019-08-09T07:30:15Z</time>
      </trkpt>
      <trkpt lat="44.12981" lon="5.90517">
        <ele>727</ele>
        <time>2019-08-09T07:30:16Z</time>
      </trkpt>
      <trkpt lat="44.12982" lon="5.90513">
        <ele>727</ele>
        <time>2019-08-09T07:30:17Z</time>
      </trkpt>
      <trkpt lat="44.12983" lon="5.9051">
        <ele>727</ele>
        <time>2019-08-09T07:30:18Z</time>
      </trkpt>
      <trkpt lat="44.12984" lon="5.90506">
        <ele>727</ele>
        <time>2019-08-09T07:30:19Z</time>
      </trkpt>
      <trkpt lat="44.12987" lon="5.90505">
        <ele>727</ele>
        <time>2019-08-09T07:30:20Z</time>
      </trkpt>
      <trkpt lat="44.12989" lon="5.90502">
        <ele>727</ele>
        <time>2019-08-09T07:30:21Z</time>
      </trkpt>
      <trkpt lat="44.1299" lon="5.90499">
        <ele>728</ele>
        <time>2019-08-09T07:30:22Z</time>
      </trkpt>
      <trkpt lat="44.12992" lon="5.90497">
        <ele>729</ele>
        <time>2019-08-09T07:30:23Z</time>
      </trkpt>
      <trkpt lat="44.12994" lon="5.90494">
        <ele>730</ele>
        <time>2019-08-09T07:30:24Z</time>
      </trkpt>
      <trkpt lat="44.12996" lon="5.90492">
        <ele>731</ele>
        <time>2019-08-09T07:30:25Z</time>
      </trkpt>
      <trkpt lat="44.12997" lon="5.90491">
        <ele>732</ele>
        <time>2019-08-09T07:30:26Z</time>
      </trkpt>
      <trkpt lat="44.12999" lon="5.90489">
        <ele>733</ele>
        <time>2019-08-09T07:30:27Z</time>
      </trkpt>
      <trkpt lat="44.13001" lon="5.90488">
        <ele>734</ele>
        <time>2019-08-09T07:30:28Z</time>
      </trkpt>
      <trkpt lat="44.13003" lon="5.90487">
        <ele>735</ele>
        <time>2019-08-09T07:30:29Z</time>
      </trkpt>
      <trkpt lat="44.13005" lon="5.90486">
        <ele>736</ele>
        <time>2019-08-09T07:30:30Z</time>
      </trkpt>
      <trkpt lat="44.13006" lon="5.90484">
        <ele>737</ele>
        <time>2019-08-09T07:30:31Z</time>
      </trkpt>
      <trkpt lat="44.13007" lon="5.90481">
        <ele>738</ele>
        <time>2019-08-09T07:30:32Z</time>
      </trkpt>
      <trkpt lat="44.1301" lon="5.9048">
        <ele>740</ele>
        <time>2019-08-09T07:30:33Z</time>
      </trkpt>
      <trkpt lat="44.13012" lon="5.90479">
        <ele>742</ele>
        <time>2019-08-09T07:30:34Z</time>
      </trkpt>
      <trkpt lat="44.13015" lon="5.90479">
        <ele>744</ele>
        <time>2019-08-09T07:30:35Z</time>
      </trkpt>
      <trkpt lat="44.13016" lon="5.90478">
        <ele>746</ele>
        <time>2019-08-09T07:30:36Z</time>
      </trkpt>
      <trkpt lat="44.13018" lon="5.90475">
        <ele>748</ele>
        <time>2019-08-09T07:30:37Z</time>
      </trkpt>
      <trkpt lat="44.1302" lon="5.90473">
        <ele>750</ele>
        <time>2019-08-09T07:30:38Z</time>
      </trkpt>
      <trkpt lat="44.13022" lon="5.90471">
        <ele>752</ele>
        <time>2019-08-09T07:30:39Z</time>
      </trkpt>
      <trkpt lat="44.13025" lon="5.90469">
        <ele>754</ele>
        <time>2019-08-09T07:30:40Z</time>
      </trkpt>
      <trkpt lat="44.13026" lon="5.90466">
        <ele>756</ele>
        <time>2019-08-09T07:30:41Z</time>
      </trkpt>
      <trkpt lat="44.13028" lon="5.90464">
        <ele>758</ele>
        <time>2019-08-09T07:30:42Z</time>
      </trkpt>
      <trkpt lat="44.1303" lon="5.90461">
        <ele>759</ele>
        <time>2019-08-09T07:30:43Z</time>
      </trkpt>
      <trkpt lat="44.13032" lon="5.90458">
        <ele>760</ele>
        <time>2019-08-09T07:30:44Z</time>
      </trkpt>
      <trkpt lat="44.13034" lon="5.90455">
        <ele>761</ele>
        <time>2019-08-09T07:30:45Z</time>
      </trkpt>
      <trkpt lat="44.13034" lon="5.90452">
        <ele>762</ele>
        <time>2019-08-09T07:30:46Z</time>
      </trkpt>
      <trkpt lat="44.13034" lon="5.90448">
        <ele>763</ele>
        <time>2019-08-09T07:30:47Z</time>
      </trkpt>
      <trkpt lat="44.13035" lon="5.90445">
        <ele>764</ele>
        <time>2019-08-09T07:30:48Z</time>
      </trkpt>
      <trkpt lat="44.13036" lon="5.9044">
        <ele>765</ele>
        <time>2019-08-09T07:30:49Z</time>
      </trkpt>
      <trkpt lat="44.13036" lon="5.90435">
        <ele>766</ele>
        <time>2019-08-09T07:30:50Z</time>
      </trkpt>
      <trkpt lat="44.13036" lon="5.9043">
        <ele>766</ele>
        <time>2019-08-09T07:30:51Z</time>
      </trkpt>
      <trkpt lat="44.13034" lon="5.90425">
        <ele>766</ele>
        <time>2019-08-09T07:30:52Z</time>
      </trkpt>
      <trkpt lat="44.13034" lon="5.90422">
        <ele>766</ele>
        <time>2019-08-09T07:30:53Z</time>
      </trkpt>
      <trkpt lat="44.13033" lon="5.90417">
        <ele>766</ele>
        <time>2019-08-09T07:30:54Z</time>
      </trkpt>
      <trkpt lat="44.13032" lon="5.90412">
        <ele>765</ele>
        <time>2019-08-09T07:30:55Z</time>
      </trkpt>
      <trkpt lat="44.13031" lon="5.90408">
        <ele>764</ele>
        <time>2019-08-09T07:30:56Z</time>
      </trkpt>
      <trkpt lat="44.1303" lon="5.90403">
        <ele>763</ele>
        <time>2019-08-09T07:30:57Z</time>
      </trkpt>
      <trkpt lat="44.1303" lon="5.90399">
        <ele>762</ele>
        <time>2019-08-09T07:30:58Z</time>
      </trkpt>
      <trkpt lat="44.13029" lon="5.90394">
        <ele>761</ele>
        <time>2019-08-09T07:30:59Z</time>
      </trkpt>
      <trkpt lat="44.13029" lon="5.9039">
        <ele>761</ele>
        <time>2019-08-09T07:31:00Z</time>
      </trkpt>
      <trkpt lat="44.13028" lon="5.90385">
        <ele>761</ele>
        <time>2019-08-09T07:31:01Z</time>
      </trkpt>
      <trkpt lat="44.13028" lon="5.90382">
        <ele>761</ele>
        <time>2019-08-09T07:31:02Z</time>
      </trkpt>
      <trkpt lat="44.13027" lon="5.90378">
        <ele>761</ele>
        <time>2019-08-09T07:31:03Z</time>
      </trkpt>
      <trkpt lat="44.13026" lon="5.90375">
        <ele>761</ele>
        <time>2019-08-09T07:31:04Z</time>
      </trkpt>
      <trkpt lat="44.13026" lon="5.90371">
        <ele>761</ele>
        <time>2019-08-09T07:31:05Z</time>
      </trkpt>
      <trkpt lat="44.13026" lon="5.90367">
        <ele>761</ele>
        <time>2019-08-09T07:31:06Z</time>
      </trkpt>
      <trkpt lat="44.13026" lon="5.90363">
        <ele>761</ele>
        <time>2019-08-09T07:31:07Z</time>
      </trkpt>
      <trkpt lat="44.13026" lon="5.90359">
        <ele>761</ele>
        <time>2019-08-09T07:31:08Z</time>
      </trkpt>
      <trkpt lat="44.13026" lon="5.90355">
        <ele>761</ele>
        <time>2019-08-09T07:31:09Z</time>
      </trkpt>
      <trkpt lat="44.13025" lon="5.9035">
        <ele>761</ele>
        <time>2019-08-09T07:31:10Z</time>
      </trkpt>
      <trkpt lat="44.13025" lon="5.90346">
        <ele>761</ele>
        <time>2019-08-09T07:31:11Z</time>
      </trkpt>
      <trkpt lat="44.13025" lon="5.90342">
        <ele>761</ele>
        <time>2019-08-09T07:31:12Z</time>
      </trkpt>
      <trkpt lat="44.13025" lon="5.90338">
        <ele>761</ele>
        <time>2019-08-09T07:31:13Z</time>
      </trkpt>
      <trkpt lat="44.13025" lon="5.90334">
        <ele>761</ele>
        <time>2019-08-09T07:31:14Z</time>
      </trkpt>
      <trkpt lat="44.13025" lon="5.9033">
        <ele>760</ele>
        <time>2019-08-09T07:31:15Z</time>
      </trkpt>
      <trkpt lat="44.13025" lon="5.90327">
        <ele>760</ele>
        <time>2019-08-09T07:31:16Z</time>
      </trkpt>
      <trkpt lat="44.13026" lon="5.90324">
        <ele>760</ele>
        <time>2019-08-09T07:31:17Z</time>
      </trkpt>
      <trkpt lat="44.13026" lon="5.9032">
        <ele>760</ele>
        <time>2019-08-09T07:31:18Z</time>
      </trkpt>
      <trkpt lat="44.13026" lon="5.90316">
        <ele>759</ele>
        <time>2019-08-09T07:31:19Z</time>
      </trkpt>
      <trkpt lat="44.13026" lon="5.90313">
        <ele>759</ele>
        <time>2019-08-09T07:31:20Z</time>
      </trkpt>
      <trkpt lat="44.13026" lon="5.90309">
        <ele>758</ele>
        <time>2019-08-09T07:31:21Z</time>
      </trkpt>
      <trkpt lat="44.13027" lon="5.90306">
        <ele>757</ele>
        <time>2019-08-09T07:31:22Z</time>
      </trkpt>
      <trkpt lat="44.13028" lon="5.90303">
        <ele>756</ele>
        <time>2019-08-09T07:31:23Z</time>
      </trkpt>
      <trkpt lat="44.13029" lon="5.903">
        <ele>755</ele>
        <time>2019-08-09T07:31:24Z</time>
      </trkpt>
      <trkpt lat="44.1303" lon="5.90295">
        <ele>754</ele>
        <time>2019-08-09T07:31:25Z</time>
      </trkpt>
      <trkpt lat="44.13031" lon="5.90291">
        <ele>753</ele>
        <time>2019-08-09T07:31:26Z</time>
      </trkpt>
      <trkpt lat="44.13032" lon="5.90288">
        <ele>752</ele>
        <time>2019-08-09T07:31:27Z</time>
      </trkpt>
      <trkpt lat="44.13033" lon="5.90285">
        <ele>751</ele>
        <time>2019-08-09T07:31:28Z</time>
      </trkpt>
      <trkpt lat="44.13035" lon="5.90282">
        <ele>750</ele>
        <time>2019-08-09T07:31:29Z</time>
      </trkpt>
      <trkpt lat="44.13035" lon="5.90278">
        <ele>749</ele>
        <time>2019-08-09T07:31:30Z</time>
      </trkpt>
      <trkpt lat="44.13037" lon="5.90275">
        <ele>748</ele>
        <time>2019-08-09T07:31:31Z</time>
      </trkpt>
      <trkpt lat="44.13038" lon="5.90272">
        <ele>747</ele>
        <time>2019-08-09T07:31:32Z</time>
      </trkpt>
      <trkpt lat="44.13039" lon="5.90269">
        <ele>746</ele>
        <time>2019-08-09T07:31:33Z</time>
      </trkpt>
      <trkpt lat="44.13041" lon="5.90266">
        <ele>745</ele>
        <time>2019-08-09T07:31:34Z</time>
      </trkpt>
      <trkpt lat="44.13042" lon="5.90264">
        <ele>745</ele>
        <time>2019-08-09T07:31:35Z</time>
      </trkpt>
      <trkpt lat="44.13044" lon="5.90261">
        <ele>745</ele>
        <time>2019-08-09T07:31:36Z</time>
      </trkpt>
      <trkpt lat="44.13045" lon="5.90257">
        <ele>745</ele>
        <time>2019-08-09T07:31:37Z</time>
      </trkpt>
      <trkpt lat="44.13046" lon="5.90254">
        <ele>744</ele>
        <time>2019-08-09T07:31:38Z</time>
      </trkpt>
      <trkpt lat="44.13048" lon="5.90251">
        <ele>743</ele>
        <time>2019-08-09T07:31:39Z</time>
      </trkpt>
      <trkpt lat="44.1305" lon="5.90249">
        <ele>743</ele>
        <time>2019-08-09T07:31:40Z</time>
      </trkpt>
      <trkpt lat="44.13052" lon="5.90246">
        <ele>743</ele>
        <time>2019-08-09T07:31:41Z</time>
      </trkpt>
      <trkpt lat="44.13054" lon="5.90243">
        <ele>743</ele>
        <time>2019-08-09T07:31:42Z</time>
      </trkpt>
      <trkpt lat="44.13056" lon="5.9024">
        <ele>743</ele>
        <time>2019-08-09T07:31:43Z</time>
      </trkpt>
      <trkpt lat="44.13057" lon="5.90238">
        <ele>743</ele>
        <time>2019-08-09T07:31:44Z</time>
      </trkpt>
      <trkpt lat="44.13058" lon="5.90234">
        <ele>743</ele>
        <time>2019-08-09T07:31:45Z</time>
      </trkpt>
      <trkpt lat="44.1306" lon="5.9023">
        <ele>743</ele>
        <time>2019-08-09T07:31:46Z</time>
      </trkpt>
      <trkpt lat="44.13061" lon="5.90228">
        <ele>743</ele>
        <time>2019-08-09T07:31:47Z</time>
      </trkpt>
      <trkpt lat="44.13062" lon="5.90225">
        <ele>743</ele>
        <time>2019-08-09T07:31:48Z</time>
      </trkpt>
      <trkpt lat="44.13064" lon="5.90223">
        <ele>743</ele>
        <time>2019-08-09T07:31:49Z</time>
      </trkpt>
      <trkpt lat="44.13065" lon="5.90221">
        <ele>743</ele>
        <time>2019-08-09T07:31:50Z</time>
      </trkpt>
      <trkpt lat="44.13067" lon="5.90218">
        <ele>744</ele>
        <time>2019-08-09T07:31:51Z</time>
      </trkpt>
      <trkpt lat="44.13069" lon="5.90216">
        <ele>745</ele>
        <time>2019-08-09T07:31:52Z</time>
      </trkpt>
      <trkpt lat="44.13071" lon="5.90214">
        <ele>745</ele>
        <time>2019-08-09T07:31:53Z</time>
      </trkpt>
      <trkpt lat="44.13073" lon="5.90211">
        <ele>746</ele>
        <time>2019-08-09T07:31:54Z</time>
      </trkpt>
      <trkpt lat="44.13074" lon="5.90208">
        <ele>747</ele>
        <time>2019-08-09T07:31:55Z</time>
      </trkpt>
      <trkpt lat="44.13076" lon="5.90205">
        <ele>748</ele>
        <time>2019-08-09T07:31:56Z</time>
      </trkpt>
      <trkpt lat="44.13077" lon="5.90202">
        <ele>749</ele>
        <time>2019-08-09T07:31:57Z</time>
      </trkpt>
      <trkpt lat="44.13077" lon="5.90199">
        <ele>750</ele>
        <time>2019-08-09T07:31:58Z</time>
      </trkpt>
      <trkpt lat="44.13078" lon="5.90196">
        <ele>751</ele>
        <time>2019-08-09T07:31:59Z</time>
      </trkpt>
      <trkpt lat="44.13078" lon="5.90192">
        <ele>752</ele>
        <time>2019-08-09T07:32:00Z</time>
      </trkpt>
      <trkpt lat="44.13079" lon="5.90189">
        <ele>752</ele>
        <time>2019-08-09T07:32:01Z</time>
      </trkpt>
      <trkpt lat="44.13081" lon="5.90186">
        <ele>752</ele>
        <time>2019-08-09T07:32:02Z</time>
      </trkpt>
      <trkpt lat="44.13082" lon="5.90183">
        <ele>753</ele>
        <time>2019-08-09T07:32:03Z</time>
      </trkpt>
      <trkpt lat="44.13083" lon="5.9018">
        <ele>753</ele>
        <time>2019-08-09T07:32:04Z</time>
      </trkpt>
      <trkpt lat="44.13083" lon="5.90176">
        <ele>753</ele>
        <time>2019-08-09T07:32:05Z</time>
      </trkpt>
      <trkpt lat="44.13084" lon="5.90173">
        <ele>753</ele>
        <time>2019-08-09T07:32:06Z</time>
      </trkpt>
      <trkpt lat="44.13084" lon="5.9017">
        <ele>753</ele>
        <time>2019-08-09T07:32:07Z</time>
      </trkpt>
      <trkpt lat="44.13084" lon="5.90166">
        <ele>753</ele>
        <time>2019-08-09T07:32:08Z</time>
      </trkpt>
      <trkpt lat="44.13083" lon="5.90163">
        <ele>753</ele>
        <time>2019-08-09T07:32:09Z</time>
      </trkpt>
      <trkpt lat="44.13083" lon="5.9016">
        <ele>753</ele>
        <time>2019-08-09T07:32:10Z</time>
      </trkpt>
      <trkpt lat="44.13082" lon="5.90156">
        <ele>753</ele>
        <time>2019-08-09T07:32:11Z</time>
      </trkpt>
      <trkpt lat="44.13081" lon="5.90152">
        <ele>753</ele>
        <time>2019-08-09T07:32:12Z</time>
      </trkpt>
      <trkpt lat="44.13079" lon="5.90149">
        <ele>752</ele>
        <time>2019-08-09T07:32:13Z</time>
      </trkpt>
      <trkpt lat="44.13078" lon="5.90146">
        <ele>752</ele>
        <time>2019-08-09T07:32:14Z</time>
      </trkpt>
      <trkpt lat="44.13076" lon="5.90144">
        <ele>752</ele>
        <time>2019-08-09T07:32:15Z</time>
      </trkpt>
      <trkpt lat="44.13073" lon="5.90142">
        <ele>752</ele>
        <time>2019-08-09T07:32:16Z</time>
      </trkpt>
      <trkpt lat="44.13072" lon="5.90141">
        <ele>752</ele>
        <time>2019-08-09T07:32:17Z</time>
      </trkpt>
      <trkpt lat="44.1307" lon="5.90139">
        <ele>752</ele>
        <time>2019-08-09T07:32:18Z</time>
      </trkpt>
      <trkpt lat="44.13067" lon="5.90138">
        <ele>753</ele>
        <time>2019-08-09T07:32:19Z</time>
      </trkpt>
      <trkpt lat="44.13064" lon="5.90137">
        <ele>754</ele>
        <time>2019-08-09T07:32:20Z</time>
      </trkpt>
      <trkpt lat="44.13061" lon="5.90136">
        <ele>755</ele>
        <time>2019-08-09T07:32:21Z</time>
      </trkpt>
      <trkpt lat="44.13058" lon="5.90136">
        <ele>755</ele>
        <time>2019-08-09T07:32:22Z</time>
      </trkpt>
      <trkpt lat="44.13055" lon="5.90135">
        <ele>755</ele>
        <time>2019-08-09T07:32:23Z</time>
      </trkpt>
      <trkpt lat="44.13052" lon="5.90135">
        <ele>755</ele>
        <time>2019-08-09T07:32:24Z</time>
      </trkpt>
      <trkpt lat="44.13049" lon="5.90136">
        <ele>755</ele>
        <time>2019-08-09T07:32:25Z</time>
      </trkpt>
      <trkpt lat="44.13046" lon="5.90135">
        <ele>756</ele>
        <time>2019-08-09T07:32:26Z</time>
      </trkpt>
      <trkpt lat="44.13043" lon="5.90135">
        <ele>756</ele>
        <time>2019-08-09T07:32:27Z</time>
      </trkpt>
      <trkpt lat="44.1304" lon="5.90136">
        <ele>756</ele>
        <time>2019-08-09T07:32:28Z</time>
      </trkpt>
      <trkpt lat="44.13037" lon="5.90136">
        <ele>757</ele>
        <time>2019-08-09T07:32:29Z</time>
      </trkpt>
      <trkpt lat="44.13034" lon="5.90137">
        <ele>757</ele>
        <time>2019-08-09T07:32:30Z</time>
      </trkpt>
      <trkpt lat="44.13031" lon="5.90137">
        <ele>757</ele>
        <time>2019-08-09T07:32:31Z</time>
      </trkpt>
      <trkpt lat="44.13029" lon="5.90136">
        <ele>758</ele>
        <time>2019-08-09T07:32:32Z</time>
      </trkpt>
      <trkpt lat="44.13027" lon="5.90135">
        <ele>759</ele>
        <time>2019-08-09T07:32:33Z</time>
      </trkpt>
      <trkpt lat="44.13025" lon="5.90135">
        <ele>760</ele>
        <time>2019-08-09T07:32:34Z</time>
      </trkpt>
      <trkpt lat="44.13022" lon="5.90135">
        <ele>761</ele>
        <time>2019-08-09T07:32:35Z</time>
      </trkpt>
      <trkpt lat="44.1302" lon="5.90135">
        <ele>762</ele>
        <time>2019-08-09T07:32:36Z</time>
      </trkpt>
      <trkpt lat="44.13018" lon="5.90136">
        <ele>763</ele>
        <time>2019-08-09T07:32:37Z</time>
      </trkpt>
      <trkpt lat="44.13015" lon="5.90136">
        <ele>763</ele>
        <time>2019-08-09T07:32:38Z</time>
      </trkpt>
      <trkpt lat="44.13013" lon="5.90136">
        <ele>764</ele>
        <time>2019-08-09T07:32:39Z</time>
      </trkpt>
      <trkpt lat="44.1301" lon="5.90135">
        <ele>764</ele>
        <time>2019-08-09T07:32:40Z</time>
      </trkpt>
      <trkpt lat="44.13007" lon="5.90136">
        <ele>764</ele>
        <time>2019-08-09T07:32:41Z</time>
      </trkpt>
      <trkpt lat="44.13004" lon="5.90136">
        <ele>765</ele>
        <time>2019-08-09T07:32:42Z</time>
      </trkpt>
      <trkpt lat="44.13001" lon="5.90137">
        <ele>766</ele>
        <time>2019-08-09T07:32:43Z</time>
      </trkpt>
      <trkpt lat="44.12999" lon="5.90137">
        <ele>766</ele>
        <time>2019-08-09T07:32:44Z</time>
      </trkpt>
      <trkpt lat="44.12995" lon="5.90137">
        <ele>767</ele>
        <time>2019-08-09T07:32:45Z</time>
      </trkpt>
      <trkpt lat="44.12993" lon="5.90137">
        <ele>767</ele>
        <time>2019-08-09T07:32:46Z</time>
      </trkpt>
      <trkpt lat="44.1299" lon="5.90137">
        <ele>767</ele>
        <time>2019-08-09T07:32:47Z</time>
      </trkpt>
      <trkpt lat="44.12988" lon="5.90136">
        <ele>768</ele>
        <time>2019-08-09T07:32:48Z</time>
      </trkpt>
      <trkpt lat="44.12985" lon="5.90137">
        <ele>769</ele>
        <time>2019-08-09T07:32:49Z</time>
      </trkpt>
      <trkpt lat="44.12981" lon="5.90138">
        <ele>770</ele>
        <time>2019-08-09T07:32:50Z</time>
      </trkpt>
      <trkpt lat="44.12978" lon="5.90139">
        <ele>771</ele>
        <time>2019-08-09T07:32:51Z</time>
      </trkpt>
      <trkpt lat="44.12975" lon="5.9014">
        <ele>772</ele>
        <time>2019-08-09T07:32:52Z</time>
      </trkpt>
      <trkpt lat="44.12972" lon="5.9014">
        <ele>773</ele>
        <time>2019-08-09T07:32:53Z</time>
      </trkpt>
      <trkpt lat="44.12969" lon="5.9014">
        <ele>774</ele>
        <time>2019-08-09T07:32:54Z</time>
      </trkpt>
      <trkpt lat="44.12965" lon="5.90141">
        <ele>775</ele>
        <time>2019-08-09T07:32:55Z</time>
      </trkpt>
      <trkpt lat="44.12963" lon="5.9014">
        <ele>776</ele>
        <time>2019-08-09T07:32:56Z</time>
      </trkpt>
      <trkpt lat="44.12959" lon="5.9014">
        <ele>777</ele>
        <time>2019-08-09T07:32:57Z</time>
      </trkpt>
      <trkpt lat="44.12956" lon="5.90141">
        <ele>777</ele>
        <time>2019-08-09T07:32:58Z</time>
      </trkpt>
      <trkpt lat="44.12952" lon="5.90141">
        <ele>778</ele>
        <time>2019-08-09T07:32:59Z</time>
      </trkpt>
      <trkpt lat="44.1295" lon="5.90139">
        <ele>779</ele>
        <time>2019-08-09T07:33:00Z</time>
      </trkpt>
      <trkpt lat="44.12947" lon="5.90138">
        <ele>780</ele>
        <time>2019-08-09T07:33:01Z</time>
      </trkpt>
      <trkpt lat="44.12944" lon="5.90137">
        <ele>781</ele>
        <time>2019-08-09T07:33:02Z</time>
      </trkpt>
      <trkpt lat="44.12941" lon="5.90137">
        <ele>781</ele>
        <time>2019-08-09T07:33:03Z</time>
      </trkpt>
      <trkpt lat="44.12939" lon="5.90135">
        <ele>781</ele>
        <time>2019-08-09T07:33:04Z</time>
      </trkpt>
      <trkpt lat="44.12936" lon="5.90134">
        <ele>781</ele>
        <time>2019-08-09T07:33:05Z</time>
      </trkpt>
      <trkpt lat="44.12933" lon="5.90133">
        <ele>781</ele>
        <time>2019-08-09T07:33:06Z</time>
      </trkpt>
      <trkpt lat="44.1293" lon="5.90133">
        <ele>781</ele>
        <time>2019-08-09T07:33:07Z</time>
      </trkpt>
      <trkpt lat="44.12927" lon="5.90132">
        <ele>781</ele>
        <time>2019-08-09T07:33:08Z</time>
      </trkpt>
      <trkpt lat="44.12925" lon="5.90132">
        <ele>781</ele>
        <time>2019-08-09T07:33:09Z</time>
      </trkpt>
      <trkpt lat="44.12923" lon="5.9013">
        <ele>781</ele>
        <time>2019-08-09T07:33:10Z</time>
      </trkpt>
      <trkpt lat="44.12921" lon="5.90128">
        <ele>780</ele>
        <time>2019-08-09T07:33:11Z</time>
      </trkpt>
      <trkpt lat="44.12918" lon="5.90125">
        <ele>780</ele>
        <time>2019-08-09T07:33:12Z</time>
      </trkpt>
      <trkpt lat="44.12915" lon="5.90123">
        <ele>779</ele>
        <time>2019-08-09T07:33:13Z</time>
      </trkpt>
      <trkpt lat="44.12913" lon="5.90119">
        <ele>779</ele>
        <time>2019-08-09T07:33:14Z</time>
      </trkpt>
      <trkpt lat="44.1291" lon="5.90116">
        <ele>779</ele>
        <time>2019-08-09T07:33:15Z</time>
      </trkpt>
      <trkpt lat="44.12908" lon="5.90112">
        <ele>778</ele>
        <time>2019-08-09T07:33:16Z</time>
      </trkpt>
      <trkpt lat="44.12906" lon="5.90108">
        <ele>777</ele>
        <time>2019-08-09T07:33:17Z</time>
      </trkpt>
      <trkpt lat="44.12903" lon="5.90105">
        <ele>776</ele>
        <time>2019-08-09T07:33:18Z</time>
      </trkpt>
      <trkpt lat="44.12901" lon="5.90101">
        <ele>775</ele>
        <time>2019-08-09T07:33:19Z</time>
      </trkpt>
      <trkpt lat="44.12899" lon="5.90098">
        <ele>774</ele>
        <time>2019-08-09T07:33:20Z</time>
      </trkpt>
      <trkpt lat="44.12896" lon="5.90094">
        <ele>773</ele>
        <time>2019-08-09T07:33:21Z</time>
      </trkpt>
      <trkpt lat="44.12894" lon="5.9009">
        <ele>772</ele>
        <time>2019-08-09T07:33:22Z</time>
      </trkpt>
      <trkpt lat="44.12892" lon="5.90086">
        <ele>771</ele>
        <time>2019-08-09T07:33:23Z</time>
      </trkpt>
      <trkpt lat="44.1289" lon="5.90083">
        <ele>770</ele>
        <time>2019-08-09T07:33:24Z</time>
      </trkpt>
      <trkpt lat="44.12888" lon="5.90079">
        <ele>769</ele>
        <time>2019-08-09T07:33:25Z</time>
      </trkpt>
      <trkpt lat="44.12886" lon="5.90075">
        <ele>768</ele>
        <time>2019-08-09T07:33:26Z</time>
      </trkpt>
      <trkpt lat="44.12885" lon="5.90071">
        <ele>768</ele>
        <time>2019-08-09T07:33:27Z</time>
      </trkpt>
      <trkpt lat="44.12883" lon="5.90067">
        <ele>768</ele>
        <time>2019-08-09T07:33:28Z</time>
      </trkpt>
      <trkpt lat="44.12881" lon="5.90063">
        <ele>768</ele>
        <time>2019-08-09T07:33:29Z</time>
      </trkpt>
      <trkpt lat="44.12879" lon="5.90058">
        <ele>768</ele>
        <time>2019-08-09T07:33:30Z</time>
      </trkpt>
      <trkpt lat="44.12877" lon="5.90054">
        <ele>768</ele>
        <time>2019-08-09T07:33:31Z</time>
      </trkpt>
      <trkpt lat="44.12875" lon="5.90049">
        <ele>768</ele>
        <time>2019-08-09T07:33:32Z</time>
      </trkpt>
      <trkpt lat="44.12872" lon="5.90045">
        <ele>768</ele>
        <time>2019-08-09T07:33:33Z</time>
      </trkpt>
      <trkpt lat="44.1287" lon="5.9004">
        <ele>768</ele>
        <time>2019-08-09T07:33:34Z</time>
      </trkpt>
      <trkpt lat="44.12867" lon="5.90036">
        <ele>768</ele>
        <time>2019-08-09T07:33:35Z</time>
      </trkpt>
      <trkpt lat="44.12865" lon="5.90032">
        <ele>768</ele>
        <time>2019-08-09T07:33:36Z</time>
      </trkpt>
      <trkpt lat="44.12862" lon="5.90028">
        <ele>768</ele>
        <time>2019-08-09T07:33:37Z</time>
      </trkpt>
      <trkpt lat="44.12858" lon="5.90024">
        <ele>768</ele>
        <time>2019-08-09T07:33:38Z</time>
      </trkpt>
      <trkpt lat="44.12855" lon="5.9002">
        <ele>768</ele>
        <time>2019-08-09T07:33:39Z</time>
      </trkpt>
      <trkpt lat="44.12852" lon="5.90017">
        <ele>767</ele>
        <time>2019-08-09T07:33:40Z</time>
      </trkpt>
      <trkpt lat="44.12848" lon="5.90014">
        <ele>767</ele>
        <time>2019-08-09T07:33:41Z</time>
      </trkpt>
      <trkpt lat="44.12843" lon="5.90013">
        <ele>767</ele>
        <time>2019-08-09T07:33:42Z</time>
      </trkpt>
      <trkpt lat="44.12838" lon="5.90013">
        <ele>767</ele>
        <time>2019-08-09T07:33:43Z</time>
      </trkpt>
      <trkpt lat="44.12833" lon="5.90014">
        <ele>767</ele>
        <time>2019-08-09T07:33:44Z</time>
      </trkpt>
      <trkpt lat="44.12827" lon="5.90015">
        <ele>767</ele>
        <time>2019-08-09T07:33:45Z</time>
      </trkpt>
      <trkpt lat="44.1282" lon="5.90018">
        <ele>767</ele>
        <time>2019-08-09T07:33:46Z</time>
      </trkpt>
      <trkpt lat="44.12814" lon="5.90022">
        <ele>767</ele>
        <time>2019-08-09T07:33:47Z</time>
      </trkpt>
      <trkpt lat="44.12807" lon="5.90027">
        <ele>767</ele>
        <time>2019-08-09T07:33:48Z</time>
      </trkpt>
      <trkpt lat="44.12799" lon="5.90031">
        <ele>767</ele>
        <time>2019-08-09T07:33:49Z</time>
      </trkpt>
      <trkpt lat="44.12792" lon="5.90035">
        <ele>767</ele>
        <time>2019-08-09T07:33:50Z</time>
      </trkpt>
      <trkpt lat="44.12784" lon="5.90038">
        <ele>767</ele>
        <time>2019-08-09T07:33:51Z</time>
      </trkpt>
      <trkpt lat="44.12775" lon="5.90042">
        <ele>767</ele>
        <time>2019-08-09T07:33:52Z</time>
      </trkpt>
      <trkpt lat="44.12767" lon="5.90045">
        <ele>767</ele>
        <time>2019-08-09T07:33:53Z</time>
      </trkpt>
      <trkpt lat="44.12757" lon="5.90048">
        <ele>767</ele>
        <time>2019-08-09T07:33:54Z</time>
      </trkpt>
      <trkpt lat="44.12748" lon="5.90048">
        <ele>767</ele>
        <time>2019-08-09T07:33:55Z</time>
      </trkpt>
      <trkpt lat="44.12737" lon="5.90047">
        <ele>766</ele>
        <time>2019-08-09T07:33:56Z</time>
      </trkpt>
      <trkpt lat="44.12727" lon="5.90043">
        <ele>765</ele>
        <time>2019-08-09T07:33:57Z</time>
      </trkpt>
      <trkpt lat="44.12719" lon="5.90036">
        <ele>764</ele>
        <time>2019-08-09T07:33:58Z</time>
      </trkpt>
      <trkpt lat="44.12712" lon="5.90025">
        <ele>763</ele>
        <time>2019-08-09T07:33:59Z</time>
      </trkpt>
      <trkpt lat="44.12707" lon="5.90011">
        <ele>762</ele>
        <time>2019-08-09T07:34:00Z</time>
      </trkpt>
      <trkpt lat="44.12702" lon="5.89999">
        <ele>761</ele>
        <time>2019-08-09T07:34:01Z</time>
      </trkpt>
      <trkpt lat="44.12698" lon="5.89987">
        <ele>760</ele>
        <time>2019-08-09T07:34:02Z</time>
      </trkpt>
      <trkpt lat="44.12693" lon="5.89975">
        <ele>759</ele>
        <time>2019-08-09T07:34:03Z</time>
      </trkpt>
      <trkpt lat="44.12689" lon="5.89964">
        <ele>759</ele>
        <time>2019-08-09T07:34:04Z</time>
      </trkpt>
      <trkpt lat="44.12685" lon="5.89954">
        <ele>759</ele>
        <time>2019-08-09T07:34:05Z</time>
      </trkpt>
      <trkpt lat="44.12681" lon="5.89943">
        <ele>759</ele>
        <time>2019-08-09T07:34:06Z</time>
      </trkpt>
      <trkpt lat="44.12678" lon="5.89933">
        <ele>759</ele>
        <time>2019-08-09T07:34:07Z</time>
      </trkpt>
      <trkpt lat="44.12675" lon="5.89924">
        <ele>759</ele>
        <time>2019-08-09T07:34:08Z</time>
      </trkpt>
      <trkpt lat="44.12673" lon="5.89915">
        <ele>759</ele>
        <time>2019-08-09T07:34:09Z</time>
      </trkpt>
      <trkpt lat="44.12672" lon="5.89907">
        <ele>759</ele>
        <time>2019-08-09T07:34:10Z</time>
      </trkpt>
      <trkpt lat="44.12672" lon="5.89899">
        <ele>759</ele>
        <time>2019-08-09T07:34:11Z</time>
      </trkpt>
      <trkpt lat="44.12672" lon="5.89892">
        <ele>760</ele>
        <time>2019-08-09T07:34:12Z</time>
      </trkpt>
      <trkpt lat="44.12672" lon="5.89886">
        <ele>761</ele>
        <time>2019-08-09T07:34:13Z</time>
      </trkpt>
      <trkpt lat="44.12672" lon="5.89882">
        <ele>762</ele>
        <time>2019-08-09T07:34:14Z</time>
      </trkpt>
      <trkpt lat="44.12673" lon="5.89876">
        <ele>763</ele>
        <time>2019-08-09T07:34:15Z</time>
      </trkpt>
      <trkpt lat="44.12674" lon="5.89872">
        <ele>764</ele>
        <time>2019-08-09T07:34:16Z</time>
      </trkpt>
      <trkpt lat="44.12674" lon="5.89868">
        <ele>765</ele>
        <time>2019-08-09T07:34:17Z</time>
      </trkpt>
      <trkpt lat="44.12674" lon="5.89864">
        <ele>766</ele>
        <time>2019-08-09T07:34:18Z</time>
      </trkpt>
      <trkpt lat="44.12674" lon="5.8986">
        <ele>767</ele>
        <time>2019-08-09T07:34:19Z</time>
      </trkpt>
      <trkpt lat="44.12674" lon="5.89855">
        <ele>768</ele>
        <time>2019-08-09T07:34:20Z</time>
      </trkpt>
      <trkpt lat="44.12674" lon="5.8985">
        <ele>769</ele>
        <time>2019-08-09T07:34:21Z</time>
      </trkpt>
      <trkpt lat="44.12675" lon="5.89846">
        <ele>769</ele>
        <time>2019-08-09T07:34:22Z</time>
      </trkpt>
      <trkpt lat="44.12675" lon="5.89841">
        <ele>769</ele>
        <time>2019-08-09T07:34:23Z</time>
      </trkpt>
      <trkpt lat="44.12675" lon="5.89836">
        <ele>769</ele>
        <time>2019-08-09T07:34:24Z</time>
      </trkpt>
      <trkpt lat="44.12676" lon="5.89831">
        <ele>769</ele>
        <time>2019-08-09T07:34:25Z</time>
      </trkpt>
      <trkpt lat="44.12677" lon="5.89827">
        <ele>769</ele>
        <time>2019-08-09T07:34:26Z</time>
      </trkpt>
      <trkpt lat="44.12678" lon="5.89823">
        <ele>769</ele>
        <time>2019-08-09T07:34:27Z</time>
      </trkpt>
      <trkpt lat="44.1268" lon="5.89819">
        <ele>769</ele>
        <time>2019-08-09T07:34:28Z</time>
      </trkpt>
      <trkpt lat="44.1268" lon="5.89815">
        <ele>769</ele>
        <time>2019-08-09T07:34:29Z</time>
      </trkpt>
      <trkpt lat="44.12681" lon="5.89811">
        <ele>769</ele>
        <time>2019-08-09T07:34:30Z</time>
      </trkpt>
      <trkpt lat="44.12683" lon="5.89807">
        <ele>769</ele>
        <time>2019-08-09T07:34:31Z</time>
      </trkpt>
      <trkpt lat="44.12684" lon="5.89804">
        <ele>769</ele>
        <time>2019-08-09T07:34:32Z</time>
      </trkpt>
      <trkpt lat="44.12687" lon="5.898">
        <ele>769</ele>
        <time>2019-08-09T07:34:33Z</time>
      </trkpt>
      <trkpt lat="44.12689" lon="5.89798">
        <ele>769</ele>
        <time>2019-08-09T07:34:34Z</time>
      </trkpt>
      <trkpt lat="44.12691" lon="5.89796">
        <ele>769</ele>
        <time>2019-08-09T07:34:35Z</time>
      </trkpt>
      <trkpt lat="44.12695" lon="5.89793">
        <ele>769</ele>
        <time>2019-08-09T07:34:36Z</time>
      </trkpt>
      <trkpt lat="44.12697" lon="5.89792">
        <ele>769</ele>
        <time>2019-08-09T07:34:37Z</time>
      </trkpt>
      <trkpt lat="44.127" lon="5.89789">
        <ele>769</ele>
        <time>2019-08-09T07:34:38Z</time>
      </trkpt>
      <trkpt lat="44.12703" lon="5.89788">
        <ele>770</ele>
        <time>2019-08-09T07:34:39Z</time>
      </trkpt>
      <trkpt lat="44.12705" lon="5.89786">
        <ele>771</ele>
        <time>2019-08-09T07:34:40Z</time>
      </trkpt>
      <trkpt lat="44.12708" lon="5.89785">
        <ele>772</ele>
        <time>2019-08-09T07:34:41Z</time>
      </trkpt>
      <trkpt lat="44.12711" lon="5.89784">
        <ele>773</ele>
        <time>2019-08-09T07:34:42Z</time>
      </trkpt>
      <trkpt lat="44.12713" lon="5.89782">
        <ele>774</ele>
        <time>2019-08-09T07:34:43Z</time>
      </trkpt>
      <trkpt lat="44.12716" lon="5.89781">
        <ele>774</ele>
        <time>2019-08-09T07:34:44Z</time>
      </trkpt>
      <trkpt lat="44.12718" lon="5.89779">
        <ele>774</ele>
        <time>2019-08-09T07:34:45Z</time>
      </trkpt>
      <trkpt lat="44.12721" lon="5.89777">
        <ele>774</ele>
        <time>2019-08-09T07:34:46Z</time>
      </trkpt>
      <trkpt lat="44.12723" lon="5.89774">
        <ele>774</ele>
        <time>2019-08-09T07:34:47Z</time>
      </trkpt>
      <trkpt lat="44.12725" lon="5.89772">
        <ele>774</ele>
        <time>2019-08-09T07:34:48Z</time>
      </trkpt>
      <trkpt lat="44.12727" lon="5.8977">
        <ele>774</ele>
        <time>2019-08-09T07:34:49Z</time>
      </trkpt>
      <trkpt lat="44.1273" lon="5.89768">
        <ele>774</ele>
        <time>2019-08-09T07:34:50Z</time>
      </trkpt>
      <trkpt lat="44.12732" lon="5.89765">
        <ele>775</ele>
        <time>2019-08-09T07:34:51Z</time>
      </trkpt>
      <trkpt lat="44.12733" lon="5.89762">
        <ele>775</ele>
        <time>2019-08-09T07:34:52Z</time>
      </trkpt>
      <trkpt lat="44.12734" lon="5.89758">
        <ele>776</ele>
        <time>2019-08-09T07:34:53Z</time>
      </trkpt>
      <trkpt lat="44.12735" lon="5.89754">
        <ele>776</ele>
        <time>2019-08-09T07:34:54Z</time>
      </trkpt>
      <trkpt lat="44.12735" lon="5.8975">
        <ele>777</ele>
        <time>2019-08-09T07:34:55Z</time>
      </trkpt>
      <trkpt lat="44.12735" lon="5.89746">
        <ele>777</ele>
        <time>2019-08-09T07:34:56Z</time>
      </trkpt>
      <trkpt lat="44.12735" lon="5.89742">
        <ele>777</ele>
        <time>2019-08-09T07:34:57Z</time>
      </trkpt>
      <trkpt lat="44.12735" lon="5.89738">
        <ele>777</ele>
        <time>2019-08-09T07:34:58Z</time>
      </trkpt>
      <trkpt lat="44.12735" lon="5.89734">
        <ele>777</ele>
        <time>2019-08-09T07:34:59Z</time>
      </trkpt>
      <trkpt lat="44.12735" lon="5.89729">
        <ele>777</ele>
        <time>2019-08-09T07:35:00Z</time>
      </trkpt>
      <trkpt lat="44.12734" lon="5.89725">
        <ele>777</ele>
        <time>2019-08-09T07:35:01Z</time>
      </trkpt>
      <trkpt lat="44.12733" lon="5.89721">
        <ele>777</ele>
        <time>2019-08-09T07:35:02Z</time>
      </trkpt>
      <trkpt lat="44.12733" lon="5.89717">
        <ele>776</ele>
        <time>2019-08-09T07:35:03Z</time>
      </trkpt>
      <trkpt lat="44.12733" lon="5.89713">
        <ele>775</ele>
        <time>2019-08-09T07:35:04Z</time>
      </trkpt>
      <trkpt lat="44.12732" lon="5.89709">
        <ele>774</ele>
        <time>2019-08-09T07:35:05Z</time>
      </trkpt>
      <trkpt lat="44.12732" lon="5.89705">
        <ele>773</ele>
        <time>2019-08-09T07:35:06Z</time>
      </trkpt>
      <trkpt lat="44.1273" lon="5.89701">
        <ele>772</ele>
        <time>2019-08-09T07:35:07Z</time>
      </trkpt>
      <trkpt lat="44.1273" lon="5.89696">
        <ele>771</ele>
        <time>2019-08-09T07:35:08Z</time>
      </trkpt>
      <trkpt lat="44.1273" lon="5.89691">
        <ele>770</ele>
        <time>2019-08-09T07:35:09Z</time>
      </trkpt>
      <trkpt lat="44.1273" lon="5.89687">
        <ele>769</ele>
        <time>2019-08-09T07:35:10Z</time>
      </trkpt>
      <trkpt lat="44.1273" lon="5.89683">
        <ele>768</ele>
        <time>2019-08-09T07:35:11Z</time>
      </trkpt>
      <trkpt lat="44.12729" lon="5.89678">
        <ele>767</ele>
        <time>2019-08-09T07:35:12Z</time>
      </trkpt>
      <trkpt lat="44.1273" lon="5.89674">
        <ele>766</ele>
        <time>2019-08-09T07:35:13Z</time>
      </trkpt>
      <trkpt lat="44.12731" lon="5.89671">
        <ele>765</ele>
        <time>2019-08-09T07:35:14Z</time>
      </trkpt>
      <trkpt lat="44.12731" lon="5.89667">
        <ele>764</ele>
        <time>2019-08-09T07:35:15Z</time>
      </trkpt>
      <trkpt lat="44.12732" lon="5.89664">
        <ele>763</ele>
        <time>2019-08-09T07:35:16Z</time>
      </trkpt>
      <trkpt lat="44.12733" lon="5.89661">
        <ele>763</ele>
        <time>2019-08-09T07:35:17Z</time>
      </trkpt>
      <trkpt lat="44.12734" lon="5.89657">
        <ele>763</ele>
        <time>2019-08-09T07:35:18Z</time>
      </trkpt>
      <trkpt lat="44.12734" lon="5.89652">
        <ele>763</ele>
        <time>2019-08-09T07:35:19Z</time>
      </trkpt>
      <trkpt lat="44.12734" lon="5.89648">
        <ele>763</ele>
        <time>2019-08-09T07:35:20Z</time>
      </trkpt>
      <trkpt lat="44.12734" lon="5.89643">
        <ele>763</ele>
        <time>2019-08-09T07:35:21Z</time>
      </trkpt>
      <trkpt lat="44.12735" lon="5.8964">
        <ele>762</ele>
        <time>2019-08-09T07:35:22Z</time>
      </trkpt>
      <trkpt lat="44.12736" lon="5.89636">
        <ele>761</ele>
        <time>2019-08-09T07:35:23Z</time>
      </trkpt>
      <trkpt lat="44.12736" lon="5.89633">
        <ele>760</ele>
        <time>2019-08-09T07:35:24Z</time>
      </trkpt>
      <trkpt lat="44.12736" lon="5.89629">
        <ele>760</ele>
        <time>2019-08-09T07:35:25Z</time>
      </trkpt>
      <trkpt lat="44.12735" lon="5.89625">
        <ele>760</ele>
        <time>2019-08-09T07:35:26Z</time>
      </trkpt>
      <trkpt lat="44.12734" lon="5.89621">
        <ele>760</ele>
        <time>2019-08-09T07:35:27Z</time>
      </trkpt>
      <trkpt lat="44.12733" lon="5.89617">
        <ele>760</ele>
        <time>2019-08-09T07:35:28Z</time>
      </trkpt>
      <trkpt lat="44.12732" lon="5.89614">
        <ele>760</ele>
        <time>2019-08-09T07:35:29Z</time>
      </trkpt>
      <trkpt lat="44.12731" lon="5.89611">
        <ele>760</ele>
        <time>2019-08-09T07:35:30Z</time>
      </trkpt>
      <trkpt lat="44.1273" lon="5.89608">
        <ele>760</ele>
        <time>2019-08-09T07:35:31Z</time>
      </trkpt>
      <trkpt lat="44.12729" lon="5.89605">
        <ele>760</ele>
        <time>2019-08-09T07:35:32Z</time>
      </trkpt>
      <trkpt lat="44.12727" lon="5.89602">
        <ele>761</ele>
        <time>2019-08-09T07:35:33Z</time>
      </trkpt>
      <trkpt lat="44.12726" lon="5.89598">
        <ele>762</ele>
        <time>2019-08-09T07:35:34Z</time>
      </trkpt>
      <trkpt lat="44.12725" lon="5.89596">
        <ele>763</ele>
        <time>2019-08-09T07:35:35Z</time>
      </trkpt>
      <trkpt lat="44.12723" lon="5.89593">
        <ele>764</ele>
        <time>2019-08-09T07:35:36Z</time>
      </trkpt>
      <trkpt lat="44.12722" lon="5.8959">
        <ele>765</ele>
        <time>2019-08-09T07:35:37Z</time>
      </trkpt>
      <trkpt lat="44.1272" lon="5.89588">
        <ele>766</ele>
        <time>2019-08-09T07:35:38Z</time>
      </trkpt>
      <trkpt lat="44.12718" lon="5.89585">
        <ele>767</ele>
        <time>2019-08-09T07:35:39Z</time>
      </trkpt>
      <trkpt lat="44.12715" lon="5.89583">
        <ele>768</ele>
        <time>2019-08-09T07:35:40Z</time>
      </trkpt>
      <trkpt lat="44.12713" lon="5.8958">
        <ele>769</ele>
        <time>2019-08-09T07:35:41Z</time>
      </trkpt>
      <trkpt lat="44.12709" lon="5.89577">
        <ele>770</ele>
        <time>2019-08-09T07:35:42Z</time>
      </trkpt>
      <trkpt lat="44.12706" lon="5.89575">
        <ele>771</ele>
        <time>2019-08-09T07:35:43Z</time>
      </trkpt>
      <trkpt lat="44.12703" lon="5.89573">
        <ele>772</ele>
        <time>2019-08-09T07:35:44Z</time>
      </trkpt>
      <trkpt lat="44.12699" lon="5.89572">
        <ele>773</ele>
        <time>2019-08-09T07:35:45Z</time>
      </trkpt>
      <trkpt lat="44.12695" lon="5.8957">
        <ele>773</ele>
        <time>2019-08-09T07:35:46Z</time>
      </trkpt>
      <trkpt lat="44.12691" lon="5.89569">
        <ele>773</ele>
        <time>2019-08-09T07:35:47Z</time>
      </trkpt>
      <trkpt lat="44.12687" lon="5.89567">
        <ele>773</ele>
        <time>2019-08-09T07:35:48Z</time>
      </trkpt>
      <trkpt lat="44.12683" lon="5.89566">
        <ele>773</ele>
        <time>2019-08-09T07:35:49Z</time>
      </trkpt>
      <trkpt lat="44.12677" lon="5.89565">
        <ele>773</ele>
        <time>2019-08-09T07:35:50Z</time>
      </trkpt>
      <trkpt lat="44.12673" lon="5.89564">
        <ele>774</ele>
        <time>2019-08-09T07:35:51Z</time>
      </trkpt>
      <trkpt lat="44.12668" lon="5.89562">
        <ele>775</ele>
        <time>2019-08-09T07:35:52Z</time>
      </trkpt>
      <trkpt lat="44.12663" lon="5.89561">
        <ele>776</ele>
        <time>2019-08-09T07:35:53Z</time>
      </trkpt>
      <trkpt lat="44.12659" lon="5.8956">
        <ele>777</ele>
        <time>2019-08-09T07:35:54Z</time>
      </trkpt>
      <trkpt lat="44.12653" lon="5.89559">
        <ele>778</ele>
        <time>2019-08-09T07:35:55Z</time>
      </trkpt>
      <trkpt lat="44.12648" lon="5.89557">
        <ele>778</ele>
        <time>2019-08-09T07:35:56Z</time>
      </trkpt>
      <trkpt lat="44.12643" lon="5.89555">
        <ele>779</ele>
        <time>2019-08-09T07:35:57Z</time>
      </trkpt>
      <trkpt lat="44.12638" lon="5.89553">
        <ele>779</ele>
        <time>2019-08-09T07:35:58Z</time>
      </trkpt>
      <trkpt lat="44.12633" lon="5.89552">
        <ele>779</ele>
        <time>2019-08-09T07:35:59Z</time>
      </trkpt>
      <trkpt lat="44.12627" lon="5.8955">
        <ele>779</ele>
        <time>2019-08-09T07:36:00Z</time>
      </trkpt>
      <trkpt lat="44.12622" lon="5.89547">
        <ele>779</ele>
        <time>2019-08-09T07:36:01Z</time>
      </trkpt>
      <trkpt lat="44.12618" lon="5.89542">
        <ele>779</ele>
        <time>2019-08-09T07:36:02Z</time>
      </trkpt>
      <trkpt lat="44.12617" lon="5.89535">
        <ele>780</ele>
        <time>2019-08-09T07:36:03Z</time>
      </trkpt>
      <trkpt lat="44.12617" lon="5.89527">
        <ele>780</ele>
        <time>2019-08-09T07:36:04Z</time>
      </trkpt>
      <trkpt lat="44.12618" lon="5.89518">
        <ele>780</ele>
        <time>2019-08-09T07:36:05Z</time>
      </trkpt>
      <trkpt lat="44.12619" lon="5.89511">
        <ele>780</ele>
        <time>2019-08-09T07:36:06Z</time>
      </trkpt>
      <trkpt lat="44.12622" lon="5.89506">
        <ele>780</ele>
        <time>2019-08-09T07:36:07Z</time>
      </trkpt>
      <trkpt lat="44.12626" lon="5.89501">
        <ele>780</ele>
        <time>2019-08-09T07:36:08Z</time>
      </trkpt>
      <trkpt lat="44.1263" lon="5.89497">
        <ele>780</ele>
        <time>2019-08-09T07:36:09Z</time>
      </trkpt>
      <trkpt lat="44.12634" lon="5.89494">
        <ele>780</ele>
        <time>2019-08-09T07:36:10Z</time>
      </trkpt>
      <trkpt lat="44.12637" lon="5.89491">
        <ele>780</ele>
        <time>2019-08-09T07:36:11Z</time>
      </trkpt>
      <trkpt lat="44.1264" lon="5.89489">
        <ele>780</ele>
        <time>2019-08-09T07:36:12Z</time>
      </trkpt>
      <trkpt lat="44.12643" lon="5.89486">
        <ele>780</ele>
        <time>2019-08-09T07:36:13Z</time>
      </trkpt>
      <trkpt lat="44.12646" lon="5.89483">
        <ele>780</ele>
        <time>2019-08-09T07:36:14Z</time>
      </trkpt>
      <trkpt lat="44.12648" lon="5.89481">
        <ele>780</ele>
        <time>2019-08-09T07:36:15Z</time>
      </trkpt>
      <trkpt lat="44.12651" lon="5.89479">
        <ele>780</ele>
        <time>2019-08-09T07:36:16Z</time>
      </trkpt>
      <trkpt lat="44.12653" lon="5.89476">
        <ele>780</ele>
        <time>2019-08-09T07:36:17Z</time>
      </trkpt>
      <trkpt lat="44.12656" lon="5.89474">
        <ele>780</ele>
        <time>2019-08-09T07:36:18Z</time>
      </trkpt>
      <trkpt lat="44.12658" lon="5.89471">
        <ele>780</ele>
        <time>2019-08-09T07:36:19Z</time>
      </trkpt>
      <trkpt lat="44.12661" lon="5.89469">
        <ele>780</ele>
        <time>2019-08-09T07:36:20Z</time>
      </trkpt>
      <trkpt lat="44.12663" lon="5.89467">
        <ele>780</ele>
        <time>2019-08-09T07:36:21Z</time>
      </trkpt>
      <trkpt lat="44.12664" lon="5.89465">
        <ele>780</ele>
        <time>2019-08-09T07:36:22Z</time>
      </trkpt>
      <trkpt lat="44.12666" lon="5.89463">
        <ele>780</ele>
        <time>2019-08-09T07:36:23Z</time>
      </trkpt>
      <trkpt lat="44.12669" lon="5.8946">
        <ele>780</ele>
        <time>2019-08-09T07:36:24Z</time>
      </trkpt>
      <trkpt lat="44.1267" lon="5.89457">
        <ele>780</ele>
        <time>2019-08-09T07:36:25Z</time>
      </trkpt>
      <trkpt lat="44.12672" lon="5.89454">
        <ele>780</ele>
        <time>2019-08-09T07:36:26Z</time>
      </trkpt>
      <trkpt lat="44.12673" lon="5.8945">
        <ele>780</ele>
        <time>2019-08-09T07:36:27Z</time>
      </trkpt>
      <trkpt lat="44.12674" lon="5.89446">
        <ele>780</ele>
        <time>2019-08-09T07:36:28Z</time>
      </trkpt>
      <trkpt lat="44.12675" lon="5.89442">
        <ele>780</ele>
        <time>2019-08-09T07:36:29Z</time>
      </trkpt>
      <trkpt lat="44.12676" lon="5.89438">
        <ele>780</ele>
        <time>2019-08-09T07:36:30Z</time>
      </trkpt>
      <trkpt lat="44.12676" lon="5.89434">
        <ele>780</ele>
        <time>2019-08-09T07:36:31Z</time>
      </trkpt>
      <trkpt lat="44.12677" lon="5.8943">
        <ele>780</ele>
        <time>2019-08-09T07:36:32Z</time>
      </trkpt>
      <trkpt lat="44.12677" lon="5.89425">
        <ele>780</ele>
        <time>2019-08-09T07:36:33Z</time>
      </trkpt>
      <trkpt lat="44.12677" lon="5.89421">
        <ele>780</ele>
        <time>2019-08-09T07:36:34Z</time>
      </trkpt>
      <trkpt lat="44.12678" lon="5.89417">
        <ele>780</ele>
        <time>2019-08-09T07:36:35Z</time>
      </trkpt>
      <trkpt lat="44.12678" lon="5.89413">
        <ele>780</ele>
        <time>2019-08-09T07:36:36Z</time>
      </trkpt>
      <trkpt lat="44.12678" lon="5.89409">
        <ele>780</ele>
        <time>2019-08-09T07:36:37Z</time>
      </trkpt>
      <trkpt lat="44.12678" lon="5.89406">
        <ele>780</ele>
        <time>2019-08-09T07:36:38Z</time>
      </trkpt>
      <trkpt lat="44.12677" lon="5.89402">
        <ele>780</ele>
        <time>2019-08-09T07:36:39Z</time>
      </trkpt>
      <trkpt lat="44.12677" lon="5.89399">
        <ele>780</ele>
        <time>2019-08-09T07:36:40Z</time>
      </trkpt>
      <trkpt lat="44.12677" lon="5.89396">
        <ele>780</ele>
        <time>2019-08-09T07:36:41Z</time>
      </trkpt>
      <trkpt lat="44.12677" lon="5.89392">
        <ele>780</ele>
        <time>2019-08-09T07:36:42Z</time>
      </trkpt>
      <trkpt lat="44.12677" lon="5.89389">
        <ele>780</ele>
        <time>2019-08-09T07:36:43Z</time>
      </trkpt>
      <trkpt lat="44.12677" lon="5.89385">
        <ele>780</ele>
        <time>2019-08-09T07:36:44Z</time>
      </trkpt>
      <trkpt lat="44.12676" lon="5.89382">
        <ele>781</ele>
        <time>2019-08-09T07:36:45Z</time>
      </trkpt>
      <trkpt lat="44.12676" lon="5.89379">
        <ele>781</ele>
        <time>2019-08-09T07:36:46Z</time>
      </trkpt>
      <trkpt lat="44.12676" lon="5.89375">
        <ele>782</ele>
        <time>2019-08-09T07:36:47Z</time>
      </trkpt>
      <trkpt lat="44.12675" lon="5.89372">
        <ele>782</ele>
        <time>2019-08-09T07:36:48Z</time>
      </trkpt>
      <trkpt lat="44.12675" lon="5.89369">
        <ele>783</ele>
        <time>2019-08-09T07:36:49Z</time>
      </trkpt>
      <trkpt lat="44.12674" lon="5.89365">
        <ele>783</ele>
        <time>2019-08-09T07:36:50Z</time>
      </trkpt>
      <trkpt lat="44.12674" lon="5.89362">
        <ele>784</ele>
        <time>2019-08-09T07:36:51Z</time>
      </trkpt>
      <trkpt lat="44.12673" lon="5.89359">
        <ele>785</ele>
        <time>2019-08-09T07:36:52Z</time>
      </trkpt>
      <trkpt lat="44.12672" lon="5.89355">
        <ele>786</ele>
        <time>2019-08-09T07:36:53Z</time>
      </trkpt>
      <trkpt lat="44.12672" lon="5.89352">
        <ele>786</ele>
        <time>2019-08-09T07:36:54Z</time>
      </trkpt>
      <trkpt lat="44.12671" lon="5.89348">
        <ele>787</ele>
        <time>2019-08-09T07:36:55Z</time>
      </trkpt>
      <trkpt lat="44.12669" lon="5.89344">
        <ele>787</ele>
        <time>2019-08-09T07:36:56Z</time>
      </trkpt>
      <trkpt lat="44.12668" lon="5.89339">
        <ele>787</ele>
        <time>2019-08-09T07:36:57Z</time>
      </trkpt>
      <trkpt lat="44.12667" lon="5.89335">
        <ele>787</ele>
        <time>2019-08-09T07:36:58Z</time>
      </trkpt>
      <trkpt lat="44.12665" lon="5.89331">
        <ele>787</ele>
        <time>2019-08-09T07:36:59Z</time>
      </trkpt>
      <trkpt lat="44.12663" lon="5.89326">
        <ele>787</ele>
        <time>2019-08-09T07:37:00Z</time>
      </trkpt>
      <trkpt lat="44.1266" lon="5.89323">
        <ele>788</ele>
        <time>2019-08-09T07:37:01Z</time>
      </trkpt>
      <trkpt lat="44.12658" lon="5.89319">
        <ele>788</ele>
        <time>2019-08-09T07:37:02Z</time>
      </trkpt>
      <trkpt lat="44.12656" lon="5.89315">
        <ele>789</ele>
        <time>2019-08-09T07:37:03Z</time>
      </trkpt>
      <trkpt lat="44.12653" lon="5.8931">
        <ele>790</ele>
        <time>2019-08-09T07:37:04Z</time>
      </trkpt>
      <trkpt lat="44.12651" lon="5.89305">
        <ele>791</ele>
        <time>2019-08-09T07:37:05Z</time>
      </trkpt>
      <trkpt lat="44.12648" lon="5.89301">
        <ele>792</ele>
        <time>2019-08-09T07:37:06Z</time>
      </trkpt>
      <trkpt lat="44.12646" lon="5.89296">
        <ele>793</ele>
        <time>2019-08-09T07:37:07Z</time>
      </trkpt>
      <trkpt lat="44.12643" lon="5.89292">
        <ele>794</ele>
        <time>2019-08-09T07:37:08Z</time>
      </trkpt>
      <trkpt lat="44.1264" lon="5.89288">
        <ele>794</ele>
        <time>2019-08-09T07:37:09Z</time>
      </trkpt>
      <trkpt lat="44.12636" lon="5.89284">
        <ele>795</ele>
        <time>2019-08-09T07:37:10Z</time>
      </trkpt>
      <trkpt lat="44.12632" lon="5.89278">
        <ele>795</ele>
        <time>2019-08-09T07:37:11Z</time>
      </trkpt>
      <trkpt lat="44.12628" lon="5.89274">
        <ele>795</ele>
        <time>2019-08-09T07:37:12Z</time>
      </trkpt>
      <trkpt lat="44.12624" lon="5.89269">
        <ele>795</ele>
        <time>2019-08-09T07:37:13Z</time>
      </trkpt>
      <trkpt lat="44.12621" lon="5.89265">
        <ele>795</ele>
        <time>2019-08-09T07:37:14Z</time>
      </trkpt>
      <trkpt lat="44.12617" lon="5.89261">
        <ele>794</ele>
        <time>2019-08-09T07:37:15Z</time>
      </trkpt>
      <trkpt lat="44.12614" lon="5.89258">
        <ele>793</ele>
        <time>2019-08-09T07:37:16Z</time>
      </trkpt>
      <trkpt lat="44.12611" lon="5.89254">
        <ele>792</ele>
        <time>2019-08-09T07:37:17Z</time>
      </trkpt>
      <trkpt lat="44.12608" lon="5.8925">
        <ele>791</ele>
        <time>2019-08-09T07:37:18Z</time>
      </trkpt>
      <trkpt lat="44.12604" lon="5.89245">
        <ele>790</ele>
        <time>2019-08-09T07:37:19Z</time>
      </trkpt>
      <trkpt lat="44.12601" lon="5.89241">
        <ele>789</ele>
        <time>2019-08-09T07:37:20Z</time>
      </trkpt>
      <trkpt lat="44.12598" lon="5.89237">
        <ele>788</ele>
        <time>2019-08-09T07:37:21Z</time>
      </trkpt>
      <trkpt lat="44.12595" lon="5.89234">
        <ele>788</ele>
        <time>2019-08-09T07:37:22Z</time>
      </trkpt>
      <trkpt lat="44.12592" lon="5.8923">
        <ele>788</ele>
        <time>2019-08-09T07:37:23Z</time>
      </trkpt>
      <trkpt lat="44.12589" lon="5.89225">
        <ele>788</ele>
        <time>2019-08-09T07:37:24Z</time>
      </trkpt>
      <trkpt lat="44.12585" lon="5.89221">
        <ele>788</ele>
        <time>2019-08-09T07:37:25Z</time>
      </trkpt>
      <trkpt lat="44.12582" lon="5.89218">
        <ele>788</ele>
        <time>2019-08-09T07:37:26Z</time>
      </trkpt>
      <trkpt lat="44.12579" lon="5.89214">
        <ele>788</ele>
        <time>2019-08-09T07:37:27Z</time>
      </trkpt>
      <trkpt lat="44.12576" lon="5.89211">
        <ele>788</ele>
        <time>2019-08-09T07:37:28Z</time>
      </trkpt>
      <trkpt lat="44.12573" lon="5.89207">
        <ele>788</ele>
        <time>2019-08-09T07:37:29Z</time>
      </trkpt>
      <trkpt lat="44.1257" lon="5.89203">
        <ele>788</ele>
        <time>2019-08-09T07:37:30Z</time>
      </trkpt>
      <trkpt lat="44.12567" lon="5.89199">
        <ele>788</ele>
        <time>2019-08-09T07:37:31Z</time>
      </trkpt>
      <trkpt lat="44.12564" lon="5.89195">
        <ele>788</ele>
        <time>2019-08-09T07:37:32Z</time>
      </trkpt>
      <trkpt lat="44.12562" lon="5.89192">
        <ele>788</ele>
        <time>2019-08-09T07:37:33Z</time>
      </trkpt>
      <trkpt lat="44.12559" lon="5.89189">
        <ele>788</ele>
        <time>2019-08-09T07:37:34Z</time>
      </trkpt>
      <trkpt lat="44.12556" lon="5.89185">
        <ele>788</ele>
        <time>2019-08-09T07:37:35Z</time>
      </trkpt>
      <trkpt lat="44.12553" lon="5.89182">
        <ele>788</ele>
        <time>2019-08-09T07:37:36Z</time>
      </trkpt>
      <trkpt lat="44.12551" lon="5.89179">
        <ele>788</ele>
        <time>2019-08-09T07:37:37Z</time>
      </trkpt>
      <trkpt lat="44.12548" lon="5.89176">
        <ele>788</ele>
        <time>2019-08-09T07:37:38Z</time>
      </trkpt>
      <trkpt lat="44.12545" lon="5.89173">
        <ele>788</ele>
        <time>2019-08-09T07:37:39Z</time>
      </trkpt>
      <trkpt lat="44.12543" lon="5.8917">
        <ele>788</ele>
        <time>2019-08-09T07:37:40Z</time>
      </trkpt>
      <trkpt lat="44.12541" lon="5.89167">
        <ele>788</ele>
        <time>2019-08-09T07:37:41Z</time>
      </trkpt>
      <trkpt lat="44.12539" lon="5.89165">
        <ele>788</ele>
        <time>2019-08-09T07:37:42Z</time>
      </trkpt>
      <trkpt lat="44.12537" lon="5.89163">
        <ele>788</ele>
        <time>2019-08-09T07:37:43Z</time>
      </trkpt>
      <trkpt lat="44.12534" lon="5.8916">
        <ele>788</ele>
        <time>2019-08-09T07:37:44Z</time>
      </trkpt>
      <trkpt lat="44.12532" lon="5.89158">
        <ele>788</ele>
        <time>2019-08-09T07:37:45Z</time>
      </trkpt>
      <trkpt lat="44.1253" lon="5.89155">
        <ele>788</ele>
        <time>2019-08-09T07:37:46Z</time>
      </trkpt>
      <trkpt lat="44.12528" lon="5.89153">
        <ele>788</ele>
        <time>2019-08-09T07:37:47Z</time>
      </trkpt>
      <trkpt lat="44.12526" lon="5.8915">
        <ele>788</ele>
        <time>2019-08-09T07:37:48Z</time>
      </trkpt>
      <trkpt lat="44.12525" lon="5.89148">
        <ele>788</ele>
        <time>2019-08-09T07:37:49Z</time>
      </trkpt>
      <trkpt lat="44.12523" lon="5.89146">
        <ele>789</ele>
        <time>2019-08-09T07:37:50Z</time>
      </trkpt>
      <trkpt lat="44.12521" lon="5.89143">
        <ele>789</ele>
        <time>2019-08-09T07:37:51Z</time>
      </trkpt>
      <trkpt lat="44.1252" lon="5.89141">
        <ele>789</ele>
        <time>2019-08-09T07:37:52Z</time>
      </trkpt>
      <trkpt lat="44.12518" lon="5.89138">
        <ele>790</ele>
        <time>2019-08-09T07:37:53Z</time>
      </trkpt>
      <trkpt lat="44.12516" lon="5.89136">
        <ele>790</ele>
        <time>2019-08-09T07:37:54Z</time>
      </trkpt>
      <trkpt lat="44.12515" lon="5.89134">
        <ele>790</ele>
        <time>2019-08-09T07:37:55Z</time>
      </trkpt>
      <trkpt lat="44.12514" lon="5.89131">
        <ele>790</ele>
        <time>2019-08-09T07:37:56Z</time>
      </trkpt>
      <trkpt lat="44.12513" lon="5.89129">
        <ele>790</ele>
        <time>2019-08-09T07:37:57Z</time>
      </trkpt>
      <trkpt lat="44.12511" lon="5.89126">
        <ele>790</ele>
        <time>2019-08-09T07:37:58Z</time>
      </trkpt>
      <trkpt lat="44.1251" lon="5.89123">
        <ele>790</ele>
        <time>2019-08-09T07:37:59Z</time>
      </trkpt>
      <trkpt lat="44.12509" lon="5.8912">
        <ele>790</ele>
        <time>2019-08-09T07:38:00Z</time>
      </trkpt>
      <trkpt lat="44.12508" lon="5.89117">
        <ele>790</ele>
        <time>2019-08-09T07:38:01Z</time>
      </trkpt>
      <trkpt lat="44.12508" lon="5.89114">
        <ele>790</ele>
        <time>2019-08-09T07:38:02Z</time>
      </trkpt>
      <trkpt lat="44.12508" lon="5.89111">
        <ele>790</ele>
        <time>2019-08-09T07:38:03Z</time>
      </trkpt>
      <trkpt lat="44.12508" lon="5.89107">
        <ele>790</ele>
        <time>2019-08-09T07:38:04Z</time>
      </trkpt>
      <trkpt lat="44.12508" lon="5.89103">
        <ele>791</ele>
        <time>2019-08-09T07:38:05Z</time>
      </trkpt>
      <trkpt lat="44.12509" lon="5.89099">
        <ele>791</ele>
        <time>2019-08-09T07:38:06Z</time>
      </trkpt>
      <trkpt lat="44.12511" lon="5.89095">
        <ele>791</ele>
        <time>2019-08-09T07:38:07Z</time>
      </trkpt>
      <trkpt lat="44.12513" lon="5.89091">
        <ele>792</ele>
        <time>2019-08-09T07:38:08Z</time>
      </trkpt>
      <trkpt lat="44.12514" lon="5.89088">
        <ele>792</ele>
        <time>2019-08-09T07:38:09Z</time>
      </trkpt>
      <trkpt lat="44.12517" lon="5.89086">
        <ele>792</ele>
        <time>2019-08-09T07:38:10Z</time>
      </trkpt>
      <trkpt lat="44.1252" lon="5.89084">
        <ele>792</ele>
        <time>2019-08-09T07:38:11Z</time>
      </trkpt>
      <trkpt lat="44.12523" lon="5.89083">
        <ele>792</ele>
        <time>2019-08-09T07:38:12Z</time>
      </trkpt>
      <trkpt lat="44.12525" lon="5.89082">
        <ele>793</ele>
        <time>2019-08-09T07:38:13Z</time>
      </trkpt>
      <trkpt lat="44.12528" lon="5.89081">
        <ele>793</ele>
        <time>2019-08-09T07:38:14Z</time>
      </trkpt>
      <trkpt lat="44.12531" lon="5.8908">
        <ele>794</ele>
        <time>2019-08-09T07:38:15Z</time>
      </trkpt>
      <trkpt lat="44.12533" lon="5.89079">
        <ele>794</ele>
        <time>2019-08-09T07:38:16Z</time>
      </trkpt>
      <trkpt lat="44.12535" lon="5.89078">
        <ele>795</ele>
        <time>2019-08-09T07:38:17Z</time>
      </trkpt>
      <trkpt lat="44.12538" lon="5.89076">
        <ele>796</ele>
        <time>2019-08-09T07:38:18Z</time>
      </trkpt>
      <trkpt lat="44.1254" lon="5.89075">
        <ele>796</ele>
        <time>2019-08-09T07:38:19Z</time>
      </trkpt>
      <trkpt lat="44.12543" lon="5.89075">
        <ele>796</ele>
        <time>2019-08-09T07:38:20Z</time>
      </trkpt>
      <trkpt lat="44.12545" lon="5.89074">
        <ele>797</ele>
        <time>2019-08-09T07:38:21Z</time>
      </trkpt>
      <trkpt lat="44.12548" lon="5.89073">
        <ele>797</ele>
        <time>2019-08-09T07:38:22Z</time>
      </trkpt>
      <trkpt lat="44.1255" lon="5.89072">
        <ele>797</ele>
        <time>2019-08-09T07:38:23Z</time>
      </trkpt>
      <trkpt lat="44.12553" lon="5.89071">
        <ele>798</ele>
        <time>2019-08-09T07:38:24Z</time>
      </trkpt>
      <trkpt lat="44.12555" lon="5.89069">
        <ele>798</ele>
        <time>2019-08-09T07:38:25Z</time>
      </trkpt>
      <trkpt lat="44.12558" lon="5.89068">
        <ele>799</ele>
        <time>2019-08-09T07:38:26Z</time>
      </trkpt>
      <trkpt lat="44.1256" lon="5.89066">
        <ele>799</ele>
        <time>2019-08-09T07:38:27Z</time>
      </trkpt>
      <trkpt lat="44.12563" lon="5.89065">
        <ele>800</ele>
        <time>2019-08-09T07:38:28Z</time>
      </trkpt>
      <trkpt lat="44.12566" lon="5.89064">
        <ele>800</ele>
        <time>2019-08-09T07:38:29Z</time>
      </trkpt>
      <trkpt lat="44.12569" lon="5.89062">
        <ele>800</ele>
        <time>2019-08-09T07:38:30Z</time>
      </trkpt>
      <trkpt lat="44.12571" lon="5.89061">
        <ele>801</ele>
        <time>2019-08-09T07:38:31Z</time>
      </trkpt>
      <trkpt lat="44.12574" lon="5.89059">
        <ele>801</ele>
        <time>2019-08-09T07:38:32Z</time>
      </trkpt>
      <trkpt lat="44.12577" lon="5.89058">
        <ele>801</ele>
        <time>2019-08-09T07:38:33Z</time>
      </trkpt>
      <trkpt lat="44.1258" lon="5.89056">
        <ele>802</ele>
        <time>2019-08-09T07:38:34Z</time>
      </trkpt>
      <trkpt lat="44.12583" lon="5.89055">
        <ele>802</ele>
        <time>2019-08-09T07:38:35Z</time>
      </trkpt>
      <trkpt lat="44.12586" lon="5.89053">
        <ele>803</ele>
        <time>2019-08-09T07:38:36Z</time>
      </trkpt>
      <trkpt lat="44.12589" lon="5.89052">
        <ele>803</ele>
        <time>2019-08-09T07:38:37Z</time>
      </trkpt>
      <trkpt lat="44.12592" lon="5.8905">
        <ele>804</ele>
        <time>2019-08-09T07:38:38Z</time>
      </trkpt>
      <trkpt lat="44.12595" lon="5.89049">
        <ele>805</ele>
        <time>2019-08-09T07:38:39Z</time>
      </trkpt>
      <trkpt lat="44.12599" lon="5.89048">
        <ele>805</ele>
        <time>2019-08-09T07:38:40Z</time>
      </trkpt>
      <trkpt lat="44.12602" lon="5.89047">
        <ele>806</ele>
        <time>2019-08-09T07:38:41Z</time>
      </trkpt>
      <trkpt lat="44.12605" lon="5.89046">
        <ele>806</ele>
        <time>2019-08-09T07:38:42Z</time>
      </trkpt>
      <trkpt lat="44.12608" lon="5.89045">
        <ele>806</ele>
        <time>2019-08-09T07:38:43Z</time>
      </trkpt>
      <trkpt lat="44.12612" lon="5.89044">
        <ele>807</ele>
        <time>2019-08-09T07:38:44Z</time>
      </trkpt>
      <trkpt lat="44.12615" lon="5.89043">
        <ele>807</ele>
        <time>2019-08-09T07:38:45Z</time>
      </trkpt>
      <trkpt lat="44.12619" lon="5.89042">
        <ele>808</ele>
        <time>2019-08-09T07:38:46Z</time>
      </trkpt>
      <trkpt lat="44.12623" lon="5.89041">
        <ele>808</ele>
        <time>2019-08-09T07:38:47Z</time>
      </trkpt>
      <trkpt lat="44.12627" lon="5.89041">
        <ele>809</ele>
        <time>2019-08-09T07:38:48Z</time>
      </trkpt>
      <trkpt lat="44.12631" lon="5.89041">
        <ele>809</ele>
        <time>2019-08-09T07:38:49Z</time>
      </trkpt>
      <trkpt lat="44.12635" lon="5.89041">
        <ele>809</ele>
        <time>2019-08-09T07:38:50Z</time>
      </trkpt>
      <trkpt lat="44.1264" lon="5.89041">
        <ele>810</ele>
        <time>2019-08-09T07:38:51Z</time>
      </trkpt>
      <trkpt lat="44.12644" lon="5.8904">
        <ele>810</ele>
        <time>2019-08-09T07:38:52Z</time>
      </trkpt>
      <trkpt lat="44.12649" lon="5.8904">
        <ele>810</ele>
        <time>2019-08-09T07:38:53Z</time>
      </trkpt>
      <trkpt lat="44.12653" lon="5.89039">
        <ele>811</ele>
        <time>2019-08-09T07:38:54Z</time>
      </trkpt>
      <trkpt lat="44.12658" lon="5.89038">
        <ele>811</ele>
        <time>2019-08-09T07:38:55Z</time>
      </trkpt>
      <trkpt lat="44.12663" lon="5.89038">
        <ele>811</ele>
        <time>2019-08-09T07:38:56Z</time>
      </trkpt>
      <trkpt lat="44.12668" lon="5.89037">
        <ele>812</ele>
        <time>2019-08-09T07:38:57Z</time>
      </trkpt>
      <trkpt lat="44.12672" lon="5.89037">
        <ele>812</ele>
        <time>2019-08-09T07:38:58Z</time>
      </trkpt>
      <trkpt lat="44.12677" lon="5.89036">
        <ele>812</ele>
        <time>2019-08-09T07:38:59Z</time>
      </trkpt>
      <trkpt lat="44.12682" lon="5.89036">
        <ele>813</ele>
        <time>2019-08-09T07:39:00Z</time>
      </trkpt>
      <trkpt lat="44.12687" lon="5.89036">
        <ele>813</ele>
        <time>2019-08-09T07:39:01Z</time>
      </trkpt>
      <trkpt lat="44.12691" lon="5.89035">
        <ele>813</ele>
        <time>2019-08-09T07:39:02Z</time>
      </trkpt>
      <trkpt lat="44.12696" lon="5.89035">
        <ele>814</ele>
        <time>2019-08-09T07:39:03Z</time>
      </trkpt>
      <trkpt lat="44.12701" lon="5.89035">
        <ele>814</ele>
        <time>2019-08-09T07:39:04Z</time>
      </trkpt>
      <trkpt lat="44.12706" lon="5.89035">
        <ele>814</ele>
        <time>2019-08-09T07:39:05Z</time>
      </trkpt>
      <trkpt lat="44.12711" lon="5.89035">
        <ele>815</ele>
        <time>2019-08-09T07:39:06Z</time>
      </trkpt>
      <trkpt lat="44.12716" lon="5.89035">
        <ele>815</ele>
        <time>2019-08-09T07:39:07Z</time>
      </trkpt>
      <trkpt lat="44.1272" lon="5.89035">
        <ele>815</ele>
        <time>2019-08-09T07:39:08Z</time>
      </trkpt>
      <trkpt lat="44.12725" lon="5.89036">
        <ele>815</ele>
        <time>2019-08-09T07:39:09Z</time>
      </trkpt>
      <trkpt lat="44.1273" lon="5.89036">
        <ele>815</ele>
        <time>2019-08-09T07:39:10Z</time>
      </trkpt>
      <trkpt lat="44.12734" lon="5.89036">
        <ele>815</ele>
        <time>2019-08-09T07:39:11Z</time>
      </trkpt>
      <trkpt lat="44.12738" lon="5.89036">
        <ele>815</ele>
        <time>2019-08-09T07:39:12Z</time>
      </trkpt>
      <trkpt lat="44.12742" lon="5.89035">
        <ele>815</ele>
        <time>2019-08-09T07:39:13Z</time>
      </trkpt>
      <trkpt lat="44.12746" lon="5.89034">
        <ele>815</ele>
        <time>2019-08-09T07:39:14Z</time>
      </trkpt>
      <trkpt lat="44.1275" lon="5.89031">
        <ele>815</ele>
        <time>2019-08-09T07:39:15Z</time>
      </trkpt>
      <trkpt lat="44.12753" lon="5.89028">
        <ele>815</ele>
        <time>2019-08-09T07:39:16Z</time>
      </trkpt>
      <trkpt lat="44.12755" lon="5.89023">
        <ele>815</ele>
        <time>2019-08-09T07:39:17Z</time>
      </trkpt>
      <trkpt lat="44.12756" lon="5.89018">
        <ele>815</ele>
        <time>2019-08-09T07:39:18Z</time>
      </trkpt>
      <trkpt lat="44.12757" lon="5.89013">
        <ele>815</ele>
        <time>2019-08-09T07:39:19Z</time>
      </trkpt>
      <trkpt lat="44.12757" lon="5.89008">
        <ele>815</ele>
        <time>2019-08-09T07:39:20Z</time>
      </trkpt>
      <trkpt lat="44.12756" lon="5.89004">
        <ele>815</ele>
        <time>2019-08-09T07:39:21Z</time>
      </trkpt>
      <trkpt lat="44.12754" lon="5.88999">
        <ele>815</ele>
        <time>2019-08-09T07:39:22Z</time>
      </trkpt>
      <trkpt lat="44.12751" lon="5.88995">
        <ele>815</ele>
        <time>2019-08-09T07:39:23Z</time>
      </trkpt>
      <trkpt lat="44.12748" lon="5.88992">
        <ele>815</ele>
        <time>2019-08-09T07:39:24Z</time>
      </trkpt>
      <trkpt lat="44.12744" lon="5.88989">
        <ele>815</ele>
        <time>2019-08-09T07:39:25Z</time>
      </trkpt>
      <trkpt lat="44.1274" lon="5.88987">
        <ele>815</ele>
        <time>2019-08-09T07:39:26Z</time>
      </trkpt>
      <trkpt lat="44.12737" lon="5.88984">
        <ele>815</ele>
        <time>2019-08-09T07:39:27Z</time>
      </trkpt>
      <trkpt lat="44.12734" lon="5.88982">
        <ele>814</ele>
        <time>2019-08-09T07:39:28Z</time>
      </trkpt>
      <trkpt lat="44.1273" lon="5.8898">
        <ele>814</ele>
        <time>2019-08-09T07:39:29Z</time>
      </trkpt>
      <trkpt lat="44.12727" lon="5.88977">
        <ele>814</ele>
        <time>2019-08-09T07:39:30Z</time>
      </trkpt>
      <trkpt lat="44.12724" lon="5.88975">
        <ele>814</ele>
        <time>2019-08-09T07:39:31Z</time>
      </trkpt>
      <trkpt lat="44.1272" lon="5.88972">
        <ele>814</ele>
        <time>2019-08-09T07:39:32Z</time>
      </trkpt>
      <trkpt lat="44.12717" lon="5.88968">
        <ele>814</ele>
        <time>2019-08-09T07:39:33Z</time>
      </trkpt>
      <trkpt lat="44.12714" lon="5.88965">
        <ele>814</ele>
        <time>2019-08-09T07:39:34Z</time>
      </trkpt>
      <trkpt lat="44.12711" lon="5.88962">
        <ele>813</ele>
        <time>2019-08-09T07:39:35Z</time>
      </trkpt>
      <trkpt lat="44.12709" lon="5.88958">
        <ele>812</ele>
        <time>2019-08-09T07:39:36Z</time>
      </trkpt>
      <trkpt lat="44.12706" lon="5.88954">
        <ele>812</ele>
        <time>2019-08-09T07:39:37Z</time>
      </trkpt>
      <trkpt lat="44.12705" lon="5.8895">
        <ele>811</ele>
        <time>2019-08-09T07:39:38Z</time>
      </trkpt>
      <trkpt lat="44.12703" lon="5.88946">
        <ele>811</ele>
        <time>2019-08-09T07:39:39Z</time>
      </trkpt>
      <trkpt lat="44.12703" lon="5.88942">
        <ele>811</ele>
        <time>2019-08-09T07:39:40Z</time>
      </trkpt>
      <trkpt lat="44.12702" lon="5.88937">
        <ele>811</ele>
        <time>2019-08-09T07:39:41Z</time>
      </trkpt>
      <trkpt lat="44.12702" lon="5.88933">
        <ele>811</ele>
        <time>2019-08-09T07:39:42Z</time>
      </trkpt>
      <trkpt lat="44.12703" lon="5.88929">
        <ele>811</ele>
        <time>2019-08-09T07:39:43Z</time>
      </trkpt>
      <trkpt lat="44.12704" lon="5.88925">
        <ele>811</ele>
        <time>2019-08-09T07:39:44Z</time>
      </trkpt>
      <trkpt lat="44.12705" lon="5.88921">
        <ele>811</ele>
        <time>2019-08-09T07:39:45Z</time>
      </trkpt>
      <trkpt lat="44.12706" lon="5.88917">
        <ele>811</ele>
        <time>2019-08-09T07:39:46Z</time>
      </trkpt>
      <trkpt lat="44.12707" lon="5.88913">
        <ele>811</ele>
        <time>2019-08-09T07:39:47Z</time>
      </trkpt>
      <trkpt lat="44.12708" lon="5.8891">
        <ele>811</ele>
        <time>2019-08-09T07:39:48Z</time>
      </trkpt>
      <trkpt lat="44.1271" lon="5.88906">
        <ele>812</ele>
        <time>2019-08-09T07:39:49Z</time>
      </trkpt>
      <trkpt lat="44.12711" lon="5.88903">
        <ele>812</ele>
        <time>2019-08-09T07:39:50Z</time>
      </trkpt>
      <trkpt lat="44.12713" lon="5.88899">
        <ele>812</ele>
        <time>2019-08-09T07:39:51Z</time>
      </trkpt>
      <trkpt lat="44.12713" lon="5.88896">
        <ele>813</ele>
        <time>2019-08-09T07:39:52Z</time>
      </trkpt>
      <trkpt lat="44.12712" lon="5.88892">
        <ele>813</ele>
        <time>2019-08-09T07:39:53Z</time>
      </trkpt>
      <trkpt lat="44.12712" lon="5.88889">
        <ele>814</ele>
        <time>2019-08-09T07:39:54Z</time>
      </trkpt>
      <trkpt lat="44.12711" lon="5.88885">
        <ele>815</ele>
        <time>2019-08-09T07:39:55Z</time>
      </trkpt>
      <trkpt lat="44.12711" lon="5.88882">
        <ele>816</ele>
        <time>2019-08-09T07:39:56Z</time>
      </trkpt>
      <trkpt lat="44.1271" lon="5.88878">
        <ele>817</ele>
        <time>2019-08-09T07:39:57Z</time>
      </trkpt>
      <trkpt lat="44.1271" lon="5.88875">
        <ele>818</ele>
        <time>2019-08-09T07:39:58Z</time>
      </trkpt>
      <trkpt lat="44.12709" lon="5.88871">
        <ele>819</ele>
        <time>2019-08-09T07:39:59Z</time>
      </trkpt>
      <trkpt lat="44.12709" lon="5.88868">
        <ele>819</ele>
        <time>2019-08-09T07:40:00Z</time>
      </trkpt>
      <trkpt lat="44.12708" lon="5.88864">
        <ele>819</ele>
        <time>2019-08-09T07:40:01Z</time>
      </trkpt>
      <trkpt lat="44.12706" lon="5.8886">
        <ele>819</ele>
        <time>2019-08-09T07:40:02Z</time>
      </trkpt>
      <trkpt lat="44.12705" lon="5.88856">
        <ele>819</ele>
        <time>2019-08-09T07:40:03Z</time>
      </trkpt>
      <trkpt lat="44.12704" lon="5.88852">
        <ele>820</ele>
        <time>2019-08-09T07:40:04Z</time>
      </trkpt>
      <trkpt lat="44.12703" lon="5.88848">
        <ele>820</ele>
        <time>2019-08-09T07:40:05Z</time>
      </trkpt>
      <trkpt lat="44.12701" lon="5.88844">
        <ele>820</ele>
        <time>2019-08-09T07:40:06Z</time>
      </trkpt>
      <trkpt lat="44.127" lon="5.8884">
        <ele>820</ele>
        <time>2019-08-09T07:40:07Z</time>
      </trkpt>
      <trkpt lat="44.127" lon="5.88837">
        <ele>820</ele>
        <time>2019-08-09T07:40:08Z</time>
      </trkpt>
      <trkpt lat="44.12699" lon="5.88834">
        <ele>820</ele>
        <time>2019-08-09T07:40:09Z</time>
      </trkpt>
      <trkpt lat="44.12698" lon="5.8883">
        <ele>820</ele>
        <time>2019-08-09T07:40:10Z</time>
      </trkpt>
      <trkpt lat="44.12698" lon="5.88826">
        <ele>820</ele>
        <time>2019-08-09T07:40:11Z</time>
      </trkpt>
      <trkpt lat="44.12696" lon="5.88823">
        <ele>820</ele>
        <time>2019-08-09T07:40:12Z</time>
      </trkpt>
      <trkpt lat="44.12695" lon="5.88819">
        <ele>820</ele>
        <time>2019-08-09T07:40:13Z</time>
      </trkpt>
      <trkpt lat="44.12693" lon="5.88816">
        <ele>820</ele>
        <time>2019-08-09T07:40:14Z</time>
      </trkpt>
      <trkpt lat="44.12691" lon="5.88812">
        <ele>820</ele>
        <time>2019-08-09T07:40:15Z</time>
      </trkpt>
      <trkpt lat="44.1269" lon="5.88808">
        <ele>820</ele>
        <time>2019-08-09T07:40:16Z</time>
      </trkpt>
      <trkpt lat="44.12688" lon="5.88805">
        <ele>820</ele>
        <time>2019-08-09T07:40:17Z</time>
      </trkpt>
      <trkpt lat="44.12685" lon="5.88802">
        <ele>820</ele>
        <time>2019-08-09T07:40:18Z</time>
      </trkpt>
      <trkpt lat="44.12683" lon="5.88799">
        <ele>820</ele>
        <time>2019-08-09T07:40:19Z</time>
      </trkpt>
      <trkpt lat="44.12681" lon="5.88795">
        <ele>820</ele>
        <time>2019-08-09T07:40:20Z</time>
      </trkpt>
      <trkpt lat="44.12679" lon="5.88793">
        <ele>820</ele>
        <time>2019-08-09T07:40:21Z</time>
      </trkpt>
      <trkpt lat="44.12677" lon="5.88791">
        <ele>820</ele>
        <time>2019-08-09T07:40:22Z</time>
      </trkpt>
      <trkpt lat="44.12675" lon="5.88788">
        <ele>820</ele>
        <time>2019-08-09T07:40:23Z</time>
      </trkpt>
      <trkpt lat="44.12672" lon="5.88786">
        <ele>820</ele>
        <time>2019-08-09T07:40:24Z</time>
      </trkpt>
      <trkpt lat="44.1267" lon="5.88783">
        <ele>820</ele>
        <time>2019-08-09T07:40:25Z</time>
      </trkpt>
      <trkpt lat="44.12668" lon="5.8878">
        <ele>820</ele>
        <time>2019-08-09T07:40:26Z</time>
      </trkpt>
      <trkpt lat="44.12666" lon="5.88778">
        <ele>820</ele>
        <time>2019-08-09T07:40:27Z</time>
      </trkpt>
      <trkpt lat="44.12663" lon="5.88777">
        <ele>820</ele>
        <time>2019-08-09T07:40:28Z</time>
      </trkpt>
      <trkpt lat="44.12661" lon="5.88775">
        <ele>820</ele>
        <time>2019-08-09T07:40:29Z</time>
      </trkpt>
      <trkpt lat="44.12658" lon="5.88773">
        <ele>820</ele>
        <time>2019-08-09T07:40:30Z</time>
      </trkpt>
      <trkpt lat="44.12656" lon="5.88773">
        <ele>820</ele>
        <time>2019-08-09T07:40:31Z</time>
      </trkpt>
      <trkpt lat="44.12653" lon="5.88771">
        <ele>820</ele>
        <time>2019-08-09T07:40:32Z</time>
      </trkpt>
      <trkpt lat="44.1265" lon="5.88769">
        <ele>820</ele>
        <time>2019-08-09T07:40:33Z</time>
      </trkpt>
      <trkpt lat="44.12647" lon="5.88767">
        <ele>820</ele>
        <time>2019-08-09T07:40:34Z</time>
      </trkpt>
      <trkpt lat="44.12644" lon="5.88765">
        <ele>820</ele>
        <time>2019-08-09T07:40:35Z</time>
      </trkpt>
      <trkpt lat="44.12642" lon="5.88763">
        <ele>820</ele>
        <time>2019-08-09T07:40:36Z</time>
      </trkpt>
      <trkpt lat="44.12638" lon="5.88761">
        <ele>819</ele>
        <time>2019-08-09T07:40:37Z</time>
      </trkpt>
      <trkpt lat="44.12636" lon="5.88759">
        <ele>818</ele>
        <time>2019-08-09T07:40:38Z</time>
      </trkpt>
      <trkpt lat="44.12633" lon="5.88758">
        <ele>817</ele>
        <time>2019-08-09T07:40:39Z</time>
      </trkpt>
      <trkpt lat="44.1263" lon="5.88756">
        <ele>817</ele>
        <time>2019-08-09T07:40:40Z</time>
      </trkpt>
      <trkpt lat="44.12628" lon="5.88754">
        <ele>816</ele>
        <time>2019-08-09T07:40:41Z</time>
      </trkpt>
      <trkpt lat="44.12625" lon="5.88752">
        <ele>816</ele>
        <time>2019-08-09T07:40:42Z</time>
      </trkpt>
      <trkpt lat="44.12623" lon="5.8875">
        <ele>815</ele>
        <time>2019-08-09T07:40:43Z</time>
      </trkpt>
      <trkpt lat="44.1262" lon="5.88749">
        <ele>815</ele>
        <time>2019-08-09T07:40:44Z</time>
      </trkpt>
      <trkpt lat="44.12617" lon="5.88747">
        <ele>814</ele>
        <time>2019-08-09T07:40:45Z</time>
      </trkpt>
      <trkpt lat="44.12615" lon="5.88745">
        <ele>814</ele>
        <time>2019-08-09T07:40:46Z</time>
      </trkpt>
      <trkpt lat="44.12613" lon="5.88742">
        <ele>814</ele>
        <time>2019-08-09T07:40:47Z</time>
      </trkpt>
      <trkpt lat="44.12611" lon="5.8874">
        <ele>814</ele>
        <time>2019-08-09T07:40:48Z</time>
      </trkpt>
      <trkpt lat="44.12608" lon="5.88738">
        <ele>814</ele>
        <time>2019-08-09T07:40:49Z</time>
      </trkpt>
      <trkpt lat="44.12606" lon="5.88736">
        <ele>814</ele>
        <time>2019-08-09T07:40:50Z</time>
      </trkpt>
      <trkpt lat="44.12603" lon="5.88733">
        <ele>814</ele>
        <time>2019-08-09T07:40:51Z</time>
      </trkpt>
      <trkpt lat="44.12601" lon="5.8873">
        <ele>814</ele>
        <time>2019-08-09T07:40:52Z</time>
      </trkpt>
      <trkpt lat="44.12598" lon="5.88728">
        <ele>814</ele>
        <time>2019-08-09T07:40:53Z</time>
      </trkpt>
      <trkpt lat="44.12596" lon="5.88726">
        <ele>814</ele>
        <time>2019-08-09T07:40:54Z</time>
      </trkpt>
      <trkpt lat="44.12594" lon="5.88723">
        <ele>814</ele>
        <time>2019-08-09T07:40:55Z</time>
      </trkpt>
      <trkpt lat="44.12592" lon="5.88721">
        <ele>814</ele>
        <time>2019-08-09T07:40:56Z</time>
      </trkpt>
      <trkpt lat="44.12589" lon="5.88718">
        <ele>815</ele>
        <time>2019-08-09T07:40:57Z</time>
      </trkpt>
      <trkpt lat="44.12587" lon="5.88716">
        <ele>816</ele>
        <time>2019-08-09T07:40:58Z</time>
      </trkpt>
      <trkpt lat="44.12585" lon="5.88713">
        <ele>817</ele>
        <time>2019-08-09T07:40:59Z</time>
      </trkpt>
      <trkpt lat="44.12583" lon="5.8871">
        <ele>818</ele>
        <time>2019-08-09T07:41:00Z</time>
      </trkpt>
      <trkpt lat="44.1258" lon="5.88706">
        <ele>819</ele>
        <time>2019-08-09T07:41:01Z</time>
      </trkpt>
      <trkpt lat="44.12577" lon="5.88702">
        <ele>820</ele>
        <time>2019-08-09T07:41:02Z</time>
      </trkpt>
      <trkpt lat="44.12575" lon="5.887">
        <ele>821</ele>
        <time>2019-08-09T07:41:03Z</time>
      </trkpt>
      <trkpt lat="44.12572" lon="5.88697">
        <ele>822</ele>
        <time>2019-08-09T07:41:04Z</time>
      </trkpt>
      <trkpt lat="44.1257" lon="5.88693">
        <ele>823</ele>
        <time>2019-08-09T07:41:05Z</time>
      </trkpt>
      <trkpt lat="44.12567" lon="5.8869">
        <ele>824</ele>
        <time>2019-08-09T07:41:06Z</time>
      </trkpt>
      <trkpt lat="44.12566" lon="5.88688">
        <ele>825</ele>
        <time>2019-08-09T07:41:07Z</time>
      </trkpt>
      <trkpt lat="44.12563" lon="5.88685">
        <ele>826</ele>
        <time>2019-08-09T07:41:08Z</time>
      </trkpt>
      <trkpt lat="44.12561" lon="5.88683">
        <ele>827</ele>
        <time>2019-08-09T07:41:09Z</time>
      </trkpt>
      <trkpt lat="44.12558" lon="5.88682">
        <ele>828</ele>
        <time>2019-08-09T07:41:10Z</time>
      </trkpt>
      <trkpt lat="44.12556" lon="5.88679">
        <ele>829</ele>
        <time>2019-08-09T07:41:11Z</time>
      </trkpt>
      <trkpt lat="44.12554" lon="5.88677">
        <ele>829</ele>
        <time>2019-08-09T07:41:12Z</time>
      </trkpt>
      <trkpt lat="44.12552" lon="5.88674">
        <ele>829</ele>
        <time>2019-08-09T07:41:13Z</time>
      </trkpt>
      <trkpt lat="44.1255" lon="5.88672">
        <ele>829</ele>
        <time>2019-08-09T07:41:14Z</time>
      </trkpt>
      <trkpt lat="44.12548" lon="5.88669">
        <ele>829</ele>
        <time>2019-08-09T07:41:15Z</time>
      </trkpt>
      <trkpt lat="44.12545" lon="5.88667">
        <ele>829</ele>
        <time>2019-08-09T07:41:16Z</time>
      </trkpt>
      <trkpt lat="44.12543" lon="5.88664">
        <ele>829</ele>
        <time>2019-08-09T07:41:17Z</time>
      </trkpt>
      <trkpt lat="44.12541" lon="5.88661">
        <ele>829</ele>
        <time>2019-08-09T07:41:18Z</time>
      </trkpt>
      <trkpt lat="44.12538" lon="5.88659">
        <ele>829</ele>
        <time>2019-08-09T07:41:19Z</time>
      </trkpt>
      <trkpt lat="44.12536" lon="5.88657">
        <ele>829</ele>
        <time>2019-08-09T07:41:20Z</time>
      </trkpt>
      <trkpt lat="44.12533" lon="5.88654">
        <ele>829</ele>
        <time>2019-08-09T07:41:21Z</time>
      </trkpt>
      <trkpt lat="44.12531" lon="5.88652">
        <ele>829</ele>
        <time>2019-08-09T07:41:22Z</time>
      </trkpt>
      <trkpt lat="44.12528" lon="5.8865">
        <ele>829</ele>
        <time>2019-08-09T07:41:23Z</time>
      </trkpt>
      <trkpt lat="44.12525" lon="5.88648">
        <ele>829</ele>
        <time>2019-08-09T07:41:24Z</time>
      </trkpt>
      <trkpt lat="44.12523" lon="5.88647">
        <ele>829</ele>
        <time>2019-08-09T07:41:25Z</time>
      </trkpt>
      <trkpt lat="44.1252" lon="5.88646">
        <ele>829</ele>
        <time>2019-08-09T07:41:26Z</time>
      </trkpt>
      <trkpt lat="44.12517" lon="5.88645">
        <ele>829</ele>
        <time>2019-08-09T07:41:27Z</time>
      </trkpt>
      <trkpt lat="44.12514" lon="5.88644">
        <ele>829</ele>
        <time>2019-08-09T07:41:28Z</time>
      </trkpt>
      <trkpt lat="44.12511" lon="5.88643">
        <ele>829</ele>
        <time>2019-08-09T07:41:29Z</time>
      </trkpt>
      <trkpt lat="44.12508" lon="5.88643">
        <ele>829</ele>
        <time>2019-08-09T07:41:30Z</time>
      </trkpt>
      <trkpt lat="44.12504" lon="5.88643">
        <ele>829</ele>
        <time>2019-08-09T07:41:31Z</time>
      </trkpt>
      <trkpt lat="44.12501" lon="5.88643">
        <ele>829</ele>
        <time>2019-08-09T07:41:32Z</time>
      </trkpt>
      <trkpt lat="44.12498" lon="5.88643">
        <ele>829</ele>
        <time>2019-08-09T07:41:33Z</time>
      </trkpt>
      <trkpt lat="44.12495" lon="5.88642">
        <ele>829</ele>
        <time>2019-08-09T07:41:34Z</time>
      </trkpt>
      <trkpt lat="44.12491" lon="5.88642">
        <ele>829</ele>
        <time>2019-08-09T07:41:35Z</time>
      </trkpt>
      <trkpt lat="44.12488" lon="5.88641">
        <ele>829</ele>
        <time>2019-08-09T07:41:36Z</time>
      </trkpt>
      <trkpt lat="44.12484" lon="5.8864">
        <ele>829</ele>
        <time>2019-08-09T07:41:37Z</time>
      </trkpt>
      <trkpt lat="44.12481" lon="5.88639">
        <ele>829</ele>
        <time>2019-08-09T07:41:38Z</time>
      </trkpt>
      <trkpt lat="44.12477" lon="5.88639">
        <ele>829</ele>
        <time>2019-08-09T07:41:39Z</time>
      </trkpt>
      <trkpt lat="44.12474" lon="5.88637">
        <ele>829</ele>
        <time>2019-08-09T07:41:40Z</time>
      </trkpt>
      <trkpt lat="44.12471" lon="5.88635">
        <ele>828</ele>
        <time>2019-08-09T07:41:41Z</time>
      </trkpt>
      <trkpt lat="44.12468" lon="5.88632">
        <ele>828</ele>
        <time>2019-08-09T07:41:42Z</time>
      </trkpt>
      <trkpt lat="44.12465" lon="5.88629">
        <ele>828</ele>
        <time>2019-08-09T07:41:43Z</time>
      </trkpt>
      <trkpt lat="44.12461" lon="5.88626">
        <ele>828</ele>
        <time>2019-08-09T07:41:44Z</time>
      </trkpt>
      <trkpt lat="44.12458" lon="5.88623">
        <ele>828</ele>
        <time>2019-08-09T07:41:45Z</time>
      </trkpt>
      <trkpt lat="44.12455" lon="5.8862">
        <ele>828</ele>
        <time>2019-08-09T07:41:46Z</time>
      </trkpt>
      <trkpt lat="44.12452" lon="5.88617">
        <ele>828</ele>
        <time>2019-08-09T07:41:47Z</time>
      </trkpt>
      <trkpt lat="44.12448" lon="5.88613">
        <ele>828</ele>
        <time>2019-08-09T07:41:48Z</time>
      </trkpt>
      <trkpt lat="44.12445" lon="5.8861">
        <ele>828</ele>
        <time>2019-08-09T07:41:49Z</time>
      </trkpt>
      <trkpt lat="44.12442" lon="5.88605">
        <ele>828</ele>
        <time>2019-08-09T07:41:50Z</time>
      </trkpt>
      <trkpt lat="44.12439" lon="5.88602">
        <ele>828</ele>
        <time>2019-08-09T07:41:51Z</time>
      </trkpt>
      <trkpt lat="44.12435" lon="5.88597">
        <ele>828</ele>
        <time>2019-08-09T07:41:52Z</time>
      </trkpt>
      <trkpt lat="44.12432" lon="5.88592">
        <ele>828</ele>
        <time>2019-08-09T07:41:53Z</time>
      </trkpt>
      <trkpt lat="44.12429" lon="5.88588">
        <ele>828</ele>
        <time>2019-08-09T07:41:54Z</time>
      </trkpt>
      <trkpt lat="44.12426" lon="5.88584">
        <ele>828</ele>
        <time>2019-08-09T07:41:55Z</time>
      </trkpt>
      <trkpt lat="44.12423" lon="5.8858">
        <ele>829</ele>
        <time>2019-08-09T07:41:56Z</time>
      </trkpt>
      <trkpt lat="44.12421" lon="5.88576">
        <ele>830</ele>
        <time>2019-08-09T07:41:57Z</time>
      </trkpt>
      <trkpt lat="44.12419" lon="5.88572">
        <ele>831</ele>
        <time>2019-08-09T07:41:58Z</time>
      </trkpt>
      <trkpt lat="44.12418" lon="5.88566">
        <ele>832</ele>
        <time>2019-08-09T07:41:59Z</time>
      </trkpt>
      <trkpt lat="44.12417" lon="5.88561">
        <ele>833</ele>
        <time>2019-08-09T07:42:00Z</time>
      </trkpt>
      <trkpt lat="44.12417" lon="5.88556">
        <ele>833</ele>
        <time>2019-08-09T07:42:01Z</time>
      </trkpt>
      <trkpt lat="44.12418" lon="5.8855">
        <ele>834</ele>
        <time>2019-08-09T07:42:02Z</time>
      </trkpt>
      <trkpt lat="44.12421" lon="5.88546">
        <ele>834</ele>
        <time>2019-08-09T07:42:03Z</time>
      </trkpt>
      <trkpt lat="44.12424" lon="5.88543">
        <ele>834</ele>
        <time>2019-08-09T07:42:04Z</time>
      </trkpt>
      <trkpt lat="44.12428" lon="5.88541">
        <ele>834</ele>
        <time>2019-08-09T07:42:05Z</time>
      </trkpt>
      <trkpt lat="44.12431" lon="5.88541">
        <ele>835</ele>
        <time>2019-08-09T07:42:06Z</time>
      </trkpt>
      <trkpt lat="44.12435" lon="5.88542">
        <ele>835</ele>
        <time>2019-08-09T07:42:07Z</time>
      </trkpt>
      <trkpt lat="44.12438" lon="5.88543">
        <ele>835</ele>
        <time>2019-08-09T07:42:08Z</time>
      </trkpt>
      <trkpt lat="44.12442" lon="5.88545">
        <ele>836</ele>
        <time>2019-08-09T07:42:09Z</time>
      </trkpt>
      <trkpt lat="44.12445" lon="5.88547">
        <ele>836</ele>
        <time>2019-08-09T07:42:10Z</time>
      </trkpt>
      <trkpt lat="44.12448" lon="5.88549">
        <ele>837</ele>
        <time>2019-08-09T07:42:11Z</time>
      </trkpt>
      <trkpt lat="44.1245" lon="5.8855">
        <ele>838</ele>
        <time>2019-08-09T07:42:12Z</time>
      </trkpt>
      <trkpt lat="44.12453" lon="5.88552">
        <ele>839</ele>
        <time>2019-08-09T07:42:13Z</time>
      </trkpt>
      <trkpt lat="44.12456" lon="5.88553">
        <ele>839</ele>
        <time>2019-08-09T07:42:14Z</time>
      </trkpt>
      <trkpt lat="44.1246" lon="5.88553">
        <ele>840</ele>
        <time>2019-08-09T07:42:15Z</time>
      </trkpt>
      <trkpt lat="44.12463" lon="5.88553">
        <ele>840</ele>
        <time>2019-08-09T07:42:16Z</time>
      </trkpt>
      <trkpt lat="44.12466" lon="5.88551">
        <ele>841</ele>
        <time>2019-08-09T07:42:17Z</time>
      </trkpt>
      <trkpt lat="44.12468" lon="5.88549">
        <ele>841</ele>
        <time>2019-08-09T07:42:18Z</time>
      </trkpt>
      <trkpt lat="44.12471" lon="5.88546">
        <ele>841</ele>
        <time>2019-08-09T07:42:19Z</time>
      </trkpt>
      <trkpt lat="44.12473" lon="5.88543">
        <ele>841</ele>
        <time>2019-08-09T07:42:20Z</time>
      </trkpt>
      <trkpt lat="44.12474" lon="5.8854">
        <ele>842</ele>
        <time>2019-08-09T07:42:21Z</time>
      </trkpt>
      <trkpt lat="44.12476" lon="5.88536">
        <ele>843</ele>
        <time>2019-08-09T07:42:22Z</time>
      </trkpt>
      <trkpt lat="44.12478" lon="5.88532">
        <ele>843</ele>
        <time>2019-08-09T07:42:23Z</time>
      </trkpt>
      <trkpt lat="44.12479" lon="5.88528">
        <ele>844</ele>
        <time>2019-08-09T07:42:24Z</time>
      </trkpt>
      <trkpt lat="44.12481" lon="5.88523">
        <ele>844</ele>
        <time>2019-08-09T07:42:25Z</time>
      </trkpt>
      <trkpt lat="44.12482" lon="5.88519">
        <ele>844</ele>
        <time>2019-08-09T07:42:26Z</time>
      </trkpt>
      <trkpt lat="44.12484" lon="5.88516">
        <ele>844</ele>
        <time>2019-08-09T07:42:27Z</time>
      </trkpt>
      <trkpt lat="44.12485" lon="5.88512">
        <ele>844</ele>
        <time>2019-08-09T07:42:28Z</time>
      </trkpt>
      <trkpt lat="44.12486" lon="5.88507">
        <ele>844</ele>
        <time>2019-08-09T07:42:29Z</time>
      </trkpt>
      <trkpt lat="44.12486" lon="5.88503">
        <ele>844</ele>
        <time>2019-08-09T07:42:30Z</time>
      </trkpt>
      <trkpt lat="44.12487" lon="5.88499">
        <ele>844</ele>
        <time>2019-08-09T07:42:31Z</time>
      </trkpt>
      <trkpt lat="44.12489" lon="5.88495">
        <ele>844</ele>
        <time>2019-08-09T07:42:32Z</time>
      </trkpt>
      <trkpt lat="44.1249" lon="5.88492">
        <ele>844</ele>
        <time>2019-08-09T07:42:33Z</time>
      </trkpt>
      <trkpt lat="44.12492" lon="5.88489">
        <ele>844</ele>
        <time>2019-08-09T07:42:34Z</time>
      </trkpt>
      <trkpt lat="44.12495" lon="5.88486">
        <ele>844</ele>
        <time>2019-08-09T07:42:35Z</time>
      </trkpt>
      <trkpt lat="44.12496" lon="5.88483">
        <ele>844</ele>
        <time>2019-08-09T07:42:36Z</time>
      </trkpt>
      <trkpt lat="44.12498" lon="5.88479">
        <ele>844</ele>
        <time>2019-08-09T07:42:37Z</time>
      </trkpt>
      <trkpt lat="44.125" lon="5.88476">
        <ele>844</ele>
        <time>2019-08-09T07:42:38Z</time>
      </trkpt>
      <trkpt lat="44.12502" lon="5.88474">
        <ele>844</ele>
        <time>2019-08-09T07:42:39Z</time>
      </trkpt>
      <trkpt lat="44.12504" lon="5.88471">
        <ele>844</ele>
        <time>2019-08-09T07:42:40Z</time>
      </trkpt>
      <trkpt lat="44.12506" lon="5.88468">
        <ele>844</ele>
        <time>2019-08-09T07:42:41Z</time>
      </trkpt>
      <trkpt lat="44.12507" lon="5.88466">
        <ele>844</ele>
        <time>2019-08-09T07:42:42Z</time>
      </trkpt>
      <trkpt lat="44.12508" lon="5.88463">
        <ele>844</ele>
        <time>2019-08-09T07:42:43Z</time>
      </trkpt>
      <trkpt lat="44.1251" lon="5.8846">
        <ele>844</ele>
        <time>2019-08-09T07:42:44Z</time>
      </trkpt>
      <trkpt lat="44.12511" lon="5.88457">
        <ele>844</ele>
        <time>2019-08-09T07:42:45Z</time>
      </trkpt>
      <trkpt lat="44.12512" lon="5.88453">
        <ele>844</ele>
        <time>2019-08-09T07:42:46Z</time>
      </trkpt>
      <trkpt lat="44.12513" lon="5.88449">
        <ele>844</ele>
        <time>2019-08-09T07:42:47Z</time>
      </trkpt>
      <trkpt lat="44.12514" lon="5.88446">
        <ele>844</ele>
        <time>2019-08-09T07:42:48Z</time>
      </trkpt>
      <trkpt lat="44.12516" lon="5.88443">
        <ele>844</ele>
        <time>2019-08-09T07:42:49Z</time>
      </trkpt>
      <trkpt lat="44.12516" lon="5.8844">
        <ele>844</ele>
        <time>2019-08-09T07:42:50Z</time>
      </trkpt>
      <trkpt lat="44.12517" lon="5.88437">
        <ele>844</ele>
        <time>2019-08-09T07:42:51Z</time>
      </trkpt>
      <trkpt lat="44.12516" lon="5.88433">
        <ele>844</ele>
        <time>2019-08-09T07:42:52Z</time>
      </trkpt>
      <trkpt lat="44.12516" lon="5.88429">
        <ele>844</ele>
        <time>2019-08-09T07:42:53Z</time>
      </trkpt>
      <trkpt lat="44.12515" lon="5.88424">
        <ele>844</ele>
        <time>2019-08-09T07:42:54Z</time>
      </trkpt>
      <trkpt lat="44.12516" lon="5.8842">
        <ele>844</ele>
        <time>2019-08-09T07:42:55Z</time>
      </trkpt>
      <trkpt lat="44.12516" lon="5.88416">
        <ele>844</ele>
        <time>2019-08-09T07:42:56Z</time>
      </trkpt>
      <trkpt lat="44.12516" lon="5.88412">
        <ele>843</ele>
        <time>2019-08-09T07:42:57Z</time>
      </trkpt>
      <trkpt lat="44.12515" lon="5.88408">
        <ele>842</ele>
        <time>2019-08-09T07:42:58Z</time>
      </trkpt>
      <trkpt lat="44.12515" lon="5.88404">
        <ele>841</ele>
        <time>2019-08-09T07:42:59Z</time>
      </trkpt>
      <trkpt lat="44.12515" lon="5.88402">
        <ele>841</ele>
        <time>2019-08-09T07:43:00Z</time>
      </trkpt>
      <trkpt lat="44.12515" lon="5.884">
        <ele>841</ele>
        <time>2019-08-09T07:43:01Z</time>
      </trkpt>
      <trkpt lat="44.12514" lon="5.88397">
        <ele>840</ele>
        <time>2019-08-09T07:43:02Z</time>
      </trkpt>
      <trkpt lat="44.12514" lon="5.88394">
        <ele>840</ele>
        <time>2019-08-09T07:43:03Z</time>
      </trkpt>
      <trkpt lat="44.12514" lon="5.88391">
        <ele>840</ele>
        <time>2019-08-09T07:43:04Z</time>
      </trkpt>
      <trkpt lat="44.12513" lon="5.88387">
        <ele>839</ele>
        <time>2019-08-09T07:43:05Z</time>
      </trkpt>
      <trkpt lat="44.12513" lon="5.88384">
        <ele>838</ele>
        <time>2019-08-09T07:43:06Z</time>
      </trkpt>
      <trkpt lat="44.12513" lon="5.88381">
        <ele>838</ele>
        <time>2019-08-09T07:43:07Z</time>
      </trkpt>
      <trkpt lat="44.12512" lon="5.88378">
        <ele>837</ele>
        <time>2019-08-09T07:43:08Z</time>
      </trkpt>
      <trkpt lat="44.12511" lon="5.88375">
        <ele>836</ele>
        <time>2019-08-09T07:43:09Z</time>
      </trkpt>
      <trkpt lat="44.12511" lon="5.88372">
        <ele>836</ele>
        <time>2019-08-09T07:43:10Z</time>
      </trkpt>
      <trkpt lat="44.1251" lon="5.88369">
        <ele>835</ele>
        <time>2019-08-09T07:43:11Z</time>
      </trkpt>
      <trkpt lat="44.12509" lon="5.88366">
        <ele>834</ele>
        <time>2019-08-09T07:43:12Z</time>
      </trkpt>
      <trkpt lat="44.12508" lon="5.88363">
        <ele>834</ele>
        <time>2019-08-09T07:43:13Z</time>
      </trkpt>
      <trkpt lat="44.12507" lon="5.8836">
        <ele>833</ele>
        <time>2019-08-09T07:43:14Z</time>
      </trkpt>
      <trkpt lat="44.12506" lon="5.88357">
        <ele>832</ele>
        <time>2019-08-09T07:43:15Z</time>
      </trkpt>
      <trkpt lat="44.12506" lon="5.88353">
        <ele>831</ele>
        <time>2019-08-09T07:43:16Z</time>
      </trkpt>
      <trkpt lat="44.12505" lon="5.88349">
        <ele>830</ele>
        <time>2019-08-09T07:43:17Z</time>
      </trkpt>
      <trkpt lat="44.12505" lon="5.88345">
        <ele>830</ele>
        <time>2019-08-09T07:43:18Z</time>
      </trkpt>
      <trkpt lat="44.12504" lon="5.88341">
        <ele>830</ele>
        <time>2019-08-09T07:43:19Z</time>
      </trkpt>
      <trkpt lat="44.12503" lon="5.88337">
        <ele>830</ele>
        <time>2019-08-09T07:43:20Z</time>
      </trkpt>
      <trkpt lat="44.12503" lon="5.88334">
        <ele>830</ele>
        <time>2019-08-09T07:43:21Z</time>
      </trkpt>
      <trkpt lat="44.12502" lon="5.88331">
        <ele>831</ele>
        <time>2019-08-09T07:43:22Z</time>
      </trkpt>
      <trkpt lat="44.12502" lon="5.88328">
        <ele>832</ele>
        <time>2019-08-09T07:43:23Z</time>
      </trkpt>
      <trkpt lat="44.12501" lon="5.88324">
        <ele>833</ele>
        <time>2019-08-09T07:43:24Z</time>
      </trkpt>
      <trkpt lat="44.12501" lon="5.88321">
        <ele>834</ele>
        <time>2019-08-09T07:43:25Z</time>
      </trkpt>
      <trkpt lat="44.125" lon="5.88317">
        <ele>835</ele>
        <time>2019-08-09T07:43:26Z</time>
      </trkpt>
      <trkpt lat="44.12499" lon="5.88313">
        <ele>836</ele>
        <time>2019-08-09T07:43:27Z</time>
      </trkpt>
      <trkpt lat="44.12498" lon="5.88309">
        <ele>837</ele>
        <time>2019-08-09T07:43:28Z</time>
      </trkpt>
      <trkpt lat="44.12497" lon="5.88306">
        <ele>838</ele>
        <time>2019-08-09T07:43:29Z</time>
      </trkpt>
      <trkpt lat="44.12497" lon="5.88302">
        <ele>839</ele>
        <time>2019-08-09T07:43:30Z</time>
      </trkpt>
      <trkpt lat="44.12498" lon="5.88299">
        <ele>840</ele>
        <time>2019-08-09T07:43:31Z</time>
      </trkpt>
      <trkpt lat="44.12498" lon="5.88296">
        <ele>841</ele>
        <time>2019-08-09T07:43:32Z</time>
      </trkpt>
      <trkpt lat="44.12498" lon="5.88292">
        <ele>842</ele>
        <time>2019-08-09T07:43:33Z</time>
      </trkpt>
      <trkpt lat="44.12498" lon="5.88289">
        <ele>843</ele>
        <time>2019-08-09T07:43:34Z</time>
      </trkpt>
      <trkpt lat="44.12498" lon="5.88285">
        <ele>844</ele>
        <time>2019-08-09T07:43:35Z</time>
      </trkpt>
      <trkpt lat="44.12498" lon="5.88282">
        <ele>845</ele>
        <time>2019-08-09T07:43:36Z</time>
      </trkpt>
      <trkpt lat="44.12499" lon="5.88278">
        <ele>846</ele>
        <time>2019-08-09T07:43:37Z</time>
      </trkpt>
      <trkpt lat="44.12499" lon="5.88275">
        <ele>847</ele>
        <time>2019-08-09T07:43:38Z</time>
      </trkpt>
      <trkpt lat="44.12499" lon="5.88271">
        <ele>848</ele>
        <time>2019-08-09T07:43:39Z</time>
      </trkpt>
      <trkpt lat="44.12499" lon="5.88268">
        <ele>849</ele>
        <time>2019-08-09T07:43:40Z</time>
      </trkpt>
      <trkpt lat="44.12499" lon="5.88265">
        <ele>850</ele>
        <time>2019-08-09T07:43:41Z</time>
      </trkpt>
      <trkpt lat="44.12499" lon="5.88261">
        <ele>851</ele>
        <time>2019-08-09T07:43:42Z</time>
      </trkpt>
      <trkpt lat="44.12498" lon="5.88258">
        <ele>852</ele>
        <time>2019-08-09T07:43:43Z</time>
      </trkpt>
      <trkpt lat="44.12498" lon="5.88255">
        <ele>852</ele>
        <time>2019-08-09T07:43:44Z</time>
      </trkpt>
      <trkpt lat="44.12498" lon="5.88251">
        <ele>853</ele>
        <time>2019-08-09T07:43:45Z</time>
      </trkpt>
      <trkpt lat="44.12497" lon="5.88248">
        <ele>854</ele>
        <time>2019-08-09T07:43:46Z</time>
      </trkpt>
      <trkpt lat="44.12497" lon="5.88245">
        <ele>855</ele>
        <time>2019-08-09T07:43:47Z</time>
      </trkpt>
      <trkpt lat="44.12496" lon="5.88242">
        <ele>855</ele>
        <time>2019-08-09T07:43:48Z</time>
      </trkpt>
      <trkpt lat="44.12495" lon="5.88238">
        <ele>856</ele>
        <time>2019-08-09T07:43:49Z</time>
      </trkpt>
      <trkpt lat="44.12494" lon="5.88235">
        <ele>856</ele>
        <time>2019-08-09T07:43:50Z</time>
      </trkpt>
      <trkpt lat="44.12492" lon="5.88232">
        <ele>856</ele>
        <time>2019-08-09T07:43:51Z</time>
      </trkpt>
      <trkpt lat="44.1249" lon="5.88229">
        <ele>857</ele>
        <time>2019-08-09T07:43:52Z</time>
      </trkpt>
      <trkpt lat="44.12489" lon="5.88226">
        <ele>857</ele>
        <time>2019-08-09T07:43:53Z</time>
      </trkpt>
      <trkpt lat="44.12487" lon="5.88222">
        <ele>857</ele>
        <time>2019-08-09T07:43:54Z</time>
      </trkpt>
      <trkpt lat="44.12485" lon="5.88219">
        <ele>857</ele>
        <time>2019-08-09T07:43:55Z</time>
      </trkpt>
      <trkpt lat="44.12483" lon="5.88216">
        <ele>857</ele>
        <time>2019-08-09T07:43:56Z</time>
      </trkpt>
      <trkpt lat="44.12481" lon="5.88214">
        <ele>857</ele>
        <time>2019-08-09T07:43:57Z</time>
      </trkpt>
      <trkpt lat="44.12479" lon="5.88211">
        <ele>857</ele>
        <time>2019-08-09T07:43:58Z</time>
      </trkpt>
      <trkpt lat="44.12476" lon="5.88206">
        <ele>857</ele>
        <time>2019-08-09T07:43:59Z</time>
      </trkpt>
      <trkpt lat="44.12474" lon="5.88204">
        <ele>857</ele>
        <time>2019-08-09T07:44:00Z</time>
      </trkpt>
      <trkpt lat="44.12472" lon="5.88202">
        <ele>857</ele>
        <time>2019-08-09T07:44:01Z</time>
      </trkpt>
      <trkpt lat="44.1247" lon="5.88199">
        <ele>857</ele>
        <time>2019-08-09T07:44:02Z</time>
      </trkpt>
      <trkpt lat="44.12468" lon="5.88197">
        <ele>857</ele>
        <time>2019-08-09T07:44:03Z</time>
      </trkpt>
      <trkpt lat="44.12466" lon="5.88194">
        <ele>857</ele>
        <time>2019-08-09T07:44:04Z</time>
      </trkpt>
      <trkpt lat="44.12464" lon="5.88191">
        <ele>857</ele>
        <time>2019-08-09T07:44:05Z</time>
      </trkpt>
      <trkpt lat="44.12463" lon="5.88188">
        <ele>857</ele>
        <time>2019-08-09T07:44:06Z</time>
      </trkpt>
      <trkpt lat="44.1246" lon="5.88184">
        <ele>857</ele>
        <time>2019-08-09T07:44:07Z</time>
      </trkpt>
      <trkpt lat="44.12459" lon="5.88181">
        <ele>857</ele>
        <time>2019-08-09T07:44:08Z</time>
      </trkpt>
      <trkpt lat="44.12458" lon="5.88177">
        <ele>857</ele>
        <time>2019-08-09T07:44:09Z</time>
      </trkpt>
      <trkpt lat="44.12457" lon="5.88173">
        <ele>857</ele>
        <time>2019-08-09T07:44:10Z</time>
      </trkpt>
      <trkpt lat="44.12456" lon="5.88169">
        <ele>857</ele>
        <time>2019-08-09T07:44:11Z</time>
      </trkpt>
      <trkpt lat="44.12455" lon="5.88165">
        <ele>857</ele>
        <time>2019-08-09T07:44:12Z</time>
      </trkpt>
      <trkpt lat="44.12454" lon="5.88161">
        <ele>857</ele>
        <time>2019-08-09T07:44:13Z</time>
      </trkpt>
      <trkpt lat="44.12454" lon="5.88157">
        <ele>857</ele>
        <time>2019-08-09T07:44:14Z</time>
      </trkpt>
      <trkpt lat="44.12453" lon="5.88153">
        <ele>857</ele>
        <time>2019-08-09T07:44:15Z</time>
      </trkpt>
      <trkpt lat="44.12452" lon="5.88149">
        <ele>858</ele>
        <time>2019-08-09T07:44:16Z</time>
      </trkpt>
      <trkpt lat="44.12452" lon="5.88145">
        <ele>858</ele>
        <time>2019-08-09T07:44:17Z</time>
      </trkpt>
      <trkpt lat="44.12451" lon="5.88141">
        <ele>858</ele>
        <time>2019-08-09T07:44:18Z</time>
      </trkpt>
      <trkpt lat="44.12451" lon="5.88138">
        <ele>859</ele>
        <time>2019-08-09T07:44:19Z</time>
      </trkpt>
      <trkpt lat="44.1245" lon="5.88134">
        <ele>859</ele>
        <time>2019-08-09T07:44:20Z</time>
      </trkpt>
      <trkpt lat="44.1245" lon="5.88131">
        <ele>859</ele>
        <time>2019-08-09T07:44:21Z</time>
      </trkpt>
      <trkpt lat="44.1245" lon="5.88127">
        <ele>860</ele>
        <time>2019-08-09T07:44:22Z</time>
      </trkpt>
      <trkpt lat="44.1245" lon="5.88124">
        <ele>860</ele>
        <time>2019-08-09T07:44:23Z</time>
      </trkpt>
      <trkpt lat="44.1245" lon="5.8812">
        <ele>860</ele>
        <time>2019-08-09T07:44:24Z</time>
      </trkpt>
      <trkpt lat="44.12449" lon="5.88116">
        <ele>861</ele>
        <time>2019-08-09T07:44:25Z</time>
      </trkpt>
      <trkpt lat="44.12449" lon="5.88113">
        <ele>861</ele>
        <time>2019-08-09T07:44:26Z</time>
      </trkpt>
      <trkpt lat="44.12449" lon="5.88109">
        <ele>861</ele>
        <time>2019-08-09T07:44:27Z</time>
      </trkpt>
      <trkpt lat="44.12448" lon="5.88105">
        <ele>862</ele>
        <time>2019-08-09T07:44:28Z</time>
      </trkpt>
      <trkpt lat="44.12448" lon="5.88101">
        <ele>862</ele>
        <time>2019-08-09T07:44:29Z</time>
      </trkpt>
      <trkpt lat="44.12449" lon="5.88097">
        <ele>862</ele>
        <time>2019-08-09T07:44:30Z</time>
      </trkpt>
      <trkpt lat="44.1245" lon="5.88093">
        <ele>862</ele>
        <time>2019-08-09T07:44:31Z</time>
      </trkpt>
      <trkpt lat="44.1245" lon="5.88089">
        <ele>863</ele>
        <time>2019-08-09T07:44:32Z</time>
      </trkpt>
      <trkpt lat="44.12452" lon="5.88086">
        <ele>863</ele>
        <time>2019-08-09T07:44:33Z</time>
      </trkpt>
      <trkpt lat="44.12453" lon="5.88083">
        <ele>863</ele>
        <time>2019-08-09T07:44:34Z</time>
      </trkpt>
      <trkpt lat="44.12454" lon="5.88079">
        <ele>863</ele>
        <time>2019-08-09T07:44:35Z</time>
      </trkpt>
      <trkpt lat="44.12456" lon="5.88077">
        <ele>863</ele>
        <time>2019-08-09T07:44:36Z</time>
      </trkpt>
      <trkpt lat="44.12457" lon="5.88074">
        <ele>863</ele>
        <time>2019-08-09T07:44:37Z</time>
      </trkpt>
      <trkpt lat="44.1246" lon="5.88073">
        <ele>863</ele>
        <time>2019-08-09T07:44:38Z</time>
      </trkpt>
      <trkpt lat="44.12462" lon="5.88071">
        <ele>863</ele>
        <time>2019-08-09T07:44:39Z</time>
      </trkpt>
      <trkpt lat="44.12465" lon="5.8807">
        <ele>863</ele>
        <time>2019-08-09T07:44:40Z</time>
      </trkpt>
      <trkpt lat="44.12468" lon="5.88069">
        <ele>863</ele>
        <time>2019-08-09T07:44:41Z</time>
      </trkpt>
      <trkpt lat="44.12471" lon="5.88069">
        <ele>863</ele>
        <time>2019-08-09T07:44:42Z</time>
      </trkpt>
      <trkpt lat="44.12474" lon="5.88069">
        <ele>863</ele>
        <time>2019-08-09T07:44:43Z</time>
      </trkpt>
      <trkpt lat="44.12477" lon="5.88069">
        <ele>863</ele>
        <time>2019-08-09T07:44:44Z</time>
      </trkpt>
      <trkpt lat="44.12479" lon="5.88069">
        <ele>864</ele>
        <time>2019-08-09T07:44:45Z</time>
      </trkpt>
      <trkpt lat="44.12482" lon="5.8807">
        <ele>864</ele>
        <time>2019-08-09T07:44:46Z</time>
      </trkpt>
      <trkpt lat="44.12484" lon="5.8807">
        <ele>865</ele>
        <time>2019-08-09T07:44:47Z</time>
      </trkpt>
      <trkpt lat="44.12487" lon="5.8807">
        <ele>866</ele>
        <time>2019-08-09T07:44:48Z</time>
      </trkpt>
      <trkpt lat="44.12489" lon="5.8807">
        <ele>866</ele>
        <time>2019-08-09T07:44:49Z</time>
      </trkpt>
      <trkpt lat="44.12492" lon="5.88069">
        <ele>867</ele>
        <time>2019-08-09T07:44:50Z</time>
      </trkpt>
      <trkpt lat="44.12495" lon="5.88068">
        <ele>867</ele>
        <time>2019-08-09T07:44:51Z</time>
      </trkpt>
      <trkpt lat="44.12497" lon="5.88066">
        <ele>867</ele>
        <time>2019-08-09T07:44:52Z</time>
      </trkpt>
      <trkpt lat="44.12499" lon="5.88064">
        <ele>867</ele>
        <time>2019-08-09T07:44:53Z</time>
      </trkpt>
      <trkpt lat="44.12501" lon="5.88061">
        <ele>868</ele>
        <time>2019-08-09T07:44:54Z</time>
      </trkpt>
      <trkpt lat="44.12503" lon="5.88058">
        <ele>869</ele>
        <time>2019-08-09T07:44:55Z</time>
      </trkpt>
      <trkpt lat="44.12505" lon="5.88055">
        <ele>869</ele>
        <time>2019-08-09T07:44:56Z</time>
      </trkpt>
      <trkpt lat="44.12506" lon="5.88052">
        <ele>870</ele>
        <time>2019-08-09T07:44:57Z</time>
      </trkpt>
      <trkpt lat="44.12507" lon="5.88048">
        <ele>870</ele>
        <time>2019-08-09T07:44:58Z</time>
      </trkpt>
      <trkpt lat="44.12508" lon="5.88043">
        <ele>871</ele>
        <time>2019-08-09T07:44:59Z</time>
      </trkpt>
      <trkpt lat="44.12509" lon="5.8804">
        <ele>871</ele>
        <time>2019-08-09T07:45:00Z</time>
      </trkpt>
      <trkpt lat="44.1251" lon="5.88036">
        <ele>871</ele>
        <time>2019-08-09T07:45:01Z</time>
      </trkpt>
      <trkpt lat="44.1251" lon="5.88033">
        <ele>871</ele>
        <time>2019-08-09T07:45:02Z</time>
      </trkpt>
      <trkpt lat="44.1251" lon="5.88029">
        <ele>871</ele>
        <time>2019-08-09T07:45:03Z</time>
      </trkpt>
      <trkpt lat="44.12511" lon="5.88026">
        <ele>871</ele>
        <time>2019-08-09T07:45:04Z</time>
      </trkpt>
      <trkpt lat="44.12511" lon="5.88022">
        <ele>871</ele>
        <time>2019-08-09T07:45:05Z</time>
      </trkpt>
      <trkpt lat="44.12512" lon="5.88019">
        <ele>871</ele>
        <time>2019-08-09T07:45:06Z</time>
      </trkpt>
      <trkpt lat="44.12513" lon="5.88015">
        <ele>871</ele>
        <time>2019-08-09T07:45:07Z</time>
      </trkpt>
      <trkpt lat="44.12513" lon="5.88012">
        <ele>872</ele>
        <time>2019-08-09T07:45:08Z</time>
      </trkpt>
      <trkpt lat="44.12514" lon="5.88008">
        <ele>872</ele>
        <time>2019-08-09T07:45:09Z</time>
      </trkpt>
      <trkpt lat="44.12514" lon="5.88004">
        <ele>872</ele>
        <time>2019-08-09T07:45:10Z</time>
      </trkpt>
      <trkpt lat="44.12514" lon="5.88001">
        <ele>872</ele>
        <time>2019-08-09T07:45:11Z</time>
      </trkpt>
      <trkpt lat="44.12515" lon="5.87997">
        <ele>872</ele>
        <time>2019-08-09T07:45:12Z</time>
      </trkpt>
      <trkpt lat="44.12515" lon="5.87994">
        <ele>872</ele>
        <time>2019-08-09T07:45:13Z</time>
      </trkpt>
      <trkpt lat="44.12515" lon="5.8799">
        <ele>873</ele>
        <time>2019-08-09T07:45:14Z</time>
      </trkpt>
      <trkpt lat="44.12516" lon="5.87987">
        <ele>873</ele>
        <time>2019-08-09T07:45:15Z</time>
      </trkpt>
      <trkpt lat="44.12516" lon="5.87984">
        <ele>873</ele>
        <time>2019-08-09T07:45:16Z</time>
      </trkpt>
      <trkpt lat="44.12516" lon="5.87981">
        <ele>874</ele>
        <time>2019-08-09T07:45:17Z</time>
      </trkpt>
      <trkpt lat="44.12516" lon="5.87977">
        <ele>874</ele>
        <time>2019-08-09T07:45:18Z</time>
      </trkpt>
      <trkpt lat="44.12516" lon="5.87974">
        <ele>874</ele>
        <time>2019-08-09T07:45:19Z</time>
      </trkpt>
      <trkpt lat="44.12517" lon="5.87971">
        <ele>874</ele>
        <time>2019-08-09T07:45:20Z</time>
      </trkpt>
      <trkpt lat="44.12517" lon="5.87968">
        <ele>874</ele>
        <time>2019-08-09T07:45:21Z</time>
      </trkpt>
      <trkpt lat="44.12517" lon="5.87965">
        <ele>874</ele>
        <time>2019-08-09T07:45:22Z</time>
      </trkpt>
      <trkpt lat="44.12518" lon="5.87962">
        <ele>874</ele>
        <time>2019-08-09T07:45:23Z</time>
      </trkpt>
      <trkpt lat="44.12518" lon="5.87959">
        <ele>874</ele>
        <time>2019-08-09T07:45:24Z</time>
      </trkpt>
      <trkpt lat="44.12518" lon="5.87956">
        <ele>874</ele>
        <time>2019-08-09T07:45:25Z</time>
      </trkpt>
      <trkpt lat="44.12518" lon="5.87953">
        <ele>875</ele>
        <time>2019-08-09T07:45:26Z</time>
      </trkpt>
      <trkpt lat="44.12518" lon="5.8795">
        <ele>875</ele>
        <time>2019-08-09T07:45:27Z</time>
      </trkpt>
      <trkpt lat="44.12518" lon="5.87947">
        <ele>875</ele>
        <time>2019-08-09T07:45:28Z</time>
      </trkpt>
      <trkpt lat="44.12518" lon="5.87944">
        <ele>875</ele>
        <time>2019-08-09T07:45:29Z</time>
      </trkpt>
      <trkpt lat="44.12519" lon="5.87941">
        <ele>875</ele>
        <time>2019-08-09T07:45:30Z</time>
      </trkpt>
      <trkpt lat="44.12519" lon="5.87938">
        <ele>875</ele>
        <time>2019-08-09T07:45:31Z</time>
      </trkpt>
      <trkpt lat="44.12519" lon="5.87935">
        <ele>875</ele>
        <time>2019-08-09T07:45:32Z</time>
      </trkpt>
      <trkpt lat="44.1252" lon="5.87932">
        <ele>876</ele>
        <time>2019-08-09T07:45:33Z</time>
      </trkpt>
      <trkpt lat="44.1252" lon="5.87929">
        <ele>876</ele>
        <time>2019-08-09T07:45:34Z</time>
      </trkpt>
      <trkpt lat="44.1252" lon="5.87926">
        <ele>877</ele>
        <time>2019-08-09T07:45:35Z</time>
      </trkpt>
      <trkpt lat="44.1252" lon="5.87923">
        <ele>878</ele>
        <time>2019-08-09T07:45:36Z</time>
      </trkpt>
      <trkpt lat="44.1252" lon="5.8792">
        <ele>878</ele>
        <time>2019-08-09T07:45:37Z</time>
      </trkpt>
      <trkpt lat="44.1252" lon="5.87917">
        <ele>879</ele>
        <time>2019-08-09T07:45:38Z</time>
      </trkpt>
      <trkpt lat="44.1252" lon="5.87914">
        <ele>880</ele>
        <time>2019-08-09T07:45:39Z</time>
      </trkpt>
      <trkpt lat="44.12521" lon="5.87911">
        <ele>880</ele>
        <time>2019-08-09T07:45:40Z</time>
      </trkpt>
      <trkpt lat="44.1252" lon="5.87908">
        <ele>880</ele>
        <time>2019-08-09T07:45:41Z</time>
      </trkpt>
      <trkpt lat="44.1252" lon="5.87905">
        <ele>881</ele>
        <time>2019-08-09T07:45:42Z</time>
      </trkpt>
      <trkpt lat="44.1252" lon="5.87901">
        <ele>881</ele>
        <time>2019-08-09T07:45:43Z</time>
      </trkpt>
      <trkpt lat="44.12519" lon="5.87898">
        <ele>881</ele>
        <time>2019-08-09T07:45:44Z</time>
      </trkpt>
      <trkpt lat="44.12519" lon="5.87895">
        <ele>881</ele>
        <time>2019-08-09T07:45:45Z</time>
      </trkpt>
      <trkpt lat="44.12518" lon="5.87891">
        <ele>882</ele>
        <time>2019-08-09T07:45:46Z</time>
      </trkpt>
      <trkpt lat="44.12518" lon="5.87888">
        <ele>882</ele>
        <time>2019-08-09T07:45:47Z</time>
      </trkpt>
      <trkpt lat="44.12517" lon="5.87884">
        <ele>882</ele>
        <time>2019-08-09T07:45:48Z</time>
      </trkpt>
      <trkpt lat="44.12517" lon="5.87881">
        <ele>882</ele>
        <time>2019-08-09T07:45:49Z</time>
      </trkpt>
      <trkpt lat="44.12517" lon="5.87879">
        <ele>883</ele>
        <time>2019-08-09T07:45:50Z</time>
      </trkpt>
      <trkpt lat="44.12515" lon="5.87874">
        <ele>883</ele>
        <time>2019-08-09T07:45:51Z</time>
      </trkpt>
      <trkpt lat="44.12514" lon="5.8787">
        <ele>883</ele>
        <time>2019-08-09T07:45:52Z</time>
      </trkpt>
      <trkpt lat="44.12514" lon="5.87867">
        <ele>883</ele>
        <time>2019-08-09T07:45:53Z</time>
      </trkpt>
      <trkpt lat="44.12515" lon="5.87866">
        <ele>883</ele>
        <time>2019-08-09T07:45:54Z</time>
      </trkpt>
      <trkpt lat="44.12515" lon="5.87864">
        <ele>883</ele>
        <time>2019-08-09T07:45:55Z</time>
      </trkpt>
      <trkpt lat="44.12515" lon="5.87861">
        <ele>883</ele>
        <time>2019-08-09T07:45:56Z</time>
      </trkpt>
      <trkpt lat="44.12515" lon="5.87858">
        <ele>883</ele>
        <time>2019-08-09T07:45:57Z</time>
      </trkpt>
      <trkpt lat="44.12513" lon="5.87854">
        <ele>883</ele>
        <time>2019-08-09T07:45:58Z</time>
      </trkpt>
      <trkpt lat="44.12512" lon="5.8785">
        <ele>883</ele>
        <time>2019-08-09T07:45:59Z</time>
      </trkpt>
      <trkpt lat="44.12511" lon="5.87846">
        <ele>883</ele>
        <time>2019-08-09T07:46:00Z</time>
      </trkpt>
      <trkpt lat="44.1251" lon="5.87844">
        <ele>883</ele>
        <time>2019-08-09T07:46:01Z</time>
      </trkpt>
      <trkpt lat="44.1251" lon="5.87841">
        <ele>883</ele>
        <time>2019-08-09T07:46:02Z</time>
      </trkpt>
      <trkpt lat="44.12509" lon="5.87839">
        <ele>883</ele>
        <time>2019-08-09T07:46:03Z</time>
      </trkpt>
      <trkpt lat="44.12508" lon="5.87835">
        <ele>883</ele>
        <time>2019-08-09T07:46:04Z</time>
      </trkpt>
      <trkpt lat="44.12506" lon="5.87831">
        <ele>883</ele>
        <time>2019-08-09T07:46:05Z</time>
      </trkpt>
      <trkpt lat="44.12505" lon="5.87827">
        <ele>883</ele>
        <time>2019-08-09T07:46:06Z</time>
      </trkpt>
      <trkpt lat="44.12503" lon="5.87823">
        <ele>883</ele>
        <time>2019-08-09T07:46:07Z</time>
      </trkpt>
      <trkpt lat="44.12501" lon="5.8782">
        <ele>882</ele>
        <time>2019-08-09T07:46:08Z</time>
      </trkpt>
      <trkpt lat="44.12498" lon="5.87816">
        <ele>881</ele>
        <time>2019-08-09T07:46:09Z</time>
      </trkpt>
      <trkpt lat="44.12496" lon="5.87813">
        <ele>880</ele>
        <time>2019-08-09T07:46:10Z</time>
      </trkpt>
      <trkpt lat="44.12494" lon="5.87811">
        <ele>880</ele>
        <time>2019-08-09T07:46:11Z</time>
      </trkpt>
      <trkpt lat="44.12492" lon="5.87807">
        <ele>879</ele>
        <time>2019-08-09T07:46:12Z</time>
      </trkpt>
      <trkpt lat="44.1249" lon="5.87806">
        <ele>879</ele>
        <time>2019-08-09T07:46:13Z</time>
      </trkpt>
      <trkpt lat="44.12488" lon="5.87804">
        <ele>879</ele>
        <time>2019-08-09T07:46:14Z</time>
      </trkpt>
      <trkpt lat="44.12485" lon="5.87802">
        <ele>878</ele>
        <time>2019-08-09T07:46:15Z</time>
      </trkpt>
      <trkpt lat="44.12484" lon="5.878">
        <ele>877</ele>
        <time>2019-08-09T07:46:16Z</time>
      </trkpt>
      <trkpt lat="44.12481" lon="5.87799">
        <ele>876</ele>
        <time>2019-08-09T07:46:17Z</time>
      </trkpt>
      <trkpt lat="44.12478" lon="5.87797">
        <ele>875</ele>
        <time>2019-08-09T07:46:18Z</time>
      </trkpt>
      <trkpt lat="44.12476" lon="5.87796">
        <ele>874</ele>
        <time>2019-08-09T07:46:19Z</time>
      </trkpt>
      <trkpt lat="44.12474" lon="5.87794">
        <ele>873</ele>
        <time>2019-08-09T07:46:20Z</time>
      </trkpt>
      <trkpt lat="44.12471" lon="5.87793">
        <ele>872</ele>
        <time>2019-08-09T07:46:21Z</time>
      </trkpt>
      <trkpt lat="44.12469" lon="5.87791">
        <ele>871</ele>
        <time>2019-08-09T07:46:22Z</time>
      </trkpt>
      <trkpt lat="44.12466" lon="5.8779">
        <ele>870</ele>
        <time>2019-08-09T07:46:23Z</time>
      </trkpt>
      <trkpt lat="44.12464" lon="5.87788">
        <ele>869</ele>
        <time>2019-08-09T07:46:24Z</time>
      </trkpt>
      <trkpt lat="44.12462" lon="5.87786">
        <ele>868</ele>
        <time>2019-08-09T07:46:25Z</time>
      </trkpt>
      <trkpt lat="44.1246" lon="5.87784">
        <ele>867</ele>
        <time>2019-08-09T07:46:26Z</time>
      </trkpt>
      <trkpt lat="44.12457" lon="5.87782">
        <ele>866</ele>
        <time>2019-08-09T07:46:27Z</time>
      </trkpt>
      <trkpt lat="44.12454" lon="5.8778">
        <ele>866</ele>
        <time>2019-08-09T07:46:28Z</time>
      </trkpt>
      <trkpt lat="44.12451" lon="5.87779">
        <ele>865</ele>
        <time>2019-08-09T07:46:29Z</time>
      </trkpt>
      <trkpt lat="44.12449" lon="5.87778">
        <ele>865</ele>
        <time>2019-08-09T07:46:30Z</time>
      </trkpt>
      <trkpt lat="44.12448" lon="5.87777">
        <ele>865</ele>
        <time>2019-08-09T07:46:31Z</time>
      </trkpt>
      <trkpt lat="44.12446" lon="5.87774">
        <ele>865</ele>
        <time>2019-08-09T07:46:32Z</time>
      </trkpt>
      <trkpt lat="44.12444" lon="5.87773">
        <ele>865</ele>
        <time>2019-08-09T07:46:33Z</time>
      </trkpt>
      <trkpt lat="44.12441" lon="5.87771">
        <ele>866</ele>
        <time>2019-08-09T07:46:34Z</time>
      </trkpt>
      <trkpt lat="44.12439" lon="5.8777">
        <ele>867</ele>
        <time>2019-08-09T07:46:35Z</time>
      </trkpt>
      <trkpt lat="44.12436" lon="5.87769">
        <ele>867</ele>
        <time>2019-08-09T07:46:36Z</time>
      </trkpt>
      <trkpt lat="44.12434" lon="5.87768">
        <ele>867</ele>
        <time>2019-08-09T07:46:37Z</time>
      </trkpt>
      <trkpt lat="44.12432" lon="5.87766">
        <ele>867</ele>
        <time>2019-08-09T07:46:38Z</time>
      </trkpt>
      <trkpt lat="44.12429" lon="5.87764">
        <ele>867</ele>
        <time>2019-08-09T07:46:39Z</time>
      </trkpt>
      <trkpt lat="44.12426" lon="5.87762">
        <ele>867</ele>
        <time>2019-08-09T07:46:40Z</time>
      </trkpt>
      <trkpt lat="44.12424" lon="5.8776">
        <ele>867</ele>
        <time>2019-08-09T07:46:41Z</time>
      </trkpt>
      <trkpt lat="44.12421" lon="5.87757">
        <ele>867</ele>
        <time>2019-08-09T07:46:42Z</time>
      </trkpt>
      <trkpt lat="44.12419" lon="5.87755">
        <ele>867</ele>
        <time>2019-08-09T07:46:43Z</time>
      </trkpt>
      <trkpt lat="44.12417" lon="5.87752">
        <ele>867</ele>
        <time>2019-08-09T07:46:44Z</time>
      </trkpt>
      <trkpt lat="44.12416" lon="5.87748">
        <ele>867</ele>
        <time>2019-08-09T07:46:45Z</time>
      </trkpt>
      <trkpt lat="44.12416" lon="5.87744">
        <ele>867</ele>
        <time>2019-08-09T07:46:46Z</time>
      </trkpt>
      <trkpt lat="44.12415" lon="5.8774">
        <ele>868</ele>
        <time>2019-08-09T07:46:47Z</time>
      </trkpt>
      <trkpt lat="44.12414" lon="5.87736">
        <ele>869</ele>
        <time>2019-08-09T07:46:48Z</time>
      </trkpt>
      <trkpt lat="44.12413" lon="5.87732">
        <ele>870</ele>
        <time>2019-08-09T07:46:49Z</time>
      </trkpt>
      <trkpt lat="44.12412" lon="5.87728">
        <ele>871</ele>
        <time>2019-08-09T07:46:50Z</time>
      </trkpt>
      <trkpt lat="44.12411" lon="5.87725">
        <ele>872</ele>
        <time>2019-08-09T07:46:51Z</time>
      </trkpt>
      <trkpt lat="44.12408" lon="5.87721">
        <ele>873</ele>
        <time>2019-08-09T07:46:52Z</time>
      </trkpt>
      <trkpt lat="44.12406" lon="5.87718">
        <ele>874</ele>
        <time>2019-08-09T07:46:53Z</time>
      </trkpt>
      <trkpt lat="44.12404" lon="5.87715">
        <ele>875</ele>
        <time>2019-08-09T07:46:54Z</time>
      </trkpt>
      <trkpt lat="44.12402" lon="5.87711">
        <ele>876</ele>
        <time>2019-08-09T07:46:55Z</time>
      </trkpt>
      <trkpt lat="44.124" lon="5.8771">
        <ele>877</ele>
        <time>2019-08-09T07:46:56Z</time>
      </trkpt>
      <trkpt lat="44.12397" lon="5.87707">
        <ele>878</ele>
        <time>2019-08-09T07:46:57Z</time>
      </trkpt>
      <trkpt lat="44.12394" lon="5.87705">
        <ele>879</ele>
        <time>2019-08-09T07:46:58Z</time>
      </trkpt>
      <trkpt lat="44.12392" lon="5.87703">
        <ele>880</ele>
        <time>2019-08-09T07:46:59Z</time>
      </trkpt>
      <trkpt lat="44.12389" lon="5.877">
        <ele>880</ele>
        <time>2019-08-09T07:47:00Z</time>
      </trkpt>
      <trkpt lat="44.12386" lon="5.87698">
        <ele>881</ele>
        <time>2019-08-09T07:47:01Z</time>
      </trkpt>
      <trkpt lat="44.12383" lon="5.87696">
        <ele>881</ele>
        <time>2019-08-09T07:47:02Z</time>
      </trkpt>
      <trkpt lat="44.1238" lon="5.87693">
        <ele>881</ele>
        <time>2019-08-09T07:47:03Z</time>
      </trkpt>
      <trkpt lat="44.12378" lon="5.87691">
        <ele>881</ele>
        <time>2019-08-09T07:47:04Z</time>
      </trkpt>
      <trkpt lat="44.12375" lon="5.87688">
        <ele>882</ele>
        <time>2019-08-09T07:47:05Z</time>
      </trkpt>
      <trkpt lat="44.12373" lon="5.87685">
        <ele>882</ele>
        <time>2019-08-09T07:47:06Z</time>
      </trkpt>
      <trkpt lat="44.12371" lon="5.87683">
        <ele>882</ele>
        <time>2019-08-09T07:47:07Z</time>
      </trkpt>
      <trkpt lat="44.12369" lon="5.87679">
        <ele>883</ele>
        <time>2019-08-09T07:47:08Z</time>
      </trkpt>
      <trkpt lat="44.12367" lon="5.87676">
        <ele>883</ele>
        <time>2019-08-09T07:47:09Z</time>
      </trkpt>
      <trkpt lat="44.12365" lon="5.87673">
        <ele>884</ele>
        <time>2019-08-09T07:47:10Z</time>
      </trkpt>
      <trkpt lat="44.12363" lon="5.87669">
        <ele>885</ele>
        <time>2019-08-09T07:47:11Z</time>
      </trkpt>
      <trkpt lat="44.12363" lon="5.87665">
        <ele>885</ele>
        <time>2019-08-09T07:47:12Z</time>
      </trkpt>
      <trkpt lat="44.12364" lon="5.87661">
        <ele>886</ele>
        <time>2019-08-09T07:47:13Z</time>
      </trkpt>
      <trkpt lat="44.12365" lon="5.87656">
        <ele>887</ele>
        <time>2019-08-09T07:47:14Z</time>
      </trkpt>
      <trkpt lat="44.12367" lon="5.87653">
        <ele>888</ele>
        <time>2019-08-09T07:47:15Z</time>
      </trkpt>
      <trkpt lat="44.1237" lon="5.87652">
        <ele>888</ele>
        <time>2019-08-09T07:47:16Z</time>
      </trkpt>
      <trkpt lat="44.12374" lon="5.87651">
        <ele>889</ele>
        <time>2019-08-09T07:47:17Z</time>
      </trkpt>
      <trkpt lat="44.12377" lon="5.8765">
        <ele>889</ele>
        <time>2019-08-09T07:47:18Z</time>
      </trkpt>
      <trkpt lat="44.12381" lon="5.87649">
        <ele>890</ele>
        <time>2019-08-09T07:47:19Z</time>
      </trkpt>
      <trkpt lat="44.12385" lon="5.87648">
        <ele>890</ele>
        <time>2019-08-09T07:47:20Z</time>
      </trkpt>
      <trkpt lat="44.1239" lon="5.87647">
        <ele>890</ele>
        <time>2019-08-09T07:47:21Z</time>
      </trkpt>
      <trkpt lat="44.12394" lon="5.87646">
        <ele>891</ele>
        <time>2019-08-09T07:47:22Z</time>
      </trkpt>
      <trkpt lat="44.124" lon="5.87645">
        <ele>891</ele>
        <time>2019-08-09T07:47:23Z</time>
      </trkpt>
      <trkpt lat="44.12405" lon="5.87644">
        <ele>891</ele>
        <time>2019-08-09T07:47:24Z</time>
      </trkpt>
      <trkpt lat="44.1241" lon="5.87644">
        <ele>891</ele>
        <time>2019-08-09T07:47:25Z</time>
      </trkpt>
      <trkpt lat="44.12414" lon="5.87644">
        <ele>891</ele>
        <time>2019-08-09T07:47:26Z</time>
      </trkpt>
      <trkpt lat="44.1242" lon="5.87644">
        <ele>892</ele>
        <time>2019-08-09T07:47:27Z</time>
      </trkpt>
      <trkpt lat="44.12425" lon="5.87643">
        <ele>892</ele>
        <time>2019-08-09T07:47:28Z</time>
      </trkpt>
      <trkpt lat="44.1243" lon="5.87642">
        <ele>892</ele>
        <time>2019-08-09T07:47:29Z</time>
      </trkpt>
      <trkpt lat="44.12436" lon="5.87642">
        <ele>892</ele>
        <time>2019-08-09T07:47:30Z</time>
      </trkpt>
      <trkpt lat="44.12441" lon="5.87642">
        <ele>892</ele>
        <time>2019-08-09T07:47:31Z</time>
      </trkpt>
      <trkpt lat="44.12447" lon="5.8764">
        <ele>893</ele>
        <time>2019-08-09T07:47:32Z</time>
      </trkpt>
      <trkpt lat="44.12452" lon="5.87638">
        <ele>893</ele>
        <time>2019-08-09T07:47:33Z</time>
      </trkpt>
      <trkpt lat="44.12457" lon="5.87636">
        <ele>894</ele>
        <time>2019-08-09T07:47:34Z</time>
      </trkpt>
      <trkpt lat="44.12462" lon="5.87632">
        <ele>894</ele>
        <time>2019-08-09T07:47:35Z</time>
      </trkpt>
      <trkpt lat="44.12465" lon="5.87628">
        <ele>894</ele>
        <time>2019-08-09T07:47:36Z</time>
      </trkpt>
      <trkpt lat="44.12468" lon="5.87621">
        <ele>894</ele>
        <time>2019-08-09T07:47:37Z</time>
      </trkpt>
      <trkpt lat="44.12471" lon="5.87614">
        <ele>894</ele>
        <time>2019-08-09T07:47:38Z</time>
      </trkpt>
      <trkpt lat="44.12473" lon="5.87607">
        <ele>894</ele>
        <time>2019-08-09T07:47:39Z</time>
      </trkpt>
      <trkpt lat="44.12475" lon="5.87599">
        <ele>894</ele>
        <time>2019-08-09T07:47:40Z</time>
      </trkpt>
      <trkpt lat="44.12476" lon="5.87591">
        <ele>894</ele>
        <time>2019-08-09T07:47:41Z</time>
      </trkpt>
      <trkpt lat="44.12478" lon="5.87582">
        <ele>894</ele>
        <time>2019-08-09T07:47:42Z</time>
      </trkpt>
      <trkpt lat="44.12479" lon="5.87574">
        <ele>894</ele>
        <time>2019-08-09T07:47:43Z</time>
      </trkpt>
      <trkpt lat="44.1248" lon="5.87565">
        <ele>894</ele>
        <time>2019-08-09T07:47:44Z</time>
      </trkpt>
      <trkpt lat="44.1248" lon="5.87556">
        <ele>894</ele>
        <time>2019-08-09T07:47:45Z</time>
      </trkpt>
      <trkpt lat="44.12481" lon="5.87547">
        <ele>894</ele>
        <time>2019-08-09T07:47:46Z</time>
      </trkpt>
      <trkpt lat="44.12482" lon="5.87537">
        <ele>894</ele>
        <time>2019-08-09T07:47:47Z</time>
      </trkpt>
      <trkpt lat="44.12483" lon="5.87528">
        <ele>894</ele>
        <time>2019-08-09T07:47:48Z</time>
      </trkpt>
      <trkpt lat="44.12484" lon="5.87519">
        <ele>894</ele>
        <time>2019-08-09T07:47:49Z</time>
      </trkpt>
      <trkpt lat="44.12485" lon="5.8751">
        <ele>894</ele>
        <time>2019-08-09T07:47:50Z</time>
      </trkpt>
      <trkpt lat="44.12487" lon="5.87501">
        <ele>894</ele>
        <time>2019-08-09T07:47:51Z</time>
      </trkpt>
      <trkpt lat="44.12491" lon="5.87493">
        <ele>894</ele>
        <time>2019-08-09T07:47:52Z</time>
      </trkpt>
      <trkpt lat="44.12494" lon="5.87487">
        <ele>894</ele>
        <time>2019-08-09T07:47:53Z</time>
      </trkpt>
      <trkpt lat="44.12497" lon="5.87481">
        <ele>894</ele>
        <time>2019-08-09T07:47:54Z</time>
      </trkpt>
      <trkpt lat="44.125" lon="5.87476">
        <ele>894</ele>
        <time>2019-08-09T07:47:55Z</time>
      </trkpt>
      <trkpt lat="44.12503" lon="5.87471">
        <ele>894</ele>
        <time>2019-08-09T07:47:56Z</time>
      </trkpt>
      <trkpt lat="44.12505" lon="5.87466">
        <ele>894</ele>
        <time>2019-08-09T07:47:57Z</time>
      </trkpt>
      <trkpt lat="44.12507" lon="5.87461">
        <ele>893</ele>
        <time>2019-08-09T07:47:58Z</time>
      </trkpt>
      <trkpt lat="44.12509" lon="5.87455">
        <ele>893</ele>
        <time>2019-08-09T07:47:59Z</time>
      </trkpt>
      <trkpt lat="44.12511" lon="5.8745">
        <ele>893</ele>
        <time>2019-08-09T07:48:00Z</time>
      </trkpt>
      <trkpt lat="44.12513" lon="5.87444">
        <ele>893</ele>
        <time>2019-08-09T07:48:01Z</time>
      </trkpt>
      <trkpt lat="44.12514" lon="5.87439">
        <ele>893</ele>
        <time>2019-08-09T07:48:02Z</time>
      </trkpt>
      <trkpt lat="44.12515" lon="5.87434">
        <ele>893</ele>
        <time>2019-08-09T07:48:03Z</time>
      </trkpt>
      <trkpt lat="44.12515" lon="5.87429">
        <ele>893</ele>
        <time>2019-08-09T07:48:04Z</time>
      </trkpt>
      <trkpt lat="44.12515" lon="5.87423">
        <ele>893</ele>
        <time>2019-08-09T07:48:05Z</time>
      </trkpt>
      <trkpt lat="44.12516" lon="5.87418">
        <ele>893</ele>
        <time>2019-08-09T07:48:06Z</time>
      </trkpt>
      <trkpt lat="44.12517" lon="5.87413">
        <ele>893</ele>
        <time>2019-08-09T07:48:07Z</time>
      </trkpt>
      <trkpt lat="44.12518" lon="5.87408">
        <ele>893</ele>
        <time>2019-08-09T07:48:08Z</time>
      </trkpt>
      <trkpt lat="44.12519" lon="5.87403">
        <ele>893</ele>
        <time>2019-08-09T07:48:09Z</time>
      </trkpt>
      <trkpt lat="44.1252" lon="5.87399">
        <ele>893</ele>
        <time>2019-08-09T07:48:10Z</time>
      </trkpt>
      <trkpt lat="44.12521" lon="5.87394">
        <ele>893</ele>
        <time>2019-08-09T07:48:11Z</time>
      </trkpt>
      <trkpt lat="44.12521" lon="5.87389">
        <ele>893</ele>
        <time>2019-08-09T07:48:12Z</time>
      </trkpt>
      <trkpt lat="44.12522" lon="5.87385">
        <ele>893</ele>
        <time>2019-08-09T07:48:13Z</time>
      </trkpt>
      <trkpt lat="44.12523" lon="5.8738">
        <ele>893</ele>
        <time>2019-08-09T07:48:14Z</time>
      </trkpt>
      <trkpt lat="44.12523" lon="5.87375">
        <ele>893</ele>
        <time>2019-08-09T07:48:15Z</time>
      </trkpt>
      <trkpt lat="44.12523" lon="5.87371">
        <ele>894</ele>
        <time>2019-08-09T07:48:16Z</time>
      </trkpt>
      <trkpt lat="44.12523" lon="5.87366">
        <ele>894</ele>
        <time>2019-08-09T07:48:17Z</time>
      </trkpt>
      <trkpt lat="44.12523" lon="5.87361">
        <ele>895</ele>
        <time>2019-08-09T07:48:18Z</time>
      </trkpt>
      <trkpt lat="44.12523" lon="5.87357">
        <ele>895</ele>
        <time>2019-08-09T07:48:19Z</time>
      </trkpt>
      <trkpt lat="44.12523" lon="5.87353">
        <ele>896</ele>
        <time>2019-08-09T07:48:20Z</time>
      </trkpt>
      <trkpt lat="44.12522" lon="5.87349">
        <ele>896</ele>
        <time>2019-08-09T07:48:21Z</time>
      </trkpt>
      <trkpt lat="44.12521" lon="5.87345">
        <ele>896</ele>
        <time>2019-08-09T07:48:22Z</time>
      </trkpt>
      <trkpt lat="44.1252" lon="5.87341">
        <ele>896</ele>
        <time>2019-08-09T07:48:23Z</time>
      </trkpt>
      <trkpt lat="44.12519" lon="5.87336">
        <ele>897</ele>
        <time>2019-08-09T07:48:24Z</time>
      </trkpt>
      <trkpt lat="44.12518" lon="5.87332">
        <ele>897</ele>
        <time>2019-08-09T07:48:25Z</time>
      </trkpt>
      <trkpt lat="44.12517" lon="5.87328">
        <ele>897</ele>
        <time>2019-08-09T07:48:26Z</time>
      </trkpt>
      <trkpt lat="44.12516" lon="5.87324">
        <ele>897</ele>
        <time>2019-08-09T07:48:27Z</time>
      </trkpt>
      <trkpt lat="44.12515" lon="5.8732">
        <ele>897</ele>
        <time>2019-08-09T07:48:28Z</time>
      </trkpt>
      <trkpt lat="44.12513" lon="5.87315">
        <ele>897</ele>
        <time>2019-08-09T07:48:29Z</time>
      </trkpt>
      <trkpt lat="44.12513" lon="5.87311">
        <ele>897</ele>
        <time>2019-08-09T07:48:30Z</time>
      </trkpt>
      <trkpt lat="44.12513" lon="5.87306">
        <ele>897</ele>
        <time>2019-08-09T07:48:31Z</time>
      </trkpt>
      <trkpt lat="44.12512" lon="5.87301">
        <ele>897</ele>
        <time>2019-08-09T07:48:32Z</time>
      </trkpt>
      <trkpt lat="44.12512" lon="5.87297">
        <ele>897</ele>
        <time>2019-08-09T07:48:33Z</time>
      </trkpt>
      <trkpt lat="44.12512" lon="5.87292">
        <ele>898</ele>
        <time>2019-08-09T07:48:34Z</time>
      </trkpt>
      <trkpt lat="44.12513" lon="5.87288">
        <ele>898</ele>
        <time>2019-08-09T07:48:35Z</time>
      </trkpt>
      <trkpt lat="44.12513" lon="5.87283">
        <ele>899</ele>
        <time>2019-08-09T07:48:36Z</time>
      </trkpt>
      <trkpt lat="44.12513" lon="5.87279">
        <ele>899</ele>
        <time>2019-08-09T07:48:37Z</time>
      </trkpt>
      <trkpt lat="44.12513" lon="5.87273">
        <ele>900</ele>
        <time>2019-08-09T07:48:38Z</time>
      </trkpt>
      <trkpt lat="44.12513" lon="5.87268">
        <ele>900</ele>
        <time>2019-08-09T07:48:39Z</time>
      </trkpt>
      <trkpt lat="44.12513" lon="5.87263">
        <ele>900</ele>
        <time>2019-08-09T07:48:40Z</time>
      </trkpt>
      <trkpt lat="44.12514" lon="5.87259">
        <ele>900</ele>
        <time>2019-08-09T07:48:41Z</time>
      </trkpt>
      <trkpt lat="44.12514" lon="5.87254">
        <ele>900</ele>
        <time>2019-08-09T07:48:42Z</time>
      </trkpt>
      <trkpt lat="44.12515" lon="5.8725">
        <ele>901</ele>
        <time>2019-08-09T07:48:43Z</time>
      </trkpt>
      <trkpt lat="44.12516" lon="5.87246">
        <ele>901</ele>
        <time>2019-08-09T07:48:44Z</time>
      </trkpt>
      <trkpt lat="44.12517" lon="5.87242">
        <ele>901</ele>
        <time>2019-08-09T07:48:45Z</time>
      </trkpt>
      <trkpt lat="44.12518" lon="5.87238">
        <ele>901</ele>
        <time>2019-08-09T07:48:46Z</time>
      </trkpt>
      <trkpt lat="44.1252" lon="5.87234">
        <ele>901</ele>
        <time>2019-08-09T07:48:47Z</time>
      </trkpt>
      <trkpt lat="44.12521" lon="5.8723">
        <ele>901</ele>
        <time>2019-08-09T07:48:48Z</time>
      </trkpt>
      <trkpt lat="44.12521" lon="5.87225">
        <ele>901</ele>
        <time>2019-08-09T07:48:49Z</time>
      </trkpt>
      <trkpt lat="44.12523" lon="5.87222">
        <ele>901</ele>
        <time>2019-08-09T07:48:50Z</time>
      </trkpt>
      <trkpt lat="44.12523" lon="5.87218">
        <ele>901</ele>
        <time>2019-08-09T07:48:51Z</time>
      </trkpt>
      <trkpt lat="44.12525" lon="5.87213">
        <ele>901</ele>
        <time>2019-08-09T07:48:52Z</time>
      </trkpt>
      <trkpt lat="44.12526" lon="5.87209">
        <ele>901</ele>
        <time>2019-08-09T07:48:53Z</time>
      </trkpt>
      <trkpt lat="44.12526" lon="5.87204">
        <ele>902</ele>
        <time>2019-08-09T07:48:54Z</time>
      </trkpt>
      <trkpt lat="44.12526" lon="5.87199">
        <ele>902</ele>
        <time>2019-08-09T07:48:55Z</time>
      </trkpt>
      <trkpt lat="44.12527" lon="5.87194">
        <ele>902</ele>
        <time>2019-08-09T07:48:56Z</time>
      </trkpt>
      <trkpt lat="44.12528" lon="5.8719">
        <ele>902</ele>
        <time>2019-08-09T07:48:57Z</time>
      </trkpt>
      <trkpt lat="44.12529" lon="5.87186">
        <ele>903</ele>
        <time>2019-08-09T07:48:58Z</time>
      </trkpt>
      <trkpt lat="44.12529" lon="5.87182">
        <ele>903</ele>
        <time>2019-08-09T07:48:59Z</time>
      </trkpt>
      <trkpt lat="44.1253" lon="5.87178">
        <ele>904</ele>
        <time>2019-08-09T07:49:00Z</time>
      </trkpt>
      <trkpt lat="44.12531" lon="5.87174">
        <ele>904</ele>
        <time>2019-08-09T07:49:01Z</time>
      </trkpt>
      <trkpt lat="44.1253" lon="5.8717">
        <ele>904</ele>
        <time>2019-08-09T07:49:02Z</time>
      </trkpt>
      <trkpt lat="44.1253" lon="5.87165">
        <ele>904</ele>
        <time>2019-08-09T07:49:03Z</time>
      </trkpt>
      <trkpt lat="44.1253" lon="5.87162">
        <ele>904</ele>
        <time>2019-08-09T07:49:04Z</time>
      </trkpt>
      <trkpt lat="44.12529" lon="5.87157">
        <ele>904</ele>
        <time>2019-08-09T07:49:05Z</time>
      </trkpt>
      <trkpt lat="44.12529" lon="5.87152">
        <ele>904</ele>
        <time>2019-08-09T07:49:06Z</time>
      </trkpt>
      <trkpt lat="44.12529" lon="5.87148">
        <ele>904</ele>
        <time>2019-08-09T07:49:07Z</time>
      </trkpt>
      <trkpt lat="44.1253" lon="5.87144">
        <ele>904</ele>
        <time>2019-08-09T07:49:08Z</time>
      </trkpt>
      <trkpt lat="44.12531" lon="5.87139">
        <ele>904</ele>
        <time>2019-08-09T07:49:09Z</time>
      </trkpt>
      <trkpt lat="44.12532" lon="5.87134">
        <ele>904</ele>
        <time>2019-08-09T07:49:10Z</time>
      </trkpt>
      <trkpt lat="44.12532" lon="5.87129">
        <ele>904</ele>
        <time>2019-08-09T07:49:11Z</time>
      </trkpt>
      <trkpt lat="44.12532" lon="5.87124">
        <ele>904</ele>
        <time>2019-08-09T07:49:12Z</time>
      </trkpt>
      <trkpt lat="44.12532" lon="5.87119">
        <ele>904</ele>
        <time>2019-08-09T07:49:13Z</time>
      </trkpt>
      <trkpt lat="44.12532" lon="5.87113">
        <ele>904</ele>
        <time>2019-08-09T07:49:14Z</time>
      </trkpt>
      <trkpt lat="44.12532" lon="5.87109">
        <ele>904</ele>
        <time>2019-08-09T07:49:15Z</time>
      </trkpt>
      <trkpt lat="44.12532" lon="5.87104">
        <ele>904</ele>
        <time>2019-08-09T07:49:16Z</time>
      </trkpt>
      <trkpt lat="44.12533" lon="5.871">
        <ele>904</ele>
        <time>2019-08-09T07:49:17Z</time>
      </trkpt>
      <trkpt lat="44.12533" lon="5.87094">
        <ele>904</ele>
        <time>2019-08-09T07:49:18Z</time>
      </trkpt>
      <trkpt lat="44.12534" lon="5.8709">
        <ele>904</ele>
        <time>2019-08-09T07:49:19Z</time>
      </trkpt>
      <trkpt lat="44.12534" lon="5.87085">
        <ele>904</ele>
        <time>2019-08-09T07:49:20Z</time>
      </trkpt>
      <trkpt lat="44.12535" lon="5.8708">
        <ele>904</ele>
        <time>2019-08-09T07:49:21Z</time>
      </trkpt>
      <trkpt lat="44.12535" lon="5.87076">
        <ele>904</ele>
        <time>2019-08-09T07:49:22Z</time>
      </trkpt>
      <trkpt lat="44.12536" lon="5.87071">
        <ele>904</ele>
        <time>2019-08-09T07:49:23Z</time>
      </trkpt>
      <trkpt lat="44.12537" lon="5.87066">
        <ele>904</ele>
        <time>2019-08-09T07:49:24Z</time>
      </trkpt>
      <trkpt lat="44.12537" lon="5.87061">
        <ele>904</ele>
        <time>2019-08-09T07:49:25Z</time>
      </trkpt>
      <trkpt lat="44.12537" lon="5.87056">
        <ele>904</ele>
        <time>2019-08-09T07:49:26Z</time>
      </trkpt>
      <trkpt lat="44.12537" lon="5.87051">
        <ele>904</ele>
        <time>2019-08-09T07:49:27Z</time>
      </trkpt>
      <trkpt lat="44.12536" lon="5.87046">
        <ele>904</ele>
        <time>2019-08-09T07:49:28Z</time>
      </trkpt>
      <trkpt lat="44.12536" lon="5.87041">
        <ele>904</ele>
        <time>2019-08-09T07:49:29Z</time>
      </trkpt>
      <trkpt lat="44.12534" lon="5.87036">
        <ele>904</ele>
        <time>2019-08-09T07:49:30Z</time>
      </trkpt>
      <trkpt lat="44.12533" lon="5.87032">
        <ele>904</ele>
        <time>2019-08-09T07:49:31Z</time>
      </trkpt>
      <trkpt lat="44.12532" lon="5.87028">
        <ele>904</ele>
        <time>2019-08-09T07:49:32Z</time>
      </trkpt>
      <trkpt lat="44.1253" lon="5.87024">
        <ele>904</ele>
        <time>2019-08-09T07:49:33Z</time>
      </trkpt>
      <trkpt lat="44.12529" lon="5.87019">
        <ele>904</ele>
        <time>2019-08-09T07:49:34Z</time>
      </trkpt>
      <trkpt lat="44.12526" lon="5.87015">
        <ele>905</ele>
        <time>2019-08-09T07:49:35Z</time>
      </trkpt>
      <trkpt lat="44.12524" lon="5.8701">
        <ele>906</ele>
        <time>2019-08-09T07:49:36Z</time>
      </trkpt>
      <trkpt lat="44.12523" lon="5.87005">
        <ele>907</ele>
        <time>2019-08-09T07:49:37Z</time>
      </trkpt>
      <trkpt lat="44.1252" lon="5.87001">
        <ele>908</ele>
        <time>2019-08-09T07:49:38Z</time>
      </trkpt>
      <trkpt lat="44.12517" lon="5.86995">
        <ele>908</ele>
        <time>2019-08-09T07:49:39Z</time>
      </trkpt>
      <trkpt lat="44.12514" lon="5.8699">
        <ele>909</ele>
        <time>2019-08-09T07:49:40Z</time>
      </trkpt>
      <trkpt lat="44.1251" lon="5.86986">
        <ele>909</ele>
        <time>2019-08-09T07:49:41Z</time>
      </trkpt>
      <trkpt lat="44.12506" lon="5.86982">
        <ele>909</ele>
        <time>2019-08-09T07:49:42Z</time>
      </trkpt>
      <trkpt lat="44.12502" lon="5.8698">
        <ele>909</ele>
        <time>2019-08-09T07:49:43Z</time>
      </trkpt>
      <trkpt lat="44.12497" lon="5.86978">
        <ele>909</ele>
        <time>2019-08-09T07:49:44Z</time>
      </trkpt>
      <trkpt lat="44.12493" lon="5.86976">
        <ele>909</ele>
        <time>2019-08-09T07:49:45Z</time>
      </trkpt>
      <trkpt lat="44.12487" lon="5.86975">
        <ele>909</ele>
        <time>2019-08-09T07:49:46Z</time>
      </trkpt>
      <trkpt lat="44.12483" lon="5.86975">
        <ele>909</ele>
        <time>2019-08-09T07:49:47Z</time>
      </trkpt>
      <trkpt lat="44.12478" lon="5.86974">
        <ele>909</ele>
        <time>2019-08-09T07:49:48Z</time>
      </trkpt>
      <trkpt lat="44.12474" lon="5.86973">
        <ele>909</ele>
        <time>2019-08-09T07:49:49Z</time>
      </trkpt>
      <trkpt lat="44.12469" lon="5.86973">
        <ele>909</ele>
        <time>2019-08-09T07:49:50Z</time>
      </trkpt>
      <trkpt lat="44.12465" lon="5.86973">
        <ele>909</ele>
        <time>2019-08-09T07:49:51Z</time>
      </trkpt>
      <trkpt lat="44.12461" lon="5.86972">
        <ele>909</ele>
        <time>2019-08-09T07:49:52Z</time>
      </trkpt>
      <trkpt lat="44.12456" lon="5.8697">
        <ele>909</ele>
        <time>2019-08-09T07:49:53Z</time>
      </trkpt>
      <trkpt lat="44.12452" lon="5.86968">
        <ele>909</ele>
        <time>2019-08-09T07:49:54Z</time>
      </trkpt>
      <trkpt lat="44.12448" lon="5.86965">
        <ele>909</ele>
        <time>2019-08-09T07:49:55Z</time>
      </trkpt>
      <trkpt lat="44.12446" lon="5.8696">
        <ele>909</ele>
        <time>2019-08-09T07:49:56Z</time>
      </trkpt>
      <trkpt lat="44.12445" lon="5.86954">
        <ele>909</ele>
        <time>2019-08-09T07:49:57Z</time>
      </trkpt>
      <trkpt lat="44.12445" lon="5.86947">
        <ele>909</ele>
        <time>2019-08-09T07:49:58Z</time>
      </trkpt>
      <trkpt lat="44.12447" lon="5.86941">
        <ele>909</ele>
        <time>2019-08-09T07:49:59Z</time>
      </trkpt>
      <trkpt lat="44.1245" lon="5.86935">
        <ele>909</ele>
        <time>2019-08-09T07:50:00Z</time>
      </trkpt>
      <trkpt lat="44.12452" lon="5.86929">
        <ele>909</ele>
        <time>2019-08-09T07:50:01Z</time>
      </trkpt>
      <trkpt lat="44.12453" lon="5.86924">
        <ele>909</ele>
        <time>2019-08-09T07:50:02Z</time>
      </trkpt>
      <trkpt lat="44.12455" lon="5.86918">
        <ele>909</ele>
        <time>2019-08-09T07:50:03Z</time>
      </trkpt>
      <trkpt lat="44.12456" lon="5.86913">
        <ele>909</ele>
        <time>2019-08-09T07:50:04Z</time>
      </trkpt>
      <trkpt lat="44.12457" lon="5.86906">
        <ele>909</ele>
        <time>2019-08-09T07:50:05Z</time>
      </trkpt>
      <trkpt lat="44.12457" lon="5.869">
        <ele>909</ele>
        <time>2019-08-09T07:50:06Z</time>
      </trkpt>
      <trkpt lat="44.12456" lon="5.86893">
        <ele>909</ele>
        <time>2019-08-09T07:50:07Z</time>
      </trkpt>
      <trkpt lat="44.12455" lon="5.86886">
        <ele>909</ele>
        <time>2019-08-09T07:50:08Z</time>
      </trkpt>
      <trkpt lat="44.12454" lon="5.86879">
        <ele>909</ele>
        <time>2019-08-09T07:50:09Z</time>
      </trkpt>
      <trkpt lat="44.12454" lon="5.86872">
        <ele>909</ele>
        <time>2019-08-09T07:50:10Z</time>
      </trkpt>
      <trkpt lat="44.12453" lon="5.86865">
        <ele>909</ele>
        <time>2019-08-09T07:50:11Z</time>
      </trkpt>
      <trkpt lat="44.12453" lon="5.86859">
        <ele>910</ele>
        <time>2019-08-09T07:50:12Z</time>
      </trkpt>
      <trkpt lat="44.12453" lon="5.86852">
        <ele>910</ele>
        <time>2019-08-09T07:50:13Z</time>
      </trkpt>
      <trkpt lat="44.12452" lon="5.86846">
        <ele>910</ele>
        <time>2019-08-09T07:50:14Z</time>
      </trkpt>
      <trkpt lat="44.1245" lon="5.8684">
        <ele>910</ele>
        <time>2019-08-09T07:50:15Z</time>
      </trkpt>
      <trkpt lat="44.12448" lon="5.86836">
        <ele>910</ele>
        <time>2019-08-09T07:50:16Z</time>
      </trkpt>
      <trkpt lat="44.12445" lon="5.86832">
        <ele>910</ele>
        <time>2019-08-09T07:50:17Z</time>
      </trkpt>
      <trkpt lat="44.1244" lon="5.86829">
        <ele>910</ele>
        <time>2019-08-09T07:50:18Z</time>
      </trkpt>
      <trkpt lat="44.12436" lon="5.86827">
        <ele>910</ele>
        <time>2019-08-09T07:50:19Z</time>
      </trkpt>
      <trkpt lat="44.12431" lon="5.86825">
        <ele>910</ele>
        <time>2019-08-09T07:50:20Z</time>
      </trkpt>
      <trkpt lat="44.12426" lon="5.86824">
        <ele>910</ele>
        <time>2019-08-09T07:50:21Z</time>
      </trkpt>
      <trkpt lat="44.12422" lon="5.86822">
        <ele>910</ele>
        <time>2019-08-09T07:50:22Z</time>
      </trkpt>
      <trkpt lat="44.12417" lon="5.86821">
        <ele>910</ele>
        <time>2019-08-09T07:50:23Z</time>
      </trkpt>
      <trkpt lat="44.12413" lon="5.8682">
        <ele>910</ele>
        <time>2019-08-09T07:50:24Z</time>
      </trkpt>
      <trkpt lat="44.12408" lon="5.86819">
        <ele>910</ele>
        <time>2019-08-09T07:50:25Z</time>
      </trkpt>
      <trkpt lat="44.12404" lon="5.86819">
        <ele>910</ele>
        <time>2019-08-09T07:50:26Z</time>
      </trkpt>
      <trkpt lat="44.12399" lon="5.86819">
        <ele>910</ele>
        <time>2019-08-09T07:50:27Z</time>
      </trkpt>
      <trkpt lat="44.12394" lon="5.86819">
        <ele>910</ele>
        <time>2019-08-09T07:50:28Z</time>
      </trkpt>
      <trkpt lat="44.12389" lon="5.86819">
        <ele>910</ele>
        <time>2019-08-09T07:50:29Z</time>
      </trkpt>
      <trkpt lat="44.12385" lon="5.86819">
        <ele>910</ele>
        <time>2019-08-09T07:50:30Z</time>
      </trkpt>
      <trkpt lat="44.12381" lon="5.86819">
        <ele>911</ele>
        <time>2019-08-09T07:50:31Z</time>
      </trkpt>
      <trkpt lat="44.12376" lon="5.8682">
        <ele>911</ele>
        <time>2019-08-09T07:50:32Z</time>
      </trkpt>
      <trkpt lat="44.12371" lon="5.86821">
        <ele>911</ele>
        <time>2019-08-09T07:50:33Z</time>
      </trkpt>
      <trkpt lat="44.12367" lon="5.86822">
        <ele>911</ele>
        <time>2019-08-09T07:50:34Z</time>
      </trkpt>
      <trkpt lat="44.12362" lon="5.86824">
        <ele>911</ele>
        <time>2019-08-09T07:50:35Z</time>
      </trkpt>
      <trkpt lat="44.12357" lon="5.86826">
        <ele>911</ele>
        <time>2019-08-09T07:50:36Z</time>
      </trkpt>
      <trkpt lat="44.12352" lon="5.86828">
        <ele>911</ele>
        <time>2019-08-09T07:50:37Z</time>
      </trkpt>
      <trkpt lat="44.12348" lon="5.8683">
        <ele>911</ele>
        <time>2019-08-09T07:50:38Z</time>
      </trkpt>
      <trkpt lat="44.12344" lon="5.86832">
        <ele>911</ele>
        <time>2019-08-09T07:50:39Z</time>
      </trkpt>
      <trkpt lat="44.12339" lon="5.86833">
        <ele>911</ele>
        <time>2019-08-09T07:50:40Z</time>
      </trkpt>
      <trkpt lat="44.12335" lon="5.86833">
        <ele>911</ele>
        <time>2019-08-09T07:50:41Z</time>
      </trkpt>
      <trkpt lat="44.12331" lon="5.86831">
        <ele>911</ele>
        <time>2019-08-09T07:50:42Z</time>
      </trkpt>
      <trkpt lat="44.12327" lon="5.86828">
        <ele>911</ele>
        <time>2019-08-09T07:50:43Z</time>
      </trkpt>
      <trkpt lat="44.12324" lon="5.86823">
        <ele>911</ele>
        <time>2019-08-09T07:50:44Z</time>
      </trkpt>
      <trkpt lat="44.12322" lon="5.86818">
        <ele>912</ele>
        <time>2019-08-09T07:50:45Z</time>
      </trkpt>
      <trkpt lat="44.12321" lon="5.86812">
        <ele>912</ele>
        <time>2019-08-09T07:50:46Z</time>
      </trkpt>
      <trkpt lat="44.1232" lon="5.86807">
        <ele>912</ele>
        <time>2019-08-09T07:50:47Z</time>
      </trkpt>
      <trkpt lat="44.12319" lon="5.86801">
        <ele>912</ele>
        <time>2019-08-09T07:50:48Z</time>
      </trkpt>
      <trkpt lat="44.12318" lon="5.86794">
        <ele>912</ele>
        <time>2019-08-09T07:50:49Z</time>
      </trkpt>
      <trkpt lat="44.12318" lon="5.86788">
        <ele>912</ele>
        <time>2019-08-09T07:50:50Z</time>
      </trkpt>
      <trkpt lat="44.12317" lon="5.86782">
        <ele>912</ele>
        <time>2019-08-09T07:50:51Z</time>
      </trkpt>
      <trkpt lat="44.12317" lon="5.86776">
        <ele>912</ele>
        <time>2019-08-09T07:50:52Z</time>
      </trkpt>
      <trkpt lat="44.12317" lon="5.8677">
        <ele>912</ele>
        <time>2019-08-09T07:50:53Z</time>
      </trkpt>
      <trkpt lat="44.12317" lon="5.86764">
        <ele>912</ele>
        <time>2019-08-09T07:50:54Z</time>
      </trkpt>
      <trkpt lat="44.12318" lon="5.86758">
        <ele>912</ele>
        <time>2019-08-09T07:50:55Z</time>
      </trkpt>
      <trkpt lat="44.12318" lon="5.86752">
        <ele>912</ele>
        <time>2019-08-09T07:50:56Z</time>
      </trkpt>
      <trkpt lat="44.1232" lon="5.86746">
        <ele>912</ele>
        <time>2019-08-09T07:50:57Z</time>
      </trkpt>
      <trkpt lat="44.12322" lon="5.86741">
        <ele>912</ele>
        <time>2019-08-09T07:50:58Z</time>
      </trkpt>
      <trkpt lat="44.12325" lon="5.86736">
        <ele>912</ele>
        <time>2019-08-09T07:50:59Z</time>
      </trkpt>
      <trkpt lat="44.12328" lon="5.86732">
        <ele>912</ele>
        <time>2019-08-09T07:51:00Z</time>
      </trkpt>
      <trkpt lat="44.12332" lon="5.86729">
        <ele>912</ele>
        <time>2019-08-09T07:51:01Z</time>
      </trkpt>
      <trkpt lat="44.12336" lon="5.86727">
        <ele>912</ele>
        <time>2019-08-09T07:51:02Z</time>
      </trkpt>
      <trkpt lat="44.1234" lon="5.86725">
        <ele>912</ele>
        <time>2019-08-09T07:51:03Z</time>
      </trkpt>
      <trkpt lat="44.12344" lon="5.86723">
        <ele>912</ele>
        <time>2019-08-09T07:51:04Z</time>
      </trkpt>
      <trkpt lat="44.12348" lon="5.86721">
        <ele>912</ele>
        <time>2019-08-09T07:51:05Z</time>
      </trkpt>
      <trkpt lat="44.12352" lon="5.8672">
        <ele>912</ele>
        <time>2019-08-09T07:51:06Z</time>
      </trkpt>
      <trkpt lat="44.12356" lon="5.86719">
        <ele>912</ele>
        <time>2019-08-09T07:51:07Z</time>
      </trkpt>
      <trkpt lat="44.1236" lon="5.86718">
        <ele>912</ele>
        <time>2019-08-09T07:51:08Z</time>
      </trkpt>
      <trkpt lat="44.12364" lon="5.86716">
        <ele>912</ele>
        <time>2019-08-09T07:51:09Z</time>
      </trkpt>
      <trkpt lat="44.12368" lon="5.86715">
        <ele>912</ele>
        <time>2019-08-09T07:51:10Z</time>
      </trkpt>
      <trkpt lat="44.12371" lon="5.86713">
        <ele>912</ele>
        <time>2019-08-09T07:51:11Z</time>
      </trkpt>
      <trkpt lat="44.12375" lon="5.86711">
        <ele>912</ele>
        <time>2019-08-09T07:51:12Z</time>
      </trkpt>
      <trkpt lat="44.12379" lon="5.86709">
        <ele>913</ele>
        <time>2019-08-09T07:51:13Z</time>
      </trkpt>
      <trkpt lat="44.12383" lon="5.86707">
        <ele>913</ele>
        <time>2019-08-09T07:51:14Z</time>
      </trkpt>
      <trkpt lat="44.12387" lon="5.86705">
        <ele>913</ele>
        <time>2019-08-09T07:51:15Z</time>
      </trkpt>
      <trkpt lat="44.12391" lon="5.86702">
        <ele>913</ele>
        <time>2019-08-09T07:51:16Z</time>
      </trkpt>
      <trkpt lat="44.12395" lon="5.86699">
        <ele>913</ele>
        <time>2019-08-09T07:51:17Z</time>
      </trkpt>
      <trkpt lat="44.12399" lon="5.86696">
        <ele>913</ele>
        <time>2019-08-09T07:51:18Z</time>
      </trkpt>
      <trkpt lat="44.12402" lon="5.86694">
        <ele>913</ele>
        <time>2019-08-09T07:51:19Z</time>
      </trkpt>
      <trkpt lat="44.12406" lon="5.86692">
        <ele>914</ele>
        <time>2019-08-09T07:51:20Z</time>
      </trkpt>
      <trkpt lat="44.1241" lon="5.86689">
        <ele>915</ele>
        <time>2019-08-09T07:51:21Z</time>
      </trkpt>
      <trkpt lat="44.12414" lon="5.86686">
        <ele>916</ele>
        <time>2019-08-09T07:51:22Z</time>
      </trkpt>
      <trkpt lat="44.12418" lon="5.86684">
        <ele>917</ele>
        <time>2019-08-09T07:51:23Z</time>
      </trkpt>
      <trkpt lat="44.12422" lon="5.86682">
        <ele>918</ele>
        <time>2019-08-09T07:51:24Z</time>
      </trkpt>
      <trkpt lat="44.12426" lon="5.8668">
        <ele>919</ele>
        <time>2019-08-09T07:51:25Z</time>
      </trkpt>
      <trkpt lat="44.12431" lon="5.86677">
        <ele>920</ele>
        <time>2019-08-09T07:51:26Z</time>
      </trkpt>
      <trkpt lat="44.12434" lon="5.86675">
        <ele>921</ele>
        <time>2019-08-09T07:51:27Z</time>
      </trkpt>
      <trkpt lat="44.12438" lon="5.86674">
        <ele>921</ele>
        <time>2019-08-09T07:51:28Z</time>
      </trkpt>
      <trkpt lat="44.12442" lon="5.86672">
        <ele>921</ele>
        <time>2019-08-09T07:51:29Z</time>
      </trkpt>
      <trkpt lat="44.12447" lon="5.86668">
        <ele>921</ele>
        <time>2019-08-09T07:51:30Z</time>
      </trkpt>
      <trkpt lat="44.12451" lon="5.86664">
        <ele>921</ele>
        <time>2019-08-09T07:51:31Z</time>
      </trkpt>
      <trkpt lat="44.12454" lon="5.86661">
        <ele>921</ele>
        <time>2019-08-09T07:51:32Z</time>
      </trkpt>
      <trkpt lat="44.12457" lon="5.86657">
        <ele>921</ele>
        <time>2019-08-09T07:51:33Z</time>
      </trkpt>
      <trkpt lat="44.1246" lon="5.86653">
        <ele>921</ele>
        <time>2019-08-09T07:51:34Z</time>
      </trkpt>
      <trkpt lat="44.12462" lon="5.86647">
        <ele>921</ele>
        <time>2019-08-09T07:51:35Z</time>
      </trkpt>
      <trkpt lat="44.12464" lon="5.86641">
        <ele>920</ele>
        <time>2019-08-09T07:51:36Z</time>
      </trkpt>
      <trkpt lat="44.12465" lon="5.86636">
        <ele>920</ele>
        <time>2019-08-09T07:51:37Z</time>
      </trkpt>
      <trkpt lat="44.12466" lon="5.86631">
        <ele>920</ele>
        <time>2019-08-09T07:51:38Z</time>
      </trkpt>
      <trkpt lat="44.12466" lon="5.86626">
        <ele>920</ele>
        <time>2019-08-09T07:51:39Z</time>
      </trkpt>
      <trkpt lat="44.12465" lon="5.86622">
        <ele>920</ele>
        <time>2019-08-09T07:51:40Z</time>
      </trkpt>
      <trkpt lat="44.12464" lon="5.86617">
        <ele>920</ele>
        <time>2019-08-09T07:51:41Z</time>
      </trkpt>
      <trkpt lat="44.12462" lon="5.86613">
        <ele>920</ele>
        <time>2019-08-09T07:51:42Z</time>
      </trkpt>
      <trkpt lat="44.1246" lon="5.86609">
        <ele>920</ele>
        <time>2019-08-09T07:51:43Z</time>
      </trkpt>
      <trkpt lat="44.12458" lon="5.86605">
        <ele>920</ele>
        <time>2019-08-09T07:51:44Z</time>
      </trkpt>
      <trkpt lat="44.12456" lon="5.86601">
        <ele>920</ele>
        <time>2019-08-09T07:51:45Z</time>
      </trkpt>
      <trkpt lat="44.12454" lon="5.86598">
        <ele>920</ele>
        <time>2019-08-09T07:51:46Z</time>
      </trkpt>
      <trkpt lat="44.12453" lon="5.86595">
        <ele>920</ele>
        <time>2019-08-09T07:51:47Z</time>
      </trkpt>
      <trkpt lat="44.12451" lon="5.86593">
        <ele>920</ele>
        <time>2019-08-09T07:51:48Z</time>
      </trkpt>
      <trkpt lat="44.12449" lon="5.8659">
        <ele>920</ele>
        <time>2019-08-09T07:51:49Z</time>
      </trkpt>
      <trkpt lat="44.12447" lon="5.86587">
        <ele>920</ele>
        <time>2019-08-09T07:51:50Z</time>
      </trkpt>
      <trkpt lat="44.12445" lon="5.86584">
        <ele>920</ele>
        <time>2019-08-09T07:51:51Z</time>
      </trkpt>
      <trkpt lat="44.12443" lon="5.86582">
        <ele>920</ele>
        <time>2019-08-09T07:51:52Z</time>
      </trkpt>
      <trkpt lat="44.1244" lon="5.8658">
        <ele>920</ele>
        <time>2019-08-09T07:51:53Z</time>
      </trkpt>
      <trkpt lat="44.12438" lon="5.86576">
        <ele>920</ele>
        <time>2019-08-09T07:51:54Z</time>
      </trkpt>
      <trkpt lat="44.12436" lon="5.86573">
        <ele>920</ele>
        <time>2019-08-09T07:51:55Z</time>
      </trkpt>
      <trkpt lat="44.12433" lon="5.8657">
        <ele>920</ele>
        <time>2019-08-09T07:51:56Z</time>
      </trkpt>
      <trkpt lat="44.1243" lon="5.86569">
        <ele>920</ele>
        <time>2019-08-09T07:51:57Z</time>
      </trkpt>
      <trkpt lat="44.12426" lon="5.86566">
        <ele>919</ele>
        <time>2019-08-09T07:51:58Z</time>
      </trkpt>
      <trkpt lat="44.12424" lon="5.86563">
        <ele>918</ele>
        <time>2019-08-09T07:51:59Z</time>
      </trkpt>
      <trkpt lat="44.12416" lon="5.86555">
        <ele>917</ele>
        <time>2019-08-09T07:52:02Z</time>
      </trkpt>
      <trkpt lat="44.12414" lon="5.86552">
        <ele>916</ele>
        <time>2019-08-09T07:52:03Z</time>
      </trkpt>
      <trkpt lat="44.1241" lon="5.86548">
        <ele>915</ele>
        <time>2019-08-09T07:52:04Z</time>
      </trkpt>
      <trkpt lat="44.12407" lon="5.86543">
        <ele>915</ele>
        <time>2019-08-09T07:52:05Z</time>
      </trkpt>
      <trkpt lat="44.12403" lon="5.86538">
        <ele>915</ele>
        <time>2019-08-09T07:52:06Z</time>
      </trkpt>
      <trkpt lat="44.124" lon="5.86534">
        <ele>915</ele>
        <time>2019-08-09T07:52:07Z</time>
      </trkpt>
      <trkpt lat="44.12398" lon="5.8653">
        <ele>915</ele>
        <time>2019-08-09T07:52:08Z</time>
      </trkpt>
      <trkpt lat="44.12395" lon="5.86526">
        <ele>915</ele>
        <time>2019-08-09T07:52:09Z</time>
      </trkpt>
      <trkpt lat="44.12393" lon="5.86522">
        <ele>915</ele>
        <time>2019-08-09T07:52:10Z</time>
      </trkpt>
      <trkpt lat="44.12391" lon="5.86517">
        <ele>915</ele>
        <time>2019-08-09T07:52:11Z</time>
      </trkpt>
      <trkpt lat="44.12388" lon="5.86513">
        <ele>915</ele>
        <time>2019-08-09T07:52:12Z</time>
      </trkpt>
      <trkpt lat="44.12387" lon="5.86509">
        <ele>915</ele>
        <time>2019-08-09T07:52:13Z</time>
      </trkpt>
      <trkpt lat="44.12386" lon="5.86504">
        <ele>915</ele>
        <time>2019-08-09T07:52:14Z</time>
      </trkpt>
      <trkpt lat="44.12385" lon="5.86498">
        <ele>915</ele>
        <time>2019-08-09T07:52:15Z</time>
      </trkpt>
      <trkpt lat="44.12385" lon="5.86492">
        <ele>915</ele>
        <time>2019-08-09T07:52:16Z</time>
      </trkpt>
      <trkpt lat="44.12387" lon="5.86487">
        <ele>915</ele>
        <time>2019-08-09T07:52:17Z</time>
      </trkpt>
      <trkpt lat="44.12389" lon="5.86482">
        <ele>915</ele>
        <time>2019-08-09T07:52:18Z</time>
      </trkpt>
      <trkpt lat="44.12392" lon="5.86478">
        <ele>915</ele>
        <time>2019-08-09T07:52:19Z</time>
      </trkpt>
      <trkpt lat="44.12394" lon="5.86473">
        <ele>915</ele>
        <time>2019-08-09T07:52:20Z</time>
      </trkpt>
      <trkpt lat="44.12397" lon="5.86469">
        <ele>916</ele>
        <time>2019-08-09T07:52:21Z</time>
      </trkpt>
      <trkpt lat="44.12399" lon="5.86463">
        <ele>916</ele>
        <time>2019-08-09T07:52:22Z</time>
      </trkpt>
      <trkpt lat="44.124" lon="5.86458">
        <ele>916</ele>
        <time>2019-08-09T07:52:23Z</time>
      </trkpt>
      <trkpt lat="44.12401" lon="5.86454">
        <ele>916</ele>
        <time>2019-08-09T07:52:24Z</time>
      </trkpt>
      <trkpt lat="44.12401" lon="5.8645">
        <ele>916</ele>
        <time>2019-08-09T07:52:25Z</time>
      </trkpt>
      <trkpt lat="44.124" lon="5.86445">
        <ele>916</ele>
        <time>2019-08-09T07:52:26Z</time>
      </trkpt>
      <trkpt lat="44.12399" lon="5.86441">
        <ele>916</ele>
        <time>2019-08-09T07:52:27Z</time>
      </trkpt>
      <trkpt lat="44.12398" lon="5.86436">
        <ele>916</ele>
        <time>2019-08-09T07:52:28Z</time>
      </trkpt>
      <trkpt lat="44.12396" lon="5.86431">
        <ele>916</ele>
        <time>2019-08-09T07:52:29Z</time>
      </trkpt>
      <trkpt lat="44.12394" lon="5.86426">
        <ele>916</ele>
        <time>2019-08-09T07:52:30Z</time>
      </trkpt>
      <trkpt lat="44.12392" lon="5.86421">
        <ele>916</ele>
        <time>2019-08-09T07:52:31Z</time>
      </trkpt>
      <trkpt lat="44.1239" lon="5.86416">
        <ele>916</ele>
        <time>2019-08-09T07:52:32Z</time>
      </trkpt>
      <trkpt lat="44.12388" lon="5.86412">
        <ele>916</ele>
        <time>2019-08-09T07:52:33Z</time>
      </trkpt>
      <trkpt lat="44.12386" lon="5.86407">
        <ele>916</ele>
        <time>2019-08-09T07:52:34Z</time>
      </trkpt>
      <trkpt lat="44.12383" lon="5.86403">
        <ele>916</ele>
        <time>2019-08-09T07:52:35Z</time>
      </trkpt>
      <trkpt lat="44.12381" lon="5.86398">
        <ele>916</ele>
        <time>2019-08-09T07:52:36Z</time>
      </trkpt>
      <trkpt lat="44.12379" lon="5.86394">
        <ele>917</ele>
        <time>2019-08-09T07:52:37Z</time>
      </trkpt>
      <trkpt lat="44.12377" lon="5.86389">
        <ele>917</ele>
        <time>2019-08-09T07:52:38Z</time>
      </trkpt>
      <trkpt lat="44.12375" lon="5.86384">
        <ele>918</ele>
        <time>2019-08-09T07:52:39Z</time>
      </trkpt>
      <trkpt lat="44.12373" lon="5.86379">
        <ele>918</ele>
        <time>2019-08-09T07:52:40Z</time>
      </trkpt>
      <trkpt lat="44.1237" lon="5.86373">
        <ele>918</ele>
        <time>2019-08-09T07:52:41Z</time>
      </trkpt>
      <trkpt lat="44.12368" lon="5.86368">
        <ele>918</ele>
        <time>2019-08-09T07:52:42Z</time>
      </trkpt>
      <trkpt lat="44.12365" lon="5.86363">
        <ele>918</ele>
        <time>2019-08-09T07:52:43Z</time>
      </trkpt>
      <trkpt lat="44.12364" lon="5.86358">
        <ele>918</ele>
        <time>2019-08-09T07:52:44Z</time>
      </trkpt>
      <trkpt lat="44.12362" lon="5.86353">
        <ele>918</ele>
        <time>2019-08-09T07:52:45Z</time>
      </trkpt>
      <trkpt lat="44.1236" lon="5.86348">
        <ele>918</ele>
        <time>2019-08-09T07:52:46Z</time>
      </trkpt>
      <trkpt lat="44.12357" lon="5.86344">
        <ele>918</ele>
        <time>2019-08-09T07:52:47Z</time>
      </trkpt>
      <trkpt lat="44.12355" lon="5.8634">
        <ele>918</ele>
        <time>2019-08-09T07:52:48Z</time>
      </trkpt>
      <trkpt lat="44.12353" lon="5.86336">
        <ele>918</ele>
        <time>2019-08-09T07:52:49Z</time>
      </trkpt>
      <trkpt lat="44.1235" lon="5.86331">
        <ele>918</ele>
        <time>2019-08-09T07:52:50Z</time>
      </trkpt>
      <trkpt lat="44.12348" lon="5.86326">
        <ele>918</ele>
        <time>2019-08-09T07:52:51Z</time>
      </trkpt>
      <trkpt lat="44.12345" lon="5.86321">
        <ele>918</ele>
        <time>2019-08-09T07:52:52Z</time>
      </trkpt>
      <trkpt lat="44.12342" lon="5.86316">
        <ele>918</ele>
        <time>2019-08-09T07:52:53Z</time>
      </trkpt>
      <trkpt lat="44.1234" lon="5.86312">
        <ele>918</ele>
        <time>2019-08-09T07:52:54Z</time>
      </trkpt>
      <trkpt lat="44.12337" lon="5.86307">
        <ele>918</ele>
        <time>2019-08-09T07:52:55Z</time>
      </trkpt>
      <trkpt lat="44.12334" lon="5.86303">
        <ele>918</ele>
        <time>2019-08-09T07:52:56Z</time>
      </trkpt>
      <trkpt lat="44.12331" lon="5.86299">
        <ele>918</ele>
        <time>2019-08-09T07:52:57Z</time>
      </trkpt>
      <trkpt lat="44.12328" lon="5.86295">
        <ele>918</ele>
        <time>2019-08-09T07:52:58Z</time>
      </trkpt>
      <trkpt lat="44.12325" lon="5.86291">
        <ele>918</ele>
        <time>2019-08-09T07:52:59Z</time>
      </trkpt>
      <trkpt lat="44.12321" lon="5.86288">
        <ele>919</ele>
        <time>2019-08-09T07:53:00Z</time>
      </trkpt>
      <trkpt lat="44.12318" lon="5.86283">
        <ele>919</ele>
        <time>2019-08-09T07:53:01Z</time>
      </trkpt>
      <trkpt lat="44.12315" lon="5.8628">
        <ele>919</ele>
        <time>2019-08-09T07:53:02Z</time>
      </trkpt>
      <trkpt lat="44.12312" lon="5.86277">
        <ele>919</ele>
        <time>2019-08-09T07:53:03Z</time>
      </trkpt>
      <trkpt lat="44.12309" lon="5.86274">
        <ele>919</ele>
        <time>2019-08-09T07:53:04Z</time>
      </trkpt>
      <trkpt lat="44.12306" lon="5.8627">
        <ele>919</ele>
        <time>2019-08-09T07:53:05Z</time>
      </trkpt>
      <trkpt lat="44.12304" lon="5.86265">
        <ele>919</ele>
        <time>2019-08-09T07:53:06Z</time>
      </trkpt>
      <trkpt lat="44.12302" lon="5.86261">
        <ele>919</ele>
        <time>2019-08-09T07:53:07Z</time>
      </trkpt>
      <trkpt lat="44.12302" lon="5.86255">
        <ele>919</ele>
        <time>2019-08-09T07:53:08Z</time>
      </trkpt>
      <trkpt lat="44.12303" lon="5.8625">
        <ele>920</ele>
        <time>2019-08-09T07:53:09Z</time>
      </trkpt>
      <trkpt lat="44.12305" lon="5.86244">
        <ele>920</ele>
        <time>2019-08-09T07:53:10Z</time>
      </trkpt>
      <trkpt lat="44.1231" lon="5.86241">
        <ele>920</ele>
        <time>2019-08-09T07:53:11Z</time>
      </trkpt>
      <trkpt lat="44.12314" lon="5.8624">
        <ele>920</ele>
        <time>2019-08-09T07:53:12Z</time>
      </trkpt>
      <trkpt lat="44.12318" lon="5.8624">
        <ele>920</ele>
        <time>2019-08-09T07:53:13Z</time>
      </trkpt>
      <trkpt lat="44.12323" lon="5.8624">
        <ele>920</ele>
        <time>2019-08-09T07:53:14Z</time>
      </trkpt>
      <trkpt lat="44.12327" lon="5.86241">
        <ele>920</ele>
        <time>2019-08-09T07:53:15Z</time>
      </trkpt>
      <trkpt lat="44.12331" lon="5.86242">
        <ele>920</ele>
        <time>2019-08-09T07:53:16Z</time>
      </trkpt>
      <trkpt lat="44.12335" lon="5.86243">
        <ele>921</ele>
        <time>2019-08-09T07:53:17Z</time>
      </trkpt>
      <trkpt lat="44.12339" lon="5.86243">
        <ele>921</ele>
        <time>2019-08-09T07:53:18Z</time>
      </trkpt>
      <trkpt lat="44.12343" lon="5.86244">
        <ele>921</ele>
        <time>2019-08-09T07:53:19Z</time>
      </trkpt>
      <trkpt lat="44.12347" lon="5.86244">
        <ele>921</ele>
        <time>2019-08-09T07:53:20Z</time>
      </trkpt>
      <trkpt lat="44.12352" lon="5.86244">
        <ele>921</ele>
        <time>2019-08-09T07:53:21Z</time>
      </trkpt>
      <trkpt lat="44.12356" lon="5.86244">
        <ele>921</ele>
        <time>2019-08-09T07:53:22Z</time>
      </trkpt>
      <trkpt lat="44.1236" lon="5.86243">
        <ele>921</ele>
        <time>2019-08-09T07:53:23Z</time>
      </trkpt>
      <trkpt lat="44.12365" lon="5.86242">
        <ele>921</ele>
        <time>2019-08-09T07:53:24Z</time>
      </trkpt>
      <trkpt lat="44.12368" lon="5.86239">
        <ele>921</ele>
        <time>2019-08-09T07:53:25Z</time>
      </trkpt>
      <trkpt lat="44.12372" lon="5.86236">
        <ele>921</ele>
        <time>2019-08-09T07:53:26Z</time>
      </trkpt>
      <trkpt lat="44.12375" lon="5.86232">
        <ele>921</ele>
        <time>2019-08-09T07:53:27Z</time>
      </trkpt>
      <trkpt lat="44.12376" lon="5.86228">
        <ele>921</ele>
        <time>2019-08-09T07:53:28Z</time>
      </trkpt>
      <trkpt lat="44.12377" lon="5.86222">
        <ele>921</ele>
        <time>2019-08-09T07:53:29Z</time>
      </trkpt>
      <trkpt lat="44.12377" lon="5.86216">
        <ele>921</ele>
        <time>2019-08-09T07:53:30Z</time>
      </trkpt>
      <trkpt lat="44.12376" lon="5.8621">
        <ele>921</ele>
        <time>2019-08-09T07:53:31Z</time>
      </trkpt>
      <trkpt lat="44.12375" lon="5.86204">
        <ele>921</ele>
        <time>2019-08-09T07:53:32Z</time>
      </trkpt>
      <trkpt lat="44.12373" lon="5.86198">
        <ele>921</ele>
        <time>2019-08-09T07:53:33Z</time>
      </trkpt>
      <trkpt lat="44.12372" lon="5.86192">
        <ele>921</ele>
        <time>2019-08-09T07:53:34Z</time>
      </trkpt>
      <trkpt lat="44.12371" lon="5.86186">
        <ele>921</ele>
        <time>2019-08-09T07:53:35Z</time>
      </trkpt>
      <trkpt lat="44.12369" lon="5.8618">
        <ele>921</ele>
        <time>2019-08-09T07:53:36Z</time>
      </trkpt>
      <trkpt lat="44.12368" lon="5.86174">
        <ele>921</ele>
        <time>2019-08-09T07:53:37Z</time>
      </trkpt>
      <trkpt lat="44.12367" lon="5.86169">
        <ele>921</ele>
        <time>2019-08-09T07:53:38Z</time>
      </trkpt>
      <trkpt lat="44.12366" lon="5.86163">
        <ele>921</ele>
        <time>2019-08-09T07:53:39Z</time>
      </trkpt>
      <trkpt lat="44.12365" lon="5.86157">
        <ele>921</ele>
        <time>2019-08-09T07:53:40Z</time>
      </trkpt>
      <trkpt lat="44.12365" lon="5.8615">
        <ele>921</ele>
        <time>2019-08-09T07:53:41Z</time>
      </trkpt>
      <trkpt lat="44.12366" lon="5.86143">
        <ele>921</ele>
        <time>2019-08-09T07:53:42Z</time>
      </trkpt>
      <trkpt lat="44.12368" lon="5.86136">
        <ele>921</ele>
        <time>2019-08-09T07:53:43Z</time>
      </trkpt>
      <trkpt lat="44.12373" lon="5.86131">
        <ele>921</ele>
        <time>2019-08-09T07:53:44Z</time>
      </trkpt>
      <trkpt lat="44.12377" lon="5.86127">
        <ele>921</ele>
        <time>2019-08-09T07:53:45Z</time>
      </trkpt>
      <trkpt lat="44.12382" lon="5.86124">
        <ele>921</ele>
        <time>2019-08-09T07:53:46Z</time>
      </trkpt>
      <trkpt lat="44.12386" lon="5.86122">
        <ele>921</ele>
        <time>2019-08-09T07:53:47Z</time>
      </trkpt>
      <trkpt lat="44.12391" lon="5.86121">
        <ele>921</ele>
        <time>2019-08-09T07:53:48Z</time>
      </trkpt>
      <trkpt lat="44.12395" lon="5.86121">
        <ele>921</ele>
        <time>2019-08-09T07:53:49Z</time>
      </trkpt>
      <trkpt lat="44.12399" lon="5.86121">
        <ele>921</ele>
        <time>2019-08-09T07:53:50Z</time>
      </trkpt>
      <trkpt lat="44.12402" lon="5.86121">
        <ele>921</ele>
        <time>2019-08-09T07:53:51Z</time>
      </trkpt>
      <trkpt lat="44.12406" lon="5.86122">
        <ele>921</ele>
        <time>2019-08-09T07:53:52Z</time>
      </trkpt>
      <trkpt lat="44.1241" lon="5.86123">
        <ele>921</ele>
        <time>2019-08-09T07:53:53Z</time>
      </trkpt>
      <trkpt lat="44.12413" lon="5.86124">
        <ele>921</ele>
        <time>2019-08-09T07:53:54Z</time>
      </trkpt>
      <trkpt lat="44.12417" lon="5.86126">
        <ele>921</ele>
        <time>2019-08-09T07:53:55Z</time>
      </trkpt>
      <trkpt lat="44.1242" lon="5.86127">
        <ele>921</ele>
        <time>2019-08-09T07:53:56Z</time>
      </trkpt>
      <trkpt lat="44.12423" lon="5.86129">
        <ele>921</ele>
        <time>2019-08-09T07:53:57Z</time>
      </trkpt>
      <trkpt lat="44.12426" lon="5.86132">
        <ele>921</ele>
        <time>2019-08-09T07:53:58Z</time>
      </trkpt>
      <trkpt lat="44.12429" lon="5.86134">
        <ele>921</ele>
        <time>2019-08-09T07:53:59Z</time>
      </trkpt>
      <trkpt lat="44.12432" lon="5.86137">
        <ele>921</ele>
        <time>2019-08-09T07:54:00Z</time>
      </trkpt>
      <trkpt lat="44.12435" lon="5.8614">
        <ele>922</ele>
        <time>2019-08-09T07:54:01Z</time>
      </trkpt>
      <trkpt lat="44.12438" lon="5.86143">
        <ele>922</ele>
        <time>2019-08-09T07:54:02Z</time>
      </trkpt>
      <trkpt lat="44.12441" lon="5.86147">
        <ele>922</ele>
        <time>2019-08-09T07:54:03Z</time>
      </trkpt>
      <trkpt lat="44.12445" lon="5.8615">
        <ele>923</ele>
        <time>2019-08-09T07:54:04Z</time>
      </trkpt>
      <trkpt lat="44.12448" lon="5.86153">
        <ele>924</ele>
        <time>2019-08-09T07:54:05Z</time>
      </trkpt>
      <trkpt lat="44.12452" lon="5.86157">
        <ele>925</ele>
        <time>2019-08-09T07:54:06Z</time>
      </trkpt>
      <trkpt lat="44.12455" lon="5.8616">
        <ele>926</ele>
        <time>2019-08-09T07:54:07Z</time>
      </trkpt>
      <trkpt lat="44.12458" lon="5.86164">
        <ele>927</ele>
        <time>2019-08-09T07:54:08Z</time>
      </trkpt>
      <trkpt lat="44.1246" lon="5.86168">
        <ele>928</ele>
        <time>2019-08-09T07:54:09Z</time>
      </trkpt>
      <trkpt lat="44.12462" lon="5.86171">
        <ele>929</ele>
        <time>2019-08-09T07:54:10Z</time>
      </trkpt>
      <trkpt lat="44.12464" lon="5.86174">
        <ele>930</ele>
        <time>2019-08-09T07:54:11Z</time>
      </trkpt>
      <trkpt lat="44.12467" lon="5.86178">
        <ele>931</ele>
        <time>2019-08-09T07:54:12Z</time>
      </trkpt>
      <trkpt lat="44.12469" lon="5.86181">
        <ele>932</ele>
        <time>2019-08-09T07:54:13Z</time>
      </trkpt>
      <trkpt lat="44.12471" lon="5.86185">
        <ele>933</ele>
        <time>2019-08-09T07:54:14Z</time>
      </trkpt>
      <trkpt lat="44.12473" lon="5.86187">
        <ele>934</ele>
        <time>2019-08-09T07:54:15Z</time>
      </trkpt>
      <trkpt lat="44.12476" lon="5.86191">
        <ele>935</ele>
        <time>2019-08-09T07:54:16Z</time>
      </trkpt>
      <trkpt lat="44.12478" lon="5.86194">
        <ele>936</ele>
        <time>2019-08-09T07:54:17Z</time>
      </trkpt>
      <trkpt lat="44.12481" lon="5.86196">
        <ele>937</ele>
        <time>2019-08-09T07:54:18Z</time>
      </trkpt>
      <trkpt lat="44.12484" lon="5.86199">
        <ele>938</ele>
        <time>2019-08-09T07:54:19Z</time>
      </trkpt>
      <trkpt lat="44.12487" lon="5.862">
        <ele>939</ele>
        <time>2019-08-09T07:54:20Z</time>
      </trkpt>
      <trkpt lat="44.1249" lon="5.86201">
        <ele>940</ele>
        <time>2019-08-09T07:54:21Z</time>
      </trkpt>
      <trkpt lat="44.12494" lon="5.86202">
        <ele>941</ele>
        <time>2019-08-09T07:54:22Z</time>
      </trkpt>
      <trkpt lat="44.12497" lon="5.86201">
        <ele>942</ele>
        <time>2019-08-09T07:54:23Z</time>
      </trkpt>
      <trkpt lat="44.125" lon="5.86199">
        <ele>943</ele>
        <time>2019-08-09T07:54:24Z</time>
      </trkpt>
      <trkpt lat="44.12503" lon="5.86195">
        <ele>944</ele>
        <time>2019-08-09T07:54:25Z</time>
      </trkpt>
      <trkpt lat="44.12505" lon="5.86193">
        <ele>944</ele>
        <time>2019-08-09T07:54:26Z</time>
      </trkpt>
      <trkpt lat="44.12508" lon="5.86191">
        <ele>944</ele>
        <time>2019-08-09T07:54:27Z</time>
      </trkpt>
      <trkpt lat="44.12511" lon="5.86188">
        <ele>944</ele>
        <time>2019-08-09T07:54:28Z</time>
      </trkpt>
      <trkpt lat="44.12514" lon="5.86184">
        <ele>943</ele>
        <time>2019-08-09T07:54:29Z</time>
      </trkpt>
      <trkpt lat="44.12516" lon="5.86181">
        <ele>943</ele>
        <time>2019-08-09T07:54:30Z</time>
      </trkpt>
      <trkpt lat="44.12517" lon="5.86177">
        <ele>943</ele>
        <time>2019-08-09T07:54:31Z</time>
      </trkpt>
      <trkpt lat="44.12517" lon="5.86171">
        <ele>942</ele>
        <time>2019-08-09T07:54:32Z</time>
      </trkpt>
      <trkpt lat="44.12518" lon="5.86166">
        <ele>942</ele>
        <time>2019-08-09T07:54:33Z</time>
      </trkpt>
      <trkpt lat="44.1252" lon="5.86163">
        <ele>941</ele>
        <time>2019-08-09T07:54:34Z</time>
      </trkpt>
      <trkpt lat="44.12521" lon="5.86158">
        <ele>941</ele>
        <time>2019-08-09T07:54:35Z</time>
      </trkpt>
      <trkpt lat="44.12522" lon="5.86153">
        <ele>940</ele>
        <time>2019-08-09T07:54:36Z</time>
      </trkpt>
      <trkpt lat="44.12523" lon="5.86147">
        <ele>939</ele>
        <time>2019-08-09T07:54:37Z</time>
      </trkpt>
      <trkpt lat="44.12523" lon="5.86143">
        <ele>939</ele>
        <time>2019-08-09T07:54:38Z</time>
      </trkpt>
      <trkpt lat="44.12524" lon="5.86138">
        <ele>938</ele>
        <time>2019-08-09T07:54:39Z</time>
      </trkpt>
      <trkpt lat="44.12525" lon="5.86133">
        <ele>937</ele>
        <time>2019-08-09T07:54:40Z</time>
      </trkpt>
      <trkpt lat="44.12527" lon="5.86129">
        <ele>937</ele>
        <time>2019-08-09T07:54:41Z</time>
      </trkpt>
      <trkpt lat="44.12528" lon="5.86124">
        <ele>936</ele>
        <time>2019-08-09T07:54:42Z</time>
      </trkpt>
      <trkpt lat="44.12529" lon="5.86119">
        <ele>935</ele>
        <time>2019-08-09T07:54:43Z</time>
      </trkpt>
      <trkpt lat="44.1253" lon="5.86114">
        <ele>934</ele>
        <time>2019-08-09T07:54:44Z</time>
      </trkpt>
      <trkpt lat="44.12531" lon="5.86109">
        <ele>934</ele>
        <time>2019-08-09T07:54:45Z</time>
      </trkpt>
      <trkpt lat="44.12533" lon="5.86105">
        <ele>933</ele>
        <time>2019-08-09T07:54:46Z</time>
      </trkpt>
      <trkpt lat="44.12534" lon="5.86099">
        <ele>933</ele>
        <time>2019-08-09T07:54:47Z</time>
      </trkpt>
      <trkpt lat="44.12535" lon="5.86095">
        <ele>933</ele>
        <time>2019-08-09T07:54:48Z</time>
      </trkpt>
      <trkpt lat="44.12537" lon="5.86091">
        <ele>933</ele>
        <time>2019-08-09T07:54:49Z</time>
      </trkpt>
      <trkpt lat="44.12539" lon="5.86087">
        <ele>933</ele>
        <time>2019-08-09T07:54:50Z</time>
      </trkpt>
      <trkpt lat="44.1254" lon="5.86082">
        <ele>932</ele>
        <time>2019-08-09T07:54:51Z</time>
      </trkpt>
      <trkpt lat="44.12542" lon="5.86078">
        <ele>932</ele>
        <time>2019-08-09T07:54:52Z</time>
      </trkpt>
      <trkpt lat="44.12543" lon="5.86072">
        <ele>932</ele>
        <time>2019-08-09T07:54:53Z</time>
      </trkpt>
      <trkpt lat="44.12545" lon="5.86068">
        <ele>932</ele>
        <time>2019-08-09T07:54:54Z</time>
      </trkpt>
      <trkpt lat="44.12546" lon="5.86063">
        <ele>932</ele>
        <time>2019-08-09T07:54:55Z</time>
      </trkpt>
      <trkpt lat="44.12546" lon="5.8606">
        <ele>932</ele>
        <time>2019-08-09T07:54:56Z</time>
      </trkpt>
      <trkpt lat="44.12547" lon="5.86057">
        <ele>932</ele>
        <time>2019-08-09T07:54:57Z</time>
      </trkpt>
      <trkpt lat="44.12548" lon="5.86052">
        <ele>932</ele>
        <time>2019-08-09T07:54:58Z</time>
      </trkpt>
      <trkpt lat="44.12549" lon="5.86049">
        <ele>931</ele>
        <time>2019-08-09T07:54:59Z</time>
      </trkpt>
      <trkpt lat="44.12551" lon="5.86044">
        <ele>931</ele>
        <time>2019-08-09T07:55:00Z</time>
      </trkpt>
      <trkpt lat="44.12552" lon="5.86039">
        <ele>930</ele>
        <time>2019-08-09T07:55:01Z</time>
      </trkpt>
      <trkpt lat="44.12554" lon="5.86035">
        <ele>930</ele>
        <time>2019-08-09T07:55:02Z</time>
      </trkpt>
      <trkpt lat="44.12556" lon="5.8603">
        <ele>930</ele>
        <time>2019-08-09T07:55:03Z</time>
      </trkpt>
      <trkpt lat="44.12556" lon="5.86025">
        <ele>929</ele>
        <time>2019-08-09T07:55:04Z</time>
      </trkpt>
      <trkpt lat="44.12557" lon="5.86022">
        <ele>929</ele>
        <time>2019-08-09T07:55:05Z</time>
      </trkpt>
      <trkpt lat="44.12558" lon="5.86018">
        <ele>929</ele>
        <time>2019-08-09T07:55:06Z</time>
      </trkpt>
      <trkpt lat="44.1256" lon="5.86014">
        <ele>929</ele>
        <time>2019-08-09T07:55:07Z</time>
      </trkpt>
      <trkpt lat="44.12559" lon="5.86009">
        <ele>929</ele>
        <time>2019-08-09T07:55:08Z</time>
      </trkpt>
      <trkpt lat="44.12558" lon="5.86004">
        <ele>929</ele>
        <time>2019-08-09T07:55:09Z</time>
      </trkpt>
      <trkpt lat="44.12557" lon="5.86">
        <ele>929</ele>
        <time>2019-08-09T07:55:10Z</time>
      </trkpt>
      <trkpt lat="44.12556" lon="5.85995">
        <ele>929</ele>
        <time>2019-08-09T07:55:11Z</time>
      </trkpt>
      <trkpt lat="44.12556" lon="5.85991">
        <ele>929</ele>
        <time>2019-08-09T07:55:12Z</time>
      </trkpt>
      <trkpt lat="44.12555" lon="5.85986">
        <ele>929</ele>
        <time>2019-08-09T07:55:13Z</time>
      </trkpt>
      <trkpt lat="44.12555" lon="5.85982">
        <ele>929</ele>
        <time>2019-08-09T07:55:14Z</time>
      </trkpt>
      <trkpt lat="44.12553" lon="5.85977">
        <ele>929</ele>
        <time>2019-08-09T07:55:15Z</time>
      </trkpt>
      <trkpt lat="44.12551" lon="5.85972">
        <ele>929</ele>
        <time>2019-08-09T07:55:16Z</time>
      </trkpt>
      <trkpt lat="44.1255" lon="5.85968">
        <ele>929</ele>
        <time>2019-08-09T07:55:17Z</time>
      </trkpt>
      <trkpt lat="44.12548" lon="5.85963">
        <ele>929</ele>
        <time>2019-08-09T07:55:18Z</time>
      </trkpt>
      <trkpt lat="44.12546" lon="5.85958">
        <ele>929</ele>
        <time>2019-08-09T07:55:19Z</time>
      </trkpt>
      <trkpt lat="44.12544" lon="5.85954">
        <ele>929</ele>
        <time>2019-08-09T07:55:20Z</time>
      </trkpt>
      <trkpt lat="44.12542" lon="5.85949">
        <ele>929</ele>
        <time>2019-08-09T07:55:21Z</time>
      </trkpt>
      <trkpt lat="44.1254" lon="5.85945">
        <ele>929</ele>
        <time>2019-08-09T07:55:22Z</time>
      </trkpt>
      <trkpt lat="44.1254" lon="5.85941">
        <ele>930</ele>
        <time>2019-08-09T07:55:23Z</time>
      </trkpt>
      <trkpt lat="44.12539" lon="5.85935">
        <ele>931</ele>
        <time>2019-08-09T07:55:24Z</time>
      </trkpt>
      <trkpt lat="44.12538" lon="5.8593">
        <ele>931</ele>
        <time>2019-08-09T07:55:25Z</time>
      </trkpt>
      <trkpt lat="44.12539" lon="5.85925">
        <ele>931</ele>
        <time>2019-08-09T07:55:26Z</time>
      </trkpt>
      <trkpt lat="44.12539" lon="5.85919">
        <ele>931</ele>
        <time>2019-08-09T07:55:27Z</time>
      </trkpt>
      <trkpt lat="44.1254" lon="5.85914">
        <ele>931</ele>
        <time>2019-08-09T07:55:28Z</time>
      </trkpt>
      <trkpt lat="44.12541" lon="5.85909">
        <ele>932</ele>
        <time>2019-08-09T07:55:29Z</time>
      </trkpt>
      <trkpt lat="44.12542" lon="5.85905">
        <ele>933</ele>
        <time>2019-08-09T07:55:30Z</time>
      </trkpt>
      <trkpt lat="44.12542" lon="5.85901">
        <ele>933</ele>
        <time>2019-08-09T07:55:31Z</time>
      </trkpt>
      <trkpt lat="44.12543" lon="5.85897">
        <ele>934</ele>
        <time>2019-08-09T07:55:32Z</time>
      </trkpt>
      <trkpt lat="44.12543" lon="5.85892">
        <ele>934</ele>
        <time>2019-08-09T07:55:33Z</time>
      </trkpt>
      <trkpt lat="44.12543" lon="5.85887">
        <ele>935</ele>
        <time>2019-08-09T07:55:34Z</time>
      </trkpt>
      <trkpt lat="44.12544" lon="5.85883">
        <ele>935</ele>
        <time>2019-08-09T07:55:35Z</time>
      </trkpt>
      <trkpt lat="44.12545" lon="5.85878">
        <ele>935</ele>
        <time>2019-08-09T07:55:36Z</time>
      </trkpt>
      <trkpt lat="44.12546" lon="5.85874">
        <ele>936</ele>
        <time>2019-08-09T07:55:37Z</time>
      </trkpt>
      <trkpt lat="44.12547" lon="5.85868">
        <ele>937</ele>
        <time>2019-08-09T07:55:38Z</time>
      </trkpt>
      <trkpt lat="44.12548" lon="5.85862">
        <ele>937</ele>
        <time>2019-08-09T07:55:39Z</time>
      </trkpt>
      <trkpt lat="44.12549" lon="5.85857">
        <ele>937</ele>
        <time>2019-08-09T07:55:40Z</time>
      </trkpt>
      <trkpt lat="44.12552" lon="5.85853">
        <ele>937</ele>
        <time>2019-08-09T07:55:41Z</time>
      </trkpt>
      <trkpt lat="44.12554" lon="5.85849">
        <ele>937</ele>
        <time>2019-08-09T07:55:42Z</time>
      </trkpt>
      <trkpt lat="44.12557" lon="5.85845">
        <ele>937</ele>
        <time>2019-08-09T07:55:43Z</time>
      </trkpt>
      <trkpt lat="44.12559" lon="5.85843">
        <ele>937</ele>
        <time>2019-08-09T07:55:44Z</time>
      </trkpt>
      <trkpt lat="44.12561" lon="5.8584">
        <ele>938</ele>
        <time>2019-08-09T07:55:45Z</time>
      </trkpt>
      <trkpt lat="44.12563" lon="5.85837">
        <ele>939</ele>
        <time>2019-08-09T07:55:46Z</time>
      </trkpt>
      <trkpt lat="44.12565" lon="5.85834">
        <ele>940</ele>
        <time>2019-08-09T07:55:47Z</time>
      </trkpt>
      <trkpt lat="44.12566" lon="5.85831">
        <ele>941</ele>
        <time>2019-08-09T07:55:48Z</time>
      </trkpt>
      <trkpt lat="44.12568" lon="5.85828">
        <ele>942</ele>
        <time>2019-08-09T07:55:49Z</time>
      </trkpt>
      <trkpt lat="44.12569" lon="5.85824">
        <ele>942</ele>
        <time>2019-08-09T07:55:50Z</time>
      </trkpt>
      <trkpt lat="44.1257" lon="5.85819">
        <ele>942</ele>
        <time>2019-08-09T07:55:51Z</time>
      </trkpt>
      <trkpt lat="44.1257" lon="5.85815">
        <ele>942</ele>
        <time>2019-08-09T07:55:52Z</time>
      </trkpt>
      <trkpt lat="44.1257" lon="5.8581">
        <ele>942</ele>
        <time>2019-08-09T07:55:53Z</time>
      </trkpt>
      <trkpt lat="44.12569" lon="5.85805">
        <ele>942</ele>
        <time>2019-08-09T07:55:54Z</time>
      </trkpt>
      <trkpt lat="44.12569" lon="5.85799">
        <ele>942</ele>
        <time>2019-08-09T07:55:55Z</time>
      </trkpt>
      <trkpt lat="44.12569" lon="5.85794">
        <ele>942</ele>
        <time>2019-08-09T07:55:56Z</time>
      </trkpt>
      <trkpt lat="44.12569" lon="5.8579">
        <ele>942</ele>
        <time>2019-08-09T07:55:57Z</time>
      </trkpt>
      <trkpt lat="44.12569" lon="5.85786">
        <ele>942</ele>
        <time>2019-08-09T07:55:58Z</time>
      </trkpt>
      <trkpt lat="44.12569" lon="5.85781">
        <ele>942</ele>
        <time>2019-08-09T07:55:59Z</time>
      </trkpt>
      <trkpt lat="44.12568" lon="5.85777">
        <ele>942</ele>
        <time>2019-08-09T07:56:00Z</time>
      </trkpt>
      <trkpt lat="44.12568" lon="5.85773">
        <ele>942</ele>
        <time>2019-08-09T07:56:01Z</time>
      </trkpt>
      <trkpt lat="44.12568" lon="5.85768">
        <ele>942</ele>
        <time>2019-08-09T07:56:02Z</time>
      </trkpt>
      <trkpt lat="44.12568" lon="5.85764">
        <ele>942</ele>
        <time>2019-08-09T07:56:03Z</time>
      </trkpt>
      <trkpt lat="44.12567" lon="5.85759">
        <ele>942</ele>
        <time>2019-08-09T07:56:04Z</time>
      </trkpt>
      <trkpt lat="44.12567" lon="5.85753">
        <ele>942</ele>
        <time>2019-08-09T07:56:05Z</time>
      </trkpt>
      <trkpt lat="44.12566" lon="5.85747">
        <ele>942</ele>
        <time>2019-08-09T07:56:06Z</time>
      </trkpt>
      <trkpt lat="44.12565" lon="5.85743">
        <ele>942</ele>
        <time>2019-08-09T07:56:07Z</time>
      </trkpt>
      <trkpt lat="44.12564" lon="5.85737">
        <ele>942</ele>
        <time>2019-08-09T07:56:08Z</time>
      </trkpt>
      <trkpt lat="44.12563" lon="5.85732">
        <ele>942</ele>
        <time>2019-08-09T07:56:09Z</time>
      </trkpt>
      <trkpt lat="44.12563" lon="5.85727">
        <ele>942</ele>
        <time>2019-08-09T07:56:10Z</time>
      </trkpt>
      <trkpt lat="44.12562" lon="5.85723">
        <ele>942</ele>
        <time>2019-08-09T07:56:11Z</time>
      </trkpt>
      <trkpt lat="44.12561" lon="5.85719">
        <ele>942</ele>
        <time>2019-08-09T07:56:12Z</time>
      </trkpt>
      <trkpt lat="44.12561" lon="5.85714">
        <ele>942</ele>
        <time>2019-08-09T07:56:13Z</time>
      </trkpt>
      <trkpt lat="44.1256" lon="5.85709">
        <ele>942</ele>
        <time>2019-08-09T07:56:14Z</time>
      </trkpt>
      <trkpt lat="44.12559" lon="5.85704">
        <ele>942</ele>
        <time>2019-08-09T07:56:15Z</time>
      </trkpt>
      <trkpt lat="44.12559" lon="5.85699">
        <ele>942</ele>
        <time>2019-08-09T07:56:16Z</time>
      </trkpt>
      <trkpt lat="44.12558" lon="5.85694">
        <ele>942</ele>
        <time>2019-08-09T07:56:17Z</time>
      </trkpt>
      <trkpt lat="44.12558" lon="5.85689">
        <ele>942</ele>
        <time>2019-08-09T07:56:18Z</time>
      </trkpt>
      <trkpt lat="44.12557" lon="5.85684">
        <ele>942</ele>
        <time>2019-08-09T07:56:19Z</time>
      </trkpt>
      <trkpt lat="44.12556" lon="5.85679">
        <ele>942</ele>
        <time>2019-08-09T07:56:20Z</time>
      </trkpt>
      <trkpt lat="44.12555" lon="5.85675">
        <ele>942</ele>
        <time>2019-08-09T07:56:21Z</time>
      </trkpt>
      <trkpt lat="44.12553" lon="5.8567">
        <ele>942</ele>
        <time>2019-08-09T07:56:22Z</time>
      </trkpt>
      <trkpt lat="44.12552" lon="5.85666">
        <ele>942</ele>
        <time>2019-08-09T07:56:23Z</time>
      </trkpt>
      <trkpt lat="44.1255" lon="5.85661">
        <ele>942</ele>
        <time>2019-08-09T07:56:24Z</time>
      </trkpt>
      <trkpt lat="44.12548" lon="5.85658">
        <ele>942</ele>
        <time>2019-08-09T07:56:25Z</time>
      </trkpt>
      <trkpt lat="44.12545" lon="5.85654">
        <ele>942</ele>
        <time>2019-08-09T07:56:26Z</time>
      </trkpt>
      <trkpt lat="44.12542" lon="5.85651">
        <ele>942</ele>
        <time>2019-08-09T07:56:27Z</time>
      </trkpt>
      <trkpt lat="44.12539" lon="5.85648">
        <ele>942</ele>
        <time>2019-08-09T07:56:28Z</time>
      </trkpt>
      <trkpt lat="44.12536" lon="5.85645">
        <ele>942</ele>
        <time>2019-08-09T07:56:29Z</time>
      </trkpt>
      <trkpt lat="44.12534" lon="5.85642">
        <ele>942</ele>
        <time>2019-08-09T07:56:30Z</time>
      </trkpt>
      <trkpt lat="44.12532" lon="5.85639">
        <ele>942</ele>
        <time>2019-08-09T07:56:31Z</time>
      </trkpt>
      <trkpt lat="44.1253" lon="5.85634">
        <ele>942</ele>
        <time>2019-08-09T07:56:32Z</time>
      </trkpt>
      <trkpt lat="44.12529" lon="5.85629">
        <ele>942</ele>
        <time>2019-08-09T07:56:33Z</time>
      </trkpt>
      <trkpt lat="44.12528" lon="5.85624">
        <ele>942</ele>
        <time>2019-08-09T07:56:34Z</time>
      </trkpt>
      <trkpt lat="44.12527" lon="5.85619">
        <ele>942</ele>
        <time>2019-08-09T07:56:35Z</time>
      </trkpt>
      <trkpt lat="44.12527" lon="5.85614">
        <ele>943</ele>
        <time>2019-08-09T07:56:36Z</time>
      </trkpt>
      <trkpt lat="44.12527" lon="5.85609">
        <ele>943</ele>
        <time>2019-08-09T07:56:37Z</time>
      </trkpt>
      <trkpt lat="44.12526" lon="5.85605">
        <ele>944</ele>
        <time>2019-08-09T07:56:38Z</time>
      </trkpt>
      <trkpt lat="44.12526" lon="5.85601">
        <ele>944</ele>
        <time>2019-08-09T07:56:39Z</time>
      </trkpt>
      <trkpt lat="44.12526" lon="5.85597">
        <ele>945</ele>
        <time>2019-08-09T07:56:40Z</time>
      </trkpt>
      <trkpt lat="44.12526" lon="5.85593">
        <ele>945</ele>
        <time>2019-08-09T07:56:41Z</time>
      </trkpt>
      <trkpt lat="44.12526" lon="5.8559">
        <ele>946</ele>
        <time>2019-08-09T07:56:42Z</time>
      </trkpt>
      <trkpt lat="44.12526" lon="5.85586">
        <ele>946</ele>
        <time>2019-08-09T07:56:43Z</time>
      </trkpt>
      <trkpt lat="44.12526" lon="5.85582">
        <ele>946</ele>
        <time>2019-08-09T07:56:44Z</time>
      </trkpt>
      <trkpt lat="44.12525" lon="5.85577">
        <ele>947</ele>
        <time>2019-08-09T07:56:45Z</time>
      </trkpt>
      <trkpt lat="44.12524" lon="5.85572">
        <ele>947</ele>
        <time>2019-08-09T07:56:46Z</time>
      </trkpt>
      <trkpt lat="44.12522" lon="5.85568">
        <ele>947</ele>
        <time>2019-08-09T07:56:47Z</time>
      </trkpt>
      <trkpt lat="44.12521" lon="5.85563">
        <ele>947</ele>
        <time>2019-08-09T07:56:48Z</time>
      </trkpt>
      <trkpt lat="44.1252" lon="5.85559">
        <ele>947</ele>
        <time>2019-08-09T07:56:49Z</time>
      </trkpt>
      <trkpt lat="44.12518" lon="5.85554">
        <ele>947</ele>
        <time>2019-08-09T07:56:50Z</time>
      </trkpt>
      <trkpt lat="44.12517" lon="5.85549">
        <ele>947</ele>
        <time>2019-08-09T07:56:51Z</time>
      </trkpt>
      <trkpt lat="44.12515" lon="5.85545">
        <ele>947</ele>
        <time>2019-08-09T07:56:52Z</time>
      </trkpt>
      <trkpt lat="44.12513" lon="5.85541">
        <ele>947</ele>
        <time>2019-08-09T07:56:53Z</time>
      </trkpt>
      <trkpt lat="44.12511" lon="5.85536">
        <ele>947</ele>
        <time>2019-08-09T07:56:54Z</time>
      </trkpt>
      <trkpt lat="44.1251" lon="5.85533">
        <ele>947</ele>
        <time>2019-08-09T07:56:55Z</time>
      </trkpt>
      <trkpt lat="44.12507" lon="5.85528">
        <ele>947</ele>
        <time>2019-08-09T07:56:56Z</time>
      </trkpt>
      <trkpt lat="44.12505" lon="5.85524">
        <ele>947</ele>
        <time>2019-08-09T07:56:57Z</time>
      </trkpt>
      <trkpt lat="44.12503" lon="5.85519">
        <ele>947</ele>
        <time>2019-08-09T07:56:58Z</time>
      </trkpt>
      <trkpt lat="44.12501" lon="5.85514">
        <ele>948</ele>
        <time>2019-08-09T07:56:59Z</time>
      </trkpt>
      <trkpt lat="44.12499" lon="5.85511">
        <ele>948</ele>
        <time>2019-08-09T07:57:00Z</time>
      </trkpt>
      <trkpt lat="44.12497" lon="5.85507">
        <ele>949</ele>
        <time>2019-08-09T07:57:01Z</time>
      </trkpt>
      <trkpt lat="44.12495" lon="5.85502">
        <ele>950</ele>
        <time>2019-08-09T07:57:02Z</time>
      </trkpt>
      <trkpt lat="44.12493" lon="5.85498">
        <ele>951</ele>
        <time>2019-08-09T07:57:03Z</time>
      </trkpt>
      <trkpt lat="44.1249" lon="5.85494">
        <ele>952</ele>
        <time>2019-08-09T07:57:04Z</time>
      </trkpt>
      <trkpt lat="44.12488" lon="5.85491">
        <ele>953</ele>
        <time>2019-08-09T07:57:05Z</time>
      </trkpt>
      <trkpt lat="44.12485" lon="5.85488">
        <ele>954</ele>
        <time>2019-08-09T07:57:06Z</time>
      </trkpt>
      <trkpt lat="44.12483" lon="5.85484">
        <ele>955</ele>
        <time>2019-08-09T07:57:07Z</time>
      </trkpt>
      <trkpt lat="44.12481" lon="5.85479">
        <ele>956</ele>
        <time>2019-08-09T07:57:08Z</time>
      </trkpt>
      <trkpt lat="44.12479" lon="5.85475">
        <ele>957</ele>
        <time>2019-08-09T07:57:09Z</time>
      </trkpt>
      <trkpt lat="44.12477" lon="5.85472">
        <ele>958</ele>
        <time>2019-08-09T07:57:10Z</time>
      </trkpt>
      <trkpt lat="44.12475" lon="5.85469">
        <ele>959</ele>
        <time>2019-08-09T07:57:11Z</time>
      </trkpt>
      <trkpt lat="44.12473" lon="5.85465">
        <ele>960</ele>
        <time>2019-08-09T07:57:12Z</time>
      </trkpt>
      <trkpt lat="44.12471" lon="5.85462">
        <ele>961</ele>
        <time>2019-08-09T07:57:13Z</time>
      </trkpt>
      <trkpt lat="44.1247" lon="5.85459">
        <ele>962</ele>
        <time>2019-08-09T07:57:14Z</time>
      </trkpt>
      <trkpt lat="44.12468" lon="5.85455">
        <ele>963</ele>
        <time>2019-08-09T07:57:15Z</time>
      </trkpt>
      <trkpt lat="44.12466" lon="5.85451">
        <ele>964</ele>
        <time>2019-08-09T07:57:16Z</time>
      </trkpt>
      <trkpt lat="44.12465" lon="5.85448">
        <ele>965</ele>
        <time>2019-08-09T07:57:17Z</time>
      </trkpt>
      <trkpt lat="44.12462" lon="5.85443">
        <ele>966</ele>
        <time>2019-08-09T07:57:18Z</time>
      </trkpt>
      <trkpt lat="44.1246" lon="5.85439">
        <ele>966</ele>
        <time>2019-08-09T07:57:19Z</time>
      </trkpt>
      <trkpt lat="44.12458" lon="5.85434">
        <ele>966</ele>
        <time>2019-08-09T07:57:20Z</time>
      </trkpt>
      <trkpt lat="44.12456" lon="5.85431">
        <ele>966</ele>
        <time>2019-08-09T07:57:21Z</time>
      </trkpt>
      <trkpt lat="44.12455" lon="5.85427">
        <ele>966</ele>
        <time>2019-08-09T07:57:22Z</time>
      </trkpt>
      <trkpt lat="44.12454" lon="5.85423">
        <ele>966</ele>
        <time>2019-08-09T07:57:23Z</time>
      </trkpt>
      <trkpt lat="44.12454" lon="5.85419">
        <ele>966</ele>
        <time>2019-08-09T07:57:24Z</time>
      </trkpt>
      <trkpt lat="44.12453" lon="5.85415">
        <ele>966</ele>
        <time>2019-08-09T07:57:25Z</time>
      </trkpt>
      <trkpt lat="44.12453" lon="5.8541">
        <ele>966</ele>
        <time>2019-08-09T07:57:26Z</time>
      </trkpt>
      <trkpt lat="44.12453" lon="5.85405">
        <ele>966</ele>
        <time>2019-08-09T07:57:27Z</time>
      </trkpt>
      <trkpt lat="44.12454" lon="5.854">
        <ele>966</ele>
        <time>2019-08-09T07:57:28Z</time>
      </trkpt>
      <trkpt lat="44.12456" lon="5.85396">
        <ele>966</ele>
        <time>2019-08-09T07:57:29Z</time>
      </trkpt>
      <trkpt lat="44.12458" lon="5.85392">
        <ele>966</ele>
        <time>2019-08-09T07:57:30Z</time>
      </trkpt>
      <trkpt lat="44.12461" lon="5.8539">
        <ele>966</ele>
        <time>2019-08-09T07:57:31Z</time>
      </trkpt>
      <trkpt lat="44.12464" lon="5.85387">
        <ele>966</ele>
        <time>2019-08-09T07:57:32Z</time>
      </trkpt>
      <trkpt lat="44.12467" lon="5.85386">
        <ele>966</ele>
        <time>2019-08-09T07:57:33Z</time>
      </trkpt>
      <trkpt lat="44.1247" lon="5.85385">
        <ele>966</ele>
        <time>2019-08-09T07:57:34Z</time>
      </trkpt>
      <trkpt lat="44.12473" lon="5.85384">
        <ele>966</ele>
        <time>2019-08-09T07:57:35Z</time>
      </trkpt>
      <trkpt lat="44.12476" lon="5.85383">
        <ele>966</ele>
        <time>2019-08-09T07:57:36Z</time>
      </trkpt>
      <trkpt lat="44.12479" lon="5.85382">
        <ele>966</ele>
        <time>2019-08-09T07:57:37Z</time>
      </trkpt>
      <trkpt lat="44.12482" lon="5.85381">
        <ele>966</ele>
        <time>2019-08-09T07:57:38Z</time>
      </trkpt>
      <trkpt lat="44.12485" lon="5.85381">
        <ele>966</ele>
        <time>2019-08-09T07:57:39Z</time>
      </trkpt>
      <trkpt lat="44.12488" lon="5.8538">
        <ele>966</ele>
        <time>2019-08-09T07:57:40Z</time>
      </trkpt>
      <trkpt lat="44.12492" lon="5.8538">
        <ele>966</ele>
        <time>2019-08-09T07:57:41Z</time>
      </trkpt>
      <trkpt lat="44.12495" lon="5.8538">
        <ele>966</ele>
        <time>2019-08-09T07:57:42Z</time>
      </trkpt>
      <trkpt lat="44.12498" lon="5.85379">
        <ele>966</ele>
        <time>2019-08-09T07:57:43Z</time>
      </trkpt>
      <trkpt lat="44.12501" lon="5.85378">
        <ele>966</ele>
        <time>2019-08-09T07:57:44Z</time>
      </trkpt>
      <trkpt lat="44.12504" lon="5.85377">
        <ele>966</ele>
        <time>2019-08-09T07:57:45Z</time>
      </trkpt>
      <trkpt lat="44.12508" lon="5.85377">
        <ele>966</ele>
        <time>2019-08-09T07:57:46Z</time>
      </trkpt>
      <trkpt lat="44.12511" lon="5.85377">
        <ele>966</ele>
        <time>2019-08-09T07:57:47Z</time>
      </trkpt>
      <trkpt lat="44.12514" lon="5.85377">
        <ele>966</ele>
        <time>2019-08-09T07:57:48Z</time>
      </trkpt>
      <trkpt lat="44.12517" lon="5.85377">
        <ele>966</ele>
        <time>2019-08-09T07:57:49Z</time>
      </trkpt>
      <trkpt lat="44.12521" lon="5.85377">
        <ele>966</ele>
        <time>2019-08-09T07:57:50Z</time>
      </trkpt>
      <trkpt lat="44.12524" lon="5.85377">
        <ele>966</ele>
        <time>2019-08-09T07:57:51Z</time>
      </trkpt>
      <trkpt lat="44.12527" lon="5.85377">
        <ele>966</ele>
        <time>2019-08-09T07:57:52Z</time>
      </trkpt>
      <trkpt lat="44.1253" lon="5.85378">
        <ele>966</ele>
        <time>2019-08-09T07:57:53Z</time>
      </trkpt>
      <trkpt lat="44.12533" lon="5.85379">
        <ele>966</ele>
        <time>2019-08-09T07:57:54Z</time>
      </trkpt>
      <trkpt lat="44.12537" lon="5.85379">
        <ele>966</ele>
        <time>2019-08-09T07:57:55Z</time>
      </trkpt>
      <trkpt lat="44.1254" lon="5.85379">
        <ele>966</ele>
        <time>2019-08-09T07:57:56Z</time>
      </trkpt>
      <trkpt lat="44.12543" lon="5.8538">
        <ele>966</ele>
        <time>2019-08-09T07:57:57Z</time>
      </trkpt>
      <trkpt lat="44.12545" lon="5.85381">
        <ele>966</ele>
        <time>2019-08-09T07:57:58Z</time>
      </trkpt>
      <trkpt lat="44.12548" lon="5.85381">
        <ele>966</ele>
        <time>2019-08-09T07:57:59Z</time>
      </trkpt>
      <trkpt lat="44.12551" lon="5.85382">
        <ele>966</ele>
        <time>2019-08-09T07:58:00Z</time>
      </trkpt>
      <trkpt lat="44.12554" lon="5.85383">
        <ele>966</ele>
        <time>2019-08-09T07:58:01Z</time>
      </trkpt>
      <trkpt lat="44.12557" lon="5.85383">
        <ele>966</ele>
        <time>2019-08-09T07:58:02Z</time>
      </trkpt>
      <trkpt lat="44.1256" lon="5.85383">
        <ele>966</ele>
        <time>2019-08-09T07:58:03Z</time>
      </trkpt>
      <trkpt lat="44.12563" lon="5.85383">
        <ele>966</ele>
        <time>2019-08-09T07:58:04Z</time>
      </trkpt>
      <trkpt lat="44.12566" lon="5.85383">
        <ele>966</ele>
        <time>2019-08-09T07:58:05Z</time>
      </trkpt>
      <trkpt lat="44.12569" lon="5.85383">
        <ele>966</ele>
        <time>2019-08-09T07:58:06Z</time>
      </trkpt>
      <trkpt lat="44.12572" lon="5.85383">
        <ele>966</ele>
        <time>2019-08-09T07:58:07Z</time>
      </trkpt>
      <trkpt lat="44.12575" lon="5.85382">
        <ele>966</ele>
        <time>2019-08-09T07:58:08Z</time>
      </trkpt>
      <trkpt lat="44.12577" lon="5.8538">
        <ele>966</ele>
        <time>2019-08-09T07:58:09Z</time>
      </trkpt>
      <trkpt lat="44.1258" lon="5.85378">
        <ele>966</ele>
        <time>2019-08-09T07:58:10Z</time>
      </trkpt>
      <trkpt lat="44.12583" lon="5.85375">
        <ele>966</ele>
        <time>2019-08-09T07:58:11Z</time>
      </trkpt>
      <trkpt lat="44.12585" lon="5.85373">
        <ele>966</ele>
        <time>2019-08-09T07:58:12Z</time>
      </trkpt>
      <trkpt lat="44.12588" lon="5.8537">
        <ele>966</ele>
        <time>2019-08-09T07:58:13Z</time>
      </trkpt>
      <trkpt lat="44.1259" lon="5.85367">
        <ele>966</ele>
        <time>2019-08-09T07:58:14Z</time>
      </trkpt>
      <trkpt lat="44.12591" lon="5.85363">
        <ele>966</ele>
        <time>2019-08-09T07:58:15Z</time>
      </trkpt>
      <trkpt lat="44.12592" lon="5.85359">
        <ele>966</ele>
        <time>2019-08-09T07:58:16Z</time>
      </trkpt>
      <trkpt lat="44.12593" lon="5.85355">
        <ele>966</ele>
        <time>2019-08-09T07:58:17Z</time>
      </trkpt>
      <trkpt lat="44.12593" lon="5.85351">
        <ele>966</ele>
        <time>2019-08-09T07:58:18Z</time>
      </trkpt>
      <trkpt lat="44.12594" lon="5.85347">
        <ele>966</ele>
        <time>2019-08-09T07:58:19Z</time>
      </trkpt>
      <trkpt lat="44.12594" lon="5.85343">
        <ele>966</ele>
        <time>2019-08-09T07:58:20Z</time>
      </trkpt>
      <trkpt lat="44.12594" lon="5.85338">
        <ele>966</ele>
        <time>2019-08-09T07:58:21Z</time>
      </trkpt>
      <trkpt lat="44.12593" lon="5.85334">
        <ele>966</ele>
        <time>2019-08-09T07:58:22Z</time>
      </trkpt>
      <trkpt lat="44.12593" lon="5.8533">
        <ele>966</ele>
        <time>2019-08-09T07:58:23Z</time>
      </trkpt>
      <trkpt lat="44.12592" lon="5.85325">
        <ele>966</ele>
        <time>2019-08-09T07:58:24Z</time>
      </trkpt>
      <trkpt lat="44.12592" lon="5.85321">
        <ele>966</ele>
        <time>2019-08-09T07:58:25Z</time>
      </trkpt>
      <trkpt lat="44.12591" lon="5.85316">
        <ele>966</ele>
        <time>2019-08-09T07:58:26Z</time>
      </trkpt>
      <trkpt lat="44.1259" lon="5.85312">
        <ele>966</ele>
        <time>2019-08-09T07:58:27Z</time>
      </trkpt>
      <trkpt lat="44.12588" lon="5.85308">
        <ele>966</ele>
        <time>2019-08-09T07:58:28Z</time>
      </trkpt>
      <trkpt lat="44.12587" lon="5.85304">
        <ele>966</ele>
        <time>2019-08-09T07:58:29Z</time>
      </trkpt>
      <trkpt lat="44.12585" lon="5.85299">
        <ele>966</ele>
        <time>2019-08-09T07:58:30Z</time>
      </trkpt>
      <trkpt lat="44.12584" lon="5.85295">
        <ele>966</ele>
        <time>2019-08-09T07:58:31Z</time>
      </trkpt>
      <trkpt lat="44.12582" lon="5.85291">
        <ele>966</ele>
        <time>2019-08-09T07:58:32Z</time>
      </trkpt>
      <trkpt lat="44.1258" lon="5.85287">
        <ele>966</ele>
        <time>2019-08-09T07:58:33Z</time>
      </trkpt>
      <trkpt lat="44.12578" lon="5.85284">
        <ele>966</ele>
        <time>2019-08-09T07:58:34Z</time>
      </trkpt>
      <trkpt lat="44.12576" lon="5.8528">
        <ele>966</ele>
        <time>2019-08-09T07:58:35Z</time>
      </trkpt>
      <trkpt lat="44.12574" lon="5.85276">
        <ele>966</ele>
        <time>2019-08-09T07:58:36Z</time>
      </trkpt>
      <trkpt lat="44.1257" lon="5.85272">
        <ele>966</ele>
        <time>2019-08-09T07:58:37Z</time>
      </trkpt>
      <trkpt lat="44.12567" lon="5.85269">
        <ele>966</ele>
        <time>2019-08-09T07:58:38Z</time>
      </trkpt>
      <trkpt lat="44.12563" lon="5.85266">
        <ele>966</ele>
        <time>2019-08-09T07:58:39Z</time>
      </trkpt>
      <trkpt lat="44.1256" lon="5.85263">
        <ele>966</ele>
        <time>2019-08-09T07:58:40Z</time>
      </trkpt>
      <trkpt lat="44.12557" lon="5.85261">
        <ele>966</ele>
        <time>2019-08-09T07:58:41Z</time>
      </trkpt>
      <trkpt lat="44.12554" lon="5.85259">
        <ele>966</ele>
        <time>2019-08-09T07:58:42Z</time>
      </trkpt>
      <trkpt lat="44.12551" lon="5.85256">
        <ele>966</ele>
        <time>2019-08-09T07:58:43Z</time>
      </trkpt>
      <trkpt lat="44.12547" lon="5.85253">
        <ele>966</ele>
        <time>2019-08-09T07:58:44Z</time>
      </trkpt>
      <trkpt lat="44.12544" lon="5.85251">
        <ele>966</ele>
        <time>2019-08-09T07:58:45Z</time>
      </trkpt>
      <trkpt lat="44.12541" lon="5.85248">
        <ele>966</ele>
        <time>2019-08-09T07:58:46Z</time>
      </trkpt>
      <trkpt lat="44.12537" lon="5.85246">
        <ele>966</ele>
        <time>2019-08-09T07:58:47Z</time>
      </trkpt>
      <trkpt lat="44.12534" lon="5.85243">
        <ele>966</ele>
        <time>2019-08-09T07:58:48Z</time>
      </trkpt>
      <trkpt lat="44.12532" lon="5.8524">
        <ele>966</ele>
        <time>2019-08-09T07:58:49Z</time>
      </trkpt>
      <trkpt lat="44.12529" lon="5.85236">
        <ele>966</ele>
        <time>2019-08-09T07:58:50Z</time>
      </trkpt>
      <trkpt lat="44.12527" lon="5.85232">
        <ele>966</ele>
        <time>2019-08-09T07:58:51Z</time>
      </trkpt>
      <trkpt lat="44.12525" lon="5.85228">
        <ele>966</ele>
        <time>2019-08-09T07:58:52Z</time>
      </trkpt>
      <trkpt lat="44.12523" lon="5.85223">
        <ele>966</ele>
        <time>2019-08-09T07:58:53Z</time>
      </trkpt>
      <trkpt lat="44.12521" lon="5.85219">
        <ele>966</ele>
        <time>2019-08-09T07:58:54Z</time>
      </trkpt>
      <trkpt lat="44.12519" lon="5.85215">
        <ele>966</ele>
        <time>2019-08-09T07:58:55Z</time>
      </trkpt>
      <trkpt lat="44.12518" lon="5.8521">
        <ele>966</ele>
        <time>2019-08-09T07:58:56Z</time>
      </trkpt>
      <trkpt lat="44.12517" lon="5.85205">
        <ele>966</ele>
        <time>2019-08-09T07:58:57Z</time>
      </trkpt>
      <trkpt lat="44.12516" lon="5.852">
        <ele>966</ele>
        <time>2019-08-09T07:58:58Z</time>
      </trkpt>
      <trkpt lat="44.12515" lon="5.85196">
        <ele>966</ele>
        <time>2019-08-09T07:58:59Z</time>
      </trkpt>
      <trkpt lat="44.12514" lon="5.85191">
        <ele>966</ele>
        <time>2019-08-09T07:59:00Z</time>
      </trkpt>
      <trkpt lat="44.12513" lon="5.85186">
        <ele>966</ele>
        <time>2019-08-09T07:59:01Z</time>
      </trkpt>
      <trkpt lat="44.12512" lon="5.85182">
        <ele>966</ele>
        <time>2019-08-09T07:59:02Z</time>
      </trkpt>
      <trkpt lat="44.12511" lon="5.85178">
        <ele>967</ele>
        <time>2019-08-09T07:59:03Z</time>
      </trkpt>
      <trkpt lat="44.12509" lon="5.85173">
        <ele>967</ele>
        <time>2019-08-09T07:59:04Z</time>
      </trkpt>
      <trkpt lat="44.12507" lon="5.85169">
        <ele>967</ele>
        <time>2019-08-09T07:59:05Z</time>
      </trkpt>
      <trkpt lat="44.12505" lon="5.85165">
        <ele>968</ele>
        <time>2019-08-09T07:59:06Z</time>
      </trkpt>
      <trkpt lat="44.12504" lon="5.85161">
        <ele>968</ele>
        <time>2019-08-09T07:59:07Z</time>
      </trkpt>
      <trkpt lat="44.12502" lon="5.85157">
        <ele>969</ele>
        <time>2019-08-09T07:59:08Z</time>
      </trkpt>
      <trkpt lat="44.12499" lon="5.85153">
        <ele>969</ele>
        <time>2019-08-09T07:59:09Z</time>
      </trkpt>
      <trkpt lat="44.12496" lon="5.85149">
        <ele>969</ele>
        <time>2019-08-09T07:59:10Z</time>
      </trkpt>
      <trkpt lat="44.12493" lon="5.85145">
        <ele>970</ele>
        <time>2019-08-09T07:59:11Z</time>
      </trkpt>
      <trkpt lat="44.1249" lon="5.85142">
        <ele>970</ele>
        <time>2019-08-09T07:59:12Z</time>
      </trkpt>
      <trkpt lat="44.12487" lon="5.85139">
        <ele>970</ele>
        <time>2019-08-09T07:59:13Z</time>
      </trkpt>
      <trkpt lat="44.12483" lon="5.85137">
        <ele>970</ele>
        <time>2019-08-09T07:59:14Z</time>
      </trkpt>
      <trkpt lat="44.12479" lon="5.85135">
        <ele>970</ele>
        <time>2019-08-09T07:59:15Z</time>
      </trkpt>
      <trkpt lat="44.12475" lon="5.85133">
        <ele>970</ele>
        <time>2019-08-09T07:59:16Z</time>
      </trkpt>
      <trkpt lat="44.12471" lon="5.85132">
        <ele>970</ele>
        <time>2019-08-09T07:59:17Z</time>
      </trkpt>
      <trkpt lat="44.12468" lon="5.8513">
        <ele>970</ele>
        <time>2019-08-09T07:59:18Z</time>
      </trkpt>
      <trkpt lat="44.12464" lon="5.85128">
        <ele>970</ele>
        <time>2019-08-09T07:59:19Z</time>
      </trkpt>
      <trkpt lat="44.12461" lon="5.85127">
        <ele>970</ele>
        <time>2019-08-09T07:59:20Z</time>
      </trkpt>
      <trkpt lat="44.12458" lon="5.85126">
        <ele>970</ele>
        <time>2019-08-09T07:59:21Z</time>
      </trkpt>
      <trkpt lat="44.12454" lon="5.85124">
        <ele>970</ele>
        <time>2019-08-09T07:59:22Z</time>
      </trkpt>
      <trkpt lat="44.12451" lon="5.85123">
        <ele>970</ele>
        <time>2019-08-09T07:59:23Z</time>
      </trkpt>
      <trkpt lat="44.12447" lon="5.85121">
        <ele>970</ele>
        <time>2019-08-09T07:59:24Z</time>
      </trkpt>
      <trkpt lat="44.12444" lon="5.8512">
        <ele>970</ele>
        <time>2019-08-09T07:59:25Z</time>
      </trkpt>
      <trkpt lat="44.1244" lon="5.85119">
        <ele>970</ele>
        <time>2019-08-09T07:59:26Z</time>
      </trkpt>
      <trkpt lat="44.12437" lon="5.85118">
        <ele>970</ele>
        <time>2019-08-09T07:59:27Z</time>
      </trkpt>
      <trkpt lat="44.12433" lon="5.85117">
        <ele>969</ele>
        <time>2019-08-09T07:59:28Z</time>
      </trkpt>
      <trkpt lat="44.12429" lon="5.85117">
        <ele>968</ele>
        <time>2019-08-09T07:59:29Z</time>
      </trkpt>
      <trkpt lat="44.12425" lon="5.85116">
        <ele>967</ele>
        <time>2019-08-09T07:59:30Z</time>
      </trkpt>
      <trkpt lat="44.12421" lon="5.85115">
        <ele>966</ele>
        <time>2019-08-09T07:59:31Z</time>
      </trkpt>
      <trkpt lat="44.12416" lon="5.85114">
        <ele>965</ele>
        <time>2019-08-09T07:59:32Z</time>
      </trkpt>
      <trkpt lat="44.12413" lon="5.85112">
        <ele>964</ele>
        <time>2019-08-09T07:59:33Z</time>
      </trkpt>
      <trkpt lat="44.12409" lon="5.8511">
        <ele>964</ele>
        <time>2019-08-09T07:59:34Z</time>
      </trkpt>
      <trkpt lat="44.12406" lon="5.85107">
        <ele>964</ele>
        <time>2019-08-09T07:59:35Z</time>
      </trkpt>
      <trkpt lat="44.12403" lon="5.85104">
        <ele>964</ele>
        <time>2019-08-09T07:59:36Z</time>
      </trkpt>
      <trkpt lat="44.124" lon="5.85101">
        <ele>964</ele>
        <time>2019-08-09T07:59:37Z</time>
      </trkpt>
      <trkpt lat="44.12398" lon="5.85096">
        <ele>964</ele>
        <time>2019-08-09T07:59:38Z</time>
      </trkpt>
      <trkpt lat="44.12397" lon="5.85091">
        <ele>964</ele>
        <time>2019-08-09T07:59:39Z</time>
      </trkpt>
      <trkpt lat="44.12394" lon="5.85088">
        <ele>964</ele>
        <time>2019-08-09T07:59:40Z</time>
      </trkpt>
      <trkpt lat="44.12393" lon="5.85083">
        <ele>964</ele>
        <time>2019-08-09T07:59:41Z</time>
      </trkpt>
      <trkpt lat="44.12391" lon="5.85079">
        <ele>964</ele>
        <time>2019-08-09T07:59:42Z</time>
      </trkpt>
      <trkpt lat="44.1239" lon="5.85075">
        <ele>964</ele>
        <time>2019-08-09T07:59:43Z</time>
      </trkpt>
      <trkpt lat="44.12389" lon="5.8507">
        <ele>965</ele>
        <time>2019-08-09T07:59:44Z</time>
      </trkpt>
      <trkpt lat="44.12387" lon="5.85066">
        <ele>965</ele>
        <time>2019-08-09T07:59:45Z</time>
      </trkpt>
      <trkpt lat="44.12386" lon="5.85062">
        <ele>966</ele>
        <time>2019-08-09T07:59:46Z</time>
      </trkpt>
      <trkpt lat="44.12385" lon="5.85057">
        <ele>966</ele>
        <time>2019-08-09T07:59:47Z</time>
      </trkpt>
      <trkpt lat="44.12384" lon="5.85052">
        <ele>966</ele>
        <time>2019-08-09T07:59:48Z</time>
      </trkpt>
      <trkpt lat="44.12382" lon="5.85048">
        <ele>967</ele>
        <time>2019-08-09T07:59:49Z</time>
      </trkpt>
      <trkpt lat="44.12381" lon="5.85044">
        <ele>967</ele>
        <time>2019-08-09T07:59:50Z</time>
      </trkpt>
      <trkpt lat="44.1238" lon="5.8504">
        <ele>968</ele>
        <time>2019-08-09T07:59:51Z</time>
      </trkpt>
      <trkpt lat="44.12379" lon="5.85036">
        <ele>968</ele>
        <time>2019-08-09T07:59:52Z</time>
      </trkpt>
      <trkpt lat="44.12378" lon="5.85031">
        <ele>968</ele>
        <time>2019-08-09T07:59:53Z</time>
      </trkpt>
      <trkpt lat="44.12377" lon="5.85027">
        <ele>969</ele>
        <time>2019-08-09T07:59:54Z</time>
      </trkpt>
      <trkpt lat="44.12377" lon="5.85022">
        <ele>969</ele>
        <time>2019-08-09T07:59:55Z</time>
      </trkpt>
      <trkpt lat="44.12376" lon="5.85016">
        <ele>969</ele>
        <time>2019-08-09T07:59:56Z</time>
      </trkpt>
      <trkpt lat="44.12377" lon="5.85011">
        <ele>969</ele>
        <time>2019-08-09T07:59:57Z</time>
      </trkpt>
      <trkpt lat="44.12378" lon="5.85006">
        <ele>969</ele>
        <time>2019-08-09T07:59:58Z</time>
      </trkpt>
      <trkpt lat="44.12379" lon="5.85002">
        <ele>969</ele>
        <time>2019-08-09T07:59:59Z</time>
      </trkpt>
      <trkpt lat="44.1238" lon="5.84996">
        <ele>969</ele>
        <time>2019-08-09T08:00:00Z</time>
      </trkpt>
      <trkpt lat="44.12382" lon="5.84992">
        <ele>969</ele>
        <time>2019-08-09T08:00:01Z</time>
      </trkpt>
      <trkpt lat="44.12384" lon="5.84988">
        <ele>969</ele>
        <time>2019-08-09T08:00:02Z</time>
      </trkpt>
      <trkpt lat="44.12386" lon="5.84985">
        <ele>969</ele>
        <time>2019-08-09T08:00:03Z</time>
      </trkpt>
      <trkpt lat="44.12389" lon="5.84982">
        <ele>970</ele>
        <time>2019-08-09T08:00:04Z</time>
      </trkpt>
      <trkpt lat="44.12393" lon="5.8498">
        <ele>971</ele>
        <time>2019-08-09T08:00:05Z</time>
      </trkpt>
      <trkpt lat="44.12396" lon="5.84976">
        <ele>971</ele>
        <time>2019-08-09T08:00:06Z</time>
      </trkpt>
      <trkpt lat="44.12399" lon="5.84972">
        <ele>972</ele>
        <time>2019-08-09T08:00:07Z</time>
      </trkpt>
      <trkpt lat="44.124" lon="5.84968">
        <ele>973</ele>
        <time>2019-08-09T08:00:08Z</time>
      </trkpt>
      <trkpt lat="44.12402" lon="5.84964">
        <ele>973</ele>
        <time>2019-08-09T08:00:09Z</time>
      </trkpt>
      <trkpt lat="44.12405" lon="5.84961">
        <ele>973</ele>
        <time>2019-08-09T08:00:10Z</time>
      </trkpt>
      <trkpt lat="44.12407" lon="5.84956">
        <ele>973</ele>
        <time>2019-08-09T08:00:11Z</time>
      </trkpt>
      <trkpt lat="44.12409" lon="5.84952">
        <ele>973</ele>
        <time>2019-08-09T08:00:12Z</time>
      </trkpt>
      <trkpt lat="44.12411" lon="5.84948">
        <ele>973</ele>
        <time>2019-08-09T08:00:13Z</time>
      </trkpt>
      <trkpt lat="44.12413" lon="5.84944">
        <ele>973</ele>
        <time>2019-08-09T08:00:14Z</time>
      </trkpt>
      <trkpt lat="44.12415" lon="5.84939">
        <ele>974</ele>
        <time>2019-08-09T08:00:15Z</time>
      </trkpt>
      <trkpt lat="44.12416" lon="5.84934">
        <ele>974</ele>
        <time>2019-08-09T08:00:16Z</time>
      </trkpt>
      <trkpt lat="44.12418" lon="5.84929">
        <ele>974</ele>
        <time>2019-08-09T08:00:17Z</time>
      </trkpt>
      <trkpt lat="44.12421" lon="5.84926">
        <ele>975</ele>
        <time>2019-08-09T08:00:18Z</time>
      </trkpt>
      <trkpt lat="44.12423" lon="5.84922">
        <ele>975</ele>
        <time>2019-08-09T08:00:19Z</time>
      </trkpt>
      <trkpt lat="44.12424" lon="5.84919">
        <ele>976</ele>
        <time>2019-08-09T08:00:20Z</time>
      </trkpt>
      <trkpt lat="44.12426" lon="5.84916">
        <ele>976</ele>
        <time>2019-08-09T08:00:21Z</time>
      </trkpt>
      <trkpt lat="44.12428" lon="5.84912">
        <ele>976</ele>
        <time>2019-08-09T08:00:22Z</time>
      </trkpt>
      <trkpt lat="44.12428" lon="5.84906">
        <ele>976</ele>
        <time>2019-08-09T08:00:23Z</time>
      </trkpt>
      <trkpt lat="44.12428" lon="5.84901">
        <ele>976</ele>
        <time>2019-08-09T08:00:24Z</time>
      </trkpt>
      <trkpt lat="44.12428" lon="5.84896">
        <ele>976</ele>
        <time>2019-08-09T08:00:25Z</time>
      </trkpt>
      <trkpt lat="44.12428" lon="5.84891">
        <ele>976</ele>
        <time>2019-08-09T08:00:26Z</time>
      </trkpt>
      <trkpt lat="44.12427" lon="5.84887">
        <ele>977</ele>
        <time>2019-08-09T08:00:27Z</time>
      </trkpt>
      <trkpt lat="44.12426" lon="5.84882">
        <ele>977</ele>
        <time>2019-08-09T08:00:28Z</time>
      </trkpt>
      <trkpt lat="44.12426" lon="5.84878">
        <ele>978</ele>
        <time>2019-08-09T08:00:29Z</time>
      </trkpt>
      <trkpt lat="44.12425" lon="5.84873">
        <ele>979</ele>
        <time>2019-08-09T08:00:30Z</time>
      </trkpt>
      <trkpt lat="44.12424" lon="5.84869">
        <ele>979</ele>
        <time>2019-08-09T08:00:31Z</time>
      </trkpt>
      <trkpt lat="44.12422" lon="5.84864">
        <ele>980</ele>
        <time>2019-08-09T08:00:32Z</time>
      </trkpt>
      <trkpt lat="44.1242" lon="5.84859">
        <ele>980</ele>
        <time>2019-08-09T08:00:33Z</time>
      </trkpt>
      <trkpt lat="44.12418" lon="5.84854">
        <ele>980</ele>
        <time>2019-08-09T08:00:34Z</time>
      </trkpt>
      <trkpt lat="44.12416" lon="5.8485">
        <ele>980</ele>
        <time>2019-08-09T08:00:35Z</time>
      </trkpt>
      <trkpt lat="44.12415" lon="5.84846">
        <ele>980</ele>
        <time>2019-08-09T08:00:36Z</time>
      </trkpt>
      <trkpt lat="44.12413" lon="5.84841">
        <ele>980</ele>
        <time>2019-08-09T08:00:37Z</time>
      </trkpt>
      <trkpt lat="44.12411" lon="5.84839">
        <ele>980</ele>
        <time>2019-08-09T08:00:38Z</time>
      </trkpt>
      <trkpt lat="44.1241" lon="5.84836">
        <ele>980</ele>
        <time>2019-08-09T08:00:39Z</time>
      </trkpt>
      <trkpt lat="44.12409" lon="5.84833">
        <ele>980</ele>
        <time>2019-08-09T08:00:40Z</time>
      </trkpt>
      <trkpt lat="44.12408" lon="5.8483">
        <ele>981</ele>
        <time>2019-08-09T08:00:41Z</time>
      </trkpt>
      <trkpt lat="44.12406" lon="5.84827">
        <ele>981</ele>
        <time>2019-08-09T08:00:42Z</time>
      </trkpt>
      <trkpt lat="44.12405" lon="5.84824">
        <ele>981</ele>
        <time>2019-08-09T08:00:43Z</time>
      </trkpt>
      <trkpt lat="44.12402" lon="5.8482">
        <ele>982</ele>
        <time>2019-08-09T08:00:44Z</time>
      </trkpt>
      <trkpt lat="44.124" lon="5.84815">
        <ele>982</ele>
        <time>2019-08-09T08:00:45Z</time>
      </trkpt>
      <trkpt lat="44.12398" lon="5.84812">
        <ele>982</ele>
        <time>2019-08-09T08:00:46Z</time>
      </trkpt>
      <trkpt lat="44.12396" lon="5.84809">
        <ele>982</ele>
        <time>2019-08-09T08:00:47Z</time>
      </trkpt>
      <trkpt lat="44.12394" lon="5.84806">
        <ele>982</ele>
        <time>2019-08-09T08:00:48Z</time>
      </trkpt>
      <trkpt lat="44.12392" lon="5.84803">
        <ele>982</ele>
        <time>2019-08-09T08:00:49Z</time>
      </trkpt>
      <trkpt lat="44.1239" lon="5.84799">
        <ele>982</ele>
        <time>2019-08-09T08:00:50Z</time>
      </trkpt>
      <trkpt lat="44.12388" lon="5.84796">
        <ele>982</ele>
        <time>2019-08-09T08:00:51Z</time>
      </trkpt>
      <trkpt lat="44.12386" lon="5.84793">
        <ele>982</ele>
        <time>2019-08-09T08:00:52Z</time>
      </trkpt>
      <trkpt lat="44.12383" lon="5.84789">
        <ele>982</ele>
        <time>2019-08-09T08:00:53Z</time>
      </trkpt>
      <trkpt lat="44.12381" lon="5.84786">
        <ele>982</ele>
        <time>2019-08-09T08:00:54Z</time>
      </trkpt>
      <trkpt lat="44.1238" lon="5.84781">
        <ele>982</ele>
        <time>2019-08-09T08:00:55Z</time>
      </trkpt>
      <trkpt lat="44.1238" lon="5.84778">
        <ele>982</ele>
        <time>2019-08-09T08:00:56Z</time>
      </trkpt>
      <trkpt lat="44.12379" lon="5.84775">
        <ele>983</ele>
        <time>2019-08-09T08:00:57Z</time>
      </trkpt>
      <trkpt lat="44.12379" lon="5.84771">
        <ele>984</ele>
        <time>2019-08-09T08:00:58Z</time>
      </trkpt>
      <trkpt lat="44.12378" lon="5.84768">
        <ele>985</ele>
        <time>2019-08-09T08:00:59Z</time>
      </trkpt>
      <trkpt lat="44.12378" lon="5.84765">
        <ele>986</ele>
        <time>2019-08-09T08:01:00Z</time>
      </trkpt>
      <trkpt lat="44.12378" lon="5.84762">
        <ele>987</ele>
        <time>2019-08-09T08:01:01Z</time>
      </trkpt>
      <trkpt lat="44.12378" lon="5.84759">
        <ele>988</ele>
        <time>2019-08-09T08:01:02Z</time>
      </trkpt>
      <trkpt lat="44.12377" lon="5.84755">
        <ele>989</ele>
        <time>2019-08-09T08:01:03Z</time>
      </trkpt>
      <trkpt lat="44.12377" lon="5.84751">
        <ele>990</ele>
        <time>2019-08-09T08:01:04Z</time>
      </trkpt>
      <trkpt lat="44.12376" lon="5.84748">
        <ele>991</ele>
        <time>2019-08-09T08:01:05Z</time>
      </trkpt>
      <trkpt lat="44.12374" lon="5.84737">
        <ele>992</ele>
        <time>2019-08-09T08:01:08Z</time>
      </trkpt>
      <trkpt lat="44.12371" lon="5.84731">
        <ele>993</ele>
        <time>2019-08-09T08:01:09Z</time>
      </trkpt>
      <trkpt lat="44.12366" lon="5.84726">
        <ele>994</ele>
        <time>2019-08-09T08:01:10Z</time>
      </trkpt>
      <trkpt lat="44.12363" lon="5.84722">
        <ele>995</ele>
        <time>2019-08-09T08:01:11Z</time>
      </trkpt>
      <trkpt lat="44.12361" lon="5.84719">
        <ele>996</ele>
        <time>2019-08-09T08:01:12Z</time>
      </trkpt>
      <trkpt lat="44.12359" lon="5.84716">
        <ele>997</ele>
        <time>2019-08-09T08:01:13Z</time>
      </trkpt>
      <trkpt lat="44.12358" lon="5.84713">
        <ele>997</ele>
        <time>2019-08-09T08:01:14Z</time>
      </trkpt>
      <trkpt lat="44.12357" lon="5.84711">
        <ele>997</ele>
        <time>2019-08-09T08:01:15Z</time>
      </trkpt>
      <trkpt lat="44.12355" lon="5.84707">
        <ele>998</ele>
        <time>2019-08-09T08:01:16Z</time>
      </trkpt>
      <trkpt lat="44.12355" lon="5.84705">
        <ele>999</ele>
        <time>2019-08-09T08:01:17Z</time>
      </trkpt>
      <trkpt lat="44.12354" lon="5.84702">
        <ele>1000</ele>
        <time>2019-08-09T08:01:18Z</time>
      </trkpt>
      <trkpt lat="44.12352" lon="5.84697">
        <ele>1001</ele>
        <time>2019-08-09T08:01:19Z</time>
      </trkpt>
      <trkpt lat="44.12351" lon="5.84695">
        <ele>1002</ele>
        <time>2019-08-09T08:01:20Z</time>
      </trkpt>
      <trkpt lat="44.12349" lon="5.84692">
        <ele>1002</ele>
        <time>2019-08-09T08:01:21Z</time>
      </trkpt>
      <trkpt lat="44.12348" lon="5.8469">
        <ele>1002</ele>
        <time>2019-08-09T08:01:22Z</time>
      </trkpt>
      <trkpt lat="44.12347" lon="5.84687">
        <ele>1002</ele>
        <time>2019-08-09T08:01:23Z</time>
      </trkpt>
      <trkpt lat="44.12347" lon="5.84684">
        <ele>1002</ele>
        <time>2019-08-09T08:01:24Z</time>
      </trkpt>
      <trkpt lat="44.12345" lon="5.84681">
        <ele>1002</ele>
        <time>2019-08-09T08:01:25Z</time>
      </trkpt>
      <trkpt lat="44.12342" lon="5.84678">
        <ele>1002</ele>
        <time>2019-08-09T08:01:26Z</time>
      </trkpt>
      <trkpt lat="44.12341" lon="5.84674">
        <ele>1002</ele>
        <time>2019-08-09T08:01:27Z</time>
      </trkpt>
      <trkpt lat="44.12339" lon="5.8467">
        <ele>1002</ele>
        <time>2019-08-09T08:01:28Z</time>
      </trkpt>
      <trkpt lat="44.12337" lon="5.84665">
        <ele>1002</ele>
        <time>2019-08-09T08:01:29Z</time>
      </trkpt>
      <trkpt lat="44.12338" lon="5.84663">
        <ele>1002</ele>
        <time>2019-08-09T08:01:30Z</time>
      </trkpt>
      <trkpt lat="44.12338" lon="5.8466">
        <ele>1002</ele>
        <time>2019-08-09T08:01:31Z</time>
      </trkpt>
      <trkpt lat="44.12337" lon="5.84656">
        <ele>1002</ele>
        <time>2019-08-09T08:01:32Z</time>
      </trkpt>
      <trkpt lat="44.12336" lon="5.84652">
        <ele>1002</ele>
        <time>2019-08-09T08:01:33Z</time>
      </trkpt>
      <trkpt lat="44.12336" lon="5.84648">
        <ele>1002</ele>
        <time>2019-08-09T08:01:34Z</time>
      </trkpt>
      <trkpt lat="44.12335" lon="5.84645">
        <ele>1002</ele>
        <time>2019-08-09T08:01:35Z</time>
      </trkpt>
      <trkpt lat="44.12335" lon="5.84641">
        <ele>1002</ele>
        <time>2019-08-09T08:01:36Z</time>
      </trkpt>
      <trkpt lat="44.12335" lon="5.84638">
        <ele>1002</ele>
        <time>2019-08-09T08:01:37Z</time>
      </trkpt>
      <trkpt lat="44.12336" lon="5.84635">
        <ele>1002</ele>
        <time>2019-08-09T08:01:38Z</time>
      </trkpt>
      <trkpt lat="44.12337" lon="5.84631">
        <ele>1002</ele>
        <time>2019-08-09T08:01:39Z</time>
      </trkpt>
      <trkpt lat="44.12337" lon="5.84626">
        <ele>1002</ele>
        <time>2019-08-09T08:01:40Z</time>
      </trkpt>
      <trkpt lat="44.12337" lon="5.84622">
        <ele>1002</ele>
        <time>2019-08-09T08:01:41Z</time>
      </trkpt>
      <trkpt lat="44.12337" lon="5.84619">
        <ele>1002</ele>
        <time>2019-08-09T08:01:42Z</time>
      </trkpt>
      <trkpt lat="44.12337" lon="5.84614">
        <ele>1002</ele>
        <time>2019-08-09T08:01:43Z</time>
      </trkpt>
      <trkpt lat="44.12337" lon="5.8461">
        <ele>1002</ele>
        <time>2019-08-09T08:01:44Z</time>
      </trkpt>
      <trkpt lat="44.12336" lon="5.84606">
        <ele>1002</ele>
        <time>2019-08-09T08:01:45Z</time>
      </trkpt>
      <trkpt lat="44.12336" lon="5.84601">
        <ele>1002</ele>
        <time>2019-08-09T08:01:46Z</time>
      </trkpt>
      <trkpt lat="44.12336" lon="5.84599">
        <ele>1002</ele>
        <time>2019-08-09T08:01:47Z</time>
      </trkpt>
      <trkpt lat="44.12335" lon="5.84596">
        <ele>1002</ele>
        <time>2019-08-09T08:01:48Z</time>
      </trkpt>
      <trkpt lat="44.12334" lon="5.84594">
        <ele>1002</ele>
        <time>2019-08-09T08:01:49Z</time>
      </trkpt>
      <trkpt lat="44.12333" lon="5.84592">
        <ele>1002</ele>
        <time>2019-08-09T08:01:50Z</time>
      </trkpt>
      <trkpt lat="44.12332" lon="5.84589">
        <ele>1002</ele>
        <time>2019-08-09T08:01:51Z</time>
      </trkpt>
      <trkpt lat="44.1233" lon="5.84586">
        <ele>1002</ele>
        <time>2019-08-09T08:01:52Z</time>
      </trkpt>
      <trkpt lat="44.12328" lon="5.84584">
        <ele>1002</ele>
        <time>2019-08-09T08:01:53Z</time>
      </trkpt>
      <trkpt lat="44.12326" lon="5.84579">
        <ele>1002</ele>
        <time>2019-08-09T08:01:54Z</time>
      </trkpt>
      <trkpt lat="44.12324" lon="5.84576">
        <ele>1002</ele>
        <time>2019-08-09T08:01:55Z</time>
      </trkpt>
      <trkpt lat="44.12323" lon="5.84572">
        <ele>1002</ele>
        <time>2019-08-09T08:01:56Z</time>
      </trkpt>
      <trkpt lat="44.1232" lon="5.84569">
        <ele>1002</ele>
        <time>2019-08-09T08:01:57Z</time>
      </trkpt>
      <trkpt lat="44.12319" lon="5.84566">
        <ele>1002</ele>
        <time>2019-08-09T08:01:58Z</time>
      </trkpt>
      <trkpt lat="44.12318" lon="5.84563">
        <ele>1001</ele>
        <time>2019-08-09T08:01:59Z</time>
      </trkpt>
      <trkpt lat="44.12317" lon="5.84562">
        <ele>1001</ele>
        <time>2019-08-09T08:02:00Z</time>
      </trkpt>
      <trkpt lat="44.12316" lon="5.84558">
        <ele>1001</ele>
        <time>2019-08-09T08:02:01Z</time>
      </trkpt>
      <trkpt lat="44.12315" lon="5.84555">
        <ele>1001</ele>
        <time>2019-08-09T08:02:02Z</time>
      </trkpt>
      <trkpt lat="44.12315" lon="5.84553">
        <ele>1001</ele>
        <time>2019-08-09T08:02:03Z</time>
      </trkpt>
      <trkpt lat="44.12314" lon="5.8455">
        <ele>1001</ele>
        <time>2019-08-09T08:02:04Z</time>
      </trkpt>
      <trkpt lat="44.12314" lon="5.84546">
        <ele>1001</ele>
        <time>2019-08-09T08:02:05Z</time>
      </trkpt>
      <trkpt lat="44.12314" lon="5.84542">
        <ele>1001</ele>
        <time>2019-08-09T08:02:06Z</time>
      </trkpt>
      <trkpt lat="44.12315" lon="5.84539">
        <ele>1001</ele>
        <time>2019-08-09T08:02:07Z</time>
      </trkpt>
      <trkpt lat="44.12315" lon="5.84535">
        <ele>1001</ele>
        <time>2019-08-09T08:02:08Z</time>
      </trkpt>
      <trkpt lat="44.12315" lon="5.84531">
        <ele>1001</ele>
        <time>2019-08-09T08:02:09Z</time>
      </trkpt>
      <trkpt lat="44.12315" lon="5.84527">
        <ele>1001</ele>
        <time>2019-08-09T08:02:10Z</time>
      </trkpt>
      <trkpt lat="44.12315" lon="5.84524">
        <ele>1001</ele>
        <time>2019-08-09T08:02:11Z</time>
      </trkpt>
      <trkpt lat="44.12315" lon="5.84521">
        <ele>1001</ele>
        <time>2019-08-09T08:02:12Z</time>
      </trkpt>
      <trkpt lat="44.12314" lon="5.84517">
        <ele>1001</ele>
        <time>2019-08-09T08:02:13Z</time>
      </trkpt>
      <trkpt lat="44.12314" lon="5.84514">
        <ele>1001</ele>
        <time>2019-08-09T08:02:14Z</time>
      </trkpt>
      <trkpt lat="44.12313" lon="5.8451">
        <ele>1002</ele>
        <time>2019-08-09T08:02:15Z</time>
      </trkpt>
      <trkpt lat="44.12313" lon="5.84506">
        <ele>1002</ele>
        <time>2019-08-09T08:02:16Z</time>
      </trkpt>
      <trkpt lat="44.12312" lon="5.84501">
        <ele>1003</ele>
        <time>2019-08-09T08:02:17Z</time>
      </trkpt>
      <trkpt lat="44.12311" lon="5.84497">
        <ele>1003</ele>
        <time>2019-08-09T08:02:18Z</time>
      </trkpt>
      <trkpt lat="44.1231" lon="5.84493">
        <ele>1003</ele>
        <time>2019-08-09T08:02:19Z</time>
      </trkpt>
      <trkpt lat="44.12311" lon="5.8449">
        <ele>1003</ele>
        <time>2019-08-09T08:02:20Z</time>
      </trkpt>
      <trkpt lat="44.12311" lon="5.84486">
        <ele>1003</ele>
        <time>2019-08-09T08:02:21Z</time>
      </trkpt>
      <trkpt lat="44.12311" lon="5.84484">
        <ele>1004</ele>
        <time>2019-08-09T08:02:22Z</time>
      </trkpt>
      <trkpt lat="44.12312" lon="5.84482">
        <ele>1005</ele>
        <time>2019-08-09T08:02:23Z</time>
      </trkpt>
      <trkpt lat="44.12312" lon="5.84479">
        <ele>1005</ele>
        <time>2019-08-09T08:02:24Z</time>
      </trkpt>
      <trkpt lat="44.12312" lon="5.84476">
        <ele>1006</ele>
        <time>2019-08-09T08:02:25Z</time>
      </trkpt>
      <trkpt lat="44.12313" lon="5.84472">
        <ele>1007</ele>
        <time>2019-08-09T08:02:26Z</time>
      </trkpt>
      <trkpt lat="44.12313" lon="5.84467">
        <ele>1007</ele>
        <time>2019-08-09T08:02:27Z</time>
      </trkpt>
      <trkpt lat="44.12313" lon="5.84462">
        <ele>1007</ele>
        <time>2019-08-09T08:02:28Z</time>
      </trkpt>
      <trkpt lat="44.12314" lon="5.84458">
        <ele>1007</ele>
        <time>2019-08-09T08:02:29Z</time>
      </trkpt>
      <trkpt lat="44.12314" lon="5.84454">
        <ele>1007</ele>
        <time>2019-08-09T08:02:30Z</time>
      </trkpt>
      <trkpt lat="44.12315" lon="5.8445">
        <ele>1007</ele>
        <time>2019-08-09T08:02:31Z</time>
      </trkpt>
      <trkpt lat="44.12316" lon="5.84448">
        <ele>1007</ele>
        <time>2019-08-09T08:02:32Z</time>
      </trkpt>
      <trkpt lat="44.12318" lon="5.84445">
        <ele>1007</ele>
        <time>2019-08-09T08:02:33Z</time>
      </trkpt>
      <trkpt lat="44.12319" lon="5.84442">
        <ele>1007</ele>
        <time>2019-08-09T08:02:34Z</time>
      </trkpt>
      <trkpt lat="44.1232" lon="5.84438">
        <ele>1007</ele>
        <time>2019-08-09T08:02:35Z</time>
      </trkpt>
      <trkpt lat="44.12321" lon="5.84434">
        <ele>1007</ele>
        <time>2019-08-09T08:02:36Z</time>
      </trkpt>
      <trkpt lat="44.12322" lon="5.8443">
        <ele>1007</ele>
        <time>2019-08-09T08:02:37Z</time>
      </trkpt>
      <trkpt lat="44.12323" lon="5.84426">
        <ele>1007</ele>
        <time>2019-08-09T08:02:38Z</time>
      </trkpt>
      <trkpt lat="44.12324" lon="5.84422">
        <ele>1007</ele>
        <time>2019-08-09T08:02:39Z</time>
      </trkpt>
      <trkpt lat="44.12325" lon="5.84419">
        <ele>1007</ele>
        <time>2019-08-09T08:02:40Z</time>
      </trkpt>
      <trkpt lat="44.12326" lon="5.84415">
        <ele>1007</ele>
        <time>2019-08-09T08:02:41Z</time>
      </trkpt>
      <trkpt lat="44.12328" lon="5.84411">
        <ele>1007</ele>
        <time>2019-08-09T08:02:42Z</time>
      </trkpt>
      <trkpt lat="44.12329" lon="5.84405">
        <ele>1007</ele>
        <time>2019-08-09T08:02:43Z</time>
      </trkpt>
      <trkpt lat="44.1233" lon="5.84401">
        <ele>1007</ele>
        <time>2019-08-09T08:02:44Z</time>
      </trkpt>
      <trkpt lat="44.12331" lon="5.84396">
        <ele>1007</ele>
        <time>2019-08-09T08:02:45Z</time>
      </trkpt>
      <trkpt lat="44.12333" lon="5.84392">
        <ele>1007</ele>
        <time>2019-08-09T08:02:46Z</time>
      </trkpt>
      <trkpt lat="44.12334" lon="5.84388">
        <ele>1007</ele>
        <time>2019-08-09T08:02:47Z</time>
      </trkpt>
      <trkpt lat="44.12336" lon="5.84384">
        <ele>1007</ele>
        <time>2019-08-09T08:02:48Z</time>
      </trkpt>
      <trkpt lat="44.12337" lon="5.8438">
        <ele>1007</ele>
        <time>2019-08-09T08:02:49Z</time>
      </trkpt>
      <trkpt lat="44.12338" lon="5.84376">
        <ele>1007</ele>
        <time>2019-08-09T08:02:50Z</time>
      </trkpt>
      <trkpt lat="44.12339" lon="5.84371">
        <ele>1007</ele>
        <time>2019-08-09T08:02:51Z</time>
      </trkpt>
      <trkpt lat="44.1234" lon="5.84367">
        <ele>1007</ele>
        <time>2019-08-09T08:02:52Z</time>
      </trkpt>
      <trkpt lat="44.12341" lon="5.84363">
        <ele>1007</ele>
        <time>2019-08-09T08:02:53Z</time>
      </trkpt>
      <trkpt lat="44.12342" lon="5.84358">
        <ele>1007</ele>
        <time>2019-08-09T08:02:54Z</time>
      </trkpt>
      <trkpt lat="44.12343" lon="5.84354">
        <ele>1007</ele>
        <time>2019-08-09T08:02:55Z</time>
      </trkpt>
      <trkpt lat="44.12344" lon="5.8435">
        <ele>1007</ele>
        <time>2019-08-09T08:02:56Z</time>
      </trkpt>
      <trkpt lat="44.12345" lon="5.84346">
        <ele>1007</ele>
        <time>2019-08-09T08:02:57Z</time>
      </trkpt>
      <trkpt lat="44.12346" lon="5.84342">
        <ele>1007</ele>
        <time>2019-08-09T08:02:58Z</time>
      </trkpt>
      <trkpt lat="44.12347" lon="5.84339">
        <ele>1007</ele>
        <time>2019-08-09T08:02:59Z</time>
      </trkpt>
      <trkpt lat="44.12348" lon="5.84335">
        <ele>1007</ele>
        <time>2019-08-09T08:03:00Z</time>
      </trkpt>
      <trkpt lat="44.12349" lon="5.84331">
        <ele>1007</ele>
        <time>2019-08-09T08:03:01Z</time>
      </trkpt>
      <trkpt lat="44.1235" lon="5.84326">
        <ele>1007</ele>
        <time>2019-08-09T08:03:02Z</time>
      </trkpt>
      <trkpt lat="44.12352" lon="5.84323">
        <ele>1007</ele>
        <time>2019-08-09T08:03:03Z</time>
      </trkpt>
      <trkpt lat="44.12353" lon="5.84319">
        <ele>1007</ele>
        <time>2019-08-09T08:03:04Z</time>
      </trkpt>
      <trkpt lat="44.12354" lon="5.84314">
        <ele>1007</ele>
        <time>2019-08-09T08:03:05Z</time>
      </trkpt>
      <trkpt lat="44.12355" lon="5.8431">
        <ele>1007</ele>
        <time>2019-08-09T08:03:06Z</time>
      </trkpt>
      <trkpt lat="44.12355" lon="5.84304">
        <ele>1007</ele>
        <time>2019-08-09T08:03:07Z</time>
      </trkpt>
      <trkpt lat="44.12356" lon="5.84299">
        <ele>1007</ele>
        <time>2019-08-09T08:03:08Z</time>
      </trkpt>
      <trkpt lat="44.12357" lon="5.84295">
        <ele>1007</ele>
        <time>2019-08-09T08:03:09Z</time>
      </trkpt>
      <trkpt lat="44.12357" lon="5.8429">
        <ele>1007</ele>
        <time>2019-08-09T08:03:10Z</time>
      </trkpt>
      <trkpt lat="44.12357" lon="5.84285">
        <ele>1007</ele>
        <time>2019-08-09T08:03:11Z</time>
      </trkpt>
      <trkpt lat="44.12358" lon="5.8428">
        <ele>1007</ele>
        <time>2019-08-09T08:03:12Z</time>
      </trkpt>
      <trkpt lat="44.12359" lon="5.84274">
        <ele>1007</ele>
        <time>2019-08-09T08:03:13Z</time>
      </trkpt>
      <trkpt lat="44.1236" lon="5.84271">
        <ele>1007</ele>
        <time>2019-08-09T08:03:14Z</time>
      </trkpt>
      <trkpt lat="44.12363" lon="5.84267">
        <ele>1007</ele>
        <time>2019-08-09T08:03:15Z</time>
      </trkpt>
      <trkpt lat="44.12365" lon="5.84265">
        <ele>1007</ele>
        <time>2019-08-09T08:03:16Z</time>
      </trkpt>
      <trkpt lat="44.12367" lon="5.84263">
        <ele>1007</ele>
        <time>2019-08-09T08:03:17Z</time>
      </trkpt>
      <trkpt lat="44.1237" lon="5.84262">
        <ele>1007</ele>
        <time>2019-08-09T08:03:18Z</time>
      </trkpt>
      <trkpt lat="44.12372" lon="5.8426">
        <ele>1007</ele>
        <time>2019-08-09T08:03:19Z</time>
      </trkpt>
      <trkpt lat="44.12375" lon="5.84259">
        <ele>1007</ele>
        <time>2019-08-09T08:03:20Z</time>
      </trkpt>
      <trkpt lat="44.12378" lon="5.84258">
        <ele>1007</ele>
        <time>2019-08-09T08:03:21Z</time>
      </trkpt>
      <trkpt lat="44.12381" lon="5.84258">
        <ele>1007</ele>
        <time>2019-08-09T08:03:22Z</time>
      </trkpt>
      <trkpt lat="44.12384" lon="5.84258">
        <ele>1007</ele>
        <time>2019-08-09T08:03:23Z</time>
      </trkpt>
      <trkpt lat="44.12386" lon="5.84259">
        <ele>1007</ele>
        <time>2019-08-09T08:03:24Z</time>
      </trkpt>
      <trkpt lat="44.12389" lon="5.84261">
        <ele>1007</ele>
        <time>2019-08-09T08:03:25Z</time>
      </trkpt>
      <trkpt lat="44.12391" lon="5.84264">
        <ele>1008</ele>
        <time>2019-08-09T08:03:26Z</time>
      </trkpt>
      <trkpt lat="44.12392" lon="5.84266">
        <ele>1008</ele>
        <time>2019-08-09T08:03:27Z</time>
      </trkpt>
      <trkpt lat="44.12394" lon="5.8427">
        <ele>1009</ele>
        <time>2019-08-09T08:03:28Z</time>
      </trkpt>
      <trkpt lat="44.12395" lon="5.84274">
        <ele>1009</ele>
        <time>2019-08-09T08:03:29Z</time>
      </trkpt>
      <trkpt lat="44.12396" lon="5.84278">
        <ele>1010</ele>
        <time>2019-08-09T08:03:30Z</time>
      </trkpt>
      <trkpt lat="44.12398" lon="5.84281">
        <ele>1011</ele>
        <time>2019-08-09T08:03:31Z</time>
      </trkpt>
      <trkpt lat="44.12399" lon="5.84284">
        <ele>1012</ele>
        <time>2019-08-09T08:03:32Z</time>
      </trkpt>
      <trkpt lat="44.124" lon="5.84288">
        <ele>1012</ele>
        <time>2019-08-09T08:03:33Z</time>
      </trkpt>
      <trkpt lat="44.12402" lon="5.84292">
        <ele>1013</ele>
        <time>2019-08-09T08:03:34Z</time>
      </trkpt>
      <trkpt lat="44.12405" lon="5.84297">
        <ele>1014</ele>
        <time>2019-08-09T08:03:35Z</time>
      </trkpt>
      <trkpt lat="44.12407" lon="5.843">
        <ele>1015</ele>
        <time>2019-08-09T08:03:36Z</time>
      </trkpt>
      <trkpt lat="44.12408" lon="5.84303">
        <ele>1016</ele>
        <time>2019-08-09T08:03:37Z</time>
      </trkpt>
      <trkpt lat="44.1241" lon="5.84306">
        <ele>1016</ele>
        <time>2019-08-09T08:03:38Z</time>
      </trkpt>
      <trkpt lat="44.12411" lon="5.8431">
        <ele>1017</ele>
        <time>2019-08-09T08:03:39Z</time>
      </trkpt>
      <trkpt lat="44.12412" lon="5.84313">
        <ele>1018</ele>
        <time>2019-08-09T08:03:40Z</time>
      </trkpt>
      <trkpt lat="44.12413" lon="5.84316">
        <ele>1018</ele>
        <time>2019-08-09T08:03:41Z</time>
      </trkpt>
      <trkpt lat="44.12414" lon="5.84319">
        <ele>1019</ele>
        <time>2019-08-09T08:03:42Z</time>
      </trkpt>
      <trkpt lat="44.12415" lon="5.84323">
        <ele>1020</ele>
        <time>2019-08-09T08:03:43Z</time>
      </trkpt>
      <trkpt lat="44.12416" lon="5.84326">
        <ele>1021</ele>
        <time>2019-08-09T08:03:44Z</time>
      </trkpt>
      <trkpt lat="44.12418" lon="5.84329">
        <ele>1022</ele>
        <time>2019-08-09T08:03:45Z</time>
      </trkpt>
      <trkpt lat="44.12419" lon="5.84332">
        <ele>1023</ele>
        <time>2019-08-09T08:03:46Z</time>
      </trkpt>
      <trkpt lat="44.1242" lon="5.84335">
        <ele>1023</ele>
        <time>2019-08-09T08:03:47Z</time>
      </trkpt>
      <trkpt lat="44.12421" lon="5.84338">
        <ele>1023</ele>
        <time>2019-08-09T08:03:48Z</time>
      </trkpt>
      <trkpt lat="44.12423" lon="5.84341">
        <ele>1023</ele>
        <time>2019-08-09T08:03:49Z</time>
      </trkpt>
      <trkpt lat="44.12423" lon="5.84344">
        <ele>1023</ele>
        <time>2019-08-09T08:03:50Z</time>
      </trkpt>
      <trkpt lat="44.12425" lon="5.84347">
        <ele>1023</ele>
        <time>2019-08-09T08:03:51Z</time>
      </trkpt>
      <trkpt lat="44.12426" lon="5.84349">
        <ele>1023</ele>
        <time>2019-08-09T08:03:52Z</time>
      </trkpt>
      <trkpt lat="44.12428" lon="5.84352">
        <ele>1023</ele>
        <time>2019-08-09T08:03:53Z</time>
      </trkpt>
      <trkpt lat="44.12431" lon="5.84356">
        <ele>1023</ele>
        <time>2019-08-09T08:03:54Z</time>
      </trkpt>
      <trkpt lat="44.12433" lon="5.8436">
        <ele>1023</ele>
        <time>2019-08-09T08:03:55Z</time>
      </trkpt>
      <trkpt lat="44.12434" lon="5.84363">
        <ele>1023</ele>
        <time>2019-08-09T08:03:56Z</time>
      </trkpt>
      <trkpt lat="44.12436" lon="5.84366">
        <ele>1023</ele>
        <time>2019-08-09T08:03:57Z</time>
      </trkpt>
      <trkpt lat="44.12437" lon="5.84368">
        <ele>1024</ele>
        <time>2019-08-09T08:03:58Z</time>
      </trkpt>
      <trkpt lat="44.12439" lon="5.8437">
        <ele>1024</ele>
        <time>2019-08-09T08:03:59Z</time>
      </trkpt>
      <trkpt lat="44.12441" lon="5.84372">
        <ele>1024</ele>
        <time>2019-08-09T08:04:00Z</time>
      </trkpt>
      <trkpt lat="44.12442" lon="5.84375">
        <ele>1024</ele>
        <time>2019-08-09T08:04:01Z</time>
      </trkpt>
      <trkpt lat="44.12444" lon="5.84378">
        <ele>1024</ele>
        <time>2019-08-09T08:04:02Z</time>
      </trkpt>
      <trkpt lat="44.12446" lon="5.84381">
        <ele>1024</ele>
        <time>2019-08-09T08:04:03Z</time>
      </trkpt>
      <trkpt lat="44.12447" lon="5.84383">
        <ele>1024</ele>
        <time>2019-08-09T08:04:04Z</time>
      </trkpt>
      <trkpt lat="44.12449" lon="5.84385">
        <ele>1024</ele>
        <time>2019-08-09T08:04:05Z</time>
      </trkpt>
      <trkpt lat="44.12451" lon="5.84388">
        <ele>1024</ele>
        <time>2019-08-09T08:04:06Z</time>
      </trkpt>
      <trkpt lat="44.12453" lon="5.84391">
        <ele>1024</ele>
        <time>2019-08-09T08:04:07Z</time>
      </trkpt>
      <trkpt lat="44.12456" lon="5.84394">
        <ele>1024</ele>
        <time>2019-08-09T08:04:08Z</time>
      </trkpt>
      <trkpt lat="44.12458" lon="5.84396">
        <ele>1024</ele>
        <time>2019-08-09T08:04:09Z</time>
      </trkpt>
      <trkpt lat="44.12459" lon="5.84398">
        <ele>1024</ele>
        <time>2019-08-09T08:04:10Z</time>
      </trkpt>
      <trkpt lat="44.12461" lon="5.844">
        <ele>1024</ele>
        <time>2019-08-09T08:04:11Z</time>
      </trkpt>
      <trkpt lat="44.12462" lon="5.84403">
        <ele>1024</ele>
        <time>2019-08-09T08:04:12Z</time>
      </trkpt>
      <trkpt lat="44.12464" lon="5.84405">
        <ele>1024</ele>
        <time>2019-08-09T08:04:13Z</time>
      </trkpt>
      <trkpt lat="44.12466" lon="5.84407">
        <ele>1024</ele>
        <time>2019-08-09T08:04:14Z</time>
      </trkpt>
      <trkpt lat="44.12468" lon="5.8441">
        <ele>1024</ele>
        <time>2019-08-09T08:04:15Z</time>
      </trkpt>
      <trkpt lat="44.12469" lon="5.84412">
        <ele>1024</ele>
        <time>2019-08-09T08:04:16Z</time>
      </trkpt>
      <trkpt lat="44.12471" lon="5.84415">
        <ele>1024</ele>
        <time>2019-08-09T08:04:17Z</time>
      </trkpt>
      <trkpt lat="44.12473" lon="5.84417">
        <ele>1024</ele>
        <time>2019-08-09T08:04:18Z</time>
      </trkpt>
      <trkpt lat="44.12475" lon="5.8442">
        <ele>1025</ele>
        <time>2019-08-09T08:04:20Z</time>
      </trkpt>
      <trkpt lat="44.12476" lon="5.84422">
        <ele>1025</ele>
        <time>2019-08-09T08:04:21Z</time>
      </trkpt>
      <trkpt lat="44.12478" lon="5.84424">
        <ele>1026</ele>
        <time>2019-08-09T08:04:22Z</time>
      </trkpt>
      <trkpt lat="44.1248" lon="5.84426">
        <ele>1026</ele>
        <time>2019-08-09T08:04:23Z</time>
      </trkpt>
      <trkpt lat="44.12482" lon="5.84428">
        <ele>1026</ele>
        <time>2019-08-09T08:04:24Z</time>
      </trkpt>
      <trkpt lat="44.12484" lon="5.8443">
        <ele>1026</ele>
        <time>2019-08-09T08:04:25Z</time>
      </trkpt>
      <trkpt lat="44.12487" lon="5.84433">
        <ele>1027</ele>
        <time>2019-08-09T08:04:26Z</time>
      </trkpt>
      <trkpt lat="44.12489" lon="5.84435">
        <ele>1027</ele>
        <time>2019-08-09T08:04:27Z</time>
      </trkpt>
      <trkpt lat="44.12491" lon="5.84438">
        <ele>1027</ele>
        <time>2019-08-09T08:04:28Z</time>
      </trkpt>
      <trkpt lat="44.12493" lon="5.8444">
        <ele>1027</ele>
        <time>2019-08-09T08:04:29Z</time>
      </trkpt>
      <trkpt lat="44.12496" lon="5.84442">
        <ele>1028</ele>
        <time>2019-08-09T08:04:30Z</time>
      </trkpt>
      <trkpt lat="44.12499" lon="5.84444">
        <ele>1029</ele>
        <time>2019-08-09T08:04:31Z</time>
      </trkpt>
      <trkpt lat="44.12502" lon="5.84446">
        <ele>1029</ele>
        <time>2019-08-09T08:04:32Z</time>
      </trkpt>
      <trkpt lat="44.12504" lon="5.84447">
        <ele>1030</ele>
        <time>2019-08-09T08:04:33Z</time>
      </trkpt>
      <trkpt lat="44.12506" lon="5.8445">
        <ele>1030</ele>
        <time>2019-08-09T08:04:34Z</time>
      </trkpt>
      <trkpt lat="44.12508" lon="5.8445">
        <ele>1030</ele>
        <time>2019-08-09T08:04:35Z</time>
      </trkpt>
      <trkpt lat="44.12511" lon="5.84452">
        <ele>1031</ele>
        <time>2019-08-09T08:04:36Z</time>
      </trkpt>
      <trkpt lat="44.12513" lon="5.84453">
        <ele>1032</ele>
        <time>2019-08-09T08:04:37Z</time>
      </trkpt>
      <trkpt lat="44.12516" lon="5.84454">
        <ele>1033</ele>
        <time>2019-08-09T08:04:38Z</time>
      </trkpt>
      <trkpt lat="44.12518" lon="5.84454">
        <ele>1033</ele>
        <time>2019-08-09T08:04:39Z</time>
      </trkpt>
      <trkpt lat="44.12521" lon="5.84453">
        <ele>1034</ele>
        <time>2019-08-09T08:04:40Z</time>
      </trkpt>
      <trkpt lat="44.12524" lon="5.84452">
        <ele>1034</ele>
        <time>2019-08-09T08:04:41Z</time>
      </trkpt>
      <trkpt lat="44.12526" lon="5.84451">
        <ele>1034</ele>
        <time>2019-08-09T08:04:42Z</time>
      </trkpt>
      <trkpt lat="44.12528" lon="5.84449">
        <ele>1035</ele>
        <time>2019-08-09T08:04:43Z</time>
      </trkpt>
      <trkpt lat="44.12529" lon="5.84446">
        <ele>1035</ele>
        <time>2019-08-09T08:04:44Z</time>
      </trkpt>
      <trkpt lat="44.12531" lon="5.84444">
        <ele>1036</ele>
        <time>2019-08-09T08:04:45Z</time>
      </trkpt>
      <trkpt lat="44.12532" lon="5.84441">
        <ele>1036</ele>
        <time>2019-08-09T08:04:46Z</time>
      </trkpt>
      <trkpt lat="44.12532" lon="5.84437">
        <ele>1037</ele>
        <time>2019-08-09T08:04:47Z</time>
      </trkpt>
      <trkpt lat="44.12533" lon="5.84432">
        <ele>1037</ele>
        <time>2019-08-09T08:04:48Z</time>
      </trkpt>
      <trkpt lat="44.12534" lon="5.84429">
        <ele>1038</ele>
        <time>2019-08-09T08:04:49Z</time>
      </trkpt>
      <trkpt lat="44.12534" lon="5.84425">
        <ele>1038</ele>
        <time>2019-08-09T08:04:50Z</time>
      </trkpt>
      <trkpt lat="44.12535" lon="5.84421">
        <ele>1038</ele>
        <time>2019-08-09T08:04:51Z</time>
      </trkpt>
      <trkpt lat="44.12536" lon="5.84418">
        <ele>1038</ele>
        <time>2019-08-09T08:04:52Z</time>
      </trkpt>
      <trkpt lat="44.12536" lon="5.84414">
        <ele>1038</ele>
        <time>2019-08-09T08:04:53Z</time>
      </trkpt>
      <trkpt lat="44.12536" lon="5.84411">
        <ele>1038</ele>
        <time>2019-08-09T08:04:54Z</time>
      </trkpt>
      <trkpt lat="44.12536" lon="5.84408">
        <ele>1038</ele>
        <time>2019-08-09T08:04:55Z</time>
      </trkpt>
      <trkpt lat="44.12535" lon="5.84405">
        <ele>1038</ele>
        <time>2019-08-09T08:04:56Z</time>
      </trkpt>
      <trkpt lat="44.12532" lon="5.84404">
        <ele>1039</ele>
        <time>2019-08-09T08:04:58Z</time>
      </trkpt>
      <trkpt lat="44.12529" lon="5.84405">
        <ele>1039</ele>
        <time>2019-08-09T08:04:59Z</time>
      </trkpt>
      <trkpt lat="44.12527" lon="5.84406">
        <ele>1039</ele>
        <time>2019-08-09T08:05:00Z</time>
      </trkpt>
      <trkpt lat="44.12525" lon="5.84407">
        <ele>1039</ele>
        <time>2019-08-09T08:05:01Z</time>
      </trkpt>
      <trkpt lat="44.12523" lon="5.84409">
        <ele>1039</ele>
        <time>2019-08-09T08:05:02Z</time>
      </trkpt>
      <trkpt lat="44.12522" lon="5.84411">
        <ele>1039</ele>
        <time>2019-08-09T08:05:03Z</time>
      </trkpt>
      <trkpt lat="44.12521" lon="5.84413">
        <ele>1039</ele>
        <time>2019-08-09T08:05:04Z</time>
      </trkpt>
      <trkpt lat="44.12519" lon="5.84415">
        <ele>1039</ele>
        <time>2019-08-09T08:05:05Z</time>
      </trkpt>
      <trkpt lat="44.12518" lon="5.84417">
        <ele>1039</ele>
        <time>2019-08-09T08:05:06Z</time>
      </trkpt>
      <trkpt lat="44.12515" lon="5.84418">
        <ele>1039</ele>
        <time>2019-08-09T08:05:07Z</time>
      </trkpt>
      <trkpt lat="44.12513" lon="5.84419">
        <ele>1039</ele>
        <time>2019-08-09T08:05:08Z</time>
      </trkpt>
      <trkpt lat="44.1251" lon="5.84418">
        <ele>1039</ele>
        <time>2019-08-09T08:05:09Z</time>
      </trkpt>
      <trkpt lat="44.12508" lon="5.84417">
        <ele>1039</ele>
        <time>2019-08-09T08:05:10Z</time>
      </trkpt>
      <trkpt lat="44.12505" lon="5.84415">
        <ele>1039</ele>
        <time>2019-08-09T08:05:11Z</time>
      </trkpt>
      <trkpt lat="44.12504" lon="5.84413">
        <ele>1039</ele>
        <time>2019-08-09T08:05:12Z</time>
      </trkpt>
      <trkpt lat="44.12502" lon="5.8441">
        <ele>1039</ele>
        <time>2019-08-09T08:05:13Z</time>
      </trkpt>
      <trkpt lat="44.125" lon="5.84407">
        <ele>1039</ele>
        <time>2019-08-09T08:05:14Z</time>
      </trkpt>
      <trkpt lat="44.12498" lon="5.84404">
        <ele>1039</ele>
        <time>2019-08-09T08:05:15Z</time>
      </trkpt>
      <trkpt lat="44.12497" lon="5.84401">
        <ele>1039</ele>
        <time>2019-08-09T08:05:16Z</time>
      </trkpt>
      <trkpt lat="44.12496" lon="5.84398">
        <ele>1039</ele>
        <time>2019-08-09T08:05:17Z</time>
      </trkpt>
      <trkpt lat="44.12495" lon="5.84395">
        <ele>1039</ele>
        <time>2019-08-09T08:05:18Z</time>
      </trkpt>
      <trkpt lat="44.12494" lon="5.84393">
        <ele>1039</ele>
        <time>2019-08-09T08:05:19Z</time>
      </trkpt>
      <trkpt lat="44.12493" lon="5.8439">
        <ele>1039</ele>
        <time>2019-08-09T08:05:20Z</time>
      </trkpt>
      <trkpt lat="44.12492" lon="5.84388">
        <ele>1039</ele>
        <time>2019-08-09T08:05:21Z</time>
      </trkpt>
      <trkpt lat="44.12492" lon="5.84385">
        <ele>1039</ele>
        <time>2019-08-09T08:05:22Z</time>
      </trkpt>
      <trkpt lat="44.1249" lon="5.84382">
        <ele>1039</ele>
        <time>2019-08-09T08:05:23Z</time>
      </trkpt>
      <trkpt lat="44.12489" lon="5.8438">
        <ele>1039</ele>
        <time>2019-08-09T08:05:24Z</time>
      </trkpt>
      <trkpt lat="44.12488" lon="5.84377">
        <ele>1039</ele>
        <time>2019-08-09T08:05:25Z</time>
      </trkpt>
      <trkpt lat="44.12486" lon="5.84374">
        <ele>1039</ele>
        <time>2019-08-09T08:05:26Z</time>
      </trkpt>
      <trkpt lat="44.12485" lon="5.84371">
        <ele>1039</ele>
        <time>2019-08-09T08:05:27Z</time>
      </trkpt>
      <trkpt lat="44.12485" lon="5.84368">
        <ele>1039</ele>
        <time>2019-08-09T08:05:28Z</time>
      </trkpt>
      <trkpt lat="44.12483" lon="5.84365">
        <ele>1039</ele>
        <time>2019-08-09T08:05:29Z</time>
      </trkpt>
      <trkpt lat="44.12482" lon="5.84363">
        <ele>1039</ele>
        <time>2019-08-09T08:05:30Z</time>
      </trkpt>
      <trkpt lat="44.12481" lon="5.8436">
        <ele>1039</ele>
        <time>2019-08-09T08:05:31Z</time>
      </trkpt>
      <trkpt lat="44.1248" lon="5.84357">
        <ele>1039</ele>
        <time>2019-08-09T08:05:32Z</time>
      </trkpt>
      <trkpt lat="44.1248" lon="5.84355">
        <ele>1039</ele>
        <time>2019-08-09T08:05:33Z</time>
      </trkpt>
      <trkpt lat="44.12479" lon="5.84353">
        <ele>1039</ele>
        <time>2019-08-09T08:05:34Z</time>
      </trkpt>
      <trkpt lat="44.12477" lon="5.8435">
        <ele>1039</ele>
        <time>2019-08-09T08:05:35Z</time>
      </trkpt>
      <trkpt lat="44.12476" lon="5.84348">
        <ele>1039</ele>
        <time>2019-08-09T08:05:36Z</time>
      </trkpt>
      <trkpt lat="44.12476" lon="5.84347">
        <ele>1039</ele>
        <time>2019-08-09T08:05:37Z</time>
      </trkpt>
      <trkpt lat="44.12475" lon="5.84345">
        <ele>1039</ele>
        <time>2019-08-09T08:05:38Z</time>
      </trkpt>
      <trkpt lat="44.12474" lon="5.84342">
        <ele>1039</ele>
        <time>2019-08-09T08:05:39Z</time>
      </trkpt>
      <trkpt lat="44.12473" lon="5.8434">
        <ele>1039</ele>
        <time>2019-08-09T08:05:40Z</time>
      </trkpt>
      <trkpt lat="44.12471" lon="5.84337">
        <ele>1039</ele>
        <time>2019-08-09T08:05:41Z</time>
      </trkpt>
      <trkpt lat="44.1247" lon="5.84334">
        <ele>1039</ele>
        <time>2019-08-09T08:05:42Z</time>
      </trkpt>
      <trkpt lat="44.12469" lon="5.84331">
        <ele>1039</ele>
        <time>2019-08-09T08:05:43Z</time>
      </trkpt>
      <trkpt lat="44.12468" lon="5.84328">
        <ele>1039</ele>
        <time>2019-08-09T08:05:44Z</time>
      </trkpt>
      <trkpt lat="44.12467" lon="5.84325">
        <ele>1039</ele>
        <time>2019-08-09T08:05:45Z</time>
      </trkpt>
      <trkpt lat="44.12467" lon="5.84321">
        <ele>1039</ele>
        <time>2019-08-09T08:05:46Z</time>
      </trkpt>
      <trkpt lat="44.12467" lon="5.84318">
        <ele>1039</ele>
        <time>2019-08-09T08:05:47Z</time>
      </trkpt>
      <trkpt lat="44.12466" lon="5.84314">
        <ele>1039</ele>
        <time>2019-08-09T08:05:48Z</time>
      </trkpt>
      <trkpt lat="44.12465" lon="5.84312">
        <ele>1039</ele>
        <time>2019-08-09T08:05:49Z</time>
      </trkpt>
      <trkpt lat="44.12465" lon="5.84309">
        <ele>1039</ele>
        <time>2019-08-09T08:05:50Z</time>
      </trkpt>
      <trkpt lat="44.12463" lon="5.84305">
        <ele>1040</ele>
        <time>2019-08-09T08:05:51Z</time>
      </trkpt>
      <trkpt lat="44.12463" lon="5.84302">
        <ele>1040</ele>
        <time>2019-08-09T08:05:52Z</time>
      </trkpt>
      <trkpt lat="44.12462" lon="5.84299">
        <ele>1040</ele>
        <time>2019-08-09T08:05:53Z</time>
      </trkpt>
      <trkpt lat="44.12462" lon="5.84296">
        <ele>1040</ele>
        <time>2019-08-09T08:05:54Z</time>
      </trkpt>
      <trkpt lat="44.12462" lon="5.84293">
        <ele>1041</ele>
        <time>2019-08-09T08:05:55Z</time>
      </trkpt>
      <trkpt lat="44.12461" lon="5.84289">
        <ele>1041</ele>
        <time>2019-08-09T08:05:56Z</time>
      </trkpt>
      <trkpt lat="44.12461" lon="5.84286">
        <ele>1041</ele>
        <time>2019-08-09T08:05:57Z</time>
      </trkpt>
      <trkpt lat="44.12461" lon="5.84284">
        <ele>1041</ele>
        <time>2019-08-09T08:05:58Z</time>
      </trkpt>
      <trkpt lat="44.12461" lon="5.84281">
        <ele>1041</ele>
        <time>2019-08-09T08:05:59Z</time>
      </trkpt>
      <trkpt lat="44.1246" lon="5.84278">
        <ele>1041</ele>
        <time>2019-08-09T08:06:00Z</time>
      </trkpt>
      <trkpt lat="44.12459" lon="5.84274">
        <ele>1042</ele>
        <time>2019-08-09T08:06:01Z</time>
      </trkpt>
      <trkpt lat="44.12459" lon="5.8427">
        <ele>1042</ele>
        <time>2019-08-09T08:06:02Z</time>
      </trkpt>
      <trkpt lat="44.12458" lon="5.84267">
        <ele>1042</ele>
        <time>2019-08-09T08:06:03Z</time>
      </trkpt>
      <trkpt lat="44.12458" lon="5.84264">
        <ele>1043</ele>
        <time>2019-08-09T08:06:04Z</time>
      </trkpt>
      <trkpt lat="44.12458" lon="5.84261">
        <ele>1043</ele>
        <time>2019-08-09T08:06:05Z</time>
      </trkpt>
      <trkpt lat="44.12458" lon="5.84257">
        <ele>1043</ele>
        <time>2019-08-09T08:06:06Z</time>
      </trkpt>
      <trkpt lat="44.12458" lon="5.84255">
        <ele>1044</ele>
        <time>2019-08-09T08:06:07Z</time>
      </trkpt>
      <trkpt lat="44.12457" lon="5.84251">
        <ele>1045</ele>
        <time>2019-08-09T08:06:08Z</time>
      </trkpt>
      <trkpt lat="44.12457" lon="5.84247">
        <ele>1045</ele>
        <time>2019-08-09T08:06:09Z</time>
      </trkpt>
      <trkpt lat="44.12456" lon="5.84244">
        <ele>1045</ele>
        <time>2019-08-09T08:06:10Z</time>
      </trkpt>
      <trkpt lat="44.12456" lon="5.84241">
        <ele>1046</ele>
        <time>2019-08-09T08:06:11Z</time>
      </trkpt>
      <trkpt lat="44.12456" lon="5.84238">
        <ele>1046</ele>
        <time>2019-08-09T08:06:12Z</time>
      </trkpt>
      <trkpt lat="44.12455" lon="5.84235">
        <ele>1046</ele>
        <time>2019-08-09T08:06:13Z</time>
      </trkpt>
      <trkpt lat="44.12456" lon="5.84233">
        <ele>1047</ele>
        <time>2019-08-09T08:06:14Z</time>
      </trkpt>
      <trkpt lat="44.12456" lon="5.8423">
        <ele>1047</ele>
        <time>2019-08-09T08:06:15Z</time>
      </trkpt>
      <trkpt lat="44.12456" lon="5.84227">
        <ele>1048</ele>
        <time>2019-08-09T08:06:16Z</time>
      </trkpt>
      <trkpt lat="44.12456" lon="5.84224">
        <ele>1049</ele>
        <time>2019-08-09T08:06:17Z</time>
      </trkpt>
      <trkpt lat="44.12455" lon="5.8422">
        <ele>1050</ele>
        <time>2019-08-09T08:06:18Z</time>
      </trkpt>
      <trkpt lat="44.12454" lon="5.84215">
        <ele>1051</ele>
        <time>2019-08-09T08:06:19Z</time>
      </trkpt>
      <trkpt lat="44.12453" lon="5.8421">
        <ele>1052</ele>
        <time>2019-08-09T08:06:20Z</time>
      </trkpt>
      <trkpt lat="44.12453" lon="5.84205">
        <ele>1052</ele>
        <time>2019-08-09T08:06:21Z</time>
      </trkpt>
      <trkpt lat="44.12452" lon="5.84201">
        <ele>1052</ele>
        <time>2019-08-09T08:06:22Z</time>
      </trkpt>
      <trkpt lat="44.12451" lon="5.84197">
        <ele>1052</ele>
        <time>2019-08-09T08:06:23Z</time>
      </trkpt>
      <trkpt lat="44.1245" lon="5.84192">
        <ele>1052</ele>
        <time>2019-08-09T08:06:24Z</time>
      </trkpt>
      <trkpt lat="44.12448" lon="5.84188">
        <ele>1052</ele>
        <time>2019-08-09T08:06:25Z</time>
      </trkpt>
      <trkpt lat="44.12445" lon="5.84184">
        <ele>1052</ele>
        <time>2019-08-09T08:06:26Z</time>
      </trkpt>
      <trkpt lat="44.12443" lon="5.84179">
        <ele>1052</ele>
        <time>2019-08-09T08:06:27Z</time>
      </trkpt>
      <trkpt lat="44.12441" lon="5.84175">
        <ele>1052</ele>
        <time>2019-08-09T08:06:28Z</time>
      </trkpt>
      <trkpt lat="44.12439" lon="5.84172">
        <ele>1052</ele>
        <time>2019-08-09T08:06:29Z</time>
      </trkpt>
      <trkpt lat="44.12436" lon="5.84167">
        <ele>1052</ele>
        <time>2019-08-09T08:06:30Z</time>
      </trkpt>
      <trkpt lat="44.12433" lon="5.84163">
        <ele>1052</ele>
        <time>2019-08-09T08:06:31Z</time>
      </trkpt>
      <trkpt lat="44.1243" lon="5.84159">
        <ele>1052</ele>
        <time>2019-08-09T08:06:32Z</time>
      </trkpt>
      <trkpt lat="44.12427" lon="5.84155">
        <ele>1052</ele>
        <time>2019-08-09T08:06:33Z</time>
      </trkpt>
      <trkpt lat="44.12424" lon="5.8415">
        <ele>1052</ele>
        <time>2019-08-09T08:06:34Z</time>
      </trkpt>
      <trkpt lat="44.12421" lon="5.84146">
        <ele>1052</ele>
        <time>2019-08-09T08:06:35Z</time>
      </trkpt>
      <trkpt lat="44.12418" lon="5.84142">
        <ele>1052</ele>
        <time>2019-08-09T08:06:36Z</time>
      </trkpt>
      <trkpt lat="44.12415" lon="5.84138">
        <ele>1052</ele>
        <time>2019-08-09T08:06:37Z</time>
      </trkpt>
      <trkpt lat="44.12411" lon="5.84134">
        <ele>1051</ele>
        <time>2019-08-09T08:06:38Z</time>
      </trkpt>
      <trkpt lat="44.12408" lon="5.8413">
        <ele>1051</ele>
        <time>2019-08-09T08:06:39Z</time>
      </trkpt>
      <trkpt lat="44.12406" lon="5.84126">
        <ele>1050</ele>
        <time>2019-08-09T08:06:40Z</time>
      </trkpt>
      <trkpt lat="44.12403" lon="5.84122">
        <ele>1050</ele>
        <time>2019-08-09T08:06:41Z</time>
      </trkpt>
      <trkpt lat="44.124" lon="5.84118">
        <ele>1049</ele>
        <time>2019-08-09T08:06:42Z</time>
      </trkpt>
      <trkpt lat="44.12398" lon="5.84115">
        <ele>1048</ele>
        <time>2019-08-09T08:06:43Z</time>
      </trkpt>
      <trkpt lat="44.12396" lon="5.84111">
        <ele>1048</ele>
        <time>2019-08-09T08:06:44Z</time>
      </trkpt>
      <trkpt lat="44.12394" lon="5.84108">
        <ele>1048</ele>
        <time>2019-08-09T08:06:45Z</time>
      </trkpt>
      <trkpt lat="44.12391" lon="5.84105">
        <ele>1048</ele>
        <time>2019-08-09T08:06:46Z</time>
      </trkpt>
      <trkpt lat="44.12389" lon="5.84103">
        <ele>1047</ele>
        <time>2019-08-09T08:06:47Z</time>
      </trkpt>
      <trkpt lat="44.12387" lon="5.84099">
        <ele>1047</ele>
        <time>2019-08-09T08:06:48Z</time>
      </trkpt>
      <trkpt lat="44.12384" lon="5.84096">
        <ele>1047</ele>
        <time>2019-08-09T08:06:49Z</time>
      </trkpt>
      <trkpt lat="44.12382" lon="5.84093">
        <ele>1047</ele>
        <time>2019-08-09T08:06:50Z</time>
      </trkpt>
      <trkpt lat="44.1238" lon="5.8409">
        <ele>1047</ele>
        <time>2019-08-09T08:06:51Z</time>
      </trkpt>
      <trkpt lat="44.12377" lon="5.84087">
        <ele>1047</ele>
        <time>2019-08-09T08:06:52Z</time>
      </trkpt>
      <trkpt lat="44.12374" lon="5.84084">
        <ele>1047</ele>
        <time>2019-08-09T08:06:53Z</time>
      </trkpt>
      <trkpt lat="44.12371" lon="5.84081">
        <ele>1047</ele>
        <time>2019-08-09T08:06:54Z</time>
      </trkpt>
      <trkpt lat="44.12368" lon="5.84079">
        <ele>1047</ele>
        <time>2019-08-09T08:06:55Z</time>
      </trkpt>
      <trkpt lat="44.12365" lon="5.84077">
        <ele>1047</ele>
        <time>2019-08-09T08:06:56Z</time>
      </trkpt>
      <trkpt lat="44.12362" lon="5.84074">
        <ele>1047</ele>
        <time>2019-08-09T08:06:57Z</time>
      </trkpt>
      <trkpt lat="44.1236" lon="5.84071">
        <ele>1047</ele>
        <time>2019-08-09T08:06:58Z</time>
      </trkpt>
      <trkpt lat="44.12358" lon="5.84068">
        <ele>1047</ele>
        <time>2019-08-09T08:06:59Z</time>
      </trkpt>
      <trkpt lat="44.12356" lon="5.84065">
        <ele>1047</ele>
        <time>2019-08-09T08:07:00Z</time>
      </trkpt>
      <trkpt lat="44.12355" lon="5.84064">
        <ele>1047</ele>
        <time>2019-08-09T08:07:01Z</time>
      </trkpt>
      <trkpt lat="44.12353" lon="5.8406">
        <ele>1047</ele>
        <time>2019-08-09T08:07:02Z</time>
      </trkpt>
      <trkpt lat="44.12352" lon="5.84057">
        <ele>1047</ele>
        <time>2019-08-09T08:07:03Z</time>
      </trkpt>
      <trkpt lat="44.12351" lon="5.84053">
        <ele>1047</ele>
        <time>2019-08-09T08:07:04Z</time>
      </trkpt>
      <trkpt lat="44.12351" lon="5.8405">
        <ele>1048</ele>
        <time>2019-08-09T08:07:05Z</time>
      </trkpt>
      <trkpt lat="44.1235" lon="5.84048">
        <ele>1049</ele>
        <time>2019-08-09T08:07:06Z</time>
      </trkpt>
      <trkpt lat="44.12349" lon="5.84045">
        <ele>1050</ele>
        <time>2019-08-09T08:07:07Z</time>
      </trkpt>
      <trkpt lat="44.12348" lon="5.8404">
        <ele>1051</ele>
        <time>2019-08-09T08:07:08Z</time>
      </trkpt>
      <trkpt lat="44.12347" lon="5.84037">
        <ele>1052</ele>
        <time>2019-08-09T08:07:09Z</time>
      </trkpt>
      <trkpt lat="44.12347" lon="5.84033">
        <ele>1052</ele>
        <time>2019-08-09T08:07:10Z</time>
      </trkpt>
      <trkpt lat="44.12347" lon="5.84028">
        <ele>1052</ele>
        <time>2019-08-09T08:07:11Z</time>
      </trkpt>
      <trkpt lat="44.12347" lon="5.84024">
        <ele>1052</ele>
        <time>2019-08-09T08:07:12Z</time>
      </trkpt>
      <trkpt lat="44.12347" lon="5.84018">
        <ele>1053</ele>
        <time>2019-08-09T08:07:13Z</time>
      </trkpt>
      <trkpt lat="44.12349" lon="5.84013">
        <ele>1053</ele>
        <time>2019-08-09T08:07:14Z</time>
      </trkpt>
      <trkpt lat="44.1235" lon="5.84009">
        <ele>1053</ele>
        <time>2019-08-09T08:07:15Z</time>
      </trkpt>
      <trkpt lat="44.12352" lon="5.84006">
        <ele>1053</ele>
        <time>2019-08-09T08:07:16Z</time>
      </trkpt>
      <trkpt lat="44.12354" lon="5.84002">
        <ele>1054</ele>
        <time>2019-08-09T08:07:17Z</time>
      </trkpt>
      <trkpt lat="44.12356" lon="5.83998">
        <ele>1054</ele>
        <time>2019-08-09T08:07:18Z</time>
      </trkpt>
      <trkpt lat="44.12358" lon="5.83994">
        <ele>1054</ele>
        <time>2019-08-09T08:07:19Z</time>
      </trkpt>
      <trkpt lat="44.12361" lon="5.83991">
        <ele>1054</ele>
        <time>2019-08-09T08:07:20Z</time>
      </trkpt>
      <trkpt lat="44.12363" lon="5.83988">
        <ele>1054</ele>
        <time>2019-08-09T08:07:21Z</time>
      </trkpt>
      <trkpt lat="44.12366" lon="5.83985">
        <ele>1054</ele>
        <time>2019-08-09T08:07:22Z</time>
      </trkpt>
      <trkpt lat="44.12368" lon="5.83982">
        <ele>1054</ele>
        <time>2019-08-09T08:07:23Z</time>
      </trkpt>
      <trkpt lat="44.1237" lon="5.83979">
        <ele>1054</ele>
        <time>2019-08-09T08:07:24Z</time>
      </trkpt>
      <trkpt lat="44.12371" lon="5.83976">
        <ele>1054</ele>
        <time>2019-08-09T08:07:25Z</time>
      </trkpt>
      <trkpt lat="44.12373" lon="5.83972">
        <ele>1054</ele>
        <time>2019-08-09T08:07:26Z</time>
      </trkpt>
      <trkpt lat="44.12374" lon="5.83968">
        <ele>1054</ele>
        <time>2019-08-09T08:07:27Z</time>
      </trkpt>
      <trkpt lat="44.12376" lon="5.83965">
        <ele>1054</ele>
        <time>2019-08-09T08:07:28Z</time>
      </trkpt>
      <trkpt lat="44.12378" lon="5.83961">
        <ele>1054</ele>
        <time>2019-08-09T08:07:29Z</time>
      </trkpt>
      <trkpt lat="44.12379" lon="5.83956">
        <ele>1054</ele>
        <time>2019-08-09T08:07:30Z</time>
      </trkpt>
      <trkpt lat="44.12379" lon="5.83951">
        <ele>1054</ele>
        <time>2019-08-09T08:07:31Z</time>
      </trkpt>
      <trkpt lat="44.12379" lon="5.83947">
        <ele>1054</ele>
        <time>2019-08-09T08:07:32Z</time>
      </trkpt>
      <trkpt lat="44.12379" lon="5.83942">
        <ele>1054</ele>
        <time>2019-08-09T08:07:33Z</time>
      </trkpt>
      <trkpt lat="44.12379" lon="5.83939">
        <ele>1054</ele>
        <time>2019-08-09T08:07:34Z</time>
      </trkpt>
      <trkpt lat="44.12378" lon="5.83935">
        <ele>1054</ele>
        <time>2019-08-09T08:07:35Z</time>
      </trkpt>
      <trkpt lat="44.12377" lon="5.8393">
        <ele>1055</ele>
        <time>2019-08-09T08:07:36Z</time>
      </trkpt>
      <trkpt lat="44.12376" lon="5.83927">
        <ele>1055</ele>
        <time>2019-08-09T08:07:37Z</time>
      </trkpt>
      <trkpt lat="44.12375" lon="5.83924">
        <ele>1056</ele>
        <time>2019-08-09T08:07:38Z</time>
      </trkpt>
      <trkpt lat="44.12373" lon="5.83921">
        <ele>1056</ele>
        <time>2019-08-09T08:07:39Z</time>
      </trkpt>
      <trkpt lat="44.12372" lon="5.83918">
        <ele>1057</ele>
        <time>2019-08-09T08:07:40Z</time>
      </trkpt>
      <trkpt lat="44.1237" lon="5.83915">
        <ele>1057</ele>
        <time>2019-08-09T08:07:41Z</time>
      </trkpt>
      <trkpt lat="44.12369" lon="5.83911">
        <ele>1057</ele>
        <time>2019-08-09T08:07:42Z</time>
      </trkpt>
      <trkpt lat="44.12367" lon="5.83908">
        <ele>1057</ele>
        <time>2019-08-09T08:07:43Z</time>
      </trkpt>
      <trkpt lat="44.12365" lon="5.83905">
        <ele>1058</ele>
        <time>2019-08-09T08:07:44Z</time>
      </trkpt>
      <trkpt lat="44.12363" lon="5.83902">
        <ele>1058</ele>
        <time>2019-08-09T08:07:45Z</time>
      </trkpt>
      <trkpt lat="44.12362" lon="5.83898">
        <ele>1058</ele>
        <time>2019-08-09T08:07:46Z</time>
      </trkpt>
      <trkpt lat="44.1236" lon="5.83894">
        <ele>1058</ele>
        <time>2019-08-09T08:07:47Z</time>
      </trkpt>
      <trkpt lat="44.12359" lon="5.8389">
        <ele>1058</ele>
        <time>2019-08-09T08:07:48Z</time>
      </trkpt>
      <trkpt lat="44.12359" lon="5.83886">
        <ele>1059</ele>
        <time>2019-08-09T08:07:49Z</time>
      </trkpt>
      <trkpt lat="44.12357" lon="5.8388">
        <ele>1059</ele>
        <time>2019-08-09T08:07:50Z</time>
      </trkpt>
      <trkpt lat="44.12357" lon="5.83875">
        <ele>1060</ele>
        <time>2019-08-09T08:07:51Z</time>
      </trkpt>
      <trkpt lat="44.12355" lon="5.8387">
        <ele>1061</ele>
        <time>2019-08-09T08:07:52Z</time>
      </trkpt>
      <trkpt lat="44.12355" lon="5.83865">
        <ele>1061</ele>
        <time>2019-08-09T08:07:53Z</time>
      </trkpt>
      <trkpt lat="44.12354" lon="5.83859">
        <ele>1061</ele>
        <time>2019-08-09T08:07:54Z</time>
      </trkpt>
      <trkpt lat="44.12353" lon="5.83854">
        <ele>1061</ele>
        <time>2019-08-09T08:07:55Z</time>
      </trkpt>
      <trkpt lat="44.12352" lon="5.8385">
        <ele>1061</ele>
        <time>2019-08-09T08:07:56Z</time>
      </trkpt>
      <trkpt lat="44.1235" lon="5.83845">
        <ele>1061</ele>
        <time>2019-08-09T08:07:57Z</time>
      </trkpt>
      <trkpt lat="44.12348" lon="5.83841">
        <ele>1061</ele>
        <time>2019-08-09T08:07:58Z</time>
      </trkpt>
      <trkpt lat="44.12347" lon="5.83837">
        <ele>1061</ele>
        <time>2019-08-09T08:07:59Z</time>
      </trkpt>
      <trkpt lat="44.12345" lon="5.83833">
        <ele>1061</ele>
        <time>2019-08-09T08:08:00Z</time>
      </trkpt>
      <trkpt lat="44.12344" lon="5.83828">
        <ele>1061</ele>
        <time>2019-08-09T08:08:01Z</time>
      </trkpt>
      <trkpt lat="44.12343" lon="5.83824">
        <ele>1061</ele>
        <time>2019-08-09T08:08:02Z</time>
      </trkpt>
      <trkpt lat="44.12341" lon="5.8382">
        <ele>1061</ele>
        <time>2019-08-09T08:08:03Z</time>
      </trkpt>
      <trkpt lat="44.12339" lon="5.83816">
        <ele>1061</ele>
        <time>2019-08-09T08:08:04Z</time>
      </trkpt>
      <trkpt lat="44.12339" lon="5.83812">
        <ele>1061</ele>
        <time>2019-08-09T08:08:05Z</time>
      </trkpt>
      <trkpt lat="44.12337" lon="5.83808">
        <ele>1061</ele>
        <time>2019-08-09T08:08:06Z</time>
      </trkpt>
      <trkpt lat="44.12336" lon="5.83804">
        <ele>1061</ele>
        <time>2019-08-09T08:08:07Z</time>
      </trkpt>
      <trkpt lat="44.12336" lon="5.83799">
        <ele>1061</ele>
        <time>2019-08-09T08:08:08Z</time>
      </trkpt>
      <trkpt lat="44.12334" lon="5.83794">
        <ele>1061</ele>
        <time>2019-08-09T08:08:09Z</time>
      </trkpt>
      <trkpt lat="44.12334" lon="5.83789">
        <ele>1061</ele>
        <time>2019-08-09T08:08:10Z</time>
      </trkpt>
      <trkpt lat="44.12333" lon="5.83785">
        <ele>1061</ele>
        <time>2019-08-09T08:08:11Z</time>
      </trkpt>
      <trkpt lat="44.12331" lon="5.83779">
        <ele>1061</ele>
        <time>2019-08-09T08:08:12Z</time>
      </trkpt>
      <trkpt lat="44.12331" lon="5.83775">
        <ele>1062</ele>
        <time>2019-08-09T08:08:13Z</time>
      </trkpt>
      <trkpt lat="44.1233" lon="5.8377">
        <ele>1062</ele>
        <time>2019-08-09T08:08:14Z</time>
      </trkpt>
      <trkpt lat="44.12329" lon="5.83765">
        <ele>1062</ele>
        <time>2019-08-09T08:08:15Z</time>
      </trkpt>
      <trkpt lat="44.12329" lon="5.83759">
        <ele>1062</ele>
        <time>2019-08-09T08:08:16Z</time>
      </trkpt>
      <trkpt lat="44.12328" lon="5.83754">
        <ele>1062</ele>
        <time>2019-08-09T08:08:17Z</time>
      </trkpt>
      <trkpt lat="44.12328" lon="5.83749">
        <ele>1062</ele>
        <time>2019-08-09T08:08:18Z</time>
      </trkpt>
      <trkpt lat="44.12328" lon="5.83744">
        <ele>1062</ele>
        <time>2019-08-09T08:08:19Z</time>
      </trkpt>
      <trkpt lat="44.12327" lon="5.83741">
        <ele>1062</ele>
        <time>2019-08-09T08:08:20Z</time>
      </trkpt>
      <trkpt lat="44.12327" lon="5.83739">
        <ele>1062</ele>
        <time>2019-08-09T08:08:21Z</time>
      </trkpt>
      <trkpt lat="44.12327" lon="5.83734">
        <ele>1062</ele>
        <time>2019-08-09T08:08:22Z</time>
      </trkpt>
      <trkpt lat="44.12327" lon="5.8373">
        <ele>1062</ele>
        <time>2019-08-09T08:08:23Z</time>
      </trkpt>
      <trkpt lat="44.12328" lon="5.83726">
        <ele>1062</ele>
        <time>2019-08-09T08:08:24Z</time>
      </trkpt>
      <trkpt lat="44.12328" lon="5.83721">
        <ele>1062</ele>
        <time>2019-08-09T08:08:25Z</time>
      </trkpt>
      <trkpt lat="44.12329" lon="5.83717">
        <ele>1062</ele>
        <time>2019-08-09T08:08:26Z</time>
      </trkpt>
      <trkpt lat="44.12329" lon="5.83714">
        <ele>1062</ele>
        <time>2019-08-09T08:08:27Z</time>
      </trkpt>
      <trkpt lat="44.1233" lon="5.8371">
        <ele>1062</ele>
        <time>2019-08-09T08:08:28Z</time>
      </trkpt>
      <trkpt lat="44.1233" lon="5.83706">
        <ele>1063</ele>
        <time>2019-08-09T08:08:29Z</time>
      </trkpt>
      <trkpt lat="44.12331" lon="5.83703">
        <ele>1064</ele>
        <time>2019-08-09T08:08:30Z</time>
      </trkpt>
      <trkpt lat="44.12331" lon="5.83699">
        <ele>1065</ele>
        <time>2019-08-09T08:08:31Z</time>
      </trkpt>
      <trkpt lat="44.12331" lon="5.83695">
        <ele>1066</ele>
        <time>2019-08-09T08:08:32Z</time>
      </trkpt>
      <trkpt lat="44.12332" lon="5.83691">
        <ele>1067</ele>
        <time>2019-08-09T08:08:33Z</time>
      </trkpt>
      <trkpt lat="44.12333" lon="5.83686">
        <ele>1068</ele>
        <time>2019-08-09T08:08:34Z</time>
      </trkpt>
      <trkpt lat="44.12333" lon="5.83682">
        <ele>1068</ele>
        <time>2019-08-09T08:08:35Z</time>
      </trkpt>
      <trkpt lat="44.12334" lon="5.83678">
        <ele>1069</ele>
        <time>2019-08-09T08:08:36Z</time>
      </trkpt>
      <trkpt lat="44.12334" lon="5.83673">
        <ele>1069</ele>
        <time>2019-08-09T08:08:37Z</time>
      </trkpt>
      <trkpt lat="44.12335" lon="5.8367">
        <ele>1070</ele>
        <time>2019-08-09T08:08:38Z</time>
      </trkpt>
      <trkpt lat="44.12335" lon="5.83665">
        <ele>1070</ele>
        <time>2019-08-09T08:08:39Z</time>
      </trkpt>
      <trkpt lat="44.12335" lon="5.83661">
        <ele>1071</ele>
        <time>2019-08-09T08:08:40Z</time>
      </trkpt>
      <trkpt lat="44.12336" lon="5.83657">
        <ele>1071</ele>
        <time>2019-08-09T08:08:41Z</time>
      </trkpt>
      <trkpt lat="44.12336" lon="5.83652">
        <ele>1071</ele>
        <time>2019-08-09T08:08:42Z</time>
      </trkpt>
      <trkpt lat="44.12337" lon="5.83648">
        <ele>1071</ele>
        <time>2019-08-09T08:08:43Z</time>
      </trkpt>
      <trkpt lat="44.12338" lon="5.83644">
        <ele>1071</ele>
        <time>2019-08-09T08:08:44Z</time>
      </trkpt>
      <trkpt lat="44.1234" lon="5.8364">
        <ele>1071</ele>
        <time>2019-08-09T08:08:45Z</time>
      </trkpt>
      <trkpt lat="44.12342" lon="5.83636">
        <ele>1071</ele>
        <time>2019-08-09T08:08:46Z</time>
      </trkpt>
      <trkpt lat="44.12343" lon="5.83632">
        <ele>1071</ele>
        <time>2019-08-09T08:08:47Z</time>
      </trkpt>
      <trkpt lat="44.12346" lon="5.83628">
        <ele>1071</ele>
        <time>2019-08-09T08:08:48Z</time>
      </trkpt>
      <trkpt lat="44.12348" lon="5.83625">
        <ele>1071</ele>
        <time>2019-08-09T08:08:49Z</time>
      </trkpt>
      <trkpt lat="44.1235" lon="5.83622">
        <ele>1071</ele>
        <time>2019-08-09T08:08:50Z</time>
      </trkpt>
      <trkpt lat="44.12353" lon="5.83618">
        <ele>1071</ele>
        <time>2019-08-09T08:08:51Z</time>
      </trkpt>
      <trkpt lat="44.12355" lon="5.83616">
        <ele>1071</ele>
        <time>2019-08-09T08:08:52Z</time>
      </trkpt>
      <trkpt lat="44.12358" lon="5.83613">
        <ele>1071</ele>
        <time>2019-08-09T08:08:53Z</time>
      </trkpt>
      <trkpt lat="44.1236" lon="5.83609">
        <ele>1071</ele>
        <time>2019-08-09T08:08:54Z</time>
      </trkpt>
      <trkpt lat="44.12363" lon="5.83605">
        <ele>1071</ele>
        <time>2019-08-09T08:08:55Z</time>
      </trkpt>
      <trkpt lat="44.12365" lon="5.83602">
        <ele>1071</ele>
        <time>2019-08-09T08:08:56Z</time>
      </trkpt>
      <trkpt lat="44.12368" lon="5.83599">
        <ele>1071</ele>
        <time>2019-08-09T08:08:57Z</time>
      </trkpt>
      <trkpt lat="44.1237" lon="5.83596">
        <ele>1071</ele>
        <time>2019-08-09T08:08:58Z</time>
      </trkpt>
      <trkpt lat="44.12372" lon="5.83594">
        <ele>1071</ele>
        <time>2019-08-09T08:08:59Z</time>
      </trkpt>
      <trkpt lat="44.12375" lon="5.83591">
        <ele>1071</ele>
        <time>2019-08-09T08:09:00Z</time>
      </trkpt>
      <trkpt lat="44.12378" lon="5.83588">
        <ele>1071</ele>
        <time>2019-08-09T08:09:01Z</time>
      </trkpt>
      <trkpt lat="44.1238" lon="5.83586">
        <ele>1071</ele>
        <time>2019-08-09T08:09:02Z</time>
      </trkpt>
      <trkpt lat="44.12383" lon="5.83584">
        <ele>1071</ele>
        <time>2019-08-09T08:09:03Z</time>
      </trkpt>
      <trkpt lat="44.12385" lon="5.83582">
        <ele>1071</ele>
        <time>2019-08-09T08:09:04Z</time>
      </trkpt>
      <trkpt lat="44.12387" lon="5.8358">
        <ele>1071</ele>
        <time>2019-08-09T08:09:05Z</time>
      </trkpt>
      <trkpt lat="44.1239" lon="5.83578">
        <ele>1071</ele>
        <time>2019-08-09T08:09:06Z</time>
      </trkpt>
      <trkpt lat="44.12392" lon="5.83577">
        <ele>1071</ele>
        <time>2019-08-09T08:09:07Z</time>
      </trkpt>
      <trkpt lat="44.12395" lon="5.83576">
        <ele>1071</ele>
        <time>2019-08-09T08:09:08Z</time>
      </trkpt>
      <trkpt lat="44.12397" lon="5.83576">
        <ele>1071</ele>
        <time>2019-08-09T08:09:09Z</time>
      </trkpt>
      <trkpt lat="44.124" lon="5.83576">
        <ele>1071</ele>
        <time>2019-08-09T08:09:10Z</time>
      </trkpt>
      <trkpt lat="44.12403" lon="5.83575">
        <ele>1071</ele>
        <time>2019-08-09T08:09:11Z</time>
      </trkpt>
      <trkpt lat="44.12406" lon="5.83575">
        <ele>1071</ele>
        <time>2019-08-09T08:09:12Z</time>
      </trkpt>
      <trkpt lat="44.12408" lon="5.83575">
        <ele>1071</ele>
        <time>2019-08-09T08:09:13Z</time>
      </trkpt>
      <trkpt lat="44.12411" lon="5.83576">
        <ele>1071</ele>
        <time>2019-08-09T08:09:14Z</time>
      </trkpt>
      <trkpt lat="44.12413" lon="5.83576">
        <ele>1071</ele>
        <time>2019-08-09T08:09:15Z</time>
      </trkpt>
      <trkpt lat="44.12416" lon="5.83576">
        <ele>1071</ele>
        <time>2019-08-09T08:09:16Z</time>
      </trkpt>
      <trkpt lat="44.12418" lon="5.83576">
        <ele>1071</ele>
        <time>2019-08-09T08:09:17Z</time>
      </trkpt>
      <trkpt lat="44.12421" lon="5.83577">
        <ele>1071</ele>
        <time>2019-08-09T08:09:18Z</time>
      </trkpt>
      <trkpt lat="44.12424" lon="5.83577">
        <ele>1072</ele>
        <time>2019-08-09T08:09:19Z</time>
      </trkpt>
      <trkpt lat="44.12428" lon="5.83579">
        <ele>1073</ele>
        <time>2019-08-09T08:09:20Z</time>
      </trkpt>
      <trkpt lat="44.12431" lon="5.8358">
        <ele>1074</ele>
        <time>2019-08-09T08:09:21Z</time>
      </trkpt>
      <trkpt lat="44.12434" lon="5.8358">
        <ele>1074</ele>
        <time>2019-08-09T08:09:22Z</time>
      </trkpt>
      <trkpt lat="44.12436" lon="5.83581">
        <ele>1075</ele>
        <time>2019-08-09T08:09:23Z</time>
      </trkpt>
      <trkpt lat="44.12439" lon="5.83581">
        <ele>1076</ele>
        <time>2019-08-09T08:09:24Z</time>
      </trkpt>
      <trkpt lat="44.12441" lon="5.83582">
        <ele>1076</ele>
        <time>2019-08-09T08:09:25Z</time>
      </trkpt>
      <trkpt lat="44.12444" lon="5.83583">
        <ele>1076</ele>
        <time>2019-08-09T08:09:26Z</time>
      </trkpt>
      <trkpt lat="44.12446" lon="5.83584">
        <ele>1076</ele>
        <time>2019-08-09T08:09:27Z</time>
      </trkpt>
      <trkpt lat="44.12449" lon="5.83585">
        <ele>1076</ele>
        <time>2019-08-09T08:09:28Z</time>
      </trkpt>
      <trkpt lat="44.12452" lon="5.83586">
        <ele>1076</ele>
        <time>2019-08-09T08:09:29Z</time>
      </trkpt>
      <trkpt lat="44.12455" lon="5.83587">
        <ele>1076</ele>
        <time>2019-08-09T08:09:30Z</time>
      </trkpt>
      <trkpt lat="44.12458" lon="5.83588">
        <ele>1076</ele>
        <time>2019-08-09T08:09:31Z</time>
      </trkpt>
      <trkpt lat="44.12461" lon="5.83588">
        <ele>1076</ele>
        <time>2019-08-09T08:09:32Z</time>
      </trkpt>
      <trkpt lat="44.12465" lon="5.83588">
        <ele>1076</ele>
        <time>2019-08-09T08:09:33Z</time>
      </trkpt>
      <trkpt lat="44.12468" lon="5.83588">
        <ele>1077</ele>
        <time>2019-08-09T08:09:34Z</time>
      </trkpt>
      <trkpt lat="44.12471" lon="5.83586">
        <ele>1077</ele>
        <time>2019-08-09T08:09:35Z</time>
      </trkpt>
      <trkpt lat="44.12474" lon="5.83584">
        <ele>1078</ele>
        <time>2019-08-09T08:09:36Z</time>
      </trkpt>
      <trkpt lat="44.12477" lon="5.8358">
        <ele>1078</ele>
        <time>2019-08-09T08:09:37Z</time>
      </trkpt>
      <trkpt lat="44.12479" lon="5.83578">
        <ele>1078</ele>
        <time>2019-08-09T08:09:38Z</time>
      </trkpt>
      <trkpt lat="44.12482" lon="5.83576">
        <ele>1078</ele>
        <time>2019-08-09T08:09:39Z</time>
      </trkpt>
      <trkpt lat="44.12485" lon="5.83573">
        <ele>1078</ele>
        <time>2019-08-09T08:09:40Z</time>
      </trkpt>
      <trkpt lat="44.12487" lon="5.83571">
        <ele>1078</ele>
        <time>2019-08-09T08:09:41Z</time>
      </trkpt>
      <trkpt lat="44.12489" lon="5.83568">
        <ele>1078</ele>
        <time>2019-08-09T08:09:42Z</time>
      </trkpt>
      <trkpt lat="44.12491" lon="5.83565">
        <ele>1078</ele>
        <time>2019-08-09T08:09:43Z</time>
      </trkpt>
      <trkpt lat="44.12493" lon="5.83562">
        <ele>1078</ele>
        <time>2019-08-09T08:09:44Z</time>
      </trkpt>
      <trkpt lat="44.12495" lon="5.83559">
        <ele>1078</ele>
        <time>2019-08-09T08:09:45Z</time>
      </trkpt>
      <trkpt lat="44.12496" lon="5.83555">
        <ele>1078</ele>
        <time>2019-08-09T08:09:46Z</time>
      </trkpt>
      <trkpt lat="44.12498" lon="5.83552">
        <ele>1078</ele>
        <time>2019-08-09T08:09:47Z</time>
      </trkpt>
      <trkpt lat="44.12499" lon="5.83548">
        <ele>1078</ele>
        <time>2019-08-09T08:09:48Z</time>
      </trkpt>
      <trkpt lat="44.12501" lon="5.83544">
        <ele>1078</ele>
        <time>2019-08-09T08:09:49Z</time>
      </trkpt>
      <trkpt lat="44.12502" lon="5.83541">
        <ele>1078</ele>
        <time>2019-08-09T08:09:50Z</time>
      </trkpt>
      <trkpt lat="44.12503" lon="5.83537">
        <ele>1078</ele>
        <time>2019-08-09T08:09:51Z</time>
      </trkpt>
      <trkpt lat="44.12505" lon="5.83533">
        <ele>1078</ele>
        <time>2019-08-09T08:09:52Z</time>
      </trkpt>
      <trkpt lat="44.12506" lon="5.8353">
        <ele>1078</ele>
        <time>2019-08-09T08:09:53Z</time>
      </trkpt>
      <trkpt lat="44.12508" lon="5.83526">
        <ele>1078</ele>
        <time>2019-08-09T08:09:54Z</time>
      </trkpt>
      <trkpt lat="44.12508" lon="5.83522">
        <ele>1078</ele>
        <time>2019-08-09T08:09:55Z</time>
      </trkpt>
      <trkpt lat="44.12509" lon="5.83518">
        <ele>1078</ele>
        <time>2019-08-09T08:09:56Z</time>
      </trkpt>
      <trkpt lat="44.1251" lon="5.83514">
        <ele>1078</ele>
        <time>2019-08-09T08:09:57Z</time>
      </trkpt>
      <trkpt lat="44.1251" lon="5.83511">
        <ele>1078</ele>
        <time>2019-08-09T08:09:58Z</time>
      </trkpt>
      <trkpt lat="44.12511" lon="5.83507">
        <ele>1078</ele>
        <time>2019-08-09T08:09:59Z</time>
      </trkpt>
      <trkpt lat="44.12511" lon="5.83503">
        <ele>1078</ele>
        <time>2019-08-09T08:10:00Z</time>
      </trkpt>
      <trkpt lat="44.12511" lon="5.83499">
        <ele>1078</ele>
        <time>2019-08-09T08:10:01Z</time>
      </trkpt>
      <trkpt lat="44.12511" lon="5.83495">
        <ele>1078</ele>
        <time>2019-08-09T08:10:02Z</time>
      </trkpt>
      <trkpt lat="44.12511" lon="5.83491">
        <ele>1078</ele>
        <time>2019-08-09T08:10:03Z</time>
      </trkpt>
      <trkpt lat="44.12511" lon="5.83487">
        <ele>1078</ele>
        <time>2019-08-09T08:10:04Z</time>
      </trkpt>
      <trkpt lat="44.12511" lon="5.83483">
        <ele>1078</ele>
        <time>2019-08-09T08:10:05Z</time>
      </trkpt>
      <trkpt lat="44.12512" lon="5.83479">
        <ele>1078</ele>
        <time>2019-08-09T08:10:06Z</time>
      </trkpt>
      <trkpt lat="44.12513" lon="5.83475">
        <ele>1079</ele>
        <time>2019-08-09T08:10:07Z</time>
      </trkpt>
      <trkpt lat="44.12514" lon="5.83471">
        <ele>1079</ele>
        <time>2019-08-09T08:10:08Z</time>
      </trkpt>
      <trkpt lat="44.12516" lon="5.83467">
        <ele>1080</ele>
        <time>2019-08-09T08:10:09Z</time>
      </trkpt>
      <trkpt lat="44.12517" lon="5.83464">
        <ele>1080</ele>
        <time>2019-08-09T08:10:10Z</time>
      </trkpt>
      <trkpt lat="44.12518" lon="5.83461">
        <ele>1081</ele>
        <time>2019-08-09T08:10:11Z</time>
      </trkpt>
      <trkpt lat="44.1252" lon="5.83459">
        <ele>1081</ele>
        <time>2019-08-09T08:10:12Z</time>
      </trkpt>
      <trkpt lat="44.12523" lon="5.83456">
        <ele>1081</ele>
        <time>2019-08-09T08:10:13Z</time>
      </trkpt>
      <trkpt lat="44.12525" lon="5.83453">
        <ele>1081</ele>
        <time>2019-08-09T08:10:14Z</time>
      </trkpt>
      <trkpt lat="44.12526" lon="5.8345">
        <ele>1081</ele>
        <time>2019-08-09T08:10:15Z</time>
      </trkpt>
      <trkpt lat="44.12529" lon="5.83448">
        <ele>1082</ele>
        <time>2019-08-09T08:10:16Z</time>
      </trkpt>
      <trkpt lat="44.12531" lon="5.83446">
        <ele>1082</ele>
        <time>2019-08-09T08:10:17Z</time>
      </trkpt>
      <trkpt lat="44.12533" lon="5.83443">
        <ele>1082</ele>
        <time>2019-08-09T08:10:18Z</time>
      </trkpt>
      <trkpt lat="44.12535" lon="5.83441">
        <ele>1082</ele>
        <time>2019-08-09T08:10:19Z</time>
      </trkpt>
      <trkpt lat="44.12539" lon="5.83439">
        <ele>1082</ele>
        <time>2019-08-09T08:10:20Z</time>
      </trkpt>
      <trkpt lat="44.12541" lon="5.83437">
        <ele>1082</ele>
        <time>2019-08-09T08:10:21Z</time>
      </trkpt>
      <trkpt lat="44.12543" lon="5.83434">
        <ele>1082</ele>
        <time>2019-08-09T08:10:22Z</time>
      </trkpt>
      <trkpt lat="44.12546" lon="5.83429">
        <ele>1083</ele>
        <time>2019-08-09T08:10:23Z</time>
      </trkpt>
      <trkpt lat="44.12549" lon="5.83427">
        <ele>1084</ele>
        <time>2019-08-09T08:10:24Z</time>
      </trkpt>
      <trkpt lat="44.12551" lon="5.83424">
        <ele>1084</ele>
        <time>2019-08-09T08:10:25Z</time>
      </trkpt>
      <trkpt lat="44.12553" lon="5.83421">
        <ele>1084</ele>
        <time>2019-08-09T08:10:26Z</time>
      </trkpt>
      <trkpt lat="44.12555" lon="5.83417">
        <ele>1084</ele>
        <time>2019-08-09T08:10:27Z</time>
      </trkpt>
      <trkpt lat="44.12556" lon="5.83414">
        <ele>1084</ele>
        <time>2019-08-09T08:10:28Z</time>
      </trkpt>
      <trkpt lat="44.12558" lon="5.83411">
        <ele>1084</ele>
        <time>2019-08-09T08:10:29Z</time>
      </trkpt>
      <trkpt lat="44.1256" lon="5.83408">
        <ele>1084</ele>
        <time>2019-08-09T08:10:30Z</time>
      </trkpt>
      <trkpt lat="44.12561" lon="5.83405">
        <ele>1084</ele>
        <time>2019-08-09T08:10:31Z</time>
      </trkpt>
      <trkpt lat="44.12563" lon="5.83401">
        <ele>1084</ele>
        <time>2019-08-09T08:10:32Z</time>
      </trkpt>
      <trkpt lat="44.12564" lon="5.83398">
        <ele>1084</ele>
        <time>2019-08-09T08:10:33Z</time>
      </trkpt>
      <trkpt lat="44.12566" lon="5.83394">
        <ele>1084</ele>
        <time>2019-08-09T08:10:34Z</time>
      </trkpt>
      <trkpt lat="44.12567" lon="5.8339">
        <ele>1084</ele>
        <time>2019-08-09T08:10:35Z</time>
      </trkpt>
      <trkpt lat="44.12568" lon="5.83387">
        <ele>1084</ele>
        <time>2019-08-09T08:10:36Z</time>
      </trkpt>
      <trkpt lat="44.1257" lon="5.83383">
        <ele>1084</ele>
        <time>2019-08-09T08:10:37Z</time>
      </trkpt>
      <trkpt lat="44.12572" lon="5.8338">
        <ele>1084</ele>
        <time>2019-08-09T08:10:38Z</time>
      </trkpt>
      <trkpt lat="44.12573" lon="5.83376">
        <ele>1084</ele>
        <time>2019-08-09T08:10:39Z</time>
      </trkpt>
      <trkpt lat="44.12574" lon="5.83371">
        <ele>1084</ele>
        <time>2019-08-09T08:10:40Z</time>
      </trkpt>
      <trkpt lat="44.12575" lon="5.83367">
        <ele>1084</ele>
        <time>2019-08-09T08:10:41Z</time>
      </trkpt>
      <trkpt lat="44.12576" lon="5.83363">
        <ele>1084</ele>
        <time>2019-08-09T08:10:42Z</time>
      </trkpt>
      <trkpt lat="44.12577" lon="5.83359">
        <ele>1084</ele>
        <time>2019-08-09T08:10:43Z</time>
      </trkpt>
      <trkpt lat="44.12578" lon="5.83356">
        <ele>1084</ele>
        <time>2019-08-09T08:10:44Z</time>
      </trkpt>
      <trkpt lat="44.12579" lon="5.83352">
        <ele>1084</ele>
        <time>2019-08-09T08:10:45Z</time>
      </trkpt>
      <trkpt lat="44.1258" lon="5.83348">
        <ele>1084</ele>
        <time>2019-08-09T08:10:46Z</time>
      </trkpt>
      <trkpt lat="44.12581" lon="5.83344">
        <ele>1084</ele>
        <time>2019-08-09T08:10:47Z</time>
      </trkpt>
      <trkpt lat="44.12582" lon="5.8334">
        <ele>1084</ele>
        <time>2019-08-09T08:10:48Z</time>
      </trkpt>
      <trkpt lat="44.12584" lon="5.83336">
        <ele>1084</ele>
        <time>2019-08-09T08:10:49Z</time>
      </trkpt>
      <trkpt lat="44.12585" lon="5.83333">
        <ele>1085</ele>
        <time>2019-08-09T08:10:50Z</time>
      </trkpt>
      <trkpt lat="44.12588" lon="5.8333">
        <ele>1085</ele>
        <time>2019-08-09T08:10:51Z</time>
      </trkpt>
      <trkpt lat="44.1259" lon="5.83327">
        <ele>1085</ele>
        <time>2019-08-09T08:10:52Z</time>
      </trkpt>
      <trkpt lat="44.12593" lon="5.83325">
        <ele>1086</ele>
        <time>2019-08-09T08:10:53Z</time>
      </trkpt>
      <trkpt lat="44.12595" lon="5.83323">
        <ele>1086</ele>
        <time>2019-08-09T08:10:54Z</time>
      </trkpt>
      <trkpt lat="44.12597" lon="5.83321">
        <ele>1086</ele>
        <time>2019-08-09T08:10:55Z</time>
      </trkpt>
      <trkpt lat="44.126" lon="5.8332">
        <ele>1086</ele>
        <time>2019-08-09T08:10:56Z</time>
      </trkpt>
      <trkpt lat="44.12603" lon="5.8332">
        <ele>1087</ele>
        <time>2019-08-09T08:10:57Z</time>
      </trkpt>
      <trkpt lat="44.12606" lon="5.83319">
        <ele>1087</ele>
        <time>2019-08-09T08:10:58Z</time>
      </trkpt>
      <trkpt lat="44.12609" lon="5.83318">
        <ele>1087</ele>
        <time>2019-08-09T08:10:59Z</time>
      </trkpt>
      <trkpt lat="44.12612" lon="5.83318">
        <ele>1087</ele>
        <time>2019-08-09T08:11:00Z</time>
      </trkpt>
      <trkpt lat="44.12615" lon="5.83317">
        <ele>1088</ele>
        <time>2019-08-09T08:11:01Z</time>
      </trkpt>
      <trkpt lat="44.12619" lon="5.83316">
        <ele>1088</ele>
        <time>2019-08-09T08:11:02Z</time>
      </trkpt>
      <trkpt lat="44.12622" lon="5.83315">
        <ele>1088</ele>
        <time>2019-08-09T08:11:03Z</time>
      </trkpt>
      <trkpt lat="44.12625" lon="5.83313">
        <ele>1089</ele>
        <time>2019-08-09T08:11:04Z</time>
      </trkpt>
      <trkpt lat="44.12628" lon="5.8331">
        <ele>1089</ele>
        <time>2019-08-09T08:11:05Z</time>
      </trkpt>
      <trkpt lat="44.1263" lon="5.83307">
        <ele>1089</ele>
        <time>2019-08-09T08:11:06Z</time>
      </trkpt>
      <trkpt lat="44.12633" lon="5.83303">
        <ele>1089</ele>
        <time>2019-08-09T08:11:07Z</time>
      </trkpt>
      <trkpt lat="44.12635" lon="5.833">
        <ele>1089</ele>
        <time>2019-08-09T08:11:08Z</time>
      </trkpt>
      <trkpt lat="44.12637" lon="5.83296">
        <ele>1089</ele>
        <time>2019-08-09T08:11:09Z</time>
      </trkpt>
      <trkpt lat="44.1264" lon="5.83293">
        <ele>1089</ele>
        <time>2019-08-09T08:11:10Z</time>
      </trkpt>
      <trkpt lat="44.12643" lon="5.8329">
        <ele>1089</ele>
        <time>2019-08-09T08:11:11Z</time>
      </trkpt>
      <trkpt lat="44.12645" lon="5.83287">
        <ele>1089</ele>
        <time>2019-08-09T08:11:12Z</time>
      </trkpt>
      <trkpt lat="44.12647" lon="5.83283">
        <ele>1089</ele>
        <time>2019-08-09T08:11:13Z</time>
      </trkpt>
      <trkpt lat="44.12649" lon="5.83279">
        <ele>1089</ele>
        <time>2019-08-09T08:11:14Z</time>
      </trkpt>
      <trkpt lat="44.1265" lon="5.83275">
        <ele>1089</ele>
        <time>2019-08-09T08:11:15Z</time>
      </trkpt>
      <trkpt lat="44.12652" lon="5.83271">
        <ele>1089</ele>
        <time>2019-08-09T08:11:16Z</time>
      </trkpt>
      <trkpt lat="44.12653" lon="5.83266">
        <ele>1089</ele>
        <time>2019-08-09T08:11:17Z</time>
      </trkpt>
      <trkpt lat="44.12655" lon="5.83262">
        <ele>1089</ele>
        <time>2019-08-09T08:11:18Z</time>
      </trkpt>
      <trkpt lat="44.12656" lon="5.83258">
        <ele>1090</ele>
        <time>2019-08-09T08:11:19Z</time>
      </trkpt>
      <trkpt lat="44.12658" lon="5.83254">
        <ele>1090</ele>
        <time>2019-08-09T08:11:20Z</time>
      </trkpt>
      <trkpt lat="44.12658" lon="5.83249">
        <ele>1091</ele>
        <time>2019-08-09T08:11:21Z</time>
      </trkpt>
      <trkpt lat="44.12658" lon="5.83244">
        <ele>1091</ele>
        <time>2019-08-09T08:11:22Z</time>
      </trkpt>
      <trkpt lat="44.12658" lon="5.8324">
        <ele>1092</ele>
        <time>2019-08-09T08:11:23Z</time>
      </trkpt>
      <trkpt lat="44.12658" lon="5.83236">
        <ele>1092</ele>
        <time>2019-08-09T08:11:24Z</time>
      </trkpt>
      <trkpt lat="44.12657" lon="5.83231">
        <ele>1092</ele>
        <time>2019-08-09T08:11:25Z</time>
      </trkpt>
      <trkpt lat="44.12656" lon="5.83227">
        <ele>1093</ele>
        <time>2019-08-09T08:11:26Z</time>
      </trkpt>
      <trkpt lat="44.12656" lon="5.83223">
        <ele>1093</ele>
        <time>2019-08-09T08:11:27Z</time>
      </trkpt>
      <trkpt lat="44.12654" lon="5.83219">
        <ele>1093</ele>
        <time>2019-08-09T08:11:28Z</time>
      </trkpt>
      <trkpt lat="44.12653" lon="5.83215">
        <ele>1093</ele>
        <time>2019-08-09T08:11:29Z</time>
      </trkpt>
      <trkpt lat="44.12653" lon="5.83212">
        <ele>1094</ele>
        <time>2019-08-09T08:11:30Z</time>
      </trkpt>
      <trkpt lat="44.12651" lon="5.83208">
        <ele>1094</ele>
        <time>2019-08-09T08:11:31Z</time>
      </trkpt>
      <trkpt lat="44.1265" lon="5.83204">
        <ele>1094</ele>
        <time>2019-08-09T08:11:32Z</time>
      </trkpt>
      <trkpt lat="44.1265" lon="5.83198">
        <ele>1094</ele>
        <time>2019-08-09T08:11:33Z</time>
      </trkpt>
      <trkpt lat="44.1265" lon="5.83194">
        <ele>1094</ele>
        <time>2019-08-09T08:11:34Z</time>
      </trkpt>
      <trkpt lat="44.1265" lon="5.83189">
        <ele>1094</ele>
        <time>2019-08-09T08:11:35Z</time>
      </trkpt>
      <trkpt lat="44.12651" lon="5.83185">
        <ele>1094</ele>
        <time>2019-08-09T08:11:36Z</time>
      </trkpt>
      <trkpt lat="44.12653" lon="5.83181">
        <ele>1094</ele>
        <time>2019-08-09T08:11:37Z</time>
      </trkpt>
      <trkpt lat="44.12654" lon="5.83178">
        <ele>1094</ele>
        <time>2019-08-09T08:11:38Z</time>
      </trkpt>
      <trkpt lat="44.12656" lon="5.83175">
        <ele>1094</ele>
        <time>2019-08-09T08:11:39Z</time>
      </trkpt>
      <trkpt lat="44.12658" lon="5.83173">
        <ele>1094</ele>
        <time>2019-08-09T08:11:40Z</time>
      </trkpt>
      <trkpt lat="44.12661" lon="5.8317">
        <ele>1095</ele>
        <time>2019-08-09T08:11:41Z</time>
      </trkpt>
      <trkpt lat="44.12664" lon="5.83168">
        <ele>1095</ele>
        <time>2019-08-09T08:11:42Z</time>
      </trkpt>
      <trkpt lat="44.12665" lon="5.83165">
        <ele>1096</ele>
        <time>2019-08-09T08:11:43Z</time>
      </trkpt>
      <trkpt lat="44.12668" lon="5.83162">
        <ele>1096</ele>
        <time>2019-08-09T08:11:44Z</time>
      </trkpt>
      <trkpt lat="44.12671" lon="5.8316">
        <ele>1097</ele>
        <time>2019-08-09T08:11:45Z</time>
      </trkpt>
      <trkpt lat="44.12672" lon="5.83158">
        <ele>1097</ele>
        <time>2019-08-09T08:11:46Z</time>
      </trkpt>
      <trkpt lat="44.12674" lon="5.83155">
        <ele>1098</ele>
        <time>2019-08-09T08:11:47Z</time>
      </trkpt>
      <trkpt lat="44.12676" lon="5.83153">
        <ele>1098</ele>
        <time>2019-08-09T08:11:48Z</time>
      </trkpt>
      <trkpt lat="44.12678" lon="5.8315">
        <ele>1099</ele>
        <time>2019-08-09T08:11:49Z</time>
      </trkpt>
      <trkpt lat="44.1268" lon="5.83147">
        <ele>1099</ele>
        <time>2019-08-09T08:11:50Z</time>
      </trkpt>
      <trkpt lat="44.12681" lon="5.83143">
        <ele>1099</ele>
        <time>2019-08-09T08:11:51Z</time>
      </trkpt>
      <trkpt lat="44.12682" lon="5.8314">
        <ele>1100</ele>
        <time>2019-08-09T08:11:52Z</time>
      </trkpt>
      <trkpt lat="44.12684" lon="5.83136">
        <ele>1100</ele>
        <time>2019-08-09T08:11:53Z</time>
      </trkpt>
      <trkpt lat="44.12685" lon="5.83133">
        <ele>1100</ele>
        <time>2019-08-09T08:11:54Z</time>
      </trkpt>
      <trkpt lat="44.12686" lon="5.8313">
        <ele>1100</ele>
        <time>2019-08-09T08:11:55Z</time>
      </trkpt>
      <trkpt lat="44.12687" lon="5.83126">
        <ele>1100</ele>
        <time>2019-08-09T08:11:56Z</time>
      </trkpt>
      <trkpt lat="44.12689" lon="5.83124">
        <ele>1100</ele>
        <time>2019-08-09T08:11:57Z</time>
      </trkpt>
      <trkpt lat="44.1269" lon="5.83121">
        <ele>1100</ele>
        <time>2019-08-09T08:11:58Z</time>
      </trkpt>
      <trkpt lat="44.12692" lon="5.83118">
        <ele>1100</ele>
        <time>2019-08-09T08:11:59Z</time>
      </trkpt>
      <trkpt lat="44.12693" lon="5.83115">
        <ele>1101</ele>
        <time>2019-08-09T08:12:00Z</time>
      </trkpt>
      <trkpt lat="44.12694" lon="5.83111">
        <ele>1101</ele>
        <time>2019-08-09T08:12:01Z</time>
      </trkpt>
      <trkpt lat="44.12695" lon="5.83107">
        <ele>1101</ele>
        <time>2019-08-09T08:12:02Z</time>
      </trkpt>
      <trkpt lat="44.12696" lon="5.83104">
        <ele>1102</ele>
        <time>2019-08-09T08:12:03Z</time>
      </trkpt>
      <trkpt lat="44.12697" lon="5.831">
        <ele>1102</ele>
        <time>2019-08-09T08:12:04Z</time>
      </trkpt>
      <trkpt lat="44.12698" lon="5.83096">
        <ele>1102</ele>
        <time>2019-08-09T08:12:05Z</time>
      </trkpt>
      <trkpt lat="44.12699" lon="5.83093">
        <ele>1102</ele>
        <time>2019-08-09T08:12:06Z</time>
      </trkpt>
      <trkpt lat="44.127" lon="5.83089">
        <ele>1102</ele>
        <time>2019-08-09T08:12:07Z</time>
      </trkpt>
      <trkpt lat="44.12701" lon="5.83086">
        <ele>1103</ele>
        <time>2019-08-09T08:12:08Z</time>
      </trkpt>
      <trkpt lat="44.12701" lon="5.83082">
        <ele>1103</ele>
        <time>2019-08-09T08:12:09Z</time>
      </trkpt>
      <trkpt lat="44.12702" lon="5.83078">
        <ele>1103</ele>
        <time>2019-08-09T08:12:10Z</time>
      </trkpt>
      <trkpt lat="44.12703" lon="5.83075">
        <ele>1103</ele>
        <time>2019-08-09T08:12:11Z</time>
      </trkpt>
      <trkpt lat="44.12703" lon="5.83071">
        <ele>1103</ele>
        <time>2019-08-09T08:12:12Z</time>
      </trkpt>
      <trkpt lat="44.12703" lon="5.83066">
        <ele>1103</ele>
        <time>2019-08-09T08:12:13Z</time>
      </trkpt>
      <trkpt lat="44.12704" lon="5.83063">
        <ele>1103</ele>
        <time>2019-08-09T08:12:14Z</time>
      </trkpt>
      <trkpt lat="44.12704" lon="5.83059">
        <ele>1103</ele>
        <time>2019-08-09T08:12:15Z</time>
      </trkpt>
      <trkpt lat="44.12705" lon="5.83055">
        <ele>1103</ele>
        <time>2019-08-09T08:12:16Z</time>
      </trkpt>
      <trkpt lat="44.12705" lon="5.83051">
        <ele>1103</ele>
        <time>2019-08-09T08:12:17Z</time>
      </trkpt>
      <trkpt lat="44.12705" lon="5.83048">
        <ele>1103</ele>
        <time>2019-08-09T08:12:18Z</time>
      </trkpt>
      <trkpt lat="44.12706" lon="5.83045">
        <ele>1103</ele>
        <time>2019-08-09T08:12:19Z</time>
      </trkpt>
      <trkpt lat="44.12706" lon="5.83041">
        <ele>1103</ele>
        <time>2019-08-09T08:12:20Z</time>
      </trkpt>
      <trkpt lat="44.12706" lon="5.83038">
        <ele>1103</ele>
        <time>2019-08-09T08:12:21Z</time>
      </trkpt>
      <trkpt lat="44.12706" lon="5.83034">
        <ele>1103</ele>
        <time>2019-08-09T08:12:22Z</time>
      </trkpt>
      <trkpt lat="44.12707" lon="5.8303">
        <ele>1104</ele>
        <time>2019-08-09T08:12:23Z</time>
      </trkpt>
      <trkpt lat="44.12707" lon="5.83027">
        <ele>1104</ele>
        <time>2019-08-09T08:12:24Z</time>
      </trkpt>
      <trkpt lat="44.12708" lon="5.83023">
        <ele>1104</ele>
        <time>2019-08-09T08:12:25Z</time>
      </trkpt>
      <trkpt lat="44.12708" lon="5.8302">
        <ele>1105</ele>
        <time>2019-08-09T08:12:26Z</time>
      </trkpt>
      <trkpt lat="44.12708" lon="5.83017">
        <ele>1105</ele>
        <time>2019-08-09T08:12:27Z</time>
      </trkpt>
      <trkpt lat="44.12707" lon="5.83014">
        <ele>1106</ele>
        <time>2019-08-09T08:12:28Z</time>
      </trkpt>
      <trkpt lat="44.12706" lon="5.83012">
        <ele>1106</ele>
        <time>2019-08-09T08:12:29Z</time>
      </trkpt>
      <trkpt lat="44.12707" lon="5.83008">
        <ele>1107</ele>
        <time>2019-08-09T08:12:30Z</time>
      </trkpt>
      <trkpt lat="44.12707" lon="5.83005">
        <ele>1107</ele>
        <time>2019-08-09T08:12:31Z</time>
      </trkpt>
      <trkpt lat="44.12707" lon="5.83002">
        <ele>1108</ele>
        <time>2019-08-09T08:12:32Z</time>
      </trkpt>
      <trkpt lat="44.12707" lon="5.82999">
        <ele>1108</ele>
        <time>2019-08-09T08:12:33Z</time>
      </trkpt>
      <trkpt lat="44.12706" lon="5.82995">
        <ele>1108</ele>
        <time>2019-08-09T08:12:34Z</time>
      </trkpt>
      <trkpt lat="44.12706" lon="5.82992">
        <ele>1108</ele>
        <time>2019-08-09T08:12:35Z</time>
      </trkpt>
      <trkpt lat="44.12707" lon="5.82989">
        <ele>1108</ele>
        <time>2019-08-09T08:12:36Z</time>
      </trkpt>
      <trkpt lat="44.12708" lon="5.82986">
        <ele>1109</ele>
        <time>2019-08-09T08:12:37Z</time>
      </trkpt>
      <trkpt lat="44.12708" lon="5.82984">
        <ele>1109</ele>
        <time>2019-08-09T08:12:38Z</time>
      </trkpt>
      <trkpt lat="44.12708" lon="5.82981">
        <ele>1110</ele>
        <time>2019-08-09T08:12:39Z</time>
      </trkpt>
      <trkpt lat="44.12708" lon="5.82977">
        <ele>1110</ele>
        <time>2019-08-09T08:12:40Z</time>
      </trkpt>
      <trkpt lat="44.12707" lon="5.82973">
        <ele>1111</ele>
        <time>2019-08-09T08:12:41Z</time>
      </trkpt>
      <trkpt lat="44.12707" lon="5.82971">
        <ele>1111</ele>
        <time>2019-08-09T08:12:42Z</time>
      </trkpt>
      <trkpt lat="44.12706" lon="5.82967">
        <ele>1111</ele>
        <time>2019-08-09T08:12:43Z</time>
      </trkpt>
      <trkpt lat="44.12706" lon="5.82964">
        <ele>1111</ele>
        <time>2019-08-09T08:12:44Z</time>
      </trkpt>
      <trkpt lat="44.12705" lon="5.8296">
        <ele>1112</ele>
        <time>2019-08-09T08:12:45Z</time>
      </trkpt>
      <trkpt lat="44.12704" lon="5.82955">
        <ele>1112</ele>
        <time>2019-08-09T08:12:46Z</time>
      </trkpt>
      <trkpt lat="44.12705" lon="5.82952">
        <ele>1112</ele>
        <time>2019-08-09T08:12:47Z</time>
      </trkpt>
      <trkpt lat="44.12705" lon="5.82948">
        <ele>1113</ele>
        <time>2019-08-09T08:12:48Z</time>
      </trkpt>
      <trkpt lat="44.12704" lon="5.82945">
        <ele>1114</ele>
        <time>2019-08-09T08:12:49Z</time>
      </trkpt>
      <trkpt lat="44.12703" lon="5.82942">
        <ele>1114</ele>
        <time>2019-08-09T08:12:50Z</time>
      </trkpt>
      <trkpt lat="44.12703" lon="5.82939">
        <ele>1115</ele>
        <time>2019-08-09T08:12:51Z</time>
      </trkpt>
      <trkpt lat="44.12703" lon="5.82936">
        <ele>1116</ele>
        <time>2019-08-09T08:12:52Z</time>
      </trkpt>
      <trkpt lat="44.12703" lon="5.82933">
        <ele>1116</ele>
        <time>2019-08-09T08:12:53Z</time>
      </trkpt>
      <trkpt lat="44.12703" lon="5.82931">
        <ele>1117</ele>
        <time>2019-08-09T08:12:54Z</time>
      </trkpt>
      <trkpt lat="44.12703" lon="5.82928">
        <ele>1118</ele>
        <time>2019-08-09T08:12:55Z</time>
      </trkpt>
      <trkpt lat="44.12703" lon="5.82925">
        <ele>1119</ele>
        <time>2019-08-09T08:12:56Z</time>
      </trkpt>
      <trkpt lat="44.12704" lon="5.82923">
        <ele>1120</ele>
        <time>2019-08-09T08:12:57Z</time>
      </trkpt>
      <trkpt lat="44.12704" lon="5.8292">
        <ele>1121</ele>
        <time>2019-08-09T08:12:58Z</time>
      </trkpt>
      <trkpt lat="44.12704" lon="5.82917">
        <ele>1122</ele>
        <time>2019-08-09T08:12:59Z</time>
      </trkpt>
      <trkpt lat="44.12703" lon="5.82914">
        <ele>1123</ele>
        <time>2019-08-09T08:13:00Z</time>
      </trkpt>
      <trkpt lat="44.12703" lon="5.82911">
        <ele>1124</ele>
        <time>2019-08-09T08:13:01Z</time>
      </trkpt>
      <trkpt lat="44.12702" lon="5.82908">
        <ele>1125</ele>
        <time>2019-08-09T08:13:02Z</time>
      </trkpt>
      <trkpt lat="44.12701" lon="5.82905">
        <ele>1125</ele>
        <time>2019-08-09T08:13:03Z</time>
      </trkpt>
      <trkpt lat="44.127" lon="5.829">
        <ele>1125</ele>
        <time>2019-08-09T08:13:04Z</time>
      </trkpt>
      <trkpt lat="44.12698" lon="5.82897">
        <ele>1125</ele>
        <time>2019-08-09T08:13:05Z</time>
      </trkpt>
      <trkpt lat="44.12696" lon="5.82893">
        <ele>1125</ele>
        <time>2019-08-09T08:13:06Z</time>
      </trkpt>
      <trkpt lat="44.12694" lon="5.8289">
        <ele>1125</ele>
        <time>2019-08-09T08:13:07Z</time>
      </trkpt>
      <trkpt lat="44.12693" lon="5.82886">
        <ele>1125</ele>
        <time>2019-08-09T08:13:08Z</time>
      </trkpt>
      <trkpt lat="44.12692" lon="5.82884">
        <ele>1125</ele>
        <time>2019-08-09T08:13:09Z</time>
      </trkpt>
      <trkpt lat="44.12691" lon="5.82881">
        <ele>1125</ele>
        <time>2019-08-09T08:13:10Z</time>
      </trkpt>
      <trkpt lat="44.1269" lon="5.82878">
        <ele>1125</ele>
        <time>2019-08-09T08:13:11Z</time>
      </trkpt>
      <trkpt lat="44.12688" lon="5.82875">
        <ele>1125</ele>
        <time>2019-08-09T08:13:12Z</time>
      </trkpt>
      <trkpt lat="44.12687" lon="5.82871">
        <ele>1125</ele>
        <time>2019-08-09T08:13:13Z</time>
      </trkpt>
      <trkpt lat="44.12686" lon="5.82868">
        <ele>1125</ele>
        <time>2019-08-09T08:13:14Z</time>
      </trkpt>
      <trkpt lat="44.12685" lon="5.82866">
        <ele>1125</ele>
        <time>2019-08-09T08:13:15Z</time>
      </trkpt>
      <trkpt lat="44.12685" lon="5.82864">
        <ele>1125</ele>
        <time>2019-08-09T08:13:16Z</time>
      </trkpt>
      <trkpt lat="44.12684" lon="5.82861">
        <ele>1125</ele>
        <time>2019-08-09T08:13:17Z</time>
      </trkpt>
      <trkpt lat="44.12683" lon="5.82857">
        <ele>1125</ele>
        <time>2019-08-09T08:13:18Z</time>
      </trkpt>
      <trkpt lat="44.12681" lon="5.82854">
        <ele>1125</ele>
        <time>2019-08-09T08:13:19Z</time>
      </trkpt>
      <trkpt lat="44.1268" lon="5.82852">
        <ele>1125</ele>
        <time>2019-08-09T08:13:20Z</time>
      </trkpt>
      <trkpt lat="44.12679" lon="5.82849">
        <ele>1125</ele>
        <time>2019-08-09T08:13:21Z</time>
      </trkpt>
      <trkpt lat="44.12678" lon="5.82846">
        <ele>1125</ele>
        <time>2019-08-09T08:13:22Z</time>
      </trkpt>
      <trkpt lat="44.12678" lon="5.82842">
        <ele>1125</ele>
        <time>2019-08-09T08:13:23Z</time>
      </trkpt>
      <trkpt lat="44.12677" lon="5.82838">
        <ele>1125</ele>
        <time>2019-08-09T08:13:24Z</time>
      </trkpt>
      <trkpt lat="44.12677" lon="5.82834">
        <ele>1125</ele>
        <time>2019-08-09T08:13:25Z</time>
      </trkpt>
      <trkpt lat="44.12677" lon="5.82831">
        <ele>1125</ele>
        <time>2019-08-09T08:13:26Z</time>
      </trkpt>
      <trkpt lat="44.12679" lon="5.82828">
        <ele>1125</ele>
        <time>2019-08-09T08:13:27Z</time>
      </trkpt>
      <trkpt lat="44.12681" lon="5.82824">
        <ele>1126</ele>
        <time>2019-08-09T08:13:28Z</time>
      </trkpt>
      <trkpt lat="44.12684" lon="5.82821">
        <ele>1127</ele>
        <time>2019-08-09T08:13:29Z</time>
      </trkpt>
      <trkpt lat="44.12687" lon="5.82818">
        <ele>1128</ele>
        <time>2019-08-09T08:13:30Z</time>
      </trkpt>
      <trkpt lat="44.12688" lon="5.82815">
        <ele>1129</ele>
        <time>2019-08-09T08:13:31Z</time>
      </trkpt>
      <trkpt lat="44.12689" lon="5.82813">
        <ele>1130</ele>
        <time>2019-08-09T08:13:32Z</time>
      </trkpt>
      <trkpt lat="44.1269" lon="5.8281">
        <ele>1131</ele>
        <time>2019-08-09T08:13:33Z</time>
      </trkpt>
      <trkpt lat="44.12692" lon="5.82808">
        <ele>1132</ele>
        <time>2019-08-09T08:13:34Z</time>
      </trkpt>
      <trkpt lat="44.12693" lon="5.82805">
        <ele>1133</ele>
        <time>2019-08-09T08:13:35Z</time>
      </trkpt>
      <trkpt lat="44.12694" lon="5.82802">
        <ele>1134</ele>
        <time>2019-08-09T08:13:36Z</time>
      </trkpt>
      <trkpt lat="44.12695" lon="5.82799">
        <ele>1135</ele>
        <time>2019-08-09T08:13:37Z</time>
      </trkpt>
      <trkpt lat="44.12695" lon="5.82796">
        <ele>1136</ele>
        <time>2019-08-09T08:13:38Z</time>
      </trkpt>
      <trkpt lat="44.12696" lon="5.82792">
        <ele>1137</ele>
        <time>2019-08-09T08:13:39Z</time>
      </trkpt>
      <trkpt lat="44.12696" lon="5.82788">
        <ele>1138</ele>
        <time>2019-08-09T08:13:40Z</time>
      </trkpt>
      <trkpt lat="44.12696" lon="5.82784">
        <ele>1139</ele>
        <time>2019-08-09T08:13:41Z</time>
      </trkpt>
      <trkpt lat="44.12696" lon="5.82779">
        <ele>1140</ele>
        <time>2019-08-09T08:13:42Z</time>
      </trkpt>
      <trkpt lat="44.12695" lon="5.82774">
        <ele>1140</ele>
        <time>2019-08-09T08:13:43Z</time>
      </trkpt>
      <trkpt lat="44.12695" lon="5.82771">
        <ele>1140</ele>
        <time>2019-08-09T08:13:44Z</time>
      </trkpt>
      <trkpt lat="44.12693" lon="5.82768">
        <ele>1140</ele>
        <time>2019-08-09T08:13:45Z</time>
      </trkpt>
      <trkpt lat="44.12693" lon="5.82766">
        <ele>1140</ele>
        <time>2019-08-09T08:13:46Z</time>
      </trkpt>
      <trkpt lat="44.12694" lon="5.82762">
        <ele>1140</ele>
        <time>2019-08-09T08:13:47Z</time>
      </trkpt>
      <trkpt lat="44.12695" lon="5.82759">
        <ele>1140</ele>
        <time>2019-08-09T08:13:48Z</time>
      </trkpt>
      <trkpt lat="44.12695" lon="5.82756">
        <ele>1140</ele>
        <time>2019-08-09T08:13:49Z</time>
      </trkpt>
      <trkpt lat="44.12697" lon="5.82753">
        <ele>1140</ele>
        <time>2019-08-09T08:13:50Z</time>
      </trkpt>
      <trkpt lat="44.12696" lon="5.8275">
        <ele>1140</ele>
        <time>2019-08-09T08:13:51Z</time>
      </trkpt>
      <trkpt lat="44.12696" lon="5.82747">
        <ele>1140</ele>
        <time>2019-08-09T08:13:52Z</time>
      </trkpt>
      <trkpt lat="44.12696" lon="5.82744">
        <ele>1140</ele>
        <time>2019-08-09T08:13:53Z</time>
      </trkpt>
      <trkpt lat="44.12696" lon="5.8274">
        <ele>1140</ele>
        <time>2019-08-09T08:13:54Z</time>
      </trkpt>
      <trkpt lat="44.12697" lon="5.82737">
        <ele>1140</ele>
        <time>2019-08-09T08:13:55Z</time>
      </trkpt>
      <trkpt lat="44.12698" lon="5.82733">
        <ele>1140</ele>
        <time>2019-08-09T08:13:56Z</time>
      </trkpt>
      <trkpt lat="44.12699" lon="5.8273">
        <ele>1140</ele>
        <time>2019-08-09T08:13:57Z</time>
      </trkpt>
      <trkpt lat="44.12699" lon="5.82728">
        <ele>1140</ele>
        <time>2019-08-09T08:13:58Z</time>
      </trkpt>
      <trkpt lat="44.127" lon="5.82724">
        <ele>1140</ele>
        <time>2019-08-09T08:13:59Z</time>
      </trkpt>
      <trkpt lat="44.127" lon="5.8272">
        <ele>1140</ele>
        <time>2019-08-09T08:14:00Z</time>
      </trkpt>
      <trkpt lat="44.12701" lon="5.82718">
        <ele>1140</ele>
        <time>2019-08-09T08:14:01Z</time>
      </trkpt>
      <trkpt lat="44.12703" lon="5.82715">
        <ele>1140</ele>
        <time>2019-08-09T08:14:02Z</time>
      </trkpt>
      <trkpt lat="44.12705" lon="5.82713">
        <ele>1140</ele>
        <time>2019-08-09T08:14:03Z</time>
      </trkpt>
      <trkpt lat="44.12706" lon="5.8271">
        <ele>1140</ele>
        <time>2019-08-09T08:14:04Z</time>
      </trkpt>
      <trkpt lat="44.12708" lon="5.82706">
        <ele>1140</ele>
        <time>2019-08-09T08:14:05Z</time>
      </trkpt>
      <trkpt lat="44.12709" lon="5.82704">
        <ele>1140</ele>
        <time>2019-08-09T08:14:06Z</time>
      </trkpt>
      <trkpt lat="44.12711" lon="5.82702">
        <ele>1140</ele>
        <time>2019-08-09T08:14:07Z</time>
      </trkpt>
      <trkpt lat="44.12713" lon="5.82699">
        <ele>1140</ele>
        <time>2019-08-09T08:14:08Z</time>
      </trkpt>
      <trkpt lat="44.12715" lon="5.82697">
        <ele>1140</ele>
        <time>2019-08-09T08:14:09Z</time>
      </trkpt>
      <trkpt lat="44.12718" lon="5.82694">
        <ele>1141</ele>
        <time>2019-08-09T08:14:10Z</time>
      </trkpt>
      <trkpt lat="44.1272" lon="5.82691">
        <ele>1142</ele>
        <time>2019-08-09T08:14:11Z</time>
      </trkpt>
      <trkpt lat="44.12721" lon="5.82688">
        <ele>1142</ele>
        <time>2019-08-09T08:14:12Z</time>
      </trkpt>
      <trkpt lat="44.12722" lon="5.82685">
        <ele>1143</ele>
        <time>2019-08-09T08:14:13Z</time>
      </trkpt>
      <trkpt lat="44.12723" lon="5.82683">
        <ele>1143</ele>
        <time>2019-08-09T08:14:14Z</time>
      </trkpt>
      <trkpt lat="44.12725" lon="5.8268">
        <ele>1143</ele>
        <time>2019-08-09T08:14:15Z</time>
      </trkpt>
      <trkpt lat="44.12727" lon="5.82677">
        <ele>1143</ele>
        <time>2019-08-09T08:14:16Z</time>
      </trkpt>
      <trkpt lat="44.12727" lon="5.82674">
        <ele>1143</ele>
        <time>2019-08-09T08:14:17Z</time>
      </trkpt>
      <trkpt lat="44.12728" lon="5.82672">
        <ele>1143</ele>
        <time>2019-08-09T08:14:18Z</time>
      </trkpt>
      <trkpt lat="44.12729" lon="5.82669">
        <ele>1143</ele>
        <time>2019-08-09T08:14:19Z</time>
      </trkpt>
      <trkpt lat="44.1273" lon="5.82666">
        <ele>1143</ele>
        <time>2019-08-09T08:14:20Z</time>
      </trkpt>
      <trkpt lat="44.12731" lon="5.82664">
        <ele>1143</ele>
        <time>2019-08-09T08:14:21Z</time>
      </trkpt>
      <trkpt lat="44.12733" lon="5.82661">
        <ele>1143</ele>
        <time>2019-08-09T08:14:22Z</time>
      </trkpt>
      <trkpt lat="44.12734" lon="5.82659">
        <ele>1143</ele>
        <time>2019-08-09T08:14:23Z</time>
      </trkpt>
      <trkpt lat="44.12735" lon="5.82657">
        <ele>1142</ele>
        <time>2019-08-09T08:14:24Z</time>
      </trkpt>
      <trkpt lat="44.12736" lon="5.82655">
        <ele>1142</ele>
        <time>2019-08-09T08:14:25Z</time>
      </trkpt>
      <trkpt lat="44.12738" lon="5.82654">
        <ele>1141</ele>
        <time>2019-08-09T08:14:26Z</time>
      </trkpt>
      <trkpt lat="44.1274" lon="5.82654">
        <ele>1141</ele>
        <time>2019-08-09T08:14:27Z</time>
      </trkpt>
      <trkpt lat="44.12742" lon="5.82654">
        <ele>1141</ele>
        <time>2019-08-09T08:14:28Z</time>
      </trkpt>
      <trkpt lat="44.12745" lon="5.82652">
        <ele>1141</ele>
        <time>2019-08-09T08:14:29Z</time>
      </trkpt>
      <trkpt lat="44.12747" lon="5.82651">
        <ele>1141</ele>
        <time>2019-08-09T08:14:30Z</time>
      </trkpt>
      <trkpt lat="44.12749" lon="5.82651">
        <ele>1141</ele>
        <time>2019-08-09T08:14:31Z</time>
      </trkpt>
      <trkpt lat="44.12751" lon="5.82652">
        <ele>1141</ele>
        <time>2019-08-09T08:14:32Z</time>
      </trkpt>
      <trkpt lat="44.12754" lon="5.82652">
        <ele>1141</ele>
        <time>2019-08-09T08:14:33Z</time>
      </trkpt>
      <trkpt lat="44.12756" lon="5.82652">
        <ele>1141</ele>
        <time>2019-08-09T08:14:34Z</time>
      </trkpt>
      <trkpt lat="44.12759" lon="5.82652">
        <ele>1141</ele>
        <time>2019-08-09T08:14:35Z</time>
      </trkpt>
      <trkpt lat="44.12762" lon="5.82652">
        <ele>1141</ele>
        <time>2019-08-09T08:14:36Z</time>
      </trkpt>
      <trkpt lat="44.12764" lon="5.82653">
        <ele>1141</ele>
        <time>2019-08-09T08:14:37Z</time>
      </trkpt>
      <trkpt lat="44.12767" lon="5.82653">
        <ele>1141</ele>
        <time>2019-08-09T08:14:38Z</time>
      </trkpt>
      <trkpt lat="44.1277" lon="5.82652">
        <ele>1141</ele>
        <time>2019-08-09T08:14:39Z</time>
      </trkpt>
      <trkpt lat="44.12772" lon="5.82652">
        <ele>1141</ele>
        <time>2019-08-09T08:14:40Z</time>
      </trkpt>
      <trkpt lat="44.12775" lon="5.82651">
        <ele>1141</ele>
        <time>2019-08-09T08:14:41Z</time>
      </trkpt>
      <trkpt lat="44.12778" lon="5.8265">
        <ele>1142</ele>
        <time>2019-08-09T08:14:42Z</time>
      </trkpt>
      <trkpt lat="44.1278" lon="5.82647">
        <ele>1142</ele>
        <time>2019-08-09T08:14:43Z</time>
      </trkpt>
      <trkpt lat="44.12782" lon="5.82644">
        <ele>1142</ele>
        <time>2019-08-09T08:14:44Z</time>
      </trkpt>
      <trkpt lat="44.12785" lon="5.82641">
        <ele>1142</ele>
        <time>2019-08-09T08:14:45Z</time>
      </trkpt>
      <trkpt lat="44.12787" lon="5.82637">
        <ele>1142</ele>
        <time>2019-08-09T08:14:46Z</time>
      </trkpt>
      <trkpt lat="44.12789" lon="5.82634">
        <ele>1142</ele>
        <time>2019-08-09T08:14:47Z</time>
      </trkpt>
      <trkpt lat="44.12791" lon="5.82631">
        <ele>1142</ele>
        <time>2019-08-09T08:14:48Z</time>
      </trkpt>
      <trkpt lat="44.12792" lon="5.82627">
        <ele>1142</ele>
        <time>2019-08-09T08:14:49Z</time>
      </trkpt>
      <trkpt lat="44.12793" lon="5.82623">
        <ele>1142</ele>
        <time>2019-08-09T08:14:50Z</time>
      </trkpt>
      <trkpt lat="44.12795" lon="5.8262">
        <ele>1142</ele>
        <time>2019-08-09T08:14:51Z</time>
      </trkpt>
      <trkpt lat="44.12796" lon="5.82616">
        <ele>1142</ele>
        <time>2019-08-09T08:14:52Z</time>
      </trkpt>
      <trkpt lat="44.12797" lon="5.82612">
        <ele>1142</ele>
        <time>2019-08-09T08:14:53Z</time>
      </trkpt>
      <trkpt lat="44.12798" lon="5.82609">
        <ele>1142</ele>
        <time>2019-08-09T08:14:54Z</time>
      </trkpt>
      <trkpt lat="44.12798" lon="5.82606">
        <ele>1142</ele>
        <time>2019-08-09T08:14:55Z</time>
      </trkpt>
      <trkpt lat="44.128" lon="5.82602">
        <ele>1142</ele>
        <time>2019-08-09T08:14:56Z</time>
      </trkpt>
      <trkpt lat="44.12801" lon="5.82598">
        <ele>1142</ele>
        <time>2019-08-09T08:14:57Z</time>
      </trkpt>
      <trkpt lat="44.12801" lon="5.82594">
        <ele>1142</ele>
        <time>2019-08-09T08:14:58Z</time>
      </trkpt>
      <trkpt lat="44.12801" lon="5.8259">
        <ele>1142</ele>
        <time>2019-08-09T08:14:59Z</time>
      </trkpt>
      <trkpt lat="44.12802" lon="5.82585">
        <ele>1142</ele>
        <time>2019-08-09T08:15:00Z</time>
      </trkpt>
      <trkpt lat="44.12802" lon="5.82581">
        <ele>1142</ele>
        <time>2019-08-09T08:15:01Z</time>
      </trkpt>
      <trkpt lat="44.12802" lon="5.82576">
        <ele>1142</ele>
        <time>2019-08-09T08:15:02Z</time>
      </trkpt>
      <trkpt lat="44.12802" lon="5.82572">
        <ele>1142</ele>
        <time>2019-08-09T08:15:03Z</time>
      </trkpt>
      <trkpt lat="44.12803" lon="5.82568">
        <ele>1142</ele>
        <time>2019-08-09T08:15:04Z</time>
      </trkpt>
      <trkpt lat="44.12803" lon="5.82564">
        <ele>1142</ele>
        <time>2019-08-09T08:15:05Z</time>
      </trkpt>
      <trkpt lat="44.12803" lon="5.82561">
        <ele>1142</ele>
        <time>2019-08-09T08:15:06Z</time>
      </trkpt>
      <trkpt lat="44.12804" lon="5.82557">
        <ele>1142</ele>
        <time>2019-08-09T08:15:07Z</time>
      </trkpt>
      <trkpt lat="44.12804" lon="5.82554">
        <ele>1142</ele>
        <time>2019-08-09T08:15:08Z</time>
      </trkpt>
      <trkpt lat="44.12804" lon="5.8255">
        <ele>1142</ele>
        <time>2019-08-09T08:15:09Z</time>
      </trkpt>
      <trkpt lat="44.12803" lon="5.82545">
        <ele>1142</ele>
        <time>2019-08-09T08:15:10Z</time>
      </trkpt>
      <trkpt lat="44.12802" lon="5.82541">
        <ele>1142</ele>
        <time>2019-08-09T08:15:11Z</time>
      </trkpt>
      <trkpt lat="44.12801" lon="5.82537">
        <ele>1142</ele>
        <time>2019-08-09T08:15:12Z</time>
      </trkpt>
      <trkpt lat="44.12802" lon="5.82533">
        <ele>1143</ele>
        <time>2019-08-09T08:15:13Z</time>
      </trkpt>
      <trkpt lat="44.12803" lon="5.82529">
        <ele>1143</ele>
        <time>2019-08-09T08:15:14Z</time>
      </trkpt>
      <trkpt lat="44.12804" lon="5.82525">
        <ele>1144</ele>
        <time>2019-08-09T08:15:15Z</time>
      </trkpt>
      <trkpt lat="44.12804" lon="5.82522">
        <ele>1144</ele>
        <time>2019-08-09T08:15:16Z</time>
      </trkpt>
      <trkpt lat="44.12806" lon="5.82519">
        <ele>1145</ele>
        <time>2019-08-09T08:15:17Z</time>
      </trkpt>
      <trkpt lat="44.12807" lon="5.82515">
        <ele>1146</ele>
        <time>2019-08-09T08:15:18Z</time>
      </trkpt>
      <trkpt lat="44.12807" lon="5.82511">
        <ele>1147</ele>
        <time>2019-08-09T08:15:19Z</time>
      </trkpt>
      <trkpt lat="44.12808" lon="5.82508">
        <ele>1148</ele>
        <time>2019-08-09T08:15:20Z</time>
      </trkpt>
      <trkpt lat="44.12808" lon="5.82506">
        <ele>1149</ele>
        <time>2019-08-09T08:15:21Z</time>
      </trkpt>
      <trkpt lat="44.12807" lon="5.82505">
        <ele>1151</ele>
        <time>2019-08-09T08:15:23Z</time>
      </trkpt>
      <trkpt lat="44.12807" lon="5.82503">
        <ele>1152</ele>
        <time>2019-08-09T08:15:24Z</time>
      </trkpt>
      <trkpt lat="44.12807" lon="5.82499">
        <ele>1153</ele>
        <time>2019-08-09T08:15:25Z</time>
      </trkpt>
      <trkpt lat="44.12808" lon="5.82494">
        <ele>1154</ele>
        <time>2019-08-09T08:15:26Z</time>
      </trkpt>
      <trkpt lat="44.12809" lon="5.82488">
        <ele>1155</ele>
        <time>2019-08-09T08:15:27Z</time>
      </trkpt>
      <trkpt lat="44.12809" lon="5.82484">
        <ele>1155</ele>
        <time>2019-08-09T08:15:28Z</time>
      </trkpt>
      <trkpt lat="44.12809" lon="5.82481">
        <ele>1155</ele>
        <time>2019-08-09T08:15:29Z</time>
      </trkpt>
      <trkpt lat="44.12811" lon="5.82477">
        <ele>1155</ele>
        <time>2019-08-09T08:15:30Z</time>
      </trkpt>
      <trkpt lat="44.12811" lon="5.82473">
        <ele>1155</ele>
        <time>2019-08-09T08:15:31Z</time>
      </trkpt>
      <trkpt lat="44.12813" lon="5.82469">
        <ele>1155</ele>
        <time>2019-08-09T08:15:32Z</time>
      </trkpt>
      <trkpt lat="44.12814" lon="5.82465">
        <ele>1156</ele>
        <time>2019-08-09T08:15:33Z</time>
      </trkpt>
      <trkpt lat="44.12815" lon="5.82462">
        <ele>1156</ele>
        <time>2019-08-09T08:15:34Z</time>
      </trkpt>
      <trkpt lat="44.12816" lon="5.82458">
        <ele>1157</ele>
        <time>2019-08-09T08:15:35Z</time>
      </trkpt>
      <trkpt lat="44.12817" lon="5.82455">
        <ele>1157</ele>
        <time>2019-08-09T08:15:36Z</time>
      </trkpt>
      <trkpt lat="44.12819" lon="5.82452">
        <ele>1157</ele>
        <time>2019-08-09T08:15:37Z</time>
      </trkpt>
      <trkpt lat="44.1282" lon="5.82449">
        <ele>1157</ele>
        <time>2019-08-09T08:15:38Z</time>
      </trkpt>
      <trkpt lat="44.12822" lon="5.82446">
        <ele>1157</ele>
        <time>2019-08-09T08:15:39Z</time>
      </trkpt>
      <trkpt lat="44.12824" lon="5.82442">
        <ele>1157</ele>
        <time>2019-08-09T08:15:40Z</time>
      </trkpt>
      <trkpt lat="44.12826" lon="5.8244">
        <ele>1157</ele>
        <time>2019-08-09T08:15:41Z</time>
      </trkpt>
      <trkpt lat="44.12827" lon="5.82437">
        <ele>1157</ele>
        <time>2019-08-09T08:15:42Z</time>
      </trkpt>
      <trkpt lat="44.1283" lon="5.82434">
        <ele>1157</ele>
        <time>2019-08-09T08:15:43Z</time>
      </trkpt>
      <trkpt lat="44.12832" lon="5.82432">
        <ele>1157</ele>
        <time>2019-08-09T08:15:44Z</time>
      </trkpt>
      <trkpt lat="44.12832" lon="5.82429">
        <ele>1157</ele>
        <time>2019-08-09T08:15:45Z</time>
      </trkpt>
      <trkpt lat="44.12833" lon="5.82427">
        <ele>1157</ele>
        <time>2019-08-09T08:15:46Z</time>
      </trkpt>
      <trkpt lat="44.12836" lon="5.82425">
        <ele>1157</ele>
        <time>2019-08-09T08:15:47Z</time>
      </trkpt>
      <trkpt lat="44.12838" lon="5.82424">
        <ele>1157</ele>
        <time>2019-08-09T08:15:48Z</time>
      </trkpt>
      <trkpt lat="44.12841" lon="5.82423">
        <ele>1157</ele>
        <time>2019-08-09T08:15:49Z</time>
      </trkpt>
      <trkpt lat="44.12843" lon="5.82423">
        <ele>1158</ele>
        <time>2019-08-09T08:15:50Z</time>
      </trkpt>
      <trkpt lat="44.12845" lon="5.82424">
        <ele>1159</ele>
        <time>2019-08-09T08:15:51Z</time>
      </trkpt>
      <trkpt lat="44.12848" lon="5.82425">
        <ele>1159</ele>
        <time>2019-08-09T08:15:52Z</time>
      </trkpt>
      <trkpt lat="44.12851" lon="5.82425">
        <ele>1160</ele>
        <time>2019-08-09T08:15:53Z</time>
      </trkpt>
      <trkpt lat="44.12854" lon="5.82426">
        <ele>1161</ele>
        <time>2019-08-09T08:15:54Z</time>
      </trkpt>
      <trkpt lat="44.12857" lon="5.82427">
        <ele>1162</ele>
        <time>2019-08-09T08:15:55Z</time>
      </trkpt>
      <trkpt lat="44.1286" lon="5.82428">
        <ele>1163</ele>
        <time>2019-08-09T08:15:56Z</time>
      </trkpt>
      <trkpt lat="44.12862" lon="5.82428">
        <ele>1164</ele>
        <time>2019-08-09T08:15:57Z</time>
      </trkpt>
      <trkpt lat="44.12863" lon="5.82427">
        <ele>1164</ele>
        <time>2019-08-09T08:15:58Z</time>
      </trkpt>
      <trkpt lat="44.12865" lon="5.82428">
        <ele>1164</ele>
        <time>2019-08-09T08:15:59Z</time>
      </trkpt>
      <trkpt lat="44.12867" lon="5.82428">
        <ele>1164</ele>
        <time>2019-08-09T08:16:00Z</time>
      </trkpt>
      <trkpt lat="44.1287" lon="5.82428">
        <ele>1164</ele>
        <time>2019-08-09T08:16:01Z</time>
      </trkpt>
      <trkpt lat="44.12872" lon="5.82428">
        <ele>1164</ele>
        <time>2019-08-09T08:16:02Z</time>
      </trkpt>
      <trkpt lat="44.12874" lon="5.82428">
        <ele>1164</ele>
        <time>2019-08-09T08:16:03Z</time>
      </trkpt>
      <trkpt lat="44.12876" lon="5.82427">
        <ele>1164</ele>
        <time>2019-08-09T08:16:04Z</time>
      </trkpt>
      <trkpt lat="44.12879" lon="5.82427">
        <ele>1164</ele>
        <time>2019-08-09T08:16:05Z</time>
      </trkpt>
      <trkpt lat="44.12881" lon="5.82424">
        <ele>1164</ele>
        <time>2019-08-09T08:16:06Z</time>
      </trkpt>
      <trkpt lat="44.12884" lon="5.82422">
        <ele>1164</ele>
        <time>2019-08-09T08:16:07Z</time>
      </trkpt>
      <trkpt lat="44.12887" lon="5.8242">
        <ele>1164</ele>
        <time>2019-08-09T08:16:08Z</time>
      </trkpt>
      <trkpt lat="44.12889" lon="5.82417">
        <ele>1164</ele>
        <time>2019-08-09T08:16:09Z</time>
      </trkpt>
      <trkpt lat="44.12891" lon="5.82414">
        <ele>1164</ele>
        <time>2019-08-09T08:16:10Z</time>
      </trkpt>
      <trkpt lat="44.12894" lon="5.82411">
        <ele>1164</ele>
        <time>2019-08-09T08:16:11Z</time>
      </trkpt>
      <trkpt lat="44.12896" lon="5.82407">
        <ele>1164</ele>
        <time>2019-08-09T08:16:12Z</time>
      </trkpt>
      <trkpt lat="44.12898" lon="5.82403">
        <ele>1164</ele>
        <time>2019-08-09T08:16:13Z</time>
      </trkpt>
      <trkpt lat="44.12899" lon="5.82399">
        <ele>1163</ele>
        <time>2019-08-09T08:16:14Z</time>
      </trkpt>
      <trkpt lat="44.12901" lon="5.82396">
        <ele>1163</ele>
        <time>2019-08-09T08:16:15Z</time>
      </trkpt>
      <trkpt lat="44.12902" lon="5.82392">
        <ele>1162</ele>
        <time>2019-08-09T08:16:16Z</time>
      </trkpt>
      <trkpt lat="44.12903" lon="5.82387">
        <ele>1162</ele>
        <time>2019-08-09T08:16:17Z</time>
      </trkpt>
      <trkpt lat="44.12903" lon="5.82383">
        <ele>1161</ele>
        <time>2019-08-09T08:16:18Z</time>
      </trkpt>
      <trkpt lat="44.12904" lon="5.82379">
        <ele>1161</ele>
        <time>2019-08-09T08:16:19Z</time>
      </trkpt>
      <trkpt lat="44.12905" lon="5.82375">
        <ele>1160</ele>
        <time>2019-08-09T08:16:20Z</time>
      </trkpt>
      <trkpt lat="44.12907" lon="5.82373">
        <ele>1160</ele>
        <time>2019-08-09T08:16:21Z</time>
      </trkpt>
      <trkpt lat="44.12907" lon="5.8237">
        <ele>1160</ele>
        <time>2019-08-09T08:16:22Z</time>
      </trkpt>
      <trkpt lat="44.12908" lon="5.82367">
        <ele>1160</ele>
        <time>2019-08-09T08:16:23Z</time>
      </trkpt>
      <trkpt lat="44.12908" lon="5.82362">
        <ele>1160</ele>
        <time>2019-08-09T08:16:24Z</time>
      </trkpt>
      <trkpt lat="44.12909" lon="5.82358">
        <ele>1160</ele>
        <time>2019-08-09T08:16:25Z</time>
      </trkpt>
      <trkpt lat="44.12909" lon="5.82353">
        <ele>1160</ele>
        <time>2019-08-09T08:16:26Z</time>
      </trkpt>
      <trkpt lat="44.1291" lon="5.82351">
        <ele>1160</ele>
        <time>2019-08-09T08:16:27Z</time>
      </trkpt>
      <trkpt lat="44.12911" lon="5.82348">
        <ele>1160</ele>
        <time>2019-08-09T08:16:28Z</time>
      </trkpt>
      <trkpt lat="44.12912" lon="5.82345">
        <ele>1160</ele>
        <time>2019-08-09T08:16:29Z</time>
      </trkpt>
      <trkpt lat="44.12912" lon="5.82341">
        <ele>1160</ele>
        <time>2019-08-09T08:16:30Z</time>
      </trkpt>
      <trkpt lat="44.12912" lon="5.82338">
        <ele>1160</ele>
        <time>2019-08-09T08:16:31Z</time>
      </trkpt>
      <trkpt lat="44.12913" lon="5.82335">
        <ele>1160</ele>
        <time>2019-08-09T08:16:32Z</time>
      </trkpt>
      <trkpt lat="44.12913" lon="5.82332">
        <ele>1160</ele>
        <time>2019-08-09T08:16:33Z</time>
      </trkpt>
      <trkpt lat="44.12914" lon="5.82328">
        <ele>1160</ele>
        <time>2019-08-09T08:16:34Z</time>
      </trkpt>
      <trkpt lat="44.12914" lon="5.82324">
        <ele>1160</ele>
        <time>2019-08-09T08:16:35Z</time>
      </trkpt>
      <trkpt lat="44.12915" lon="5.82321">
        <ele>1160</ele>
        <time>2019-08-09T08:16:36Z</time>
      </trkpt>
      <trkpt lat="44.12916" lon="5.82318">
        <ele>1160</ele>
        <time>2019-08-09T08:16:37Z</time>
      </trkpt>
      <trkpt lat="44.12917" lon="5.82314">
        <ele>1160</ele>
        <time>2019-08-09T08:16:38Z</time>
      </trkpt>
      <trkpt lat="44.12916" lon="5.82309">
        <ele>1160</ele>
        <time>2019-08-09T08:16:39Z</time>
      </trkpt>
      <trkpt lat="44.12917" lon="5.82306">
        <ele>1161</ele>
        <time>2019-08-09T08:16:40Z</time>
      </trkpt>
      <trkpt lat="44.12917" lon="5.82303">
        <ele>1162</ele>
        <time>2019-08-09T08:16:41Z</time>
      </trkpt>
      <trkpt lat="44.12915" lon="5.82301">
        <ele>1162</ele>
        <time>2019-08-09T08:16:42Z</time>
      </trkpt>
      <trkpt lat="44.12915" lon="5.82297">
        <ele>1163</ele>
        <time>2019-08-09T08:16:43Z</time>
      </trkpt>
      <trkpt lat="44.12915" lon="5.82293">
        <ele>1164</ele>
        <time>2019-08-09T08:16:44Z</time>
      </trkpt>
      <trkpt lat="44.12915" lon="5.82291">
        <ele>1164</ele>
        <time>2019-08-09T08:16:45Z</time>
      </trkpt>
      <trkpt lat="44.12914" lon="5.82288">
        <ele>1165</ele>
        <time>2019-08-09T08:16:46Z</time>
      </trkpt>
      <trkpt lat="44.12914" lon="5.82285">
        <ele>1166</ele>
        <time>2019-08-09T08:16:47Z</time>
      </trkpt>
      <trkpt lat="44.12913" lon="5.82283">
        <ele>1166</ele>
        <time>2019-08-09T08:16:48Z</time>
      </trkpt>
      <trkpt lat="44.12912" lon="5.82279">
        <ele>1166</ele>
        <time>2019-08-09T08:16:49Z</time>
      </trkpt>
      <trkpt lat="44.12913" lon="5.82274">
        <ele>1167</ele>
        <time>2019-08-09T08:16:50Z</time>
      </trkpt>
      <trkpt lat="44.12914" lon="5.82268">
        <ele>1167</ele>
        <time>2019-08-09T08:16:51Z</time>
      </trkpt>
      <trkpt lat="44.12915" lon="5.82264">
        <ele>1167</ele>
        <time>2019-08-09T08:16:52Z</time>
      </trkpt>
      <trkpt lat="44.12916" lon="5.82259">
        <ele>1167</ele>
        <time>2019-08-09T08:16:53Z</time>
      </trkpt>
      <trkpt lat="44.12917" lon="5.82254">
        <ele>1167</ele>
        <time>2019-08-09T08:16:54Z</time>
      </trkpt>
      <trkpt lat="44.12918" lon="5.8225">
        <ele>1167</ele>
        <time>2019-08-09T08:16:55Z</time>
      </trkpt>
      <trkpt lat="44.12919" lon="5.82247">
        <ele>1167</ele>
        <time>2019-08-09T08:16:56Z</time>
      </trkpt>
      <trkpt lat="44.1292" lon="5.82243">
        <ele>1167</ele>
        <time>2019-08-09T08:16:57Z</time>
      </trkpt>
      <trkpt lat="44.1292" lon="5.82239">
        <ele>1167</ele>
        <time>2019-08-09T08:16:58Z</time>
      </trkpt>
      <trkpt lat="44.1292" lon="5.82235">
        <ele>1168</ele>
        <time>2019-08-09T08:16:59Z</time>
      </trkpt>
      <trkpt lat="44.1292" lon="5.82231">
        <ele>1168</ele>
        <time>2019-08-09T08:17:00Z</time>
      </trkpt>
      <trkpt lat="44.1292" lon="5.82227">
        <ele>1168</ele>
        <time>2019-08-09T08:17:01Z</time>
      </trkpt>
      <trkpt lat="44.1292" lon="5.82223">
        <ele>1168</ele>
        <time>2019-08-09T08:17:02Z</time>
      </trkpt>
      <trkpt lat="44.12921" lon="5.82219">
        <ele>1168</ele>
        <time>2019-08-09T08:17:03Z</time>
      </trkpt>
      <trkpt lat="44.1292" lon="5.82216">
        <ele>1169</ele>
        <time>2019-08-09T08:17:04Z</time>
      </trkpt>
      <trkpt lat="44.1292" lon="5.82211">
        <ele>1170</ele>
        <time>2019-08-09T08:17:05Z</time>
      </trkpt>
      <trkpt lat="44.1292" lon="5.82207">
        <ele>1171</ele>
        <time>2019-08-09T08:17:06Z</time>
      </trkpt>
      <trkpt lat="44.1292" lon="5.82202">
        <ele>1172</ele>
        <time>2019-08-09T08:17:07Z</time>
      </trkpt>
      <trkpt lat="44.1292" lon="5.82197">
        <ele>1173</ele>
        <time>2019-08-09T08:17:08Z</time>
      </trkpt>
      <trkpt lat="44.12919" lon="5.82194">
        <ele>1173</ele>
        <time>2019-08-09T08:17:09Z</time>
      </trkpt>
      <trkpt lat="44.12918" lon="5.8219">
        <ele>1174</ele>
        <time>2019-08-09T08:17:10Z</time>
      </trkpt>
      <trkpt lat="44.12918" lon="5.82187">
        <ele>1174</ele>
        <time>2019-08-09T08:17:11Z</time>
      </trkpt>
      <trkpt lat="44.12918" lon="5.82184">
        <ele>1175</ele>
        <time>2019-08-09T08:17:12Z</time>
      </trkpt>
      <trkpt lat="44.12918" lon="5.82181">
        <ele>1175</ele>
        <time>2019-08-09T08:17:13Z</time>
      </trkpt>
      <trkpt lat="44.12917" lon="5.82177">
        <ele>1176</ele>
        <time>2019-08-09T08:17:14Z</time>
      </trkpt>
      <trkpt lat="44.12918" lon="5.82174">
        <ele>1177</ele>
        <time>2019-08-09T08:17:15Z</time>
      </trkpt>
      <trkpt lat="44.12919" lon="5.8217">
        <ele>1177</ele>
        <time>2019-08-09T08:17:16Z</time>
      </trkpt>
      <trkpt lat="44.1292" lon="5.82165">
        <ele>1177</ele>
        <time>2019-08-09T08:17:17Z</time>
      </trkpt>
      <trkpt lat="44.12921" lon="5.8216">
        <ele>1178</ele>
        <time>2019-08-09T08:17:18Z</time>
      </trkpt>
      <trkpt lat="44.12923" lon="5.82157">
        <ele>1178</ele>
        <time>2019-08-09T08:17:19Z</time>
      </trkpt>
      <trkpt lat="44.12926" lon="5.82153">
        <ele>1178</ele>
        <time>2019-08-09T08:17:20Z</time>
      </trkpt>
      <trkpt lat="44.12928" lon="5.8215">
        <ele>1178</ele>
        <time>2019-08-09T08:17:21Z</time>
      </trkpt>
      <trkpt lat="44.12931" lon="5.82148">
        <ele>1178</ele>
        <time>2019-08-09T08:17:22Z</time>
      </trkpt>
      <trkpt lat="44.12933" lon="5.82145">
        <ele>1179</ele>
        <time>2019-08-09T08:17:23Z</time>
      </trkpt>
      <trkpt lat="44.12935" lon="5.82141">
        <ele>1179</ele>
        <time>2019-08-09T08:17:24Z</time>
      </trkpt>
      <trkpt lat="44.12937" lon="5.82137">
        <ele>1179</ele>
        <time>2019-08-09T08:17:25Z</time>
      </trkpt>
      <trkpt lat="44.12938" lon="5.82133">
        <ele>1179</ele>
        <time>2019-08-09T08:17:26Z</time>
      </trkpt>
      <trkpt lat="44.12939" lon="5.82129">
        <ele>1179</ele>
        <time>2019-08-09T08:17:27Z</time>
      </trkpt>
      <trkpt lat="44.1294" lon="5.82125">
        <ele>1179</ele>
        <time>2019-08-09T08:17:28Z</time>
      </trkpt>
      <trkpt lat="44.12941" lon="5.8212">
        <ele>1179</ele>
        <time>2019-08-09T08:17:29Z</time>
      </trkpt>
      <trkpt lat="44.12942" lon="5.82116">
        <ele>1179</ele>
        <time>2019-08-09T08:17:30Z</time>
      </trkpt>
      <trkpt lat="44.12943" lon="5.82112">
        <ele>1179</ele>
        <time>2019-08-09T08:17:31Z</time>
      </trkpt>
      <trkpt lat="44.12944" lon="5.82108">
        <ele>1179</ele>
        <time>2019-08-09T08:17:32Z</time>
      </trkpt>
      <trkpt lat="44.12944" lon="5.82104">
        <ele>1179</ele>
        <time>2019-08-09T08:17:33Z</time>
      </trkpt>
      <trkpt lat="44.12945" lon="5.821">
        <ele>1179</ele>
        <time>2019-08-09T08:17:34Z</time>
      </trkpt>
      <trkpt lat="44.12946" lon="5.82096">
        <ele>1178</ele>
        <time>2019-08-09T08:17:35Z</time>
      </trkpt>
      <trkpt lat="44.12947" lon="5.82092">
        <ele>1177</ele>
        <time>2019-08-09T08:17:36Z</time>
      </trkpt>
      <trkpt lat="44.12948" lon="5.82088">
        <ele>1176</ele>
        <time>2019-08-09T08:17:37Z</time>
      </trkpt>
      <trkpt lat="44.12948" lon="5.82085">
        <ele>1175</ele>
        <time>2019-08-09T08:17:38Z</time>
      </trkpt>
      <trkpt lat="44.12949" lon="5.82081">
        <ele>1174</ele>
        <time>2019-08-09T08:17:39Z</time>
      </trkpt>
      <trkpt lat="44.1295" lon="5.82077">
        <ele>1173</ele>
        <time>2019-08-09T08:17:40Z</time>
      </trkpt>
      <trkpt lat="44.12951" lon="5.82074">
        <ele>1172</ele>
        <time>2019-08-09T08:17:41Z</time>
      </trkpt>
      <trkpt lat="44.12953" lon="5.8207">
        <ele>1171</ele>
        <time>2019-08-09T08:17:42Z</time>
      </trkpt>
      <trkpt lat="44.12954" lon="5.82066">
        <ele>1170</ele>
        <time>2019-08-09T08:17:43Z</time>
      </trkpt>
      <trkpt lat="44.12955" lon="5.82063">
        <ele>1169</ele>
        <time>2019-08-09T08:17:44Z</time>
      </trkpt>
      <trkpt lat="44.12957" lon="5.82059">
        <ele>1168</ele>
        <time>2019-08-09T08:17:45Z</time>
      </trkpt>
      <trkpt lat="44.12959" lon="5.82056">
        <ele>1168</ele>
        <time>2019-08-09T08:17:46Z</time>
      </trkpt>
      <trkpt lat="44.1296" lon="5.82053">
        <ele>1168</ele>
        <time>2019-08-09T08:17:47Z</time>
      </trkpt>
      <trkpt lat="44.12962" lon="5.8205">
        <ele>1168</ele>
        <time>2019-08-09T08:17:48Z</time>
      </trkpt>
      <trkpt lat="44.12964" lon="5.82047">
        <ele>1168</ele>
        <time>2019-08-09T08:17:49Z</time>
      </trkpt>
      <trkpt lat="44.12965" lon="5.82044">
        <ele>1167</ele>
        <time>2019-08-09T08:17:50Z</time>
      </trkpt>
      <trkpt lat="44.12967" lon="5.82041">
        <ele>1167</ele>
        <time>2019-08-09T08:17:51Z</time>
      </trkpt>
      <trkpt lat="44.12969" lon="5.82038">
        <ele>1167</ele>
        <time>2019-08-09T08:17:52Z</time>
      </trkpt>
      <trkpt lat="44.12971" lon="5.82034">
        <ele>1167</ele>
        <time>2019-08-09T08:17:53Z</time>
      </trkpt>
      <trkpt lat="44.12973" lon="5.82031">
        <ele>1167</ele>
        <time>2019-08-09T08:17:54Z</time>
      </trkpt>
      <trkpt lat="44.12976" lon="5.82028">
        <ele>1167</ele>
        <time>2019-08-09T08:17:55Z</time>
      </trkpt>
      <trkpt lat="44.12978" lon="5.82025">
        <ele>1167</ele>
        <time>2019-08-09T08:17:56Z</time>
      </trkpt>
      <trkpt lat="44.1298" lon="5.82023">
        <ele>1167</ele>
        <time>2019-08-09T08:17:57Z</time>
      </trkpt>
      <trkpt lat="44.12982" lon="5.8202">
        <ele>1167</ele>
        <time>2019-08-09T08:17:58Z</time>
      </trkpt>
      <trkpt lat="44.12984" lon="5.82017">
        <ele>1167</ele>
        <time>2019-08-09T08:17:59Z</time>
      </trkpt>
      <trkpt lat="44.12986" lon="5.82013">
        <ele>1167</ele>
        <time>2019-08-09T08:18:00Z</time>
      </trkpt>
      <trkpt lat="44.12987" lon="5.8201">
        <ele>1167</ele>
        <time>2019-08-09T08:18:01Z</time>
      </trkpt>
      <trkpt lat="44.12988" lon="5.82006">
        <ele>1167</ele>
        <time>2019-08-09T08:18:02Z</time>
      </trkpt>
      <trkpt lat="44.12989" lon="5.82001">
        <ele>1168</ele>
        <time>2019-08-09T08:18:03Z</time>
      </trkpt>
      <trkpt lat="44.12989" lon="5.81997">
        <ele>1168</ele>
        <time>2019-08-09T08:18:04Z</time>
      </trkpt>
      <trkpt lat="44.12991" lon="5.81994">
        <ele>1168</ele>
        <time>2019-08-09T08:18:05Z</time>
      </trkpt>
      <trkpt lat="44.12992" lon="5.81991">
        <ele>1169</ele>
        <time>2019-08-09T08:18:06Z</time>
      </trkpt>
      <trkpt lat="44.12993" lon="5.81986">
        <ele>1169</ele>
        <time>2019-08-09T08:18:07Z</time>
      </trkpt>
      <trkpt lat="44.12994" lon="5.81983">
        <ele>1169</ele>
        <time>2019-08-09T08:18:08Z</time>
      </trkpt>
      <trkpt lat="44.12996" lon="5.81979">
        <ele>1170</ele>
        <time>2019-08-09T08:18:09Z</time>
      </trkpt>
      <trkpt lat="44.12997" lon="5.81975">
        <ele>1170</ele>
        <time>2019-08-09T08:18:10Z</time>
      </trkpt>
      <trkpt lat="44.12999" lon="5.81972">
        <ele>1170</ele>
        <time>2019-08-09T08:18:11Z</time>
      </trkpt>
      <trkpt lat="44.13" lon="5.81968">
        <ele>1170</ele>
        <time>2019-08-09T08:18:12Z</time>
      </trkpt>
      <trkpt lat="44.13001" lon="5.81964">
        <ele>1170</ele>
        <time>2019-08-09T08:18:13Z</time>
      </trkpt>
      <trkpt lat="44.13003" lon="5.81962">
        <ele>1170</ele>
        <time>2019-08-09T08:18:14Z</time>
      </trkpt>
      <trkpt lat="44.13005" lon="5.81959">
        <ele>1171</ele>
        <time>2019-08-09T08:18:15Z</time>
      </trkpt>
      <trkpt lat="44.13007" lon="5.81955">
        <ele>1171</ele>
        <time>2019-08-09T08:18:16Z</time>
      </trkpt>
      <trkpt lat="44.13008" lon="5.81952">
        <ele>1171</ele>
        <time>2019-08-09T08:18:17Z</time>
      </trkpt>
      <trkpt lat="44.1301" lon="5.8195">
        <ele>1171</ele>
        <time>2019-08-09T08:18:18Z</time>
      </trkpt>
      <trkpt lat="44.13012" lon="5.81947">
        <ele>1171</ele>
        <time>2019-08-09T08:18:19Z</time>
      </trkpt>
      <trkpt lat="44.13014" lon="5.81944">
        <ele>1171</ele>
        <time>2019-08-09T08:18:20Z</time>
      </trkpt>
      <trkpt lat="44.13017" lon="5.81942">
        <ele>1171</ele>
        <time>2019-08-09T08:18:21Z</time>
      </trkpt>
      <trkpt lat="44.13019" lon="5.8194">
        <ele>1171</ele>
        <time>2019-08-09T08:18:22Z</time>
      </trkpt>
      <trkpt lat="44.13021" lon="5.81936">
        <ele>1171</ele>
        <time>2019-08-09T08:18:23Z</time>
      </trkpt>
      <trkpt lat="44.13023" lon="5.81933">
        <ele>1171</ele>
        <time>2019-08-09T08:18:24Z</time>
      </trkpt>
      <trkpt lat="44.13025" lon="5.8193">
        <ele>1171</ele>
        <time>2019-08-09T08:18:25Z</time>
      </trkpt>
      <trkpt lat="44.13028" lon="5.81927">
        <ele>1171</ele>
        <time>2019-08-09T08:18:26Z</time>
      </trkpt>
      <trkpt lat="44.1303" lon="5.81924">
        <ele>1171</ele>
        <time>2019-08-09T08:18:27Z</time>
      </trkpt>
      <trkpt lat="44.13033" lon="5.81922">
        <ele>1171</ele>
        <time>2019-08-09T08:18:28Z</time>
      </trkpt>
      <trkpt lat="44.13034" lon="5.81919">
        <ele>1171</ele>
        <time>2019-08-09T08:18:29Z</time>
      </trkpt>
      <trkpt lat="44.13036" lon="5.81916">
        <ele>1171</ele>
        <time>2019-08-09T08:18:30Z</time>
      </trkpt>
      <trkpt lat="44.13038" lon="5.81913">
        <ele>1171</ele>
        <time>2019-08-09T08:18:31Z</time>
      </trkpt>
      <trkpt lat="44.1304" lon="5.81909">
        <ele>1171</ele>
        <time>2019-08-09T08:18:32Z</time>
      </trkpt>
      <trkpt lat="44.13041" lon="5.81905">
        <ele>1171</ele>
        <time>2019-08-09T08:18:33Z</time>
      </trkpt>
      <trkpt lat="44.13043" lon="5.81901">
        <ele>1171</ele>
        <time>2019-08-09T08:18:34Z</time>
      </trkpt>
      <trkpt lat="44.13044" lon="5.81897">
        <ele>1171</ele>
        <time>2019-08-09T08:18:35Z</time>
      </trkpt>
      <trkpt lat="44.13046" lon="5.81894">
        <ele>1171</ele>
        <time>2019-08-09T08:18:36Z</time>
      </trkpt>
      <trkpt lat="44.13048" lon="5.8189">
        <ele>1171</ele>
        <time>2019-08-09T08:18:37Z</time>
      </trkpt>
      <trkpt lat="44.13049" lon="5.81886">
        <ele>1171</ele>
        <time>2019-08-09T08:18:38Z</time>
      </trkpt>
      <trkpt lat="44.1305" lon="5.81882">
        <ele>1171</ele>
        <time>2019-08-09T08:18:39Z</time>
      </trkpt>
      <trkpt lat="44.13052" lon="5.81879">
        <ele>1172</ele>
        <time>2019-08-09T08:18:40Z</time>
      </trkpt>
      <trkpt lat="44.13053" lon="5.81875">
        <ele>1172</ele>
        <time>2019-08-09T08:18:41Z</time>
      </trkpt>
      <trkpt lat="44.13054" lon="5.81871">
        <ele>1172</ele>
        <time>2019-08-09T08:18:42Z</time>
      </trkpt>
      <trkpt lat="44.13054" lon="5.81867">
        <ele>1172</ele>
        <time>2019-08-09T08:18:43Z</time>
      </trkpt>
      <trkpt lat="44.13055" lon="5.81863">
        <ele>1172</ele>
        <time>2019-08-09T08:18:44Z</time>
      </trkpt>
      <trkpt lat="44.13055" lon="5.8186">
        <ele>1172</ele>
        <time>2019-08-09T08:18:45Z</time>
      </trkpt>
      <trkpt lat="44.13056" lon="5.81857">
        <ele>1172</ele>
        <time>2019-08-09T08:18:46Z</time>
      </trkpt>
      <trkpt lat="44.13057" lon="5.81853">
        <ele>1173</ele>
        <time>2019-08-09T08:18:47Z</time>
      </trkpt>
      <trkpt lat="44.13057" lon="5.81849">
        <ele>1173</ele>
        <time>2019-08-09T08:18:48Z</time>
      </trkpt>
      <trkpt lat="44.13057" lon="5.81846">
        <ele>1173</ele>
        <time>2019-08-09T08:18:49Z</time>
      </trkpt>
      <trkpt lat="44.13057" lon="5.81842">
        <ele>1173</ele>
        <time>2019-08-09T08:18:50Z</time>
      </trkpt>
      <trkpt lat="44.13056" lon="5.81837">
        <ele>1173</ele>
        <time>2019-08-09T08:18:51Z</time>
      </trkpt>
      <trkpt lat="44.13056" lon="5.81833">
        <ele>1173</ele>
        <time>2019-08-09T08:18:52Z</time>
      </trkpt>
      <trkpt lat="44.13056" lon="5.81829">
        <ele>1173</ele>
        <time>2019-08-09T08:18:53Z</time>
      </trkpt>
      <trkpt lat="44.13055" lon="5.81826">
        <ele>1173</ele>
        <time>2019-08-09T08:18:54Z</time>
      </trkpt>
      <trkpt lat="44.13055" lon="5.81822">
        <ele>1173</ele>
        <time>2019-08-09T08:18:55Z</time>
      </trkpt>
      <trkpt lat="44.13055" lon="5.81818">
        <ele>1173</ele>
        <time>2019-08-09T08:18:56Z</time>
      </trkpt>
      <trkpt lat="44.13055" lon="5.81814">
        <ele>1173</ele>
        <time>2019-08-09T08:18:57Z</time>
      </trkpt>
      <trkpt lat="44.13054" lon="5.8181">
        <ele>1173</ele>
        <time>2019-08-09T08:18:58Z</time>
      </trkpt>
      <trkpt lat="44.13054" lon="5.81807">
        <ele>1173</ele>
        <time>2019-08-09T08:18:59Z</time>
      </trkpt>
      <trkpt lat="44.13054" lon="5.81804">
        <ele>1173</ele>
        <time>2019-08-09T08:19:00Z</time>
      </trkpt>
      <trkpt lat="44.13053" lon="5.818">
        <ele>1174</ele>
        <time>2019-08-09T08:19:01Z</time>
      </trkpt>
      <trkpt lat="44.13052" lon="5.81796">
        <ele>1174</ele>
        <time>2019-08-09T08:19:02Z</time>
      </trkpt>
      <trkpt lat="44.13052" lon="5.81793">
        <ele>1175</ele>
        <time>2019-08-09T08:19:03Z</time>
      </trkpt>
      <trkpt lat="44.1305" lon="5.81789">
        <ele>1176</ele>
        <time>2019-08-09T08:19:04Z</time>
      </trkpt>
      <trkpt lat="44.1305" lon="5.81786">
        <ele>1177</ele>
        <time>2019-08-09T08:19:05Z</time>
      </trkpt>
      <trkpt lat="44.13049" lon="5.81783">
        <ele>1178</ele>
        <time>2019-08-09T08:19:06Z</time>
      </trkpt>
      <trkpt lat="44.13049" lon="5.81779">
        <ele>1178</ele>
        <time>2019-08-09T08:19:07Z</time>
      </trkpt>
      <trkpt lat="44.13049" lon="5.81777">
        <ele>1179</ele>
        <time>2019-08-09T08:19:08Z</time>
      </trkpt>
      <trkpt lat="44.13048" lon="5.81773">
        <ele>1179</ele>
        <time>2019-08-09T08:19:09Z</time>
      </trkpt>
      <trkpt lat="44.13047" lon="5.8177">
        <ele>1179</ele>
        <time>2019-08-09T08:19:10Z</time>
      </trkpt>
      <trkpt lat="44.13047" lon="5.81767">
        <ele>1180</ele>
        <time>2019-08-09T08:19:11Z</time>
      </trkpt>
      <trkpt lat="44.13047" lon="5.81764">
        <ele>1180</ele>
        <time>2019-08-09T08:19:12Z</time>
      </trkpt>
      <trkpt lat="44.13046" lon="5.81761">
        <ele>1181</ele>
        <time>2019-08-09T08:19:13Z</time>
      </trkpt>
      <trkpt lat="44.13046" lon="5.81757">
        <ele>1181</ele>
        <time>2019-08-09T08:19:14Z</time>
      </trkpt>
      <trkpt lat="44.13046" lon="5.81754">
        <ele>1182</ele>
        <time>2019-08-09T08:19:15Z</time>
      </trkpt>
      <trkpt lat="44.13046" lon="5.81751">
        <ele>1182</ele>
        <time>2019-08-09T08:19:16Z</time>
      </trkpt>
      <trkpt lat="44.13045" lon="5.81748">
        <ele>1182</ele>
        <time>2019-08-09T08:19:17Z</time>
      </trkpt>
      <trkpt lat="44.13045" lon="5.81745">
        <ele>1182</ele>
        <time>2019-08-09T08:19:18Z</time>
      </trkpt>
      <trkpt lat="44.13044" lon="5.81741">
        <ele>1182</ele>
        <time>2019-08-09T08:19:19Z</time>
      </trkpt>
      <trkpt lat="44.13044" lon="5.81736">
        <ele>1182</ele>
        <time>2019-08-09T08:19:20Z</time>
      </trkpt>
      <trkpt lat="44.13044" lon="5.81733">
        <ele>1182</ele>
        <time>2019-08-09T08:19:21Z</time>
      </trkpt>
      <trkpt lat="44.13044" lon="5.8173">
        <ele>1182</ele>
        <time>2019-08-09T08:19:22Z</time>
      </trkpt>
      <trkpt lat="44.13044" lon="5.81725">
        <ele>1182</ele>
        <time>2019-08-09T08:19:23Z</time>
      </trkpt>
      <trkpt lat="44.13045" lon="5.81721">
        <ele>1182</ele>
        <time>2019-08-09T08:19:24Z</time>
      </trkpt>
      <trkpt lat="44.13047" lon="5.81718">
        <ele>1183</ele>
        <time>2019-08-09T08:19:25Z</time>
      </trkpt>
      <trkpt lat="44.13049" lon="5.81715">
        <ele>1184</ele>
        <time>2019-08-09T08:19:26Z</time>
      </trkpt>
      <trkpt lat="44.13051" lon="5.81712">
        <ele>1185</ele>
        <time>2019-08-09T08:19:27Z</time>
      </trkpt>
      <trkpt lat="44.13052" lon="5.81709">
        <ele>1186</ele>
        <time>2019-08-09T08:19:28Z</time>
      </trkpt>
      <trkpt lat="44.13053" lon="5.81705">
        <ele>1187</ele>
        <time>2019-08-09T08:19:29Z</time>
      </trkpt>
      <trkpt lat="44.13053" lon="5.81701">
        <ele>1188</ele>
        <time>2019-08-09T08:19:30Z</time>
      </trkpt>
      <trkpt lat="44.13053" lon="5.81697">
        <ele>1189</ele>
        <time>2019-08-09T08:19:31Z</time>
      </trkpt>
      <trkpt lat="44.13054" lon="5.81693">
        <ele>1190</ele>
        <time>2019-08-09T08:19:32Z</time>
      </trkpt>
      <trkpt lat="44.13054" lon="5.81689">
        <ele>1191</ele>
        <time>2019-08-09T08:19:33Z</time>
      </trkpt>
      <trkpt lat="44.13055" lon="5.81686">
        <ele>1192</ele>
        <time>2019-08-09T08:19:34Z</time>
      </trkpt>
      <trkpt lat="44.13057" lon="5.81682">
        <ele>1192</ele>
        <time>2019-08-09T08:19:35Z</time>
      </trkpt>
      <trkpt lat="44.13057" lon="5.81679">
        <ele>1192</ele>
        <time>2019-08-09T08:19:36Z</time>
      </trkpt>
      <trkpt lat="44.13058" lon="5.81676">
        <ele>1193</ele>
        <time>2019-08-09T08:19:37Z</time>
      </trkpt>
      <trkpt lat="44.13059" lon="5.81672">
        <ele>1193</ele>
        <time>2019-08-09T08:19:38Z</time>
      </trkpt>
      <trkpt lat="44.1306" lon="5.81669">
        <ele>1194</ele>
        <time>2019-08-09T08:19:39Z</time>
      </trkpt>
      <trkpt lat="44.13061" lon="5.81666">
        <ele>1194</ele>
        <time>2019-08-09T08:19:40Z</time>
      </trkpt>
      <trkpt lat="44.13062" lon="5.81663">
        <ele>1195</ele>
        <time>2019-08-09T08:19:41Z</time>
      </trkpt>
      <trkpt lat="44.13062" lon="5.8166">
        <ele>1196</ele>
        <time>2019-08-09T08:19:42Z</time>
      </trkpt>
      <trkpt lat="44.13063" lon="5.81656">
        <ele>1197</ele>
        <time>2019-08-09T08:19:43Z</time>
      </trkpt>
      <trkpt lat="44.13064" lon="5.81653">
        <ele>1198</ele>
        <time>2019-08-09T08:19:44Z</time>
      </trkpt>
      <trkpt lat="44.13064" lon="5.81649">
        <ele>1198</ele>
        <time>2019-08-09T08:19:45Z</time>
      </trkpt>
      <trkpt lat="44.13065" lon="5.81646">
        <ele>1198</ele>
        <time>2019-08-09T08:19:46Z</time>
      </trkpt>
      <trkpt lat="44.13065" lon="5.81643">
        <ele>1198</ele>
        <time>2019-08-09T08:19:47Z</time>
      </trkpt>
      <trkpt lat="44.13065" lon="5.81639">
        <ele>1198</ele>
        <time>2019-08-09T08:19:48Z</time>
      </trkpt>
      <trkpt lat="44.13067" lon="5.81636">
        <ele>1198</ele>
        <time>2019-08-09T08:19:49Z</time>
      </trkpt>
      <trkpt lat="44.13068" lon="5.81633">
        <ele>1198</ele>
        <time>2019-08-09T08:19:50Z</time>
      </trkpt>
      <trkpt lat="44.13069" lon="5.81629">
        <ele>1198</ele>
        <time>2019-08-09T08:19:51Z</time>
      </trkpt>
      <trkpt lat="44.1307" lon="5.81625">
        <ele>1199</ele>
        <time>2019-08-09T08:19:52Z</time>
      </trkpt>
      <trkpt lat="44.1307" lon="5.81622">
        <ele>1200</ele>
        <time>2019-08-09T08:19:53Z</time>
      </trkpt>
      <trkpt lat="44.13069" lon="5.81619">
        <ele>1200</ele>
        <time>2019-08-09T08:19:54Z</time>
      </trkpt>
      <trkpt lat="44.13069" lon="5.81616">
        <ele>1201</ele>
        <time>2019-08-09T08:19:55Z</time>
      </trkpt>
      <trkpt lat="44.13069" lon="5.81612">
        <ele>1201</ele>
        <time>2019-08-09T08:19:56Z</time>
      </trkpt>
      <trkpt lat="44.13069" lon="5.81609">
        <ele>1201</ele>
        <time>2019-08-09T08:19:57Z</time>
      </trkpt>
      <trkpt lat="44.13068" lon="5.81604">
        <ele>1201</ele>
        <time>2019-08-09T08:19:58Z</time>
      </trkpt>
      <trkpt lat="44.13068" lon="5.81599">
        <ele>1201</ele>
        <time>2019-08-09T08:19:59Z</time>
      </trkpt>
      <trkpt lat="44.13069" lon="5.81595">
        <ele>1201</ele>
        <time>2019-08-09T08:20:00Z</time>
      </trkpt>
      <trkpt lat="44.1307" lon="5.81592">
        <ele>1201</ele>
        <time>2019-08-09T08:20:01Z</time>
      </trkpt>
      <trkpt lat="44.13071" lon="5.81588">
        <ele>1201</ele>
        <time>2019-08-09T08:20:02Z</time>
      </trkpt>
      <trkpt lat="44.13071" lon="5.81585">
        <ele>1202</ele>
        <time>2019-08-09T08:20:03Z</time>
      </trkpt>
      <trkpt lat="44.13072" lon="5.81581">
        <ele>1203</ele>
        <time>2019-08-09T08:20:04Z</time>
      </trkpt>
      <trkpt lat="44.13073" lon="5.81578">
        <ele>1204</ele>
        <time>2019-08-09T08:20:05Z</time>
      </trkpt>
      <trkpt lat="44.13072" lon="5.81573">
        <ele>1204</ele>
        <time>2019-08-09T08:20:06Z</time>
      </trkpt>
      <trkpt lat="44.13071" lon="5.8157">
        <ele>1204</ele>
        <time>2019-08-09T08:20:07Z</time>
      </trkpt>
      <trkpt lat="44.1307" lon="5.81567">
        <ele>1204</ele>
        <time>2019-08-09T08:20:08Z</time>
      </trkpt>
      <trkpt lat="44.13071" lon="5.81563">
        <ele>1204</ele>
        <time>2019-08-09T08:20:09Z</time>
      </trkpt>
      <trkpt lat="44.13071" lon="5.8156">
        <ele>1204</ele>
        <time>2019-08-09T08:20:10Z</time>
      </trkpt>
      <trkpt lat="44.13072" lon="5.81556">
        <ele>1205</ele>
        <time>2019-08-09T08:20:11Z</time>
      </trkpt>
      <trkpt lat="44.13072" lon="5.81551">
        <ele>1205</ele>
        <time>2019-08-09T08:20:12Z</time>
      </trkpt>
      <trkpt lat="44.13073" lon="5.81548">
        <ele>1206</ele>
        <time>2019-08-09T08:20:13Z</time>
      </trkpt>
      <trkpt lat="44.13073" lon="5.81545">
        <ele>1207</ele>
        <time>2019-08-09T08:20:14Z</time>
      </trkpt>
      <trkpt lat="44.13073" lon="5.81541">
        <ele>1208</ele>
        <time>2019-08-09T08:20:15Z</time>
      </trkpt>
      <trkpt lat="44.13073" lon="5.81538">
        <ele>1209</ele>
        <time>2019-08-09T08:20:16Z</time>
      </trkpt>
      <trkpt lat="44.13073" lon="5.81534">
        <ele>1209</ele>
        <time>2019-08-09T08:20:17Z</time>
      </trkpt>
      <trkpt lat="44.13073" lon="5.81532">
        <ele>1210</ele>
        <time>2019-08-09T08:20:18Z</time>
      </trkpt>
      <trkpt lat="44.13074" lon="5.81529">
        <ele>1210</ele>
        <time>2019-08-09T08:20:19Z</time>
      </trkpt>
      <trkpt lat="44.13074" lon="5.81527">
        <ele>1211</ele>
        <time>2019-08-09T08:20:20Z</time>
      </trkpt>
      <trkpt lat="44.13075" lon="5.81524">
        <ele>1212</ele>
        <time>2019-08-09T08:20:21Z</time>
      </trkpt>
      <trkpt lat="44.13076" lon="5.81522">
        <ele>1213</ele>
        <time>2019-08-09T08:20:22Z</time>
      </trkpt>
      <trkpt lat="44.13076" lon="5.81519">
        <ele>1214</ele>
        <time>2019-08-09T08:20:23Z</time>
      </trkpt>
      <trkpt lat="44.13074" lon="5.81515">
        <ele>1215</ele>
        <time>2019-08-09T08:20:24Z</time>
      </trkpt>
      <trkpt lat="44.13073" lon="5.81512">
        <ele>1215</ele>
        <time>2019-08-09T08:20:25Z</time>
      </trkpt>
      <trkpt lat="44.13073" lon="5.81509">
        <ele>1216</ele>
        <time>2019-08-09T08:20:26Z</time>
      </trkpt>
      <trkpt lat="44.13073" lon="5.81506">
        <ele>1217</ele>
        <time>2019-08-09T08:20:27Z</time>
      </trkpt>
      <trkpt lat="44.13073" lon="5.81504">
        <ele>1217</ele>
        <time>2019-08-09T08:20:28Z</time>
      </trkpt>
      <trkpt lat="44.13073" lon="5.81501">
        <ele>1218</ele>
        <time>2019-08-09T08:20:29Z</time>
      </trkpt>
      <trkpt lat="44.13074" lon="5.81498">
        <ele>1219</ele>
        <time>2019-08-09T08:20:30Z</time>
      </trkpt>
      <trkpt lat="44.13074" lon="5.81495">
        <ele>1220</ele>
        <time>2019-08-09T08:20:31Z</time>
      </trkpt>
      <trkpt lat="44.13073" lon="5.81491">
        <ele>1221</ele>
        <time>2019-08-09T08:20:32Z</time>
      </trkpt>
      <trkpt lat="44.13073" lon="5.81488">
        <ele>1222</ele>
        <time>2019-08-09T08:20:33Z</time>
      </trkpt>
      <trkpt lat="44.13073" lon="5.81486">
        <ele>1223</ele>
        <time>2019-08-09T08:20:34Z</time>
      </trkpt>
      <trkpt lat="44.13073" lon="5.81482">
        <ele>1224</ele>
        <time>2019-08-09T08:20:35Z</time>
      </trkpt>
      <trkpt lat="44.13073" lon="5.81478">
        <ele>1225</ele>
        <time>2019-08-09T08:20:36Z</time>
      </trkpt>
      <trkpt lat="44.13072" lon="5.81474">
        <ele>1226</ele>
        <time>2019-08-09T08:20:37Z</time>
      </trkpt>
      <trkpt lat="44.13072" lon="5.8147">
        <ele>1226</ele>
        <time>2019-08-09T08:20:38Z</time>
      </trkpt>
      <trkpt lat="44.13071" lon="5.81466">
        <ele>1226</ele>
        <time>2019-08-09T08:20:39Z</time>
      </trkpt>
      <trkpt lat="44.13071" lon="5.81462">
        <ele>1226</ele>
        <time>2019-08-09T08:20:40Z</time>
      </trkpt>
      <trkpt lat="44.13072" lon="5.81458">
        <ele>1226</ele>
        <time>2019-08-09T08:20:41Z</time>
      </trkpt>
      <trkpt lat="44.13073" lon="5.81455">
        <ele>1226</ele>
        <time>2019-08-09T08:20:42Z</time>
      </trkpt>
      <trkpt lat="44.13073" lon="5.81452">
        <ele>1226</ele>
        <time>2019-08-09T08:20:43Z</time>
      </trkpt>
      <trkpt lat="44.13073" lon="5.81449">
        <ele>1226</ele>
        <time>2019-08-09T08:20:44Z</time>
      </trkpt>
      <trkpt lat="44.13073" lon="5.81445">
        <ele>1226</ele>
        <time>2019-08-09T08:20:45Z</time>
      </trkpt>
      <trkpt lat="44.13072" lon="5.81441">
        <ele>1226</ele>
        <time>2019-08-09T08:20:46Z</time>
      </trkpt>
      <trkpt lat="44.13071" lon="5.81438">
        <ele>1226</ele>
        <time>2019-08-09T08:20:47Z</time>
      </trkpt>
      <trkpt lat="44.13071" lon="5.81435">
        <ele>1226</ele>
        <time>2019-08-09T08:20:48Z</time>
      </trkpt>
      <trkpt lat="44.13072" lon="5.81434">
        <ele>1226</ele>
        <time>2019-08-09T08:20:49Z</time>
      </trkpt>
      <trkpt lat="44.13072" lon="5.81431">
        <ele>1226</ele>
        <time>2019-08-09T08:20:50Z</time>
      </trkpt>
      <trkpt lat="44.13073" lon="5.81428">
        <ele>1226</ele>
        <time>2019-08-09T08:20:51Z</time>
      </trkpt>
      <trkpt lat="44.13073" lon="5.81425">
        <ele>1226</ele>
        <time>2019-08-09T08:20:52Z</time>
      </trkpt>
      <trkpt lat="44.13073" lon="5.81421">
        <ele>1226</ele>
        <time>2019-08-09T08:20:53Z</time>
      </trkpt>
      <trkpt lat="44.13074" lon="5.81417">
        <ele>1226</ele>
        <time>2019-08-09T08:20:54Z</time>
      </trkpt>
      <trkpt lat="44.13074" lon="5.81412">
        <ele>1226</ele>
        <time>2019-08-09T08:20:55Z</time>
      </trkpt>
      <trkpt lat="44.13074" lon="5.81407">
        <ele>1226</ele>
        <time>2019-08-09T08:20:56Z</time>
      </trkpt>
      <trkpt lat="44.13074" lon="5.81403">
        <ele>1226</ele>
        <time>2019-08-09T08:20:57Z</time>
      </trkpt>
      <trkpt lat="44.13074" lon="5.81399">
        <ele>1226</ele>
        <time>2019-08-09T08:20:58Z</time>
      </trkpt>
      <trkpt lat="44.13074" lon="5.81395">
        <ele>1225</ele>
        <time>2019-08-09T08:20:59Z</time>
      </trkpt>
      <trkpt lat="44.13074" lon="5.81392">
        <ele>1224</ele>
        <time>2019-08-09T08:21:00Z</time>
      </trkpt>
      <trkpt lat="44.13075" lon="5.81389">
        <ele>1223</ele>
        <time>2019-08-09T08:21:01Z</time>
      </trkpt>
      <trkpt lat="44.13076" lon="5.81386">
        <ele>1222</ele>
        <time>2019-08-09T08:21:02Z</time>
      </trkpt>
      <trkpt lat="44.13077" lon="5.81384">
        <ele>1221</ele>
        <time>2019-08-09T08:21:03Z</time>
      </trkpt>
      <trkpt lat="44.13076" lon="5.8138">
        <ele>1220</ele>
        <time>2019-08-09T08:21:04Z</time>
      </trkpt>
      <trkpt lat="44.13078" lon="5.81378">
        <ele>1220</ele>
        <time>2019-08-09T08:21:05Z</time>
      </trkpt>
      <trkpt lat="44.13079" lon="5.81376">
        <ele>1219</ele>
        <time>2019-08-09T08:21:06Z</time>
      </trkpt>
      <trkpt lat="44.13081" lon="5.81374">
        <ele>1218</ele>
        <time>2019-08-09T08:21:07Z</time>
      </trkpt>
      <trkpt lat="44.13083" lon="5.8137">
        <ele>1218</ele>
        <time>2019-08-09T08:21:08Z</time>
      </trkpt>
      <trkpt lat="44.1308" lon="5.81366">
        <ele>1217</ele>
        <time>2019-08-09T08:21:09Z</time>
      </trkpt>
      <trkpt lat="44.13079" lon="5.81363">
        <ele>1216</ele>
        <time>2019-08-09T08:21:10Z</time>
      </trkpt>
      <trkpt lat="44.13083" lon="5.81362">
        <ele>1215</ele>
        <time>2019-08-09T08:21:11Z</time>
      </trkpt>
      <trkpt lat="44.13086" lon="5.8136">
        <ele>1214</ele>
        <time>2019-08-09T08:21:12Z</time>
      </trkpt>
      <trkpt lat="44.13088" lon="5.81357">
        <ele>1213</ele>
        <time>2019-08-09T08:21:13Z</time>
      </trkpt>
      <trkpt lat="44.1309" lon="5.81355">
        <ele>1212</ele>
        <time>2019-08-09T08:21:14Z</time>
      </trkpt>
      <trkpt lat="44.13092" lon="5.81353">
        <ele>1211</ele>
        <time>2019-08-09T08:21:15Z</time>
      </trkpt>
      <trkpt lat="44.13094" lon="5.8135">
        <ele>1211</ele>
        <time>2019-08-09T08:21:16Z</time>
      </trkpt>
      <trkpt lat="44.13096" lon="5.81348">
        <ele>1211</ele>
        <time>2019-08-09T08:21:17Z</time>
      </trkpt>
      <trkpt lat="44.13098" lon="5.81344">
        <ele>1210</ele>
        <time>2019-08-09T08:21:18Z</time>
      </trkpt>
      <trkpt lat="44.131" lon="5.81341">
        <ele>1210</ele>
        <time>2019-08-09T08:21:19Z</time>
      </trkpt>
      <trkpt lat="44.13102" lon="5.81338">
        <ele>1209</ele>
        <time>2019-08-09T08:21:20Z</time>
      </trkpt>
      <trkpt lat="44.13103" lon="5.81335">
        <ele>1209</ele>
        <time>2019-08-09T08:21:21Z</time>
      </trkpt>
      <trkpt lat="44.13105" lon="5.8133">
        <ele>1208</ele>
        <time>2019-08-09T08:21:22Z</time>
      </trkpt>
      <trkpt lat="44.13106" lon="5.81327">
        <ele>1207</ele>
        <time>2019-08-09T08:21:23Z</time>
      </trkpt>
      <trkpt lat="44.13108" lon="5.81323">
        <ele>1206</ele>
        <time>2019-08-09T08:21:24Z</time>
      </trkpt>
      <trkpt lat="44.13109" lon="5.81319">
        <ele>1206</ele>
        <time>2019-08-09T08:21:25Z</time>
      </trkpt>
      <trkpt lat="44.13113" lon="5.81318">
        <ele>1206</ele>
        <time>2019-08-09T08:21:26Z</time>
      </trkpt>
      <trkpt lat="44.13117" lon="5.81315">
        <ele>1206</ele>
        <time>2019-08-09T08:21:27Z</time>
      </trkpt>
      <trkpt lat="44.13119" lon="5.81313">
        <ele>1206</ele>
        <time>2019-08-09T08:21:28Z</time>
      </trkpt>
      <trkpt lat="44.1312" lon="5.81309">
        <ele>1206</ele>
        <time>2019-08-09T08:21:29Z</time>
      </trkpt>
      <trkpt lat="44.13122" lon="5.81305">
        <ele>1206</ele>
        <time>2019-08-09T08:21:30Z</time>
      </trkpt>
      <trkpt lat="44.13123" lon="5.81302">
        <ele>1206</ele>
        <time>2019-08-09T08:21:31Z</time>
      </trkpt>
      <trkpt lat="44.13124" lon="5.81298">
        <ele>1206</ele>
        <time>2019-08-09T08:21:32Z</time>
      </trkpt>
      <trkpt lat="44.13125" lon="5.81295">
        <ele>1206</ele>
        <time>2019-08-09T08:21:33Z</time>
      </trkpt>
      <trkpt lat="44.13126" lon="5.81293">
        <ele>1206</ele>
        <time>2019-08-09T08:21:34Z</time>
      </trkpt>
      <trkpt lat="44.13126" lon="5.81291">
        <ele>1206</ele>
        <time>2019-08-09T08:21:35Z</time>
      </trkpt>
      <trkpt lat="44.13127" lon="5.81287">
        <ele>1206</ele>
        <time>2019-08-09T08:21:36Z</time>
      </trkpt>
      <trkpt lat="44.13127" lon="5.81283">
        <ele>1206</ele>
        <time>2019-08-09T08:21:37Z</time>
      </trkpt>
      <trkpt lat="44.13128" lon="5.8128">
        <ele>1206</ele>
        <time>2019-08-09T08:21:38Z</time>
      </trkpt>
      <trkpt lat="44.13129" lon="5.81277">
        <ele>1206</ele>
        <time>2019-08-09T08:21:39Z</time>
      </trkpt>
      <trkpt lat="44.13129" lon="5.81274">
        <ele>1206</ele>
        <time>2019-08-09T08:21:40Z</time>
      </trkpt>
      <trkpt lat="44.13129" lon="5.81271">
        <ele>1206</ele>
        <time>2019-08-09T08:21:41Z</time>
      </trkpt>
      <trkpt lat="44.1313" lon="5.81267">
        <ele>1206</ele>
        <time>2019-08-09T08:21:42Z</time>
      </trkpt>
      <trkpt lat="44.13131" lon="5.81265">
        <ele>1206</ele>
        <time>2019-08-09T08:21:43Z</time>
      </trkpt>
      <trkpt lat="44.13131" lon="5.81263">
        <ele>1206</ele>
        <time>2019-08-09T08:21:44Z</time>
      </trkpt>
      <trkpt lat="44.13131" lon="5.81261">
        <ele>1207</ele>
        <time>2019-08-09T08:21:45Z</time>
      </trkpt>
      <trkpt lat="44.13131" lon="5.81256">
        <ele>1207</ele>
        <time>2019-08-09T08:21:46Z</time>
      </trkpt>
      <trkpt lat="44.13131" lon="5.81254">
        <ele>1208</ele>
        <time>2019-08-09T08:21:47Z</time>
      </trkpt>
      <trkpt lat="44.13132" lon="5.81251">
        <ele>1209</ele>
        <time>2019-08-09T08:21:48Z</time>
      </trkpt>
      <trkpt lat="44.13132" lon="5.81247">
        <ele>1209</ele>
        <time>2019-08-09T08:21:49Z</time>
      </trkpt>
      <trkpt lat="44.13133" lon="5.81244">
        <ele>1209</ele>
        <time>2019-08-09T08:21:50Z</time>
      </trkpt>
      <trkpt lat="44.13133" lon="5.81239">
        <ele>1210</ele>
        <time>2019-08-09T08:21:51Z</time>
      </trkpt>
      <trkpt lat="44.13133" lon="5.81235">
        <ele>1210</ele>
        <time>2019-08-09T08:21:52Z</time>
      </trkpt>
      <trkpt lat="44.13133" lon="5.81232">
        <ele>1210</ele>
        <time>2019-08-09T08:21:53Z</time>
      </trkpt>
      <trkpt lat="44.13132" lon="5.81228">
        <ele>1210</ele>
        <time>2019-08-09T08:21:54Z</time>
      </trkpt>
      <trkpt lat="44.1313" lon="5.81225">
        <ele>1210</ele>
        <time>2019-08-09T08:21:55Z</time>
      </trkpt>
      <trkpt lat="44.13129" lon="5.81224">
        <ele>1211</ele>
        <time>2019-08-09T08:21:56Z</time>
      </trkpt>
      <trkpt lat="44.13128" lon="5.81222">
        <ele>1211</ele>
        <time>2019-08-09T08:21:57Z</time>
      </trkpt>
      <trkpt lat="44.13127" lon="5.81223">
        <ele>1212</ele>
        <time>2019-08-09T08:21:58Z</time>
      </trkpt>
      <trkpt lat="44.13125" lon="5.81224">
        <ele>1212</ele>
        <time>2019-08-09T08:21:59Z</time>
      </trkpt>
      <trkpt lat="44.13123" lon="5.81225">
        <ele>1213</ele>
        <time>2019-08-09T08:22:00Z</time>
      </trkpt>
      <trkpt lat="44.13121" lon="5.81228">
        <ele>1214</ele>
        <time>2019-08-09T08:22:01Z</time>
      </trkpt>
      <trkpt lat="44.13121" lon="5.8123">
        <ele>1215</ele>
        <time>2019-08-09T08:22:02Z</time>
      </trkpt>
      <trkpt lat="44.1312" lon="5.81234">
        <ele>1216</ele>
        <time>2019-08-09T08:22:03Z</time>
      </trkpt>
      <trkpt lat="44.1312" lon="5.81237">
        <ele>1217</ele>
        <time>2019-08-09T08:22:04Z</time>
      </trkpt>
      <trkpt lat="44.13119" lon="5.81241">
        <ele>1218</ele>
        <time>2019-08-09T08:22:05Z</time>
      </trkpt>
      <trkpt lat="44.13118" lon="5.81244">
        <ele>1219</ele>
        <time>2019-08-09T08:22:06Z</time>
      </trkpt>
      <trkpt lat="44.13117" lon="5.81248">
        <ele>1220</ele>
        <time>2019-08-09T08:22:07Z</time>
      </trkpt>
      <trkpt lat="44.13118" lon="5.81253">
        <ele>1221</ele>
        <time>2019-08-09T08:22:08Z</time>
      </trkpt>
      <trkpt lat="44.13118" lon="5.81257">
        <ele>1222</ele>
        <time>2019-08-09T08:22:09Z</time>
      </trkpt>
      <trkpt lat="44.13117" lon="5.81261">
        <ele>1223</ele>
        <time>2019-08-09T08:22:10Z</time>
      </trkpt>
      <trkpt lat="44.13117" lon="5.81266">
        <ele>1224</ele>
        <time>2019-08-09T08:22:11Z</time>
      </trkpt>
      <trkpt lat="44.13117" lon="5.81271">
        <ele>1225</ele>
        <time>2019-08-09T08:22:12Z</time>
      </trkpt>
      <trkpt lat="44.13117" lon="5.81275">
        <ele>1226</ele>
        <time>2019-08-09T08:22:13Z</time>
      </trkpt>
      <trkpt lat="44.13117" lon="5.81279">
        <ele>1227</ele>
        <time>2019-08-09T08:22:14Z</time>
      </trkpt>
      <trkpt lat="44.13115" lon="5.81284">
        <ele>1228</ele>
        <time>2019-08-09T08:22:15Z</time>
      </trkpt>
      <trkpt lat="44.13114" lon="5.81287">
        <ele>1228</ele>
        <time>2019-08-09T08:22:16Z</time>
      </trkpt>
      <trkpt lat="44.13113" lon="5.81291">
        <ele>1229</ele>
        <time>2019-08-09T08:22:17Z</time>
      </trkpt>
      <trkpt lat="44.13111" lon="5.81295">
        <ele>1229</ele>
        <time>2019-08-09T08:22:18Z</time>
      </trkpt>
      <trkpt lat="44.13109" lon="5.81297">
        <ele>1229</ele>
        <time>2019-08-09T08:22:19Z</time>
      </trkpt>
      <trkpt lat="44.13107" lon="5.813">
        <ele>1229</ele>
        <time>2019-08-09T08:22:20Z</time>
      </trkpt>
      <trkpt lat="44.13106" lon="5.81302">
        <ele>1229</ele>
        <time>2019-08-09T08:22:21Z</time>
      </trkpt>
      <trkpt lat="44.13104" lon="5.81306">
        <ele>1229</ele>
        <time>2019-08-09T08:22:22Z</time>
      </trkpt>
      <trkpt lat="44.13101" lon="5.81309">
        <ele>1229</ele>
        <time>2019-08-09T08:22:23Z</time>
      </trkpt>
      <trkpt lat="44.13099" lon="5.81312">
        <ele>1229</ele>
        <time>2019-08-09T08:22:24Z</time>
      </trkpt>
      <trkpt lat="44.13097" lon="5.81314">
        <ele>1229</ele>
        <time>2019-08-09T08:22:25Z</time>
      </trkpt>
      <trkpt lat="44.13095" lon="5.81317">
        <ele>1229</ele>
        <time>2019-08-09T08:22:26Z</time>
      </trkpt>
      <trkpt lat="44.13093" lon="5.81321">
        <ele>1229</ele>
        <time>2019-08-09T08:22:27Z</time>
      </trkpt>
      <trkpt lat="44.13091" lon="5.81324">
        <ele>1229</ele>
        <time>2019-08-09T08:22:28Z</time>
      </trkpt>
      <trkpt lat="44.13089" lon="5.81327">
        <ele>1229</ele>
        <time>2019-08-09T08:22:29Z</time>
      </trkpt>
      <trkpt lat="44.13087" lon="5.8133">
        <ele>1229</ele>
        <time>2019-08-09T08:22:30Z</time>
      </trkpt>
      <trkpt lat="44.13086" lon="5.81332">
        <ele>1229</ele>
        <time>2019-08-09T08:22:31Z</time>
      </trkpt>
      <trkpt lat="44.13084" lon="5.81334">
        <ele>1229</ele>
        <time>2019-08-09T08:22:32Z</time>
      </trkpt>
      <trkpt lat="44.13082" lon="5.81336">
        <ele>1229</ele>
        <time>2019-08-09T08:22:33Z</time>
      </trkpt>
      <trkpt lat="44.1308" lon="5.81337">
        <ele>1229</ele>
        <time>2019-08-09T08:22:34Z</time>
      </trkpt>
      <trkpt lat="44.13078" lon="5.8134">
        <ele>1229</ele>
        <time>2019-08-09T08:22:35Z</time>
      </trkpt>
      <trkpt lat="44.13076" lon="5.81343">
        <ele>1229</ele>
        <time>2019-08-09T08:22:36Z</time>
      </trkpt>
      <trkpt lat="44.13074" lon="5.81344">
        <ele>1229</ele>
        <time>2019-08-09T08:22:37Z</time>
      </trkpt>
      <trkpt lat="44.13071" lon="5.81346">
        <ele>1229</ele>
        <time>2019-08-09T08:22:38Z</time>
      </trkpt>
      <trkpt lat="44.13069" lon="5.81348">
        <ele>1229</ele>
        <time>2019-08-09T08:22:39Z</time>
      </trkpt>
      <trkpt lat="44.13068" lon="5.8135">
        <ele>1229</ele>
        <time>2019-08-09T08:22:40Z</time>
      </trkpt>
      <trkpt lat="44.13066" lon="5.81353">
        <ele>1229</ele>
        <time>2019-08-09T08:22:41Z</time>
      </trkpt>
      <trkpt lat="44.13064" lon="5.81355">
        <ele>1229</ele>
        <time>2019-08-09T08:22:42Z</time>
      </trkpt>
      <trkpt lat="44.13062" lon="5.81355">
        <ele>1229</ele>
        <time>2019-08-09T08:22:43Z</time>
      </trkpt>
      <trkpt lat="44.13059" lon="5.81357">
        <ele>1229</ele>
        <time>2019-08-09T08:22:44Z</time>
      </trkpt>
      <trkpt lat="44.13057" lon="5.81359">
        <ele>1229</ele>
        <time>2019-08-09T08:22:45Z</time>
      </trkpt>
      <trkpt lat="44.13055" lon="5.81362">
        <ele>1229</ele>
        <time>2019-08-09T08:22:46Z</time>
      </trkpt>
      <trkpt lat="44.13053" lon="5.81365">
        <ele>1230</ele>
        <time>2019-08-09T08:22:47Z</time>
      </trkpt>
      <trkpt lat="44.13051" lon="5.81367">
        <ele>1231</ele>
        <time>2019-08-09T08:22:48Z</time>
      </trkpt>
      <trkpt lat="44.1305" lon="5.8137">
        <ele>1232</ele>
        <time>2019-08-09T08:22:49Z</time>
      </trkpt>
      <trkpt lat="44.13049" lon="5.81372">
        <ele>1233</ele>
        <time>2019-08-09T08:22:50Z</time>
      </trkpt>
      <trkpt lat="44.13048" lon="5.81377">
        <ele>1234</ele>
        <time>2019-08-09T08:22:51Z</time>
      </trkpt>
      <trkpt lat="44.13048" lon="5.8138">
        <ele>1235</ele>
        <time>2019-08-09T08:22:52Z</time>
      </trkpt>
      <trkpt lat="44.13047" lon="5.81383">
        <ele>1237</ele>
        <time>2019-08-09T08:22:53Z</time>
      </trkpt>
      <trkpt lat="44.13045" lon="5.81387">
        <ele>1239</ele>
        <time>2019-08-09T08:22:54Z</time>
      </trkpt>
      <trkpt lat="44.13045" lon="5.81392">
        <ele>1241</ele>
        <time>2019-08-09T08:22:55Z</time>
      </trkpt>
      <trkpt lat="44.13044" lon="5.81397">
        <ele>1242</ele>
        <time>2019-08-09T08:22:56Z</time>
      </trkpt>
      <trkpt lat="44.13043" lon="5.81402">
        <ele>1243</ele>
        <time>2019-08-09T08:22:57Z</time>
      </trkpt>
      <trkpt lat="44.13043" lon="5.81407">
        <ele>1244</ele>
        <time>2019-08-09T08:22:58Z</time>
      </trkpt>
      <trkpt lat="44.13043" lon="5.81412">
        <ele>1245</ele>
        <time>2019-08-09T08:22:59Z</time>
      </trkpt>
      <trkpt lat="44.13043" lon="5.81418">
        <ele>1246</ele>
        <time>2019-08-09T08:23:00Z</time>
      </trkpt>
      <trkpt lat="44.13043" lon="5.81422">
        <ele>1247</ele>
        <time>2019-08-09T08:23:01Z</time>
      </trkpt>
      <trkpt lat="44.13043" lon="5.81427">
        <ele>1248</ele>
        <time>2019-08-09T08:23:02Z</time>
      </trkpt>
      <trkpt lat="44.13042" lon="5.81432">
        <ele>1249</ele>
        <time>2019-08-09T08:23:03Z</time>
      </trkpt>
      <trkpt lat="44.13042" lon="5.81436">
        <ele>1250</ele>
        <time>2019-08-09T08:23:04Z</time>
      </trkpt>
      <trkpt lat="44.13041" lon="5.81441">
        <ele>1251</ele>
        <time>2019-08-09T08:23:05Z</time>
      </trkpt>
      <trkpt lat="44.13041" lon="5.81445">
        <ele>1252</ele>
        <time>2019-08-09T08:23:06Z</time>
      </trkpt>
      <trkpt lat="44.1304" lon="5.8145">
        <ele>1253</ele>
        <time>2019-08-09T08:23:07Z</time>
      </trkpt>
      <trkpt lat="44.13039" lon="5.81454">
        <ele>1253</ele>
        <time>2019-08-09T08:23:08Z</time>
      </trkpt>
      <trkpt lat="44.13039" lon="5.81458">
        <ele>1253</ele>
        <time>2019-08-09T08:23:09Z</time>
      </trkpt>
      <trkpt lat="44.13038" lon="5.81462">
        <ele>1253</ele>
        <time>2019-08-09T08:23:10Z</time>
      </trkpt>
      <trkpt lat="44.13037" lon="5.81467">
        <ele>1253</ele>
        <time>2019-08-09T08:23:11Z</time>
      </trkpt>
      <trkpt lat="44.13036" lon="5.81471">
        <ele>1253</ele>
        <time>2019-08-09T08:23:12Z</time>
      </trkpt>
      <trkpt lat="44.13035" lon="5.81474">
        <ele>1253</ele>
        <time>2019-08-09T08:23:13Z</time>
      </trkpt>
      <trkpt lat="44.13033" lon="5.81478">
        <ele>1253</ele>
        <time>2019-08-09T08:23:14Z</time>
      </trkpt>
      <trkpt lat="44.13032" lon="5.81481">
        <ele>1253</ele>
        <time>2019-08-09T08:23:15Z</time>
      </trkpt>
      <trkpt lat="44.13032" lon="5.81486">
        <ele>1253</ele>
        <time>2019-08-09T08:23:16Z</time>
      </trkpt>
      <trkpt lat="44.13031" lon="5.81489">
        <ele>1253</ele>
        <time>2019-08-09T08:23:17Z</time>
      </trkpt>
      <trkpt lat="44.13029" lon="5.81492">
        <ele>1253</ele>
        <time>2019-08-09T08:23:18Z</time>
      </trkpt>
      <trkpt lat="44.13028" lon="5.81496">
        <ele>1253</ele>
        <time>2019-08-09T08:23:19Z</time>
      </trkpt>
      <trkpt lat="44.13027" lon="5.81501">
        <ele>1253</ele>
        <time>2019-08-09T08:23:20Z</time>
      </trkpt>
      <trkpt lat="44.13026" lon="5.81504">
        <ele>1253</ele>
        <time>2019-08-09T08:23:21Z</time>
      </trkpt>
      <trkpt lat="44.13025" lon="5.81508">
        <ele>1253</ele>
        <time>2019-08-09T08:23:22Z</time>
      </trkpt>
      <trkpt lat="44.13023" lon="5.81512">
        <ele>1253</ele>
        <time>2019-08-09T08:23:23Z</time>
      </trkpt>
      <trkpt lat="44.13016" lon="5.81513">
        <ele>1252</ele>
        <time>2019-08-09T08:23:24Z</time>
      </trkpt>
      <trkpt lat="44.13015" lon="5.81518">
        <ele>1251</ele>
        <time>2019-08-09T08:23:25Z</time>
      </trkpt>
      <trkpt lat="44.13015" lon="5.81522">
        <ele>1250</ele>
        <time>2019-08-09T08:23:26Z</time>
      </trkpt>
      <trkpt lat="44.13013" lon="5.81526">
        <ele>1249</ele>
        <time>2019-08-09T08:23:27Z</time>
      </trkpt>
      <trkpt lat="44.13013" lon="5.8153">
        <ele>1247</ele>
        <time>2019-08-09T08:23:28Z</time>
      </trkpt>
      <trkpt lat="44.13012" lon="5.81534">
        <ele>1246</ele>
        <time>2019-08-09T08:23:29Z</time>
      </trkpt>
      <trkpt lat="44.1301" lon="5.81538">
        <ele>1245</ele>
        <time>2019-08-09T08:23:30Z</time>
      </trkpt>
      <trkpt lat="44.13009" lon="5.81542">
        <ele>1244</ele>
        <time>2019-08-09T08:23:31Z</time>
      </trkpt>
      <trkpt lat="44.13007" lon="5.81546">
        <ele>1243</ele>
        <time>2019-08-09T08:23:32Z</time>
      </trkpt>
      <trkpt lat="44.13006" lon="5.8155">
        <ele>1242</ele>
        <time>2019-08-09T08:23:33Z</time>
      </trkpt>
      <trkpt lat="44.13004" lon="5.81553">
        <ele>1241</ele>
        <time>2019-08-09T08:23:34Z</time>
      </trkpt>
      <trkpt lat="44.13003" lon="5.81557">
        <ele>1240</ele>
        <time>2019-08-09T08:23:35Z</time>
      </trkpt>
      <trkpt lat="44.13001" lon="5.8156">
        <ele>1239</ele>
        <time>2019-08-09T08:23:36Z</time>
      </trkpt>
      <trkpt lat="44.13" lon="5.81564">
        <ele>1238</ele>
        <time>2019-08-09T08:23:37Z</time>
      </trkpt>
      <trkpt lat="44.12998" lon="5.81568">
        <ele>1238</ele>
        <time>2019-08-09T08:23:38Z</time>
      </trkpt>
      <trkpt lat="44.12996" lon="5.81572">
        <ele>1237</ele>
        <time>2019-08-09T08:23:39Z</time>
      </trkpt>
      <trkpt lat="44.12994" lon="5.81576">
        <ele>1237</ele>
        <time>2019-08-09T08:23:40Z</time>
      </trkpt>
      <trkpt lat="44.12993" lon="5.81579">
        <ele>1237</ele>
        <time>2019-08-09T08:23:41Z</time>
      </trkpt>
      <trkpt lat="44.12991" lon="5.81583">
        <ele>1237</ele>
        <time>2019-08-09T08:23:42Z</time>
      </trkpt>
      <trkpt lat="44.12989" lon="5.81587">
        <ele>1237</ele>
        <time>2019-08-09T08:23:43Z</time>
      </trkpt>
      <trkpt lat="44.12988" lon="5.8159">
        <ele>1237</ele>
        <time>2019-08-09T08:23:44Z</time>
      </trkpt>
      <trkpt lat="44.12985" lon="5.81594">
        <ele>1237</ele>
        <time>2019-08-09T08:23:45Z</time>
      </trkpt>
      <trkpt lat="44.12983" lon="5.81597">
        <ele>1237</ele>
        <time>2019-08-09T08:23:46Z</time>
      </trkpt>
      <trkpt lat="44.12981" lon="5.81601">
        <ele>1237</ele>
        <time>2019-08-09T08:23:47Z</time>
      </trkpt>
      <trkpt lat="44.12979" lon="5.81604">
        <ele>1237</ele>
        <time>2019-08-09T08:23:48Z</time>
      </trkpt>
      <trkpt lat="44.12979" lon="5.81608">
        <ele>1237</ele>
        <time>2019-08-09T08:23:49Z</time>
      </trkpt>
      <trkpt lat="44.12978" lon="5.81612">
        <ele>1237</ele>
        <time>2019-08-09T08:23:50Z</time>
      </trkpt>
      <trkpt lat="44.12976" lon="5.81615">
        <ele>1237</ele>
        <time>2019-08-09T08:23:51Z</time>
      </trkpt>
      <trkpt lat="44.12975" lon="5.81618">
        <ele>1237</ele>
        <time>2019-08-09T08:23:52Z</time>
      </trkpt>
      <trkpt lat="44.12973" lon="5.8162">
        <ele>1237</ele>
        <time>2019-08-09T08:23:53Z</time>
      </trkpt>
      <trkpt lat="44.12972" lon="5.81623">
        <ele>1238</ele>
        <time>2019-08-09T08:23:54Z</time>
      </trkpt>
      <trkpt lat="44.12971" lon="5.81625">
        <ele>1239</ele>
        <time>2019-08-09T08:23:55Z</time>
      </trkpt>
      <trkpt lat="44.1297" lon="5.81629">
        <ele>1239</ele>
        <time>2019-08-09T08:23:56Z</time>
      </trkpt>
      <trkpt lat="44.12968" lon="5.81632">
        <ele>1240</ele>
        <time>2019-08-09T08:23:57Z</time>
      </trkpt>
      <trkpt lat="44.12966" lon="5.81636">
        <ele>1240</ele>
        <time>2019-08-09T08:23:58Z</time>
      </trkpt>
      <trkpt lat="44.12965" lon="5.81639">
        <ele>1240</ele>
        <time>2019-08-09T08:23:59Z</time>
      </trkpt>
      <trkpt lat="44.12964" lon="5.81644">
        <ele>1241</ele>
        <time>2019-08-09T08:24:00Z</time>
      </trkpt>
      <trkpt lat="44.12963" lon="5.81648">
        <ele>1242</ele>
        <time>2019-08-09T08:24:01Z</time>
      </trkpt>
      <trkpt lat="44.12963" lon="5.81652">
        <ele>1243</ele>
        <time>2019-08-09T08:24:02Z</time>
      </trkpt>
      <trkpt lat="44.12962" lon="5.81656">
        <ele>1244</ele>
        <time>2019-08-09T08:24:03Z</time>
      </trkpt>
      <trkpt lat="44.1296" lon="5.8166">
        <ele>1245</ele>
        <time>2019-08-09T08:24:04Z</time>
      </trkpt>
      <trkpt lat="44.1296" lon="5.81665">
        <ele>1246</ele>
        <time>2019-08-09T08:24:05Z</time>
      </trkpt>
      <trkpt lat="44.12959" lon="5.81669">
        <ele>1247</ele>
        <time>2019-08-09T08:24:06Z</time>
      </trkpt>
      <trkpt lat="44.12958" lon="5.81673">
        <ele>1248</ele>
        <time>2019-08-09T08:24:07Z</time>
      </trkpt>
      <trkpt lat="44.12956" lon="5.81677">
        <ele>1249</ele>
        <time>2019-08-09T08:24:08Z</time>
      </trkpt>
      <trkpt lat="44.12954" lon="5.81681">
        <ele>1249</ele>
        <time>2019-08-09T08:24:09Z</time>
      </trkpt>
      <trkpt lat="44.12953" lon="5.81685">
        <ele>1249</ele>
        <time>2019-08-09T08:24:10Z</time>
      </trkpt>
      <trkpt lat="44.12952" lon="5.8169">
        <ele>1249</ele>
        <time>2019-08-09T08:24:11Z</time>
      </trkpt>
      <trkpt lat="44.12952" lon="5.81694">
        <ele>1250</ele>
        <time>2019-08-09T08:24:12Z</time>
      </trkpt>
      <trkpt lat="44.1295" lon="5.81699">
        <ele>1250</ele>
        <time>2019-08-09T08:24:13Z</time>
      </trkpt>
      <trkpt lat="44.1295" lon="5.81704">
        <ele>1250</ele>
        <time>2019-08-09T08:24:14Z</time>
      </trkpt>
      <trkpt lat="44.1295" lon="5.81708">
        <ele>1251</ele>
        <time>2019-08-09T08:24:15Z</time>
      </trkpt>
      <trkpt lat="44.12949" lon="5.81713">
        <ele>1251</ele>
        <time>2019-08-09T08:24:16Z</time>
      </trkpt>
      <trkpt lat="44.12949" lon="5.81717">
        <ele>1251</ele>
        <time>2019-08-09T08:24:17Z</time>
      </trkpt>
      <trkpt lat="44.12948" lon="5.81721">
        <ele>1252</ele>
        <time>2019-08-09T08:24:18Z</time>
      </trkpt>
      <trkpt lat="44.12948" lon="5.81725">
        <ele>1252</ele>
        <time>2019-08-09T08:24:19Z</time>
      </trkpt>
      <trkpt lat="44.12947" lon="5.8173">
        <ele>1252</ele>
        <time>2019-08-09T08:24:20Z</time>
      </trkpt>
      <trkpt lat="44.12947" lon="5.81735">
        <ele>1253</ele>
        <time>2019-08-09T08:24:21Z</time>
      </trkpt>
      <trkpt lat="44.12946" lon="5.81738">
        <ele>1253</ele>
        <time>2019-08-09T08:24:22Z</time>
      </trkpt>
      <trkpt lat="44.12946" lon="5.81742">
        <ele>1253</ele>
        <time>2019-08-09T08:24:23Z</time>
      </trkpt>
      <trkpt lat="44.12944" lon="5.81746">
        <ele>1254</ele>
        <time>2019-08-09T08:24:24Z</time>
      </trkpt>
      <trkpt lat="44.12944" lon="5.8175">
        <ele>1254</ele>
        <time>2019-08-09T08:24:25Z</time>
      </trkpt>
      <trkpt lat="44.12942" lon="5.81753">
        <ele>1255</ele>
        <time>2019-08-09T08:24:26Z</time>
      </trkpt>
      <trkpt lat="44.12941" lon="5.81755">
        <ele>1255</ele>
        <time>2019-08-09T08:24:27Z</time>
      </trkpt>
      <trkpt lat="44.12939" lon="5.8176">
        <ele>1256</ele>
        <time>2019-08-09T08:24:28Z</time>
      </trkpt>
      <trkpt lat="44.12937" lon="5.81764">
        <ele>1256</ele>
        <time>2019-08-09T08:24:29Z</time>
      </trkpt>
      <trkpt lat="44.12934" lon="5.81769">
        <ele>1257</ele>
        <time>2019-08-09T08:24:30Z</time>
      </trkpt>
      <trkpt lat="44.12932" lon="5.81773">
        <ele>1257</ele>
        <time>2019-08-09T08:24:31Z</time>
      </trkpt>
      <trkpt lat="44.1293" lon="5.81776">
        <ele>1257</ele>
        <time>2019-08-09T08:24:32Z</time>
      </trkpt>
      <trkpt lat="44.12927" lon="5.8178">
        <ele>1257</ele>
        <time>2019-08-09T08:24:33Z</time>
      </trkpt>
      <trkpt lat="44.12925" lon="5.81784">
        <ele>1257</ele>
        <time>2019-08-09T08:24:34Z</time>
      </trkpt>
      <trkpt lat="44.12922" lon="5.81787">
        <ele>1257</ele>
        <time>2019-08-09T08:24:35Z</time>
      </trkpt>
      <trkpt lat="44.1292" lon="5.8179">
        <ele>1257</ele>
        <time>2019-08-09T08:24:36Z</time>
      </trkpt>
      <trkpt lat="44.12918" lon="5.81794">
        <ele>1257</ele>
        <time>2019-08-09T08:24:37Z</time>
      </trkpt>
      <trkpt lat="44.12917" lon="5.81797">
        <ele>1257</ele>
        <time>2019-08-09T08:24:38Z</time>
      </trkpt>
      <trkpt lat="44.12915" lon="5.81799">
        <ele>1257</ele>
        <time>2019-08-09T08:24:39Z</time>
      </trkpt>
      <trkpt lat="44.12913" lon="5.81802">
        <ele>1257</ele>
        <time>2019-08-09T08:24:40Z</time>
      </trkpt>
      <trkpt lat="44.12911" lon="5.81805">
        <ele>1256</ele>
        <time>2019-08-09T08:24:41Z</time>
      </trkpt>
      <trkpt lat="44.12909" lon="5.81807">
        <ele>1256</ele>
        <time>2019-08-09T08:24:42Z</time>
      </trkpt>
      <trkpt lat="44.12907" lon="5.81811">
        <ele>1256</ele>
        <time>2019-08-09T08:24:43Z</time>
      </trkpt>
      <trkpt lat="44.12904" lon="5.81815">
        <ele>1256</ele>
        <time>2019-08-09T08:24:44Z</time>
      </trkpt>
      <trkpt lat="44.12902" lon="5.81818">
        <ele>1256</ele>
        <time>2019-08-09T08:24:45Z</time>
      </trkpt>
      <trkpt lat="44.129" lon="5.81821">
        <ele>1256</ele>
        <time>2019-08-09T08:24:46Z</time>
      </trkpt>
      <trkpt lat="44.12897" lon="5.81824">
        <ele>1256</ele>
        <time>2019-08-09T08:24:47Z</time>
      </trkpt>
      <trkpt lat="44.12895" lon="5.81827">
        <ele>1256</ele>
        <time>2019-08-09T08:24:48Z</time>
      </trkpt>
      <trkpt lat="44.12892" lon="5.81831">
        <ele>1256</ele>
        <time>2019-08-09T08:24:49Z</time>
      </trkpt>
      <trkpt lat="44.12889" lon="5.81834">
        <ele>1256</ele>
        <time>2019-08-09T08:24:50Z</time>
      </trkpt>
      <trkpt lat="44.12888" lon="5.81836">
        <ele>1256</ele>
        <time>2019-08-09T08:24:51Z</time>
      </trkpt>
      <trkpt lat="44.12885" lon="5.81838">
        <ele>1256</ele>
        <time>2019-08-09T08:24:52Z</time>
      </trkpt>
      <trkpt lat="44.12883" lon="5.81842">
        <ele>1256</ele>
        <time>2019-08-09T08:24:53Z</time>
      </trkpt>
      <trkpt lat="44.12881" lon="5.81846">
        <ele>1256</ele>
        <time>2019-08-09T08:24:54Z</time>
      </trkpt>
      <trkpt lat="44.1288" lon="5.81848">
        <ele>1256</ele>
        <time>2019-08-09T08:24:55Z</time>
      </trkpt>
      <trkpt lat="44.12879" lon="5.81851">
        <ele>1256</ele>
        <time>2019-08-09T08:24:56Z</time>
      </trkpt>
      <trkpt lat="44.12877" lon="5.81854">
        <ele>1256</ele>
        <time>2019-08-09T08:24:57Z</time>
      </trkpt>
      <trkpt lat="44.12874" lon="5.81857">
        <ele>1256</ele>
        <time>2019-08-09T08:24:58Z</time>
      </trkpt>
      <trkpt lat="44.12872" lon="5.8186">
        <ele>1256</ele>
        <time>2019-08-09T08:24:59Z</time>
      </trkpt>
      <trkpt lat="44.1287" lon="5.81863">
        <ele>1256</ele>
        <time>2019-08-09T08:25:00Z</time>
      </trkpt>
      <trkpt lat="44.12867" lon="5.81867">
        <ele>1256</ele>
        <time>2019-08-09T08:25:01Z</time>
      </trkpt>
      <trkpt lat="44.12865" lon="5.8187">
        <ele>1256</ele>
        <time>2019-08-09T08:25:02Z</time>
      </trkpt>
      <trkpt lat="44.12863" lon="5.81873">
        <ele>1256</ele>
        <time>2019-08-09T08:25:03Z</time>
      </trkpt>
      <trkpt lat="44.12861" lon="5.81875">
        <ele>1256</ele>
        <time>2019-08-09T08:25:04Z</time>
      </trkpt>
      <trkpt lat="44.12859" lon="5.81878">
        <ele>1255</ele>
        <time>2019-08-09T08:25:05Z</time>
      </trkpt>
      <trkpt lat="44.12857" lon="5.81881">
        <ele>1255</ele>
        <time>2019-08-09T08:25:06Z</time>
      </trkpt>
      <trkpt lat="44.12855" lon="5.81885">
        <ele>1254</ele>
        <time>2019-08-09T08:25:07Z</time>
      </trkpt>
      <trkpt lat="44.12852" lon="5.81887">
        <ele>1254</ele>
        <time>2019-08-09T08:25:08Z</time>
      </trkpt>
      <trkpt lat="44.12851" lon="5.8189">
        <ele>1254</ele>
        <time>2019-08-09T08:25:09Z</time>
      </trkpt>
      <trkpt lat="44.12849" lon="5.81893">
        <ele>1254</ele>
        <time>2019-08-09T08:25:10Z</time>
      </trkpt>
      <trkpt lat="44.12847" lon="5.81896">
        <ele>1254</ele>
        <time>2019-08-09T08:25:11Z</time>
      </trkpt>
      <trkpt lat="44.12846" lon="5.81898">
        <ele>1254</ele>
        <time>2019-08-09T08:25:12Z</time>
      </trkpt>
      <trkpt lat="44.12845" lon="5.81901">
        <ele>1254</ele>
        <time>2019-08-09T08:25:13Z</time>
      </trkpt>
      <trkpt lat="44.12844" lon="5.81903">
        <ele>1254</ele>
        <time>2019-08-09T08:25:14Z</time>
      </trkpt>
      <trkpt lat="44.12844" lon="5.81906">
        <ele>1254</ele>
        <time>2019-08-09T08:25:15Z</time>
      </trkpt>
      <trkpt lat="44.12843" lon="5.81909">
        <ele>1254</ele>
        <time>2019-08-09T08:25:16Z</time>
      </trkpt>
      <trkpt lat="44.12841" lon="5.81913">
        <ele>1254</ele>
        <time>2019-08-09T08:25:17Z</time>
      </trkpt>
      <trkpt lat="44.12839" lon="5.81916">
        <ele>1254</ele>
        <time>2019-08-09T08:25:18Z</time>
      </trkpt>
      <trkpt lat="44.12837" lon="5.81919">
        <ele>1254</ele>
        <time>2019-08-09T08:25:19Z</time>
      </trkpt>
      <trkpt lat="44.12835" lon="5.81923">
        <ele>1254</ele>
        <time>2019-08-09T08:25:20Z</time>
      </trkpt>
      <trkpt lat="44.12834" lon="5.81927">
        <ele>1254</ele>
        <time>2019-08-09T08:25:21Z</time>
      </trkpt>
      <trkpt lat="44.12833" lon="5.81931">
        <ele>1254</ele>
        <time>2019-08-09T08:25:22Z</time>
      </trkpt>
      <trkpt lat="44.12832" lon="5.81934">
        <ele>1255</ele>
        <time>2019-08-09T08:25:23Z</time>
      </trkpt>
      <trkpt lat="44.1283" lon="5.81937">
        <ele>1256</ele>
        <time>2019-08-09T08:25:24Z</time>
      </trkpt>
      <trkpt lat="44.12829" lon="5.81941">
        <ele>1257</ele>
        <time>2019-08-09T08:25:25Z</time>
      </trkpt>
      <trkpt lat="44.12828" lon="5.81944">
        <ele>1258</ele>
        <time>2019-08-09T08:25:26Z</time>
      </trkpt>
      <trkpt lat="44.12827" lon="5.81947">
        <ele>1259</ele>
        <time>2019-08-09T08:25:27Z</time>
      </trkpt>
      <trkpt lat="44.12826" lon="5.81951">
        <ele>1259</ele>
        <time>2019-08-09T08:25:28Z</time>
      </trkpt>
      <trkpt lat="44.12825" lon="5.81954">
        <ele>1260</ele>
        <time>2019-08-09T08:25:29Z</time>
      </trkpt>
      <trkpt lat="44.12825" lon="5.81956">
        <ele>1261</ele>
        <time>2019-08-09T08:25:30Z</time>
      </trkpt>
      <trkpt lat="44.12825" lon="5.81959">
        <ele>1262</ele>
        <time>2019-08-09T08:25:31Z</time>
      </trkpt>
      <trkpt lat="44.12824" lon="5.81962">
        <ele>1262</ele>
        <time>2019-08-09T08:25:32Z</time>
      </trkpt>
      <trkpt lat="44.12823" lon="5.81966">
        <ele>1263</ele>
        <time>2019-08-09T08:25:33Z</time>
      </trkpt>
      <trkpt lat="44.12822" lon="5.8197">
        <ele>1264</ele>
        <time>2019-08-09T08:25:34Z</time>
      </trkpt>
      <trkpt lat="44.12822" lon="5.81973">
        <ele>1265</ele>
        <time>2019-08-09T08:25:35Z</time>
      </trkpt>
      <trkpt lat="44.12821" lon="5.81977">
        <ele>1266</ele>
        <time>2019-08-09T08:25:36Z</time>
      </trkpt>
      <trkpt lat="44.1282" lon="5.8198">
        <ele>1267</ele>
        <time>2019-08-09T08:25:37Z</time>
      </trkpt>
      <trkpt lat="44.1282" lon="5.81983">
        <ele>1268</ele>
        <time>2019-08-09T08:25:38Z</time>
      </trkpt>
      <trkpt lat="44.1282" lon="5.81986">
        <ele>1269</ele>
        <time>2019-08-09T08:25:39Z</time>
      </trkpt>
      <trkpt lat="44.12819" lon="5.81989">
        <ele>1269</ele>
        <time>2019-08-09T08:25:40Z</time>
      </trkpt>
      <trkpt lat="44.12818" lon="5.81993">
        <ele>1270</ele>
        <time>2019-08-09T08:25:41Z</time>
      </trkpt>
      <trkpt lat="44.12817" lon="5.81996">
        <ele>1271</ele>
        <time>2019-08-09T08:25:42Z</time>
      </trkpt>
      <trkpt lat="44.12817" lon="5.82">
        <ele>1272</ele>
        <time>2019-08-09T08:25:43Z</time>
      </trkpt>
      <trkpt lat="44.12816" lon="5.82003">
        <ele>1272</ele>
        <time>2019-08-09T08:25:44Z</time>
      </trkpt>
      <trkpt lat="44.12815" lon="5.82008">
        <ele>1273</ele>
        <time>2019-08-09T08:25:45Z</time>
      </trkpt>
      <trkpt lat="44.12814" lon="5.82011">
        <ele>1274</ele>
        <time>2019-08-09T08:25:46Z</time>
      </trkpt>
      <trkpt lat="44.12813" lon="5.82015">
        <ele>1274</ele>
        <time>2019-08-09T08:25:47Z</time>
      </trkpt>
      <trkpt lat="44.12813" lon="5.82019">
        <ele>1275</ele>
        <time>2019-08-09T08:25:48Z</time>
      </trkpt>
      <trkpt lat="44.12812" lon="5.82023">
        <ele>1275</ele>
        <time>2019-08-09T08:25:49Z</time>
      </trkpt>
      <trkpt lat="44.12811" lon="5.82027">
        <ele>1275</ele>
        <time>2019-08-09T08:25:50Z</time>
      </trkpt>
      <trkpt lat="44.12809" lon="5.82031">
        <ele>1275</ele>
        <time>2019-08-09T08:25:51Z</time>
      </trkpt>
      <trkpt lat="44.12807" lon="5.82034">
        <ele>1275</ele>
        <time>2019-08-09T08:25:52Z</time>
      </trkpt>
      <trkpt lat="44.12806" lon="5.82038">
        <ele>1275</ele>
        <time>2019-08-09T08:25:53Z</time>
      </trkpt>
      <trkpt lat="44.12804" lon="5.82041">
        <ele>1275</ele>
        <time>2019-08-09T08:25:54Z</time>
      </trkpt>
      <trkpt lat="44.12804" lon="5.82045">
        <ele>1275</ele>
        <time>2019-08-09T08:25:55Z</time>
      </trkpt>
      <trkpt lat="44.12803" lon="5.82049">
        <ele>1275</ele>
        <time>2019-08-09T08:25:56Z</time>
      </trkpt>
      <trkpt lat="44.12802" lon="5.82052">
        <ele>1275</ele>
        <time>2019-08-09T08:25:57Z</time>
      </trkpt>
      <trkpt lat="44.128" lon="5.82055">
        <ele>1275</ele>
        <time>2019-08-09T08:25:58Z</time>
      </trkpt>
      <trkpt lat="44.12799" lon="5.82058">
        <ele>1275</ele>
        <time>2019-08-09T08:25:59Z</time>
      </trkpt>
      <trkpt lat="44.12798" lon="5.82062">
        <ele>1275</ele>
        <time>2019-08-09T08:26:00Z</time>
      </trkpt>
      <trkpt lat="44.12797" lon="5.82066">
        <ele>1275</ele>
        <time>2019-08-09T08:26:01Z</time>
      </trkpt>
      <trkpt lat="44.12796" lon="5.82069">
        <ele>1275</ele>
        <time>2019-08-09T08:26:02Z</time>
      </trkpt>
      <trkpt lat="44.12795" lon="5.82072">
        <ele>1275</ele>
        <time>2019-08-09T08:26:03Z</time>
      </trkpt>
      <trkpt lat="44.12794" lon="5.82075">
        <ele>1275</ele>
        <time>2019-08-09T08:26:04Z</time>
      </trkpt>
      <trkpt lat="44.12792" lon="5.82079">
        <ele>1275</ele>
        <time>2019-08-09T08:26:05Z</time>
      </trkpt>
      <trkpt lat="44.1279" lon="5.82082">
        <ele>1275</ele>
        <time>2019-08-09T08:26:06Z</time>
      </trkpt>
      <trkpt lat="44.12788" lon="5.82084">
        <ele>1275</ele>
        <time>2019-08-09T08:26:07Z</time>
      </trkpt>
      <trkpt lat="44.12786" lon="5.82087">
        <ele>1275</ele>
        <time>2019-08-09T08:26:08Z</time>
      </trkpt>
      <trkpt lat="44.12784" lon="5.8209">
        <ele>1274</ele>
        <time>2019-08-09T08:26:09Z</time>
      </trkpt>
      <trkpt lat="44.12783" lon="5.82093">
        <ele>1273</ele>
        <time>2019-08-09T08:26:10Z</time>
      </trkpt>
      <trkpt lat="44.12781" lon="5.82096">
        <ele>1272</ele>
        <time>2019-08-09T08:26:11Z</time>
      </trkpt>
      <trkpt lat="44.12779" lon="5.82098">
        <ele>1271</ele>
        <time>2019-08-09T08:26:12Z</time>
      </trkpt>
      <trkpt lat="44.12777" lon="5.82101">
        <ele>1270</ele>
        <time>2019-08-09T08:26:13Z</time>
      </trkpt>
      <trkpt lat="44.12775" lon="5.82103">
        <ele>1270</ele>
        <time>2019-08-09T08:26:14Z</time>
      </trkpt>
      <trkpt lat="44.12774" lon="5.82106">
        <ele>1269</ele>
        <time>2019-08-09T08:26:15Z</time>
      </trkpt>
      <trkpt lat="44.12772" lon="5.82109">
        <ele>1268</ele>
        <time>2019-08-09T08:26:16Z</time>
      </trkpt>
      <trkpt lat="44.12771" lon="5.82112">
        <ele>1268</ele>
        <time>2019-08-09T08:26:17Z</time>
      </trkpt>
      <trkpt lat="44.12769" lon="5.82114">
        <ele>1268</ele>
        <time>2019-08-09T08:26:18Z</time>
      </trkpt>
      <trkpt lat="44.12767" lon="5.82117">
        <ele>1267</ele>
        <time>2019-08-09T08:26:19Z</time>
      </trkpt>
      <trkpt lat="44.12765" lon="5.8212">
        <ele>1267</ele>
        <time>2019-08-09T08:26:20Z</time>
      </trkpt>
      <trkpt lat="44.12764" lon="5.82122">
        <ele>1267</ele>
        <time>2019-08-09T08:26:21Z</time>
      </trkpt>
      <trkpt lat="44.12762" lon="5.82125">
        <ele>1267</ele>
        <time>2019-08-09T08:26:22Z</time>
      </trkpt>
      <trkpt lat="44.1276" lon="5.82128">
        <ele>1267</ele>
        <time>2019-08-09T08:26:23Z</time>
      </trkpt>
      <trkpt lat="44.12758" lon="5.82131">
        <ele>1267</ele>
        <time>2019-08-09T08:26:24Z</time>
      </trkpt>
      <trkpt lat="44.12758" lon="5.82134">
        <ele>1267</ele>
        <time>2019-08-09T08:26:25Z</time>
      </trkpt>
      <trkpt lat="44.12756" lon="5.82135">
        <ele>1267</ele>
        <time>2019-08-09T08:26:26Z</time>
      </trkpt>
      <trkpt lat="44.12753" lon="5.82136">
        <ele>1267</ele>
        <time>2019-08-09T08:26:27Z</time>
      </trkpt>
      <trkpt lat="44.1275" lon="5.82137">
        <ele>1267</ele>
        <time>2019-08-09T08:26:28Z</time>
      </trkpt>
      <trkpt lat="44.12747" lon="5.82137">
        <ele>1267</ele>
        <time>2019-08-09T08:26:29Z</time>
      </trkpt>
      <trkpt lat="44.12744" lon="5.82137">
        <ele>1267</ele>
        <time>2019-08-09T08:26:30Z</time>
      </trkpt>
      <trkpt lat="44.12741" lon="5.82137">
        <ele>1267</ele>
        <time>2019-08-09T08:26:31Z</time>
      </trkpt>
      <trkpt lat="44.12738" lon="5.82137">
        <ele>1267</ele>
        <time>2019-08-09T08:26:32Z</time>
      </trkpt>
      <trkpt lat="44.12736" lon="5.82137">
        <ele>1267</ele>
        <time>2019-08-09T08:26:33Z</time>
      </trkpt>
      <trkpt lat="44.12734" lon="5.82137">
        <ele>1267</ele>
        <time>2019-08-09T08:26:34Z</time>
      </trkpt>
      <trkpt lat="44.12732" lon="5.82136">
        <ele>1267</ele>
        <time>2019-08-09T08:26:35Z</time>
      </trkpt>
      <trkpt lat="44.1273" lon="5.82135">
        <ele>1267</ele>
        <time>2019-08-09T08:26:36Z</time>
      </trkpt>
      <trkpt lat="44.12727" lon="5.82135">
        <ele>1267</ele>
        <time>2019-08-09T08:26:37Z</time>
      </trkpt>
      <trkpt lat="44.12724" lon="5.82135">
        <ele>1267</ele>
        <time>2019-08-09T08:26:38Z</time>
      </trkpt>
      <trkpt lat="44.12721" lon="5.82136">
        <ele>1267</ele>
        <time>2019-08-09T08:26:39Z</time>
      </trkpt>
      <trkpt lat="44.12718" lon="5.82135">
        <ele>1267</ele>
        <time>2019-08-09T08:26:40Z</time>
      </trkpt>
      <trkpt lat="44.12716" lon="5.82136">
        <ele>1267</ele>
        <time>2019-08-09T08:26:41Z</time>
      </trkpt>
      <trkpt lat="44.12714" lon="5.82136">
        <ele>1267</ele>
        <time>2019-08-09T08:26:42Z</time>
      </trkpt>
      <trkpt lat="44.12712" lon="5.82137">
        <ele>1267</ele>
        <time>2019-08-09T08:26:43Z</time>
      </trkpt>
      <trkpt lat="44.1271" lon="5.82136">
        <ele>1267</ele>
        <time>2019-08-09T08:26:44Z</time>
      </trkpt>
      <trkpt lat="44.12708" lon="5.82136">
        <ele>1267</ele>
        <time>2019-08-09T08:26:45Z</time>
      </trkpt>
      <trkpt lat="44.12707" lon="5.82136">
        <ele>1268</ele>
        <time>2019-08-09T08:26:46Z</time>
      </trkpt>
      <trkpt lat="44.12704" lon="5.82136">
        <ele>1269</ele>
        <time>2019-08-09T08:26:47Z</time>
      </trkpt>
      <trkpt lat="44.12703" lon="5.82136">
        <ele>1269</ele>
        <time>2019-08-09T08:26:48Z</time>
      </trkpt>
      <trkpt lat="44.12701" lon="5.82136">
        <ele>1270</ele>
        <time>2019-08-09T08:26:49Z</time>
      </trkpt>
      <trkpt lat="44.12699" lon="5.82136">
        <ele>1270</ele>
        <time>2019-08-09T08:26:50Z</time>
      </trkpt>
      <trkpt lat="44.12696" lon="5.82137">
        <ele>1271</ele>
        <time>2019-08-09T08:26:51Z</time>
      </trkpt>
      <trkpt lat="44.12695" lon="5.82137">
        <ele>1271</ele>
        <time>2019-08-09T08:26:52Z</time>
      </trkpt>
      <trkpt lat="44.12693" lon="5.82139">
        <ele>1272</ele>
        <time>2019-08-09T08:26:53Z</time>
      </trkpt>
      <trkpt lat="44.12692" lon="5.82141">
        <ele>1273</ele>
        <time>2019-08-09T08:26:54Z</time>
      </trkpt>
      <trkpt lat="44.1269" lon="5.82143">
        <ele>1274</ele>
        <time>2019-08-09T08:26:55Z</time>
      </trkpt>
      <trkpt lat="44.12688" lon="5.82146">
        <ele>1275</ele>
        <time>2019-08-09T08:26:56Z</time>
      </trkpt>
      <trkpt lat="44.12687" lon="5.82149">
        <ele>1276</ele>
        <time>2019-08-09T08:26:57Z</time>
      </trkpt>
      <trkpt lat="44.12685" lon="5.82152">
        <ele>1277</ele>
        <time>2019-08-09T08:26:58Z</time>
      </trkpt>
      <trkpt lat="44.12684" lon="5.82156">
        <ele>1278</ele>
        <time>2019-08-09T08:26:59Z</time>
      </trkpt>
      <trkpt lat="44.12682" lon="5.82159">
        <ele>1279</ele>
        <time>2019-08-09T08:27:00Z</time>
      </trkpt>
      <trkpt lat="44.1268" lon="5.82163">
        <ele>1280</ele>
        <time>2019-08-09T08:27:01Z</time>
      </trkpt>
      <trkpt lat="44.1268" lon="5.82166">
        <ele>1281</ele>
        <time>2019-08-09T08:27:02Z</time>
      </trkpt>
      <trkpt lat="44.12678" lon="5.82169">
        <ele>1282</ele>
        <time>2019-08-09T08:27:03Z</time>
      </trkpt>
      <trkpt lat="44.12678" lon="5.82172">
        <ele>1283</ele>
        <time>2019-08-09T08:27:04Z</time>
      </trkpt>
      <trkpt lat="44.12677" lon="5.82175">
        <ele>1283</ele>
        <time>2019-08-09T08:27:05Z</time>
      </trkpt>
      <trkpt lat="44.12676" lon="5.82178">
        <ele>1284</ele>
        <time>2019-08-09T08:27:06Z</time>
      </trkpt>
      <trkpt lat="44.12676" lon="5.82183">
        <ele>1284</ele>
        <time>2019-08-09T08:27:07Z</time>
      </trkpt>
      <trkpt lat="44.12675" lon="5.82188">
        <ele>1285</ele>
        <time>2019-08-09T08:27:08Z</time>
      </trkpt>
      <trkpt lat="44.12675" lon="5.82191">
        <ele>1285</ele>
        <time>2019-08-09T08:27:09Z</time>
      </trkpt>
      <trkpt lat="44.12674" lon="5.82195">
        <ele>1285</ele>
        <time>2019-08-09T08:27:10Z</time>
      </trkpt>
      <trkpt lat="44.12673" lon="5.82198">
        <ele>1285</ele>
        <time>2019-08-09T08:27:11Z</time>
      </trkpt>
      <trkpt lat="44.12671" lon="5.82201">
        <ele>1285</ele>
        <time>2019-08-09T08:27:12Z</time>
      </trkpt>
      <trkpt lat="44.12669" lon="5.82204">
        <ele>1285</ele>
        <time>2019-08-09T08:27:13Z</time>
      </trkpt>
      <trkpt lat="44.12667" lon="5.82207">
        <ele>1285</ele>
        <time>2019-08-09T08:27:14Z</time>
      </trkpt>
      <trkpt lat="44.12666" lon="5.8221">
        <ele>1285</ele>
        <time>2019-08-09T08:27:15Z</time>
      </trkpt>
      <trkpt lat="44.12664" lon="5.82213">
        <ele>1285</ele>
        <time>2019-08-09T08:27:16Z</time>
      </trkpt>
      <trkpt lat="44.12662" lon="5.82216">
        <ele>1285</ele>
        <time>2019-08-09T08:27:17Z</time>
      </trkpt>
      <trkpt lat="44.1266" lon="5.82218">
        <ele>1285</ele>
        <time>2019-08-09T08:27:18Z</time>
      </trkpt>
      <trkpt lat="44.12658" lon="5.8222">
        <ele>1285</ele>
        <time>2019-08-09T08:27:19Z</time>
      </trkpt>
      <trkpt lat="44.12656" lon="5.82222">
        <ele>1285</ele>
        <time>2019-08-09T08:27:20Z</time>
      </trkpt>
      <trkpt lat="44.12654" lon="5.82224">
        <ele>1285</ele>
        <time>2019-08-09T08:27:21Z</time>
      </trkpt>
      <trkpt lat="44.12652" lon="5.82226">
        <ele>1285</ele>
        <time>2019-08-09T08:27:22Z</time>
      </trkpt>
      <trkpt lat="44.1265" lon="5.82229">
        <ele>1285</ele>
        <time>2019-08-09T08:27:23Z</time>
      </trkpt>
      <trkpt lat="44.12648" lon="5.82231">
        <ele>1285</ele>
        <time>2019-08-09T08:27:24Z</time>
      </trkpt>
      <trkpt lat="44.12646" lon="5.82233">
        <ele>1285</ele>
        <time>2019-08-09T08:27:25Z</time>
      </trkpt>
      <trkpt lat="44.12645" lon="5.82235">
        <ele>1285</ele>
        <time>2019-08-09T08:27:26Z</time>
      </trkpt>
      <trkpt lat="44.12643" lon="5.82238">
        <ele>1285</ele>
        <time>2019-08-09T08:27:27Z</time>
      </trkpt>
      <trkpt lat="44.12641" lon="5.82241">
        <ele>1285</ele>
        <time>2019-08-09T08:27:28Z</time>
      </trkpt>
      <trkpt lat="44.12641" lon="5.82245">
        <ele>1285</ele>
        <time>2019-08-09T08:27:29Z</time>
      </trkpt>
      <trkpt lat="44.1264" lon="5.82248">
        <ele>1285</ele>
        <time>2019-08-09T08:27:30Z</time>
      </trkpt>
      <trkpt lat="44.12638" lon="5.82251">
        <ele>1285</ele>
        <time>2019-08-09T08:27:31Z</time>
      </trkpt>
      <trkpt lat="44.12636" lon="5.82253">
        <ele>1285</ele>
        <time>2019-08-09T08:27:32Z</time>
      </trkpt>
      <trkpt lat="44.12634" lon="5.82255">
        <ele>1285</ele>
        <time>2019-08-09T08:27:33Z</time>
      </trkpt>
      <trkpt lat="44.12631" lon="5.82257">
        <ele>1285</ele>
        <time>2019-08-09T08:27:34Z</time>
      </trkpt>
      <trkpt lat="44.12629" lon="5.82259">
        <ele>1285</ele>
        <time>2019-08-09T08:27:35Z</time>
      </trkpt>
      <trkpt lat="44.12627" lon="5.82261">
        <ele>1285</ele>
        <time>2019-08-09T08:27:36Z</time>
      </trkpt>
      <trkpt lat="44.12626" lon="5.82263">
        <ele>1285</ele>
        <time>2019-08-09T08:27:37Z</time>
      </trkpt>
      <trkpt lat="44.12623" lon="5.82266">
        <ele>1285</ele>
        <time>2019-08-09T08:27:38Z</time>
      </trkpt>
      <trkpt lat="44.12621" lon="5.82268">
        <ele>1285</ele>
        <time>2019-08-09T08:27:39Z</time>
      </trkpt>
      <trkpt lat="44.12618" lon="5.8227">
        <ele>1285</ele>
        <time>2019-08-09T08:27:40Z</time>
      </trkpt>
      <trkpt lat="44.12616" lon="5.82272">
        <ele>1285</ele>
        <time>2019-08-09T08:27:41Z</time>
      </trkpt>
      <trkpt lat="44.12614" lon="5.82274">
        <ele>1285</ele>
        <time>2019-08-09T08:27:42Z</time>
      </trkpt>
      <trkpt lat="44.12612" lon="5.82276">
        <ele>1285</ele>
        <time>2019-08-09T08:27:43Z</time>
      </trkpt>
      <trkpt lat="44.1261" lon="5.82278">
        <ele>1285</ele>
        <time>2019-08-09T08:27:44Z</time>
      </trkpt>
      <trkpt lat="44.12608" lon="5.8228">
        <ele>1285</ele>
        <time>2019-08-09T08:27:45Z</time>
      </trkpt>
      <trkpt lat="44.12605" lon="5.82282">
        <ele>1285</ele>
        <time>2019-08-09T08:27:46Z</time>
      </trkpt>
      <trkpt lat="44.12603" lon="5.82285">
        <ele>1285</ele>
        <time>2019-08-09T08:27:47Z</time>
      </trkpt>
      <trkpt lat="44.12601" lon="5.82288">
        <ele>1285</ele>
        <time>2019-08-09T08:27:48Z</time>
      </trkpt>
      <trkpt lat="44.12599" lon="5.8229">
        <ele>1285</ele>
        <time>2019-08-09T08:27:49Z</time>
      </trkpt>
      <trkpt lat="44.12597" lon="5.82293">
        <ele>1285</ele>
        <time>2019-08-09T08:27:50Z</time>
      </trkpt>
      <trkpt lat="44.12595" lon="5.82296">
        <ele>1285</ele>
        <time>2019-08-09T08:27:51Z</time>
      </trkpt>
      <trkpt lat="44.12592" lon="5.82299">
        <ele>1285</ele>
        <time>2019-08-09T08:27:52Z</time>
      </trkpt>
      <trkpt lat="44.1259" lon="5.82302">
        <ele>1285</ele>
        <time>2019-08-09T08:27:53Z</time>
      </trkpt>
      <trkpt lat="44.12588" lon="5.82304">
        <ele>1285</ele>
        <time>2019-08-09T08:27:54Z</time>
      </trkpt>
      <trkpt lat="44.12586" lon="5.82306">
        <ele>1285</ele>
        <time>2019-08-09T08:27:55Z</time>
      </trkpt>
      <trkpt lat="44.12584" lon="5.82309">
        <ele>1285</ele>
        <time>2019-08-09T08:27:56Z</time>
      </trkpt>
      <trkpt lat="44.12582" lon="5.82311">
        <ele>1285</ele>
        <time>2019-08-09T08:27:57Z</time>
      </trkpt>
      <trkpt lat="44.12579" lon="5.82313">
        <ele>1285</ele>
        <time>2019-08-09T08:27:58Z</time>
      </trkpt>
      <trkpt lat="44.12577" lon="5.82316">
        <ele>1285</ele>
        <time>2019-08-09T08:27:59Z</time>
      </trkpt>
      <trkpt lat="44.12575" lon="5.82318">
        <ele>1285</ele>
        <time>2019-08-09T08:28:00Z</time>
      </trkpt>
      <trkpt lat="44.12573" lon="5.82321">
        <ele>1285</ele>
        <time>2019-08-09T08:28:01Z</time>
      </trkpt>
      <trkpt lat="44.12571" lon="5.82323">
        <ele>1285</ele>
        <time>2019-08-09T08:28:02Z</time>
      </trkpt>
      <trkpt lat="44.12569" lon="5.82324">
        <ele>1285</ele>
        <time>2019-08-09T08:28:03Z</time>
      </trkpt>
      <trkpt lat="44.12567" lon="5.82326">
        <ele>1285</ele>
        <time>2019-08-09T08:28:04Z</time>
      </trkpt>
      <trkpt lat="44.12565" lon="5.82328">
        <ele>1285</ele>
        <time>2019-08-09T08:28:05Z</time>
      </trkpt>
      <trkpt lat="44.12563" lon="5.8233">
        <ele>1285</ele>
        <time>2019-08-09T08:28:06Z</time>
      </trkpt>
      <trkpt lat="44.12561" lon="5.82331">
        <ele>1285</ele>
        <time>2019-08-09T08:28:07Z</time>
      </trkpt>
      <trkpt lat="44.12559" lon="5.82333">
        <ele>1285</ele>
        <time>2019-08-09T08:28:08Z</time>
      </trkpt>
      <trkpt lat="44.12556" lon="5.82335">
        <ele>1285</ele>
        <time>2019-08-09T08:28:09Z</time>
      </trkpt>
      <trkpt lat="44.12555" lon="5.82337">
        <ele>1285</ele>
        <time>2019-08-09T08:28:10Z</time>
      </trkpt>
      <trkpt lat="44.12553" lon="5.82339">
        <ele>1285</ele>
        <time>2019-08-09T08:28:11Z</time>
      </trkpt>
      <trkpt lat="44.12551" lon="5.8234">
        <ele>1286</ele>
        <time>2019-08-09T08:28:12Z</time>
      </trkpt>
      <trkpt lat="44.12549" lon="5.82342">
        <ele>1286</ele>
        <time>2019-08-09T08:28:13Z</time>
      </trkpt>
      <trkpt lat="44.12547" lon="5.82344">
        <ele>1287</ele>
        <time>2019-08-09T08:28:14Z</time>
      </trkpt>
      <trkpt lat="44.12544" lon="5.82347">
        <ele>1288</ele>
        <time>2019-08-09T08:28:15Z</time>
      </trkpt>
      <trkpt lat="44.12541" lon="5.8235">
        <ele>1288</ele>
        <time>2019-08-09T08:28:16Z</time>
      </trkpt>
      <trkpt lat="44.12538" lon="5.82351">
        <ele>1289</ele>
        <time>2019-08-09T08:28:17Z</time>
      </trkpt>
      <trkpt lat="44.12536" lon="5.82354">
        <ele>1289</ele>
        <time>2019-08-09T08:28:18Z</time>
      </trkpt>
      <trkpt lat="44.12534" lon="5.82357">
        <ele>1290</ele>
        <time>2019-08-09T08:28:19Z</time>
      </trkpt>
      <trkpt lat="44.12532" lon="5.8236">
        <ele>1290</ele>
        <time>2019-08-09T08:28:20Z</time>
      </trkpt>
      <trkpt lat="44.1253" lon="5.82363">
        <ele>1290</ele>
        <time>2019-08-09T08:28:21Z</time>
      </trkpt>
      <trkpt lat="44.12529" lon="5.82366">
        <ele>1291</ele>
        <time>2019-08-09T08:28:22Z</time>
      </trkpt>
      <trkpt lat="44.12527" lon="5.82368">
        <ele>1291</ele>
        <time>2019-08-09T08:28:23Z</time>
      </trkpt>
      <trkpt lat="44.12524" lon="5.8237">
        <ele>1292</ele>
        <time>2019-08-09T08:28:24Z</time>
      </trkpt>
      <trkpt lat="44.12523" lon="5.82373">
        <ele>1292</ele>
        <time>2019-08-09T08:28:25Z</time>
      </trkpt>
      <trkpt lat="44.12521" lon="5.82375">
        <ele>1292</ele>
        <time>2019-08-09T08:28:26Z</time>
      </trkpt>
      <trkpt lat="44.1252" lon="5.82379">
        <ele>1292</ele>
        <time>2019-08-09T08:28:27Z</time>
      </trkpt>
      <trkpt lat="44.12519" lon="5.82381">
        <ele>1292</ele>
        <time>2019-08-09T08:28:28Z</time>
      </trkpt>
      <trkpt lat="44.12517" lon="5.82383">
        <ele>1292</ele>
        <time>2019-08-09T08:28:29Z</time>
      </trkpt>
      <trkpt lat="44.12516" lon="5.82385">
        <ele>1292</ele>
        <time>2019-08-09T08:28:30Z</time>
      </trkpt>
      <trkpt lat="44.12514" lon="5.82388">
        <ele>1293</ele>
        <time>2019-08-09T08:28:31Z</time>
      </trkpt>
      <trkpt lat="44.12512" lon="5.8239">
        <ele>1293</ele>
        <time>2019-08-09T08:28:32Z</time>
      </trkpt>
      <trkpt lat="44.12511" lon="5.82393">
        <ele>1293</ele>
        <time>2019-08-09T08:28:33Z</time>
      </trkpt>
      <trkpt lat="44.12508" lon="5.82395">
        <ele>1293</ele>
        <time>2019-08-09T08:28:34Z</time>
      </trkpt>
      <trkpt lat="44.12506" lon="5.82398">
        <ele>1294</ele>
        <time>2019-08-09T08:28:35Z</time>
      </trkpt>
      <trkpt lat="44.12505" lon="5.82401">
        <ele>1294</ele>
        <time>2019-08-09T08:28:36Z</time>
      </trkpt>
      <trkpt lat="44.12504" lon="5.82403">
        <ele>1294</ele>
        <time>2019-08-09T08:28:37Z</time>
      </trkpt>
      <trkpt lat="44.12503" lon="5.82405">
        <ele>1295</ele>
        <time>2019-08-09T08:28:38Z</time>
      </trkpt>
      <trkpt lat="44.12501" lon="5.82408">
        <ele>1295</ele>
        <time>2019-08-09T08:28:39Z</time>
      </trkpt>
      <trkpt lat="44.125" lon="5.8241">
        <ele>1296</ele>
        <time>2019-08-09T08:28:40Z</time>
      </trkpt>
      <trkpt lat="44.12499" lon="5.82413">
        <ele>1297</ele>
        <time>2019-08-09T08:28:41Z</time>
      </trkpt>
      <trkpt lat="44.12498" lon="5.82416">
        <ele>1298</ele>
        <time>2019-08-09T08:28:42Z</time>
      </trkpt>
      <trkpt lat="44.12497" lon="5.82419">
        <ele>1299</ele>
        <time>2019-08-09T08:28:43Z</time>
      </trkpt>
      <trkpt lat="44.12496" lon="5.82422">
        <ele>1300</ele>
        <time>2019-08-09T08:28:44Z</time>
      </trkpt>
      <trkpt lat="44.12495" lon="5.82425">
        <ele>1301</ele>
        <time>2019-08-09T08:28:45Z</time>
      </trkpt>
      <trkpt lat="44.12494" lon="5.82428">
        <ele>1302</ele>
        <time>2019-08-09T08:28:46Z</time>
      </trkpt>
      <trkpt lat="44.12494" lon="5.82432">
        <ele>1303</ele>
        <time>2019-08-09T08:28:47Z</time>
      </trkpt>
      <trkpt lat="44.12493" lon="5.82435">
        <ele>1304</ele>
        <time>2019-08-09T08:28:48Z</time>
      </trkpt>
      <trkpt lat="44.12492" lon="5.82437">
        <ele>1305</ele>
        <time>2019-08-09T08:28:49Z</time>
      </trkpt>
      <trkpt lat="44.1249" lon="5.82439">
        <ele>1306</ele>
        <time>2019-08-09T08:28:50Z</time>
      </trkpt>
      <trkpt lat="44.12489" lon="5.82442">
        <ele>1307</ele>
        <time>2019-08-09T08:28:51Z</time>
      </trkpt>
      <trkpt lat="44.12488" lon="5.82445">
        <ele>1308</ele>
        <time>2019-08-09T08:28:52Z</time>
      </trkpt>
      <trkpt lat="44.12487" lon="5.82449">
        <ele>1309</ele>
        <time>2019-08-09T08:28:53Z</time>
      </trkpt>
      <trkpt lat="44.12486" lon="5.82452">
        <ele>1310</ele>
        <time>2019-08-09T08:28:54Z</time>
      </trkpt>
      <trkpt lat="44.12486" lon="5.82455">
        <ele>1311</ele>
        <time>2019-08-09T08:28:55Z</time>
      </trkpt>
      <trkpt lat="44.12486" lon="5.82459">
        <ele>1312</ele>
        <time>2019-08-09T08:28:56Z</time>
      </trkpt>
      <trkpt lat="44.12488" lon="5.82463">
        <ele>1313</ele>
        <time>2019-08-09T08:28:57Z</time>
      </trkpt>
      <trkpt lat="44.12488" lon="5.82467">
        <ele>1314</ele>
        <time>2019-08-09T08:28:58Z</time>
      </trkpt>
      <trkpt lat="44.12489" lon="5.82472">
        <ele>1315</ele>
        <time>2019-08-09T08:28:59Z</time>
      </trkpt>
      <trkpt lat="44.12489" lon="5.82477">
        <ele>1316</ele>
        <time>2019-08-09T08:29:00Z</time>
      </trkpt>
      <trkpt lat="44.12487" lon="5.82479">
        <ele>1317</ele>
        <time>2019-08-09T08:29:01Z</time>
      </trkpt>
      <trkpt lat="44.12487" lon="5.82482">
        <ele>1317</ele>
        <time>2019-08-09T08:29:02Z</time>
      </trkpt>
      <trkpt lat="44.12487" lon="5.82485">
        <ele>1317</ele>
        <time>2019-08-09T08:29:03Z</time>
      </trkpt>
      <trkpt lat="44.12487" lon="5.82489">
        <ele>1317</ele>
        <time>2019-08-09T08:29:04Z</time>
      </trkpt>
      <trkpt lat="44.12487" lon="5.82492">
        <ele>1317</ele>
        <time>2019-08-09T08:29:05Z</time>
      </trkpt>
      <trkpt lat="44.12487" lon="5.82496">
        <ele>1317</ele>
        <time>2019-08-09T08:29:06Z</time>
      </trkpt>
      <trkpt lat="44.12487" lon="5.825">
        <ele>1317</ele>
        <time>2019-08-09T08:29:07Z</time>
      </trkpt>
      <trkpt lat="44.12487" lon="5.82504">
        <ele>1317</ele>
        <time>2019-08-09T08:29:08Z</time>
      </trkpt>
      <trkpt lat="44.12486" lon="5.82507">
        <ele>1317</ele>
        <time>2019-08-09T08:29:09Z</time>
      </trkpt>
      <trkpt lat="44.12485" lon="5.8251">
        <ele>1317</ele>
        <time>2019-08-09T08:29:10Z</time>
      </trkpt>
      <trkpt lat="44.12483" lon="5.82513">
        <ele>1317</ele>
        <time>2019-08-09T08:29:11Z</time>
      </trkpt>
      <trkpt lat="44.12482" lon="5.82517">
        <ele>1317</ele>
        <time>2019-08-09T08:29:12Z</time>
      </trkpt>
      <trkpt lat="44.12481" lon="5.8252">
        <ele>1316</ele>
        <time>2019-08-09T08:29:13Z</time>
      </trkpt>
      <trkpt lat="44.12479" lon="5.82524">
        <ele>1315</ele>
        <time>2019-08-09T08:29:14Z</time>
      </trkpt>
      <trkpt lat="44.12479" lon="5.82527">
        <ele>1314</ele>
        <time>2019-08-09T08:29:15Z</time>
      </trkpt>
      <trkpt lat="44.12477" lon="5.8253">
        <ele>1313</ele>
        <time>2019-08-09T08:29:16Z</time>
      </trkpt>
      <trkpt lat="44.12476" lon="5.82533">
        <ele>1312</ele>
        <time>2019-08-09T08:29:17Z</time>
      </trkpt>
      <trkpt lat="44.12474" lon="5.82536">
        <ele>1311</ele>
        <time>2019-08-09T08:29:18Z</time>
      </trkpt>
      <trkpt lat="44.12471" lon="5.82539">
        <ele>1310</ele>
        <time>2019-08-09T08:29:19Z</time>
      </trkpt>
      <trkpt lat="44.12469" lon="5.82543">
        <ele>1309</ele>
        <time>2019-08-09T08:29:20Z</time>
      </trkpt>
      <trkpt lat="44.12467" lon="5.82546">
        <ele>1308</ele>
        <time>2019-08-09T08:29:21Z</time>
      </trkpt>
      <trkpt lat="44.12465" lon="5.8255">
        <ele>1307</ele>
        <time>2019-08-09T08:29:22Z</time>
      </trkpt>
      <trkpt lat="44.12463" lon="5.82553">
        <ele>1306</ele>
        <time>2019-08-09T08:29:23Z</time>
      </trkpt>
      <trkpt lat="44.12462" lon="5.82556">
        <ele>1305</ele>
        <time>2019-08-09T08:29:24Z</time>
      </trkpt>
      <trkpt lat="44.1246" lon="5.82558">
        <ele>1304</ele>
        <time>2019-08-09T08:29:25Z</time>
      </trkpt>
      <trkpt lat="44.12458" lon="5.82561">
        <ele>1303</ele>
        <time>2019-08-09T08:29:26Z</time>
      </trkpt>
      <trkpt lat="44.12456" lon="5.82564">
        <ele>1303</ele>
        <time>2019-08-09T08:29:27Z</time>
      </trkpt>
      <trkpt lat="44.12457" lon="5.82568">
        <ele>1303</ele>
        <time>2019-08-09T08:29:28Z</time>
      </trkpt>
      <trkpt lat="44.12455" lon="5.82571">
        <ele>1303</ele>
        <time>2019-08-09T08:29:29Z</time>
      </trkpt>
      <trkpt lat="44.12453" lon="5.82574">
        <ele>1303</ele>
        <time>2019-08-09T08:29:30Z</time>
      </trkpt>
      <trkpt lat="44.12452" lon="5.82578">
        <ele>1303</ele>
        <time>2019-08-09T08:29:31Z</time>
      </trkpt>
      <trkpt lat="44.1245" lon="5.8258">
        <ele>1303</ele>
        <time>2019-08-09T08:29:32Z</time>
      </trkpt>
      <trkpt lat="44.12449" lon="5.82584">
        <ele>1303</ele>
        <time>2019-08-09T08:29:33Z</time>
      </trkpt>
      <trkpt lat="44.12448" lon="5.82587">
        <ele>1303</ele>
        <time>2019-08-09T08:29:34Z</time>
      </trkpt>
      <trkpt lat="44.12448" lon="5.82591">
        <ele>1303</ele>
        <time>2019-08-09T08:29:35Z</time>
      </trkpt>
      <trkpt lat="44.12446" lon="5.82593">
        <ele>1303</ele>
        <time>2019-08-09T08:29:36Z</time>
      </trkpt>
      <trkpt lat="44.12445" lon="5.82596">
        <ele>1304</ele>
        <time>2019-08-09T08:29:37Z</time>
      </trkpt>
      <trkpt lat="44.12443" lon="5.82598">
        <ele>1305</ele>
        <time>2019-08-09T08:29:38Z</time>
      </trkpt>
      <trkpt lat="44.12441" lon="5.82601">
        <ele>1305</ele>
        <time>2019-08-09T08:29:39Z</time>
      </trkpt>
      <trkpt lat="44.1244" lon="5.82603">
        <ele>1305</ele>
        <time>2019-08-09T08:29:40Z</time>
      </trkpt>
      <trkpt lat="44.12438" lon="5.82605">
        <ele>1305</ele>
        <time>2019-08-09T08:29:41Z</time>
      </trkpt>
      <trkpt lat="44.12437" lon="5.82608">
        <ele>1305</ele>
        <time>2019-08-09T08:29:42Z</time>
      </trkpt>
      <trkpt lat="44.12435" lon="5.8261">
        <ele>1305</ele>
        <time>2019-08-09T08:29:43Z</time>
      </trkpt>
      <trkpt lat="44.12434" lon="5.82612">
        <ele>1305</ele>
        <time>2019-08-09T08:29:44Z</time>
      </trkpt>
      <trkpt lat="44.12432" lon="5.82614">
        <ele>1305</ele>
        <time>2019-08-09T08:29:45Z</time>
      </trkpt>
      <trkpt lat="44.12431" lon="5.82617">
        <ele>1305</ele>
        <time>2019-08-09T08:29:46Z</time>
      </trkpt>
      <trkpt lat="44.1243" lon="5.82619">
        <ele>1305</ele>
        <time>2019-08-09T08:29:47Z</time>
      </trkpt>
      <trkpt lat="44.12428" lon="5.82621">
        <ele>1305</ele>
        <time>2019-08-09T08:29:48Z</time>
      </trkpt>
      <trkpt lat="44.12426" lon="5.82624">
        <ele>1305</ele>
        <time>2019-08-09T08:29:49Z</time>
      </trkpt>
      <trkpt lat="44.12424" lon="5.82627">
        <ele>1305</ele>
        <time>2019-08-09T08:29:50Z</time>
      </trkpt>
      <trkpt lat="44.12422" lon="5.8263">
        <ele>1305</ele>
        <time>2019-08-09T08:29:51Z</time>
      </trkpt>
      <trkpt lat="44.1242" lon="5.82632">
        <ele>1305</ele>
        <time>2019-08-09T08:29:52Z</time>
      </trkpt>
      <trkpt lat="44.12418" lon="5.82635">
        <ele>1305</ele>
        <time>2019-08-09T08:29:53Z</time>
      </trkpt>
      <trkpt lat="44.12417" lon="5.82637">
        <ele>1305</ele>
        <time>2019-08-09T08:29:54Z</time>
      </trkpt>
      <trkpt lat="44.12415" lon="5.82639">
        <ele>1306</ele>
        <time>2019-08-09T08:29:55Z</time>
      </trkpt>
      <trkpt lat="44.12414" lon="5.82641">
        <ele>1306</ele>
        <time>2019-08-09T08:29:56Z</time>
      </trkpt>
      <trkpt lat="44.12412" lon="5.82644">
        <ele>1307</ele>
        <time>2019-08-09T08:29:57Z</time>
      </trkpt>
      <trkpt lat="44.12411" lon="5.82645">
        <ele>1307</ele>
        <time>2019-08-09T08:29:58Z</time>
      </trkpt>
      <trkpt lat="44.1241" lon="5.82647">
        <ele>1308</ele>
        <time>2019-08-09T08:29:59Z</time>
      </trkpt>
      <trkpt lat="44.12408" lon="5.82649">
        <ele>1309</ele>
        <time>2019-08-09T08:30:00Z</time>
      </trkpt>
      <trkpt lat="44.12407" lon="5.82651">
        <ele>1310</ele>
        <time>2019-08-09T08:30:01Z</time>
      </trkpt>
      <trkpt lat="44.12405" lon="5.82654">
        <ele>1311</ele>
        <time>2019-08-09T08:30:02Z</time>
      </trkpt>
      <trkpt lat="44.12402" lon="5.82656">
        <ele>1312</ele>
        <time>2019-08-09T08:30:03Z</time>
      </trkpt>
      <trkpt lat="44.124" lon="5.82657">
        <ele>1313</ele>
        <time>2019-08-09T08:30:04Z</time>
      </trkpt>
      <trkpt lat="44.12398" lon="5.82659">
        <ele>1313</ele>
        <time>2019-08-09T08:30:05Z</time>
      </trkpt>
      <trkpt lat="44.12396" lon="5.82661">
        <ele>1314</ele>
        <time>2019-08-09T08:30:06Z</time>
      </trkpt>
      <trkpt lat="44.12394" lon="5.82664">
        <ele>1314</ele>
        <time>2019-08-09T08:30:07Z</time>
      </trkpt>
      <trkpt lat="44.12392" lon="5.82666">
        <ele>1315</ele>
        <time>2019-08-09T08:30:08Z</time>
      </trkpt>
      <trkpt lat="44.1239" lon="5.82669">
        <ele>1315</ele>
        <time>2019-08-09T08:30:09Z</time>
      </trkpt>
      <trkpt lat="44.12388" lon="5.82673">
        <ele>1315</ele>
        <time>2019-08-09T08:30:10Z</time>
      </trkpt>
      <trkpt lat="44.12386" lon="5.82676">
        <ele>1316</ele>
        <time>2019-08-09T08:30:11Z</time>
      </trkpt>
      <trkpt lat="44.12384" lon="5.8268">
        <ele>1316</ele>
        <time>2019-08-09T08:30:12Z</time>
      </trkpt>
      <trkpt lat="44.12383" lon="5.82682">
        <ele>1316</ele>
        <time>2019-08-09T08:30:13Z</time>
      </trkpt>
      <trkpt lat="44.12382" lon="5.82685">
        <ele>1316</ele>
        <time>2019-08-09T08:30:14Z</time>
      </trkpt>
      <trkpt lat="44.1238" lon="5.82688">
        <ele>1316</ele>
        <time>2019-08-09T08:30:15Z</time>
      </trkpt>
      <trkpt lat="44.12378" lon="5.82692">
        <ele>1316</ele>
        <time>2019-08-09T08:30:16Z</time>
      </trkpt>
      <trkpt lat="44.12378" lon="5.82695">
        <ele>1316</ele>
        <time>2019-08-09T08:30:17Z</time>
      </trkpt>
      <trkpt lat="44.12376" lon="5.82698">
        <ele>1317</ele>
        <time>2019-08-09T08:30:18Z</time>
      </trkpt>
      <trkpt lat="44.12374" lon="5.82702">
        <ele>1317</ele>
        <time>2019-08-09T08:30:19Z</time>
      </trkpt>
      <trkpt lat="44.12373" lon="5.82706">
        <ele>1318</ele>
        <time>2019-08-09T08:30:20Z</time>
      </trkpt>
      <trkpt lat="44.12372" lon="5.8271">
        <ele>1318</ele>
        <time>2019-08-09T08:30:21Z</time>
      </trkpt>
      <trkpt lat="44.12371" lon="5.82715">
        <ele>1318</ele>
        <time>2019-08-09T08:30:22Z</time>
      </trkpt>
      <trkpt lat="44.1237" lon="5.82719">
        <ele>1318</ele>
        <time>2019-08-09T08:30:23Z</time>
      </trkpt>
      <trkpt lat="44.12368" lon="5.82723">
        <ele>1318</ele>
        <time>2019-08-09T08:30:24Z</time>
      </trkpt>
      <trkpt lat="44.12367" lon="5.82726">
        <ele>1318</ele>
        <time>2019-08-09T08:30:25Z</time>
      </trkpt>
      <trkpt lat="44.12367" lon="5.8273">
        <ele>1319</ele>
        <time>2019-08-09T08:30:26Z</time>
      </trkpt>
      <trkpt lat="44.12365" lon="5.82733">
        <ele>1319</ele>
        <time>2019-08-09T08:30:27Z</time>
      </trkpt>
      <trkpt lat="44.12363" lon="5.82738">
        <ele>1319</ele>
        <time>2019-08-09T08:30:28Z</time>
      </trkpt>
      <trkpt lat="44.1236" lon="5.82742">
        <ele>1319</ele>
        <time>2019-08-09T08:30:29Z</time>
      </trkpt>
      <trkpt lat="44.12359" lon="5.82746">
        <ele>1320</ele>
        <time>2019-08-09T08:30:30Z</time>
      </trkpt>
      <trkpt lat="44.12357" lon="5.82748">
        <ele>1320</ele>
        <time>2019-08-09T08:30:31Z</time>
      </trkpt>
      <trkpt lat="44.12355" lon="5.82751">
        <ele>1320</ele>
        <time>2019-08-09T08:30:32Z</time>
      </trkpt>
      <trkpt lat="44.12354" lon="5.82754">
        <ele>1320</ele>
        <time>2019-08-09T08:30:33Z</time>
      </trkpt>
      <trkpt lat="44.12351" lon="5.82757">
        <ele>1320</ele>
        <time>2019-08-09T08:30:34Z</time>
      </trkpt>
      <trkpt lat="44.12349" lon="5.8276">
        <ele>1320</ele>
        <time>2019-08-09T08:30:35Z</time>
      </trkpt>
      <trkpt lat="44.12347" lon="5.82763">
        <ele>1320</ele>
        <time>2019-08-09T08:30:36Z</time>
      </trkpt>
      <trkpt lat="44.12346" lon="5.82765">
        <ele>1320</ele>
        <time>2019-08-09T08:30:37Z</time>
      </trkpt>
      <trkpt lat="44.12344" lon="5.82768">
        <ele>1320</ele>
        <time>2019-08-09T08:30:38Z</time>
      </trkpt>
      <trkpt lat="44.12341" lon="5.8277">
        <ele>1320</ele>
        <time>2019-08-09T08:30:39Z</time>
      </trkpt>
      <trkpt lat="44.12339" lon="5.82773">
        <ele>1320</ele>
        <time>2019-08-09T08:30:40Z</time>
      </trkpt>
      <trkpt lat="44.12338" lon="5.82775">
        <ele>1320</ele>
        <time>2019-08-09T08:30:41Z</time>
      </trkpt>
      <trkpt lat="44.12337" lon="5.82778">
        <ele>1320</ele>
        <time>2019-08-09T08:30:42Z</time>
      </trkpt>
      <trkpt lat="44.12335" lon="5.82781">
        <ele>1320</ele>
        <time>2019-08-09T08:30:43Z</time>
      </trkpt>
      <trkpt lat="44.12333" lon="5.82783">
        <ele>1320</ele>
        <time>2019-08-09T08:30:44Z</time>
      </trkpt>
      <trkpt lat="44.1233" lon="5.82786">
        <ele>1320</ele>
        <time>2019-08-09T08:30:45Z</time>
      </trkpt>
      <trkpt lat="44.12329" lon="5.82788">
        <ele>1320</ele>
        <time>2019-08-09T08:30:46Z</time>
      </trkpt>
      <trkpt lat="44.12328" lon="5.8279">
        <ele>1320</ele>
        <time>2019-08-09T08:30:47Z</time>
      </trkpt>
      <trkpt lat="44.12325" lon="5.82792">
        <ele>1320</ele>
        <time>2019-08-09T08:30:48Z</time>
      </trkpt>
      <trkpt lat="44.12322" lon="5.82794">
        <ele>1321</ele>
        <time>2019-08-09T08:30:49Z</time>
      </trkpt>
      <trkpt lat="44.1232" lon="5.82795">
        <ele>1321</ele>
        <time>2019-08-09T08:30:50Z</time>
      </trkpt>
      <trkpt lat="44.12317" lon="5.82796">
        <ele>1321</ele>
        <time>2019-08-09T08:30:51Z</time>
      </trkpt>
      <trkpt lat="44.12315" lon="5.82799">
        <ele>1321</ele>
        <time>2019-08-09T08:30:52Z</time>
      </trkpt>
      <trkpt lat="44.12312" lon="5.82801">
        <ele>1321</ele>
        <time>2019-08-09T08:30:53Z</time>
      </trkpt>
      <trkpt lat="44.1231" lon="5.82803">
        <ele>1321</ele>
        <time>2019-08-09T08:30:54Z</time>
      </trkpt>
      <trkpt lat="44.12308" lon="5.82805">
        <ele>1321</ele>
        <time>2019-08-09T08:30:55Z</time>
      </trkpt>
      <trkpt lat="44.12305" lon="5.82807">
        <ele>1321</ele>
        <time>2019-08-09T08:30:56Z</time>
      </trkpt>
      <trkpt lat="44.12304" lon="5.8281">
        <ele>1321</ele>
        <time>2019-08-09T08:30:57Z</time>
      </trkpt>
      <trkpt lat="44.12301" lon="5.82812">
        <ele>1321</ele>
        <time>2019-08-09T08:30:58Z</time>
      </trkpt>
      <trkpt lat="44.123" lon="5.82815">
        <ele>1322</ele>
        <time>2019-08-09T08:30:59Z</time>
      </trkpt>
      <trkpt lat="44.12298" lon="5.82816">
        <ele>1322</ele>
        <time>2019-08-09T08:31:00Z</time>
      </trkpt>
      <trkpt lat="44.12295" lon="5.82819">
        <ele>1323</ele>
        <time>2019-08-09T08:31:01Z</time>
      </trkpt>
      <trkpt lat="44.12293" lon="5.82821">
        <ele>1323</ele>
        <time>2019-08-09T08:31:02Z</time>
      </trkpt>
      <trkpt lat="44.12291" lon="5.82823">
        <ele>1324</ele>
        <time>2019-08-09T08:31:03Z</time>
      </trkpt>
      <trkpt lat="44.12289" lon="5.82826">
        <ele>1324</ele>
        <time>2019-08-09T08:31:04Z</time>
      </trkpt>
      <trkpt lat="44.12288" lon="5.82828">
        <ele>1324</ele>
        <time>2019-08-09T08:31:05Z</time>
      </trkpt>
      <trkpt lat="44.12286" lon="5.82831">
        <ele>1325</ele>
        <time>2019-08-09T08:31:06Z</time>
      </trkpt>
      <trkpt lat="44.12285" lon="5.82835">
        <ele>1326</ele>
        <time>2019-08-09T08:31:07Z</time>
      </trkpt>
      <trkpt lat="44.12284" lon="5.82838">
        <ele>1326</ele>
        <time>2019-08-09T08:31:08Z</time>
      </trkpt>
      <trkpt lat="44.12283" lon="5.8284">
        <ele>1327</ele>
        <time>2019-08-09T08:31:09Z</time>
      </trkpt>
      <trkpt lat="44.12281" lon="5.82844">
        <ele>1328</ele>
        <time>2019-08-09T08:31:10Z</time>
      </trkpt>
      <trkpt lat="44.12279" lon="5.82847">
        <ele>1329</ele>
        <time>2019-08-09T08:31:11Z</time>
      </trkpt>
      <trkpt lat="44.12277" lon="5.82851">
        <ele>1330</ele>
        <time>2019-08-09T08:31:12Z</time>
      </trkpt>
      <trkpt lat="44.12275" lon="5.82854">
        <ele>1330</ele>
        <time>2019-08-09T08:31:13Z</time>
      </trkpt>
      <trkpt lat="44.12272" lon="5.82856">
        <ele>1331</ele>
        <time>2019-08-09T08:31:14Z</time>
      </trkpt>
      <trkpt lat="44.12269" lon="5.82859">
        <ele>1331</ele>
        <time>2019-08-09T08:31:15Z</time>
      </trkpt>
      <trkpt lat="44.12267" lon="5.82863">
        <ele>1331</ele>
        <time>2019-08-09T08:31:16Z</time>
      </trkpt>
      <trkpt lat="44.12264" lon="5.82865">
        <ele>1331</ele>
        <time>2019-08-09T08:31:17Z</time>
      </trkpt>
      <trkpt lat="44.12261" lon="5.82868">
        <ele>1331</ele>
        <time>2019-08-09T08:31:18Z</time>
      </trkpt>
      <trkpt lat="44.1226" lon="5.82871">
        <ele>1331</ele>
        <time>2019-08-09T08:31:19Z</time>
      </trkpt>
      <trkpt lat="44.12257" lon="5.82873">
        <ele>1331</ele>
        <time>2019-08-09T08:31:20Z</time>
      </trkpt>
      <trkpt lat="44.12255" lon="5.82875">
        <ele>1331</ele>
        <time>2019-08-09T08:31:21Z</time>
      </trkpt>
      <trkpt lat="44.12252" lon="5.82878">
        <ele>1331</ele>
        <time>2019-08-09T08:31:22Z</time>
      </trkpt>
      <trkpt lat="44.1225" lon="5.82879">
        <ele>1331</ele>
        <time>2019-08-09T08:31:23Z</time>
      </trkpt>
      <trkpt lat="44.12248" lon="5.82881">
        <ele>1331</ele>
        <time>2019-08-09T08:31:24Z</time>
      </trkpt>
      <trkpt lat="44.12246" lon="5.82885">
        <ele>1331</ele>
        <time>2019-08-09T08:31:25Z</time>
      </trkpt>
      <trkpt lat="44.12245" lon="5.82888">
        <ele>1331</ele>
        <time>2019-08-09T08:31:26Z</time>
      </trkpt>
      <trkpt lat="44.12243" lon="5.82891">
        <ele>1331</ele>
        <time>2019-08-09T08:31:27Z</time>
      </trkpt>
      <trkpt lat="44.12242" lon="5.82893">
        <ele>1331</ele>
        <time>2019-08-09T08:31:28Z</time>
      </trkpt>
      <trkpt lat="44.1224" lon="5.82895">
        <ele>1331</ele>
        <time>2019-08-09T08:31:29Z</time>
      </trkpt>
      <trkpt lat="44.12238" lon="5.82897">
        <ele>1331</ele>
        <time>2019-08-09T08:31:30Z</time>
      </trkpt>
      <trkpt lat="44.12236" lon="5.82899">
        <ele>1331</ele>
        <time>2019-08-09T08:31:31Z</time>
      </trkpt>
      <trkpt lat="44.12232" lon="5.82902">
        <ele>1331</ele>
        <time>2019-08-09T08:31:32Z</time>
      </trkpt>
      <trkpt lat="44.1223" lon="5.82905">
        <ele>1331</ele>
        <time>2019-08-09T08:31:33Z</time>
      </trkpt>
      <trkpt lat="44.12228" lon="5.82908">
        <ele>1331</ele>
        <time>2019-08-09T08:31:34Z</time>
      </trkpt>
      <trkpt lat="44.12227" lon="5.82911">
        <ele>1331</ele>
        <time>2019-08-09T08:31:35Z</time>
      </trkpt>
      <trkpt lat="44.12224" lon="5.82913">
        <ele>1331</ele>
        <time>2019-08-09T08:31:36Z</time>
      </trkpt>
      <trkpt lat="44.12222" lon="5.82916">
        <ele>1330</ele>
        <time>2019-08-09T08:31:37Z</time>
      </trkpt>
      <trkpt lat="44.1222" lon="5.82918">
        <ele>1330</ele>
        <time>2019-08-09T08:31:38Z</time>
      </trkpt>
      <trkpt lat="44.12218" lon="5.82922">
        <ele>1330</ele>
        <time>2019-08-09T08:31:39Z</time>
      </trkpt>
      <trkpt lat="44.12216" lon="5.82925">
        <ele>1330</ele>
        <time>2019-08-09T08:31:40Z</time>
      </trkpt>
      <trkpt lat="44.12216" lon="5.82928">
        <ele>1330</ele>
        <time>2019-08-09T08:31:41Z</time>
      </trkpt>
      <trkpt lat="44.12216" lon="5.82931">
        <ele>1330</ele>
        <time>2019-08-09T08:31:42Z</time>
      </trkpt>
      <trkpt lat="44.12214" lon="5.82935">
        <ele>1330</ele>
        <time>2019-08-09T08:31:43Z</time>
      </trkpt>
      <trkpt lat="44.12213" lon="5.82938">
        <ele>1330</ele>
        <time>2019-08-09T08:31:44Z</time>
      </trkpt>
      <trkpt lat="44.12211" lon="5.82941">
        <ele>1330</ele>
        <time>2019-08-09T08:31:45Z</time>
      </trkpt>
      <trkpt lat="44.12209" lon="5.82944">
        <ele>1330</ele>
        <time>2019-08-09T08:31:46Z</time>
      </trkpt>
      <trkpt lat="44.12208" lon="5.82946">
        <ele>1330</ele>
        <time>2019-08-09T08:31:47Z</time>
      </trkpt>
      <trkpt lat="44.12206" lon="5.82949">
        <ele>1330</ele>
        <time>2019-08-09T08:31:48Z</time>
      </trkpt>
      <trkpt lat="44.12204" lon="5.82951">
        <ele>1330</ele>
        <time>2019-08-09T08:31:49Z</time>
      </trkpt>
      <trkpt lat="44.12202" lon="5.82953">
        <ele>1331</ele>
        <time>2019-08-09T08:31:50Z</time>
      </trkpt>
      <trkpt lat="44.12201" lon="5.82955">
        <ele>1331</ele>
        <time>2019-08-09T08:31:51Z</time>
      </trkpt>
      <trkpt lat="44.12199" lon="5.82958">
        <ele>1331</ele>
        <time>2019-08-09T08:31:52Z</time>
      </trkpt>
      <trkpt lat="44.12196" lon="5.8296">
        <ele>1331</ele>
        <time>2019-08-09T08:31:53Z</time>
      </trkpt>
      <trkpt lat="44.12195" lon="5.82962">
        <ele>1331</ele>
        <time>2019-08-09T08:31:54Z</time>
      </trkpt>
      <trkpt lat="44.12194" lon="5.82964">
        <ele>1331</ele>
        <time>2019-08-09T08:31:55Z</time>
      </trkpt>
      <trkpt lat="44.12192" lon="5.82966">
        <ele>1331</ele>
        <time>2019-08-09T08:31:56Z</time>
      </trkpt>
      <trkpt lat="44.12191" lon="5.82968">
        <ele>1332</ele>
        <time>2019-08-09T08:31:57Z</time>
      </trkpt>
      <trkpt lat="44.12191" lon="5.8297">
        <ele>1333</ele>
        <time>2019-08-09T08:31:58Z</time>
      </trkpt>
      <trkpt lat="44.12189" lon="5.82973">
        <ele>1334</ele>
        <time>2019-08-09T08:31:59Z</time>
      </trkpt>
      <trkpt lat="44.12187" lon="5.82976">
        <ele>1335</ele>
        <time>2019-08-09T08:32:00Z</time>
      </trkpt>
      <trkpt lat="44.12185" lon="5.82978">
        <ele>1336</ele>
        <time>2019-08-09T08:32:01Z</time>
      </trkpt>
      <trkpt lat="44.12183" lon="5.82979">
        <ele>1337</ele>
        <time>2019-08-09T08:32:02Z</time>
      </trkpt>
      <trkpt lat="44.1218" lon="5.82981">
        <ele>1338</ele>
        <time>2019-08-09T08:32:03Z</time>
      </trkpt>
      <trkpt lat="44.12177" lon="5.82983">
        <ele>1339</ele>
        <time>2019-08-09T08:32:04Z</time>
      </trkpt>
      <trkpt lat="44.12175" lon="5.82983">
        <ele>1339</ele>
        <time>2019-08-09T08:32:05Z</time>
      </trkpt>
      <trkpt lat="44.12173" lon="5.82984">
        <ele>1339</ele>
        <time>2019-08-09T08:32:06Z</time>
      </trkpt>
      <trkpt lat="44.1217" lon="5.82986">
        <ele>1340</ele>
        <time>2019-08-09T08:32:07Z</time>
      </trkpt>
      <trkpt lat="44.12168" lon="5.82987">
        <ele>1341</ele>
        <time>2019-08-09T08:32:08Z</time>
      </trkpt>
      <trkpt lat="44.12166" lon="5.82988">
        <ele>1341</ele>
        <time>2019-08-09T08:32:09Z</time>
      </trkpt>
      <trkpt lat="44.12164" lon="5.82989">
        <ele>1342</ele>
        <time>2019-08-09T08:32:10Z</time>
      </trkpt>
      <trkpt lat="44.12161" lon="5.8299">
        <ele>1343</ele>
        <time>2019-08-09T08:32:11Z</time>
      </trkpt>
      <trkpt lat="44.12159" lon="5.82991">
        <ele>1343</ele>
        <time>2019-08-09T08:32:12Z</time>
      </trkpt>
      <trkpt lat="44.12157" lon="5.82992">
        <ele>1344</ele>
        <time>2019-08-09T08:32:13Z</time>
      </trkpt>
      <trkpt lat="44.12154" lon="5.82993">
        <ele>1344</ele>
        <time>2019-08-09T08:32:14Z</time>
      </trkpt>
      <trkpt lat="44.12151" lon="5.82995">
        <ele>1345</ele>
        <time>2019-08-09T08:32:15Z</time>
      </trkpt>
      <trkpt lat="44.12149" lon="5.82997">
        <ele>1345</ele>
        <time>2019-08-09T08:32:16Z</time>
      </trkpt>
      <trkpt lat="44.12146" lon="5.82998">
        <ele>1346</ele>
        <time>2019-08-09T08:32:17Z</time>
      </trkpt>
      <trkpt lat="44.12144" lon="5.83">
        <ele>1347</ele>
        <time>2019-08-09T08:32:18Z</time>
      </trkpt>
      <trkpt lat="44.12143" lon="5.83">
        <ele>1347</ele>
        <time>2019-08-09T08:32:19Z</time>
      </trkpt>
      <trkpt lat="44.12141" lon="5.83002">
        <ele>1347</ele>
        <time>2019-08-09T08:32:20Z</time>
      </trkpt>
      <trkpt lat="44.12139" lon="5.83003">
        <ele>1348</ele>
        <time>2019-08-09T08:32:21Z</time>
      </trkpt>
      <trkpt lat="44.12137" lon="5.83004">
        <ele>1348</ele>
        <time>2019-08-09T08:32:22Z</time>
      </trkpt>
      <trkpt lat="44.12134" lon="5.83006">
        <ele>1348</ele>
        <time>2019-08-09T08:32:23Z</time>
      </trkpt>
      <trkpt lat="44.12132" lon="5.83007">
        <ele>1348</ele>
        <time>2019-08-09T08:32:24Z</time>
      </trkpt>
      <trkpt lat="44.12129" lon="5.83008">
        <ele>1349</ele>
        <time>2019-08-09T08:32:25Z</time>
      </trkpt>
      <trkpt lat="44.12126" lon="5.8301">
        <ele>1349</ele>
        <time>2019-08-09T08:32:26Z</time>
      </trkpt>
      <trkpt lat="44.12123" lon="5.83012">
        <ele>1349</ele>
        <time>2019-08-09T08:32:27Z</time>
      </trkpt>
      <trkpt lat="44.1212" lon="5.83013">
        <ele>1349</ele>
        <time>2019-08-09T08:32:28Z</time>
      </trkpt>
      <trkpt lat="44.12118" lon="5.83014">
        <ele>1350</ele>
        <time>2019-08-09T08:32:29Z</time>
      </trkpt>
      <trkpt lat="44.12116" lon="5.83016">
        <ele>1350</ele>
        <time>2019-08-09T08:32:30Z</time>
      </trkpt>
      <trkpt lat="44.12114" lon="5.83019">
        <ele>1350</ele>
        <time>2019-08-09T08:32:31Z</time>
      </trkpt>
      <trkpt lat="44.12111" lon="5.83021">
        <ele>1350</ele>
        <time>2019-08-09T08:32:32Z</time>
      </trkpt>
      <trkpt lat="44.1211" lon="5.83023">
        <ele>1350</ele>
        <time>2019-08-09T08:32:33Z</time>
      </trkpt>
      <trkpt lat="44.12107" lon="5.83026">
        <ele>1350</ele>
        <time>2019-08-09T08:32:34Z</time>
      </trkpt>
      <trkpt lat="44.12104" lon="5.83029">
        <ele>1350</ele>
        <time>2019-08-09T08:32:35Z</time>
      </trkpt>
      <trkpt lat="44.12103" lon="5.83031">
        <ele>1350</ele>
        <time>2019-08-09T08:32:36Z</time>
      </trkpt>
      <trkpt lat="44.12101" lon="5.83033">
        <ele>1350</ele>
        <time>2019-08-09T08:32:37Z</time>
      </trkpt>
      <trkpt lat="44.12098" lon="5.83035">
        <ele>1351</ele>
        <time>2019-08-09T08:32:38Z</time>
      </trkpt>
      <trkpt lat="44.12096" lon="5.83037">
        <ele>1351</ele>
        <time>2019-08-09T08:32:39Z</time>
      </trkpt>
      <trkpt lat="44.12094" lon="5.8304">
        <ele>1351</ele>
        <time>2019-08-09T08:32:40Z</time>
      </trkpt>
      <trkpt lat="44.12093" lon="5.83042">
        <ele>1351</ele>
        <time>2019-08-09T08:32:41Z</time>
      </trkpt>
      <trkpt lat="44.12092" lon="5.83044">
        <ele>1351</ele>
        <time>2019-08-09T08:32:42Z</time>
      </trkpt>
      <trkpt lat="44.1209" lon="5.83047">
        <ele>1351</ele>
        <time>2019-08-09T08:32:43Z</time>
      </trkpt>
      <trkpt lat="44.12087" lon="5.83051">
        <ele>1351</ele>
        <time>2019-08-09T08:32:44Z</time>
      </trkpt>
      <trkpt lat="44.12085" lon="5.83055">
        <ele>1351</ele>
        <time>2019-08-09T08:32:45Z</time>
      </trkpt>
      <trkpt lat="44.12082" lon="5.83059">
        <ele>1351</ele>
        <time>2019-08-09T08:32:46Z</time>
      </trkpt>
      <trkpt lat="44.12079" lon="5.83062">
        <ele>1351</ele>
        <time>2019-08-09T08:32:47Z</time>
      </trkpt>
      <trkpt lat="44.12077" lon="5.83064">
        <ele>1351</ele>
        <time>2019-08-09T08:32:48Z</time>
      </trkpt>
      <trkpt lat="44.12075" lon="5.83067">
        <ele>1351</ele>
        <time>2019-08-09T08:32:49Z</time>
      </trkpt>
      <trkpt lat="44.12073" lon="5.83071">
        <ele>1351</ele>
        <time>2019-08-09T08:32:50Z</time>
      </trkpt>
      <trkpt lat="44.12071" lon="5.83075">
        <ele>1351</ele>
        <time>2019-08-09T08:32:51Z</time>
      </trkpt>
      <trkpt lat="44.12069" lon="5.83077">
        <ele>1351</ele>
        <time>2019-08-09T08:32:52Z</time>
      </trkpt>
      <trkpt lat="44.12068" lon="5.8308">
        <ele>1351</ele>
        <time>2019-08-09T08:32:53Z</time>
      </trkpt>
      <trkpt lat="44.12066" lon="5.83083">
        <ele>1352</ele>
        <time>2019-08-09T08:32:54Z</time>
      </trkpt>
      <trkpt lat="44.12064" lon="5.83086">
        <ele>1352</ele>
        <time>2019-08-09T08:32:55Z</time>
      </trkpt>
      <trkpt lat="44.12063" lon="5.83088">
        <ele>1352</ele>
        <time>2019-08-09T08:32:56Z</time>
      </trkpt>
      <trkpt lat="44.12061" lon="5.83091">
        <ele>1352</ele>
        <time>2019-08-09T08:32:57Z</time>
      </trkpt>
      <trkpt lat="44.12059" lon="5.83095">
        <ele>1352</ele>
        <time>2019-08-09T08:32:58Z</time>
      </trkpt>
      <trkpt lat="44.12057" lon="5.83098">
        <ele>1352</ele>
        <time>2019-08-09T08:32:59Z</time>
      </trkpt>
      <trkpt lat="44.12055" lon="5.83101">
        <ele>1352</ele>
        <time>2019-08-09T08:33:00Z</time>
      </trkpt>
      <trkpt lat="44.12053" lon="5.83104">
        <ele>1352</ele>
        <time>2019-08-09T08:33:01Z</time>
      </trkpt>
      <trkpt lat="44.12051" lon="5.83108">
        <ele>1352</ele>
        <time>2019-08-09T08:33:02Z</time>
      </trkpt>
      <trkpt lat="44.12049" lon="5.83111">
        <ele>1352</ele>
        <time>2019-08-09T08:33:03Z</time>
      </trkpt>
      <trkpt lat="44.12047" lon="5.83114">
        <ele>1352</ele>
        <time>2019-08-09T08:33:04Z</time>
      </trkpt>
      <trkpt lat="44.12046" lon="5.83117">
        <ele>1352</ele>
        <time>2019-08-09T08:33:05Z</time>
      </trkpt>
      <trkpt lat="44.12044" lon="5.8312">
        <ele>1352</ele>
        <time>2019-08-09T08:33:06Z</time>
      </trkpt>
      <trkpt lat="44.12041" lon="5.83123">
        <ele>1352</ele>
        <time>2019-08-09T08:33:07Z</time>
      </trkpt>
      <trkpt lat="44.1204" lon="5.83126">
        <ele>1352</ele>
        <time>2019-08-09T08:33:08Z</time>
      </trkpt>
      <trkpt lat="44.12038" lon="5.83129">
        <ele>1352</ele>
        <time>2019-08-09T08:33:09Z</time>
      </trkpt>
      <trkpt lat="44.12036" lon="5.83133">
        <ele>1352</ele>
        <time>2019-08-09T08:33:10Z</time>
      </trkpt>
      <trkpt lat="44.12034" lon="5.83136">
        <ele>1352</ele>
        <time>2019-08-09T08:33:11Z</time>
      </trkpt>
      <trkpt lat="44.12032" lon="5.8314">
        <ele>1352</ele>
        <time>2019-08-09T08:33:12Z</time>
      </trkpt>
      <trkpt lat="44.1203" lon="5.83143">
        <ele>1352</ele>
        <time>2019-08-09T08:33:13Z</time>
      </trkpt>
      <trkpt lat="44.12029" lon="5.83146">
        <ele>1352</ele>
        <time>2019-08-09T08:33:14Z</time>
      </trkpt>
      <trkpt lat="44.12027" lon="5.83148">
        <ele>1352</ele>
        <time>2019-08-09T08:33:15Z</time>
      </trkpt>
      <trkpt lat="44.12026" lon="5.83152">
        <ele>1353</ele>
        <time>2019-08-09T08:33:16Z</time>
      </trkpt>
      <trkpt lat="44.12025" lon="5.83155">
        <ele>1353</ele>
        <time>2019-08-09T08:33:17Z</time>
      </trkpt>
      <trkpt lat="44.12024" lon="5.83158">
        <ele>1353</ele>
        <time>2019-08-09T08:33:18Z</time>
      </trkpt>
      <trkpt lat="44.12022" lon="5.83162">
        <ele>1353</ele>
        <time>2019-08-09T08:33:19Z</time>
      </trkpt>
      <trkpt lat="44.12021" lon="5.83165">
        <ele>1353</ele>
        <time>2019-08-09T08:33:20Z</time>
      </trkpt>
      <trkpt lat="44.12019" lon="5.83169">
        <ele>1353</ele>
        <time>2019-08-09T08:33:21Z</time>
      </trkpt>
      <trkpt lat="44.12016" lon="5.83172">
        <ele>1353</ele>
        <time>2019-08-09T08:33:22Z</time>
      </trkpt>
      <trkpt lat="44.12014" lon="5.83175">
        <ele>1353</ele>
        <time>2019-08-09T08:33:23Z</time>
      </trkpt>
      <trkpt lat="44.12012" lon="5.83178">
        <ele>1353</ele>
        <time>2019-08-09T08:33:24Z</time>
      </trkpt>
      <trkpt lat="44.1201" lon="5.83181">
        <ele>1353</ele>
        <time>2019-08-09T08:33:25Z</time>
      </trkpt>
      <trkpt lat="44.12007" lon="5.83184">
        <ele>1353</ele>
        <time>2019-08-09T08:33:26Z</time>
      </trkpt>
      <trkpt lat="44.12004" lon="5.83186">
        <ele>1353</ele>
        <time>2019-08-09T08:33:27Z</time>
      </trkpt>
      <trkpt lat="44.12001" lon="5.83185">
        <ele>1353</ele>
        <time>2019-08-09T08:33:28Z</time>
      </trkpt>
      <trkpt lat="44.11998" lon="5.83182">
        <ele>1353</ele>
        <time>2019-08-09T08:33:29Z</time>
      </trkpt>
      <trkpt lat="44.11997" lon="5.83178">
        <ele>1353</ele>
        <time>2019-08-09T08:33:30Z</time>
      </trkpt>
      <trkpt lat="44.11996" lon="5.83173">
        <ele>1353</ele>
        <time>2019-08-09T08:33:31Z</time>
      </trkpt>
      <trkpt lat="44.11996" lon="5.83168">
        <ele>1353</ele>
        <time>2019-08-09T08:33:32Z</time>
      </trkpt>
      <trkpt lat="44.11997" lon="5.83163">
        <ele>1353</ele>
        <time>2019-08-09T08:33:33Z</time>
      </trkpt>
      <trkpt lat="44.11998" lon="5.8316">
        <ele>1352</ele>
        <time>2019-08-09T08:33:34Z</time>
      </trkpt>
      <trkpt lat="44.11998" lon="5.83157">
        <ele>1352</ele>
        <time>2019-08-09T08:33:35Z</time>
      </trkpt>
      <trkpt lat="44.11999" lon="5.83154">
        <ele>1352</ele>
        <time>2019-08-09T08:33:36Z</time>
      </trkpt>
      <trkpt lat="44.12" lon="5.83151">
        <ele>1351</ele>
        <time>2019-08-09T08:33:37Z</time>
      </trkpt>
      <trkpt lat="44.12001" lon="5.83148">
        <ele>1351</ele>
        <time>2019-08-09T08:33:38Z</time>
      </trkpt>
      <trkpt lat="44.12002" lon="5.83146">
        <ele>1351</ele>
        <time>2019-08-09T08:33:39Z</time>
      </trkpt>
      <trkpt lat="44.12003" lon="5.83143">
        <ele>1351</ele>
        <time>2019-08-09T08:33:40Z</time>
      </trkpt>
      <trkpt lat="44.12004" lon="5.8314">
        <ele>1351</ele>
        <time>2019-08-09T08:33:41Z</time>
      </trkpt>
      <trkpt lat="44.12005" lon="5.83138">
        <ele>1351</ele>
        <time>2019-08-09T08:33:42Z</time>
      </trkpt>
      <trkpt lat="44.12005" lon="5.83135">
        <ele>1351</ele>
        <time>2019-08-09T08:33:43Z</time>
      </trkpt>
      <trkpt lat="44.12005" lon="5.83133">
        <ele>1351</ele>
        <time>2019-08-09T08:33:44Z</time>
      </trkpt>
      <trkpt lat="44.12006" lon="5.8313">
        <ele>1350</ele>
        <time>2019-08-09T08:33:45Z</time>
      </trkpt>
      <trkpt lat="44.12007" lon="5.83127">
        <ele>1350</ele>
        <time>2019-08-09T08:33:46Z</time>
      </trkpt>
      <trkpt lat="44.12008" lon="5.83125">
        <ele>1350</ele>
        <time>2019-08-09T08:33:47Z</time>
      </trkpt>
      <trkpt lat="44.12009" lon="5.83122">
        <ele>1349</ele>
        <time>2019-08-09T08:33:48Z</time>
      </trkpt>
      <trkpt lat="44.12009" lon="5.83119">
        <ele>1349</ele>
        <time>2019-08-09T08:33:49Z</time>
      </trkpt>
      <trkpt lat="44.1201" lon="5.83116">
        <ele>1349</ele>
        <time>2019-08-09T08:33:50Z</time>
      </trkpt>
      <trkpt lat="44.1201" lon="5.83113">
        <ele>1349</ele>
        <time>2019-08-09T08:33:51Z</time>
      </trkpt>
      <trkpt lat="44.12011" lon="5.8311">
        <ele>1348</ele>
        <time>2019-08-09T08:33:52Z</time>
      </trkpt>
      <trkpt lat="44.12012" lon="5.83107">
        <ele>1348</ele>
        <time>2019-08-09T08:33:53Z</time>
      </trkpt>
      <trkpt lat="44.12012" lon="5.83104">
        <ele>1348</ele>
        <time>2019-08-09T08:33:54Z</time>
      </trkpt>
      <trkpt lat="44.12013" lon="5.83101">
        <ele>1348</ele>
        <time>2019-08-09T08:33:55Z</time>
      </trkpt>
      <trkpt lat="44.12014" lon="5.83098">
        <ele>1348</ele>
        <time>2019-08-09T08:33:56Z</time>
      </trkpt>
      <trkpt lat="44.12014" lon="5.83095">
        <ele>1347</ele>
        <time>2019-08-09T08:33:57Z</time>
      </trkpt>
      <trkpt lat="44.12015" lon="5.83092">
        <ele>1347</ele>
        <time>2019-08-09T08:33:58Z</time>
      </trkpt>
      <trkpt lat="44.12015" lon="5.83089">
        <ele>1347</ele>
        <time>2019-08-09T08:33:59Z</time>
      </trkpt>
      <trkpt lat="44.12016" lon="5.83086">
        <ele>1347</ele>
        <time>2019-08-09T08:34:00Z</time>
      </trkpt>
      <trkpt lat="44.12017" lon="5.83083">
        <ele>1347</ele>
        <time>2019-08-09T08:34:01Z</time>
      </trkpt>
      <trkpt lat="44.12019" lon="5.8308">
        <ele>1347</ele>
        <time>2019-08-09T08:34:02Z</time>
      </trkpt>
      <trkpt lat="44.12019" lon="5.83078">
        <ele>1347</ele>
        <time>2019-08-09T08:34:03Z</time>
      </trkpt>
      <trkpt lat="44.1202" lon="5.83075">
        <ele>1347</ele>
        <time>2019-08-09T08:34:04Z</time>
      </trkpt>
      <trkpt lat="44.12021" lon="5.83072">
        <ele>1347</ele>
        <time>2019-08-09T08:34:05Z</time>
      </trkpt>
      <trkpt lat="44.12022" lon="5.83069">
        <ele>1347</ele>
        <time>2019-08-09T08:34:06Z</time>
      </trkpt>
      <trkpt lat="44.12023" lon="5.83066">
        <ele>1347</ele>
        <time>2019-08-09T08:34:07Z</time>
      </trkpt>
      <trkpt lat="44.12024" lon="5.83063">
        <ele>1347</ele>
        <time>2019-08-09T08:34:08Z</time>
      </trkpt>
      <trkpt lat="44.12025" lon="5.8306">
        <ele>1347</ele>
        <time>2019-08-09T08:34:09Z</time>
      </trkpt>
      <trkpt lat="44.12025" lon="5.83057">
        <ele>1347</ele>
        <time>2019-08-09T08:34:10Z</time>
      </trkpt>
      <trkpt lat="44.12025" lon="5.83054">
        <ele>1347</ele>
        <time>2019-08-09T08:34:11Z</time>
      </trkpt>
      <trkpt lat="44.12026" lon="5.83051">
        <ele>1346</ele>
        <time>2019-08-09T08:34:12Z</time>
      </trkpt>
      <trkpt lat="44.12027" lon="5.83048">
        <ele>1346</ele>
        <time>2019-08-09T08:34:13Z</time>
      </trkpt>
      <trkpt lat="44.12028" lon="5.83045">
        <ele>1346</ele>
        <time>2019-08-09T08:34:14Z</time>
      </trkpt>
      <trkpt lat="44.12029" lon="5.83042">
        <ele>1346</ele>
        <time>2019-08-09T08:34:15Z</time>
      </trkpt>
      <trkpt lat="44.1203" lon="5.83039">
        <ele>1346</ele>
        <time>2019-08-09T08:34:16Z</time>
      </trkpt>
      <trkpt lat="44.12031" lon="5.83036">
        <ele>1346</ele>
        <time>2019-08-09T08:34:17Z</time>
      </trkpt>
      <trkpt lat="44.12032" lon="5.83033">
        <ele>1345</ele>
        <time>2019-08-09T08:34:18Z</time>
      </trkpt>
      <trkpt lat="44.12032" lon="5.8303">
        <ele>1345</ele>
        <time>2019-08-09T08:34:19Z</time>
      </trkpt>
      <trkpt lat="44.12032" lon="5.83027">
        <ele>1345</ele>
        <time>2019-08-09T08:34:20Z</time>
      </trkpt>
      <trkpt lat="44.12033" lon="5.83024">
        <ele>1344</ele>
        <time>2019-08-09T08:34:21Z</time>
      </trkpt>
      <trkpt lat="44.12034" lon="5.83021">
        <ele>1344</ele>
        <time>2019-08-09T08:34:22Z</time>
      </trkpt>
      <trkpt lat="44.12035" lon="5.83018">
        <ele>1344</ele>
        <time>2019-08-09T08:34:23Z</time>
      </trkpt>
      <trkpt lat="44.12037" lon="5.83015">
        <ele>1343</ele>
        <time>2019-08-09T08:34:24Z</time>
      </trkpt>
      <trkpt lat="44.12038" lon="5.83012">
        <ele>1343</ele>
        <time>2019-08-09T08:34:25Z</time>
      </trkpt>
      <trkpt lat="44.12039" lon="5.83008">
        <ele>1343</ele>
        <time>2019-08-09T08:34:26Z</time>
      </trkpt>
      <trkpt lat="44.1204" lon="5.83005">
        <ele>1343</ele>
        <time>2019-08-09T08:34:27Z</time>
      </trkpt>
      <trkpt lat="44.12042" lon="5.83002">
        <ele>1343</ele>
        <time>2019-08-09T08:34:28Z</time>
      </trkpt>
      <trkpt lat="44.12043" lon="5.82999">
        <ele>1343</ele>
        <time>2019-08-09T08:34:29Z</time>
      </trkpt>
      <trkpt lat="44.12044" lon="5.82995">
        <ele>1343</ele>
        <time>2019-08-09T08:34:30Z</time>
      </trkpt>
      <trkpt lat="44.12044" lon="5.82992">
        <ele>1343</ele>
        <time>2019-08-09T08:34:31Z</time>
      </trkpt>
      <trkpt lat="44.12043" lon="5.82987">
        <ele>1342</ele>
        <time>2019-08-09T08:34:32Z</time>
      </trkpt>
      <trkpt lat="44.12045" lon="5.82984">
        <ele>1342</ele>
        <time>2019-08-09T08:34:33Z</time>
      </trkpt>
      <trkpt lat="44.12046" lon="5.8298">
        <ele>1342</ele>
        <time>2019-08-09T08:34:34Z</time>
      </trkpt>
      <trkpt lat="44.12048" lon="5.82978">
        <ele>1342</ele>
        <time>2019-08-09T08:34:35Z</time>
      </trkpt>
      <trkpt lat="44.12048" lon="5.82974">
        <ele>1342</ele>
        <time>2019-08-09T08:34:36Z</time>
      </trkpt>
      <trkpt lat="44.12048" lon="5.82971">
        <ele>1342</ele>
        <time>2019-08-09T08:34:37Z</time>
      </trkpt>
      <trkpt lat="44.12049" lon="5.82969">
        <ele>1342</ele>
        <time>2019-08-09T08:34:38Z</time>
      </trkpt>
      <trkpt lat="44.12051" lon="5.82966">
        <ele>1342</ele>
        <time>2019-08-09T08:34:39Z</time>
      </trkpt>
      <trkpt lat="44.12052" lon="5.82963">
        <ele>1342</ele>
        <time>2019-08-09T08:34:40Z</time>
      </trkpt>
      <trkpt lat="44.12053" lon="5.82959">
        <ele>1342</ele>
        <time>2019-08-09T08:34:41Z</time>
      </trkpt>
      <trkpt lat="44.12054" lon="5.82956">
        <ele>1342</ele>
        <time>2019-08-09T08:34:42Z</time>
      </trkpt>
      <trkpt lat="44.12056" lon="5.82953">
        <ele>1342</ele>
        <time>2019-08-09T08:34:43Z</time>
      </trkpt>
      <trkpt lat="44.12058" lon="5.82951">
        <ele>1342</ele>
        <time>2019-08-09T08:34:44Z</time>
      </trkpt>
      <trkpt lat="44.1206" lon="5.82949">
        <ele>1342</ele>
        <time>2019-08-09T08:34:45Z</time>
      </trkpt>
      <trkpt lat="44.12063" lon="5.82947">
        <ele>1342</ele>
        <time>2019-08-09T08:34:46Z</time>
      </trkpt>
      <trkpt lat="44.12065" lon="5.82944">
        <ele>1342</ele>
        <time>2019-08-09T08:34:47Z</time>
      </trkpt>
      <trkpt lat="44.12067" lon="5.82942">
        <ele>1342</ele>
        <time>2019-08-09T08:34:48Z</time>
      </trkpt>
      <trkpt lat="44.12069" lon="5.8294">
        <ele>1342</ele>
        <time>2019-08-09T08:34:49Z</time>
      </trkpt>
      <trkpt lat="44.12071" lon="5.82937">
        <ele>1342</ele>
        <time>2019-08-09T08:34:50Z</time>
      </trkpt>
      <trkpt lat="44.12072" lon="5.82935">
        <ele>1342</ele>
        <time>2019-08-09T08:34:51Z</time>
      </trkpt>
      <trkpt lat="44.12074" lon="5.82933">
        <ele>1342</ele>
        <time>2019-08-09T08:34:52Z</time>
      </trkpt>
      <trkpt lat="44.12076" lon="5.8293">
        <ele>1342</ele>
        <time>2019-08-09T08:34:53Z</time>
      </trkpt>
      <trkpt lat="44.12077" lon="5.82928">
        <ele>1342</ele>
        <time>2019-08-09T08:34:54Z</time>
      </trkpt>
      <trkpt lat="44.12079" lon="5.82926">
        <ele>1342</ele>
        <time>2019-08-09T08:34:55Z</time>
      </trkpt>
      <trkpt lat="44.12082" lon="5.82924">
        <ele>1342</ele>
        <time>2019-08-09T08:34:56Z</time>
      </trkpt>
      <trkpt lat="44.12084" lon="5.82922">
        <ele>1342</ele>
        <time>2019-08-09T08:34:57Z</time>
      </trkpt>
      <trkpt lat="44.12087" lon="5.8292">
        <ele>1342</ele>
        <time>2019-08-09T08:34:58Z</time>
      </trkpt>
      <trkpt lat="44.1209" lon="5.8292">
        <ele>1342</ele>
        <time>2019-08-09T08:34:59Z</time>
      </trkpt>
      <trkpt lat="44.12092" lon="5.82918">
        <ele>1342</ele>
        <time>2019-08-09T08:35:00Z</time>
      </trkpt>
      <trkpt lat="44.12094" lon="5.82915">
        <ele>1342</ele>
        <time>2019-08-09T08:35:01Z</time>
      </trkpt>
      <trkpt lat="44.12097" lon="5.82914">
        <ele>1342</ele>
        <time>2019-08-09T08:35:02Z</time>
      </trkpt>
      <trkpt lat="44.12099" lon="5.82912">
        <ele>1342</ele>
        <time>2019-08-09T08:35:03Z</time>
      </trkpt>
      <trkpt lat="44.12101" lon="5.8291">
        <ele>1342</ele>
        <time>2019-08-09T08:35:04Z</time>
      </trkpt>
      <trkpt lat="44.12103" lon="5.82908">
        <ele>1342</ele>
        <time>2019-08-09T08:35:05Z</time>
      </trkpt>
      <trkpt lat="44.12105" lon="5.82906">
        <ele>1342</ele>
        <time>2019-08-09T08:35:06Z</time>
      </trkpt>
      <trkpt lat="44.12107" lon="5.82904">
        <ele>1342</ele>
        <time>2019-08-09T08:35:07Z</time>
      </trkpt>
      <trkpt lat="44.12109" lon="5.82902">
        <ele>1342</ele>
        <time>2019-08-09T08:35:08Z</time>
      </trkpt>
      <trkpt lat="44.12111" lon="5.82901">
        <ele>1342</ele>
        <time>2019-08-09T08:35:09Z</time>
      </trkpt>
      <trkpt lat="44.12113" lon="5.82899">
        <ele>1342</ele>
        <time>2019-08-09T08:35:10Z</time>
      </trkpt>
      <trkpt lat="44.12114" lon="5.82897">
        <ele>1342</ele>
        <time>2019-08-09T08:35:11Z</time>
      </trkpt>
      <trkpt lat="44.12116" lon="5.82895">
        <ele>1342</ele>
        <time>2019-08-09T08:35:12Z</time>
      </trkpt>
      <trkpt lat="44.12118" lon="5.82893">
        <ele>1342</ele>
        <time>2019-08-09T08:35:13Z</time>
      </trkpt>
      <trkpt lat="44.1212" lon="5.82891">
        <ele>1342</ele>
        <time>2019-08-09T08:35:14Z</time>
      </trkpt>
      <trkpt lat="44.12121" lon="5.82889">
        <ele>1342</ele>
        <time>2019-08-09T08:35:15Z</time>
      </trkpt>
      <trkpt lat="44.12123" lon="5.82886">
        <ele>1342</ele>
        <time>2019-08-09T08:35:16Z</time>
      </trkpt>
      <trkpt lat="44.12124" lon="5.82884">
        <ele>1342</ele>
        <time>2019-08-09T08:35:17Z</time>
      </trkpt>
      <trkpt lat="44.12125" lon="5.82881">
        <ele>1342</ele>
        <time>2019-08-09T08:35:18Z</time>
      </trkpt>
      <trkpt lat="44.12127" lon="5.82878">
        <ele>1342</ele>
        <time>2019-08-09T08:35:19Z</time>
      </trkpt>
      <trkpt lat="44.12128" lon="5.82876">
        <ele>1342</ele>
        <time>2019-08-09T08:35:20Z</time>
      </trkpt>
      <trkpt lat="44.1213" lon="5.82873">
        <ele>1342</ele>
        <time>2019-08-09T08:35:21Z</time>
      </trkpt>
      <trkpt lat="44.12132" lon="5.8287">
        <ele>1342</ele>
        <time>2019-08-09T08:35:22Z</time>
      </trkpt>
      <trkpt lat="44.12133" lon="5.82868">
        <ele>1342</ele>
        <time>2019-08-09T08:35:23Z</time>
      </trkpt>
      <trkpt lat="44.12135" lon="5.82866">
        <ele>1342</ele>
        <time>2019-08-09T08:35:24Z</time>
      </trkpt>
      <trkpt lat="44.12135" lon="5.82863">
        <ele>1342</ele>
        <time>2019-08-09T08:35:25Z</time>
      </trkpt>
      <trkpt lat="44.12136" lon="5.8286">
        <ele>1342</ele>
        <time>2019-08-09T08:35:26Z</time>
      </trkpt>
      <trkpt lat="44.12137" lon="5.82857">
        <ele>1342</ele>
        <time>2019-08-09T08:35:27Z</time>
      </trkpt>
      <trkpt lat="44.12138" lon="5.82854">
        <ele>1342</ele>
        <time>2019-08-09T08:35:28Z</time>
      </trkpt>
      <trkpt lat="44.12138" lon="5.82851">
        <ele>1342</ele>
        <time>2019-08-09T08:35:29Z</time>
      </trkpt>
      <trkpt lat="44.12138" lon="5.82849">
        <ele>1342</ele>
        <time>2019-08-09T08:35:30Z</time>
      </trkpt>
      <trkpt lat="44.1214" lon="5.82846">
        <ele>1342</ele>
        <time>2019-08-09T08:35:31Z</time>
      </trkpt>
      <trkpt lat="44.1214" lon="5.82844">
        <ele>1342</ele>
        <time>2019-08-09T08:35:32Z</time>
      </trkpt>
      <trkpt lat="44.1214" lon="5.82842">
        <ele>1342</ele>
        <time>2019-08-09T08:35:33Z</time>
      </trkpt>
      <trkpt lat="44.1214" lon="5.82839">
        <ele>1342</ele>
        <time>2019-08-09T08:35:34Z</time>
      </trkpt>
      <trkpt lat="44.1214" lon="5.82836">
        <ele>1342</ele>
        <time>2019-08-09T08:35:35Z</time>
      </trkpt>
      <trkpt lat="44.12142" lon="5.82834">
        <ele>1342</ele>
        <time>2019-08-09T08:35:36Z</time>
      </trkpt>
      <trkpt lat="44.12143" lon="5.82831">
        <ele>1342</ele>
        <time>2019-08-09T08:35:37Z</time>
      </trkpt>
      <trkpt lat="44.12143" lon="5.82829">
        <ele>1342</ele>
        <time>2019-08-09T08:35:38Z</time>
      </trkpt>
      <trkpt lat="44.12145" lon="5.82827">
        <ele>1342</ele>
        <time>2019-08-09T08:35:39Z</time>
      </trkpt>
      <trkpt lat="44.12146" lon="5.82824">
        <ele>1342</ele>
        <time>2019-08-09T08:35:40Z</time>
      </trkpt>
      <trkpt lat="44.12148" lon="5.82821">
        <ele>1342</ele>
        <time>2019-08-09T08:35:41Z</time>
      </trkpt>
      <trkpt lat="44.12149" lon="5.82818">
        <ele>1342</ele>
        <time>2019-08-09T08:35:42Z</time>
      </trkpt>
      <trkpt lat="44.12151" lon="5.82816">
        <ele>1343</ele>
        <time>2019-08-09T08:35:43Z</time>
      </trkpt>
      <trkpt lat="44.12152" lon="5.82813">
        <ele>1343</ele>
        <time>2019-08-09T08:35:44Z</time>
      </trkpt>
      <trkpt lat="44.12153" lon="5.8281">
        <ele>1343</ele>
        <time>2019-08-09T08:35:45Z</time>
      </trkpt>
      <trkpt lat="44.12154" lon="5.82807">
        <ele>1343</ele>
        <time>2019-08-09T08:35:46Z</time>
      </trkpt>
      <trkpt lat="44.12155" lon="5.82804">
        <ele>1343</ele>
        <time>2019-08-09T08:35:47Z</time>
      </trkpt>
      <trkpt lat="44.12156" lon="5.82801">
        <ele>1343</ele>
        <time>2019-08-09T08:35:48Z</time>
      </trkpt>
      <trkpt lat="44.12157" lon="5.82798">
        <ele>1343</ele>
        <time>2019-08-09T08:35:49Z</time>
      </trkpt>
      <trkpt lat="44.12159" lon="5.82795">
        <ele>1343</ele>
        <time>2019-08-09T08:35:50Z</time>
      </trkpt>
      <trkpt lat="44.1216" lon="5.82792">
        <ele>1343</ele>
        <time>2019-08-09T08:35:51Z</time>
      </trkpt>
      <trkpt lat="44.1216" lon="5.82789">
        <ele>1343</ele>
        <time>2019-08-09T08:35:52Z</time>
      </trkpt>
      <trkpt lat="44.12161" lon="5.82786">
        <ele>1343</ele>
        <time>2019-08-09T08:35:53Z</time>
      </trkpt>
      <trkpt lat="44.12162" lon="5.82783">
        <ele>1343</ele>
        <time>2019-08-09T08:35:54Z</time>
      </trkpt>
      <trkpt lat="44.12163" lon="5.82781">
        <ele>1343</ele>
        <time>2019-08-09T08:35:55Z</time>
      </trkpt>
      <trkpt lat="44.12165" lon="5.82779">
        <ele>1343</ele>
        <time>2019-08-09T08:35:56Z</time>
      </trkpt>
      <trkpt lat="44.12166" lon="5.82776">
        <ele>1343</ele>
        <time>2019-08-09T08:35:57Z</time>
      </trkpt>
      <trkpt lat="44.12167" lon="5.82774">
        <ele>1343</ele>
        <time>2019-08-09T08:35:58Z</time>
      </trkpt>
      <trkpt lat="44.12167" lon="5.82772">
        <ele>1343</ele>
        <time>2019-08-09T08:35:59Z</time>
      </trkpt>
      <trkpt lat="44.12169" lon="5.82769">
        <ele>1343</ele>
        <time>2019-08-09T08:36:00Z</time>
      </trkpt>
      <trkpt lat="44.1217" lon="5.82767">
        <ele>1343</ele>
        <time>2019-08-09T08:36:01Z</time>
      </trkpt>
      <trkpt lat="44.1217" lon="5.82763">
        <ele>1343</ele>
        <time>2019-08-09T08:36:02Z</time>
      </trkpt>
      <trkpt lat="44.12171" lon="5.8276">
        <ele>1343</ele>
        <time>2019-08-09T08:36:03Z</time>
      </trkpt>
      <trkpt lat="44.12172" lon="5.82757">
        <ele>1343</ele>
        <time>2019-08-09T08:36:04Z</time>
      </trkpt>
      <trkpt lat="44.12173" lon="5.82755">
        <ele>1343</ele>
        <time>2019-08-09T08:36:05Z</time>
      </trkpt>
      <trkpt lat="44.12174" lon="5.82752">
        <ele>1343</ele>
        <time>2019-08-09T08:36:06Z</time>
      </trkpt>
      <trkpt lat="44.12175" lon="5.82749">
        <ele>1343</ele>
        <time>2019-08-09T08:36:07Z</time>
      </trkpt>
      <trkpt lat="44.12175" lon="5.82747">
        <ele>1343</ele>
        <time>2019-08-09T08:36:08Z</time>
      </trkpt>
      <trkpt lat="44.12175" lon="5.82744">
        <ele>1343</ele>
        <time>2019-08-09T08:36:09Z</time>
      </trkpt>
      <trkpt lat="44.12176" lon="5.82741">
        <ele>1343</ele>
        <time>2019-08-09T08:36:10Z</time>
      </trkpt>
      <trkpt lat="44.12178" lon="5.82738">
        <ele>1343</ele>
        <time>2019-08-09T08:36:11Z</time>
      </trkpt>
      <trkpt lat="44.12178" lon="5.82736">
        <ele>1343</ele>
        <time>2019-08-09T08:36:12Z</time>
      </trkpt>
      <trkpt lat="44.12179" lon="5.82733">
        <ele>1343</ele>
        <time>2019-08-09T08:36:13Z</time>
      </trkpt>
      <trkpt lat="44.1218" lon="5.8273">
        <ele>1343</ele>
        <time>2019-08-09T08:36:14Z</time>
      </trkpt>
      <trkpt lat="44.12181" lon="5.82728">
        <ele>1343</ele>
        <time>2019-08-09T08:36:15Z</time>
      </trkpt>
      <trkpt lat="44.12183" lon="5.82725">
        <ele>1343</ele>
        <time>2019-08-09T08:36:16Z</time>
      </trkpt>
      <trkpt lat="44.12184" lon="5.82723">
        <ele>1343</ele>
        <time>2019-08-09T08:36:17Z</time>
      </trkpt>
      <trkpt lat="44.12185" lon="5.82721">
        <ele>1343</ele>
        <time>2019-08-09T08:36:18Z</time>
      </trkpt>
      <trkpt lat="44.12186" lon="5.82718">
        <ele>1343</ele>
        <time>2019-08-09T08:36:19Z</time>
      </trkpt>
      <trkpt lat="44.12187" lon="5.82716">
        <ele>1343</ele>
        <time>2019-08-09T08:36:20Z</time>
      </trkpt>
      <trkpt lat="44.12189" lon="5.82714">
        <ele>1343</ele>
        <time>2019-08-09T08:36:21Z</time>
      </trkpt>
      <trkpt lat="44.1219" lon="5.82712">
        <ele>1343</ele>
        <time>2019-08-09T08:36:22Z</time>
      </trkpt>
      <trkpt lat="44.12191" lon="5.82709">
        <ele>1343</ele>
        <time>2019-08-09T08:36:23Z</time>
      </trkpt>
      <trkpt lat="44.12193" lon="5.82707">
        <ele>1343</ele>
        <time>2019-08-09T08:36:24Z</time>
      </trkpt>
      <trkpt lat="44.12194" lon="5.82704">
        <ele>1343</ele>
        <time>2019-08-09T08:36:25Z</time>
      </trkpt>
      <trkpt lat="44.12195" lon="5.82701">
        <ele>1343</ele>
        <time>2019-08-09T08:36:26Z</time>
      </trkpt>
      <trkpt lat="44.12195" lon="5.82698">
        <ele>1343</ele>
        <time>2019-08-09T08:36:27Z</time>
      </trkpt>
      <trkpt lat="44.12196" lon="5.82695">
        <ele>1343</ele>
        <time>2019-08-09T08:36:28Z</time>
      </trkpt>
      <trkpt lat="44.12197" lon="5.82692">
        <ele>1343</ele>
        <time>2019-08-09T08:36:29Z</time>
      </trkpt>
      <trkpt lat="44.12198" lon="5.8269">
        <ele>1343</ele>
        <time>2019-08-09T08:36:30Z</time>
      </trkpt>
      <trkpt lat="44.12199" lon="5.82687">
        <ele>1343</ele>
        <time>2019-08-09T08:36:31Z</time>
      </trkpt>
      <trkpt lat="44.122" lon="5.82685">
        <ele>1343</ele>
        <time>2019-08-09T08:36:32Z</time>
      </trkpt>
      <trkpt lat="44.12201" lon="5.82682">
        <ele>1343</ele>
        <time>2019-08-09T08:36:33Z</time>
      </trkpt>
      <trkpt lat="44.12202" lon="5.82679">
        <ele>1343</ele>
        <time>2019-08-09T08:36:34Z</time>
      </trkpt>
      <trkpt lat="44.12204" lon="5.82677">
        <ele>1343</ele>
        <time>2019-08-09T08:36:35Z</time>
      </trkpt>
      <trkpt lat="44.12204" lon="5.82674">
        <ele>1343</ele>
        <time>2019-08-09T08:36:36Z</time>
      </trkpt>
      <trkpt lat="44.12205" lon="5.82671">
        <ele>1343</ele>
        <time>2019-08-09T08:36:37Z</time>
      </trkpt>
      <trkpt lat="44.12206" lon="5.82668">
        <ele>1343</ele>
        <time>2019-08-09T08:36:38Z</time>
      </trkpt>
      <trkpt lat="44.12207" lon="5.82665">
        <ele>1343</ele>
        <time>2019-08-09T08:36:39Z</time>
      </trkpt>
      <trkpt lat="44.12208" lon="5.82663">
        <ele>1343</ele>
        <time>2019-08-09T08:36:40Z</time>
      </trkpt>
      <trkpt lat="44.12209" lon="5.8266">
        <ele>1343</ele>
        <time>2019-08-09T08:36:41Z</time>
      </trkpt>
      <trkpt lat="44.1221" lon="5.82658">
        <ele>1343</ele>
        <time>2019-08-09T08:36:42Z</time>
      </trkpt>
      <trkpt lat="44.12211" lon="5.82655">
        <ele>1343</ele>
        <time>2019-08-09T08:36:43Z</time>
      </trkpt>
      <trkpt lat="44.12212" lon="5.82652">
        <ele>1343</ele>
        <time>2019-08-09T08:36:44Z</time>
      </trkpt>
      <trkpt lat="44.12213" lon="5.8265">
        <ele>1343</ele>
        <time>2019-08-09T08:36:45Z</time>
      </trkpt>
      <trkpt lat="44.12214" lon="5.82647">
        <ele>1343</ele>
        <time>2019-08-09T08:36:46Z</time>
      </trkpt>
      <trkpt lat="44.12214" lon="5.82644">
        <ele>1343</ele>
        <time>2019-08-09T08:36:47Z</time>
      </trkpt>
      <trkpt lat="44.12215" lon="5.82641">
        <ele>1343</ele>
        <time>2019-08-09T08:36:48Z</time>
      </trkpt>
      <trkpt lat="44.12216" lon="5.82638">
        <ele>1343</ele>
        <time>2019-08-09T08:36:49Z</time>
      </trkpt>
      <trkpt lat="44.12217" lon="5.82635">
        <ele>1343</ele>
        <time>2019-08-09T08:36:50Z</time>
      </trkpt>
      <trkpt lat="44.12219" lon="5.82632">
        <ele>1343</ele>
        <time>2019-08-09T08:36:51Z</time>
      </trkpt>
      <trkpt lat="44.12221" lon="5.82629">
        <ele>1343</ele>
        <time>2019-08-09T08:36:52Z</time>
      </trkpt>
      <trkpt lat="44.12223" lon="5.82626">
        <ele>1343</ele>
        <time>2019-08-09T08:36:53Z</time>
      </trkpt>
      <trkpt lat="44.12224" lon="5.82623">
        <ele>1343</ele>
        <time>2019-08-09T08:36:54Z</time>
      </trkpt>
      <trkpt lat="44.12225" lon="5.82619">
        <ele>1343</ele>
        <time>2019-08-09T08:36:55Z</time>
      </trkpt>
      <trkpt lat="44.12226" lon="5.82616">
        <ele>1343</ele>
        <time>2019-08-09T08:36:56Z</time>
      </trkpt>
      <trkpt lat="44.12227" lon="5.82613">
        <ele>1343</ele>
        <time>2019-08-09T08:36:57Z</time>
      </trkpt>
      <trkpt lat="44.12228" lon="5.8261">
        <ele>1343</ele>
        <time>2019-08-09T08:36:58Z</time>
      </trkpt>
      <trkpt lat="44.12228" lon="5.82606">
        <ele>1343</ele>
        <time>2019-08-09T08:36:59Z</time>
      </trkpt>
      <trkpt lat="44.12229" lon="5.82603">
        <ele>1343</ele>
        <time>2019-08-09T08:37:00Z</time>
      </trkpt>
      <trkpt lat="44.12229" lon="5.826">
        <ele>1343</ele>
        <time>2019-08-09T08:37:01Z</time>
      </trkpt>
      <trkpt lat="44.1223" lon="5.82597">
        <ele>1343</ele>
        <time>2019-08-09T08:37:02Z</time>
      </trkpt>
      <trkpt lat="44.12231" lon="5.82594">
        <ele>1343</ele>
        <time>2019-08-09T08:37:03Z</time>
      </trkpt>
      <trkpt lat="44.12231" lon="5.8259">
        <ele>1343</ele>
        <time>2019-08-09T08:37:04Z</time>
      </trkpt>
      <trkpt lat="44.12231" lon="5.82586">
        <ele>1343</ele>
        <time>2019-08-09T08:37:05Z</time>
      </trkpt>
      <trkpt lat="44.12231" lon="5.82582">
        <ele>1343</ele>
        <time>2019-08-09T08:37:06Z</time>
      </trkpt>
      <trkpt lat="44.12232" lon="5.82579">
        <ele>1343</ele>
        <time>2019-08-09T08:37:07Z</time>
      </trkpt>
      <trkpt lat="44.12233" lon="5.82576">
        <ele>1343</ele>
        <time>2019-08-09T08:37:08Z</time>
      </trkpt>
      <trkpt lat="44.12234" lon="5.82573">
        <ele>1343</ele>
        <time>2019-08-09T08:37:09Z</time>
      </trkpt>
      <trkpt lat="44.12234" lon="5.82569">
        <ele>1343</ele>
        <time>2019-08-09T08:37:10Z</time>
      </trkpt>
      <trkpt lat="44.12234" lon="5.82565">
        <ele>1343</ele>
        <time>2019-08-09T08:37:11Z</time>
      </trkpt>
      <trkpt lat="44.12235" lon="5.82562">
        <ele>1343</ele>
        <time>2019-08-09T08:37:12Z</time>
      </trkpt>
      <trkpt lat="44.12236" lon="5.82559">
        <ele>1343</ele>
        <time>2019-08-09T08:37:13Z</time>
      </trkpt>
      <trkpt lat="44.12237" lon="5.82556">
        <ele>1343</ele>
        <time>2019-08-09T08:37:14Z</time>
      </trkpt>
      <trkpt lat="44.12238" lon="5.82553">
        <ele>1343</ele>
        <time>2019-08-09T08:37:15Z</time>
      </trkpt>
      <trkpt lat="44.12239" lon="5.8255">
        <ele>1343</ele>
        <time>2019-08-09T08:37:16Z</time>
      </trkpt>
      <trkpt lat="44.12239" lon="5.82547">
        <ele>1343</ele>
        <time>2019-08-09T08:37:17Z</time>
      </trkpt>
      <trkpt lat="44.12241" lon="5.82544">
        <ele>1343</ele>
        <time>2019-08-09T08:37:18Z</time>
      </trkpt>
      <trkpt lat="44.12241" lon="5.82541">
        <ele>1343</ele>
        <time>2019-08-09T08:37:19Z</time>
      </trkpt>
      <trkpt lat="44.12243" lon="5.82538">
        <ele>1343</ele>
        <time>2019-08-09T08:37:20Z</time>
      </trkpt>
      <trkpt lat="44.12244" lon="5.82535">
        <ele>1343</ele>
        <time>2019-08-09T08:37:21Z</time>
      </trkpt>
      <trkpt lat="44.12246" lon="5.82533">
        <ele>1343</ele>
        <time>2019-08-09T08:37:22Z</time>
      </trkpt>
      <trkpt lat="44.12247" lon="5.8253">
        <ele>1343</ele>
        <time>2019-08-09T08:37:23Z</time>
      </trkpt>
      <trkpt lat="44.12248" lon="5.82527">
        <ele>1343</ele>
        <time>2019-08-09T08:37:24Z</time>
      </trkpt>
      <trkpt lat="44.12249" lon="5.82524">
        <ele>1343</ele>
        <time>2019-08-09T08:37:25Z</time>
      </trkpt>
      <trkpt lat="44.12251" lon="5.82521">
        <ele>1343</ele>
        <time>2019-08-09T08:37:26Z</time>
      </trkpt>
      <trkpt lat="44.12252" lon="5.82518">
        <ele>1343</ele>
        <time>2019-08-09T08:37:27Z</time>
      </trkpt>
      <trkpt lat="44.12254" lon="5.82515">
        <ele>1343</ele>
        <time>2019-08-09T08:37:28Z</time>
      </trkpt>
      <trkpt lat="44.12255" lon="5.82511">
        <ele>1343</ele>
        <time>2019-08-09T08:37:29Z</time>
      </trkpt>
      <trkpt lat="44.12257" lon="5.82508">
        <ele>1343</ele>
        <time>2019-08-09T08:37:30Z</time>
      </trkpt>
      <trkpt lat="44.12258" lon="5.82505">
        <ele>1343</ele>
        <time>2019-08-09T08:37:31Z</time>
      </trkpt>
      <trkpt lat="44.1226" lon="5.82502">
        <ele>1343</ele>
        <time>2019-08-09T08:37:32Z</time>
      </trkpt>
      <trkpt lat="44.12261" lon="5.82499">
        <ele>1343</ele>
        <time>2019-08-09T08:37:33Z</time>
      </trkpt>
      <trkpt lat="44.12262" lon="5.82495">
        <ele>1343</ele>
        <time>2019-08-09T08:37:34Z</time>
      </trkpt>
      <trkpt lat="44.12263" lon="5.82492">
        <ele>1343</ele>
        <time>2019-08-09T08:37:35Z</time>
      </trkpt>
      <trkpt lat="44.12265" lon="5.82489">
        <ele>1343</ele>
        <time>2019-08-09T08:37:36Z</time>
      </trkpt>
      <trkpt lat="44.12267" lon="5.82486">
        <ele>1343</ele>
        <time>2019-08-09T08:37:37Z</time>
      </trkpt>
      <trkpt lat="44.12268" lon="5.82482">
        <ele>1343</ele>
        <time>2019-08-09T08:37:38Z</time>
      </trkpt>
      <trkpt lat="44.1227" lon="5.8248">
        <ele>1343</ele>
        <time>2019-08-09T08:37:39Z</time>
      </trkpt>
      <trkpt lat="44.12272" lon="5.82477">
        <ele>1343</ele>
        <time>2019-08-09T08:37:40Z</time>
      </trkpt>
      <trkpt lat="44.12273" lon="5.82474">
        <ele>1343</ele>
        <time>2019-08-09T08:37:41Z</time>
      </trkpt>
      <trkpt lat="44.12274" lon="5.8247">
        <ele>1343</ele>
        <time>2019-08-09T08:37:42Z</time>
      </trkpt>
      <trkpt lat="44.12275" lon="5.82466">
        <ele>1343</ele>
        <time>2019-08-09T08:37:43Z</time>
      </trkpt>
      <trkpt lat="44.12276" lon="5.82463">
        <ele>1343</ele>
        <time>2019-08-09T08:37:44Z</time>
      </trkpt>
      <trkpt lat="44.12276" lon="5.82459">
        <ele>1343</ele>
        <time>2019-08-09T08:37:45Z</time>
      </trkpt>
      <trkpt lat="44.12277" lon="5.82455">
        <ele>1343</ele>
        <time>2019-08-09T08:37:46Z</time>
      </trkpt>
      <trkpt lat="44.12277" lon="5.8245">
        <ele>1343</ele>
        <time>2019-08-09T08:37:47Z</time>
      </trkpt>
      <trkpt lat="44.12275" lon="5.82446">
        <ele>1343</ele>
        <time>2019-08-09T08:37:48Z</time>
      </trkpt>
      <trkpt lat="44.12275" lon="5.82441">
        <ele>1343</ele>
        <time>2019-08-09T08:37:49Z</time>
      </trkpt>
      <trkpt lat="44.12275" lon="5.82436">
        <ele>1343</ele>
        <time>2019-08-09T08:37:50Z</time>
      </trkpt>
      <trkpt lat="44.12275" lon="5.82433">
        <ele>1343</ele>
        <time>2019-08-09T08:37:51Z</time>
      </trkpt>
      <trkpt lat="44.12275" lon="5.8243">
        <ele>1343</ele>
        <time>2019-08-09T08:37:52Z</time>
      </trkpt>
      <trkpt lat="44.12274" lon="5.82427">
        <ele>1343</ele>
        <time>2019-08-09T08:37:53Z</time>
      </trkpt>
      <trkpt lat="44.12274" lon="5.82424">
        <ele>1343</ele>
        <time>2019-08-09T08:37:54Z</time>
      </trkpt>
      <trkpt lat="44.12274" lon="5.82421">
        <ele>1343</ele>
        <time>2019-08-09T08:37:55Z</time>
      </trkpt>
      <trkpt lat="44.12273" lon="5.82417">
        <ele>1343</ele>
        <time>2019-08-09T08:37:56Z</time>
      </trkpt>
      <trkpt lat="44.12272" lon="5.82413">
        <ele>1343</ele>
        <time>2019-08-09T08:37:57Z</time>
      </trkpt>
      <trkpt lat="44.12271" lon="5.8241">
        <ele>1343</ele>
        <time>2019-08-09T08:37:58Z</time>
      </trkpt>
      <trkpt lat="44.1227" lon="5.82407">
        <ele>1343</ele>
        <time>2019-08-09T08:37:59Z</time>
      </trkpt>
      <trkpt lat="44.12269" lon="5.82403">
        <ele>1343</ele>
        <time>2019-08-09T08:38:00Z</time>
      </trkpt>
      <trkpt lat="44.12268" lon="5.824">
        <ele>1343</ele>
        <time>2019-08-09T08:38:01Z</time>
      </trkpt>
      <trkpt lat="44.12268" lon="5.82396">
        <ele>1343</ele>
        <time>2019-08-09T08:38:02Z</time>
      </trkpt>
      <trkpt lat="44.12269" lon="5.82392">
        <ele>1343</ele>
        <time>2019-08-09T08:38:03Z</time>
      </trkpt>
      <trkpt lat="44.1227" lon="5.82389">
        <ele>1343</ele>
        <time>2019-08-09T08:38:04Z</time>
      </trkpt>
      <trkpt lat="44.1227" lon="5.82387">
        <ele>1343</ele>
        <time>2019-08-09T08:38:05Z</time>
      </trkpt>
      <trkpt lat="44.12271" lon="5.82383">
        <ele>1343</ele>
        <time>2019-08-09T08:38:06Z</time>
      </trkpt>
      <trkpt lat="44.12272" lon="5.82379">
        <ele>1343</ele>
        <time>2019-08-09T08:38:07Z</time>
      </trkpt>
      <trkpt lat="44.12271" lon="5.82375">
        <ele>1343</ele>
        <time>2019-08-09T08:38:08Z</time>
      </trkpt>
      <trkpt lat="44.12272" lon="5.82371">
        <ele>1343</ele>
        <time>2019-08-09T08:38:09Z</time>
      </trkpt>
      <trkpt lat="44.12272" lon="5.82368">
        <ele>1343</ele>
        <time>2019-08-09T08:38:10Z</time>
      </trkpt>
      <trkpt lat="44.12272" lon="5.82365">
        <ele>1343</ele>
        <time>2019-08-09T08:38:11Z</time>
      </trkpt>
      <trkpt lat="44.12273" lon="5.82362">
        <ele>1343</ele>
        <time>2019-08-09T08:38:12Z</time>
      </trkpt>
      <trkpt lat="44.12273" lon="5.82359">
        <ele>1343</ele>
        <time>2019-08-09T08:38:13Z</time>
      </trkpt>
      <trkpt lat="44.12272" lon="5.82357">
        <ele>1343</ele>
        <time>2019-08-09T08:38:14Z</time>
      </trkpt>
      <trkpt lat="44.12273" lon="5.82354">
        <ele>1343</ele>
        <time>2019-08-09T08:38:15Z</time>
      </trkpt>
      <trkpt lat="44.12272" lon="5.8235">
        <ele>1343</ele>
        <time>2019-08-09T08:38:16Z</time>
      </trkpt>
      <trkpt lat="44.12272" lon="5.82347">
        <ele>1343</ele>
        <time>2019-08-09T08:38:17Z</time>
      </trkpt>
      <trkpt lat="44.12271" lon="5.82344">
        <ele>1343</ele>
        <time>2019-08-09T08:38:18Z</time>
      </trkpt>
      <trkpt lat="44.12271" lon="5.82342">
        <ele>1343</ele>
        <time>2019-08-09T08:38:19Z</time>
      </trkpt>
      <trkpt lat="44.1227" lon="5.8234">
        <ele>1343</ele>
        <time>2019-08-09T08:38:20Z</time>
      </trkpt>
      <trkpt lat="44.1227" lon="5.82337">
        <ele>1343</ele>
        <time>2019-08-09T08:38:21Z</time>
      </trkpt>
      <trkpt lat="44.12271" lon="5.82334">
        <ele>1343</ele>
        <time>2019-08-09T08:38:22Z</time>
      </trkpt>
      <trkpt lat="44.12271" lon="5.82331">
        <ele>1343</ele>
        <time>2019-08-09T08:38:23Z</time>
      </trkpt>
      <trkpt lat="44.12271" lon="5.82328">
        <ele>1343</ele>
        <time>2019-08-09T08:38:24Z</time>
      </trkpt>
      <trkpt lat="44.12272" lon="5.82325">
        <ele>1343</ele>
        <time>2019-08-09T08:38:25Z</time>
      </trkpt>
      <trkpt lat="44.12273" lon="5.82322">
        <ele>1343</ele>
        <time>2019-08-09T08:38:26Z</time>
      </trkpt>
      <trkpt lat="44.12274" lon="5.82319">
        <ele>1343</ele>
        <time>2019-08-09T08:38:27Z</time>
      </trkpt>
      <trkpt lat="44.12275" lon="5.82316">
        <ele>1343</ele>
        <time>2019-08-09T08:38:28Z</time>
      </trkpt>
      <trkpt lat="44.12276" lon="5.82313">
        <ele>1343</ele>
        <time>2019-08-09T08:38:29Z</time>
      </trkpt>
      <trkpt lat="44.12277" lon="5.8231">
        <ele>1343</ele>
        <time>2019-08-09T08:38:30Z</time>
      </trkpt>
      <trkpt lat="44.12277" lon="5.82307">
        <ele>1343</ele>
        <time>2019-08-09T08:38:31Z</time>
      </trkpt>
      <trkpt lat="44.12278" lon="5.82304">
        <ele>1343</ele>
        <time>2019-08-09T08:38:32Z</time>
      </trkpt>
      <trkpt lat="44.12278" lon="5.82302">
        <ele>1343</ele>
        <time>2019-08-09T08:38:33Z</time>
      </trkpt>
      <trkpt lat="44.12278" lon="5.82299">
        <ele>1343</ele>
        <time>2019-08-09T08:38:34Z</time>
      </trkpt>
      <trkpt lat="44.12279" lon="5.82296">
        <ele>1343</ele>
        <time>2019-08-09T08:38:35Z</time>
      </trkpt>
      <trkpt lat="44.12281" lon="5.82294">
        <ele>1343</ele>
        <time>2019-08-09T08:38:36Z</time>
      </trkpt>
      <trkpt lat="44.12282" lon="5.82291">
        <ele>1343</ele>
        <time>2019-08-09T08:38:37Z</time>
      </trkpt>
      <trkpt lat="44.12282" lon="5.82289">
        <ele>1343</ele>
        <time>2019-08-09T08:38:38Z</time>
      </trkpt>
      <trkpt lat="44.12283" lon="5.82286">
        <ele>1343</ele>
        <time>2019-08-09T08:38:39Z</time>
      </trkpt>
      <trkpt lat="44.12283" lon="5.82283">
        <ele>1343</ele>
        <time>2019-08-09T08:38:40Z</time>
      </trkpt>
      <trkpt lat="44.12284" lon="5.82281">
        <ele>1343</ele>
        <time>2019-08-09T08:38:41Z</time>
      </trkpt>
      <trkpt lat="44.12285" lon="5.82279">
        <ele>1343</ele>
        <time>2019-08-09T08:38:42Z</time>
      </trkpt>
      <trkpt lat="44.12286" lon="5.82277">
        <ele>1343</ele>
        <time>2019-08-09T08:38:43Z</time>
      </trkpt>
      <trkpt lat="44.12287" lon="5.82275">
        <ele>1343</ele>
        <time>2019-08-09T08:38:44Z</time>
      </trkpt>
      <trkpt lat="44.12288" lon="5.82272">
        <ele>1343</ele>
        <time>2019-08-09T08:38:45Z</time>
      </trkpt>
      <trkpt lat="44.12289" lon="5.82269">
        <ele>1343</ele>
        <time>2019-08-09T08:38:46Z</time>
      </trkpt>
      <trkpt lat="44.12289" lon="5.82267">
        <ele>1343</ele>
        <time>2019-08-09T08:38:47Z</time>
      </trkpt>
      <trkpt lat="44.1229" lon="5.82265">
        <ele>1343</ele>
        <time>2019-08-09T08:38:48Z</time>
      </trkpt>
      <trkpt lat="44.1229" lon="5.82262">
        <ele>1343</ele>
        <time>2019-08-09T08:38:49Z</time>
      </trkpt>
      <trkpt lat="44.12291" lon="5.8226">
        <ele>1343</ele>
        <time>2019-08-09T08:38:50Z</time>
      </trkpt>
      <trkpt lat="44.12292" lon="5.82257">
        <ele>1343</ele>
        <time>2019-08-09T08:38:51Z</time>
      </trkpt>
      <trkpt lat="44.12293" lon="5.82255">
        <ele>1343</ele>
        <time>2019-08-09T08:38:52Z</time>
      </trkpt>
      <trkpt lat="44.12294" lon="5.82252">
        <ele>1343</ele>
        <time>2019-08-09T08:38:53Z</time>
      </trkpt>
      <trkpt lat="44.12294" lon="5.82249">
        <ele>1343</ele>
        <time>2019-08-09T08:38:54Z</time>
      </trkpt>
      <trkpt lat="44.12295" lon="5.82247">
        <ele>1343</ele>
        <time>2019-08-09T08:38:55Z</time>
      </trkpt>
      <trkpt lat="44.12296" lon="5.82244">
        <ele>1343</ele>
        <time>2019-08-09T08:38:56Z</time>
      </trkpt>
      <trkpt lat="44.12297" lon="5.82241">
        <ele>1343</ele>
        <time>2019-08-09T08:38:57Z</time>
      </trkpt>
      <trkpt lat="44.12297" lon="5.82239">
        <ele>1343</ele>
        <time>2019-08-09T08:38:58Z</time>
      </trkpt>
      <trkpt lat="44.12297" lon="5.82236">
        <ele>1343</ele>
        <time>2019-08-09T08:38:59Z</time>
      </trkpt>
      <trkpt lat="44.12298" lon="5.82233">
        <ele>1343</ele>
        <time>2019-08-09T08:39:00Z</time>
      </trkpt>
      <trkpt lat="44.12299" lon="5.82231">
        <ele>1343</ele>
        <time>2019-08-09T08:39:01Z</time>
      </trkpt>
      <trkpt lat="44.123" lon="5.82228">
        <ele>1343</ele>
        <time>2019-08-09T08:39:02Z</time>
      </trkpt>
      <trkpt lat="44.12301" lon="5.82225">
        <ele>1343</ele>
        <time>2019-08-09T08:39:03Z</time>
      </trkpt>
      <trkpt lat="44.12302" lon="5.82223">
        <ele>1343</ele>
        <time>2019-08-09T08:39:04Z</time>
      </trkpt>
      <trkpt lat="44.12302" lon="5.82221">
        <ele>1343</ele>
        <time>2019-08-09T08:39:05Z</time>
      </trkpt>
      <trkpt lat="44.12303" lon="5.82218">
        <ele>1343</ele>
        <time>2019-08-09T08:39:06Z</time>
      </trkpt>
      <trkpt lat="44.12304" lon="5.82214">
        <ele>1343</ele>
        <time>2019-08-09T08:39:07Z</time>
      </trkpt>
      <trkpt lat="44.12304" lon="5.82212">
        <ele>1343</ele>
        <time>2019-08-09T08:39:08Z</time>
      </trkpt>
      <trkpt lat="44.12305" lon="5.82209">
        <ele>1343</ele>
        <time>2019-08-09T08:39:09Z</time>
      </trkpt>
      <trkpt lat="44.12305" lon="5.82206">
        <ele>1343</ele>
        <time>2019-08-09T08:39:10Z</time>
      </trkpt>
      <trkpt lat="44.12305" lon="5.82203">
        <ele>1343</ele>
        <time>2019-08-09T08:39:11Z</time>
      </trkpt>
      <trkpt lat="44.12305" lon="5.822">
        <ele>1343</ele>
        <time>2019-08-09T08:39:12Z</time>
      </trkpt>
      <trkpt lat="44.12306" lon="5.82198">
        <ele>1343</ele>
        <time>2019-08-09T08:39:13Z</time>
      </trkpt>
      <trkpt lat="44.12306" lon="5.82195">
        <ele>1343</ele>
        <time>2019-08-09T08:39:14Z</time>
      </trkpt>
      <trkpt lat="44.12306" lon="5.82192">
        <ele>1343</ele>
        <time>2019-08-09T08:39:15Z</time>
      </trkpt>
      <trkpt lat="44.12306" lon="5.82189">
        <ele>1343</ele>
        <time>2019-08-09T08:39:16Z</time>
      </trkpt>
      <trkpt lat="44.12307" lon="5.82186">
        <ele>1343</ele>
        <time>2019-08-09T08:39:17Z</time>
      </trkpt>
      <trkpt lat="44.12308" lon="5.82183">
        <ele>1343</ele>
        <time>2019-08-09T08:39:18Z</time>
      </trkpt>
      <trkpt lat="44.12308" lon="5.8218">
        <ele>1343</ele>
        <time>2019-08-09T08:39:19Z</time>
      </trkpt>
      <trkpt lat="44.12309" lon="5.82177">
        <ele>1343</ele>
        <time>2019-08-09T08:39:20Z</time>
      </trkpt>
      <trkpt lat="44.12309" lon="5.82174">
        <ele>1343</ele>
        <time>2019-08-09T08:39:21Z</time>
      </trkpt>
      <trkpt lat="44.12309" lon="5.82172">
        <ele>1343</ele>
        <time>2019-08-09T08:39:22Z</time>
      </trkpt>
      <trkpt lat="44.1231" lon="5.82169">
        <ele>1343</ele>
        <time>2019-08-09T08:39:23Z</time>
      </trkpt>
      <trkpt lat="44.12311" lon="5.82166">
        <ele>1343</ele>
        <time>2019-08-09T08:39:24Z</time>
      </trkpt>
      <trkpt lat="44.12311" lon="5.82163">
        <ele>1343</ele>
        <time>2019-08-09T08:39:25Z</time>
      </trkpt>
      <trkpt lat="44.12312" lon="5.8216">
        <ele>1343</ele>
        <time>2019-08-09T08:39:26Z</time>
      </trkpt>
      <trkpt lat="44.12312" lon="5.82158">
        <ele>1343</ele>
        <time>2019-08-09T08:39:27Z</time>
      </trkpt>
      <trkpt lat="44.12312" lon="5.82155">
        <ele>1343</ele>
        <time>2019-08-09T08:39:28Z</time>
      </trkpt>
      <trkpt lat="44.12312" lon="5.82152">
        <ele>1343</ele>
        <time>2019-08-09T08:39:29Z</time>
      </trkpt>
      <trkpt lat="44.12313" lon="5.82148">
        <ele>1343</ele>
        <time>2019-08-09T08:39:30Z</time>
      </trkpt>
      <trkpt lat="44.12314" lon="5.82145">
        <ele>1343</ele>
        <time>2019-08-09T08:39:31Z</time>
      </trkpt>
      <trkpt lat="44.12314" lon="5.82143">
        <ele>1343</ele>
        <time>2019-08-09T08:39:32Z</time>
      </trkpt>
      <trkpt lat="44.12315" lon="5.8214">
        <ele>1343</ele>
        <time>2019-08-09T08:39:33Z</time>
      </trkpt>
      <trkpt lat="44.12316" lon="5.82138">
        <ele>1343</ele>
        <time>2019-08-09T08:39:34Z</time>
      </trkpt>
      <trkpt lat="44.12317" lon="5.82136">
        <ele>1343</ele>
        <time>2019-08-09T08:39:35Z</time>
      </trkpt>
      <trkpt lat="44.12318" lon="5.82134">
        <ele>1343</ele>
        <time>2019-08-09T08:39:36Z</time>
      </trkpt>
      <trkpt lat="44.1232" lon="5.82131">
        <ele>1343</ele>
        <time>2019-08-09T08:39:37Z</time>
      </trkpt>
      <trkpt lat="44.1232" lon="5.82128">
        <ele>1343</ele>
        <time>2019-08-09T08:39:38Z</time>
      </trkpt>
      <trkpt lat="44.12322" lon="5.82126">
        <ele>1343</ele>
        <time>2019-08-09T08:39:39Z</time>
      </trkpt>
      <trkpt lat="44.12323" lon="5.82124">
        <ele>1343</ele>
        <time>2019-08-09T08:39:40Z</time>
      </trkpt>
      <trkpt lat="44.12324" lon="5.82122">
        <ele>1343</ele>
        <time>2019-08-09T08:39:41Z</time>
      </trkpt>
      <trkpt lat="44.12325" lon="5.82119">
        <ele>1343</ele>
        <time>2019-08-09T08:39:42Z</time>
      </trkpt>
      <trkpt lat="44.12326" lon="5.82117">
        <ele>1343</ele>
        <time>2019-08-09T08:39:43Z</time>
      </trkpt>
      <trkpt lat="44.12328" lon="5.82114">
        <ele>1343</ele>
        <time>2019-08-09T08:39:44Z</time>
      </trkpt>
      <trkpt lat="44.1233" lon="5.82111">
        <ele>1343</ele>
        <time>2019-08-09T08:39:45Z</time>
      </trkpt>
      <trkpt lat="44.12331" lon="5.82108">
        <ele>1343</ele>
        <time>2019-08-09T08:39:46Z</time>
      </trkpt>
      <trkpt lat="44.12332" lon="5.82105">
        <ele>1343</ele>
        <time>2019-08-09T08:39:47Z</time>
      </trkpt>
      <trkpt lat="44.12334" lon="5.82102">
        <ele>1343</ele>
        <time>2019-08-09T08:39:48Z</time>
      </trkpt>
      <trkpt lat="44.12334" lon="5.82099">
        <ele>1343</ele>
        <time>2019-08-09T08:39:49Z</time>
      </trkpt>
      <trkpt lat="44.12336" lon="5.82096">
        <ele>1343</ele>
        <time>2019-08-09T08:39:50Z</time>
      </trkpt>
      <trkpt lat="44.12337" lon="5.82093">
        <ele>1343</ele>
        <time>2019-08-09T08:39:51Z</time>
      </trkpt>
      <trkpt lat="44.12339" lon="5.82091">
        <ele>1343</ele>
        <time>2019-08-09T08:39:52Z</time>
      </trkpt>
      <trkpt lat="44.12341" lon="5.82088">
        <ele>1343</ele>
        <time>2019-08-09T08:39:53Z</time>
      </trkpt>
      <trkpt lat="44.12342" lon="5.82085">
        <ele>1343</ele>
        <time>2019-08-09T08:39:54Z</time>
      </trkpt>
      <trkpt lat="44.12344" lon="5.82082">
        <ele>1343</ele>
        <time>2019-08-09T08:39:55Z</time>
      </trkpt>
      <trkpt lat="44.12346" lon="5.82078">
        <ele>1343</ele>
        <time>2019-08-09T08:39:56Z</time>
      </trkpt>
      <trkpt lat="44.12347" lon="5.82075">
        <ele>1343</ele>
        <time>2019-08-09T08:39:57Z</time>
      </trkpt>
      <trkpt lat="44.12349" lon="5.82072">
        <ele>1343</ele>
        <time>2019-08-09T08:39:58Z</time>
      </trkpt>
      <trkpt lat="44.1235" lon="5.8207">
        <ele>1343</ele>
        <time>2019-08-09T08:39:59Z</time>
      </trkpt>
      <trkpt lat="44.12351" lon="5.82067">
        <ele>1342</ele>
        <time>2019-08-09T08:40:00Z</time>
      </trkpt>
      <trkpt lat="44.12351" lon="5.82064">
        <ele>1342</ele>
        <time>2019-08-09T08:40:01Z</time>
      </trkpt>
      <trkpt lat="44.12352" lon="5.82061">
        <ele>1342</ele>
        <time>2019-08-09T08:40:02Z</time>
      </trkpt>
      <trkpt lat="44.12353" lon="5.82058">
        <ele>1342</ele>
        <time>2019-08-09T08:40:03Z</time>
      </trkpt>
      <trkpt lat="44.12354" lon="5.82056">
        <ele>1341</ele>
        <time>2019-08-09T08:40:04Z</time>
      </trkpt>
      <trkpt lat="44.12354" lon="5.82053">
        <ele>1341</ele>
        <time>2019-08-09T08:40:05Z</time>
      </trkpt>
      <trkpt lat="44.12355" lon="5.8205">
        <ele>1341</ele>
        <time>2019-08-09T08:40:06Z</time>
      </trkpt>
      <trkpt lat="44.12355" lon="5.82047">
        <ele>1340</ele>
        <time>2019-08-09T08:40:07Z</time>
      </trkpt>
      <trkpt lat="44.12355" lon="5.82044">
        <ele>1340</ele>
        <time>2019-08-09T08:40:08Z</time>
      </trkpt>
      <trkpt lat="44.12355" lon="5.8204">
        <ele>1339</ele>
        <time>2019-08-09T08:40:09Z</time>
      </trkpt>
      <trkpt lat="44.12356" lon="5.82037">
        <ele>1338</ele>
        <time>2019-08-09T08:40:10Z</time>
      </trkpt>
      <trkpt lat="44.12356" lon="5.82033">
        <ele>1338</ele>
        <time>2019-08-09T08:40:11Z</time>
      </trkpt>
      <trkpt lat="44.12357" lon="5.82029">
        <ele>1337</ele>
        <time>2019-08-09T08:40:12Z</time>
      </trkpt>
      <trkpt lat="44.12358" lon="5.82027">
        <ele>1337</ele>
        <time>2019-08-09T08:40:13Z</time>
      </trkpt>
      <trkpt lat="44.1236" lon="5.82024">
        <ele>1336</ele>
        <time>2019-08-09T08:40:14Z</time>
      </trkpt>
      <trkpt lat="44.1236" lon="5.82022">
        <ele>1336</ele>
        <time>2019-08-09T08:40:15Z</time>
      </trkpt>
      <trkpt lat="44.1236" lon="5.82018">
        <ele>1335</ele>
        <time>2019-08-09T08:40:16Z</time>
      </trkpt>
      <trkpt lat="44.12361" lon="5.82016">
        <ele>1335</ele>
        <time>2019-08-09T08:40:17Z</time>
      </trkpt>
      <trkpt lat="44.12362" lon="5.82013">
        <ele>1335</ele>
        <time>2019-08-09T08:40:18Z</time>
      </trkpt>
      <trkpt lat="44.12364" lon="5.82011">
        <ele>1335</ele>
        <time>2019-08-09T08:40:19Z</time>
      </trkpt>
      <trkpt lat="44.12364" lon="5.82008">
        <ele>1335</ele>
        <time>2019-08-09T08:40:20Z</time>
      </trkpt>
      <trkpt lat="44.12364" lon="5.82005">
        <ele>1335</ele>
        <time>2019-08-09T08:40:21Z</time>
      </trkpt>
      <trkpt lat="44.12365" lon="5.82003">
        <ele>1334</ele>
        <time>2019-08-09T08:40:22Z</time>
      </trkpt>
      <trkpt lat="44.12365" lon="5.82001">
        <ele>1334</ele>
        <time>2019-08-09T08:40:23Z</time>
      </trkpt>
      <trkpt lat="44.12366" lon="5.81999">
        <ele>1334</ele>
        <time>2019-08-09T08:40:24Z</time>
      </trkpt>
      <trkpt lat="44.12366" lon="5.81996">
        <ele>1334</ele>
        <time>2019-08-09T08:40:25Z</time>
      </trkpt>
      <trkpt lat="44.12367" lon="5.81993">
        <ele>1333</ele>
        <time>2019-08-09T08:40:26Z</time>
      </trkpt>
      <trkpt lat="44.12368" lon="5.81989">
        <ele>1333</ele>
        <time>2019-08-09T08:40:27Z</time>
      </trkpt>
      <trkpt lat="44.12368" lon="5.81986">
        <ele>1332</ele>
        <time>2019-08-09T08:40:28Z</time>
      </trkpt>
      <trkpt lat="44.12369" lon="5.81984">
        <ele>1332</ele>
        <time>2019-08-09T08:40:29Z</time>
      </trkpt>
      <trkpt lat="44.12371" lon="5.81981">
        <ele>1332</ele>
        <time>2019-08-09T08:40:30Z</time>
      </trkpt>
      <trkpt lat="44.12372" lon="5.81978">
        <ele>1331</ele>
        <time>2019-08-09T08:40:31Z</time>
      </trkpt>
      <trkpt lat="44.12373" lon="5.81975">
        <ele>1331</ele>
        <time>2019-08-09T08:40:32Z</time>
      </trkpt>
      <trkpt lat="44.12374" lon="5.81972">
        <ele>1331</ele>
        <time>2019-08-09T08:40:33Z</time>
      </trkpt>
      <trkpt lat="44.12376" lon="5.81969">
        <ele>1331</ele>
        <time>2019-08-09T08:40:34Z</time>
      </trkpt>
      <trkpt lat="44.12377" lon="5.81966">
        <ele>1331</ele>
        <time>2019-08-09T08:40:35Z</time>
      </trkpt>
      <trkpt lat="44.12378" lon="5.81963">
        <ele>1331</ele>
        <time>2019-08-09T08:40:36Z</time>
      </trkpt>
      <trkpt lat="44.12379" lon="5.8196">
        <ele>1331</ele>
        <time>2019-08-09T08:40:37Z</time>
      </trkpt>
      <trkpt lat="44.12381" lon="5.81958">
        <ele>1331</ele>
        <time>2019-08-09T08:40:38Z</time>
      </trkpt>
      <trkpt lat="44.12382" lon="5.81956">
        <ele>1331</ele>
        <time>2019-08-09T08:40:39Z</time>
      </trkpt>
      <trkpt lat="44.12383" lon="5.81953">
        <ele>1331</ele>
        <time>2019-08-09T08:40:40Z</time>
      </trkpt>
      <trkpt lat="44.12384" lon="5.81951">
        <ele>1331</ele>
        <time>2019-08-09T08:40:41Z</time>
      </trkpt>
      <trkpt lat="44.12384" lon="5.81949">
        <ele>1331</ele>
        <time>2019-08-09T08:40:42Z</time>
      </trkpt>
      <trkpt lat="44.12385" lon="5.81945">
        <ele>1331</ele>
        <time>2019-08-09T08:40:43Z</time>
      </trkpt>
      <trkpt lat="44.12386" lon="5.81942">
        <ele>1331</ele>
        <time>2019-08-09T08:40:44Z</time>
      </trkpt>
      <trkpt lat="44.12387" lon="5.81939">
        <ele>1330</ele>
        <time>2019-08-09T08:40:45Z</time>
      </trkpt>
      <trkpt lat="44.12388" lon="5.81935">
        <ele>1330</ele>
        <time>2019-08-09T08:40:46Z</time>
      </trkpt>
      <trkpt lat="44.12389" lon="5.81931">
        <ele>1330</ele>
        <time>2019-08-09T08:40:47Z</time>
      </trkpt>
      <trkpt lat="44.1239" lon="5.81928">
        <ele>1330</ele>
        <time>2019-08-09T08:40:48Z</time>
      </trkpt>
      <trkpt lat="44.12391" lon="5.81925">
        <ele>1330</ele>
        <time>2019-08-09T08:40:49Z</time>
      </trkpt>
      <trkpt lat="44.12392" lon="5.81923">
        <ele>1330</ele>
        <time>2019-08-09T08:40:50Z</time>
      </trkpt>
      <trkpt lat="44.12392" lon="5.8192">
        <ele>1330</ele>
        <time>2019-08-09T08:40:51Z</time>
      </trkpt>
      <trkpt lat="44.12393" lon="5.81917">
        <ele>1330</ele>
        <time>2019-08-09T08:40:52Z</time>
      </trkpt>
      <trkpt lat="44.12394" lon="5.81915">
        <ele>1330</ele>
        <time>2019-08-09T08:40:53Z</time>
      </trkpt>
      <trkpt lat="44.12394" lon="5.81912">
        <ele>1330</ele>
        <time>2019-08-09T08:40:54Z</time>
      </trkpt>
      <trkpt lat="44.12395" lon="5.81909">
        <ele>1330</ele>
        <time>2019-08-09T08:40:55Z</time>
      </trkpt>
      <trkpt lat="44.12396" lon="5.81906">
        <ele>1330</ele>
        <time>2019-08-09T08:40:56Z</time>
      </trkpt>
      <trkpt lat="44.12396" lon="5.81903">
        <ele>1330</ele>
        <time>2019-08-09T08:40:57Z</time>
      </trkpt>
      <trkpt lat="44.12395" lon="5.819">
        <ele>1330</ele>
        <time>2019-08-09T08:40:58Z</time>
      </trkpt>
      <trkpt lat="44.12397" lon="5.81898">
        <ele>1330</ele>
        <time>2019-08-09T08:40:59Z</time>
      </trkpt>
      <trkpt lat="44.12397" lon="5.81895">
        <ele>1330</ele>
        <time>2019-08-09T08:41:00Z</time>
      </trkpt>
      <trkpt lat="44.12398" lon="5.81892">
        <ele>1330</ele>
        <time>2019-08-09T08:41:01Z</time>
      </trkpt>
      <trkpt lat="44.12398" lon="5.81889">
        <ele>1330</ele>
        <time>2019-08-09T08:41:02Z</time>
      </trkpt>
      <trkpt lat="44.12399" lon="5.81887">
        <ele>1330</ele>
        <time>2019-08-09T08:41:03Z</time>
      </trkpt>
      <trkpt lat="44.124" lon="5.81885">
        <ele>1330</ele>
        <time>2019-08-09T08:41:04Z</time>
      </trkpt>
      <trkpt lat="44.12401" lon="5.81883">
        <ele>1330</ele>
        <time>2019-08-09T08:41:05Z</time>
      </trkpt>
      <trkpt lat="44.12402" lon="5.8188">
        <ele>1330</ele>
        <time>2019-08-09T08:41:06Z</time>
      </trkpt>
      <trkpt lat="44.12403" lon="5.81878">
        <ele>1330</ele>
        <time>2019-08-09T08:41:07Z</time>
      </trkpt>
      <trkpt lat="44.12404" lon="5.81875">
        <ele>1330</ele>
        <time>2019-08-09T08:41:08Z</time>
      </trkpt>
      <trkpt lat="44.12405" lon="5.81871">
        <ele>1330</ele>
        <time>2019-08-09T08:41:09Z</time>
      </trkpt>
      <trkpt lat="44.12406" lon="5.81869">
        <ele>1330</ele>
        <time>2019-08-09T08:41:10Z</time>
      </trkpt>
      <trkpt lat="44.12407" lon="5.81866">
        <ele>1330</ele>
        <time>2019-08-09T08:41:11Z</time>
      </trkpt>
      <trkpt lat="44.12408" lon="5.81864">
        <ele>1330</ele>
        <time>2019-08-09T08:41:12Z</time>
      </trkpt>
      <trkpt lat="44.12409" lon="5.81862">
        <ele>1330</ele>
        <time>2019-08-09T08:41:13Z</time>
      </trkpt>
      <trkpt lat="44.1241" lon="5.81861">
        <ele>1330</ele>
        <time>2019-08-09T08:41:14Z</time>
      </trkpt>
      <trkpt lat="44.12412" lon="5.81858">
        <ele>1330</ele>
        <time>2019-08-09T08:41:15Z</time>
      </trkpt>
      <trkpt lat="44.12414" lon="5.81857">
        <ele>1330</ele>
        <time>2019-08-09T08:41:16Z</time>
      </trkpt>
      <trkpt lat="44.12416" lon="5.81855">
        <ele>1330</ele>
        <time>2019-08-09T08:41:17Z</time>
      </trkpt>
      <trkpt lat="44.12418" lon="5.81852">
        <ele>1330</ele>
        <time>2019-08-09T08:41:18Z</time>
      </trkpt>
      <trkpt lat="44.1242" lon="5.8185">
        <ele>1330</ele>
        <time>2019-08-09T08:41:19Z</time>
      </trkpt>
      <trkpt lat="44.12421" lon="5.81848">
        <ele>1330</ele>
        <time>2019-08-09T08:41:20Z</time>
      </trkpt>
      <trkpt lat="44.12423" lon="5.81847">
        <ele>1330</ele>
        <time>2019-08-09T08:41:21Z</time>
      </trkpt>
      <trkpt lat="44.12425" lon="5.81845">
        <ele>1330</ele>
        <time>2019-08-09T08:41:22Z</time>
      </trkpt>
      <trkpt lat="44.12427" lon="5.81842">
        <ele>1330</ele>
        <time>2019-08-09T08:41:23Z</time>
      </trkpt>
      <trkpt lat="44.12429" lon="5.81839">
        <ele>1330</ele>
        <time>2019-08-09T08:41:24Z</time>
      </trkpt>
      <trkpt lat="44.12431" lon="5.81837">
        <ele>1330</ele>
        <time>2019-08-09T08:41:25Z</time>
      </trkpt>
      <trkpt lat="44.12433" lon="5.81834">
        <ele>1330</ele>
        <time>2019-08-09T08:41:26Z</time>
      </trkpt>
      <trkpt lat="44.12435" lon="5.81832">
        <ele>1331</ele>
        <time>2019-08-09T08:41:27Z</time>
      </trkpt>
      <trkpt lat="44.12436" lon="5.81829">
        <ele>1331</ele>
        <time>2019-08-09T08:41:28Z</time>
      </trkpt>
      <trkpt lat="44.12437" lon="5.81827">
        <ele>1331</ele>
        <time>2019-08-09T08:41:29Z</time>
      </trkpt>
      <trkpt lat="44.12439" lon="5.81824">
        <ele>1331</ele>
        <time>2019-08-09T08:41:30Z</time>
      </trkpt>
      <trkpt lat="44.1244" lon="5.81821">
        <ele>1331</ele>
        <time>2019-08-09T08:41:31Z</time>
      </trkpt>
      <trkpt lat="44.12441" lon="5.81819">
        <ele>1331</ele>
        <time>2019-08-09T08:41:32Z</time>
      </trkpt>
      <trkpt lat="44.12443" lon="5.81816">
        <ele>1331</ele>
        <time>2019-08-09T08:41:33Z</time>
      </trkpt>
      <trkpt lat="44.12445" lon="5.81813">
        <ele>1331</ele>
        <time>2019-08-09T08:41:34Z</time>
      </trkpt>
      <trkpt lat="44.12446" lon="5.81812">
        <ele>1332</ele>
        <time>2019-08-09T08:41:35Z</time>
      </trkpt>
      <trkpt lat="44.12447" lon="5.81809">
        <ele>1332</ele>
        <time>2019-08-09T08:41:36Z</time>
      </trkpt>
      <trkpt lat="44.12448" lon="5.81807">
        <ele>1332</ele>
        <time>2019-08-09T08:41:37Z</time>
      </trkpt>
      <trkpt lat="44.12449" lon="5.81805">
        <ele>1333</ele>
        <time>2019-08-09T08:41:38Z</time>
      </trkpt>
      <trkpt lat="44.1245" lon="5.81802">
        <ele>1333</ele>
        <time>2019-08-09T08:41:39Z</time>
      </trkpt>
      <trkpt lat="44.12453" lon="5.81799">
        <ele>1333</ele>
        <time>2019-08-09T08:41:40Z</time>
      </trkpt>
      <trkpt lat="44.12455" lon="5.81796">
        <ele>1333</ele>
        <time>2019-08-09T08:41:41Z</time>
      </trkpt>
      <trkpt lat="44.12462" lon="5.81795">
        <ele>1334</ele>
        <time>2019-08-09T08:41:42Z</time>
      </trkpt>
      <trkpt lat="44.12467" lon="5.81794">
        <ele>1335</ele>
        <time>2019-08-09T08:41:43Z</time>
      </trkpt>
      <trkpt lat="44.12472" lon="5.81794">
        <ele>1336</ele>
        <time>2019-08-09T08:41:44Z</time>
      </trkpt>
      <trkpt lat="44.12477" lon="5.81792">
        <ele>1338</ele>
        <time>2019-08-09T08:41:45Z</time>
      </trkpt>
      <trkpt lat="44.12481" lon="5.81791">
        <ele>1340</ele>
        <time>2019-08-09T08:41:46Z</time>
      </trkpt>
      <trkpt lat="44.12484" lon="5.81788">
        <ele>1342</ele>
        <time>2019-08-09T08:41:47Z</time>
      </trkpt>
      <trkpt lat="44.12486" lon="5.81786">
        <ele>1344</ele>
        <time>2019-08-09T08:41:48Z</time>
      </trkpt>
      <trkpt lat="44.12486" lon="5.81783">
        <ele>1346</ele>
        <time>2019-08-09T08:41:49Z</time>
      </trkpt>
      <trkpt lat="44.12487" lon="5.8178">
        <ele>1348</ele>
        <time>2019-08-09T08:41:50Z</time>
      </trkpt>
      <trkpt lat="44.12488" lon="5.81777">
        <ele>1350</ele>
        <time>2019-08-09T08:41:51Z</time>
      </trkpt>
      <trkpt lat="44.1249" lon="5.81774">
        <ele>1352</ele>
        <time>2019-08-09T08:41:52Z</time>
      </trkpt>
      <trkpt lat="44.12491" lon="5.8177">
        <ele>1353</ele>
        <time>2019-08-09T08:41:53Z</time>
      </trkpt>
      <trkpt lat="44.12491" lon="5.81767">
        <ele>1354</ele>
        <time>2019-08-09T08:41:54Z</time>
      </trkpt>
      <trkpt lat="44.12491" lon="5.81764">
        <ele>1355</ele>
        <time>2019-08-09T08:41:55Z</time>
      </trkpt>
      <trkpt lat="44.12492" lon="5.81761">
        <ele>1356</ele>
        <time>2019-08-09T08:41:56Z</time>
      </trkpt>
      <trkpt lat="44.12492" lon="5.81758">
        <ele>1357</ele>
        <time>2019-08-09T08:41:57Z</time>
      </trkpt>
      <trkpt lat="44.12492" lon="5.81754">
        <ele>1358</ele>
        <time>2019-08-09T08:41:58Z</time>
      </trkpt>
      <trkpt lat="44.12492" lon="5.81751">
        <ele>1359</ele>
        <time>2019-08-09T08:41:59Z</time>
      </trkpt>
      <trkpt lat="44.12493" lon="5.81748">
        <ele>1360</ele>
        <time>2019-08-09T08:42:00Z</time>
      </trkpt>
      <trkpt lat="44.12494" lon="5.81744">
        <ele>1360</ele>
        <time>2019-08-09T08:42:01Z</time>
      </trkpt>
      <trkpt lat="44.12494" lon="5.81741">
        <ele>1360</ele>
        <time>2019-08-09T08:42:02Z</time>
      </trkpt>
      <trkpt lat="44.12495" lon="5.81738">
        <ele>1361</ele>
        <time>2019-08-09T08:42:03Z</time>
      </trkpt>
      <trkpt lat="44.12495" lon="5.81734">
        <ele>1361</ele>
        <time>2019-08-09T08:42:04Z</time>
      </trkpt>
      <trkpt lat="44.12496" lon="5.8173">
        <ele>1361</ele>
        <time>2019-08-09T08:42:05Z</time>
      </trkpt>
      <trkpt lat="44.12496" lon="5.81727">
        <ele>1362</ele>
        <time>2019-08-09T08:42:06Z</time>
      </trkpt>
      <trkpt lat="44.12497" lon="5.81724">
        <ele>1362</ele>
        <time>2019-08-09T08:42:07Z</time>
      </trkpt>
      <trkpt lat="44.12497" lon="5.8172">
        <ele>1363</ele>
        <time>2019-08-09T08:42:08Z</time>
      </trkpt>
      <trkpt lat="44.12497" lon="5.81716">
        <ele>1363</ele>
        <time>2019-08-09T08:42:09Z</time>
      </trkpt>
      <trkpt lat="44.12497" lon="5.81714">
        <ele>1363</ele>
        <time>2019-08-09T08:42:10Z</time>
      </trkpt>
      <trkpt lat="44.12497" lon="5.81711">
        <ele>1364</ele>
        <time>2019-08-09T08:42:11Z</time>
      </trkpt>
      <trkpt lat="44.12497" lon="5.81707">
        <ele>1364</ele>
        <time>2019-08-09T08:42:12Z</time>
      </trkpt>
      <trkpt lat="44.12497" lon="5.81704">
        <ele>1364</ele>
        <time>2019-08-09T08:42:13Z</time>
      </trkpt>
      <trkpt lat="44.12498" lon="5.81701">
        <ele>1365</ele>
        <time>2019-08-09T08:42:14Z</time>
      </trkpt>
      <trkpt lat="44.12499" lon="5.81698">
        <ele>1365</ele>
        <time>2019-08-09T08:42:15Z</time>
      </trkpt>
      <trkpt lat="44.12499" lon="5.81696">
        <ele>1365</ele>
        <time>2019-08-09T08:42:16Z</time>
      </trkpt>
      <trkpt lat="44.125" lon="5.81692">
        <ele>1366</ele>
        <time>2019-08-09T08:42:17Z</time>
      </trkpt>
      <trkpt lat="44.125" lon="5.81688">
        <ele>1366</ele>
        <time>2019-08-09T08:42:18Z</time>
      </trkpt>
      <trkpt lat="44.125" lon="5.81685">
        <ele>1367</ele>
        <time>2019-08-09T08:42:19Z</time>
      </trkpt>
      <trkpt lat="44.125" lon="5.81682">
        <ele>1367</ele>
        <time>2019-08-09T08:42:20Z</time>
      </trkpt>
      <trkpt lat="44.125" lon="5.81679">
        <ele>1367</ele>
        <time>2019-08-09T08:42:21Z</time>
      </trkpt>
      <trkpt lat="44.12501" lon="5.81676">
        <ele>1368</ele>
        <time>2019-08-09T08:42:22Z</time>
      </trkpt>
      <trkpt lat="44.12501" lon="5.81673">
        <ele>1368</ele>
        <time>2019-08-09T08:42:23Z</time>
      </trkpt>
      <trkpt lat="44.12502" lon="5.8167">
        <ele>1368</ele>
        <time>2019-08-09T08:42:24Z</time>
      </trkpt>
      <trkpt lat="44.12502" lon="5.81667">
        <ele>1368</ele>
        <time>2019-08-09T08:42:25Z</time>
      </trkpt>
      <trkpt lat="44.12502" lon="5.81663">
        <ele>1369</ele>
        <time>2019-08-09T08:42:26Z</time>
      </trkpt>
      <trkpt lat="44.12502" lon="5.8166">
        <ele>1369</ele>
        <time>2019-08-09T08:42:27Z</time>
      </trkpt>
      <trkpt lat="44.12503" lon="5.81657">
        <ele>1369</ele>
        <time>2019-08-09T08:42:28Z</time>
      </trkpt>
      <trkpt lat="44.12504" lon="5.81653">
        <ele>1370</ele>
        <time>2019-08-09T08:42:29Z</time>
      </trkpt>
      <trkpt lat="44.12504" lon="5.8165">
        <ele>1370</ele>
        <time>2019-08-09T08:42:30Z</time>
      </trkpt>
      <trkpt lat="44.12505" lon="5.81647">
        <ele>1370</ele>
        <time>2019-08-09T08:42:31Z</time>
      </trkpt>
      <trkpt lat="44.12505" lon="5.81644">
        <ele>1371</ele>
        <time>2019-08-09T08:42:32Z</time>
      </trkpt>
      <trkpt lat="44.12506" lon="5.81641">
        <ele>1371</ele>
        <time>2019-08-09T08:42:33Z</time>
      </trkpt>
      <trkpt lat="44.12506" lon="5.81639">
        <ele>1372</ele>
        <time>2019-08-09T08:42:34Z</time>
      </trkpt>
      <trkpt lat="44.12507" lon="5.81636">
        <ele>1372</ele>
        <time>2019-08-09T08:42:35Z</time>
      </trkpt>
      <trkpt lat="44.12508" lon="5.81633">
        <ele>1372</ele>
        <time>2019-08-09T08:42:36Z</time>
      </trkpt>
      <trkpt lat="44.12508" lon="5.81631">
        <ele>1373</ele>
        <time>2019-08-09T08:42:37Z</time>
      </trkpt>
      <trkpt lat="44.12509" lon="5.81628">
        <ele>1373</ele>
        <time>2019-08-09T08:42:38Z</time>
      </trkpt>
      <trkpt lat="44.12509" lon="5.81626">
        <ele>1373</ele>
        <time>2019-08-09T08:42:39Z</time>
      </trkpt>
      <trkpt lat="44.12509" lon="5.81625">
        <ele>1373</ele>
        <time>2019-08-09T08:42:40Z</time>
      </trkpt>
      <trkpt lat="44.1251" lon="5.81623">
        <ele>1373</ele>
        <time>2019-08-09T08:42:41Z</time>
      </trkpt>
      <trkpt lat="44.12511" lon="5.8162">
        <ele>1374</ele>
        <time>2019-08-09T08:42:42Z</time>
      </trkpt>
      <trkpt lat="44.12511" lon="5.81619">
        <ele>1374</ele>
        <time>2019-08-09T08:42:43Z</time>
      </trkpt>
      <trkpt lat="44.12512" lon="5.81617">
        <ele>1374</ele>
        <time>2019-08-09T08:42:44Z</time>
      </trkpt>
      <trkpt lat="44.12513" lon="5.81614">
        <ele>1375</ele>
        <time>2019-08-09T08:42:45Z</time>
      </trkpt>
      <trkpt lat="44.12514" lon="5.81611">
        <ele>1375</ele>
        <time>2019-08-09T08:42:46Z</time>
      </trkpt>
      <trkpt lat="44.12516" lon="5.81609">
        <ele>1376</ele>
        <time>2019-08-09T08:42:47Z</time>
      </trkpt>
      <trkpt lat="44.12517" lon="5.81607">
        <ele>1376</ele>
        <time>2019-08-09T08:42:48Z</time>
      </trkpt>
      <trkpt lat="44.12518" lon="5.81604">
        <ele>1376</ele>
        <time>2019-08-09T08:42:49Z</time>
      </trkpt>
      <trkpt lat="44.12519" lon="5.81602">
        <ele>1376</ele>
        <time>2019-08-09T08:42:50Z</time>
      </trkpt>
      <trkpt lat="44.12519" lon="5.81599">
        <ele>1377</ele>
        <time>2019-08-09T08:42:51Z</time>
      </trkpt>
      <trkpt lat="44.1252" lon="5.81596">
        <ele>1377</ele>
        <time>2019-08-09T08:42:52Z</time>
      </trkpt>
      <trkpt lat="44.12521" lon="5.81594">
        <ele>1377</ele>
        <time>2019-08-09T08:42:53Z</time>
      </trkpt>
      <trkpt lat="44.12521" lon="5.8159">
        <ele>1377</ele>
        <time>2019-08-09T08:42:54Z</time>
      </trkpt>
      <trkpt lat="44.12522" lon="5.81588">
        <ele>1378</ele>
        <time>2019-08-09T08:42:55Z</time>
      </trkpt>
      <trkpt lat="44.12523" lon="5.81585">
        <ele>1378</ele>
        <time>2019-08-09T08:42:56Z</time>
      </trkpt>
      <trkpt lat="44.12525" lon="5.81582">
        <ele>1378</ele>
        <time>2019-08-09T08:42:57Z</time>
      </trkpt>
      <trkpt lat="44.12526" lon="5.8158">
        <ele>1379</ele>
        <time>2019-08-09T08:42:58Z</time>
      </trkpt>
      <trkpt lat="44.12528" lon="5.81577">
        <ele>1380</ele>
        <time>2019-08-09T08:42:59Z</time>
      </trkpt>
      <trkpt lat="44.12529" lon="5.81574">
        <ele>1380</ele>
        <time>2019-08-09T08:43:00Z</time>
      </trkpt>
      <trkpt lat="44.1253" lon="5.81572">
        <ele>1381</ele>
        <time>2019-08-09T08:43:01Z</time>
      </trkpt>
      <trkpt lat="44.12531" lon="5.81569">
        <ele>1381</ele>
        <time>2019-08-09T08:43:02Z</time>
      </trkpt>
      <trkpt lat="44.12531" lon="5.81566">
        <ele>1381</ele>
        <time>2019-08-09T08:43:03Z</time>
      </trkpt>
      <trkpt lat="44.12531" lon="5.81564">
        <ele>1382</ele>
        <time>2019-08-09T08:43:04Z</time>
      </trkpt>
      <trkpt lat="44.12532" lon="5.81562">
        <ele>1382</ele>
        <time>2019-08-09T08:43:05Z</time>
      </trkpt>
      <trkpt lat="44.12533" lon="5.8156">
        <ele>1383</ele>
        <time>2019-08-09T08:43:06Z</time>
      </trkpt>
      <trkpt lat="44.12534" lon="5.81558">
        <ele>1384</ele>
        <time>2019-08-09T08:43:07Z</time>
      </trkpt>
      <trkpt lat="44.12534" lon="5.81555">
        <ele>1384</ele>
        <time>2019-08-09T08:43:08Z</time>
      </trkpt>
      <trkpt lat="44.12535" lon="5.81553">
        <ele>1385</ele>
        <time>2019-08-09T08:43:09Z</time>
      </trkpt>
      <trkpt lat="44.12536" lon="5.8155">
        <ele>1386</ele>
        <time>2019-08-09T08:43:10Z</time>
      </trkpt>
      <trkpt lat="44.12537" lon="5.81547">
        <ele>1386</ele>
        <time>2019-08-09T08:43:11Z</time>
      </trkpt>
      <trkpt lat="44.12537" lon="5.81545">
        <ele>1386</ele>
        <time>2019-08-09T08:43:12Z</time>
      </trkpt>
      <trkpt lat="44.12538" lon="5.81541">
        <ele>1386</ele>
        <time>2019-08-09T08:43:13Z</time>
      </trkpt>
      <trkpt lat="44.12539" lon="5.81539">
        <ele>1386</ele>
        <time>2019-08-09T08:43:14Z</time>
      </trkpt>
      <trkpt lat="44.1254" lon="5.81537">
        <ele>1386</ele>
        <time>2019-08-09T08:43:15Z</time>
      </trkpt>
      <trkpt lat="44.1254" lon="5.81534">
        <ele>1387</ele>
        <time>2019-08-09T08:43:16Z</time>
      </trkpt>
      <trkpt lat="44.12541" lon="5.81532">
        <ele>1387</ele>
        <time>2019-08-09T08:43:17Z</time>
      </trkpt>
      <trkpt lat="44.12542" lon="5.8153">
        <ele>1387</ele>
        <time>2019-08-09T08:43:18Z</time>
      </trkpt>
      <trkpt lat="44.12542" lon="5.81526">
        <ele>1387</ele>
        <time>2019-08-09T08:43:19Z</time>
      </trkpt>
      <trkpt lat="44.12543" lon="5.81522">
        <ele>1388</ele>
        <time>2019-08-09T08:43:20Z</time>
      </trkpt>
      <trkpt lat="44.12543" lon="5.81519">
        <ele>1389</ele>
        <time>2019-08-09T08:43:21Z</time>
      </trkpt>
      <trkpt lat="44.12544" lon="5.81515">
        <ele>1389</ele>
        <time>2019-08-09T08:43:22Z</time>
      </trkpt>
      <trkpt lat="44.12545" lon="5.81512">
        <ele>1390</ele>
        <time>2019-08-09T08:43:23Z</time>
      </trkpt>
      <trkpt lat="44.12546" lon="5.8151">
        <ele>1391</ele>
        <time>2019-08-09T08:43:24Z</time>
      </trkpt>
      <trkpt lat="44.12548" lon="5.81507">
        <ele>1392</ele>
        <time>2019-08-09T08:43:25Z</time>
      </trkpt>
      <trkpt lat="44.12549" lon="5.81503">
        <ele>1393</ele>
        <time>2019-08-09T08:43:26Z</time>
      </trkpt>
      <trkpt lat="44.1255" lon="5.81501">
        <ele>1393</ele>
        <time>2019-08-09T08:43:27Z</time>
      </trkpt>
      <trkpt lat="44.1255" lon="5.81498">
        <ele>1394</ele>
        <time>2019-08-09T08:43:28Z</time>
      </trkpt>
      <trkpt lat="44.12551" lon="5.81495">
        <ele>1395</ele>
        <time>2019-08-09T08:43:29Z</time>
      </trkpt>
      <trkpt lat="44.12553" lon="5.81492">
        <ele>1395</ele>
        <time>2019-08-09T08:43:30Z</time>
      </trkpt>
      <trkpt lat="44.12554" lon="5.81489">
        <ele>1395</ele>
        <time>2019-08-09T08:43:31Z</time>
      </trkpt>
      <trkpt lat="44.12555" lon="5.81487">
        <ele>1395</ele>
        <time>2019-08-09T08:43:32Z</time>
      </trkpt>
      <trkpt lat="44.12555" lon="5.81484">
        <ele>1395</ele>
        <time>2019-08-09T08:43:33Z</time>
      </trkpt>
      <trkpt lat="44.12556" lon="5.81481">
        <ele>1395</ele>
        <time>2019-08-09T08:43:34Z</time>
      </trkpt>
      <trkpt lat="44.12558" lon="5.81478">
        <ele>1395</ele>
        <time>2019-08-09T08:43:35Z</time>
      </trkpt>
      <trkpt lat="44.12559" lon="5.81476">
        <ele>1395</ele>
        <time>2019-08-09T08:43:36Z</time>
      </trkpt>
      <trkpt lat="44.1256" lon="5.81474">
        <ele>1395</ele>
        <time>2019-08-09T08:43:37Z</time>
      </trkpt>
      <trkpt lat="44.12561" lon="5.81471">
        <ele>1395</ele>
        <time>2019-08-09T08:43:38Z</time>
      </trkpt>
      <trkpt lat="44.12562" lon="5.81468">
        <ele>1396</ele>
        <time>2019-08-09T08:43:39Z</time>
      </trkpt>
      <trkpt lat="44.12563" lon="5.81465">
        <ele>1396</ele>
        <time>2019-08-09T08:43:40Z</time>
      </trkpt>
      <trkpt lat="44.12564" lon="5.81462">
        <ele>1396</ele>
        <time>2019-08-09T08:43:41Z</time>
      </trkpt>
      <trkpt lat="44.12565" lon="5.8146">
        <ele>1396</ele>
        <time>2019-08-09T08:43:42Z</time>
      </trkpt>
      <trkpt lat="44.12566" lon="5.81457">
        <ele>1396</ele>
        <time>2019-08-09T08:43:43Z</time>
      </trkpt>
      <trkpt lat="44.12567" lon="5.81455">
        <ele>1396</ele>
        <time>2019-08-09T08:43:44Z</time>
      </trkpt>
      <trkpt lat="44.12568" lon="5.81453">
        <ele>1396</ele>
        <time>2019-08-09T08:43:45Z</time>
      </trkpt>
      <trkpt lat="44.1257" lon="5.81451">
        <ele>1396</ele>
        <time>2019-08-09T08:43:46Z</time>
      </trkpt>
      <trkpt lat="44.12572" lon="5.81448">
        <ele>1396</ele>
        <time>2019-08-09T08:43:48Z</time>
      </trkpt>
      <trkpt lat="44.12573" lon="5.81445">
        <ele>1396</ele>
        <time>2019-08-09T08:43:49Z</time>
      </trkpt>
      <trkpt lat="44.12574" lon="5.81441">
        <ele>1396</ele>
        <time>2019-08-09T08:43:51Z</time>
      </trkpt>
      <trkpt lat="44.12575" lon="5.81439">
        <ele>1397</ele>
        <time>2019-08-09T08:43:52Z</time>
      </trkpt>
      <trkpt lat="44.12575" lon="5.81435">
        <ele>1397</ele>
        <time>2019-08-09T08:43:53Z</time>
      </trkpt>
      <trkpt lat="44.12576" lon="5.81432">
        <ele>1398</ele>
        <time>2019-08-09T08:43:54Z</time>
      </trkpt>
      <trkpt lat="44.12576" lon="5.81427">
        <ele>1398</ele>
        <time>2019-08-09T08:43:55Z</time>
      </trkpt>
      <trkpt lat="44.12578" lon="5.81423">
        <ele>1399</ele>
        <time>2019-08-09T08:43:57Z</time>
      </trkpt>
      <trkpt lat="44.12579" lon="5.81421">
        <ele>1399</ele>
        <time>2019-08-09T08:43:58Z</time>
      </trkpt>
      <trkpt lat="44.1258" lon="5.81418">
        <ele>1399</ele>
        <time>2019-08-09T08:43:59Z</time>
      </trkpt>
      <trkpt lat="44.12581" lon="5.81416">
        <ele>1400</ele>
        <time>2019-08-09T08:44:00Z</time>
      </trkpt>
      <trkpt lat="44.12582" lon="5.81414">
        <ele>1400</ele>
        <time>2019-08-09T08:44:01Z</time>
      </trkpt>
      <trkpt lat="44.12583" lon="5.81411">
        <ele>1401</ele>
        <time>2019-08-09T08:44:02Z</time>
      </trkpt>
      <trkpt lat="44.12584" lon="5.81408">
        <ele>1401</ele>
        <time>2019-08-09T08:44:03Z</time>
      </trkpt>
      <trkpt lat="44.12585" lon="5.81406">
        <ele>1401</ele>
        <time>2019-08-09T08:44:04Z</time>
      </trkpt>
      <trkpt lat="44.12585" lon="5.81404">
        <ele>1402</ele>
        <time>2019-08-09T08:44:05Z</time>
      </trkpt>
      <trkpt lat="44.12586" lon="5.81402">
        <ele>1402</ele>
        <time>2019-08-09T08:44:06Z</time>
      </trkpt>
      <trkpt lat="44.12588" lon="5.81399">
        <ele>1403</ele>
        <time>2019-08-09T08:44:07Z</time>
      </trkpt>
      <trkpt lat="44.12589" lon="5.81397">
        <ele>1403</ele>
        <time>2019-08-09T08:44:08Z</time>
      </trkpt>
      <trkpt lat="44.1259" lon="5.81393">
        <ele>1404</ele>
        <time>2019-08-09T08:44:09Z</time>
      </trkpt>
      <trkpt lat="44.12592" lon="5.8139">
        <ele>1404</ele>
        <time>2019-08-09T08:44:10Z</time>
      </trkpt>
      <trkpt lat="44.12593" lon="5.81387">
        <ele>1405</ele>
        <time>2019-08-09T08:44:11Z</time>
      </trkpt>
      <trkpt lat="44.12594" lon="5.81385">
        <ele>1406</ele>
        <time>2019-08-09T08:44:12Z</time>
      </trkpt>
      <trkpt lat="44.12596" lon="5.81383">
        <ele>1406</ele>
        <time>2019-08-09T08:44:13Z</time>
      </trkpt>
      <trkpt lat="44.12597" lon="5.8138">
        <ele>1407</ele>
        <time>2019-08-09T08:44:14Z</time>
      </trkpt>
      <trkpt lat="44.12598" lon="5.81377">
        <ele>1408</ele>
        <time>2019-08-09T08:44:15Z</time>
      </trkpt>
      <trkpt lat="44.12598" lon="5.81374">
        <ele>1409</ele>
        <time>2019-08-09T08:44:16Z</time>
      </trkpt>
      <trkpt lat="44.12599" lon="5.81371">
        <ele>1409</ele>
        <time>2019-08-09T08:44:17Z</time>
      </trkpt>
      <trkpt lat="44.126" lon="5.81369">
        <ele>1410</ele>
        <time>2019-08-09T08:44:18Z</time>
      </trkpt>
      <trkpt lat="44.12601" lon="5.81367">
        <ele>1410</ele>
        <time>2019-08-09T08:44:19Z</time>
      </trkpt>
      <trkpt lat="44.12603" lon="5.81365">
        <ele>1410</ele>
        <time>2019-08-09T08:44:20Z</time>
      </trkpt>
      <trkpt lat="44.12604" lon="5.81362">
        <ele>1410</ele>
        <time>2019-08-09T08:44:21Z</time>
      </trkpt>
      <trkpt lat="44.12605" lon="5.81359">
        <ele>1410</ele>
        <time>2019-08-09T08:44:22Z</time>
      </trkpt>
      <trkpt lat="44.12606" lon="5.81356">
        <ele>1410</ele>
        <time>2019-08-09T08:44:23Z</time>
      </trkpt>
      <trkpt lat="44.12607" lon="5.81354">
        <ele>1410</ele>
        <time>2019-08-09T08:44:24Z</time>
      </trkpt>
      <trkpt lat="44.12607" lon="5.81352">
        <ele>1410</ele>
        <time>2019-08-09T08:44:25Z</time>
      </trkpt>
      <trkpt lat="44.12606" lon="5.81351">
        <ele>1410</ele>
        <time>2019-08-09T08:44:26Z</time>
      </trkpt>
      <trkpt lat="44.12608" lon="5.81348">
        <ele>1411</ele>
        <time>2019-08-09T08:44:27Z</time>
      </trkpt>
      <trkpt lat="44.1261" lon="5.81346">
        <ele>1411</ele>
        <time>2019-08-09T08:44:28Z</time>
      </trkpt>
      <trkpt lat="44.12611" lon="5.81343">
        <ele>1411</ele>
        <time>2019-08-09T08:44:29Z</time>
      </trkpt>
      <trkpt lat="44.12613" lon="5.8134">
        <ele>1412</ele>
        <time>2019-08-09T08:44:30Z</time>
      </trkpt>
      <trkpt lat="44.12615" lon="5.81337">
        <ele>1412</ele>
        <time>2019-08-09T08:44:31Z</time>
      </trkpt>
      <trkpt lat="44.12617" lon="5.81335">
        <ele>1412</ele>
        <time>2019-08-09T08:44:32Z</time>
      </trkpt>
      <trkpt lat="44.12617" lon="5.81332">
        <ele>1413</ele>
        <time>2019-08-09T08:44:33Z</time>
      </trkpt>
      <trkpt lat="44.12617" lon="5.81329">
        <ele>1413</ele>
        <time>2019-08-09T08:44:34Z</time>
      </trkpt>
      <trkpt lat="44.12618" lon="5.81327">
        <ele>1414</ele>
        <time>2019-08-09T08:44:35Z</time>
      </trkpt>
      <trkpt lat="44.12619" lon="5.81325">
        <ele>1414</ele>
        <time>2019-08-09T08:44:36Z</time>
      </trkpt>
      <trkpt lat="44.12621" lon="5.81321">
        <ele>1415</ele>
        <time>2019-08-09T08:44:37Z</time>
      </trkpt>
      <trkpt lat="44.12622" lon="5.81318">
        <ele>1415</ele>
        <time>2019-08-09T08:44:38Z</time>
      </trkpt>
      <trkpt lat="44.12624" lon="5.81314">
        <ele>1415</ele>
        <time>2019-08-09T08:44:39Z</time>
      </trkpt>
      <trkpt lat="44.12625" lon="5.81311">
        <ele>1416</ele>
        <time>2019-08-09T08:44:40Z</time>
      </trkpt>
      <trkpt lat="44.12626" lon="5.81308">
        <ele>1416</ele>
        <time>2019-08-09T08:44:41Z</time>
      </trkpt>
      <trkpt lat="44.12627" lon="5.81306">
        <ele>1416</ele>
        <time>2019-08-09T08:44:42Z</time>
      </trkpt>
      <trkpt lat="44.12627" lon="5.81304">
        <ele>1416</ele>
        <time>2019-08-09T08:44:43Z</time>
      </trkpt>
      <trkpt lat="44.12626" lon="5.81301">
        <ele>1416</ele>
        <time>2019-08-09T08:44:44Z</time>
      </trkpt>
      <trkpt lat="44.12626" lon="5.81298">
        <ele>1416</ele>
        <time>2019-08-09T08:44:45Z</time>
      </trkpt>
      <trkpt lat="44.12627" lon="5.81296">
        <ele>1416</ele>
        <time>2019-08-09T08:44:46Z</time>
      </trkpt>
      <trkpt lat="44.1263" lon="5.81294">
        <ele>1416</ele>
        <time>2019-08-09T08:44:47Z</time>
      </trkpt>
      <trkpt lat="44.12631" lon="5.81292">
        <ele>1416</ele>
        <time>2019-08-09T08:44:48Z</time>
      </trkpt>
      <trkpt lat="44.12632" lon="5.81289">
        <ele>1416</ele>
        <time>2019-08-09T08:44:49Z</time>
      </trkpt>
      <trkpt lat="44.12634" lon="5.81286">
        <ele>1416</ele>
        <time>2019-08-09T08:44:50Z</time>
      </trkpt>
      <trkpt lat="44.12637" lon="5.81283">
        <ele>1416</ele>
        <time>2019-08-09T08:44:51Z</time>
      </trkpt>
      <trkpt lat="44.1264" lon="5.81281">
        <ele>1417</ele>
        <time>2019-08-09T08:44:52Z</time>
      </trkpt>
      <trkpt lat="44.12643" lon="5.81278">
        <ele>1418</ele>
        <time>2019-08-09T08:44:53Z</time>
      </trkpt>
      <trkpt lat="44.12645" lon="5.81275">
        <ele>1419</ele>
        <time>2019-08-09T08:44:54Z</time>
      </trkpt>
      <trkpt lat="44.12647" lon="5.81272">
        <ele>1420</ele>
        <time>2019-08-09T08:44:55Z</time>
      </trkpt>
      <trkpt lat="44.12649" lon="5.81269">
        <ele>1421</ele>
        <time>2019-08-09T08:44:56Z</time>
      </trkpt>
      <trkpt lat="44.1265" lon="5.81267">
        <ele>1422</ele>
        <time>2019-08-09T08:44:57Z</time>
      </trkpt>
      <trkpt lat="44.12652" lon="5.81265">
        <ele>1423</ele>
        <time>2019-08-09T08:44:58Z</time>
      </trkpt>
      <trkpt lat="44.12654" lon="5.81262">
        <ele>1423</ele>
        <time>2019-08-09T08:44:59Z</time>
      </trkpt>
      <trkpt lat="44.12654" lon="5.81258">
        <ele>1423</ele>
        <time>2019-08-09T08:45:00Z</time>
      </trkpt>
      <trkpt lat="44.12656" lon="5.81255">
        <ele>1424</ele>
        <time>2019-08-09T08:45:01Z</time>
      </trkpt>
      <trkpt lat="44.12657" lon="5.81253">
        <ele>1425</ele>
        <time>2019-08-09T08:45:02Z</time>
      </trkpt>
      <trkpt lat="44.12658" lon="5.81249">
        <ele>1426</ele>
        <time>2019-08-09T08:45:03Z</time>
      </trkpt>
      <trkpt lat="44.1266" lon="5.81247">
        <ele>1426</ele>
        <time>2019-08-09T08:45:04Z</time>
      </trkpt>
      <trkpt lat="44.12661" lon="5.81244">
        <ele>1427</ele>
        <time>2019-08-09T08:45:05Z</time>
      </trkpt>
      <trkpt lat="44.12661" lon="5.81241">
        <ele>1428</ele>
        <time>2019-08-09T08:45:06Z</time>
      </trkpt>
      <trkpt lat="44.12661" lon="5.8124">
        <ele>1428</ele>
        <time>2019-08-09T08:45:07Z</time>
      </trkpt>
      <trkpt lat="44.12659" lon="5.81237">
        <ele>1429</ele>
        <time>2019-08-09T08:45:08Z</time>
      </trkpt>
      <trkpt lat="44.12656" lon="5.81236">
        <ele>1430</ele>
        <time>2019-08-09T08:45:09Z</time>
      </trkpt>
      <trkpt lat="44.12653" lon="5.81236">
        <ele>1430</ele>
        <time>2019-08-09T08:45:10Z</time>
      </trkpt>
      <trkpt lat="44.12651" lon="5.81237">
        <ele>1430</ele>
        <time>2019-08-09T08:45:11Z</time>
      </trkpt>
      <trkpt lat="44.12649" lon="5.81241">
        <ele>1431</ele>
        <time>2019-08-09T08:45:13Z</time>
      </trkpt>
      <trkpt lat="44.12647" lon="5.81245">
        <ele>1432</ele>
        <time>2019-08-09T08:45:14Z</time>
      </trkpt>
      <trkpt lat="44.12644" lon="5.81248">
        <ele>1432</ele>
        <time>2019-08-09T08:45:15Z</time>
      </trkpt>
      <trkpt lat="44.12642" lon="5.81251">
        <ele>1432</ele>
        <time>2019-08-09T08:45:16Z</time>
      </trkpt>
      <trkpt lat="44.1264" lon="5.81255">
        <ele>1432</ele>
        <time>2019-08-09T08:45:17Z</time>
      </trkpt>
      <trkpt lat="44.12638" lon="5.81259">
        <ele>1432</ele>
        <time>2019-08-09T08:45:18Z</time>
      </trkpt>
      <trkpt lat="44.12636" lon="5.81262">
        <ele>1432</ele>
        <time>2019-08-09T08:45:19Z</time>
      </trkpt>
      <trkpt lat="44.12635" lon="5.81265">
        <ele>1432</ele>
        <time>2019-08-09T08:45:20Z</time>
      </trkpt>
      <trkpt lat="44.12632" lon="5.81269">
        <ele>1432</ele>
        <time>2019-08-09T08:45:21Z</time>
      </trkpt>
      <trkpt lat="44.12631" lon="5.81272">
        <ele>1432</ele>
        <time>2019-08-09T08:45:22Z</time>
      </trkpt>
      <trkpt lat="44.1263" lon="5.81275">
        <ele>1432</ele>
        <time>2019-08-09T08:45:23Z</time>
      </trkpt>
      <trkpt lat="44.12629" lon="5.81278">
        <ele>1432</ele>
        <time>2019-08-09T08:45:24Z</time>
      </trkpt>
      <trkpt lat="44.12625" lon="5.81281">
        <ele>1432</ele>
        <time>2019-08-09T08:45:25Z</time>
      </trkpt>
      <trkpt lat="44.12622" lon="5.81285">
        <ele>1432</ele>
        <time>2019-08-09T08:45:26Z</time>
      </trkpt>
      <trkpt lat="44.12619" lon="5.81288">
        <ele>1432</ele>
        <time>2019-08-09T08:45:27Z</time>
      </trkpt>
      <trkpt lat="44.12617" lon="5.81292">
        <ele>1432</ele>
        <time>2019-08-09T08:45:28Z</time>
      </trkpt>
      <trkpt lat="44.12615" lon="5.81295">
        <ele>1432</ele>
        <time>2019-08-09T08:45:29Z</time>
      </trkpt>
      <trkpt lat="44.12612" lon="5.81298">
        <ele>1432</ele>
        <time>2019-08-09T08:45:30Z</time>
      </trkpt>
      <trkpt lat="44.12609" lon="5.81301">
        <ele>1432</ele>
        <time>2019-08-09T08:45:31Z</time>
      </trkpt>
      <trkpt lat="44.12606" lon="5.81304">
        <ele>1431</ele>
        <time>2019-08-09T08:45:32Z</time>
      </trkpt>
      <trkpt lat="44.12604" lon="5.81307">
        <ele>1431</ele>
        <time>2019-08-09T08:45:33Z</time>
      </trkpt>
      <trkpt lat="44.12602" lon="5.8131">
        <ele>1430</ele>
        <time>2019-08-09T08:45:34Z</time>
      </trkpt>
      <trkpt lat="44.12601" lon="5.81312">
        <ele>1429</ele>
        <time>2019-08-09T08:45:35Z</time>
      </trkpt>
      <trkpt lat="44.126" lon="5.81315">
        <ele>1429</ele>
        <time>2019-08-09T08:45:36Z</time>
      </trkpt>
      <trkpt lat="44.12599" lon="5.81317">
        <ele>1429</ele>
        <time>2019-08-09T08:45:37Z</time>
      </trkpt>
      <trkpt lat="44.12597" lon="5.8132">
        <ele>1428</ele>
        <time>2019-08-09T08:45:38Z</time>
      </trkpt>
      <trkpt lat="44.12595" lon="5.81323">
        <ele>1428</ele>
        <time>2019-08-09T08:45:39Z</time>
      </trkpt>
      <trkpt lat="44.12592" lon="5.81326">
        <ele>1427</ele>
        <time>2019-08-09T08:45:40Z</time>
      </trkpt>
      <trkpt lat="44.1259" lon="5.81328">
        <ele>1427</ele>
        <time>2019-08-09T08:45:41Z</time>
      </trkpt>
      <trkpt lat="44.12589" lon="5.8133">
        <ele>1427</ele>
        <time>2019-08-09T08:45:42Z</time>
      </trkpt>
      <trkpt lat="44.12588" lon="5.81332">
        <ele>1427</ele>
        <time>2019-08-09T08:45:43Z</time>
      </trkpt>
      <trkpt lat="44.12586" lon="5.81334">
        <ele>1426</ele>
        <time>2019-08-09T08:45:44Z</time>
      </trkpt>
      <trkpt lat="44.12583" lon="5.81336">
        <ele>1426</ele>
        <time>2019-08-09T08:45:45Z</time>
      </trkpt>
      <trkpt lat="44.12579" lon="5.81339">
        <ele>1426</ele>
        <time>2019-08-09T08:45:46Z</time>
      </trkpt>
      <trkpt lat="44.12576" lon="5.81342">
        <ele>1425</ele>
        <time>2019-08-09T08:45:47Z</time>
      </trkpt>
      <trkpt lat="44.12572" lon="5.81347">
        <ele>1425</ele>
        <time>2019-08-09T08:45:49Z</time>
      </trkpt>
      <trkpt lat="44.12572" lon="5.8135">
        <ele>1424</ele>
        <time>2019-08-09T08:45:50Z</time>
      </trkpt>
      <trkpt lat="44.12569" lon="5.81352">
        <ele>1424</ele>
        <time>2019-08-09T08:45:51Z</time>
      </trkpt>
      <trkpt lat="44.12567" lon="5.81354">
        <ele>1423</ele>
        <time>2019-08-09T08:45:52Z</time>
      </trkpt>
      <trkpt lat="44.12564" lon="5.81356">
        <ele>1423</ele>
        <time>2019-08-09T08:45:53Z</time>
      </trkpt>
      <trkpt lat="44.12563" lon="5.81358">
        <ele>1423</ele>
        <time>2019-08-09T08:45:54Z</time>
      </trkpt>
      <trkpt lat="44.12561" lon="5.8136">
        <ele>1422</ele>
        <time>2019-08-09T08:45:55Z</time>
      </trkpt>
      <trkpt lat="44.12558" lon="5.81362">
        <ele>1422</ele>
        <time>2019-08-09T08:45:56Z</time>
      </trkpt>
      <trkpt lat="44.12556" lon="5.81369">
        <ele>1422</ele>
        <time>2019-08-09T08:45:59Z</time>
      </trkpt>
      <trkpt lat="44.12557" lon="5.81372">
        <ele>1422</ele>
        <time>2019-08-09T08:46:00Z</time>
      </trkpt>
      <trkpt lat="44.12554" lon="5.81376">
        <ele>1422</ele>
        <time>2019-08-09T08:46:01Z</time>
      </trkpt>
      <trkpt lat="44.12552" lon="5.81379">
        <ele>1422</ele>
        <time>2019-08-09T08:46:02Z</time>
      </trkpt>
      <trkpt lat="44.12551" lon="5.81382">
        <ele>1422</ele>
        <time>2019-08-09T08:46:03Z</time>
      </trkpt>
      <trkpt lat="44.12549" lon="5.81385">
        <ele>1422</ele>
        <time>2019-08-09T08:46:04Z</time>
      </trkpt>
      <trkpt lat="44.12543" lon="5.8139">
        <ele>1422</ele>
        <time>2019-08-09T08:46:06Z</time>
      </trkpt>
      <trkpt lat="44.12541" lon="5.81393">
        <ele>1422</ele>
        <time>2019-08-09T08:46:07Z</time>
      </trkpt>
      <trkpt lat="44.12539" lon="5.81396">
        <ele>1422</ele>
        <time>2019-08-09T08:46:08Z</time>
      </trkpt>
      <trkpt lat="44.12538" lon="5.81398">
        <ele>1422</ele>
        <time>2019-08-09T08:46:09Z</time>
      </trkpt>
      <trkpt lat="44.12537" lon="5.81401">
        <ele>1422</ele>
        <time>2019-08-09T08:46:10Z</time>
      </trkpt>
      <trkpt lat="44.12533" lon="5.81403">
        <ele>1422</ele>
        <time>2019-08-09T08:46:11Z</time>
      </trkpt>
      <trkpt lat="44.12531" lon="5.81405">
        <ele>1422</ele>
        <time>2019-08-09T08:46:12Z</time>
      </trkpt>
      <trkpt lat="44.12531" lon="5.81409">
        <ele>1422</ele>
        <time>2019-08-09T08:46:13Z</time>
      </trkpt>
      <trkpt lat="44.1253" lon="5.81411">
        <ele>1422</ele>
        <time>2019-08-09T08:46:14Z</time>
      </trkpt>
      <trkpt lat="44.12529" lon="5.81414">
        <ele>1422</ele>
        <time>2019-08-09T08:46:15Z</time>
      </trkpt>
      <trkpt lat="44.12531" lon="5.81416">
        <ele>1422</ele>
        <time>2019-08-09T08:46:16Z</time>
      </trkpt>
      <trkpt lat="44.12531" lon="5.81419">
        <ele>1422</ele>
        <time>2019-08-09T08:46:17Z</time>
      </trkpt>
      <trkpt lat="44.1253" lon="5.8142">
        <ele>1422</ele>
        <time>2019-08-09T08:46:18Z</time>
      </trkpt>
      <trkpt lat="44.12528" lon="5.81422">
        <ele>1422</ele>
        <time>2019-08-09T08:46:19Z</time>
      </trkpt>
      <trkpt lat="44.12528" lon="5.81424">
        <ele>1422</ele>
        <time>2019-08-09T08:46:20Z</time>
      </trkpt>
      <trkpt lat="44.12526" lon="5.81426">
        <ele>1423</ele>
        <time>2019-08-09T08:46:21Z</time>
      </trkpt>
      <trkpt lat="44.12523" lon="5.81429">
        <ele>1423</ele>
        <time>2019-08-09T08:46:22Z</time>
      </trkpt>
      <trkpt lat="44.12521" lon="5.81432">
        <ele>1423</ele>
        <time>2019-08-09T08:46:23Z</time>
      </trkpt>
      <trkpt lat="44.12518" lon="5.81434">
        <ele>1423</ele>
        <time>2019-08-09T08:46:24Z</time>
      </trkpt>
      <trkpt lat="44.12517" lon="5.81436">
        <ele>1423</ele>
        <time>2019-08-09T08:46:25Z</time>
      </trkpt>
      <trkpt lat="44.12515" lon="5.81438">
        <ele>1423</ele>
        <time>2019-08-09T08:46:26Z</time>
      </trkpt>
      <trkpt lat="44.12512" lon="5.8144">
        <ele>1423</ele>
        <time>2019-08-09T08:46:27Z</time>
      </trkpt>
      <trkpt lat="44.12511" lon="5.81442">
        <ele>1423</ele>
        <time>2019-08-09T08:46:28Z</time>
      </trkpt>
      <trkpt lat="44.1251" lon="5.81444">
        <ele>1423</ele>
        <time>2019-08-09T08:46:29Z</time>
      </trkpt>
      <trkpt lat="44.12511" lon="5.81448">
        <ele>1423</ele>
        <time>2019-08-09T08:46:31Z</time>
      </trkpt>
      <trkpt lat="44.12509" lon="5.8145">
        <ele>1423</ele>
        <time>2019-08-09T08:46:32Z</time>
      </trkpt>
      <trkpt lat="44.12508" lon="5.81453">
        <ele>1424</ele>
        <time>2019-08-09T08:46:33Z</time>
      </trkpt>
      <trkpt lat="44.12508" lon="5.81457">
        <ele>1425</ele>
        <time>2019-08-09T08:46:34Z</time>
      </trkpt>
      <trkpt lat="44.12505" lon="5.8146">
        <ele>1425</ele>
        <time>2019-08-09T08:46:35Z</time>
      </trkpt>
      <trkpt lat="44.12505" lon="5.81463">
        <ele>1426</ele>
        <time>2019-08-09T08:46:36Z</time>
      </trkpt>
      <trkpt lat="44.12504" lon="5.81466">
        <ele>1426</ele>
        <time>2019-08-09T08:46:37Z</time>
      </trkpt>
      <trkpt lat="44.12502" lon="5.81471">
        <ele>1427</ele>
        <time>2019-08-09T08:46:39Z</time>
      </trkpt>
      <trkpt lat="44.12501" lon="5.81474">
        <ele>1427</ele>
        <time>2019-08-09T08:46:40Z</time>
      </trkpt>
      <trkpt lat="44.12498" lon="5.81477">
        <ele>1427</ele>
        <time>2019-08-09T08:46:41Z</time>
      </trkpt>
      <trkpt lat="44.12495" lon="5.8148">
        <ele>1428</ele>
        <time>2019-08-09T08:46:42Z</time>
      </trkpt>
      <trkpt lat="44.12495" lon="5.81483">
        <ele>1428</ele>
        <time>2019-08-09T08:46:43Z</time>
      </trkpt>
      <trkpt lat="44.12494" lon="5.81486">
        <ele>1428</ele>
        <time>2019-08-09T08:46:44Z</time>
      </trkpt>
      <trkpt lat="44.12492" lon="5.81491">
        <ele>1428</ele>
        <time>2019-08-09T08:46:46Z</time>
      </trkpt>
      <trkpt lat="44.1249" lon="5.81494">
        <ele>1429</ele>
        <time>2019-08-09T08:46:47Z</time>
      </trkpt>
      <trkpt lat="44.12488" lon="5.81499">
        <ele>1429</ele>
        <time>2019-08-09T08:46:49Z</time>
      </trkpt>
      <trkpt lat="44.12486" lon="5.81502">
        <ele>1429</ele>
        <time>2019-08-09T08:46:50Z</time>
      </trkpt>
      <trkpt lat="44.12484" lon="5.81506">
        <ele>1430</ele>
        <time>2019-08-09T08:46:51Z</time>
      </trkpt>
      <trkpt lat="44.12482" lon="5.81509">
        <ele>1430</ele>
        <time>2019-08-09T08:46:52Z</time>
      </trkpt>
      <trkpt lat="44.12481" lon="5.81512">
        <ele>1430</ele>
        <time>2019-08-09T08:46:53Z</time>
      </trkpt>
      <trkpt lat="44.1248" lon="5.81516">
        <ele>1430</ele>
        <time>2019-08-09T08:46:54Z</time>
      </trkpt>
      <trkpt lat="44.12479" lon="5.81519">
        <ele>1430</ele>
        <time>2019-08-09T08:46:55Z</time>
      </trkpt>
      <trkpt lat="44.12477" lon="5.81522">
        <ele>1430</ele>
        <time>2019-08-09T08:46:56Z</time>
      </trkpt>
      <trkpt lat="44.12476" lon="5.81525">
        <ele>1430</ele>
        <time>2019-08-09T08:46:57Z</time>
      </trkpt>
      <trkpt lat="44.12474" lon="5.81527">
        <ele>1430</ele>
        <time>2019-08-09T08:46:58Z</time>
      </trkpt>
      <trkpt lat="44.12473" lon="5.81531">
        <ele>1430</ele>
        <time>2019-08-09T08:46:59Z</time>
      </trkpt>
      <trkpt lat="44.12471" lon="5.81533">
        <ele>1430</ele>
        <time>2019-08-09T08:47:00Z</time>
      </trkpt>
      <trkpt lat="44.1247" lon="5.81535">
        <ele>1430</ele>
        <time>2019-08-09T08:47:01Z</time>
      </trkpt>
      <trkpt lat="44.12469" lon="5.81539">
        <ele>1430</ele>
        <time>2019-08-09T08:47:02Z</time>
      </trkpt>
      <trkpt lat="44.12466" lon="5.81543">
        <ele>1430</ele>
        <time>2019-08-09T08:47:03Z</time>
      </trkpt>
      <trkpt lat="44.12465" lon="5.81546">
        <ele>1431</ele>
        <time>2019-08-09T08:47:04Z</time>
      </trkpt>
      <trkpt lat="44.12463" lon="5.81549">
        <ele>1431</ele>
        <time>2019-08-09T08:47:05Z</time>
      </trkpt>
      <trkpt lat="44.12462" lon="5.81552">
        <ele>1431</ele>
        <time>2019-08-09T08:47:06Z</time>
      </trkpt>
      <trkpt lat="44.12461" lon="5.81554">
        <ele>1431</ele>
        <time>2019-08-09T08:47:07Z</time>
      </trkpt>
      <trkpt lat="44.1246" lon="5.81557">
        <ele>1431</ele>
        <time>2019-08-09T08:47:08Z</time>
      </trkpt>
      <trkpt lat="44.1246" lon="5.81559">
        <ele>1431</ele>
        <time>2019-08-09T08:47:09Z</time>
      </trkpt>
      <trkpt lat="44.1246" lon="5.81562">
        <ele>1431</ele>
        <time>2019-08-09T08:47:10Z</time>
      </trkpt>
      <trkpt lat="44.12458" lon="5.81564">
        <ele>1431</ele>
        <time>2019-08-09T08:47:11Z</time>
      </trkpt>
      <trkpt lat="44.12456" lon="5.81567">
        <ele>1431</ele>
        <time>2019-08-09T08:47:12Z</time>
      </trkpt>
      <trkpt lat="44.12456" lon="5.81569">
        <ele>1432</ele>
        <time>2019-08-09T08:47:13Z</time>
      </trkpt>
      <trkpt lat="44.12455" lon="5.81572">
        <ele>1432</ele>
        <time>2019-08-09T08:47:14Z</time>
      </trkpt>
      <trkpt lat="44.12453" lon="5.81575">
        <ele>1432</ele>
        <time>2019-08-09T08:47:15Z</time>
      </trkpt>
      <trkpt lat="44.12453" lon="5.81578">
        <ele>1433</ele>
        <time>2019-08-09T08:47:16Z</time>
      </trkpt>
      <trkpt lat="44.12449" lon="5.81584">
        <ele>1433</ele>
        <time>2019-08-09T08:47:18Z</time>
      </trkpt>
      <trkpt lat="44.12447" lon="5.81586">
        <ele>1433</ele>
        <time>2019-08-09T08:47:19Z</time>
      </trkpt>
      <trkpt lat="44.12447" lon="5.81589">
        <ele>1433</ele>
        <time>2019-08-09T08:47:20Z</time>
      </trkpt>
      <trkpt lat="44.12445" lon="5.81591">
        <ele>1434</ele>
        <time>2019-08-09T08:47:21Z</time>
      </trkpt>
      <trkpt lat="44.12444" lon="5.81594">
        <ele>1434</ele>
        <time>2019-08-09T08:47:22Z</time>
      </trkpt>
      <trkpt lat="44.12443" lon="5.81597">
        <ele>1434</ele>
        <time>2019-08-09T08:47:23Z</time>
      </trkpt>
      <trkpt lat="44.12441" lon="5.816">
        <ele>1434</ele>
        <time>2019-08-09T08:47:24Z</time>
      </trkpt>
      <trkpt lat="44.12439" lon="5.81603">
        <ele>1434</ele>
        <time>2019-08-09T08:47:25Z</time>
      </trkpt>
      <trkpt lat="44.12437" lon="5.81606">
        <ele>1434</ele>
        <time>2019-08-09T08:47:26Z</time>
      </trkpt>
      <trkpt lat="44.12436" lon="5.81609">
        <ele>1434</ele>
        <time>2019-08-09T08:47:27Z</time>
      </trkpt>
      <trkpt lat="44.12431" lon="5.81619">
        <ele>1434</ele>
        <time>2019-08-09T08:47:30Z</time>
      </trkpt>
      <trkpt lat="44.12427" lon="5.81624">
        <ele>1434</ele>
        <time>2019-08-09T08:47:31Z</time>
      </trkpt>
      <trkpt lat="44.12427" lon="5.81628">
        <ele>1435</ele>
        <time>2019-08-09T08:47:32Z</time>
      </trkpt>
      <trkpt lat="44.12427" lon="5.81632">
        <ele>1435</ele>
        <time>2019-08-09T08:47:33Z</time>
      </trkpt>
      <trkpt lat="44.12426" lon="5.81636">
        <ele>1435</ele>
        <time>2019-08-09T08:47:34Z</time>
      </trkpt>
      <trkpt lat="44.12425" lon="5.8164">
        <ele>1435</ele>
        <time>2019-08-09T08:47:35Z</time>
      </trkpt>
      <trkpt lat="44.12425" lon="5.81643">
        <ele>1435</ele>
        <time>2019-08-09T08:47:36Z</time>
      </trkpt>
      <trkpt lat="44.12424" lon="5.81647">
        <ele>1435</ele>
        <time>2019-08-09T08:47:37Z</time>
      </trkpt>
      <trkpt lat="44.12423" lon="5.8165">
        <ele>1435</ele>
        <time>2019-08-09T08:47:38Z</time>
      </trkpt>
      <trkpt lat="44.12422" lon="5.81653">
        <ele>1435</ele>
        <time>2019-08-09T08:47:39Z</time>
      </trkpt>
      <trkpt lat="44.1242" lon="5.81657">
        <ele>1435</ele>
        <time>2019-08-09T08:47:40Z</time>
      </trkpt>
      <trkpt lat="44.12419" lon="5.8166">
        <ele>1435</ele>
        <time>2019-08-09T08:47:41Z</time>
      </trkpt>
      <trkpt lat="44.12417" lon="5.81663">
        <ele>1435</ele>
        <time>2019-08-09T08:47:42Z</time>
      </trkpt>
      <trkpt lat="44.12417" lon="5.81667">
        <ele>1435</ele>
        <time>2019-08-09T08:47:43Z</time>
      </trkpt>
      <trkpt lat="44.12418" lon="5.8167">
        <ele>1436</ele>
        <time>2019-08-09T08:47:44Z</time>
      </trkpt>
      <trkpt lat="44.12419" lon="5.81674">
        <ele>1436</ele>
        <time>2019-08-09T08:47:45Z</time>
      </trkpt>
      <trkpt lat="44.12419" lon="5.81678">
        <ele>1436</ele>
        <time>2019-08-09T08:47:46Z</time>
      </trkpt>
      <trkpt lat="44.12421" lon="5.81682">
        <ele>1437</ele>
        <time>2019-08-09T08:47:47Z</time>
      </trkpt>
      <trkpt lat="44.12418" lon="5.81686">
        <ele>1438</ele>
        <time>2019-08-09T08:47:48Z</time>
      </trkpt>
      <trkpt lat="44.12416" lon="5.8169">
        <ele>1439</ele>
        <time>2019-08-09T08:47:49Z</time>
      </trkpt>
      <trkpt lat="44.12416" lon="5.81693">
        <ele>1440</ele>
        <time>2019-08-09T08:47:50Z</time>
      </trkpt>
      <trkpt lat="44.12414" lon="5.81697">
        <ele>1441</ele>
        <time>2019-08-09T08:47:51Z</time>
      </trkpt>
      <trkpt lat="44.12414" lon="5.81699">
        <ele>1441</ele>
        <time>2019-08-09T08:47:52Z</time>
      </trkpt>
      <trkpt lat="44.12413" lon="5.81703">
        <ele>1441</ele>
        <time>2019-08-09T08:47:54Z</time>
      </trkpt>
      <trkpt lat="44.12414" lon="5.81705">
        <ele>1442</ele>
        <time>2019-08-09T08:47:55Z</time>
      </trkpt>
      <trkpt lat="44.12411" lon="5.81708">
        <ele>1443</ele>
        <time>2019-08-09T08:47:56Z</time>
      </trkpt>
      <trkpt lat="44.12409" lon="5.81711">
        <ele>1443</ele>
        <time>2019-08-09T08:47:57Z</time>
      </trkpt>
      <trkpt lat="44.12408" lon="5.81713">
        <ele>1444</ele>
        <time>2019-08-09T08:47:58Z</time>
      </trkpt>
      <trkpt lat="44.12405" lon="5.81715">
        <ele>1444</ele>
        <time>2019-08-09T08:47:59Z</time>
      </trkpt>
      <trkpt lat="44.12403" lon="5.81717">
        <ele>1444</ele>
        <time>2019-08-09T08:48:00Z</time>
      </trkpt>
      <trkpt lat="44.12402" lon="5.81719">
        <ele>1444</ele>
        <time>2019-08-09T08:48:01Z</time>
      </trkpt>
      <trkpt lat="44.124" lon="5.81721">
        <ele>1445</ele>
        <time>2019-08-09T08:48:02Z</time>
      </trkpt>
      <trkpt lat="44.12398" lon="5.81723">
        <ele>1445</ele>
        <time>2019-08-09T08:48:03Z</time>
      </trkpt>
      <trkpt lat="44.12397" lon="5.81725">
        <ele>1445</ele>
        <time>2019-08-09T08:48:04Z</time>
      </trkpt>
      <trkpt lat="44.12395" lon="5.81727">
        <ele>1445</ele>
        <time>2019-08-09T08:48:05Z</time>
      </trkpt>
      <trkpt lat="44.12391" lon="5.81729">
        <ele>1446</ele>
        <time>2019-08-09T08:48:06Z</time>
      </trkpt>
      <trkpt lat="44.1239" lon="5.81731">
        <ele>1446</ele>
        <time>2019-08-09T08:48:07Z</time>
      </trkpt>
      <trkpt lat="44.12389" lon="5.81733">
        <ele>1446</ele>
        <time>2019-08-09T08:48:08Z</time>
      </trkpt>
      <trkpt lat="44.12388" lon="5.81735">
        <ele>1446</ele>
        <time>2019-08-09T08:48:09Z</time>
      </trkpt>
      <trkpt lat="44.12386" lon="5.81737">
        <ele>1446</ele>
        <time>2019-08-09T08:48:10Z</time>
      </trkpt>
      <trkpt lat="44.12383" lon="5.81739">
        <ele>1447</ele>
        <time>2019-08-09T08:48:11Z</time>
      </trkpt>
      <trkpt lat="44.12381" lon="5.81741">
        <ele>1447</ele>
        <time>2019-08-09T08:48:12Z</time>
      </trkpt>
      <trkpt lat="44.1238" lon="5.81743">
        <ele>1447</ele>
        <time>2019-08-09T08:48:13Z</time>
      </trkpt>
      <trkpt lat="44.12378" lon="5.81745">
        <ele>1447</ele>
        <time>2019-08-09T08:48:14Z</time>
      </trkpt>
      <trkpt lat="44.12376" lon="5.81746">
        <ele>1448</ele>
        <time>2019-08-09T08:48:15Z</time>
      </trkpt>
      <trkpt lat="44.12375" lon="5.81748">
        <ele>1448</ele>
        <time>2019-08-09T08:48:16Z</time>
      </trkpt>
      <trkpt lat="44.12373" lon="5.8175">
        <ele>1448</ele>
        <time>2019-08-09T08:48:17Z</time>
      </trkpt>
      <trkpt lat="44.12371" lon="5.81751">
        <ele>1448</ele>
        <time>2019-08-09T08:48:18Z</time>
      </trkpt>
      <trkpt lat="44.12368" lon="5.81753">
        <ele>1448</ele>
        <time>2019-08-09T08:48:19Z</time>
      </trkpt>
      <trkpt lat="44.12366" lon="5.81755">
        <ele>1448</ele>
        <time>2019-08-09T08:48:21Z</time>
      </trkpt>
      <trkpt lat="44.12363" lon="5.81757">
        <ele>1448</ele>
        <time>2019-08-09T08:48:22Z</time>
      </trkpt>
      <trkpt lat="44.12358" lon="5.81758">
        <ele>1448</ele>
        <time>2019-08-09T08:48:23Z</time>
      </trkpt>
      <trkpt lat="44.12357" lon="5.81759">
        <ele>1448</ele>
        <time>2019-08-09T08:48:24Z</time>
      </trkpt>
      <trkpt lat="44.12355" lon="5.81761">
        <ele>1448</ele>
        <time>2019-08-09T08:48:25Z</time>
      </trkpt>
      <trkpt lat="44.12351" lon="5.81762">
        <ele>1448</ele>
        <time>2019-08-09T08:48:26Z</time>
      </trkpt>
      <trkpt lat="44.12349" lon="5.81764">
        <ele>1448</ele>
        <time>2019-08-09T08:48:28Z</time>
      </trkpt>
      <trkpt lat="44.12347" lon="5.81766">
        <ele>1448</ele>
        <time>2019-08-09T08:48:29Z</time>
      </trkpt>
      <trkpt lat="44.12344" lon="5.81768">
        <ele>1448</ele>
        <time>2019-08-09T08:48:30Z</time>
      </trkpt>
      <trkpt lat="44.1234" lon="5.81771">
        <ele>1448</ele>
        <time>2019-08-09T08:48:31Z</time>
      </trkpt>
      <trkpt lat="44.12337" lon="5.81773">
        <ele>1448</ele>
        <time>2019-08-09T08:48:32Z</time>
      </trkpt>
      <trkpt lat="44.12336" lon="5.81776">
        <ele>1448</ele>
        <time>2019-08-09T08:48:33Z</time>
      </trkpt>
      <trkpt lat="44.12335" lon="5.81778">
        <ele>1448</ele>
        <time>2019-08-09T08:48:34Z</time>
      </trkpt>
      <trkpt lat="44.12333" lon="5.8178">
        <ele>1448</ele>
        <time>2019-08-09T08:48:35Z</time>
      </trkpt>
      <trkpt lat="44.12331" lon="5.81783">
        <ele>1448</ele>
        <time>2019-08-09T08:48:36Z</time>
      </trkpt>
      <trkpt lat="44.12329" lon="5.81785">
        <ele>1448</ele>
        <time>2019-08-09T08:48:37Z</time>
      </trkpt>
      <trkpt lat="44.12327" lon="5.81788">
        <ele>1448</ele>
        <time>2019-08-09T08:48:38Z</time>
      </trkpt>
      <trkpt lat="44.12324" lon="5.81791">
        <ele>1448</ele>
        <time>2019-08-09T08:48:39Z</time>
      </trkpt>
      <trkpt lat="44.12324" lon="5.81793">
        <ele>1448</ele>
        <time>2019-08-09T08:48:40Z</time>
      </trkpt>
      <trkpt lat="44.12322" lon="5.81795">
        <ele>1448</ele>
        <time>2019-08-09T08:48:41Z</time>
      </trkpt>
      <trkpt lat="44.1232" lon="5.81798">
        <ele>1448</ele>
        <time>2019-08-09T08:48:42Z</time>
      </trkpt>
      <trkpt lat="44.12318" lon="5.81802">
        <ele>1448</ele>
        <time>2019-08-09T08:48:43Z</time>
      </trkpt>
      <trkpt lat="44.12316" lon="5.81805">
        <ele>1448</ele>
        <time>2019-08-09T08:48:44Z</time>
      </trkpt>
      <trkpt lat="44.12314" lon="5.81808">
        <ele>1448</ele>
        <time>2019-08-09T08:48:45Z</time>
      </trkpt>
      <trkpt lat="44.12312" lon="5.81811">
        <ele>1448</ele>
        <time>2019-08-09T08:48:46Z</time>
      </trkpt>
      <trkpt lat="44.1231" lon="5.81814">
        <ele>1448</ele>
        <time>2019-08-09T08:48:47Z</time>
      </trkpt>
      <trkpt lat="44.12309" lon="5.81817">
        <ele>1448</ele>
        <time>2019-08-09T08:48:48Z</time>
      </trkpt>
      <trkpt lat="44.12306" lon="5.81819">
        <ele>1448</ele>
        <time>2019-08-09T08:48:49Z</time>
      </trkpt>
      <trkpt lat="44.12305" lon="5.81821">
        <ele>1448</ele>
        <time>2019-08-09T08:48:50Z</time>
      </trkpt>
      <trkpt lat="44.12304" lon="5.81823">
        <ele>1448</ele>
        <time>2019-08-09T08:48:51Z</time>
      </trkpt>
      <trkpt lat="44.12302" lon="5.81826">
        <ele>1448</ele>
        <time>2019-08-09T08:48:52Z</time>
      </trkpt>
      <trkpt lat="44.12302" lon="5.81829">
        <ele>1448</ele>
        <time>2019-08-09T08:48:53Z</time>
      </trkpt>
      <trkpt lat="44.123" lon="5.81832">
        <ele>1448</ele>
        <time>2019-08-09T08:48:54Z</time>
      </trkpt>
      <trkpt lat="44.12299" lon="5.81834">
        <ele>1448</ele>
        <time>2019-08-09T08:48:55Z</time>
      </trkpt>
      <trkpt lat="44.12296" lon="5.81837">
        <ele>1448</ele>
        <time>2019-08-09T08:48:56Z</time>
      </trkpt>
      <trkpt lat="44.12292" lon="5.81839">
        <ele>1448</ele>
        <time>2019-08-09T08:48:57Z</time>
      </trkpt>
      <trkpt lat="44.12289" lon="5.81842">
        <ele>1448</ele>
        <time>2019-08-09T08:48:58Z</time>
      </trkpt>
      <trkpt lat="44.12287" lon="5.81844">
        <ele>1448</ele>
        <time>2019-08-09T08:48:59Z</time>
      </trkpt>
      <trkpt lat="44.12286" lon="5.81846">
        <ele>1448</ele>
        <time>2019-08-09T08:49:00Z</time>
      </trkpt>
      <trkpt lat="44.12285" lon="5.81849">
        <ele>1448</ele>
        <time>2019-08-09T08:49:01Z</time>
      </trkpt>
      <trkpt lat="44.12283" lon="5.81852">
        <ele>1448</ele>
        <time>2019-08-09T08:49:02Z</time>
      </trkpt>
      <trkpt lat="44.12281" lon="5.81854">
        <ele>1448</ele>
        <time>2019-08-09T08:49:03Z</time>
      </trkpt>
      <trkpt lat="44.1228" lon="5.81856">
        <ele>1448</ele>
        <time>2019-08-09T08:49:04Z</time>
      </trkpt>
      <trkpt lat="44.1228" lon="5.81858">
        <ele>1448</ele>
        <time>2019-08-09T08:49:05Z</time>
      </trkpt>
      <trkpt lat="44.12278" lon="5.8186">
        <ele>1448</ele>
        <time>2019-08-09T08:49:06Z</time>
      </trkpt>
      <trkpt lat="44.12278" lon="5.81862">
        <ele>1448</ele>
        <time>2019-08-09T08:49:07Z</time>
      </trkpt>
      <trkpt lat="44.12276" lon="5.81865">
        <ele>1448</ele>
        <time>2019-08-09T08:49:08Z</time>
      </trkpt>
      <trkpt lat="44.12274" lon="5.81868">
        <ele>1448</ele>
        <time>2019-08-09T08:49:09Z</time>
      </trkpt>
      <trkpt lat="44.12272" lon="5.81871">
        <ele>1448</ele>
        <time>2019-08-09T08:49:10Z</time>
      </trkpt>
      <trkpt lat="44.12272" lon="5.81873">
        <ele>1448</ele>
        <time>2019-08-09T08:49:11Z</time>
      </trkpt>
      <trkpt lat="44.1227" lon="5.81875">
        <ele>1448</ele>
        <time>2019-08-09T08:49:12Z</time>
      </trkpt>
      <trkpt lat="44.12269" lon="5.81877">
        <ele>1448</ele>
        <time>2019-08-09T08:49:13Z</time>
      </trkpt>
      <trkpt lat="44.12266" lon="5.8188">
        <ele>1448</ele>
        <time>2019-08-09T08:49:14Z</time>
      </trkpt>
      <trkpt lat="44.12265" lon="5.81882">
        <ele>1448</ele>
        <time>2019-08-09T08:49:15Z</time>
      </trkpt>
      <trkpt lat="44.12265" lon="5.81884">
        <ele>1448</ele>
        <time>2019-08-09T08:49:16Z</time>
      </trkpt>
      <trkpt lat="44.12265" lon="5.81886">
        <ele>1449</ele>
        <time>2019-08-09T08:49:17Z</time>
      </trkpt>
      <trkpt lat="44.12262" lon="5.81889">
        <ele>1449</ele>
        <time>2019-08-09T08:49:18Z</time>
      </trkpt>
      <trkpt lat="44.12258" lon="5.81892">
        <ele>1449</ele>
        <time>2019-08-09T08:49:19Z</time>
      </trkpt>
      <trkpt lat="44.12254" lon="5.81895">
        <ele>1449</ele>
        <time>2019-08-09T08:49:20Z</time>
      </trkpt>
      <trkpt lat="44.12252" lon="5.81898">
        <ele>1449</ele>
        <time>2019-08-09T08:49:21Z</time>
      </trkpt>
      <trkpt lat="44.1225" lon="5.81901">
        <ele>1449</ele>
        <time>2019-08-09T08:49:22Z</time>
      </trkpt>
      <trkpt lat="44.12249" lon="5.81903">
        <ele>1449</ele>
        <time>2019-08-09T08:49:23Z</time>
      </trkpt>
      <trkpt lat="44.12247" lon="5.81905">
        <ele>1449</ele>
        <time>2019-08-09T08:49:24Z</time>
      </trkpt>
      <trkpt lat="44.12244" lon="5.81908">
        <ele>1449</ele>
        <time>2019-08-09T08:49:25Z</time>
      </trkpt>
      <trkpt lat="44.12243" lon="5.81911">
        <ele>1449</ele>
        <time>2019-08-09T08:49:26Z</time>
      </trkpt>
      <trkpt lat="44.12243" lon="5.81913">
        <ele>1450</ele>
        <time>2019-08-09T08:49:27Z</time>
      </trkpt>
      <trkpt lat="44.12242" lon="5.81915">
        <ele>1450</ele>
        <time>2019-08-09T08:49:28Z</time>
      </trkpt>
      <trkpt lat="44.1224" lon="5.81917">
        <ele>1450</ele>
        <time>2019-08-09T08:49:29Z</time>
      </trkpt>
      <trkpt lat="44.12237" lon="5.81919">
        <ele>1450</ele>
        <time>2019-08-09T08:49:30Z</time>
      </trkpt>
      <trkpt lat="44.12237" lon="5.81922">
        <ele>1451</ele>
        <time>2019-08-09T08:49:31Z</time>
      </trkpt>
      <trkpt lat="44.12238" lon="5.81923">
        <ele>1451</ele>
        <time>2019-08-09T08:49:32Z</time>
      </trkpt>
      <trkpt lat="44.12235" lon="5.81926">
        <ele>1452</ele>
        <time>2019-08-09T08:49:33Z</time>
      </trkpt>
      <trkpt lat="44.12233" lon="5.81929">
        <ele>1452</ele>
        <time>2019-08-09T08:49:34Z</time>
      </trkpt>
      <trkpt lat="44.12234" lon="5.81931">
        <ele>1453</ele>
        <time>2019-08-09T08:49:35Z</time>
      </trkpt>
      <trkpt lat="44.12234" lon="5.81935">
        <ele>1453</ele>
        <time>2019-08-09T08:49:36Z</time>
      </trkpt>
      <trkpt lat="44.12233" lon="5.81938">
        <ele>1454</ele>
        <time>2019-08-09T08:49:37Z</time>
      </trkpt>
      <trkpt lat="44.1223" lon="5.81941">
        <ele>1455</ele>
        <time>2019-08-09T08:49:38Z</time>
      </trkpt>
      <trkpt lat="44.12228" lon="5.81943">
        <ele>1456</ele>
        <time>2019-08-09T08:49:39Z</time>
      </trkpt>
      <trkpt lat="44.12228" lon="5.81946">
        <ele>1457</ele>
        <time>2019-08-09T08:49:40Z</time>
      </trkpt>
      <trkpt lat="44.12229" lon="5.8195">
        <ele>1458</ele>
        <time>2019-08-09T08:49:41Z</time>
      </trkpt>
      <trkpt lat="44.12231" lon="5.81953">
        <ele>1459</ele>
        <time>2019-08-09T08:49:42Z</time>
      </trkpt>
      <trkpt lat="44.1223" lon="5.81956">
        <ele>1460</ele>
        <time>2019-08-09T08:49:43Z</time>
      </trkpt>
      <trkpt lat="44.12229" lon="5.81959">
        <ele>1461</ele>
        <time>2019-08-09T08:49:44Z</time>
      </trkpt>
      <trkpt lat="44.12228" lon="5.81961">
        <ele>1462</ele>
        <time>2019-08-09T08:49:45Z</time>
      </trkpt>
      <trkpt lat="44.12226" lon="5.81963">
        <ele>1463</ele>
        <time>2019-08-09T08:49:46Z</time>
      </trkpt>
      <trkpt lat="44.12226" lon="5.81965">
        <ele>1463</ele>
        <time>2019-08-09T08:49:47Z</time>
      </trkpt>
      <trkpt lat="44.12225" lon="5.81967">
        <ele>1464</ele>
        <time>2019-08-09T08:49:48Z</time>
      </trkpt>
      <trkpt lat="44.12223" lon="5.8197">
        <ele>1465</ele>
        <time>2019-08-09T08:49:49Z</time>
      </trkpt>
      <trkpt lat="44.12224" lon="5.81972">
        <ele>1465</ele>
        <time>2019-08-09T08:49:50Z</time>
      </trkpt>
      <trkpt lat="44.12224" lon="5.81973">
        <ele>1466</ele>
        <time>2019-08-09T08:49:51Z</time>
      </trkpt>
      <trkpt lat="44.12223" lon="5.81976">
        <ele>1466</ele>
        <time>2019-08-09T08:49:52Z</time>
      </trkpt>
      <trkpt lat="44.12222" lon="5.81977">
        <ele>1467</ele>
        <time>2019-08-09T08:49:53Z</time>
      </trkpt>
      <trkpt lat="44.12219" lon="5.8198">
        <ele>1467</ele>
        <time>2019-08-09T08:49:54Z</time>
      </trkpt>
      <trkpt lat="44.12218" lon="5.81982">
        <ele>1468</ele>
        <time>2019-08-09T08:49:55Z</time>
      </trkpt>
      <trkpt lat="44.12217" lon="5.81984">
        <ele>1468</ele>
        <time>2019-08-09T08:49:56Z</time>
      </trkpt>
      <trkpt lat="44.12216" lon="5.81986">
        <ele>1468</ele>
        <time>2019-08-09T08:49:57Z</time>
      </trkpt>
      <trkpt lat="44.12215" lon="5.81988">
        <ele>1468</ele>
        <time>2019-08-09T08:49:58Z</time>
      </trkpt>
      <trkpt lat="44.12213" lon="5.81989">
        <ele>1469</ele>
        <time>2019-08-09T08:49:59Z</time>
      </trkpt>
      <trkpt lat="44.12212" lon="5.8199">
        <ele>1469</ele>
        <time>2019-08-09T08:50:00Z</time>
      </trkpt>
      <trkpt lat="44.1221" lon="5.81992">
        <ele>1469</ele>
        <time>2019-08-09T08:50:01Z</time>
      </trkpt>
      <trkpt lat="44.12209" lon="5.81993">
        <ele>1469</ele>
        <time>2019-08-09T08:50:02Z</time>
      </trkpt>
      <trkpt lat="44.12207" lon="5.81995">
        <ele>1470</ele>
        <time>2019-08-09T08:50:03Z</time>
      </trkpt>
      <trkpt lat="44.12204" lon="5.81997">
        <ele>1470</ele>
        <time>2019-08-09T08:50:04Z</time>
      </trkpt>
      <trkpt lat="44.12202" lon="5.81999">
        <ele>1470</ele>
        <time>2019-08-09T08:50:05Z</time>
      </trkpt>
      <trkpt lat="44.12199" lon="5.82002">
        <ele>1470</ele>
        <time>2019-08-09T08:50:07Z</time>
      </trkpt>
      <trkpt lat="44.12197" lon="5.82004">
        <ele>1470</ele>
        <time>2019-08-09T08:50:08Z</time>
      </trkpt>
      <trkpt lat="44.12194" lon="5.82006">
        <ele>1470</ele>
        <time>2019-08-09T08:50:09Z</time>
      </trkpt>
      <trkpt lat="44.12191" lon="5.82007">
        <ele>1470</ele>
        <time>2019-08-09T08:50:10Z</time>
      </trkpt>
      <trkpt lat="44.1219" lon="5.82008">
        <ele>1470</ele>
        <time>2019-08-09T08:50:11Z</time>
      </trkpt>
      <trkpt lat="44.12187" lon="5.82009">
        <ele>1470</ele>
        <time>2019-08-09T08:50:12Z</time>
      </trkpt>
      <trkpt lat="44.12183" lon="5.82012">
        <ele>1470</ele>
        <time>2019-08-09T08:50:13Z</time>
      </trkpt>
      <trkpt lat="44.12181" lon="5.82014">
        <ele>1470</ele>
        <time>2019-08-09T08:50:14Z</time>
      </trkpt>
      <trkpt lat="44.12176" lon="5.82017">
        <ele>1470</ele>
        <time>2019-08-09T08:50:15Z</time>
      </trkpt>
      <trkpt lat="44.12173" lon="5.82019">
        <ele>1470</ele>
        <time>2019-08-09T08:50:16Z</time>
      </trkpt>
      <trkpt lat="44.12172" lon="5.82021">
        <ele>1470</ele>
        <time>2019-08-09T08:50:17Z</time>
      </trkpt>
      <trkpt lat="44.1217" lon="5.82023">
        <ele>1470</ele>
        <time>2019-08-09T08:50:18Z</time>
      </trkpt>
      <trkpt lat="44.12168" lon="5.82025">
        <ele>1470</ele>
        <time>2019-08-09T08:50:19Z</time>
      </trkpt>
      <trkpt lat="44.12166" lon="5.82027">
        <ele>1470</ele>
        <time>2019-08-09T08:50:20Z</time>
      </trkpt>
      <trkpt lat="44.12167" lon="5.82029">
        <ele>1470</ele>
        <time>2019-08-09T08:50:21Z</time>
      </trkpt>
      <trkpt lat="44.12167" lon="5.82031">
        <ele>1470</ele>
        <time>2019-08-09T08:50:22Z</time>
      </trkpt>
      <trkpt lat="44.12165" lon="5.82034">
        <ele>1470</ele>
        <time>2019-08-09T08:50:23Z</time>
      </trkpt>
      <trkpt lat="44.12165" lon="5.82036">
        <ele>1470</ele>
        <time>2019-08-09T08:50:24Z</time>
      </trkpt>
      <trkpt lat="44.12163" lon="5.82039">
        <ele>1470</ele>
        <time>2019-08-09T08:50:25Z</time>
      </trkpt>
      <trkpt lat="44.12163" lon="5.82041">
        <ele>1470</ele>
        <time>2019-08-09T08:50:26Z</time>
      </trkpt>
      <trkpt lat="44.1216" lon="5.82043">
        <ele>1470</ele>
        <time>2019-08-09T08:50:27Z</time>
      </trkpt>
      <trkpt lat="44.12157" lon="5.82046">
        <ele>1470</ele>
        <time>2019-08-09T08:50:28Z</time>
      </trkpt>
      <trkpt lat="44.12157" lon="5.82048">
        <ele>1470</ele>
        <time>2019-08-09T08:50:29Z</time>
      </trkpt>
      <trkpt lat="44.12156" lon="5.82055">
        <ele>1471</ele>
        <time>2019-08-09T08:50:32Z</time>
      </trkpt>
      <trkpt lat="44.12153" lon="5.82058">
        <ele>1471</ele>
        <time>2019-08-09T08:50:34Z</time>
      </trkpt>
      <trkpt lat="44.12151" lon="5.8206">
        <ele>1471</ele>
        <time>2019-08-09T08:50:35Z</time>
      </trkpt>
      <trkpt lat="44.12149" lon="5.82063">
        <ele>1472</ele>
        <time>2019-08-09T08:50:36Z</time>
      </trkpt>
      <trkpt lat="44.12148" lon="5.82065">
        <ele>1472</ele>
        <time>2019-08-09T08:50:37Z</time>
      </trkpt>
      <trkpt lat="44.12148" lon="5.82066">
        <ele>1472</ele>
        <time>2019-08-09T08:50:38Z</time>
      </trkpt>
      <trkpt lat="44.12145" lon="5.82068">
        <ele>1472</ele>
        <time>2019-08-09T08:50:39Z</time>
      </trkpt>
      <trkpt lat="44.12143" lon="5.8207">
        <ele>1472</ele>
        <time>2019-08-09T08:50:40Z</time>
      </trkpt>
      <trkpt lat="44.12143" lon="5.82072">
        <ele>1472</ele>
        <time>2019-08-09T08:50:41Z</time>
      </trkpt>
      <trkpt lat="44.12143" lon="5.82073">
        <ele>1472</ele>
        <time>2019-08-09T08:50:42Z</time>
      </trkpt>
      <trkpt lat="44.12141" lon="5.82075">
        <ele>1472</ele>
        <time>2019-08-09T08:50:43Z</time>
      </trkpt>
      <trkpt lat="44.12139" lon="5.82077">
        <ele>1473</ele>
        <time>2019-08-09T08:50:44Z</time>
      </trkpt>
      <trkpt lat="44.12138" lon="5.82079">
        <ele>1473</ele>
        <time>2019-08-09T08:50:45Z</time>
      </trkpt>
      <trkpt lat="44.12136" lon="5.82081">
        <ele>1473</ele>
        <time>2019-08-09T08:50:46Z</time>
      </trkpt>
      <trkpt lat="44.12135" lon="5.82082">
        <ele>1473</ele>
        <time>2019-08-09T08:50:47Z</time>
      </trkpt>
      <trkpt lat="44.12133" lon="5.82085">
        <ele>1474</ele>
        <time>2019-08-09T08:50:49Z</time>
      </trkpt>
      <trkpt lat="44.12131" lon="5.82087">
        <ele>1474</ele>
        <time>2019-08-09T08:50:50Z</time>
      </trkpt>
      <trkpt lat="44.12129" lon="5.82089">
        <ele>1474</ele>
        <time>2019-08-09T08:50:51Z</time>
      </trkpt>
      <trkpt lat="44.12127" lon="5.82091">
        <ele>1474</ele>
        <time>2019-08-09T08:50:52Z</time>
      </trkpt>
      <trkpt lat="44.12126" lon="5.82093">
        <ele>1474</ele>
        <time>2019-08-09T08:50:53Z</time>
      </trkpt>
      <trkpt lat="44.12124" lon="5.82094">
        <ele>1474</ele>
        <time>2019-08-09T08:50:54Z</time>
      </trkpt>
      <trkpt lat="44.12123" lon="5.82096">
        <ele>1474</ele>
        <time>2019-08-09T08:50:55Z</time>
      </trkpt>
      <trkpt lat="44.12123" lon="5.821">
        <ele>1475</ele>
        <time>2019-08-09T08:50:57Z</time>
      </trkpt>
      <trkpt lat="44.1212" lon="5.82102">
        <ele>1475</ele>
        <time>2019-08-09T08:50:58Z</time>
      </trkpt>
      <trkpt lat="44.12117" lon="5.82105">
        <ele>1475</ele>
        <time>2019-08-09T08:50:59Z</time>
      </trkpt>
      <trkpt lat="44.12115" lon="5.82107">
        <ele>1476</ele>
        <time>2019-08-09T08:51:00Z</time>
      </trkpt>
      <trkpt lat="44.12113" lon="5.8211">
        <ele>1476</ele>
        <time>2019-08-09T08:51:01Z</time>
      </trkpt>
      <trkpt lat="44.1211" lon="5.82113">
        <ele>1476</ele>
        <time>2019-08-09T08:51:02Z</time>
      </trkpt>
      <trkpt lat="44.12108" lon="5.82115">
        <ele>1476</ele>
        <time>2019-08-09T08:51:03Z</time>
      </trkpt>
      <trkpt lat="44.12105" lon="5.82117">
        <ele>1477</ele>
        <time>2019-08-09T08:51:04Z</time>
      </trkpt>
      <trkpt lat="44.12103" lon="5.82119">
        <ele>1477</ele>
        <time>2019-08-09T08:51:05Z</time>
      </trkpt>
      <trkpt lat="44.12103" lon="5.82121">
        <ele>1477</ele>
        <time>2019-08-09T08:51:06Z</time>
      </trkpt>
      <trkpt lat="44.12101" lon="5.82124">
        <ele>1477</ele>
        <time>2019-08-09T08:51:07Z</time>
      </trkpt>
      <trkpt lat="44.12101" lon="5.82127">
        <ele>1477</ele>
        <time>2019-08-09T08:51:09Z</time>
      </trkpt>
      <trkpt lat="44.12102" lon="5.82129">
        <ele>1477</ele>
        <time>2019-08-09T08:51:10Z</time>
      </trkpt>
      <trkpt lat="44.12099" lon="5.82132">
        <ele>1477</ele>
        <time>2019-08-09T08:51:11Z</time>
      </trkpt>
      <trkpt lat="44.12099" lon="5.82139">
        <ele>1478</ele>
        <time>2019-08-09T08:51:14Z</time>
      </trkpt>
      <trkpt lat="44.12098" lon="5.82142">
        <ele>1478</ele>
        <time>2019-08-09T08:51:15Z</time>
      </trkpt>
      <trkpt lat="44.12097" lon="5.82144">
        <ele>1479</ele>
        <time>2019-08-09T08:51:16Z</time>
      </trkpt>
      <trkpt lat="44.12094" lon="5.82147">
        <ele>1479</ele>
        <time>2019-08-09T08:51:17Z</time>
      </trkpt>
      <trkpt lat="44.12092" lon="5.8215">
        <ele>1480</ele>
        <time>2019-08-09T08:51:18Z</time>
      </trkpt>
      <trkpt lat="44.12091" lon="5.82153">
        <ele>1480</ele>
        <time>2019-08-09T08:51:19Z</time>
      </trkpt>
      <trkpt lat="44.1209" lon="5.82156">
        <ele>1481</ele>
        <time>2019-08-09T08:51:20Z</time>
      </trkpt>
      <trkpt lat="44.12088" lon="5.82158">
        <ele>1481</ele>
        <time>2019-08-09T08:51:21Z</time>
      </trkpt>
      <trkpt lat="44.12086" lon="5.82161">
        <ele>1481</ele>
        <time>2019-08-09T08:51:22Z</time>
      </trkpt>
      <trkpt lat="44.12085" lon="5.82164">
        <ele>1481</ele>
        <time>2019-08-09T08:51:23Z</time>
      </trkpt>
      <trkpt lat="44.12084" lon="5.82167">
        <ele>1482</ele>
        <time>2019-08-09T08:51:24Z</time>
      </trkpt>
      <trkpt lat="44.12083" lon="5.82169">
        <ele>1482</ele>
        <time>2019-08-09T08:51:25Z</time>
      </trkpt>
      <trkpt lat="44.12083" lon="5.82172">
        <ele>1482</ele>
        <time>2019-08-09T08:51:26Z</time>
      </trkpt>
      <trkpt lat="44.12082" lon="5.82175">
        <ele>1482</ele>
        <time>2019-08-09T08:51:27Z</time>
      </trkpt>
      <trkpt lat="44.12082" lon="5.82178">
        <ele>1482</ele>
        <time>2019-08-09T08:51:28Z</time>
      </trkpt>
      <trkpt lat="44.12081" lon="5.82181">
        <ele>1483</ele>
        <time>2019-08-09T08:51:29Z</time>
      </trkpt>
      <trkpt lat="44.1208" lon="5.82184">
        <ele>1483</ele>
        <time>2019-08-09T08:51:30Z</time>
      </trkpt>
      <trkpt lat="44.12078" lon="5.82187">
        <ele>1483</ele>
        <time>2019-08-09T08:51:31Z</time>
      </trkpt>
      <trkpt lat="44.12077" lon="5.8219">
        <ele>1483</ele>
        <time>2019-08-09T08:51:32Z</time>
      </trkpt>
      <trkpt lat="44.12076" lon="5.82194">
        <ele>1483</ele>
        <time>2019-08-09T08:51:33Z</time>
      </trkpt>
      <trkpt lat="44.12075" lon="5.82197">
        <ele>1484</ele>
        <time>2019-08-09T08:51:34Z</time>
      </trkpt>
      <trkpt lat="44.12074" lon="5.82199">
        <ele>1484</ele>
        <time>2019-08-09T08:51:35Z</time>
      </trkpt>
      <trkpt lat="44.12074" lon="5.82202">
        <ele>1484</ele>
        <time>2019-08-09T08:51:36Z</time>
      </trkpt>
      <trkpt lat="44.12074" lon="5.82204">
        <ele>1484</ele>
        <time>2019-08-09T08:51:37Z</time>
      </trkpt>
      <trkpt lat="44.12074" lon="5.82207">
        <ele>1485</ele>
        <time>2019-08-09T08:51:38Z</time>
      </trkpt>
      <trkpt lat="44.12073" lon="5.8221">
        <ele>1485</ele>
        <time>2019-08-09T08:51:39Z</time>
      </trkpt>
      <trkpt lat="44.12073" lon="5.82213">
        <ele>1486</ele>
        <time>2019-08-09T08:51:40Z</time>
      </trkpt>
      <trkpt lat="44.1207" lon="5.82216">
        <ele>1486</ele>
        <time>2019-08-09T08:51:41Z</time>
      </trkpt>
      <trkpt lat="44.12068" lon="5.82219">
        <ele>1486</ele>
        <time>2019-08-09T08:51:42Z</time>
      </trkpt>
      <trkpt lat="44.12066" lon="5.82222">
        <ele>1486</ele>
        <time>2019-08-09T08:51:43Z</time>
      </trkpt>
      <trkpt lat="44.12064" lon="5.82226">
        <ele>1487</ele>
        <time>2019-08-09T08:51:44Z</time>
      </trkpt>
      <trkpt lat="44.12064" lon="5.82228">
        <ele>1487</ele>
        <time>2019-08-09T08:51:45Z</time>
      </trkpt>
      <trkpt lat="44.12063" lon="5.82231">
        <ele>1487</ele>
        <time>2019-08-09T08:51:46Z</time>
      </trkpt>
      <trkpt lat="44.12062" lon="5.82233">
        <ele>1487</ele>
        <time>2019-08-09T08:51:47Z</time>
      </trkpt>
      <trkpt lat="44.1206" lon="5.82237">
        <ele>1487</ele>
        <time>2019-08-09T08:51:48Z</time>
      </trkpt>
      <trkpt lat="44.12058" lon="5.82239">
        <ele>1487</ele>
        <time>2019-08-09T08:51:49Z</time>
      </trkpt>
      <trkpt lat="44.12057" lon="5.82242">
        <ele>1488</ele>
        <time>2019-08-09T08:51:50Z</time>
      </trkpt>
      <trkpt lat="44.12055" lon="5.82245">
        <ele>1488</ele>
        <time>2019-08-09T08:51:51Z</time>
      </trkpt>
      <trkpt lat="44.12055" lon="5.82247">
        <ele>1488</ele>
        <time>2019-08-09T08:51:52Z</time>
      </trkpt>
      <trkpt lat="44.12056" lon="5.82248">
        <ele>1488</ele>
        <time>2019-08-09T08:51:53Z</time>
      </trkpt>
      <trkpt lat="44.12055" lon="5.82251">
        <ele>1489</ele>
        <time>2019-08-09T08:51:54Z</time>
      </trkpt>
      <trkpt lat="44.12054" lon="5.82253">
        <ele>1489</ele>
        <time>2019-08-09T08:51:55Z</time>
      </trkpt>
      <trkpt lat="44.12053" lon="5.82259">
        <ele>1489</ele>
        <time>2019-08-09T08:51:58Z</time>
      </trkpt>
      <trkpt lat="44.12053" lon="5.82261">
        <ele>1489</ele>
        <time>2019-08-09T08:51:59Z</time>
      </trkpt>
      <trkpt lat="44.12051" lon="5.82263">
        <ele>1490</ele>
        <time>2019-08-09T08:52:00Z</time>
      </trkpt>
      <trkpt lat="44.12049" lon="5.82266">
        <ele>1490</ele>
        <time>2019-08-09T08:52:01Z</time>
      </trkpt>
      <trkpt lat="44.12049" lon="5.82268">
        <ele>1491</ele>
        <time>2019-08-09T08:52:02Z</time>
      </trkpt>
      <trkpt lat="44.12047" lon="5.82271">
        <ele>1491</ele>
        <time>2019-08-09T08:52:03Z</time>
      </trkpt>
      <trkpt lat="44.12043" lon="5.82274">
        <ele>1491</ele>
        <time>2019-08-09T08:52:04Z</time>
      </trkpt>
      <trkpt lat="44.12042" lon="5.82276">
        <ele>1492</ele>
        <time>2019-08-09T08:52:05Z</time>
      </trkpt>
      <trkpt lat="44.12042" lon="5.82279">
        <ele>1492</ele>
        <time>2019-08-09T08:52:06Z</time>
      </trkpt>
      <trkpt lat="44.1204" lon="5.82281">
        <ele>1492</ele>
        <time>2019-08-09T08:52:07Z</time>
      </trkpt>
      <trkpt lat="44.12038" lon="5.82284">
        <ele>1492</ele>
        <time>2019-08-09T08:52:08Z</time>
      </trkpt>
      <trkpt lat="44.12038" lon="5.82287">
        <ele>1493</ele>
        <time>2019-08-09T08:52:09Z</time>
      </trkpt>
      <trkpt lat="44.12037" lon="5.8229">
        <ele>1493</ele>
        <time>2019-08-09T08:52:10Z</time>
      </trkpt>
      <trkpt lat="44.12036" lon="5.82293">
        <ele>1493</ele>
        <time>2019-08-09T08:52:11Z</time>
      </trkpt>
      <trkpt lat="44.12035" lon="5.82296">
        <ele>1493</ele>
        <time>2019-08-09T08:52:12Z</time>
      </trkpt>
      <trkpt lat="44.12034" lon="5.82299">
        <ele>1493</ele>
        <time>2019-08-09T08:52:13Z</time>
      </trkpt>
      <trkpt lat="44.12033" lon="5.82302">
        <ele>1493</ele>
        <time>2019-08-09T08:52:14Z</time>
      </trkpt>
      <trkpt lat="44.12033" lon="5.82305">
        <ele>1493</ele>
        <time>2019-08-09T08:52:15Z</time>
      </trkpt>
      <trkpt lat="44.12032" lon="5.82308">
        <ele>1493</ele>
        <time>2019-08-09T08:52:16Z</time>
      </trkpt>
      <trkpt lat="44.12031" lon="5.82311">
        <ele>1493</ele>
        <time>2019-08-09T08:52:17Z</time>
      </trkpt>
      <trkpt lat="44.1203" lon="5.82314">
        <ele>1493</ele>
        <time>2019-08-09T08:52:18Z</time>
      </trkpt>
      <trkpt lat="44.1203" lon="5.82316">
        <ele>1494</ele>
        <time>2019-08-09T08:52:19Z</time>
      </trkpt>
      <trkpt lat="44.1203" lon="5.82318">
        <ele>1494</ele>
        <time>2019-08-09T08:52:20Z</time>
      </trkpt>
      <trkpt lat="44.12029" lon="5.82323">
        <ele>1494</ele>
        <time>2019-08-09T08:52:22Z</time>
      </trkpt>
      <trkpt lat="44.12028" lon="5.82325">
        <ele>1495</ele>
        <time>2019-08-09T08:52:23Z</time>
      </trkpt>
      <trkpt lat="44.12027" lon="5.82327">
        <ele>1495</ele>
        <time>2019-08-09T08:52:24Z</time>
      </trkpt>
      <trkpt lat="44.12027" lon="5.8233">
        <ele>1496</ele>
        <time>2019-08-09T08:52:25Z</time>
      </trkpt>
      <trkpt lat="44.12025" lon="5.82332">
        <ele>1496</ele>
        <time>2019-08-09T08:52:26Z</time>
      </trkpt>
      <trkpt lat="44.12024" lon="5.82335">
        <ele>1496</ele>
        <time>2019-08-09T08:52:27Z</time>
      </trkpt>
      <trkpt lat="44.12022" lon="5.82337">
        <ele>1497</ele>
        <time>2019-08-09T08:52:28Z</time>
      </trkpt>
      <trkpt lat="44.1202" lon="5.8234">
        <ele>1497</ele>
        <time>2019-08-09T08:52:29Z</time>
      </trkpt>
      <trkpt lat="44.12019" lon="5.82342">
        <ele>1497</ele>
        <time>2019-08-09T08:52:30Z</time>
      </trkpt>
      <trkpt lat="44.12018" lon="5.82345">
        <ele>1497</ele>
        <time>2019-08-09T08:52:31Z</time>
      </trkpt>
      <trkpt lat="44.12018" lon="5.82347">
        <ele>1498</ele>
        <time>2019-08-09T08:52:32Z</time>
      </trkpt>
      <trkpt lat="44.12018" lon="5.82349">
        <ele>1498</ele>
        <time>2019-08-09T08:52:33Z</time>
      </trkpt>
      <trkpt lat="44.12015" lon="5.82351">
        <ele>1498</ele>
        <time>2019-08-09T08:52:34Z</time>
      </trkpt>
      <trkpt lat="44.12014" lon="5.82353">
        <ele>1498</ele>
        <time>2019-08-09T08:52:35Z</time>
      </trkpt>
      <trkpt lat="44.12013" lon="5.82354">
        <ele>1499</ele>
        <time>2019-08-09T08:52:36Z</time>
      </trkpt>
      <trkpt lat="44.12012" lon="5.82356">
        <ele>1499</ele>
        <time>2019-08-09T08:52:37Z</time>
      </trkpt>
      <trkpt lat="44.1201" lon="5.82358">
        <ele>1499</ele>
        <time>2019-08-09T08:52:38Z</time>
      </trkpt>
      <trkpt lat="44.1201" lon="5.8236">
        <ele>1500</ele>
        <time>2019-08-09T08:52:39Z</time>
      </trkpt>
      <trkpt lat="44.12009" lon="5.82361">
        <ele>1500</ele>
        <time>2019-08-09T08:52:40Z</time>
      </trkpt>
      <trkpt lat="44.12009" lon="5.82363">
        <ele>1500</ele>
        <time>2019-08-09T08:52:41Z</time>
      </trkpt>
      <trkpt lat="44.12009" lon="5.82364">
        <ele>1501</ele>
        <time>2019-08-09T08:52:42Z</time>
      </trkpt>
      <trkpt lat="44.12007" lon="5.82366">
        <ele>1501</ele>
        <time>2019-08-09T08:52:43Z</time>
      </trkpt>
      <trkpt lat="44.12005" lon="5.82369">
        <ele>1502</ele>
        <time>2019-08-09T08:52:45Z</time>
      </trkpt>
      <trkpt lat="44.12003" lon="5.8237">
        <ele>1502</ele>
        <time>2019-08-09T08:52:46Z</time>
      </trkpt>
      <trkpt lat="44.12001" lon="5.82373">
        <ele>1502</ele>
        <time>2019-08-09T08:52:48Z</time>
      </trkpt>
      <trkpt lat="44.12" lon="5.82374">
        <ele>1503</ele>
        <time>2019-08-09T08:52:49Z</time>
      </trkpt>
      <trkpt lat="44.11998" lon="5.82376">
        <ele>1503</ele>
        <time>2019-08-09T08:52:51Z</time>
      </trkpt>
      <trkpt lat="44.11996" lon="5.82378">
        <ele>1503</ele>
        <time>2019-08-09T08:52:52Z</time>
      </trkpt>
      <trkpt lat="44.11992" lon="5.8238">
        <ele>1504</ele>
        <time>2019-08-09T08:52:53Z</time>
      </trkpt>
      <trkpt lat="44.11989" lon="5.82381">
        <ele>1504</ele>
        <time>2019-08-09T08:52:54Z</time>
      </trkpt>
      <trkpt lat="44.11988" lon="5.82383">
        <ele>1504</ele>
        <time>2019-08-09T08:52:55Z</time>
      </trkpt>
      <trkpt lat="44.11987" lon="5.82384">
        <ele>1504</ele>
        <time>2019-08-09T08:52:56Z</time>
      </trkpt>
      <trkpt lat="44.11985" lon="5.82386">
        <ele>1504</ele>
        <time>2019-08-09T08:52:58Z</time>
      </trkpt>
      <trkpt lat="44.11984" lon="5.82388">
        <ele>1505</ele>
        <time>2019-08-09T08:52:59Z</time>
      </trkpt>
      <trkpt lat="44.11981" lon="5.82391">
        <ele>1505</ele>
        <time>2019-08-09T08:53:00Z</time>
      </trkpt>
      <trkpt lat="44.11979" lon="5.82393">
        <ele>1505</ele>
        <time>2019-08-09T08:53:01Z</time>
      </trkpt>
      <trkpt lat="44.11979" lon="5.82395">
        <ele>1506</ele>
        <time>2019-08-09T08:53:02Z</time>
      </trkpt>
      <trkpt lat="44.11979" lon="5.82397">
        <ele>1507</ele>
        <time>2019-08-09T08:53:04Z</time>
      </trkpt>
      <trkpt lat="44.1198" lon="5.824">
        <ele>1507</ele>
        <time>2019-08-09T08:53:06Z</time>
      </trkpt>
      <trkpt lat="44.1198" lon="5.82402">
        <ele>1508</ele>
        <time>2019-08-09T08:53:07Z</time>
      </trkpt>
      <trkpt lat="44.11977" lon="5.82404">
        <ele>1508</ele>
        <time>2019-08-09T08:53:08Z</time>
      </trkpt>
      <trkpt lat="44.11975" lon="5.82406">
        <ele>1508</ele>
        <time>2019-08-09T08:53:09Z</time>
      </trkpt>
      <trkpt lat="44.11972" lon="5.82408">
        <ele>1509</ele>
        <time>2019-08-09T08:53:10Z</time>
      </trkpt>
      <trkpt lat="44.1197" lon="5.8241">
        <ele>1509</ele>
        <time>2019-08-09T08:53:11Z</time>
      </trkpt>
      <trkpt lat="44.11968" lon="5.82413">
        <ele>1509</ele>
        <time>2019-08-09T08:53:12Z</time>
      </trkpt>
      <trkpt lat="44.11968" lon="5.82417">
        <ele>1510</ele>
        <time>2019-08-09T08:53:14Z</time>
      </trkpt>
      <trkpt lat="44.11968" lon="5.8242">
        <ele>1510</ele>
        <time>2019-08-09T08:53:15Z</time>
      </trkpt>
      <trkpt lat="44.11968" lon="5.82422">
        <ele>1510</ele>
        <time>2019-08-09T08:53:16Z</time>
      </trkpt>
      <trkpt lat="44.11966" lon="5.82425">
        <ele>1511</ele>
        <time>2019-08-09T08:53:17Z</time>
      </trkpt>
      <trkpt lat="44.11963" lon="5.82428">
        <ele>1511</ele>
        <time>2019-08-09T08:53:18Z</time>
      </trkpt>
      <trkpt lat="44.11961" lon="5.82431">
        <ele>1511</ele>
        <time>2019-08-09T08:53:19Z</time>
      </trkpt>
      <trkpt lat="44.11961" lon="5.82433">
        <ele>1512</ele>
        <time>2019-08-09T08:53:20Z</time>
      </trkpt>
      <trkpt lat="44.1196" lon="5.82436">
        <ele>1512</ele>
        <time>2019-08-09T08:53:21Z</time>
      </trkpt>
      <trkpt lat="44.11958" lon="5.82438">
        <ele>1512</ele>
        <time>2019-08-09T08:53:22Z</time>
      </trkpt>
      <trkpt lat="44.11958" lon="5.82441">
        <ele>1513</ele>
        <time>2019-08-09T08:53:23Z</time>
      </trkpt>
      <trkpt lat="44.11957" lon="5.82444">
        <ele>1513</ele>
        <time>2019-08-09T08:53:24Z</time>
      </trkpt>
      <trkpt lat="44.11955" lon="5.82447">
        <ele>1513</ele>
        <time>2019-08-09T08:53:25Z</time>
      </trkpt>
      <trkpt lat="44.11954" lon="5.82449">
        <ele>1513</ele>
        <time>2019-08-09T08:53:26Z</time>
      </trkpt>
      <trkpt lat="44.11951" lon="5.82452">
        <ele>1514</ele>
        <time>2019-08-09T08:53:27Z</time>
      </trkpt>
      <trkpt lat="44.11949" lon="5.82455">
        <ele>1514</ele>
        <time>2019-08-09T08:53:28Z</time>
      </trkpt>
      <trkpt lat="44.11948" lon="5.82458">
        <ele>1514</ele>
        <time>2019-08-09T08:53:29Z</time>
      </trkpt>
      <trkpt lat="44.11947" lon="5.8246">
        <ele>1515</ele>
        <time>2019-08-09T08:53:30Z</time>
      </trkpt>
      <trkpt lat="44.11945" lon="5.82463">
        <ele>1515</ele>
        <time>2019-08-09T08:53:31Z</time>
      </trkpt>
      <trkpt lat="44.11943" lon="5.82466">
        <ele>1515</ele>
        <time>2019-08-09T08:53:32Z</time>
      </trkpt>
      <trkpt lat="44.11942" lon="5.82468">
        <ele>1515</ele>
        <time>2019-08-09T08:53:33Z</time>
      </trkpt>
      <trkpt lat="44.11941" lon="5.82471">
        <ele>1515</ele>
        <time>2019-08-09T08:53:34Z</time>
      </trkpt>
      <trkpt lat="44.1194" lon="5.82473">
        <ele>1515</ele>
        <time>2019-08-09T08:53:35Z</time>
      </trkpt>
      <trkpt lat="44.11938" lon="5.82476">
        <ele>1516</ele>
        <time>2019-08-09T08:53:36Z</time>
      </trkpt>
      <trkpt lat="44.11937" lon="5.82478">
        <ele>1516</ele>
        <time>2019-08-09T08:53:37Z</time>
      </trkpt>
      <trkpt lat="44.11935" lon="5.8248">
        <ele>1516</ele>
        <time>2019-08-09T08:53:38Z</time>
      </trkpt>
      <trkpt lat="44.11935" lon="5.82482">
        <ele>1516</ele>
        <time>2019-08-09T08:53:39Z</time>
      </trkpt>
      <trkpt lat="44.11933" lon="5.82484">
        <ele>1517</ele>
        <time>2019-08-09T08:53:40Z</time>
      </trkpt>
      <trkpt lat="44.11932" lon="5.82487">
        <ele>1517</ele>
        <time>2019-08-09T08:53:41Z</time>
      </trkpt>
      <trkpt lat="44.1193" lon="5.82489">
        <ele>1517</ele>
        <time>2019-08-09T08:53:42Z</time>
      </trkpt>
      <trkpt lat="44.11928" lon="5.82491">
        <ele>1517</ele>
        <time>2019-08-09T08:53:43Z</time>
      </trkpt>
      <trkpt lat="44.11927" lon="5.82493">
        <ele>1517</ele>
        <time>2019-08-09T08:53:44Z</time>
      </trkpt>
      <trkpt lat="44.11926" lon="5.82495">
        <ele>1517</ele>
        <time>2019-08-09T08:53:45Z</time>
      </trkpt>
      <trkpt lat="44.11924" lon="5.82497">
        <ele>1517</ele>
        <time>2019-08-09T08:53:46Z</time>
      </trkpt>
      <trkpt lat="44.11922" lon="5.825">
        <ele>1517</ele>
        <time>2019-08-09T08:53:47Z</time>
      </trkpt>
      <trkpt lat="44.11921" lon="5.82504">
        <ele>1518</ele>
        <time>2019-08-09T08:53:49Z</time>
      </trkpt>
      <trkpt lat="44.11921" lon="5.82506">
        <ele>1518</ele>
        <time>2019-08-09T08:53:50Z</time>
      </trkpt>
      <trkpt lat="44.11918" lon="5.82508">
        <ele>1518</ele>
        <time>2019-08-09T08:53:51Z</time>
      </trkpt>
      <trkpt lat="44.11916" lon="5.8251">
        <ele>1518</ele>
        <time>2019-08-09T08:53:52Z</time>
      </trkpt>
      <trkpt lat="44.11913" lon="5.82512">
        <ele>1518</ele>
        <time>2019-08-09T08:53:53Z</time>
      </trkpt>
      <trkpt lat="44.11912" lon="5.82514">
        <ele>1518</ele>
        <time>2019-08-09T08:53:54Z</time>
      </trkpt>
      <trkpt lat="44.11909" lon="5.82516">
        <ele>1518</ele>
        <time>2019-08-09T08:53:56Z</time>
      </trkpt>
      <trkpt lat="44.11908" lon="5.82518">
        <ele>1518</ele>
        <time>2019-08-09T08:53:57Z</time>
      </trkpt>
      <trkpt lat="44.11906" lon="5.8252">
        <ele>1518</ele>
        <time>2019-08-09T08:53:58Z</time>
      </trkpt>
      <trkpt lat="44.11905" lon="5.82522">
        <ele>1518</ele>
        <time>2019-08-09T08:53:59Z</time>
      </trkpt>
      <trkpt lat="44.11903" lon="5.82524">
        <ele>1518</ele>
        <time>2019-08-09T08:54:00Z</time>
      </trkpt>
      <trkpt lat="44.11902" lon="5.82526">
        <ele>1518</ele>
        <time>2019-08-09T08:54:01Z</time>
      </trkpt>
      <trkpt lat="44.11901" lon="5.82528">
        <ele>1518</ele>
        <time>2019-08-09T08:54:02Z</time>
      </trkpt>
      <trkpt lat="44.119" lon="5.82529">
        <ele>1518</ele>
        <time>2019-08-09T08:54:03Z</time>
      </trkpt>
      <trkpt lat="44.119" lon="5.82531">
        <ele>1518</ele>
        <time>2019-08-09T08:54:04Z</time>
      </trkpt>
      <trkpt lat="44.11898" lon="5.82532">
        <ele>1519</ele>
        <time>2019-08-09T08:54:05Z</time>
      </trkpt>
      <trkpt lat="44.11896" lon="5.82534">
        <ele>1519</ele>
        <time>2019-08-09T08:54:06Z</time>
      </trkpt>
      <trkpt lat="44.11894" lon="5.82535">
        <ele>1519</ele>
        <time>2019-08-09T08:54:07Z</time>
      </trkpt>
      <trkpt lat="44.11893" lon="5.82537">
        <ele>1519</ele>
        <time>2019-08-09T08:54:08Z</time>
      </trkpt>
      <trkpt lat="44.11891" lon="5.8254">
        <ele>1519</ele>
        <time>2019-08-09T08:54:10Z</time>
      </trkpt>
      <trkpt lat="44.11889" lon="5.82541">
        <ele>1519</ele>
        <time>2019-08-09T08:54:11Z</time>
      </trkpt>
      <trkpt lat="44.11887" lon="5.82543">
        <ele>1519</ele>
        <time>2019-08-09T08:54:12Z</time>
      </trkpt>
      <trkpt lat="44.11885" lon="5.82545">
        <ele>1519</ele>
        <time>2019-08-09T08:54:13Z</time>
      </trkpt>
      <trkpt lat="44.11883" lon="5.82546">
        <ele>1519</ele>
        <time>2019-08-09T08:54:14Z</time>
      </trkpt>
      <trkpt lat="44.11882" lon="5.82548">
        <ele>1520</ele>
        <time>2019-08-09T08:54:15Z</time>
      </trkpt>
      <trkpt lat="44.11879" lon="5.8255">
        <ele>1520</ele>
        <time>2019-08-09T08:54:16Z</time>
      </trkpt>
      <trkpt lat="44.11876" lon="5.82552">
        <ele>1520</ele>
        <time>2019-08-09T08:54:17Z</time>
      </trkpt>
      <trkpt lat="44.11873" lon="5.82553">
        <ele>1520</ele>
        <time>2019-08-09T08:54:18Z</time>
      </trkpt>
      <trkpt lat="44.11871" lon="5.82555">
        <ele>1520</ele>
        <time>2019-08-09T08:54:19Z</time>
      </trkpt>
      <trkpt lat="44.1187" lon="5.82557">
        <ele>1520</ele>
        <time>2019-08-09T08:54:21Z</time>
      </trkpt>
      <trkpt lat="44.11868" lon="5.82559">
        <ele>1521</ele>
        <time>2019-08-09T08:54:23Z</time>
      </trkpt>
      <trkpt lat="44.11866" lon="5.8256">
        <ele>1521</ele>
        <time>2019-08-09T08:54:24Z</time>
      </trkpt>
      <trkpt lat="44.11863" lon="5.82561">
        <ele>1521</ele>
        <time>2019-08-09T08:54:25Z</time>
      </trkpt>
      <trkpt lat="44.11861" lon="5.82563">
        <ele>1521</ele>
        <time>2019-08-09T08:54:27Z</time>
      </trkpt>
      <trkpt lat="44.11859" lon="5.82566">
        <ele>1521</ele>
        <time>2019-08-09T08:54:29Z</time>
      </trkpt>
      <trkpt lat="44.11857" lon="5.82568">
        <ele>1521</ele>
        <time>2019-08-09T08:54:31Z</time>
      </trkpt>
      <trkpt lat="44.11857" lon="5.8257">
        <ele>1521</ele>
        <time>2019-08-09T08:54:32Z</time>
      </trkpt>
      <trkpt lat="44.11856" lon="5.82572">
        <ele>1521</ele>
        <time>2019-08-09T08:54:33Z</time>
      </trkpt>
      <trkpt lat="44.11855" lon="5.82574">
        <ele>1521</ele>
        <time>2019-08-09T08:54:34Z</time>
      </trkpt>
      <trkpt lat="44.11851" lon="5.82577">
        <ele>1522</ele>
        <time>2019-08-09T08:54:35Z</time>
      </trkpt>
      <trkpt lat="44.1185" lon="5.82579">
        <ele>1523</ele>
        <time>2019-08-09T08:54:36Z</time>
      </trkpt>
      <trkpt lat="44.11849" lon="5.82581">
        <ele>1523</ele>
        <time>2019-08-09T08:54:37Z</time>
      </trkpt>
      <trkpt lat="44.11847" lon="5.82584">
        <ele>1524</ele>
        <time>2019-08-09T08:54:38Z</time>
      </trkpt>
      <trkpt lat="44.11847" lon="5.82586">
        <ele>1525</ele>
        <time>2019-08-09T08:54:39Z</time>
      </trkpt>
      <trkpt lat="44.11845" lon="5.82588">
        <ele>1526</ele>
        <time>2019-08-09T08:54:40Z</time>
      </trkpt>
      <trkpt lat="44.11842" lon="5.82596">
        <ele>1527</ele>
        <time>2019-08-09T08:54:43Z</time>
      </trkpt>
      <trkpt lat="44.11841" lon="5.82598">
        <ele>1528</ele>
        <time>2019-08-09T08:54:44Z</time>
      </trkpt>
      <trkpt lat="44.11841" lon="5.82601">
        <ele>1529</ele>
        <time>2019-08-09T08:54:45Z</time>
      </trkpt>
      <trkpt lat="44.11841" lon="5.82603">
        <ele>1530</ele>
        <time>2019-08-09T08:54:46Z</time>
      </trkpt>
      <trkpt lat="44.1184" lon="5.82605">
        <ele>1531</ele>
        <time>2019-08-09T08:54:47Z</time>
      </trkpt>
      <trkpt lat="44.1184" lon="5.82607">
        <ele>1532</ele>
        <time>2019-08-09T08:54:48Z</time>
      </trkpt>
      <trkpt lat="44.1184" lon="5.82609">
        <ele>1532</ele>
        <time>2019-08-09T08:54:49Z</time>
      </trkpt>
      <trkpt lat="44.11839" lon="5.82611">
        <ele>1533</ele>
        <time>2019-08-09T08:54:50Z</time>
      </trkpt>
      <trkpt lat="44.11838" lon="5.82614">
        <ele>1534</ele>
        <time>2019-08-09T08:54:51Z</time>
      </trkpt>
      <trkpt lat="44.11845" lon="5.8262">
        <ele>1535</ele>
        <time>2019-08-09T08:54:52Z</time>
      </trkpt>
      <trkpt lat="44.11847" lon="5.82623">
        <ele>1536</ele>
        <time>2019-08-09T08:54:53Z</time>
      </trkpt>
      <trkpt lat="44.11846" lon="5.82626">
        <ele>1537</ele>
        <time>2019-08-09T08:54:54Z</time>
      </trkpt>
      <trkpt lat="44.11844" lon="5.82628">
        <ele>1538</ele>
        <time>2019-08-09T08:54:55Z</time>
      </trkpt>
      <trkpt lat="44.11844" lon="5.82631">
        <ele>1540</ele>
        <time>2019-08-09T08:54:56Z</time>
      </trkpt>
      <trkpt lat="44.11844" lon="5.82634">
        <ele>1542</ele>
        <time>2019-08-09T08:54:57Z</time>
      </trkpt>
      <trkpt lat="44.11843" lon="5.82637">
        <ele>1544</ele>
        <time>2019-08-09T08:54:58Z</time>
      </trkpt>
      <trkpt lat="44.11842" lon="5.8264">
        <ele>1545</ele>
        <time>2019-08-09T08:54:59Z</time>
      </trkpt>
      <trkpt lat="44.1184" lon="5.82642">
        <ele>1547</ele>
        <time>2019-08-09T08:55:00Z</time>
      </trkpt>
      <trkpt lat="44.11837" lon="5.82645">
        <ele>1548</ele>
        <time>2019-08-09T08:55:01Z</time>
      </trkpt>
      <trkpt lat="44.11837" lon="5.82649">
        <ele>1549</ele>
        <time>2019-08-09T08:55:02Z</time>
      </trkpt>
      <trkpt lat="44.11836" lon="5.82652">
        <ele>1550</ele>
        <time>2019-08-09T08:55:03Z</time>
      </trkpt>
      <trkpt lat="44.11834" lon="5.82654">
        <ele>1551</ele>
        <time>2019-08-09T08:55:04Z</time>
      </trkpt>
      <trkpt lat="44.11832" lon="5.82656">
        <ele>1552</ele>
        <time>2019-08-09T08:55:05Z</time>
      </trkpt>
      <trkpt lat="44.1183" lon="5.82659">
        <ele>1553</ele>
        <time>2019-08-09T08:55:06Z</time>
      </trkpt>
      <trkpt lat="44.11828" lon="5.82662">
        <ele>1554</ele>
        <time>2019-08-09T08:55:07Z</time>
      </trkpt>
      <trkpt lat="44.11826" lon="5.82664">
        <ele>1555</ele>
        <time>2019-08-09T08:55:08Z</time>
      </trkpt>
      <trkpt lat="44.11825" lon="5.82667">
        <ele>1556</ele>
        <time>2019-08-09T08:55:09Z</time>
      </trkpt>
      <trkpt lat="44.11824" lon="5.82669">
        <ele>1557</ele>
        <time>2019-08-09T08:55:10Z</time>
      </trkpt>
      <trkpt lat="44.11823" lon="5.8267">
        <ele>1557</ele>
        <time>2019-08-09T08:55:11Z</time>
      </trkpt>
      <trkpt lat="44.11822" lon="5.82673">
        <ele>1557</ele>
        <time>2019-08-09T08:55:12Z</time>
      </trkpt>
      <trkpt lat="44.11821" lon="5.82676">
        <ele>1557</ele>
        <time>2019-08-09T08:55:13Z</time>
      </trkpt>
      <trkpt lat="44.1182" lon="5.82679">
        <ele>1557</ele>
        <time>2019-08-09T08:55:14Z</time>
      </trkpt>
      <trkpt lat="44.11819" lon="5.82682">
        <ele>1557</ele>
        <time>2019-08-09T08:55:15Z</time>
      </trkpt>
      <trkpt lat="44.11818" lon="5.82684">
        <ele>1558</ele>
        <time>2019-08-09T08:55:16Z</time>
      </trkpt>
      <trkpt lat="44.11817" lon="5.82686">
        <ele>1559</ele>
        <time>2019-08-09T08:55:17Z</time>
      </trkpt>
      <trkpt lat="44.11815" lon="5.82689">
        <ele>1559</ele>
        <time>2019-08-09T08:55:18Z</time>
      </trkpt>
      <trkpt lat="44.11814" lon="5.8269">
        <ele>1559</ele>
        <time>2019-08-09T08:55:19Z</time>
      </trkpt>
      <trkpt lat="44.11812" lon="5.82691">
        <ele>1560</ele>
        <time>2019-08-09T08:55:20Z</time>
      </trkpt>
      <trkpt lat="44.1181" lon="5.82694">
        <ele>1560</ele>
        <time>2019-08-09T08:55:22Z</time>
      </trkpt>
      <trkpt lat="44.11808" lon="5.82696">
        <ele>1560</ele>
        <time>2019-08-09T08:55:23Z</time>
      </trkpt>
      <trkpt lat="44.11806" lon="5.82698">
        <ele>1560</ele>
        <time>2019-08-09T08:55:24Z</time>
      </trkpt>
      <trkpt lat="44.11804" lon="5.82701">
        <ele>1560</ele>
        <time>2019-08-09T08:55:25Z</time>
      </trkpt>
      <trkpt lat="44.11803" lon="5.82703">
        <ele>1560</ele>
        <time>2019-08-09T08:55:26Z</time>
      </trkpt>
      <trkpt lat="44.118" lon="5.82705">
        <ele>1560</ele>
        <time>2019-08-09T08:55:27Z</time>
      </trkpt>
      <trkpt lat="44.11798" lon="5.8271">
        <ele>1560</ele>
        <time>2019-08-09T08:55:29Z</time>
      </trkpt>
      <trkpt lat="44.11797" lon="5.82712">
        <ele>1560</ele>
        <time>2019-08-09T08:55:30Z</time>
      </trkpt>
      <trkpt lat="44.11796" lon="5.82714">
        <ele>1560</ele>
        <time>2019-08-09T08:55:31Z</time>
      </trkpt>
      <trkpt lat="44.11795" lon="5.82716">
        <ele>1561</ele>
        <time>2019-08-09T08:55:32Z</time>
      </trkpt>
      <trkpt lat="44.11794" lon="5.82718">
        <ele>1561</ele>
        <time>2019-08-09T08:55:33Z</time>
      </trkpt>
      <trkpt lat="44.11792" lon="5.8272">
        <ele>1562</ele>
        <time>2019-08-09T08:55:34Z</time>
      </trkpt>
      <trkpt lat="44.11792" lon="5.82723">
        <ele>1562</ele>
        <time>2019-08-09T08:55:35Z</time>
      </trkpt>
      <trkpt lat="44.1179" lon="5.82725">
        <ele>1563</ele>
        <time>2019-08-09T08:55:36Z</time>
      </trkpt>
      <trkpt lat="44.11789" lon="5.82728">
        <ele>1563</ele>
        <time>2019-08-09T08:55:37Z</time>
      </trkpt>
      <trkpt lat="44.11788" lon="5.82731">
        <ele>1564</ele>
        <time>2019-08-09T08:55:38Z</time>
      </trkpt>
      <trkpt lat="44.11786" lon="5.82733">
        <ele>1564</ele>
        <time>2019-08-09T08:55:39Z</time>
      </trkpt>
      <trkpt lat="44.11784" lon="5.82735">
        <ele>1565</ele>
        <time>2019-08-09T08:55:40Z</time>
      </trkpt>
      <trkpt lat="44.11783" lon="5.82738">
        <ele>1565</ele>
        <time>2019-08-09T08:55:41Z</time>
      </trkpt>
      <trkpt lat="44.11781" lon="5.82741">
        <ele>1566</ele>
        <time>2019-08-09T08:55:42Z</time>
      </trkpt>
      <trkpt lat="44.11778" lon="5.82743">
        <ele>1566</ele>
        <time>2019-08-09T08:55:43Z</time>
      </trkpt>
      <trkpt lat="44.11778" lon="5.82746">
        <ele>1566</ele>
        <time>2019-08-09T08:55:44Z</time>
      </trkpt>
      <trkpt lat="44.11776" lon="5.82749">
        <ele>1566</ele>
        <time>2019-08-09T08:55:45Z</time>
      </trkpt>
      <trkpt lat="44.11774" lon="5.82752">
        <ele>1567</ele>
        <time>2019-08-09T08:55:46Z</time>
      </trkpt>
      <trkpt lat="44.11773" lon="5.82755">
        <ele>1567</ele>
        <time>2019-08-09T08:55:47Z</time>
      </trkpt>
      <trkpt lat="44.11771" lon="5.82758">
        <ele>1567</ele>
        <time>2019-08-09T08:55:48Z</time>
      </trkpt>
      <trkpt lat="44.1177" lon="5.8276">
        <ele>1567</ele>
        <time>2019-08-09T08:55:49Z</time>
      </trkpt>
      <trkpt lat="44.11768" lon="5.82761">
        <ele>1567</ele>
        <time>2019-08-09T08:55:50Z</time>
      </trkpt>
      <trkpt lat="44.11766" lon="5.82763">
        <ele>1567</ele>
        <time>2019-08-09T08:55:51Z</time>
      </trkpt>
      <trkpt lat="44.11765" lon="5.82765">
        <ele>1567</ele>
        <time>2019-08-09T08:55:52Z</time>
      </trkpt>
      <trkpt lat="44.11764" lon="5.82768">
        <ele>1567</ele>
        <time>2019-08-09T08:55:53Z</time>
      </trkpt>
      <trkpt lat="44.11763" lon="5.8277">
        <ele>1567</ele>
        <time>2019-08-09T08:55:54Z</time>
      </trkpt>
      <trkpt lat="44.11762" lon="5.82772">
        <ele>1567</ele>
        <time>2019-08-09T08:55:55Z</time>
      </trkpt>
      <trkpt lat="44.11761" lon="5.82774">
        <ele>1567</ele>
        <time>2019-08-09T08:55:56Z</time>
      </trkpt>
      <trkpt lat="44.11758" lon="5.82778">
        <ele>1567</ele>
        <time>2019-08-09T08:55:58Z</time>
      </trkpt>
      <trkpt lat="44.11757" lon="5.8278">
        <ele>1567</ele>
        <time>2019-08-09T08:55:59Z</time>
      </trkpt>
      <trkpt lat="44.11755" lon="5.82782">
        <ele>1568</ele>
        <time>2019-08-09T08:56:00Z</time>
      </trkpt>
      <trkpt lat="44.11754" lon="5.82784">
        <ele>1568</ele>
        <time>2019-08-09T08:56:01Z</time>
      </trkpt>
      <trkpt lat="44.11752" lon="5.82786">
        <ele>1568</ele>
        <time>2019-08-09T08:56:02Z</time>
      </trkpt>
      <trkpt lat="44.1175" lon="5.82788">
        <ele>1569</ele>
        <time>2019-08-09T08:56:03Z</time>
      </trkpt>
      <trkpt lat="44.1175" lon="5.8279">
        <ele>1569</ele>
        <time>2019-08-09T08:56:04Z</time>
      </trkpt>
      <trkpt lat="44.11749" lon="5.82793">
        <ele>1570</ele>
        <time>2019-08-09T08:56:05Z</time>
      </trkpt>
      <trkpt lat="44.11749" lon="5.82795">
        <ele>1571</ele>
        <time>2019-08-09T08:56:06Z</time>
      </trkpt>
      <trkpt lat="44.11748" lon="5.82798">
        <ele>1571</ele>
        <time>2019-08-09T08:56:07Z</time>
      </trkpt>
      <trkpt lat="44.11748" lon="5.82801">
        <ele>1572</ele>
        <time>2019-08-09T08:56:08Z</time>
      </trkpt>
      <trkpt lat="44.11747" lon="5.82803">
        <ele>1572</ele>
        <time>2019-08-09T08:56:09Z</time>
      </trkpt>
      <trkpt lat="44.11745" lon="5.82806">
        <ele>1573</ele>
        <time>2019-08-09T08:56:10Z</time>
      </trkpt>
      <trkpt lat="44.11745" lon="5.82808">
        <ele>1573</ele>
        <time>2019-08-09T08:56:11Z</time>
      </trkpt>
      <trkpt lat="44.11745" lon="5.82811">
        <ele>1574</ele>
        <time>2019-08-09T08:56:12Z</time>
      </trkpt>
      <trkpt lat="44.11744" lon="5.82813">
        <ele>1574</ele>
        <time>2019-08-09T08:56:13Z</time>
      </trkpt>
      <trkpt lat="44.11743" lon="5.82815">
        <ele>1574</ele>
        <time>2019-08-09T08:56:14Z</time>
      </trkpt>
      <trkpt lat="44.11742" lon="5.82818">
        <ele>1575</ele>
        <time>2019-08-09T08:56:15Z</time>
      </trkpt>
      <trkpt lat="44.11742" lon="5.82821">
        <ele>1575</ele>
        <time>2019-08-09T08:56:16Z</time>
      </trkpt>
      <trkpt lat="44.11742" lon="5.82823">
        <ele>1576</ele>
        <time>2019-08-09T08:56:17Z</time>
      </trkpt>
      <trkpt lat="44.11741" lon="5.82826">
        <ele>1576</ele>
        <time>2019-08-09T08:56:18Z</time>
      </trkpt>
      <trkpt lat="44.11739" lon="5.82829">
        <ele>1576</ele>
        <time>2019-08-09T08:56:19Z</time>
      </trkpt>
      <trkpt lat="44.11737" lon="5.82831">
        <ele>1576</ele>
        <time>2019-08-09T08:56:20Z</time>
      </trkpt>
      <trkpt lat="44.11735" lon="5.82835">
        <ele>1576</ele>
        <time>2019-08-09T08:56:21Z</time>
      </trkpt>
      <trkpt lat="44.11734" lon="5.82836">
        <ele>1576</ele>
        <time>2019-08-09T08:56:22Z</time>
      </trkpt>
      <trkpt lat="44.11732" lon="5.82839">
        <ele>1576</ele>
        <time>2019-08-09T08:56:23Z</time>
      </trkpt>
      <trkpt lat="44.1173" lon="5.8284">
        <ele>1576</ele>
        <time>2019-08-09T08:56:24Z</time>
      </trkpt>
      <trkpt lat="44.11728" lon="5.82842">
        <ele>1576</ele>
        <time>2019-08-09T08:56:25Z</time>
      </trkpt>
      <trkpt lat="44.11726" lon="5.82843">
        <ele>1576</ele>
        <time>2019-08-09T08:56:26Z</time>
      </trkpt>
      <trkpt lat="44.11724" lon="5.82845">
        <ele>1576</ele>
        <time>2019-08-09T08:56:27Z</time>
      </trkpt>
      <trkpt lat="44.11723" lon="5.82847">
        <ele>1576</ele>
        <time>2019-08-09T08:56:28Z</time>
      </trkpt>
      <trkpt lat="44.11722" lon="5.82849">
        <ele>1576</ele>
        <time>2019-08-09T08:56:29Z</time>
      </trkpt>
      <trkpt lat="44.11721" lon="5.82851">
        <ele>1576</ele>
        <time>2019-08-09T08:56:30Z</time>
      </trkpt>
      <trkpt lat="44.1172" lon="5.82854">
        <ele>1576</ele>
        <time>2019-08-09T08:56:31Z</time>
      </trkpt>
      <trkpt lat="44.1172" lon="5.82857">
        <ele>1576</ele>
        <time>2019-08-09T08:56:32Z</time>
      </trkpt>
      <trkpt lat="44.1172" lon="5.82859">
        <ele>1576</ele>
        <time>2019-08-09T08:56:33Z</time>
      </trkpt>
      <trkpt lat="44.11719" lon="5.82862">
        <ele>1577</ele>
        <time>2019-08-09T08:56:34Z</time>
      </trkpt>
      <trkpt lat="44.11718" lon="5.82865">
        <ele>1578</ele>
        <time>2019-08-09T08:56:35Z</time>
      </trkpt>
      <trkpt lat="44.11716" lon="5.82867">
        <ele>1578</ele>
        <time>2019-08-09T08:56:36Z</time>
      </trkpt>
      <trkpt lat="44.11714" lon="5.82869">
        <ele>1579</ele>
        <time>2019-08-09T08:56:37Z</time>
      </trkpt>
      <trkpt lat="44.11715" lon="5.82871">
        <ele>1580</ele>
        <time>2019-08-09T08:56:38Z</time>
      </trkpt>
      <trkpt lat="44.11715" lon="5.82874">
        <ele>1581</ele>
        <time>2019-08-09T08:56:39Z</time>
      </trkpt>
      <trkpt lat="44.11715" lon="5.82877">
        <ele>1581</ele>
        <time>2019-08-09T08:56:40Z</time>
      </trkpt>
      <trkpt lat="44.11715" lon="5.82879">
        <ele>1582</ele>
        <time>2019-08-09T08:56:41Z</time>
      </trkpt>
      <trkpt lat="44.11715" lon="5.82882">
        <ele>1583</ele>
        <time>2019-08-09T08:56:42Z</time>
      </trkpt>
      <trkpt lat="44.11714" lon="5.82884">
        <ele>1584</ele>
        <time>2019-08-09T08:56:43Z</time>
      </trkpt>
      <trkpt lat="44.11714" lon="5.82888">
        <ele>1585</ele>
        <time>2019-08-09T08:56:44Z</time>
      </trkpt>
      <trkpt lat="44.11713" lon="5.82891">
        <ele>1586</ele>
        <time>2019-08-09T08:56:45Z</time>
      </trkpt>
      <trkpt lat="44.11711" lon="5.82894">
        <ele>1587</ele>
        <time>2019-08-09T08:56:46Z</time>
      </trkpt>
      <trkpt lat="44.11711" lon="5.82896">
        <ele>1588</ele>
        <time>2019-08-09T08:56:47Z</time>
      </trkpt>
      <trkpt lat="44.1171" lon="5.82898">
        <ele>1589</ele>
        <time>2019-08-09T08:56:48Z</time>
      </trkpt>
      <trkpt lat="44.1171" lon="5.829">
        <ele>1589</ele>
        <time>2019-08-09T08:56:49Z</time>
      </trkpt>
      <trkpt lat="44.11709" lon="5.82904">
        <ele>1590</ele>
        <time>2019-08-09T08:56:50Z</time>
      </trkpt>
      <trkpt lat="44.11709" lon="5.82907">
        <ele>1590</ele>
        <time>2019-08-09T08:56:51Z</time>
      </trkpt>
      <trkpt lat="44.11708" lon="5.82909">
        <ele>1591</ele>
        <time>2019-08-09T08:56:52Z</time>
      </trkpt>
      <trkpt lat="44.11707" lon="5.82912">
        <ele>1591</ele>
        <time>2019-08-09T08:56:53Z</time>
      </trkpt>
      <trkpt lat="44.11705" lon="5.82914">
        <ele>1591</ele>
        <time>2019-08-09T08:56:54Z</time>
      </trkpt>
      <trkpt lat="44.11704" lon="5.82917">
        <ele>1592</ele>
        <time>2019-08-09T08:56:55Z</time>
      </trkpt>
      <trkpt lat="44.11703" lon="5.8292">
        <ele>1592</ele>
        <time>2019-08-09T08:56:56Z</time>
      </trkpt>
      <trkpt lat="44.11703" lon="5.82923">
        <ele>1592</ele>
        <time>2019-08-09T08:56:57Z</time>
      </trkpt>
      <trkpt lat="44.11701" lon="5.82925">
        <ele>1592</ele>
        <time>2019-08-09T08:56:58Z</time>
      </trkpt>
      <trkpt lat="44.117" lon="5.82928">
        <ele>1592</ele>
        <time>2019-08-09T08:56:59Z</time>
      </trkpt>
      <trkpt lat="44.11699" lon="5.82931">
        <ele>1592</ele>
        <time>2019-08-09T08:57:00Z</time>
      </trkpt>
      <trkpt lat="44.11698" lon="5.82933">
        <ele>1592</ele>
        <time>2019-08-09T08:57:01Z</time>
      </trkpt>
      <trkpt lat="44.11697" lon="5.82935">
        <ele>1592</ele>
        <time>2019-08-09T08:57:02Z</time>
      </trkpt>
      <trkpt lat="44.11694" lon="5.82937">
        <ele>1592</ele>
        <time>2019-08-09T08:57:03Z</time>
      </trkpt>
      <trkpt lat="44.11693" lon="5.8294">
        <ele>1592</ele>
        <time>2019-08-09T08:57:04Z</time>
      </trkpt>
      <trkpt lat="44.11692" lon="5.82943">
        <ele>1592</ele>
        <time>2019-08-09T08:57:05Z</time>
      </trkpt>
      <trkpt lat="44.1169" lon="5.82945">
        <ele>1592</ele>
        <time>2019-08-09T08:57:06Z</time>
      </trkpt>
      <trkpt lat="44.11687" lon="5.82947">
        <ele>1592</ele>
        <time>2019-08-09T08:57:07Z</time>
      </trkpt>
      <trkpt lat="44.11684" lon="5.82949">
        <ele>1592</ele>
        <time>2019-08-09T08:57:08Z</time>
      </trkpt>
      <trkpt lat="44.11682" lon="5.82949">
        <ele>1592</ele>
        <time>2019-08-09T08:57:10Z</time>
      </trkpt>
      <trkpt lat="44.1168" lon="5.82949">
        <ele>1592</ele>
        <time>2019-08-09T08:57:11Z</time>
      </trkpt>
      <trkpt lat="44.11678" lon="5.8295">
        <ele>1591</ele>
        <time>2019-08-09T08:57:12Z</time>
      </trkpt>
      <trkpt lat="44.11677" lon="5.8295">
        <ele>1590</ele>
        <time>2019-08-09T08:57:13Z</time>
      </trkpt>
      <trkpt lat="44.11676" lon="5.82953">
        <ele>1589</ele>
        <time>2019-08-09T08:57:14Z</time>
      </trkpt>
      <trkpt lat="44.11674" lon="5.82957">
        <ele>1589</ele>
        <time>2019-08-09T08:57:15Z</time>
      </trkpt>
      <trkpt lat="44.11673" lon="5.82959">
        <ele>1589</ele>
        <time>2019-08-09T08:57:16Z</time>
      </trkpt>
      <trkpt lat="44.11671" lon="5.82961">
        <ele>1589</ele>
        <time>2019-08-09T08:57:17Z</time>
      </trkpt>
      <trkpt lat="44.1167" lon="5.82963">
        <ele>1589</ele>
        <time>2019-08-09T08:57:18Z</time>
      </trkpt>
      <trkpt lat="44.11669" lon="5.82964">
        <ele>1589</ele>
        <time>2019-08-09T08:57:19Z</time>
      </trkpt>
      <trkpt lat="44.11668" lon="5.82966">
        <ele>1589</ele>
        <time>2019-08-09T08:57:20Z</time>
      </trkpt>
      <trkpt lat="44.11667" lon="5.82967">
        <ele>1589</ele>
        <time>2019-08-09T08:57:21Z</time>
      </trkpt>
      <trkpt lat="44.11667" lon="5.8297">
        <ele>1589</ele>
        <time>2019-08-09T08:57:22Z</time>
      </trkpt>
      <trkpt lat="44.11667" lon="5.82973">
        <ele>1589</ele>
        <time>2019-08-09T08:57:23Z</time>
      </trkpt>
      <trkpt lat="44.11667" lon="5.82975">
        <ele>1589</ele>
        <time>2019-08-09T08:57:24Z</time>
      </trkpt>
      <trkpt lat="44.11667" lon="5.82978">
        <ele>1589</ele>
        <time>2019-08-09T08:57:25Z</time>
      </trkpt>
      <trkpt lat="44.11666" lon="5.82981">
        <ele>1590</ele>
        <time>2019-08-09T08:57:26Z</time>
      </trkpt>
      <trkpt lat="44.11665" lon="5.82984">
        <ele>1591</ele>
        <time>2019-08-09T08:57:27Z</time>
      </trkpt>
      <trkpt lat="44.11664" lon="5.82988">
        <ele>1592</ele>
        <time>2019-08-09T08:57:28Z</time>
      </trkpt>
      <trkpt lat="44.11663" lon="5.82991">
        <ele>1592</ele>
        <time>2019-08-09T08:57:29Z</time>
      </trkpt>
      <trkpt lat="44.11663" lon="5.82994">
        <ele>1593</ele>
        <time>2019-08-09T08:57:30Z</time>
      </trkpt>
      <trkpt lat="44.11662" lon="5.82996">
        <ele>1594</ele>
        <time>2019-08-09T08:57:31Z</time>
      </trkpt>
      <trkpt lat="44.11661" lon="5.82999">
        <ele>1594</ele>
        <time>2019-08-09T08:57:32Z</time>
      </trkpt>
      <trkpt lat="44.11659" lon="5.83001">
        <ele>1595</ele>
        <time>2019-08-09T08:57:33Z</time>
      </trkpt>
      <trkpt lat="44.11657" lon="5.83004">
        <ele>1595</ele>
        <time>2019-08-09T08:57:34Z</time>
      </trkpt>
      <trkpt lat="44.11656" lon="5.83007">
        <ele>1596</ele>
        <time>2019-08-09T08:57:35Z</time>
      </trkpt>
      <trkpt lat="44.11654" lon="5.83011">
        <ele>1596</ele>
        <time>2019-08-09T08:57:36Z</time>
      </trkpt>
      <trkpt lat="44.11652" lon="5.83013">
        <ele>1596</ele>
        <time>2019-08-09T08:57:37Z</time>
      </trkpt>
      <trkpt lat="44.11651" lon="5.83016">
        <ele>1596</ele>
        <time>2019-08-09T08:57:38Z</time>
      </trkpt>
      <trkpt lat="44.11649" lon="5.83019">
        <ele>1597</ele>
        <time>2019-08-09T08:57:39Z</time>
      </trkpt>
      <trkpt lat="44.11648" lon="5.83021">
        <ele>1597</ele>
        <time>2019-08-09T08:57:40Z</time>
      </trkpt>
      <trkpt lat="44.11646" lon="5.83025">
        <ele>1597</ele>
        <time>2019-08-09T08:57:41Z</time>
      </trkpt>
      <trkpt lat="44.11645" lon="5.83028">
        <ele>1597</ele>
        <time>2019-08-09T08:57:42Z</time>
      </trkpt>
      <trkpt lat="44.11644" lon="5.8303">
        <ele>1597</ele>
        <time>2019-08-09T08:57:43Z</time>
      </trkpt>
      <trkpt lat="44.11641" lon="5.83032">
        <ele>1597</ele>
        <time>2019-08-09T08:57:44Z</time>
      </trkpt>
      <trkpt lat="44.11638" lon="5.83034">
        <ele>1597</ele>
        <time>2019-08-09T08:57:45Z</time>
      </trkpt>
      <trkpt lat="44.11636" lon="5.83035">
        <ele>1597</ele>
        <time>2019-08-09T08:57:46Z</time>
      </trkpt>
      <trkpt lat="44.11634" lon="5.83037">
        <ele>1597</ele>
        <time>2019-08-09T08:57:47Z</time>
      </trkpt>
      <trkpt lat="44.11632" lon="5.83039">
        <ele>1596</ele>
        <time>2019-08-09T08:57:48Z</time>
      </trkpt>
      <trkpt lat="44.1163" lon="5.83041">
        <ele>1595</ele>
        <time>2019-08-09T08:57:49Z</time>
      </trkpt>
      <trkpt lat="44.11628" lon="5.83043">
        <ele>1595</ele>
        <time>2019-08-09T08:57:50Z</time>
      </trkpt>
      <trkpt lat="44.11628" lon="5.83045">
        <ele>1594</ele>
        <time>2019-08-09T08:57:51Z</time>
      </trkpt>
      <trkpt lat="44.11628" lon="5.83048">
        <ele>1594</ele>
        <time>2019-08-09T08:57:52Z</time>
      </trkpt>
      <trkpt lat="44.11626" lon="5.83051">
        <ele>1594</ele>
        <time>2019-08-09T08:57:54Z</time>
      </trkpt>
      <trkpt lat="44.11625" lon="5.83053">
        <ele>1594</ele>
        <time>2019-08-09T08:57:55Z</time>
      </trkpt>
      <trkpt lat="44.11624" lon="5.83055">
        <ele>1594</ele>
        <time>2019-08-09T08:57:56Z</time>
      </trkpt>
      <trkpt lat="44.11623" lon="5.83058">
        <ele>1594</ele>
        <time>2019-08-09T08:57:57Z</time>
      </trkpt>
      <trkpt lat="44.11623" lon="5.83062">
        <ele>1594</ele>
        <time>2019-08-09T08:57:58Z</time>
      </trkpt>
      <trkpt lat="44.11622" lon="5.83065">
        <ele>1594</ele>
        <time>2019-08-09T08:57:59Z</time>
      </trkpt>
      <trkpt lat="44.1162" lon="5.83068">
        <ele>1594</ele>
        <time>2019-08-09T08:58:00Z</time>
      </trkpt>
      <trkpt lat="44.11619" lon="5.8307">
        <ele>1594</ele>
        <time>2019-08-09T08:58:01Z</time>
      </trkpt>
      <trkpt lat="44.11617" lon="5.83072">
        <ele>1594</ele>
        <time>2019-08-09T08:58:02Z</time>
      </trkpt>
      <trkpt lat="44.11615" lon="5.83075">
        <ele>1594</ele>
        <time>2019-08-09T08:58:03Z</time>
      </trkpt>
      <trkpt lat="44.11614" lon="5.83078">
        <ele>1594</ele>
        <time>2019-08-09T08:58:04Z</time>
      </trkpt>
      <trkpt lat="44.11612" lon="5.83081">
        <ele>1594</ele>
        <time>2019-08-09T08:58:05Z</time>
      </trkpt>
      <trkpt lat="44.1161" lon="5.83084">
        <ele>1593</ele>
        <time>2019-08-09T08:58:06Z</time>
      </trkpt>
      <trkpt lat="44.11608" lon="5.83087">
        <ele>1593</ele>
        <time>2019-08-09T08:58:07Z</time>
      </trkpt>
      <trkpt lat="44.11605" lon="5.83089">
        <ele>1592</ele>
        <time>2019-08-09T08:58:08Z</time>
      </trkpt>
      <trkpt lat="44.11603" lon="5.83091">
        <ele>1592</ele>
        <time>2019-08-09T08:58:09Z</time>
      </trkpt>
      <trkpt lat="44.11601" lon="5.83094">
        <ele>1591</ele>
        <time>2019-08-09T08:58:10Z</time>
      </trkpt>
      <trkpt lat="44.11599" lon="5.83096">
        <ele>1591</ele>
        <time>2019-08-09T08:58:11Z</time>
      </trkpt>
      <trkpt lat="44.11597" lon="5.83099">
        <ele>1591</ele>
        <time>2019-08-09T08:58:12Z</time>
      </trkpt>
      <trkpt lat="44.11595" lon="5.83102">
        <ele>1591</ele>
        <time>2019-08-09T08:58:13Z</time>
      </trkpt>
      <trkpt lat="44.11593" lon="5.83103">
        <ele>1591</ele>
        <time>2019-08-09T08:58:14Z</time>
      </trkpt>
      <trkpt lat="44.11592" lon="5.83105">
        <ele>1590</ele>
        <time>2019-08-09T08:58:15Z</time>
      </trkpt>
      <trkpt lat="44.11591" lon="5.83108">
        <ele>1590</ele>
        <time>2019-08-09T08:58:16Z</time>
      </trkpt>
      <trkpt lat="44.11589" lon="5.8311">
        <ele>1590</ele>
        <time>2019-08-09T08:58:17Z</time>
      </trkpt>
      <trkpt lat="44.11587" lon="5.83112">
        <ele>1590</ele>
        <time>2019-08-09T08:58:18Z</time>
      </trkpt>
      <trkpt lat="44.11586" lon="5.83115">
        <ele>1590</ele>
        <time>2019-08-09T08:58:19Z</time>
      </trkpt>
      <trkpt lat="44.11585" lon="5.83118">
        <ele>1590</ele>
        <time>2019-08-09T08:58:20Z</time>
      </trkpt>
      <trkpt lat="44.11585" lon="5.83121">
        <ele>1590</ele>
        <time>2019-08-09T08:58:21Z</time>
      </trkpt>
      <trkpt lat="44.11585" lon="5.83124">
        <ele>1590</ele>
        <time>2019-08-09T08:58:22Z</time>
      </trkpt>
      <trkpt lat="44.11585" lon="5.83126">
        <ele>1590</ele>
        <time>2019-08-09T08:58:23Z</time>
      </trkpt>
      <trkpt lat="44.11585" lon="5.83128">
        <ele>1590</ele>
        <time>2019-08-09T08:58:24Z</time>
      </trkpt>
      <trkpt lat="44.11585" lon="5.83132">
        <ele>1590</ele>
        <time>2019-08-09T08:58:25Z</time>
      </trkpt>
      <trkpt lat="44.11586" lon="5.83135">
        <ele>1591</ele>
        <time>2019-08-09T08:58:26Z</time>
      </trkpt>
      <trkpt lat="44.11585" lon="5.83139">
        <ele>1592</ele>
        <time>2019-08-09T08:58:27Z</time>
      </trkpt>
      <trkpt lat="44.11586" lon="5.83142">
        <ele>1593</ele>
        <time>2019-08-09T08:58:28Z</time>
      </trkpt>
      <trkpt lat="44.11584" lon="5.83145">
        <ele>1594</ele>
        <time>2019-08-09T08:58:29Z</time>
      </trkpt>
      <trkpt lat="44.11583" lon="5.83149">
        <ele>1595</ele>
        <time>2019-08-09T08:58:30Z</time>
      </trkpt>
      <trkpt lat="44.11582" lon="5.83152">
        <ele>1596</ele>
        <time>2019-08-09T08:58:31Z</time>
      </trkpt>
      <trkpt lat="44.11582" lon="5.83155">
        <ele>1597</ele>
        <time>2019-08-09T08:58:32Z</time>
      </trkpt>
      <trkpt lat="44.11581" lon="5.83158">
        <ele>1597</ele>
        <time>2019-08-09T08:58:33Z</time>
      </trkpt>
      <trkpt lat="44.1158" lon="5.83161">
        <ele>1597</ele>
        <time>2019-08-09T08:58:34Z</time>
      </trkpt>
      <trkpt lat="44.11579" lon="5.83164">
        <ele>1597</ele>
        <time>2019-08-09T08:58:35Z</time>
      </trkpt>
      <trkpt lat="44.11578" lon="5.83167">
        <ele>1597</ele>
        <time>2019-08-09T08:58:36Z</time>
      </trkpt>
      <trkpt lat="44.11575" lon="5.8317">
        <ele>1597</ele>
        <time>2019-08-09T08:58:37Z</time>
      </trkpt>
      <trkpt lat="44.11573" lon="5.83173">
        <ele>1597</ele>
        <time>2019-08-09T08:58:38Z</time>
      </trkpt>
      <trkpt lat="44.11572" lon="5.83176">
        <ele>1597</ele>
        <time>2019-08-09T08:58:39Z</time>
      </trkpt>
      <trkpt lat="44.1157" lon="5.83179">
        <ele>1597</ele>
        <time>2019-08-09T08:58:40Z</time>
      </trkpt>
      <trkpt lat="44.11569" lon="5.83182">
        <ele>1597</ele>
        <time>2019-08-09T08:58:41Z</time>
      </trkpt>
      <trkpt lat="44.1157" lon="5.83184">
        <ele>1597</ele>
        <time>2019-08-09T08:58:42Z</time>
      </trkpt>
      <trkpt lat="44.11568" lon="5.83188">
        <ele>1597</ele>
        <time>2019-08-09T08:58:43Z</time>
      </trkpt>
      <trkpt lat="44.11567" lon="5.83192">
        <ele>1598</ele>
        <time>2019-08-09T08:58:44Z</time>
      </trkpt>
      <trkpt lat="44.11564" lon="5.83195">
        <ele>1598</ele>
        <time>2019-08-09T08:58:45Z</time>
      </trkpt>
      <trkpt lat="44.11561" lon="5.83198">
        <ele>1599</ele>
        <time>2019-08-09T08:58:46Z</time>
      </trkpt>
      <trkpt lat="44.11559" lon="5.83201">
        <ele>1599</ele>
        <time>2019-08-09T08:58:47Z</time>
      </trkpt>
      <trkpt lat="44.11557" lon="5.83203">
        <ele>1599</ele>
        <time>2019-08-09T08:58:48Z</time>
      </trkpt>
      <trkpt lat="44.11557" lon="5.83205">
        <ele>1599</ele>
        <time>2019-08-09T08:58:49Z</time>
      </trkpt>
      <trkpt lat="44.11555" lon="5.83209">
        <ele>1599</ele>
        <time>2019-08-09T08:58:50Z</time>
      </trkpt>
      <trkpt lat="44.11553" lon="5.83212">
        <ele>1599</ele>
        <time>2019-08-09T08:58:51Z</time>
      </trkpt>
      <trkpt lat="44.1155" lon="5.83216">
        <ele>1599</ele>
        <time>2019-08-09T08:58:52Z</time>
      </trkpt>
      <trkpt lat="44.1155" lon="5.83219">
        <ele>1599</ele>
        <time>2019-08-09T08:58:53Z</time>
      </trkpt>
      <trkpt lat="44.11549" lon="5.83221">
        <ele>1599</ele>
        <time>2019-08-09T08:58:54Z</time>
      </trkpt>
      <trkpt lat="44.11549" lon="5.83224">
        <ele>1599</ele>
        <time>2019-08-09T08:58:55Z</time>
      </trkpt>
      <trkpt lat="44.11548" lon="5.83226">
        <ele>1599</ele>
        <time>2019-08-09T08:58:56Z</time>
      </trkpt>
      <trkpt lat="44.11548" lon="5.83229">
        <ele>1599</ele>
        <time>2019-08-09T08:58:57Z</time>
      </trkpt>
      <trkpt lat="44.11548" lon="5.83232">
        <ele>1599</ele>
        <time>2019-08-09T08:58:58Z</time>
      </trkpt>
      <trkpt lat="44.11549" lon="5.83235">
        <ele>1598</ele>
        <time>2019-08-09T08:58:59Z</time>
      </trkpt>
      <trkpt lat="44.1155" lon="5.83238">
        <ele>1598</ele>
        <time>2019-08-09T08:59:00Z</time>
      </trkpt>
      <trkpt lat="44.11551" lon="5.8324">
        <ele>1598</ele>
        <time>2019-08-09T08:59:01Z</time>
      </trkpt>
      <trkpt lat="44.11551" lon="5.83243">
        <ele>1597</ele>
        <time>2019-08-09T08:59:02Z</time>
      </trkpt>
      <trkpt lat="44.1155" lon="5.83246">
        <ele>1597</ele>
        <time>2019-08-09T08:59:03Z</time>
      </trkpt>
      <trkpt lat="44.11549" lon="5.83249">
        <ele>1597</ele>
        <time>2019-08-09T08:59:04Z</time>
      </trkpt>
      <trkpt lat="44.11549" lon="5.83252">
        <ele>1596</ele>
        <time>2019-08-09T08:59:05Z</time>
      </trkpt>
      <trkpt lat="44.11548" lon="5.83255">
        <ele>1596</ele>
        <time>2019-08-09T08:59:06Z</time>
      </trkpt>
      <trkpt lat="44.11549" lon="5.83257">
        <ele>1595</ele>
        <time>2019-08-09T08:59:07Z</time>
      </trkpt>
      <trkpt lat="44.11549" lon="5.8326">
        <ele>1595</ele>
        <time>2019-08-09T08:59:08Z</time>
      </trkpt>
      <trkpt lat="44.11549" lon="5.83263">
        <ele>1595</ele>
        <time>2019-08-09T08:59:09Z</time>
      </trkpt>
      <trkpt lat="44.11549" lon="5.83266">
        <ele>1594</ele>
        <time>2019-08-09T08:59:10Z</time>
      </trkpt>
      <trkpt lat="44.11548" lon="5.83269">
        <ele>1594</ele>
        <time>2019-08-09T08:59:11Z</time>
      </trkpt>
      <trkpt lat="44.11548" lon="5.83271">
        <ele>1594</ele>
        <time>2019-08-09T08:59:12Z</time>
      </trkpt>
      <trkpt lat="44.11548" lon="5.83274">
        <ele>1594</ele>
        <time>2019-08-09T08:59:13Z</time>
      </trkpt>
      <trkpt lat="44.11547" lon="5.83278">
        <ele>1594</ele>
        <time>2019-08-09T08:59:14Z</time>
      </trkpt>
      <trkpt lat="44.11547" lon="5.83281">
        <ele>1594</ele>
        <time>2019-08-09T08:59:15Z</time>
      </trkpt>
      <trkpt lat="44.11546" lon="5.83284">
        <ele>1594</ele>
        <time>2019-08-09T08:59:16Z</time>
      </trkpt>
      <trkpt lat="44.11546" lon="5.83287">
        <ele>1594</ele>
        <time>2019-08-09T08:59:17Z</time>
      </trkpt>
      <trkpt lat="44.11545" lon="5.83291">
        <ele>1594</ele>
        <time>2019-08-09T08:59:18Z</time>
      </trkpt>
      <trkpt lat="44.11543" lon="5.83294">
        <ele>1594</ele>
        <time>2019-08-09T08:59:19Z</time>
      </trkpt>
      <trkpt lat="44.11542" lon="5.83297">
        <ele>1594</ele>
        <time>2019-08-09T08:59:20Z</time>
      </trkpt>
      <trkpt lat="44.11541" lon="5.83301">
        <ele>1594</ele>
        <time>2019-08-09T08:59:21Z</time>
      </trkpt>
      <trkpt lat="44.11539" lon="5.83303">
        <ele>1594</ele>
        <time>2019-08-09T08:59:22Z</time>
      </trkpt>
      <trkpt lat="44.11537" lon="5.83306">
        <ele>1594</ele>
        <time>2019-08-09T08:59:23Z</time>
      </trkpt>
      <trkpt lat="44.11535" lon="5.83308">
        <ele>1594</ele>
        <time>2019-08-09T08:59:24Z</time>
      </trkpt>
      <trkpt lat="44.11533" lon="5.8331">
        <ele>1594</ele>
        <time>2019-08-09T08:59:25Z</time>
      </trkpt>
      <trkpt lat="44.11531" lon="5.83312">
        <ele>1594</ele>
        <time>2019-08-09T08:59:26Z</time>
      </trkpt>
      <trkpt lat="44.11529" lon="5.83313">
        <ele>1594</ele>
        <time>2019-08-09T08:59:27Z</time>
      </trkpt>
      <trkpt lat="44.11527" lon="5.83314">
        <ele>1594</ele>
        <time>2019-08-09T08:59:28Z</time>
      </trkpt>
      <trkpt lat="44.11525" lon="5.83314">
        <ele>1594</ele>
        <time>2019-08-09T08:59:29Z</time>
      </trkpt>
      <trkpt lat="44.11522" lon="5.83315">
        <ele>1594</ele>
        <time>2019-08-09T08:59:30Z</time>
      </trkpt>
      <trkpt lat="44.1152" lon="5.83314">
        <ele>1594</ele>
        <time>2019-08-09T08:59:31Z</time>
      </trkpt>
      <trkpt lat="44.11517" lon="5.83313">
        <ele>1595</ele>
        <time>2019-08-09T08:59:32Z</time>
      </trkpt>
      <trkpt lat="44.11515" lon="5.8331">
        <ele>1595</ele>
        <time>2019-08-09T08:59:33Z</time>
      </trkpt>
      <trkpt lat="44.11513" lon="5.83306">
        <ele>1596</ele>
        <time>2019-08-09T08:59:34Z</time>
      </trkpt>
      <trkpt lat="44.11512" lon="5.83301">
        <ele>1596</ele>
        <time>2019-08-09T08:59:35Z</time>
      </trkpt>
      <trkpt lat="44.11512" lon="5.83296">
        <ele>1596</ele>
        <time>2019-08-09T08:59:36Z</time>
      </trkpt>
      <trkpt lat="44.11512" lon="5.83291">
        <ele>1596</ele>
        <time>2019-08-09T08:59:37Z</time>
      </trkpt>
      <trkpt lat="44.11512" lon="5.83287">
        <ele>1597</ele>
        <time>2019-08-09T08:59:38Z</time>
      </trkpt>
      <trkpt lat="44.11512" lon="5.83283">
        <ele>1597</ele>
        <time>2019-08-09T08:59:39Z</time>
      </trkpt>
      <trkpt lat="44.11512" lon="5.83279">
        <ele>1597</ele>
        <time>2019-08-09T08:59:40Z</time>
      </trkpt>
      <trkpt lat="44.11513" lon="5.83276">
        <ele>1597</ele>
        <time>2019-08-09T08:59:41Z</time>
      </trkpt>
      <trkpt lat="44.11513" lon="5.83272">
        <ele>1598</ele>
        <time>2019-08-09T08:59:42Z</time>
      </trkpt>
      <trkpt lat="44.11513" lon="5.83268">
        <ele>1598</ele>
        <time>2019-08-09T08:59:43Z</time>
      </trkpt>
      <trkpt lat="44.11514" lon="5.83265">
        <ele>1598</ele>
        <time>2019-08-09T08:59:44Z</time>
      </trkpt>
      <trkpt lat="44.11514" lon="5.83262">
        <ele>1598</ele>
        <time>2019-08-09T08:59:45Z</time>
      </trkpt>
      <trkpt lat="44.11515" lon="5.83258">
        <ele>1598</ele>
        <time>2019-08-09T08:59:46Z</time>
      </trkpt>
      <trkpt lat="44.11515" lon="5.83254">
        <ele>1598</ele>
        <time>2019-08-09T08:59:47Z</time>
      </trkpt>
      <trkpt lat="44.11515" lon="5.83251">
        <ele>1598</ele>
        <time>2019-08-09T08:59:48Z</time>
      </trkpt>
      <trkpt lat="44.11515" lon="5.83247">
        <ele>1598</ele>
        <time>2019-08-09T08:59:49Z</time>
      </trkpt>
      <trkpt lat="44.11515" lon="5.83244">
        <ele>1598</ele>
        <time>2019-08-09T08:59:50Z</time>
      </trkpt>
      <trkpt lat="44.11516" lon="5.8324">
        <ele>1598</ele>
        <time>2019-08-09T08:59:51Z</time>
      </trkpt>
      <trkpt lat="44.11516" lon="5.83237">
        <ele>1599</ele>
        <time>2019-08-09T08:59:52Z</time>
      </trkpt>
      <trkpt lat="44.11516" lon="5.83233">
        <ele>1599</ele>
        <time>2019-08-09T08:59:53Z</time>
      </trkpt>
      <trkpt lat="44.11516" lon="5.8323">
        <ele>1599</ele>
        <time>2019-08-09T08:59:54Z</time>
      </trkpt>
      <trkpt lat="44.11516" lon="5.83226">
        <ele>1599</ele>
        <time>2019-08-09T08:59:55Z</time>
      </trkpt>
      <trkpt lat="44.11516" lon="5.83222">
        <ele>1599</ele>
        <time>2019-08-09T08:59:56Z</time>
      </trkpt>
      <trkpt lat="44.11515" lon="5.83218">
        <ele>1599</ele>
        <time>2019-08-09T08:59:57Z</time>
      </trkpt>
      <trkpt lat="44.11515" lon="5.83215">
        <ele>1599</ele>
        <time>2019-08-09T08:59:58Z</time>
      </trkpt>
      <trkpt lat="44.11515" lon="5.83211">
        <ele>1600</ele>
        <time>2019-08-09T08:59:59Z</time>
      </trkpt>
      <trkpt lat="44.11514" lon="5.83208">
        <ele>1600</ele>
        <time>2019-08-09T09:00:00Z</time>
      </trkpt>
      <trkpt lat="44.11513" lon="5.83205">
        <ele>1600</ele>
        <time>2019-08-09T09:00:01Z</time>
      </trkpt>
      <trkpt lat="44.11512" lon="5.83202">
        <ele>1601</ele>
        <time>2019-08-09T09:00:02Z</time>
      </trkpt>
      <trkpt lat="44.11511" lon="5.83198">
        <ele>1601</ele>
        <time>2019-08-09T09:00:03Z</time>
      </trkpt>
      <trkpt lat="44.11509" lon="5.83196">
        <ele>1601</ele>
        <time>2019-08-09T09:00:04Z</time>
      </trkpt>
      <trkpt lat="44.11509" lon="5.83193">
        <ele>1601</ele>
        <time>2019-08-09T09:00:05Z</time>
      </trkpt>
      <trkpt lat="44.11508" lon="5.8319">
        <ele>1602</ele>
        <time>2019-08-09T09:00:06Z</time>
      </trkpt>
      <trkpt lat="44.11508" lon="5.83188">
        <ele>1602</ele>
        <time>2019-08-09T09:00:07Z</time>
      </trkpt>
      <trkpt lat="44.11507" lon="5.83185">
        <ele>1602</ele>
        <time>2019-08-09T09:00:08Z</time>
      </trkpt>
      <trkpt lat="44.11506" lon="5.83182">
        <ele>1602</ele>
        <time>2019-08-09T09:00:09Z</time>
      </trkpt>
      <trkpt lat="44.11505" lon="5.8318">
        <ele>1602</ele>
        <time>2019-08-09T09:00:10Z</time>
      </trkpt>
      <trkpt lat="44.11504" lon="5.83178">
        <ele>1602</ele>
        <time>2019-08-09T09:00:11Z</time>
      </trkpt>
      <trkpt lat="44.11503" lon="5.83174">
        <ele>1602</ele>
        <time>2019-08-09T09:00:12Z</time>
      </trkpt>
      <trkpt lat="44.11503" lon="5.83171">
        <ele>1603</ele>
        <time>2019-08-09T09:00:13Z</time>
      </trkpt>
      <trkpt lat="44.11503" lon="5.83168">
        <ele>1603</ele>
        <time>2019-08-09T09:00:14Z</time>
      </trkpt>
      <trkpt lat="44.11502" lon="5.83164">
        <ele>1603</ele>
        <time>2019-08-09T09:00:15Z</time>
      </trkpt>
      <trkpt lat="44.11501" lon="5.8316">
        <ele>1603</ele>
        <time>2019-08-09T09:00:16Z</time>
      </trkpt>
      <trkpt lat="44.11501" lon="5.83156">
        <ele>1603</ele>
        <time>2019-08-09T09:00:17Z</time>
      </trkpt>
      <trkpt lat="44.115" lon="5.83152">
        <ele>1603</ele>
        <time>2019-08-09T09:00:18Z</time>
      </trkpt>
      <trkpt lat="44.115" lon="5.83147">
        <ele>1603</ele>
        <time>2019-08-09T09:00:19Z</time>
      </trkpt>
      <trkpt lat="44.115" lon="5.83144">
        <ele>1604</ele>
        <time>2019-08-09T09:00:20Z</time>
      </trkpt>
      <trkpt lat="44.11499" lon="5.8314">
        <ele>1604</ele>
        <time>2019-08-09T09:00:21Z</time>
      </trkpt>
      <trkpt lat="44.11499" lon="5.83136">
        <ele>1604</ele>
        <time>2019-08-09T09:00:22Z</time>
      </trkpt>
      <trkpt lat="44.11498" lon="5.83131">
        <ele>1604</ele>
        <time>2019-08-09T09:00:23Z</time>
      </trkpt>
      <trkpt lat="44.11499" lon="5.83127">
        <ele>1604</ele>
        <time>2019-08-09T09:00:24Z</time>
      </trkpt>
      <trkpt lat="44.11498" lon="5.83124">
        <ele>1604</ele>
        <time>2019-08-09T09:00:25Z</time>
      </trkpt>
      <trkpt lat="44.11499" lon="5.8312">
        <ele>1604</ele>
        <time>2019-08-09T09:00:26Z</time>
      </trkpt>
      <trkpt lat="44.11498" lon="5.83116">
        <ele>1604</ele>
        <time>2019-08-09T09:00:27Z</time>
      </trkpt>
      <trkpt lat="44.11498" lon="5.83113">
        <ele>1604</ele>
        <time>2019-08-09T09:00:28Z</time>
      </trkpt>
      <trkpt lat="44.11498" lon="5.83109">
        <ele>1604</ele>
        <time>2019-08-09T09:00:29Z</time>
      </trkpt>
      <trkpt lat="44.11497" lon="5.83105">
        <ele>1604</ele>
        <time>2019-08-09T09:00:30Z</time>
      </trkpt>
      <trkpt lat="44.11497" lon="5.83101">
        <ele>1605</ele>
        <time>2019-08-09T09:00:31Z</time>
      </trkpt>
      <trkpt lat="44.11497" lon="5.83098">
        <ele>1605</ele>
        <time>2019-08-09T09:00:32Z</time>
      </trkpt>
      <trkpt lat="44.11497" lon="5.83094">
        <ele>1605</ele>
        <time>2019-08-09T09:00:33Z</time>
      </trkpt>
      <trkpt lat="44.11497" lon="5.8309">
        <ele>1606</ele>
        <time>2019-08-09T09:00:34Z</time>
      </trkpt>
      <trkpt lat="44.11497" lon="5.83087">
        <ele>1606</ele>
        <time>2019-08-09T09:00:35Z</time>
      </trkpt>
      <trkpt lat="44.11497" lon="5.83083">
        <ele>1606</ele>
        <time>2019-08-09T09:00:36Z</time>
      </trkpt>
      <trkpt lat="44.11497" lon="5.83079">
        <ele>1606</ele>
        <time>2019-08-09T09:00:37Z</time>
      </trkpt>
      <trkpt lat="44.11497" lon="5.83076">
        <ele>1607</ele>
        <time>2019-08-09T09:00:38Z</time>
      </trkpt>
      <trkpt lat="44.11497" lon="5.83072">
        <ele>1607</ele>
        <time>2019-08-09T09:00:39Z</time>
      </trkpt>
      <trkpt lat="44.11498" lon="5.83069">
        <ele>1607</ele>
        <time>2019-08-09T09:00:40Z</time>
      </trkpt>
      <trkpt lat="44.11498" lon="5.83065">
        <ele>1607</ele>
        <time>2019-08-09T09:00:41Z</time>
      </trkpt>
      <trkpt lat="44.11499" lon="5.83062">
        <ele>1607</ele>
        <time>2019-08-09T09:00:42Z</time>
      </trkpt>
      <trkpt lat="44.11499" lon="5.83058">
        <ele>1607</ele>
        <time>2019-08-09T09:00:43Z</time>
      </trkpt>
      <trkpt lat="44.11499" lon="5.83055">
        <ele>1607</ele>
        <time>2019-08-09T09:00:44Z</time>
      </trkpt>
      <trkpt lat="44.11499" lon="5.83051">
        <ele>1607</ele>
        <time>2019-08-09T09:00:45Z</time>
      </trkpt>
      <trkpt lat="44.11499" lon="5.83048">
        <ele>1607</ele>
        <time>2019-08-09T09:00:46Z</time>
      </trkpt>
      <trkpt lat="44.11499" lon="5.83044">
        <ele>1607</ele>
        <time>2019-08-09T09:00:47Z</time>
      </trkpt>
      <trkpt lat="44.11499" lon="5.83041">
        <ele>1607</ele>
        <time>2019-08-09T09:00:48Z</time>
      </trkpt>
      <trkpt lat="44.11499" lon="5.83037">
        <ele>1607</ele>
        <time>2019-08-09T09:00:49Z</time>
      </trkpt>
      <trkpt lat="44.11499" lon="5.83034">
        <ele>1607</ele>
        <time>2019-08-09T09:00:50Z</time>
      </trkpt>
      <trkpt lat="44.115" lon="5.83031">
        <ele>1607</ele>
        <time>2019-08-09T09:00:51Z</time>
      </trkpt>
      <trkpt lat="44.115" lon="5.83028">
        <ele>1607</ele>
        <time>2019-08-09T09:00:52Z</time>
      </trkpt>
      <trkpt lat="44.115" lon="5.83024">
        <ele>1607</ele>
        <time>2019-08-09T09:00:53Z</time>
      </trkpt>
      <trkpt lat="44.11501" lon="5.83021">
        <ele>1607</ele>
        <time>2019-08-09T09:00:54Z</time>
      </trkpt>
      <trkpt lat="44.11501" lon="5.83018">
        <ele>1608</ele>
        <time>2019-08-09T09:00:55Z</time>
      </trkpt>
      <trkpt lat="44.11501" lon="5.83015">
        <ele>1608</ele>
        <time>2019-08-09T09:00:56Z</time>
      </trkpt>
      <trkpt lat="44.11501" lon="5.83012">
        <ele>1608</ele>
        <time>2019-08-09T09:00:57Z</time>
      </trkpt>
      <trkpt lat="44.11502" lon="5.83008">
        <ele>1608</ele>
        <time>2019-08-09T09:00:58Z</time>
      </trkpt>
      <trkpt lat="44.11502" lon="5.83005">
        <ele>1608</ele>
        <time>2019-08-09T09:00:59Z</time>
      </trkpt>
      <trkpt lat="44.11502" lon="5.83002">
        <ele>1608</ele>
        <time>2019-08-09T09:01:00Z</time>
      </trkpt>
      <trkpt lat="44.11503" lon="5.82999">
        <ele>1608</ele>
        <time>2019-08-09T09:01:01Z</time>
      </trkpt>
      <trkpt lat="44.11504" lon="5.82996">
        <ele>1608</ele>
        <time>2019-08-09T09:01:02Z</time>
      </trkpt>
      <trkpt lat="44.11504" lon="5.82993">
        <ele>1608</ele>
        <time>2019-08-09T09:01:03Z</time>
      </trkpt>
      <trkpt lat="44.11505" lon="5.8299">
        <ele>1608</ele>
        <time>2019-08-09T09:01:04Z</time>
      </trkpt>
      <trkpt lat="44.11506" lon="5.82986">
        <ele>1608</ele>
        <time>2019-08-09T09:01:05Z</time>
      </trkpt>
      <trkpt lat="44.11506" lon="5.82983">
        <ele>1608</ele>
        <time>2019-08-09T09:01:06Z</time>
      </trkpt>
      <trkpt lat="44.11507" lon="5.82979">
        <ele>1608</ele>
        <time>2019-08-09T09:01:07Z</time>
      </trkpt>
      <trkpt lat="44.11507" lon="5.82976">
        <ele>1608</ele>
        <time>2019-08-09T09:01:08Z</time>
      </trkpt>
      <trkpt lat="44.11508" lon="5.82972">
        <ele>1608</ele>
        <time>2019-08-09T09:01:09Z</time>
      </trkpt>
      <trkpt lat="44.11509" lon="5.82968">
        <ele>1608</ele>
        <time>2019-08-09T09:01:10Z</time>
      </trkpt>
      <trkpt lat="44.11509" lon="5.82965">
        <ele>1608</ele>
        <time>2019-08-09T09:01:11Z</time>
      </trkpt>
      <trkpt lat="44.1151" lon="5.82961">
        <ele>1608</ele>
        <time>2019-08-09T09:01:12Z</time>
      </trkpt>
      <trkpt lat="44.11511" lon="5.82958">
        <ele>1608</ele>
        <time>2019-08-09T09:01:13Z</time>
      </trkpt>
      <trkpt lat="44.11512" lon="5.82954">
        <ele>1608</ele>
        <time>2019-08-09T09:01:14Z</time>
      </trkpt>
      <trkpt lat="44.11513" lon="5.82951">
        <ele>1608</ele>
        <time>2019-08-09T09:01:15Z</time>
      </trkpt>
      <trkpt lat="44.11514" lon="5.82948">
        <ele>1608</ele>
        <time>2019-08-09T09:01:16Z</time>
      </trkpt>
      <trkpt lat="44.11515" lon="5.82945">
        <ele>1608</ele>
        <time>2019-08-09T09:01:17Z</time>
      </trkpt>
      <trkpt lat="44.11516" lon="5.82942">
        <ele>1608</ele>
        <time>2019-08-09T09:01:18Z</time>
      </trkpt>
      <trkpt lat="44.11517" lon="5.82939">
        <ele>1608</ele>
        <time>2019-08-09T09:01:19Z</time>
      </trkpt>
      <trkpt lat="44.11518" lon="5.82936">
        <ele>1608</ele>
        <time>2019-08-09T09:01:20Z</time>
      </trkpt>
      <trkpt lat="44.11519" lon="5.82933">
        <ele>1608</ele>
        <time>2019-08-09T09:01:21Z</time>
      </trkpt>
      <trkpt lat="44.1152" lon="5.82931">
        <ele>1608</ele>
        <time>2019-08-09T09:01:22Z</time>
      </trkpt>
      <trkpt lat="44.11521" lon="5.82928">
        <ele>1608</ele>
        <time>2019-08-09T09:01:23Z</time>
      </trkpt>
      <trkpt lat="44.11522" lon="5.82925">
        <ele>1608</ele>
        <time>2019-08-09T09:01:24Z</time>
      </trkpt>
      <trkpt lat="44.11523" lon="5.82922">
        <ele>1608</ele>
        <time>2019-08-09T09:01:25Z</time>
      </trkpt>
      <trkpt lat="44.11525" lon="5.8292">
        <ele>1608</ele>
        <time>2019-08-09T09:01:26Z</time>
      </trkpt>
      <trkpt lat="44.11525" lon="5.82916">
        <ele>1608</ele>
        <time>2019-08-09T09:01:27Z</time>
      </trkpt>
      <trkpt lat="44.11526" lon="5.82913">
        <ele>1608</ele>
        <time>2019-08-09T09:01:28Z</time>
      </trkpt>
      <trkpt lat="44.11527" lon="5.8291">
        <ele>1608</ele>
        <time>2019-08-09T09:01:29Z</time>
      </trkpt>
      <trkpt lat="44.11529" lon="5.82907">
        <ele>1608</ele>
        <time>2019-08-09T09:01:30Z</time>
      </trkpt>
      <trkpt lat="44.1153" lon="5.82904">
        <ele>1608</ele>
        <time>2019-08-09T09:01:31Z</time>
      </trkpt>
      <trkpt lat="44.11531" lon="5.82902">
        <ele>1608</ele>
        <time>2019-08-09T09:01:32Z</time>
      </trkpt>
      <trkpt lat="44.11533" lon="5.829">
        <ele>1608</ele>
        <time>2019-08-09T09:01:33Z</time>
      </trkpt>
      <trkpt lat="44.11535" lon="5.82897">
        <ele>1608</ele>
        <time>2019-08-09T09:01:34Z</time>
      </trkpt>
      <trkpt lat="44.11536" lon="5.82895">
        <ele>1608</ele>
        <time>2019-08-09T09:01:35Z</time>
      </trkpt>
      <trkpt lat="44.11538" lon="5.82892">
        <ele>1608</ele>
        <time>2019-08-09T09:01:36Z</time>
      </trkpt>
      <trkpt lat="44.1154" lon="5.8289">
        <ele>1608</ele>
        <time>2019-08-09T09:01:37Z</time>
      </trkpt>
      <trkpt lat="44.11541" lon="5.82887">
        <ele>1608</ele>
        <time>2019-08-09T09:01:38Z</time>
      </trkpt>
      <trkpt lat="44.11544" lon="5.82885">
        <ele>1608</ele>
        <time>2019-08-09T09:01:39Z</time>
      </trkpt>
      <trkpt lat="44.11545" lon="5.82882">
        <ele>1608</ele>
        <time>2019-08-09T09:01:40Z</time>
      </trkpt>
      <trkpt lat="44.11547" lon="5.8288">
        <ele>1608</ele>
        <time>2019-08-09T09:01:41Z</time>
      </trkpt>
      <trkpt lat="44.11548" lon="5.82877">
        <ele>1608</ele>
        <time>2019-08-09T09:01:42Z</time>
      </trkpt>
      <trkpt lat="44.1155" lon="5.82874">
        <ele>1608</ele>
        <time>2019-08-09T09:01:43Z</time>
      </trkpt>
      <trkpt lat="44.11552" lon="5.82871">
        <ele>1608</ele>
        <time>2019-08-09T09:01:44Z</time>
      </trkpt>
      <trkpt lat="44.11553" lon="5.82869">
        <ele>1608</ele>
        <time>2019-08-09T09:01:45Z</time>
      </trkpt>
      <trkpt lat="44.11555" lon="5.82866">
        <ele>1608</ele>
        <time>2019-08-09T09:01:46Z</time>
      </trkpt>
      <trkpt lat="44.11556" lon="5.82863">
        <ele>1608</ele>
        <time>2019-08-09T09:01:47Z</time>
      </trkpt>
      <trkpt lat="44.11558" lon="5.82861">
        <ele>1608</ele>
        <time>2019-08-09T09:01:48Z</time>
      </trkpt>
      <trkpt lat="44.1156" lon="5.82858">
        <ele>1608</ele>
        <time>2019-08-09T09:01:49Z</time>
      </trkpt>
      <trkpt lat="44.11562" lon="5.82855">
        <ele>1608</ele>
        <time>2019-08-09T09:01:50Z</time>
      </trkpt>
      <trkpt lat="44.11563" lon="5.82853">
        <ele>1608</ele>
        <time>2019-08-09T09:01:51Z</time>
      </trkpt>
      <trkpt lat="44.11565" lon="5.8285">
        <ele>1608</ele>
        <time>2019-08-09T09:01:52Z</time>
      </trkpt>
      <trkpt lat="44.11567" lon="5.82847">
        <ele>1608</ele>
        <time>2019-08-09T09:01:53Z</time>
      </trkpt>
      <trkpt lat="44.11569" lon="5.82844">
        <ele>1608</ele>
        <time>2019-08-09T09:01:54Z</time>
      </trkpt>
      <trkpt lat="44.11571" lon="5.82841">
        <ele>1608</ele>
        <time>2019-08-09T09:01:55Z</time>
      </trkpt>
      <trkpt lat="44.11573" lon="5.82839">
        <ele>1608</ele>
        <time>2019-08-09T09:01:56Z</time>
      </trkpt>
      <trkpt lat="44.11575" lon="5.82836">
        <ele>1609</ele>
        <time>2019-08-09T09:01:57Z</time>
      </trkpt>
      <trkpt lat="44.11576" lon="5.82833">
        <ele>1609</ele>
        <time>2019-08-09T09:01:58Z</time>
      </trkpt>
      <trkpt lat="44.11578" lon="5.8283">
        <ele>1609</ele>
        <time>2019-08-09T09:01:59Z</time>
      </trkpt>
      <trkpt lat="44.1158" lon="5.82827">
        <ele>1609</ele>
        <time>2019-08-09T09:02:00Z</time>
      </trkpt>
      <trkpt lat="44.11582" lon="5.82824">
        <ele>1609</ele>
        <time>2019-08-09T09:02:01Z</time>
      </trkpt>
      <trkpt lat="44.11584" lon="5.82822">
        <ele>1609</ele>
        <time>2019-08-09T09:02:02Z</time>
      </trkpt>
      <trkpt lat="44.11585" lon="5.82819">
        <ele>1609</ele>
        <time>2019-08-09T09:02:03Z</time>
      </trkpt>
      <trkpt lat="44.11587" lon="5.82816">
        <ele>1609</ele>
        <time>2019-08-09T09:02:04Z</time>
      </trkpt>
      <trkpt lat="44.11589" lon="5.82813">
        <ele>1610</ele>
        <time>2019-08-09T09:02:05Z</time>
      </trkpt>
      <trkpt lat="44.11591" lon="5.8281">
        <ele>1610</ele>
        <time>2019-08-09T09:02:06Z</time>
      </trkpt>
      <trkpt lat="44.11593" lon="5.82807">
        <ele>1610</ele>
        <time>2019-08-09T09:02:07Z</time>
      </trkpt>
      <trkpt lat="44.11594" lon="5.82804">
        <ele>1610</ele>
        <time>2019-08-09T09:02:08Z</time>
      </trkpt>
      <trkpt lat="44.11596" lon="5.82801">
        <ele>1610</ele>
        <time>2019-08-09T09:02:09Z</time>
      </trkpt>
      <trkpt lat="44.11598" lon="5.82798">
        <ele>1610</ele>
        <time>2019-08-09T09:02:10Z</time>
      </trkpt>
      <trkpt lat="44.11599" lon="5.82795">
        <ele>1610</ele>
        <time>2019-08-09T09:02:11Z</time>
      </trkpt>
      <trkpt lat="44.11601" lon="5.82793">
        <ele>1610</ele>
        <time>2019-08-09T09:02:12Z</time>
      </trkpt>
      <trkpt lat="44.11603" lon="5.8279">
        <ele>1610</ele>
        <time>2019-08-09T09:02:13Z</time>
      </trkpt>
      <trkpt lat="44.11605" lon="5.82787">
        <ele>1610</ele>
        <time>2019-08-09T09:02:14Z</time>
      </trkpt>
      <trkpt lat="44.11606" lon="5.82784">
        <ele>1611</ele>
        <time>2019-08-09T09:02:15Z</time>
      </trkpt>
      <trkpt lat="44.11608" lon="5.8278">
        <ele>1611</ele>
        <time>2019-08-09T09:02:16Z</time>
      </trkpt>
      <trkpt lat="44.1161" lon="5.82777">
        <ele>1611</ele>
        <time>2019-08-09T09:02:17Z</time>
      </trkpt>
      <trkpt lat="44.11611" lon="5.82774">
        <ele>1612</ele>
        <time>2019-08-09T09:02:18Z</time>
      </trkpt>
      <trkpt lat="44.11613" lon="5.82772">
        <ele>1612</ele>
        <time>2019-08-09T09:02:19Z</time>
      </trkpt>
      <trkpt lat="44.11613" lon="5.82769">
        <ele>1613</ele>
        <time>2019-08-09T09:02:20Z</time>
      </trkpt>
      <trkpt lat="44.11615" lon="5.82767">
        <ele>1613</ele>
        <time>2019-08-09T09:02:21Z</time>
      </trkpt>
      <trkpt lat="44.11616" lon="5.82763">
        <ele>1613</ele>
        <time>2019-08-09T09:02:22Z</time>
      </trkpt>
      <trkpt lat="44.11617" lon="5.8276">
        <ele>1614</ele>
        <time>2019-08-09T09:02:23Z</time>
      </trkpt>
      <trkpt lat="44.11619" lon="5.82758">
        <ele>1614</ele>
        <time>2019-08-09T09:02:24Z</time>
      </trkpt>
      <trkpt lat="44.1162" lon="5.82755">
        <ele>1614</ele>
        <time>2019-08-09T09:02:25Z</time>
      </trkpt>
      <trkpt lat="44.11622" lon="5.82752">
        <ele>1614</ele>
        <time>2019-08-09T09:02:26Z</time>
      </trkpt>
      <trkpt lat="44.11623" lon="5.82749">
        <ele>1615</ele>
        <time>2019-08-09T09:02:27Z</time>
      </trkpt>
      <trkpt lat="44.11625" lon="5.82746">
        <ele>1615</ele>
        <time>2019-08-09T09:02:28Z</time>
      </trkpt>
      <trkpt lat="44.11627" lon="5.82743">
        <ele>1615</ele>
        <time>2019-08-09T09:02:29Z</time>
      </trkpt>
      <trkpt lat="44.11629" lon="5.82741">
        <ele>1615</ele>
        <time>2019-08-09T09:02:30Z</time>
      </trkpt>
      <trkpt lat="44.11631" lon="5.82738">
        <ele>1615</ele>
        <time>2019-08-09T09:02:31Z</time>
      </trkpt>
      <trkpt lat="44.11633" lon="5.82736">
        <ele>1616</ele>
        <time>2019-08-09T09:02:32Z</time>
      </trkpt>
      <trkpt lat="44.11635" lon="5.82734">
        <ele>1616</ele>
        <time>2019-08-09T09:02:33Z</time>
      </trkpt>
      <trkpt lat="44.11638" lon="5.82731">
        <ele>1616</ele>
        <time>2019-08-09T09:02:34Z</time>
      </trkpt>
      <trkpt lat="44.1164" lon="5.82729">
        <ele>1616</ele>
        <time>2019-08-09T09:02:35Z</time>
      </trkpt>
      <trkpt lat="44.11642" lon="5.82727">
        <ele>1616</ele>
        <time>2019-08-09T09:02:36Z</time>
      </trkpt>
      <trkpt lat="44.11644" lon="5.82724">
        <ele>1616</ele>
        <time>2019-08-09T09:02:37Z</time>
      </trkpt>
      <trkpt lat="44.11646" lon="5.82723">
        <ele>1616</ele>
        <time>2019-08-09T09:02:38Z</time>
      </trkpt>
      <trkpt lat="44.11649" lon="5.82721">
        <ele>1616</ele>
        <time>2019-08-09T09:02:39Z</time>
      </trkpt>
      <trkpt lat="44.11651" lon="5.82719">
        <ele>1616</ele>
        <time>2019-08-09T09:02:40Z</time>
      </trkpt>
      <trkpt lat="44.11653" lon="5.82717">
        <ele>1616</ele>
        <time>2019-08-09T09:02:41Z</time>
      </trkpt>
      <trkpt lat="44.11655" lon="5.82715">
        <ele>1616</ele>
        <time>2019-08-09T09:02:42Z</time>
      </trkpt>
      <trkpt lat="44.11658" lon="5.82712">
        <ele>1616</ele>
        <time>2019-08-09T09:02:43Z</time>
      </trkpt>
      <trkpt lat="44.1166" lon="5.82709">
        <ele>1616</ele>
        <time>2019-08-09T09:02:44Z</time>
      </trkpt>
      <trkpt lat="44.11663" lon="5.82707">
        <ele>1616</ele>
        <time>2019-08-09T09:02:45Z</time>
      </trkpt>
      <trkpt lat="44.11664" lon="5.82703">
        <ele>1616</ele>
        <time>2019-08-09T09:02:46Z</time>
      </trkpt>
      <trkpt lat="44.11665" lon="5.827">
        <ele>1616</ele>
        <time>2019-08-09T09:02:47Z</time>
      </trkpt>
      <trkpt lat="44.11667" lon="5.82697">
        <ele>1616</ele>
        <time>2019-08-09T09:02:48Z</time>
      </trkpt>
      <trkpt lat="44.11668" lon="5.82694">
        <ele>1616</ele>
        <time>2019-08-09T09:02:49Z</time>
      </trkpt>
      <trkpt lat="44.1167" lon="5.82691">
        <ele>1616</ele>
        <time>2019-08-09T09:02:50Z</time>
      </trkpt>
      <trkpt lat="44.11671" lon="5.82688">
        <ele>1616</ele>
        <time>2019-08-09T09:02:51Z</time>
      </trkpt>
      <trkpt lat="44.11672" lon="5.82685">
        <ele>1616</ele>
        <time>2019-08-09T09:02:52Z</time>
      </trkpt>
      <trkpt lat="44.11673" lon="5.82682">
        <ele>1617</ele>
        <time>2019-08-09T09:02:53Z</time>
      </trkpt>
      <trkpt lat="44.11674" lon="5.82679">
        <ele>1617</ele>
        <time>2019-08-09T09:02:54Z</time>
      </trkpt>
      <trkpt lat="44.11676" lon="5.82676">
        <ele>1618</ele>
        <time>2019-08-09T09:02:55Z</time>
      </trkpt>
      <trkpt lat="44.11677" lon="5.82673">
        <ele>1618</ele>
        <time>2019-08-09T09:02:56Z</time>
      </trkpt>
      <trkpt lat="44.11678" lon="5.8267">
        <ele>1618</ele>
        <time>2019-08-09T09:02:57Z</time>
      </trkpt>
      <trkpt lat="44.11679" lon="5.82667">
        <ele>1619</ele>
        <time>2019-08-09T09:02:58Z</time>
      </trkpt>
      <trkpt lat="44.11681" lon="5.82664">
        <ele>1619</ele>
        <time>2019-08-09T09:02:59Z</time>
      </trkpt>
      <trkpt lat="44.11682" lon="5.82661">
        <ele>1619</ele>
        <time>2019-08-09T09:03:00Z</time>
      </trkpt>
      <trkpt lat="44.11684" lon="5.82659">
        <ele>1620</ele>
        <time>2019-08-09T09:03:01Z</time>
      </trkpt>
      <trkpt lat="44.11686" lon="5.82656">
        <ele>1620</ele>
        <time>2019-08-09T09:03:02Z</time>
      </trkpt>
      <trkpt lat="44.11688" lon="5.82654">
        <ele>1620</ele>
        <time>2019-08-09T09:03:03Z</time>
      </trkpt>
      <trkpt lat="44.11689" lon="5.82651">
        <ele>1620</ele>
        <time>2019-08-09T09:03:04Z</time>
      </trkpt>
      <trkpt lat="44.11691" lon="5.82649">
        <ele>1620</ele>
        <time>2019-08-09T09:03:05Z</time>
      </trkpt>
      <trkpt lat="44.11693" lon="5.82646">
        <ele>1620</ele>
        <time>2019-08-09T09:03:06Z</time>
      </trkpt>
      <trkpt lat="44.11694" lon="5.82643">
        <ele>1620</ele>
        <time>2019-08-09T09:03:07Z</time>
      </trkpt>
      <trkpt lat="44.11696" lon="5.8264">
        <ele>1620</ele>
        <time>2019-08-09T09:03:08Z</time>
      </trkpt>
      <trkpt lat="44.11697" lon="5.82637">
        <ele>1620</ele>
        <time>2019-08-09T09:03:09Z</time>
      </trkpt>
      <trkpt lat="44.11699" lon="5.82634">
        <ele>1621</ele>
        <time>2019-08-09T09:03:10Z</time>
      </trkpt>
      <trkpt lat="44.117" lon="5.82631">
        <ele>1621</ele>
        <time>2019-08-09T09:03:11Z</time>
      </trkpt>
      <trkpt lat="44.11702" lon="5.82628">
        <ele>1621</ele>
        <time>2019-08-09T09:03:12Z</time>
      </trkpt>
      <trkpt lat="44.11703" lon="5.82625">
        <ele>1622</ele>
        <time>2019-08-09T09:03:13Z</time>
      </trkpt>
      <trkpt lat="44.11705" lon="5.82622">
        <ele>1622</ele>
        <time>2019-08-09T09:03:14Z</time>
      </trkpt>
      <trkpt lat="44.11706" lon="5.82619">
        <ele>1622</ele>
        <time>2019-08-09T09:03:15Z</time>
      </trkpt>
      <trkpt lat="44.11707" lon="5.82616">
        <ele>1622</ele>
        <time>2019-08-09T09:03:16Z</time>
      </trkpt>
      <trkpt lat="44.11708" lon="5.82613">
        <ele>1622</ele>
        <time>2019-08-09T09:03:17Z</time>
      </trkpt>
      <trkpt lat="44.1171" lon="5.8261">
        <ele>1622</ele>
        <time>2019-08-09T09:03:18Z</time>
      </trkpt>
      <trkpt lat="44.11711" lon="5.82607">
        <ele>1622</ele>
        <time>2019-08-09T09:03:19Z</time>
      </trkpt>
      <trkpt lat="44.11712" lon="5.82605">
        <ele>1623</ele>
        <time>2019-08-09T09:03:20Z</time>
      </trkpt>
      <trkpt lat="44.11713" lon="5.82602">
        <ele>1623</ele>
        <time>2019-08-09T09:03:21Z</time>
      </trkpt>
      <trkpt lat="44.11715" lon="5.82599">
        <ele>1623</ele>
        <time>2019-08-09T09:03:22Z</time>
      </trkpt>
      <trkpt lat="44.11716" lon="5.82597">
        <ele>1623</ele>
        <time>2019-08-09T09:03:23Z</time>
      </trkpt>
      <trkpt lat="44.11717" lon="5.82594">
        <ele>1624</ele>
        <time>2019-08-09T09:03:24Z</time>
      </trkpt>
      <trkpt lat="44.11718" lon="5.82591">
        <ele>1624</ele>
        <time>2019-08-09T09:03:25Z</time>
      </trkpt>
      <trkpt lat="44.11719" lon="5.82588">
        <ele>1624</ele>
        <time>2019-08-09T09:03:26Z</time>
      </trkpt>
      <trkpt lat="44.1172" lon="5.82585">
        <ele>1625</ele>
        <time>2019-08-09T09:03:27Z</time>
      </trkpt>
      <trkpt lat="44.11721" lon="5.82582">
        <ele>1625</ele>
        <time>2019-08-09T09:03:28Z</time>
      </trkpt>
      <trkpt lat="44.11722" lon="5.82579">
        <ele>1625</ele>
        <time>2019-08-09T09:03:29Z</time>
      </trkpt>
      <trkpt lat="44.11723" lon="5.82576">
        <ele>1626</ele>
        <time>2019-08-09T09:03:30Z</time>
      </trkpt>
      <trkpt lat="44.11724" lon="5.82572">
        <ele>1626</ele>
        <time>2019-08-09T09:03:31Z</time>
      </trkpt>
      <trkpt lat="44.11725" lon="5.82568">
        <ele>1626</ele>
        <time>2019-08-09T09:03:32Z</time>
      </trkpt>
      <trkpt lat="44.11725" lon="5.82565">
        <ele>1626</ele>
        <time>2019-08-09T09:03:33Z</time>
      </trkpt>
      <trkpt lat="44.11726" lon="5.82561">
        <ele>1627</ele>
        <time>2019-08-09T09:03:34Z</time>
      </trkpt>
      <trkpt lat="44.11726" lon="5.82557">
        <ele>1627</ele>
        <time>2019-08-09T09:03:35Z</time>
      </trkpt>
      <trkpt lat="44.11727" lon="5.82554">
        <ele>1627</ele>
        <time>2019-08-09T09:03:36Z</time>
      </trkpt>
      <trkpt lat="44.11728" lon="5.8255">
        <ele>1627</ele>
        <time>2019-08-09T09:03:37Z</time>
      </trkpt>
      <trkpt lat="44.11728" lon="5.82546">
        <ele>1627</ele>
        <time>2019-08-09T09:03:38Z</time>
      </trkpt>
      <trkpt lat="44.11728" lon="5.82543">
        <ele>1627</ele>
        <time>2019-08-09T09:03:39Z</time>
      </trkpt>
      <trkpt lat="44.11729" lon="5.82539">
        <ele>1627</ele>
        <time>2019-08-09T09:03:40Z</time>
      </trkpt>
      <trkpt lat="44.11729" lon="5.82535">
        <ele>1627</ele>
        <time>2019-08-09T09:03:41Z</time>
      </trkpt>
      <trkpt lat="44.11729" lon="5.82531">
        <ele>1628</ele>
        <time>2019-08-09T09:03:42Z</time>
      </trkpt>
      <trkpt lat="44.1173" lon="5.82527">
        <ele>1628</ele>
        <time>2019-08-09T09:03:43Z</time>
      </trkpt>
      <trkpt lat="44.11731" lon="5.82524">
        <ele>1628</ele>
        <time>2019-08-09T09:03:44Z</time>
      </trkpt>
      <trkpt lat="44.11731" lon="5.8252">
        <ele>1628</ele>
        <time>2019-08-09T09:03:45Z</time>
      </trkpt>
      <trkpt lat="44.11732" lon="5.82517">
        <ele>1628</ele>
        <time>2019-08-09T09:03:46Z</time>
      </trkpt>
      <trkpt lat="44.11732" lon="5.82514">
        <ele>1628</ele>
        <time>2019-08-09T09:03:47Z</time>
      </trkpt>
      <trkpt lat="44.11733" lon="5.8251">
        <ele>1628</ele>
        <time>2019-08-09T09:03:48Z</time>
      </trkpt>
      <trkpt lat="44.11734" lon="5.82507">
        <ele>1628</ele>
        <time>2019-08-09T09:03:49Z</time>
      </trkpt>
      <trkpt lat="44.11734" lon="5.82503">
        <ele>1628</ele>
        <time>2019-08-09T09:03:50Z</time>
      </trkpt>
      <trkpt lat="44.11735" lon="5.825">
        <ele>1629</ele>
        <time>2019-08-09T09:03:51Z</time>
      </trkpt>
      <trkpt lat="44.11736" lon="5.82497">
        <ele>1629</ele>
        <time>2019-08-09T09:03:52Z</time>
      </trkpt>
      <trkpt lat="44.11736" lon="5.82493">
        <ele>1629</ele>
        <time>2019-08-09T09:03:53Z</time>
      </trkpt>
      <trkpt lat="44.11737" lon="5.82489">
        <ele>1629</ele>
        <time>2019-08-09T09:03:54Z</time>
      </trkpt>
      <trkpt lat="44.11737" lon="5.82486">
        <ele>1629</ele>
        <time>2019-08-09T09:03:55Z</time>
      </trkpt>
      <trkpt lat="44.11738" lon="5.82482">
        <ele>1629</ele>
        <time>2019-08-09T09:03:56Z</time>
      </trkpt>
      <trkpt lat="44.11739" lon="5.82479">
        <ele>1629</ele>
        <time>2019-08-09T09:03:57Z</time>
      </trkpt>
      <trkpt lat="44.1174" lon="5.82475">
        <ele>1629</ele>
        <time>2019-08-09T09:03:58Z</time>
      </trkpt>
      <trkpt lat="44.1174" lon="5.82472">
        <ele>1629</ele>
        <time>2019-08-09T09:03:59Z</time>
      </trkpt>
      <trkpt lat="44.11741" lon="5.82468">
        <ele>1629</ele>
        <time>2019-08-09T09:04:00Z</time>
      </trkpt>
      <trkpt lat="44.11742" lon="5.82464">
        <ele>1629</ele>
        <time>2019-08-09T09:04:01Z</time>
      </trkpt>
      <trkpt lat="44.11742" lon="5.82461">
        <ele>1629</ele>
        <time>2019-08-09T09:04:02Z</time>
      </trkpt>
      <trkpt lat="44.11742" lon="5.82457">
        <ele>1629</ele>
        <time>2019-08-09T09:04:03Z</time>
      </trkpt>
      <trkpt lat="44.11743" lon="5.82454">
        <ele>1630</ele>
        <time>2019-08-09T09:04:04Z</time>
      </trkpt>
      <trkpt lat="44.11744" lon="5.8245">
        <ele>1630</ele>
        <time>2019-08-09T09:04:05Z</time>
      </trkpt>
      <trkpt lat="44.11744" lon="5.82446">
        <ele>1630</ele>
        <time>2019-08-09T09:04:06Z</time>
      </trkpt>
      <trkpt lat="44.11745" lon="5.82442">
        <ele>1630</ele>
        <time>2019-08-09T09:04:07Z</time>
      </trkpt>
      <trkpt lat="44.11746" lon="5.82439">
        <ele>1630</ele>
        <time>2019-08-09T09:04:08Z</time>
      </trkpt>
      <trkpt lat="44.11746" lon="5.82435">
        <ele>1630</ele>
        <time>2019-08-09T09:04:09Z</time>
      </trkpt>
      <trkpt lat="44.11747" lon="5.82432">
        <ele>1631</ele>
        <time>2019-08-09T09:04:10Z</time>
      </trkpt>
      <trkpt lat="44.11748" lon="5.82428">
        <ele>1631</ele>
        <time>2019-08-09T09:04:11Z</time>
      </trkpt>
      <trkpt lat="44.11749" lon="5.82425">
        <ele>1631</ele>
        <time>2019-08-09T09:04:12Z</time>
      </trkpt>
      <trkpt lat="44.1175" lon="5.82422">
        <ele>1631</ele>
        <time>2019-08-09T09:04:13Z</time>
      </trkpt>
      <trkpt lat="44.11751" lon="5.82419">
        <ele>1631</ele>
        <time>2019-08-09T09:04:14Z</time>
      </trkpt>
      <trkpt lat="44.11751" lon="5.82415">
        <ele>1631</ele>
        <time>2019-08-09T09:04:15Z</time>
      </trkpt>
      <trkpt lat="44.11752" lon="5.82412">
        <ele>1632</ele>
        <time>2019-08-09T09:04:16Z</time>
      </trkpt>
      <trkpt lat="44.11753" lon="5.82409">
        <ele>1632</ele>
        <time>2019-08-09T09:04:17Z</time>
      </trkpt>
      <trkpt lat="44.11754" lon="5.82406">
        <ele>1632</ele>
        <time>2019-08-09T09:04:18Z</time>
      </trkpt>
      <trkpt lat="44.11755" lon="5.82404">
        <ele>1632</ele>
        <time>2019-08-09T09:04:19Z</time>
      </trkpt>
      <trkpt lat="44.11756" lon="5.82401">
        <ele>1632</ele>
        <time>2019-08-09T09:04:20Z</time>
      </trkpt>
      <trkpt lat="44.11757" lon="5.82397">
        <ele>1633</ele>
        <time>2019-08-09T09:04:21Z</time>
      </trkpt>
      <trkpt lat="44.11758" lon="5.82395">
        <ele>1633</ele>
        <time>2019-08-09T09:04:22Z</time>
      </trkpt>
      <trkpt lat="44.11758" lon="5.82392">
        <ele>1633</ele>
        <time>2019-08-09T09:04:23Z</time>
      </trkpt>
      <trkpt lat="44.11759" lon="5.82389">
        <ele>1633</ele>
        <time>2019-08-09T09:04:24Z</time>
      </trkpt>
      <trkpt lat="44.1176" lon="5.82386">
        <ele>1633</ele>
        <time>2019-08-09T09:04:25Z</time>
      </trkpt>
      <trkpt lat="44.11761" lon="5.82383">
        <ele>1633</ele>
        <time>2019-08-09T09:04:26Z</time>
      </trkpt>
      <trkpt lat="44.11762" lon="5.8238">
        <ele>1633</ele>
        <time>2019-08-09T09:04:27Z</time>
      </trkpt>
      <trkpt lat="44.11763" lon="5.82377">
        <ele>1633</ele>
        <time>2019-08-09T09:04:28Z</time>
      </trkpt>
      <trkpt lat="44.11764" lon="5.82374">
        <ele>1633</ele>
        <time>2019-08-09T09:04:29Z</time>
      </trkpt>
      <trkpt lat="44.11765" lon="5.82371">
        <ele>1634</ele>
        <time>2019-08-09T09:04:30Z</time>
      </trkpt>
      <trkpt lat="44.11766" lon="5.82368">
        <ele>1634</ele>
        <time>2019-08-09T09:04:31Z</time>
      </trkpt>
      <trkpt lat="44.11768" lon="5.82364">
        <ele>1634</ele>
        <time>2019-08-09T09:04:32Z</time>
      </trkpt>
      <trkpt lat="44.11769" lon="5.82361">
        <ele>1634</ele>
        <time>2019-08-09T09:04:33Z</time>
      </trkpt>
      <trkpt lat="44.11771" lon="5.82358">
        <ele>1634</ele>
        <time>2019-08-09T09:04:34Z</time>
      </trkpt>
      <trkpt lat="44.11772" lon="5.82354">
        <ele>1635</ele>
        <time>2019-08-09T09:04:35Z</time>
      </trkpt>
      <trkpt lat="44.11773" lon="5.82351">
        <ele>1635</ele>
        <time>2019-08-09T09:04:36Z</time>
      </trkpt>
      <trkpt lat="44.11774" lon="5.82348">
        <ele>1635</ele>
        <time>2019-08-09T09:04:37Z</time>
      </trkpt>
      <trkpt lat="44.11775" lon="5.82344">
        <ele>1635</ele>
        <time>2019-08-09T09:04:38Z</time>
      </trkpt>
      <trkpt lat="44.11776" lon="5.82341">
        <ele>1635</ele>
        <time>2019-08-09T09:04:39Z</time>
      </trkpt>
      <trkpt lat="44.11777" lon="5.82338">
        <ele>1635</ele>
        <time>2019-08-09T09:04:40Z</time>
      </trkpt>
      <trkpt lat="44.11779" lon="5.82334">
        <ele>1635</ele>
        <time>2019-08-09T09:04:41Z</time>
      </trkpt>
      <trkpt lat="44.11781" lon="5.82331">
        <ele>1635</ele>
        <time>2019-08-09T09:04:42Z</time>
      </trkpt>
      <trkpt lat="44.11782" lon="5.82328">
        <ele>1635</ele>
        <time>2019-08-09T09:04:43Z</time>
      </trkpt>
      <trkpt lat="44.11783" lon="5.82325">
        <ele>1635</ele>
        <time>2019-08-09T09:04:44Z</time>
      </trkpt>
      <trkpt lat="44.11784" lon="5.82322">
        <ele>1635</ele>
        <time>2019-08-09T09:04:45Z</time>
      </trkpt>
      <trkpt lat="44.11785" lon="5.82318">
        <ele>1636</ele>
        <time>2019-08-09T09:04:46Z</time>
      </trkpt>
      <trkpt lat="44.11786" lon="5.82315">
        <ele>1636</ele>
        <time>2019-08-09T09:04:47Z</time>
      </trkpt>
      <trkpt lat="44.11787" lon="5.82312">
        <ele>1636</ele>
        <time>2019-08-09T09:04:48Z</time>
      </trkpt>
      <trkpt lat="44.11788" lon="5.82309">
        <ele>1636</ele>
        <time>2019-08-09T09:04:49Z</time>
      </trkpt>
      <trkpt lat="44.11789" lon="5.82306">
        <ele>1636</ele>
        <time>2019-08-09T09:04:50Z</time>
      </trkpt>
      <trkpt lat="44.11791" lon="5.82303">
        <ele>1636</ele>
        <time>2019-08-09T09:04:51Z</time>
      </trkpt>
      <trkpt lat="44.11792" lon="5.82299">
        <ele>1637</ele>
        <time>2019-08-09T09:04:52Z</time>
      </trkpt>
      <trkpt lat="44.11793" lon="5.82296">
        <ele>1637</ele>
        <time>2019-08-09T09:04:53Z</time>
      </trkpt>
      <trkpt lat="44.11795" lon="5.82293">
        <ele>1637</ele>
        <time>2019-08-09T09:04:54Z</time>
      </trkpt>
      <trkpt lat="44.11796" lon="5.8229">
        <ele>1637</ele>
        <time>2019-08-09T09:04:55Z</time>
      </trkpt>
      <trkpt lat="44.11797" lon="5.82287">
        <ele>1637</ele>
        <time>2019-08-09T09:04:56Z</time>
      </trkpt>
      <trkpt lat="44.11798" lon="5.82284">
        <ele>1637</ele>
        <time>2019-08-09T09:04:57Z</time>
      </trkpt>
      <trkpt lat="44.11799" lon="5.82281">
        <ele>1637</ele>
        <time>2019-08-09T09:04:58Z</time>
      </trkpt>
      <trkpt lat="44.118" lon="5.82278">
        <ele>1637</ele>
        <time>2019-08-09T09:04:59Z</time>
      </trkpt>
      <trkpt lat="44.11802" lon="5.82275">
        <ele>1637</ele>
        <time>2019-08-09T09:05:00Z</time>
      </trkpt>
      <trkpt lat="44.11803" lon="5.82272">
        <ele>1638</ele>
        <time>2019-08-09T09:05:01Z</time>
      </trkpt>
      <trkpt lat="44.11804" lon="5.82269">
        <ele>1638</ele>
        <time>2019-08-09T09:05:02Z</time>
      </trkpt>
      <trkpt lat="44.11805" lon="5.82266">
        <ele>1638</ele>
        <time>2019-08-09T09:05:03Z</time>
      </trkpt>
      <trkpt lat="44.11806" lon="5.82263">
        <ele>1638</ele>
        <time>2019-08-09T09:05:04Z</time>
      </trkpt>
      <trkpt lat="44.11808" lon="5.82259">
        <ele>1638</ele>
        <time>2019-08-09T09:05:05Z</time>
      </trkpt>
      <trkpt lat="44.11809" lon="5.82256">
        <ele>1638</ele>
        <time>2019-08-09T09:05:06Z</time>
      </trkpt>
      <trkpt lat="44.1181" lon="5.82253">
        <ele>1638</ele>
        <time>2019-08-09T09:05:07Z</time>
      </trkpt>
      <trkpt lat="44.11811" lon="5.82249">
        <ele>1638</ele>
        <time>2019-08-09T09:05:08Z</time>
      </trkpt>
      <trkpt lat="44.11813" lon="5.82245">
        <ele>1638</ele>
        <time>2019-08-09T09:05:09Z</time>
      </trkpt>
      <trkpt lat="44.11814" lon="5.82242">
        <ele>1638</ele>
        <time>2019-08-09T09:05:10Z</time>
      </trkpt>
      <trkpt lat="44.11815" lon="5.82239">
        <ele>1639</ele>
        <time>2019-08-09T09:05:11Z</time>
      </trkpt>
      <trkpt lat="44.11816" lon="5.82236">
        <ele>1639</ele>
        <time>2019-08-09T09:05:12Z</time>
      </trkpt>
      <trkpt lat="44.11818" lon="5.82233">
        <ele>1639</ele>
        <time>2019-08-09T09:05:13Z</time>
      </trkpt>
      <trkpt lat="44.11819" lon="5.8223">
        <ele>1639</ele>
        <time>2019-08-09T09:05:14Z</time>
      </trkpt>
      <trkpt lat="44.1182" lon="5.82227">
        <ele>1639</ele>
        <time>2019-08-09T09:05:15Z</time>
      </trkpt>
      <trkpt lat="44.11821" lon="5.82224">
        <ele>1639</ele>
        <time>2019-08-09T09:05:16Z</time>
      </trkpt>
      <trkpt lat="44.11822" lon="5.8222">
        <ele>1639</ele>
        <time>2019-08-09T09:05:17Z</time>
      </trkpt>
      <trkpt lat="44.11823" lon="5.82217">
        <ele>1640</ele>
        <time>2019-08-09T09:05:18Z</time>
      </trkpt>
      <trkpt lat="44.11824" lon="5.82214">
        <ele>1640</ele>
        <time>2019-08-09T09:05:19Z</time>
      </trkpt>
      <trkpt lat="44.11825" lon="5.82211">
        <ele>1640</ele>
        <time>2019-08-09T09:05:20Z</time>
      </trkpt>
      <trkpt lat="44.11826" lon="5.82207">
        <ele>1640</ele>
        <time>2019-08-09T09:05:21Z</time>
      </trkpt>
      <trkpt lat="44.11826" lon="5.82204">
        <ele>1640</ele>
        <time>2019-08-09T09:05:22Z</time>
      </trkpt>
      <trkpt lat="44.11827" lon="5.822">
        <ele>1640</ele>
        <time>2019-08-09T09:05:23Z</time>
      </trkpt>
      <trkpt lat="44.11828" lon="5.82197">
        <ele>1641</ele>
        <time>2019-08-09T09:05:24Z</time>
      </trkpt>
      <trkpt lat="44.11829" lon="5.82193">
        <ele>1641</ele>
        <time>2019-08-09T09:05:25Z</time>
      </trkpt>
      <trkpt lat="44.1183" lon="5.8219">
        <ele>1641</ele>
        <time>2019-08-09T09:05:26Z</time>
      </trkpt>
      <trkpt lat="44.11831" lon="5.82186">
        <ele>1641</ele>
        <time>2019-08-09T09:05:27Z</time>
      </trkpt>
      <trkpt lat="44.11831" lon="5.82182">
        <ele>1642</ele>
        <time>2019-08-09T09:05:28Z</time>
      </trkpt>
      <trkpt lat="44.11832" lon="5.82178">
        <ele>1642</ele>
        <time>2019-08-09T09:05:29Z</time>
      </trkpt>
      <trkpt lat="44.11832" lon="5.82174">
        <ele>1642</ele>
        <time>2019-08-09T09:05:30Z</time>
      </trkpt>
      <trkpt lat="44.11833" lon="5.8217">
        <ele>1642</ele>
        <time>2019-08-09T09:05:31Z</time>
      </trkpt>
      <trkpt lat="44.11833" lon="5.82166">
        <ele>1642</ele>
        <time>2019-08-09T09:05:32Z</time>
      </trkpt>
      <trkpt lat="44.11834" lon="5.82163">
        <ele>1643</ele>
        <time>2019-08-09T09:05:33Z</time>
      </trkpt>
      <trkpt lat="44.11835" lon="5.82159">
        <ele>1643</ele>
        <time>2019-08-09T09:05:34Z</time>
      </trkpt>
      <trkpt lat="44.11835" lon="5.82156">
        <ele>1643</ele>
        <time>2019-08-09T09:05:35Z</time>
      </trkpt>
      <trkpt lat="44.11836" lon="5.82152">
        <ele>1643</ele>
        <time>2019-08-09T09:05:36Z</time>
      </trkpt>
      <trkpt lat="44.11836" lon="5.82148">
        <ele>1643</ele>
        <time>2019-08-09T09:05:37Z</time>
      </trkpt>
      <trkpt lat="44.11836" lon="5.82144">
        <ele>1643</ele>
        <time>2019-08-09T09:05:38Z</time>
      </trkpt>
      <trkpt lat="44.11837" lon="5.8214">
        <ele>1643</ele>
        <time>2019-08-09T09:05:39Z</time>
      </trkpt>
      <trkpt lat="44.11837" lon="5.82136">
        <ele>1643</ele>
        <time>2019-08-09T09:05:40Z</time>
      </trkpt>
      <trkpt lat="44.11837" lon="5.82132">
        <ele>1643</ele>
        <time>2019-08-09T09:05:41Z</time>
      </trkpt>
      <trkpt lat="44.11837" lon="5.82129">
        <ele>1644</ele>
        <time>2019-08-09T09:05:42Z</time>
      </trkpt>
      <trkpt lat="44.11838" lon="5.82126">
        <ele>1644</ele>
        <time>2019-08-09T09:05:43Z</time>
      </trkpt>
      <trkpt lat="44.11838" lon="5.82123">
        <ele>1644</ele>
        <time>2019-08-09T09:05:44Z</time>
      </trkpt>
      <trkpt lat="44.11838" lon="5.82119">
        <ele>1644</ele>
        <time>2019-08-09T09:05:45Z</time>
      </trkpt>
      <trkpt lat="44.11839" lon="5.82116">
        <ele>1645</ele>
        <time>2019-08-09T09:05:46Z</time>
      </trkpt>
      <trkpt lat="44.11839" lon="5.82112">
        <ele>1645</ele>
        <time>2019-08-09T09:05:47Z</time>
      </trkpt>
      <trkpt lat="44.11839" lon="5.82108">
        <ele>1645</ele>
        <time>2019-08-09T09:05:48Z</time>
      </trkpt>
      <trkpt lat="44.1184" lon="5.82104">
        <ele>1645</ele>
        <time>2019-08-09T09:05:49Z</time>
      </trkpt>
      <trkpt lat="44.1184" lon="5.82101">
        <ele>1645</ele>
        <time>2019-08-09T09:05:50Z</time>
      </trkpt>
      <trkpt lat="44.1184" lon="5.82097">
        <ele>1645</ele>
        <time>2019-08-09T09:05:51Z</time>
      </trkpt>
      <trkpt lat="44.1184" lon="5.82094">
        <ele>1646</ele>
        <time>2019-08-09T09:05:52Z</time>
      </trkpt>
      <trkpt lat="44.1184" lon="5.8209">
        <ele>1646</ele>
        <time>2019-08-09T09:05:53Z</time>
      </trkpt>
      <trkpt lat="44.1184" lon="5.82087">
        <ele>1646</ele>
        <time>2019-08-09T09:05:54Z</time>
      </trkpt>
      <trkpt lat="44.1184" lon="5.82083">
        <ele>1646</ele>
        <time>2019-08-09T09:05:55Z</time>
      </trkpt>
      <trkpt lat="44.1184" lon="5.82079">
        <ele>1646</ele>
        <time>2019-08-09T09:05:56Z</time>
      </trkpt>
      <trkpt lat="44.1184" lon="5.82076">
        <ele>1646</ele>
        <time>2019-08-09T09:05:57Z</time>
      </trkpt>
      <trkpt lat="44.1184" lon="5.82072">
        <ele>1647</ele>
        <time>2019-08-09T09:05:58Z</time>
      </trkpt>
      <trkpt lat="44.1184" lon="5.82068">
        <ele>1647</ele>
        <time>2019-08-09T09:05:59Z</time>
      </trkpt>
      <trkpt lat="44.1184" lon="5.82065">
        <ele>1647</ele>
        <time>2019-08-09T09:06:00Z</time>
      </trkpt>
      <trkpt lat="44.11839" lon="5.82061">
        <ele>1647</ele>
        <time>2019-08-09T09:06:01Z</time>
      </trkpt>
      <trkpt lat="44.11839" lon="5.82057">
        <ele>1648</ele>
        <time>2019-08-09T09:06:02Z</time>
      </trkpt>
      <trkpt lat="44.11839" lon="5.82054">
        <ele>1648</ele>
        <time>2019-08-09T09:06:03Z</time>
      </trkpt>
      <trkpt lat="44.11839" lon="5.8205">
        <ele>1648</ele>
        <time>2019-08-09T09:06:04Z</time>
      </trkpt>
      <trkpt lat="44.11839" lon="5.82046">
        <ele>1648</ele>
        <time>2019-08-09T09:06:05Z</time>
      </trkpt>
      <trkpt lat="44.11839" lon="5.82043">
        <ele>1648</ele>
        <time>2019-08-09T09:06:06Z</time>
      </trkpt>
      <trkpt lat="44.11838" lon="5.82039">
        <ele>1648</ele>
        <time>2019-08-09T09:06:07Z</time>
      </trkpt>
      <trkpt lat="44.11838" lon="5.82036">
        <ele>1648</ele>
        <time>2019-08-09T09:06:08Z</time>
      </trkpt>
      <trkpt lat="44.11838" lon="5.82032">
        <ele>1648</ele>
        <time>2019-08-09T09:06:09Z</time>
      </trkpt>
      <trkpt lat="44.11837" lon="5.82029">
        <ele>1648</ele>
        <time>2019-08-09T09:06:10Z</time>
      </trkpt>
      <trkpt lat="44.11837" lon="5.82026">
        <ele>1648</ele>
        <time>2019-08-09T09:06:11Z</time>
      </trkpt>
      <trkpt lat="44.11837" lon="5.82022">
        <ele>1648</ele>
        <time>2019-08-09T09:06:12Z</time>
      </trkpt>
      <trkpt lat="44.11836" lon="5.82019">
        <ele>1648</ele>
        <time>2019-08-09T09:06:13Z</time>
      </trkpt>
      <trkpt lat="44.11836" lon="5.82016">
        <ele>1648</ele>
        <time>2019-08-09T09:06:14Z</time>
      </trkpt>
      <trkpt lat="44.11834" lon="5.82012">
        <ele>1648</ele>
        <time>2019-08-09T09:06:15Z</time>
      </trkpt>
      <trkpt lat="44.11834" lon="5.82009">
        <ele>1648</ele>
        <time>2019-08-09T09:06:16Z</time>
      </trkpt>
      <trkpt lat="44.11834" lon="5.82005">
        <ele>1648</ele>
        <time>2019-08-09T09:06:17Z</time>
      </trkpt>
      <trkpt lat="44.11833" lon="5.82002">
        <ele>1648</ele>
        <time>2019-08-09T09:06:18Z</time>
      </trkpt>
      <trkpt lat="44.11833" lon="5.81998">
        <ele>1648</ele>
        <time>2019-08-09T09:06:19Z</time>
      </trkpt>
      <trkpt lat="44.11832" lon="5.81994">
        <ele>1648</ele>
        <time>2019-08-09T09:06:20Z</time>
      </trkpt>
      <trkpt lat="44.11832" lon="5.81991">
        <ele>1648</ele>
        <time>2019-08-09T09:06:21Z</time>
      </trkpt>
      <trkpt lat="44.11831" lon="5.81987">
        <ele>1648</ele>
        <time>2019-08-09T09:06:22Z</time>
      </trkpt>
      <trkpt lat="44.11831" lon="5.81984">
        <ele>1648</ele>
        <time>2019-08-09T09:06:23Z</time>
      </trkpt>
      <trkpt lat="44.1183" lon="5.81981">
        <ele>1648</ele>
        <time>2019-08-09T09:06:24Z</time>
      </trkpt>
      <trkpt lat="44.1183" lon="5.81978">
        <ele>1648</ele>
        <time>2019-08-09T09:06:25Z</time>
      </trkpt>
      <trkpt lat="44.11829" lon="5.81975">
        <ele>1648</ele>
        <time>2019-08-09T09:06:26Z</time>
      </trkpt>
      <trkpt lat="44.11828" lon="5.81971">
        <ele>1648</ele>
        <time>2019-08-09T09:06:27Z</time>
      </trkpt>
      <trkpt lat="44.11827" lon="5.81968">
        <ele>1648</ele>
        <time>2019-08-09T09:06:28Z</time>
      </trkpt>
      <trkpt lat="44.11826" lon="5.81965">
        <ele>1648</ele>
        <time>2019-08-09T09:06:29Z</time>
      </trkpt>
      <trkpt lat="44.11826" lon="5.81961">
        <ele>1648</ele>
        <time>2019-08-09T09:06:30Z</time>
      </trkpt>
      <trkpt lat="44.11825" lon="5.81958">
        <ele>1648</ele>
        <time>2019-08-09T09:06:31Z</time>
      </trkpt>
      <trkpt lat="44.11824" lon="5.81955">
        <ele>1648</ele>
        <time>2019-08-09T09:06:32Z</time>
      </trkpt>
      <trkpt lat="44.11823" lon="5.81951">
        <ele>1648</ele>
        <time>2019-08-09T09:06:33Z</time>
      </trkpt>
      <trkpt lat="44.11823" lon="5.81948">
        <ele>1648</ele>
        <time>2019-08-09T09:06:34Z</time>
      </trkpt>
      <trkpt lat="44.11822" lon="5.81945">
        <ele>1648</ele>
        <time>2019-08-09T09:06:35Z</time>
      </trkpt>
      <trkpt lat="44.11821" lon="5.81941">
        <ele>1648</ele>
        <time>2019-08-09T09:06:36Z</time>
      </trkpt>
      <trkpt lat="44.1182" lon="5.81938">
        <ele>1649</ele>
        <time>2019-08-09T09:06:37Z</time>
      </trkpt>
      <trkpt lat="44.1182" lon="5.81934">
        <ele>1649</ele>
        <time>2019-08-09T09:06:38Z</time>
      </trkpt>
      <trkpt lat="44.11819" lon="5.81931">
        <ele>1649</ele>
        <time>2019-08-09T09:06:39Z</time>
      </trkpt>
      <trkpt lat="44.11818" lon="5.81928">
        <ele>1649</ele>
        <time>2019-08-09T09:06:40Z</time>
      </trkpt>
      <trkpt lat="44.11817" lon="5.81924">
        <ele>1649</ele>
        <time>2019-08-09T09:06:41Z</time>
      </trkpt>
      <trkpt lat="44.11816" lon="5.81921">
        <ele>1649</ele>
        <time>2019-08-09T09:06:42Z</time>
      </trkpt>
      <trkpt lat="44.11816" lon="5.81918">
        <ele>1649</ele>
        <time>2019-08-09T09:06:43Z</time>
      </trkpt>
      <trkpt lat="44.11815" lon="5.81915">
        <ele>1649</ele>
        <time>2019-08-09T09:06:44Z</time>
      </trkpt>
      <trkpt lat="44.11814" lon="5.81911">
        <ele>1650</ele>
        <time>2019-08-09T09:06:45Z</time>
      </trkpt>
      <trkpt lat="44.11813" lon="5.81908">
        <ele>1650</ele>
        <time>2019-08-09T09:06:46Z</time>
      </trkpt>
      <trkpt lat="44.11813" lon="5.81905">
        <ele>1650</ele>
        <time>2019-08-09T09:06:47Z</time>
      </trkpt>
      <trkpt lat="44.11812" lon="5.81901">
        <ele>1650</ele>
        <time>2019-08-09T09:06:48Z</time>
      </trkpt>
      <trkpt lat="44.11811" lon="5.81898">
        <ele>1650</ele>
        <time>2019-08-09T09:06:49Z</time>
      </trkpt>
      <trkpt lat="44.1181" lon="5.81894">
        <ele>1650</ele>
        <time>2019-08-09T09:06:50Z</time>
      </trkpt>
      <trkpt lat="44.11809" lon="5.81891">
        <ele>1650</ele>
        <time>2019-08-09T09:06:51Z</time>
      </trkpt>
      <trkpt lat="44.11808" lon="5.81887">
        <ele>1651</ele>
        <time>2019-08-09T09:06:52Z</time>
      </trkpt>
      <trkpt lat="44.11807" lon="5.81884">
        <ele>1651</ele>
        <time>2019-08-09T09:06:53Z</time>
      </trkpt>
      <trkpt lat="44.11805" lon="5.81881">
        <ele>1651</ele>
        <time>2019-08-09T09:06:54Z</time>
      </trkpt>
      <trkpt lat="44.11805" lon="5.81878">
        <ele>1651</ele>
        <time>2019-08-09T09:06:55Z</time>
      </trkpt>
      <trkpt lat="44.11804" lon="5.81874">
        <ele>1651</ele>
        <time>2019-08-09T09:06:56Z</time>
      </trkpt>
      <trkpt lat="44.11803" lon="5.81871">
        <ele>1651</ele>
        <time>2019-08-09T09:06:57Z</time>
      </trkpt>
      <trkpt lat="44.11801" lon="5.81868">
        <ele>1651</ele>
        <time>2019-08-09T09:06:58Z</time>
      </trkpt>
      <trkpt lat="44.118" lon="5.81865">
        <ele>1651</ele>
        <time>2019-08-09T09:06:59Z</time>
      </trkpt>
      <trkpt lat="44.118" lon="5.81861">
        <ele>1651</ele>
        <time>2019-08-09T09:07:00Z</time>
      </trkpt>
      <trkpt lat="44.11799" lon="5.81858">
        <ele>1651</ele>
        <time>2019-08-09T09:07:01Z</time>
      </trkpt>
      <trkpt lat="44.11797" lon="5.81855">
        <ele>1652</ele>
        <time>2019-08-09T09:07:02Z</time>
      </trkpt>
      <trkpt lat="44.11796" lon="5.81852">
        <ele>1652</ele>
        <time>2019-08-09T09:07:03Z</time>
      </trkpt>
      <trkpt lat="44.11795" lon="5.81849">
        <ele>1652</ele>
        <time>2019-08-09T09:07:04Z</time>
      </trkpt>
      <trkpt lat="44.11794" lon="5.81846">
        <ele>1652</ele>
        <time>2019-08-09T09:07:05Z</time>
      </trkpt>
      <trkpt lat="44.11793" lon="5.81843">
        <ele>1652</ele>
        <time>2019-08-09T09:07:06Z</time>
      </trkpt>
      <trkpt lat="44.11793" lon="5.81839">
        <ele>1652</ele>
        <time>2019-08-09T09:07:07Z</time>
      </trkpt>
      <trkpt lat="44.11792" lon="5.81836">
        <ele>1652</ele>
        <time>2019-08-09T09:07:08Z</time>
      </trkpt>
      <trkpt lat="44.11791" lon="5.81833">
        <ele>1652</ele>
        <time>2019-08-09T09:07:09Z</time>
      </trkpt>
      <trkpt lat="44.1179" lon="5.8183">
        <ele>1652</ele>
        <time>2019-08-09T09:07:10Z</time>
      </trkpt>
      <trkpt lat="44.11789" lon="5.81826">
        <ele>1652</ele>
        <time>2019-08-09T09:07:11Z</time>
      </trkpt>
      <trkpt lat="44.11788" lon="5.81823">
        <ele>1652</ele>
        <time>2019-08-09T09:07:12Z</time>
      </trkpt>
      <trkpt lat="44.11787" lon="5.8182">
        <ele>1653</ele>
        <time>2019-08-09T09:07:13Z</time>
      </trkpt>
      <trkpt lat="44.11785" lon="5.81817">
        <ele>1653</ele>
        <time>2019-08-09T09:07:14Z</time>
      </trkpt>
      <trkpt lat="44.11784" lon="5.81813">
        <ele>1653</ele>
        <time>2019-08-09T09:07:15Z</time>
      </trkpt>
      <trkpt lat="44.11784" lon="5.8181">
        <ele>1653</ele>
        <time>2019-08-09T09:07:16Z</time>
      </trkpt>
      <trkpt lat="44.11783" lon="5.81806">
        <ele>1653</ele>
        <time>2019-08-09T09:07:17Z</time>
      </trkpt>
      <trkpt lat="44.11782" lon="5.81802">
        <ele>1653</ele>
        <time>2019-08-09T09:07:18Z</time>
      </trkpt>
      <trkpt lat="44.11782" lon="5.81798">
        <ele>1653</ele>
        <time>2019-08-09T09:07:19Z</time>
      </trkpt>
      <trkpt lat="44.11781" lon="5.81795">
        <ele>1653</ele>
        <time>2019-08-09T09:07:20Z</time>
      </trkpt>
      <trkpt lat="44.1178" lon="5.81791">
        <ele>1653</ele>
        <time>2019-08-09T09:07:21Z</time>
      </trkpt>
      <trkpt lat="44.1178" lon="5.81788">
        <ele>1653</ele>
        <time>2019-08-09T09:07:22Z</time>
      </trkpt>
      <trkpt lat="44.11779" lon="5.81784">
        <ele>1653</ele>
        <time>2019-08-09T09:07:23Z</time>
      </trkpt>
      <trkpt lat="44.11779" lon="5.8178">
        <ele>1654</ele>
        <time>2019-08-09T09:07:24Z</time>
      </trkpt>
      <trkpt lat="44.11778" lon="5.81777">
        <ele>1654</ele>
        <time>2019-08-09T09:07:25Z</time>
      </trkpt>
      <trkpt lat="44.11778" lon="5.81774">
        <ele>1654</ele>
        <time>2019-08-09T09:07:26Z</time>
      </trkpt>
      <trkpt lat="44.11777" lon="5.8177">
        <ele>1654</ele>
        <time>2019-08-09T09:07:27Z</time>
      </trkpt>
      <trkpt lat="44.11777" lon="5.81767">
        <ele>1654</ele>
        <time>2019-08-09T09:07:28Z</time>
      </trkpt>
      <trkpt lat="44.11776" lon="5.81763">
        <ele>1654</ele>
        <time>2019-08-09T09:07:29Z</time>
      </trkpt>
      <trkpt lat="44.11776" lon="5.8176">
        <ele>1654</ele>
        <time>2019-08-09T09:07:30Z</time>
      </trkpt>
      <trkpt lat="44.11776" lon="5.81757">
        <ele>1654</ele>
        <time>2019-08-09T09:07:31Z</time>
      </trkpt>
      <trkpt lat="44.11776" lon="5.81753">
        <ele>1654</ele>
        <time>2019-08-09T09:07:32Z</time>
      </trkpt>
      <trkpt lat="44.11775" lon="5.81749">
        <ele>1654</ele>
        <time>2019-08-09T09:07:33Z</time>
      </trkpt>
      <trkpt lat="44.11775" lon="5.81746">
        <ele>1655</ele>
        <time>2019-08-09T09:07:34Z</time>
      </trkpt>
      <trkpt lat="44.11775" lon="5.81742">
        <ele>1655</ele>
        <time>2019-08-09T09:07:35Z</time>
      </trkpt>
      <trkpt lat="44.11775" lon="5.81739">
        <ele>1655</ele>
        <time>2019-08-09T09:07:36Z</time>
      </trkpt>
      <trkpt lat="44.11774" lon="5.81735">
        <ele>1655</ele>
        <time>2019-08-09T09:07:37Z</time>
      </trkpt>
      <trkpt lat="44.11775" lon="5.81732">
        <ele>1655</ele>
        <time>2019-08-09T09:07:38Z</time>
      </trkpt>
      <trkpt lat="44.11774" lon="5.81728">
        <ele>1656</ele>
        <time>2019-08-09T09:07:39Z</time>
      </trkpt>
      <trkpt lat="44.11774" lon="5.81725">
        <ele>1656</ele>
        <time>2019-08-09T09:07:40Z</time>
      </trkpt>
      <trkpt lat="44.11774" lon="5.81721">
        <ele>1656</ele>
        <time>2019-08-09T09:07:41Z</time>
      </trkpt>
      <trkpt lat="44.11774" lon="5.81717">
        <ele>1656</ele>
        <time>2019-08-09T09:07:42Z</time>
      </trkpt>
      <trkpt lat="44.11773" lon="5.81714">
        <ele>1656</ele>
        <time>2019-08-09T09:07:43Z</time>
      </trkpt>
      <trkpt lat="44.11773" lon="5.8171">
        <ele>1656</ele>
        <time>2019-08-09T09:07:44Z</time>
      </trkpt>
      <trkpt lat="44.11773" lon="5.81707">
        <ele>1657</ele>
        <time>2019-08-09T09:07:45Z</time>
      </trkpt>
      <trkpt lat="44.11772" lon="5.81703">
        <ele>1657</ele>
        <time>2019-08-09T09:07:46Z</time>
      </trkpt>
      <trkpt lat="44.11771" lon="5.81699">
        <ele>1657</ele>
        <time>2019-08-09T09:07:47Z</time>
      </trkpt>
      <trkpt lat="44.11771" lon="5.81695">
        <ele>1658</ele>
        <time>2019-08-09T09:07:48Z</time>
      </trkpt>
      <trkpt lat="44.1177" lon="5.81691">
        <ele>1659</ele>
        <time>2019-08-09T09:07:49Z</time>
      </trkpt>
      <trkpt lat="44.1177" lon="5.81687">
        <ele>1659</ele>
        <time>2019-08-09T09:07:50Z</time>
      </trkpt>
      <trkpt lat="44.1177" lon="5.81683">
        <ele>1660</ele>
        <time>2019-08-09T09:07:51Z</time>
      </trkpt>
      <trkpt lat="44.11769" lon="5.81679">
        <ele>1661</ele>
        <time>2019-08-09T09:07:52Z</time>
      </trkpt>
      <trkpt lat="44.11769" lon="5.81675">
        <ele>1662</ele>
        <time>2019-08-09T09:07:53Z</time>
      </trkpt>
      <trkpt lat="44.11769" lon="5.81671">
        <ele>1663</ele>
        <time>2019-08-09T09:07:54Z</time>
      </trkpt>
      <trkpt lat="44.11768" lon="5.81666">
        <ele>1664</ele>
        <time>2019-08-09T09:07:55Z</time>
      </trkpt>
      <trkpt lat="44.11768" lon="5.81662">
        <ele>1665</ele>
        <time>2019-08-09T09:07:56Z</time>
      </trkpt>
      <trkpt lat="44.11768" lon="5.81658">
        <ele>1666</ele>
        <time>2019-08-09T09:07:57Z</time>
      </trkpt>
      <trkpt lat="44.11768" lon="5.81653">
        <ele>1666</ele>
        <time>2019-08-09T09:07:58Z</time>
      </trkpt>
      <trkpt lat="44.11767" lon="5.81649">
        <ele>1667</ele>
        <time>2019-08-09T09:07:59Z</time>
      </trkpt>
      <trkpt lat="44.11767" lon="5.81645">
        <ele>1667</ele>
        <time>2019-08-09T09:08:00Z</time>
      </trkpt>
      <trkpt lat="44.11767" lon="5.81641">
        <ele>1667</ele>
        <time>2019-08-09T09:08:01Z</time>
      </trkpt>
      <trkpt lat="44.11767" lon="5.81637">
        <ele>1667</ele>
        <time>2019-08-09T09:08:02Z</time>
      </trkpt>
      <trkpt lat="44.11767" lon="5.81633">
        <ele>1667</ele>
        <time>2019-08-09T09:08:03Z</time>
      </trkpt>
      <trkpt lat="44.11767" lon="5.81628">
        <ele>1667</ele>
        <time>2019-08-09T09:08:04Z</time>
      </trkpt>
      <trkpt lat="44.11767" lon="5.81625">
        <ele>1667</ele>
        <time>2019-08-09T09:08:05Z</time>
      </trkpt>
      <trkpt lat="44.11767" lon="5.81621">
        <ele>1667</ele>
        <time>2019-08-09T09:08:06Z</time>
      </trkpt>
      <trkpt lat="44.11767" lon="5.81618">
        <ele>1667</ele>
        <time>2019-08-09T09:08:07Z</time>
      </trkpt>
      <trkpt lat="44.11766" lon="5.81615">
        <ele>1667</ele>
        <time>2019-08-09T09:08:08Z</time>
      </trkpt>
      <trkpt lat="44.11766" lon="5.81611">
        <ele>1667</ele>
        <time>2019-08-09T09:08:09Z</time>
      </trkpt>
      <trkpt lat="44.11766" lon="5.81608">
        <ele>1667</ele>
        <time>2019-08-09T09:08:10Z</time>
      </trkpt>
      <trkpt lat="44.11766" lon="5.81604">
        <ele>1667</ele>
        <time>2019-08-09T09:08:11Z</time>
      </trkpt>
      <trkpt lat="44.11767" lon="5.81601">
        <ele>1667</ele>
        <time>2019-08-09T09:08:12Z</time>
      </trkpt>
      <trkpt lat="44.11767" lon="5.81598">
        <ele>1667</ele>
        <time>2019-08-09T09:08:13Z</time>
      </trkpt>
      <trkpt lat="44.11767" lon="5.81594">
        <ele>1667</ele>
        <time>2019-08-09T09:08:14Z</time>
      </trkpt>
      <trkpt lat="44.11768" lon="5.8159">
        <ele>1667</ele>
        <time>2019-08-09T09:08:15Z</time>
      </trkpt>
      <trkpt lat="44.11768" lon="5.81587">
        <ele>1667</ele>
        <time>2019-08-09T09:08:16Z</time>
      </trkpt>
      <trkpt lat="44.11769" lon="5.81583">
        <ele>1667</ele>
        <time>2019-08-09T09:08:17Z</time>
      </trkpt>
      <trkpt lat="44.11771" lon="5.8158">
        <ele>1667</ele>
        <time>2019-08-09T09:08:18Z</time>
      </trkpt>
      <trkpt lat="44.11772" lon="5.81577">
        <ele>1667</ele>
        <time>2019-08-09T09:08:19Z</time>
      </trkpt>
      <trkpt lat="44.11774" lon="5.81574">
        <ele>1667</ele>
        <time>2019-08-09T09:08:20Z</time>
      </trkpt>
      <trkpt lat="44.11776" lon="5.81572">
        <ele>1667</ele>
        <time>2019-08-09T09:08:21Z</time>
      </trkpt>
      <trkpt lat="44.11778" lon="5.8157">
        <ele>1668</ele>
        <time>2019-08-09T09:08:22Z</time>
      </trkpt>
      <trkpt lat="44.1178" lon="5.81569">
        <ele>1668</ele>
        <time>2019-08-09T09:08:23Z</time>
      </trkpt>
      <trkpt lat="44.11782" lon="5.81568">
        <ele>1668</ele>
        <time>2019-08-09T09:08:24Z</time>
      </trkpt>
      <trkpt lat="44.11784" lon="5.81567">
        <ele>1668</ele>
        <time>2019-08-09T09:08:25Z</time>
      </trkpt>
      <trkpt lat="44.11786" lon="5.81567">
        <ele>1669</ele>
        <time>2019-08-09T09:08:26Z</time>
      </trkpt>
      <trkpt lat="44.11789" lon="5.81567">
        <ele>1669</ele>
        <time>2019-08-09T09:08:27Z</time>
      </trkpt>
      <trkpt lat="44.11791" lon="5.81567">
        <ele>1669</ele>
        <time>2019-08-09T09:08:28Z</time>
      </trkpt>
      <trkpt lat="44.11793" lon="5.81567">
        <ele>1669</ele>
        <time>2019-08-09T09:08:29Z</time>
      </trkpt>
      <trkpt lat="44.11796" lon="5.81568">
        <ele>1669</ele>
        <time>2019-08-09T09:08:30Z</time>
      </trkpt>
      <trkpt lat="44.11798" lon="5.81568">
        <ele>1669</ele>
        <time>2019-08-09T09:08:31Z</time>
      </trkpt>
      <trkpt lat="44.11801" lon="5.81568">
        <ele>1670</ele>
        <time>2019-08-09T09:08:32Z</time>
      </trkpt>
      <trkpt lat="44.11804" lon="5.81569">
        <ele>1670</ele>
        <time>2019-08-09T09:08:33Z</time>
      </trkpt>
      <trkpt lat="44.11806" lon="5.81571">
        <ele>1670</ele>
        <time>2019-08-09T09:08:34Z</time>
      </trkpt>
      <trkpt lat="44.11809" lon="5.81573">
        <ele>1670</ele>
        <time>2019-08-09T09:08:35Z</time>
      </trkpt>
      <trkpt lat="44.11811" lon="5.81575">
        <ele>1670</ele>
        <time>2019-08-09T09:08:36Z</time>
      </trkpt>
      <trkpt lat="44.11813" lon="5.81577">
        <ele>1671</ele>
        <time>2019-08-09T09:08:37Z</time>
      </trkpt>
      <trkpt lat="44.11816" lon="5.8158">
        <ele>1671</ele>
        <time>2019-08-09T09:08:38Z</time>
      </trkpt>
      <trkpt lat="44.11818" lon="5.81581">
        <ele>1671</ele>
        <time>2019-08-09T09:08:39Z</time>
      </trkpt>
      <trkpt lat="44.11821" lon="5.81583">
        <ele>1671</ele>
        <time>2019-08-09T09:08:40Z</time>
      </trkpt>
      <trkpt lat="44.11824" lon="5.81584">
        <ele>1671</ele>
        <time>2019-08-09T09:08:41Z</time>
      </trkpt>
      <trkpt lat="44.11827" lon="5.81586">
        <ele>1671</ele>
        <time>2019-08-09T09:08:42Z</time>
      </trkpt>
      <trkpt lat="44.11829" lon="5.81588">
        <ele>1672</ele>
        <time>2019-08-09T09:08:43Z</time>
      </trkpt>
      <trkpt lat="44.11832" lon="5.8159">
        <ele>1672</ele>
        <time>2019-08-09T09:08:44Z</time>
      </trkpt>
      <trkpt lat="44.11834" lon="5.81591">
        <ele>1672</ele>
        <time>2019-08-09T09:08:45Z</time>
      </trkpt>
      <trkpt lat="44.11837" lon="5.81593">
        <ele>1672</ele>
        <time>2019-08-09T09:08:46Z</time>
      </trkpt>
      <trkpt lat="44.1184" lon="5.81594">
        <ele>1672</ele>
        <time>2019-08-09T09:08:47Z</time>
      </trkpt>
      <trkpt lat="44.11843" lon="5.81595">
        <ele>1672</ele>
        <time>2019-08-09T09:08:48Z</time>
      </trkpt>
      <trkpt lat="44.11846" lon="5.81596">
        <ele>1672</ele>
        <time>2019-08-09T09:08:49Z</time>
      </trkpt>
      <trkpt lat="44.11849" lon="5.81598">
        <ele>1673</ele>
        <time>2019-08-09T09:08:50Z</time>
      </trkpt>
      <trkpt lat="44.11852" lon="5.81599">
        <ele>1673</ele>
        <time>2019-08-09T09:08:51Z</time>
      </trkpt>
      <trkpt lat="44.11855" lon="5.81601">
        <ele>1673</ele>
        <time>2019-08-09T09:08:52Z</time>
      </trkpt>
      <trkpt lat="44.11858" lon="5.81602">
        <ele>1673</ele>
        <time>2019-08-09T09:08:53Z</time>
      </trkpt>
      <trkpt lat="44.11861" lon="5.81603">
        <ele>1673</ele>
        <time>2019-08-09T09:08:54Z</time>
      </trkpt>
      <trkpt lat="44.11864" lon="5.81605">
        <ele>1674</ele>
        <time>2019-08-09T09:08:55Z</time>
      </trkpt>
      <trkpt lat="44.11866" lon="5.81606">
        <ele>1674</ele>
        <time>2019-08-09T09:08:56Z</time>
      </trkpt>
      <trkpt lat="44.11869" lon="5.81608">
        <ele>1674</ele>
        <time>2019-08-09T09:08:57Z</time>
      </trkpt>
      <trkpt lat="44.11872" lon="5.81611">
        <ele>1674</ele>
        <time>2019-08-09T09:08:58Z</time>
      </trkpt>
      <trkpt lat="44.11875" lon="5.81613">
        <ele>1674</ele>
        <time>2019-08-09T09:08:59Z</time>
      </trkpt>
      <trkpt lat="44.11878" lon="5.81615">
        <ele>1675</ele>
        <time>2019-08-09T09:09:00Z</time>
      </trkpt>
      <trkpt lat="44.1188" lon="5.81618">
        <ele>1675</ele>
        <time>2019-08-09T09:09:01Z</time>
      </trkpt>
      <trkpt lat="44.11883" lon="5.8162">
        <ele>1675</ele>
        <time>2019-08-09T09:09:02Z</time>
      </trkpt>
      <trkpt lat="44.11886" lon="5.81622">
        <ele>1675</ele>
        <time>2019-08-09T09:09:03Z</time>
      </trkpt>
      <trkpt lat="44.11888" lon="5.81625">
        <ele>1675</ele>
        <time>2019-08-09T09:09:04Z</time>
      </trkpt>
      <trkpt lat="44.1189" lon="5.81628">
        <ele>1675</ele>
        <time>2019-08-09T09:09:05Z</time>
      </trkpt>
      <trkpt lat="44.11893" lon="5.8163">
        <ele>1675</ele>
        <time>2019-08-09T09:09:06Z</time>
      </trkpt>
      <trkpt lat="44.11896" lon="5.81633">
        <ele>1676</ele>
        <time>2019-08-09T09:09:07Z</time>
      </trkpt>
      <trkpt lat="44.11898" lon="5.81635">
        <ele>1676</ele>
        <time>2019-08-09T09:09:08Z</time>
      </trkpt>
      <trkpt lat="44.11901" lon="5.81638">
        <ele>1676</ele>
        <time>2019-08-09T09:09:09Z</time>
      </trkpt>
      <trkpt lat="44.11904" lon="5.8164">
        <ele>1676</ele>
        <time>2019-08-09T09:09:10Z</time>
      </trkpt>
      <trkpt lat="44.11907" lon="5.81642">
        <ele>1676</ele>
        <time>2019-08-09T09:09:11Z</time>
      </trkpt>
      <trkpt lat="44.1191" lon="5.81643">
        <ele>1676</ele>
        <time>2019-08-09T09:09:12Z</time>
      </trkpt>
      <trkpt lat="44.11913" lon="5.81643">
        <ele>1677</ele>
        <time>2019-08-09T09:09:13Z</time>
      </trkpt>
      <trkpt lat="44.11916" lon="5.81643">
        <ele>1677</ele>
        <time>2019-08-09T09:09:14Z</time>
      </trkpt>
      <trkpt lat="44.11919" lon="5.81642">
        <ele>1677</ele>
        <time>2019-08-09T09:09:15Z</time>
      </trkpt>
      <trkpt lat="44.11922" lon="5.8164">
        <ele>1677</ele>
        <time>2019-08-09T09:09:16Z</time>
      </trkpt>
      <trkpt lat="44.11924" lon="5.81637">
        <ele>1677</ele>
        <time>2019-08-09T09:09:17Z</time>
      </trkpt>
      <trkpt lat="44.11925" lon="5.81634">
        <ele>1677</ele>
        <time>2019-08-09T09:09:18Z</time>
      </trkpt>
      <trkpt lat="44.11927" lon="5.8163">
        <ele>1677</ele>
        <time>2019-08-09T09:09:19Z</time>
      </trkpt>
      <trkpt lat="44.11927" lon="5.81626">
        <ele>1678</ele>
        <time>2019-08-09T09:09:20Z</time>
      </trkpt>
      <trkpt lat="44.11927" lon="5.81622">
        <ele>1678</ele>
        <time>2019-08-09T09:09:21Z</time>
      </trkpt>
      <trkpt lat="44.11927" lon="5.81618">
        <ele>1678</ele>
        <time>2019-08-09T09:09:22Z</time>
      </trkpt>
      <trkpt lat="44.11927" lon="5.81614">
        <ele>1678</ele>
        <time>2019-08-09T09:09:23Z</time>
      </trkpt>
      <trkpt lat="44.11927" lon="5.8161">
        <ele>1678</ele>
        <time>2019-08-09T09:09:24Z</time>
      </trkpt>
      <trkpt lat="44.11926" lon="5.81606">
        <ele>1679</ele>
        <time>2019-08-09T09:09:25Z</time>
      </trkpt>
      <trkpt lat="44.11925" lon="5.81601">
        <ele>1679</ele>
        <time>2019-08-09T09:09:26Z</time>
      </trkpt>
      <trkpt lat="44.11924" lon="5.81598">
        <ele>1679</ele>
        <time>2019-08-09T09:09:27Z</time>
      </trkpt>
      <trkpt lat="44.11923" lon="5.81594">
        <ele>1679</ele>
        <time>2019-08-09T09:09:28Z</time>
      </trkpt>
      <trkpt lat="44.11922" lon="5.81589">
        <ele>1679</ele>
        <time>2019-08-09T09:09:29Z</time>
      </trkpt>
      <trkpt lat="44.11921" lon="5.81585">
        <ele>1679</ele>
        <time>2019-08-09T09:09:30Z</time>
      </trkpt>
      <trkpt lat="44.1192" lon="5.81581">
        <ele>1679</ele>
        <time>2019-08-09T09:09:31Z</time>
      </trkpt>
      <trkpt lat="44.11919" lon="5.81577">
        <ele>1679</ele>
        <time>2019-08-09T09:09:32Z</time>
      </trkpt>
      <trkpt lat="44.11918" lon="5.81573">
        <ele>1679</ele>
        <time>2019-08-09T09:09:33Z</time>
      </trkpt>
      <trkpt lat="44.11917" lon="5.81569">
        <ele>1679</ele>
        <time>2019-08-09T09:09:34Z</time>
      </trkpt>
      <trkpt lat="44.11916" lon="5.81565">
        <ele>1679</ele>
        <time>2019-08-09T09:09:35Z</time>
      </trkpt>
      <trkpt lat="44.11915" lon="5.81561">
        <ele>1679</ele>
        <time>2019-08-09T09:09:36Z</time>
      </trkpt>
      <trkpt lat="44.11914" lon="5.81556">
        <ele>1679</ele>
        <time>2019-08-09T09:09:37Z</time>
      </trkpt>
      <trkpt lat="44.11913" lon="5.81552">
        <ele>1679</ele>
        <time>2019-08-09T09:09:38Z</time>
      </trkpt>
      <trkpt lat="44.11912" lon="5.81548">
        <ele>1679</ele>
        <time>2019-08-09T09:09:39Z</time>
      </trkpt>
      <trkpt lat="44.11912" lon="5.81544">
        <ele>1679</ele>
        <time>2019-08-09T09:09:40Z</time>
      </trkpt>
      <trkpt lat="44.11911" lon="5.81539">
        <ele>1679</ele>
        <time>2019-08-09T09:09:41Z</time>
      </trkpt>
      <trkpt lat="44.11911" lon="5.81535">
        <ele>1679</ele>
        <time>2019-08-09T09:09:42Z</time>
      </trkpt>
      <trkpt lat="44.1191" lon="5.81531">
        <ele>1679</ele>
        <time>2019-08-09T09:09:43Z</time>
      </trkpt>
      <trkpt lat="44.1191" lon="5.81527">
        <ele>1679</ele>
        <time>2019-08-09T09:09:44Z</time>
      </trkpt>
      <trkpt lat="44.11909" lon="5.81523">
        <ele>1679</ele>
        <time>2019-08-09T09:09:45Z</time>
      </trkpt>
      <trkpt lat="44.11909" lon="5.81519">
        <ele>1679</ele>
        <time>2019-08-09T09:09:46Z</time>
      </trkpt>
      <trkpt lat="44.11909" lon="5.81515">
        <ele>1680</ele>
        <time>2019-08-09T09:09:47Z</time>
      </trkpt>
      <trkpt lat="44.11909" lon="5.81511">
        <ele>1680</ele>
        <time>2019-08-09T09:09:48Z</time>
      </trkpt>
      <trkpt lat="44.11908" lon="5.81507">
        <ele>1680</ele>
        <time>2019-08-09T09:09:49Z</time>
      </trkpt>
      <trkpt lat="44.11908" lon="5.81503">
        <ele>1680</ele>
        <time>2019-08-09T09:09:50Z</time>
      </trkpt>
      <trkpt lat="44.11908" lon="5.81499">
        <ele>1680</ele>
        <time>2019-08-09T09:09:51Z</time>
      </trkpt>
      <trkpt lat="44.11908" lon="5.81494">
        <ele>1680</ele>
        <time>2019-08-09T09:09:52Z</time>
      </trkpt>
      <trkpt lat="44.11909" lon="5.8149">
        <ele>1681</ele>
        <time>2019-08-09T09:09:53Z</time>
      </trkpt>
      <trkpt lat="44.11909" lon="5.81486">
        <ele>1681</ele>
        <time>2019-08-09T09:09:54Z</time>
      </trkpt>
      <trkpt lat="44.11909" lon="5.81482">
        <ele>1681</ele>
        <time>2019-08-09T09:09:55Z</time>
      </trkpt>
      <trkpt lat="44.11909" lon="5.81478">
        <ele>1681</ele>
        <time>2019-08-09T09:09:56Z</time>
      </trkpt>
      <trkpt lat="44.11909" lon="5.81473">
        <ele>1681</ele>
        <time>2019-08-09T09:09:57Z</time>
      </trkpt>
      <trkpt lat="44.11909" lon="5.81469">
        <ele>1681</ele>
        <time>2019-08-09T09:09:58Z</time>
      </trkpt>
      <trkpt lat="44.1191" lon="5.81465">
        <ele>1681</ele>
        <time>2019-08-09T09:09:59Z</time>
      </trkpt>
      <trkpt lat="44.1191" lon="5.81461">
        <ele>1681</ele>
        <time>2019-08-09T09:10:00Z</time>
      </trkpt>
      <trkpt lat="44.11911" lon="5.81458">
        <ele>1681</ele>
        <time>2019-08-09T09:10:01Z</time>
      </trkpt>
      <trkpt lat="44.11911" lon="5.81454">
        <ele>1681</ele>
        <time>2019-08-09T09:10:02Z</time>
      </trkpt>
      <trkpt lat="44.11912" lon="5.8145">
        <ele>1682</ele>
        <time>2019-08-09T09:10:03Z</time>
      </trkpt>
      <trkpt lat="44.11913" lon="5.81447">
        <ele>1682</ele>
        <time>2019-08-09T09:10:04Z</time>
      </trkpt>
      <trkpt lat="44.11914" lon="5.81443">
        <ele>1682</ele>
        <time>2019-08-09T09:10:05Z</time>
      </trkpt>
      <trkpt lat="44.11914" lon="5.81439">
        <ele>1682</ele>
        <time>2019-08-09T09:10:06Z</time>
      </trkpt>
      <trkpt lat="44.11915" lon="5.81436">
        <ele>1682</ele>
        <time>2019-08-09T09:10:07Z</time>
      </trkpt>
      <trkpt lat="44.11916" lon="5.81432">
        <ele>1683</ele>
        <time>2019-08-09T09:10:08Z</time>
      </trkpt>
      <trkpt lat="44.11917" lon="5.81429">
        <ele>1683</ele>
        <time>2019-08-09T09:10:09Z</time>
      </trkpt>
      <trkpt lat="44.11919" lon="5.81425">
        <ele>1683</ele>
        <time>2019-08-09T09:10:10Z</time>
      </trkpt>
      <trkpt lat="44.1192" lon="5.81422">
        <ele>1683</ele>
        <time>2019-08-09T09:10:11Z</time>
      </trkpt>
      <trkpt lat="44.11921" lon="5.81419">
        <ele>1683</ele>
        <time>2019-08-09T09:10:12Z</time>
      </trkpt>
      <trkpt lat="44.11923" lon="5.81415">
        <ele>1683</ele>
        <time>2019-08-09T09:10:13Z</time>
      </trkpt>
      <trkpt lat="44.11924" lon="5.81412">
        <ele>1683</ele>
        <time>2019-08-09T09:10:14Z</time>
      </trkpt>
      <trkpt lat="44.11926" lon="5.81409">
        <ele>1683</ele>
        <time>2019-08-09T09:10:15Z</time>
      </trkpt>
      <trkpt lat="44.11927" lon="5.81405">
        <ele>1683</ele>
        <time>2019-08-09T09:10:16Z</time>
      </trkpt>
      <trkpt lat="44.11929" lon="5.81402">
        <ele>1684</ele>
        <time>2019-08-09T09:10:17Z</time>
      </trkpt>
      <trkpt lat="44.1193" lon="5.81399">
        <ele>1684</ele>
        <time>2019-08-09T09:10:18Z</time>
      </trkpt>
      <trkpt lat="44.11932" lon="5.81396">
        <ele>1684</ele>
        <time>2019-08-09T09:10:19Z</time>
      </trkpt>
      <trkpt lat="44.11933" lon="5.81392">
        <ele>1684</ele>
        <time>2019-08-09T09:10:20Z</time>
      </trkpt>
      <trkpt lat="44.11935" lon="5.81389">
        <ele>1684</ele>
        <time>2019-08-09T09:10:21Z</time>
      </trkpt>
      <trkpt lat="44.11937" lon="5.81386">
        <ele>1685</ele>
        <time>2019-08-09T09:10:22Z</time>
      </trkpt>
      <trkpt lat="44.11939" lon="5.81383">
        <ele>1685</ele>
        <time>2019-08-09T09:10:23Z</time>
      </trkpt>
      <trkpt lat="44.1194" lon="5.8138">
        <ele>1685</ele>
        <time>2019-08-09T09:10:24Z</time>
      </trkpt>
      <trkpt lat="44.11942" lon="5.81377">
        <ele>1685</ele>
        <time>2019-08-09T09:10:25Z</time>
      </trkpt>
      <trkpt lat="44.11943" lon="5.81374">
        <ele>1685</ele>
        <time>2019-08-09T09:10:26Z</time>
      </trkpt>
      <trkpt lat="44.11945" lon="5.81371">
        <ele>1686</ele>
        <time>2019-08-09T09:10:27Z</time>
      </trkpt>
      <trkpt lat="44.11946" lon="5.81368">
        <ele>1686</ele>
        <time>2019-08-09T09:10:28Z</time>
      </trkpt>
      <trkpt lat="44.11948" lon="5.81365">
        <ele>1686</ele>
        <time>2019-08-09T09:10:29Z</time>
      </trkpt>
      <trkpt lat="44.1195" lon="5.81362">
        <ele>1686</ele>
        <time>2019-08-09T09:10:30Z</time>
      </trkpt>
      <trkpt lat="44.11952" lon="5.81359">
        <ele>1687</ele>
        <time>2019-08-09T09:10:31Z</time>
      </trkpt>
      <trkpt lat="44.11953" lon="5.81356">
        <ele>1687</ele>
        <time>2019-08-09T09:10:32Z</time>
      </trkpt>
      <trkpt lat="44.11955" lon="5.81353">
        <ele>1687</ele>
        <time>2019-08-09T09:10:33Z</time>
      </trkpt>
      <trkpt lat="44.11957" lon="5.81351">
        <ele>1687</ele>
        <time>2019-08-09T09:10:34Z</time>
      </trkpt>
      <trkpt lat="44.11958" lon="5.81348">
        <ele>1687</ele>
        <time>2019-08-09T09:10:35Z</time>
      </trkpt>
      <trkpt lat="44.1196" lon="5.81345">
        <ele>1687</ele>
        <time>2019-08-09T09:10:36Z</time>
      </trkpt>
      <trkpt lat="44.11962" lon="5.81342">
        <ele>1688</ele>
        <time>2019-08-09T09:10:37Z</time>
      </trkpt>
      <trkpt lat="44.11964" lon="5.8134">
        <ele>1688</ele>
        <time>2019-08-09T09:10:38Z</time>
      </trkpt>
      <trkpt lat="44.11966" lon="5.81337">
        <ele>1688</ele>
        <time>2019-08-09T09:10:39Z</time>
      </trkpt>
      <trkpt lat="44.11968" lon="5.81335">
        <ele>1688</ele>
        <time>2019-08-09T09:10:40Z</time>
      </trkpt>
      <trkpt lat="44.1197" lon="5.81333">
        <ele>1688</ele>
        <time>2019-08-09T09:10:41Z</time>
      </trkpt>
      <trkpt lat="44.11972" lon="5.81331">
        <ele>1689</ele>
        <time>2019-08-09T09:10:42Z</time>
      </trkpt>
      <trkpt lat="44.11974" lon="5.81329">
        <ele>1689</ele>
        <time>2019-08-09T09:10:43Z</time>
      </trkpt>
      <trkpt lat="44.11976" lon="5.81327">
        <ele>1689</ele>
        <time>2019-08-09T09:10:44Z</time>
      </trkpt>
      <trkpt lat="44.11978" lon="5.81325">
        <ele>1689</ele>
        <time>2019-08-09T09:10:45Z</time>
      </trkpt>
      <trkpt lat="44.1198" lon="5.81322">
        <ele>1689</ele>
        <time>2019-08-09T09:10:46Z</time>
      </trkpt>
      <trkpt lat="44.11982" lon="5.8132">
        <ele>1689</ele>
        <time>2019-08-09T09:10:47Z</time>
      </trkpt>
      <trkpt lat="44.11984" lon="5.81318">
        <ele>1689</ele>
        <time>2019-08-09T09:10:48Z</time>
      </trkpt>
      <trkpt lat="44.11986" lon="5.81316">
        <ele>1690</ele>
        <time>2019-08-09T09:10:49Z</time>
      </trkpt>
      <trkpt lat="44.11988" lon="5.81314">
        <ele>1690</ele>
        <time>2019-08-09T09:10:50Z</time>
      </trkpt>
      <trkpt lat="44.1199" lon="5.81313">
        <ele>1690</ele>
        <time>2019-08-09T09:10:51Z</time>
      </trkpt>
      <trkpt lat="44.11992" lon="5.81311">
        <ele>1690</ele>
        <time>2019-08-09T09:10:52Z</time>
      </trkpt>
      <trkpt lat="44.11993" lon="5.81309">
        <ele>1690</ele>
        <time>2019-08-09T09:10:53Z</time>
      </trkpt>
      <trkpt lat="44.11995" lon="5.81307">
        <ele>1690</ele>
        <time>2019-08-09T09:10:54Z</time>
      </trkpt>
      <trkpt lat="44.11997" lon="5.81304">
        <ele>1690</ele>
        <time>2019-08-09T09:10:55Z</time>
      </trkpt>
      <trkpt lat="44.12" lon="5.81302">
        <ele>1690</ele>
        <time>2019-08-09T09:10:56Z</time>
      </trkpt>
      <trkpt lat="44.12002" lon="5.81301">
        <ele>1691</ele>
        <time>2019-08-09T09:10:57Z</time>
      </trkpt>
      <trkpt lat="44.12004" lon="5.81298">
        <ele>1691</ele>
        <time>2019-08-09T09:10:58Z</time>
      </trkpt>
      <trkpt lat="44.12006" lon="5.81296">
        <ele>1691</ele>
        <time>2019-08-09T09:10:59Z</time>
      </trkpt>
      <trkpt lat="44.12008" lon="5.81294">
        <ele>1691</ele>
        <time>2019-08-09T09:11:00Z</time>
      </trkpt>
      <trkpt lat="44.12011" lon="5.81291">
        <ele>1691</ele>
        <time>2019-08-09T09:11:01Z</time>
      </trkpt>
      <trkpt lat="44.12013" lon="5.81289">
        <ele>1691</ele>
        <time>2019-08-09T09:11:02Z</time>
      </trkpt>
      <trkpt lat="44.12015" lon="5.81287">
        <ele>1692</ele>
        <time>2019-08-09T09:11:03Z</time>
      </trkpt>
      <trkpt lat="44.12017" lon="5.81285">
        <ele>1692</ele>
        <time>2019-08-09T09:11:04Z</time>
      </trkpt>
      <trkpt lat="44.12019" lon="5.81282">
        <ele>1692</ele>
        <time>2019-08-09T09:11:05Z</time>
      </trkpt>
      <trkpt lat="44.12021" lon="5.8128">
        <ele>1692</ele>
        <time>2019-08-09T09:11:06Z</time>
      </trkpt>
      <trkpt lat="44.12023" lon="5.81278">
        <ele>1692</ele>
        <time>2019-08-09T09:11:07Z</time>
      </trkpt>
      <trkpt lat="44.12025" lon="5.81276">
        <ele>1692</ele>
        <time>2019-08-09T09:11:08Z</time>
      </trkpt>
      <trkpt lat="44.12027" lon="5.81274">
        <ele>1692</ele>
        <time>2019-08-09T09:11:09Z</time>
      </trkpt>
      <trkpt lat="44.1203" lon="5.81272">
        <ele>1693</ele>
        <time>2019-08-09T09:11:10Z</time>
      </trkpt>
      <trkpt lat="44.12032" lon="5.81269">
        <ele>1693</ele>
        <time>2019-08-09T09:11:11Z</time>
      </trkpt>
      <trkpt lat="44.12034" lon="5.81267">
        <ele>1693</ele>
        <time>2019-08-09T09:11:12Z</time>
      </trkpt>
      <trkpt lat="44.12036" lon="5.81265">
        <ele>1693</ele>
        <time>2019-08-09T09:11:13Z</time>
      </trkpt>
      <trkpt lat="44.12038" lon="5.81263">
        <ele>1693</ele>
        <time>2019-08-09T09:11:14Z</time>
      </trkpt>
      <trkpt lat="44.1204" lon="5.81261">
        <ele>1694</ele>
        <time>2019-08-09T09:11:15Z</time>
      </trkpt>
      <trkpt lat="44.12042" lon="5.81259">
        <ele>1694</ele>
        <time>2019-08-09T09:11:16Z</time>
      </trkpt>
      <trkpt lat="44.12045" lon="5.81256">
        <ele>1694</ele>
        <time>2019-08-09T09:11:17Z</time>
      </trkpt>
      <trkpt lat="44.12047" lon="5.81254">
        <ele>1694</ele>
        <time>2019-08-09T09:11:18Z</time>
      </trkpt>
      <trkpt lat="44.12049" lon="5.81252">
        <ele>1694</ele>
        <time>2019-08-09T09:11:19Z</time>
      </trkpt>
      <trkpt lat="44.12051" lon="5.8125">
        <ele>1694</ele>
        <time>2019-08-09T09:11:20Z</time>
      </trkpt>
      <trkpt lat="44.12054" lon="5.81248">
        <ele>1695</ele>
        <time>2019-08-09T09:11:21Z</time>
      </trkpt>
      <trkpt lat="44.12056" lon="5.81246">
        <ele>1695</ele>
        <time>2019-08-09T09:11:22Z</time>
      </trkpt>
      <trkpt lat="44.12059" lon="5.81244">
        <ele>1695</ele>
        <time>2019-08-09T09:11:23Z</time>
      </trkpt>
      <trkpt lat="44.12061" lon="5.81242">
        <ele>1695</ele>
        <time>2019-08-09T09:11:24Z</time>
      </trkpt>
      <trkpt lat="44.12063" lon="5.8124">
        <ele>1695</ele>
        <time>2019-08-09T09:11:25Z</time>
      </trkpt>
      <trkpt lat="44.12066" lon="5.81238">
        <ele>1696</ele>
        <time>2019-08-09T09:11:26Z</time>
      </trkpt>
      <trkpt lat="44.12068" lon="5.81235">
        <ele>1696</ele>
        <time>2019-08-09T09:11:27Z</time>
      </trkpt>
      <trkpt lat="44.1207" lon="5.81233">
        <ele>1696</ele>
        <time>2019-08-09T09:11:28Z</time>
      </trkpt>
      <trkpt lat="44.12072" lon="5.81231">
        <ele>1696</ele>
        <time>2019-08-09T09:11:29Z</time>
      </trkpt>
      <trkpt lat="44.12075" lon="5.8123">
        <ele>1697</ele>
        <time>2019-08-09T09:11:30Z</time>
      </trkpt>
      <trkpt lat="44.12077" lon="5.81228">
        <ele>1697</ele>
        <time>2019-08-09T09:11:31Z</time>
      </trkpt>
      <trkpt lat="44.12079" lon="5.81225">
        <ele>1697</ele>
        <time>2019-08-09T09:11:32Z</time>
      </trkpt>
      <trkpt lat="44.12081" lon="5.81223">
        <ele>1697</ele>
        <time>2019-08-09T09:11:33Z</time>
      </trkpt>
      <trkpt lat="44.12084" lon="5.81221">
        <ele>1697</ele>
        <time>2019-08-09T09:11:34Z</time>
      </trkpt>
      <trkpt lat="44.12086" lon="5.81219">
        <ele>1698</ele>
        <time>2019-08-09T09:11:35Z</time>
      </trkpt>
      <trkpt lat="44.12088" lon="5.81217">
        <ele>1698</ele>
        <time>2019-08-09T09:11:36Z</time>
      </trkpt>
      <trkpt lat="44.12091" lon="5.81215">
        <ele>1698</ele>
        <time>2019-08-09T09:11:37Z</time>
      </trkpt>
      <trkpt lat="44.12093" lon="5.81213">
        <ele>1698</ele>
        <time>2019-08-09T09:11:38Z</time>
      </trkpt>
      <trkpt lat="44.12094" lon="5.81211">
        <ele>1699</ele>
        <time>2019-08-09T09:11:39Z</time>
      </trkpt>
      <trkpt lat="44.12096" lon="5.81209">
        <ele>1699</ele>
        <time>2019-08-09T09:11:40Z</time>
      </trkpt>
      <trkpt lat="44.12099" lon="5.81207">
        <ele>1699</ele>
        <time>2019-08-09T09:11:41Z</time>
      </trkpt>
      <trkpt lat="44.12101" lon="5.81204">
        <ele>1699</ele>
        <time>2019-08-09T09:11:42Z</time>
      </trkpt>
      <trkpt lat="44.12104" lon="5.81201">
        <ele>1699</ele>
        <time>2019-08-09T09:11:43Z</time>
      </trkpt>
      <trkpt lat="44.12106" lon="5.81198">
        <ele>1699</ele>
        <time>2019-08-09T09:11:44Z</time>
      </trkpt>
      <trkpt lat="44.12109" lon="5.81194">
        <ele>1700</ele>
        <time>2019-08-09T09:11:45Z</time>
      </trkpt>
      <trkpt lat="44.12111" lon="5.81191">
        <ele>1700</ele>
        <time>2019-08-09T09:11:46Z</time>
      </trkpt>
      <trkpt lat="44.12112" lon="5.81187">
        <ele>1700</ele>
        <time>2019-08-09T09:11:47Z</time>
      </trkpt>
      <trkpt lat="44.12113" lon="5.81183">
        <ele>1700</ele>
        <time>2019-08-09T09:11:48Z</time>
      </trkpt>
      <trkpt lat="44.12114" lon="5.81178">
        <ele>1700</ele>
        <time>2019-08-09T09:11:49Z</time>
      </trkpt>
      <trkpt lat="44.12114" lon="5.81174">
        <ele>1701</ele>
        <time>2019-08-09T09:11:50Z</time>
      </trkpt>
      <trkpt lat="44.12113" lon="5.8117">
        <ele>1701</ele>
        <time>2019-08-09T09:11:51Z</time>
      </trkpt>
      <trkpt lat="44.12111" lon="5.81166">
        <ele>1701</ele>
        <time>2019-08-09T09:11:52Z</time>
      </trkpt>
      <trkpt lat="44.12109" lon="5.81163">
        <ele>1701</ele>
        <time>2019-08-09T09:11:53Z</time>
      </trkpt>
      <trkpt lat="44.12107" lon="5.81159">
        <ele>1701</ele>
        <time>2019-08-09T09:11:54Z</time>
      </trkpt>
      <trkpt lat="44.12105" lon="5.81156">
        <ele>1702</ele>
        <time>2019-08-09T09:11:55Z</time>
      </trkpt>
      <trkpt lat="44.12103" lon="5.81152">
        <ele>1702</ele>
        <time>2019-08-09T09:11:56Z</time>
      </trkpt>
      <trkpt lat="44.12101" lon="5.8115">
        <ele>1702</ele>
        <time>2019-08-09T09:11:57Z</time>
      </trkpt>
      <trkpt lat="44.12099" lon="5.81148">
        <ele>1702</ele>
        <time>2019-08-09T09:11:58Z</time>
      </trkpt>
      <trkpt lat="44.12097" lon="5.81145">
        <ele>1702</ele>
        <time>2019-08-09T09:11:59Z</time>
      </trkpt>
      <trkpt lat="44.12095" lon="5.81143">
        <ele>1702</ele>
        <time>2019-08-09T09:12:00Z</time>
      </trkpt>
      <trkpt lat="44.12093" lon="5.81141">
        <ele>1702</ele>
        <time>2019-08-09T09:12:01Z</time>
      </trkpt>
      <trkpt lat="44.12091" lon="5.81138">
        <ele>1703</ele>
        <time>2019-08-09T09:12:02Z</time>
      </trkpt>
      <trkpt lat="44.12089" lon="5.81135">
        <ele>1703</ele>
        <time>2019-08-09T09:12:03Z</time>
      </trkpt>
      <trkpt lat="44.12087" lon="5.81133">
        <ele>1703</ele>
        <time>2019-08-09T09:12:04Z</time>
      </trkpt>
      <trkpt lat="44.12085" lon="5.8113">
        <ele>1703</ele>
        <time>2019-08-09T09:12:05Z</time>
      </trkpt>
      <trkpt lat="44.12083" lon="5.81128">
        <ele>1703</ele>
        <time>2019-08-09T09:12:06Z</time>
      </trkpt>
      <trkpt lat="44.12082" lon="5.81125">
        <ele>1703</ele>
        <time>2019-08-09T09:12:07Z</time>
      </trkpt>
      <trkpt lat="44.1208" lon="5.81122">
        <ele>1704</ele>
        <time>2019-08-09T09:12:08Z</time>
      </trkpt>
      <trkpt lat="44.12079" lon="5.81119">
        <ele>1704</ele>
        <time>2019-08-09T09:12:09Z</time>
      </trkpt>
      <trkpt lat="44.12078" lon="5.81116">
        <ele>1704</ele>
        <time>2019-08-09T09:12:10Z</time>
      </trkpt>
      <trkpt lat="44.12077" lon="5.81113">
        <ele>1704</ele>
        <time>2019-08-09T09:12:11Z</time>
      </trkpt>
      <trkpt lat="44.12077" lon="5.8111">
        <ele>1704</ele>
        <time>2019-08-09T09:12:12Z</time>
      </trkpt>
      <trkpt lat="44.12076" lon="5.81106">
        <ele>1704</ele>
        <time>2019-08-09T09:12:13Z</time>
      </trkpt>
      <trkpt lat="44.12076" lon="5.81102">
        <ele>1704</ele>
        <time>2019-08-09T09:12:14Z</time>
      </trkpt>
      <trkpt lat="44.12076" lon="5.81099">
        <ele>1705</ele>
        <time>2019-08-09T09:12:15Z</time>
      </trkpt>
      <trkpt lat="44.12076" lon="5.81095">
        <ele>1705</ele>
        <time>2019-08-09T09:12:16Z</time>
      </trkpt>
      <trkpt lat="44.12077" lon="5.81092">
        <ele>1705</ele>
        <time>2019-08-09T09:12:17Z</time>
      </trkpt>
      <trkpt lat="44.12078" lon="5.81088">
        <ele>1705</ele>
        <time>2019-08-09T09:12:18Z</time>
      </trkpt>
      <trkpt lat="44.12079" lon="5.81085">
        <ele>1705</ele>
        <time>2019-08-09T09:12:19Z</time>
      </trkpt>
      <trkpt lat="44.1208" lon="5.81083">
        <ele>1705</ele>
        <time>2019-08-09T09:12:20Z</time>
      </trkpt>
      <trkpt lat="44.12081" lon="5.8108">
        <ele>1706</ele>
        <time>2019-08-09T09:12:21Z</time>
      </trkpt>
      <trkpt lat="44.12083" lon="5.81077">
        <ele>1706</ele>
        <time>2019-08-09T09:12:22Z</time>
      </trkpt>
      <trkpt lat="44.12084" lon="5.81074">
        <ele>1706</ele>
        <time>2019-08-09T09:12:23Z</time>
      </trkpt>
      <trkpt lat="44.12085" lon="5.81072">
        <ele>1706</ele>
        <time>2019-08-09T09:12:24Z</time>
      </trkpt>
      <trkpt lat="44.12087" lon="5.81069">
        <ele>1706</ele>
        <time>2019-08-09T09:12:25Z</time>
      </trkpt>
      <trkpt lat="44.12088" lon="5.81066">
        <ele>1706</ele>
        <time>2019-08-09T09:12:26Z</time>
      </trkpt>
      <trkpt lat="44.1209" lon="5.81064">
        <ele>1706</ele>
        <time>2019-08-09T09:12:27Z</time>
      </trkpt>
      <trkpt lat="44.12091" lon="5.81061">
        <ele>1706</ele>
        <time>2019-08-09T09:12:28Z</time>
      </trkpt>
      <trkpt lat="44.12092" lon="5.81058">
        <ele>1707</ele>
        <time>2019-08-09T09:12:29Z</time>
      </trkpt>
      <trkpt lat="44.12094" lon="5.81055">
        <ele>1707</ele>
        <time>2019-08-09T09:12:30Z</time>
      </trkpt>
      <trkpt lat="44.12095" lon="5.81052">
        <ele>1707</ele>
        <time>2019-08-09T09:12:31Z</time>
      </trkpt>
      <trkpt lat="44.12096" lon="5.8105">
        <ele>1707</ele>
        <time>2019-08-09T09:12:32Z</time>
      </trkpt>
      <trkpt lat="44.12098" lon="5.81047">
        <ele>1707</ele>
        <time>2019-08-09T09:12:33Z</time>
      </trkpt>
      <trkpt lat="44.12099" lon="5.81044">
        <ele>1707</ele>
        <time>2019-08-09T09:12:34Z</time>
      </trkpt>
      <trkpt lat="44.121" lon="5.81041">
        <ele>1707</ele>
        <time>2019-08-09T09:12:35Z</time>
      </trkpt>
      <trkpt lat="44.12102" lon="5.81038">
        <ele>1707</ele>
        <time>2019-08-09T09:12:36Z</time>
      </trkpt>
      <trkpt lat="44.12103" lon="5.81035">
        <ele>1707</ele>
        <time>2019-08-09T09:12:37Z</time>
      </trkpt>
      <trkpt lat="44.12104" lon="5.81032">
        <ele>1708</ele>
        <time>2019-08-09T09:12:38Z</time>
      </trkpt>
      <trkpt lat="44.12106" lon="5.81029">
        <ele>1708</ele>
        <time>2019-08-09T09:12:39Z</time>
      </trkpt>
      <trkpt lat="44.12107" lon="5.81026">
        <ele>1708</ele>
        <time>2019-08-09T09:12:40Z</time>
      </trkpt>
      <trkpt lat="44.12108" lon="5.81022">
        <ele>1708</ele>
        <time>2019-08-09T09:12:41Z</time>
      </trkpt>
      <trkpt lat="44.1211" lon="5.81019">
        <ele>1708</ele>
        <time>2019-08-09T09:12:42Z</time>
      </trkpt>
      <trkpt lat="44.12111" lon="5.81016">
        <ele>1708</ele>
        <time>2019-08-09T09:12:43Z</time>
      </trkpt>
      <trkpt lat="44.12112" lon="5.81013">
        <ele>1708</ele>
        <time>2019-08-09T09:12:44Z</time>
      </trkpt>
      <trkpt lat="44.12112" lon="5.8101">
        <ele>1708</ele>
        <time>2019-08-09T09:12:45Z</time>
      </trkpt>
      <trkpt lat="44.12113" lon="5.81006">
        <ele>1709</ele>
        <time>2019-08-09T09:12:46Z</time>
      </trkpt>
      <trkpt lat="44.12114" lon="5.81003">
        <ele>1709</ele>
        <time>2019-08-09T09:12:47Z</time>
      </trkpt>
      <trkpt lat="44.12115" lon="5.81">
        <ele>1709</ele>
        <time>2019-08-09T09:12:48Z</time>
      </trkpt>
      <trkpt lat="44.12116" lon="5.80997">
        <ele>1709</ele>
        <time>2019-08-09T09:12:49Z</time>
      </trkpt>
      <trkpt lat="44.12117" lon="5.80994">
        <ele>1709</ele>
        <time>2019-08-09T09:12:50Z</time>
      </trkpt>
      <trkpt lat="44.12117" lon="5.80991">
        <ele>1710</ele>
        <time>2019-08-09T09:12:51Z</time>
      </trkpt>
      <trkpt lat="44.12118" lon="5.80988">
        <ele>1710</ele>
        <time>2019-08-09T09:12:52Z</time>
      </trkpt>
      <trkpt lat="44.12119" lon="5.80985">
        <ele>1710</ele>
        <time>2019-08-09T09:12:53Z</time>
      </trkpt>
      <trkpt lat="44.12119" lon="5.80982">
        <ele>1710</ele>
        <time>2019-08-09T09:12:54Z</time>
      </trkpt>
      <trkpt lat="44.1212" lon="5.80978">
        <ele>1710</ele>
        <time>2019-08-09T09:12:55Z</time>
      </trkpt>
      <trkpt lat="44.1212" lon="5.80975">
        <ele>1710</ele>
        <time>2019-08-09T09:12:56Z</time>
      </trkpt>
      <trkpt lat="44.12121" lon="5.80971">
        <ele>1711</ele>
        <time>2019-08-09T09:12:57Z</time>
      </trkpt>
      <trkpt lat="44.12121" lon="5.80968">
        <ele>1711</ele>
        <time>2019-08-09T09:12:58Z</time>
      </trkpt>
      <trkpt lat="44.12122" lon="5.80964">
        <ele>1711</ele>
        <time>2019-08-09T09:12:59Z</time>
      </trkpt>
      <trkpt lat="44.12122" lon="5.80961">
        <ele>1711</ele>
        <time>2019-08-09T09:13:00Z</time>
      </trkpt>
      <trkpt lat="44.12123" lon="5.80957">
        <ele>1711</ele>
        <time>2019-08-09T09:13:01Z</time>
      </trkpt>
      <trkpt lat="44.12123" lon="5.80953">
        <ele>1711</ele>
        <time>2019-08-09T09:13:02Z</time>
      </trkpt>
      <trkpt lat="44.12124" lon="5.80949">
        <ele>1711</ele>
        <time>2019-08-09T09:13:03Z</time>
      </trkpt>
      <trkpt lat="44.12124" lon="5.80945">
        <ele>1711</ele>
        <time>2019-08-09T09:13:04Z</time>
      </trkpt>
      <trkpt lat="44.12125" lon="5.80941">
        <ele>1711</ele>
        <time>2019-08-09T09:13:05Z</time>
      </trkpt>
      <trkpt lat="44.12125" lon="5.80938">
        <ele>1711</ele>
        <time>2019-08-09T09:13:06Z</time>
      </trkpt>
      <trkpt lat="44.12126" lon="5.80934">
        <ele>1711</ele>
        <time>2019-08-09T09:13:07Z</time>
      </trkpt>
      <trkpt lat="44.12126" lon="5.8093">
        <ele>1711</ele>
        <time>2019-08-09T09:13:08Z</time>
      </trkpt>
      <trkpt lat="44.12126" lon="5.80926">
        <ele>1711</ele>
        <time>2019-08-09T09:13:09Z</time>
      </trkpt>
      <trkpt lat="44.12127" lon="5.80923">
        <ele>1711</ele>
        <time>2019-08-09T09:13:10Z</time>
      </trkpt>
      <trkpt lat="44.12127" lon="5.80919">
        <ele>1711</ele>
        <time>2019-08-09T09:13:11Z</time>
      </trkpt>
      <trkpt lat="44.12128" lon="5.80914">
        <ele>1711</ele>
        <time>2019-08-09T09:13:12Z</time>
      </trkpt>
      <trkpt lat="44.12128" lon="5.8091">
        <ele>1712</ele>
        <time>2019-08-09T09:13:13Z</time>
      </trkpt>
      <trkpt lat="44.12128" lon="5.80906">
        <ele>1712</ele>
        <time>2019-08-09T09:13:14Z</time>
      </trkpt>
      <trkpt lat="44.12128" lon="5.80902">
        <ele>1712</ele>
        <time>2019-08-09T09:13:15Z</time>
      </trkpt>
      <trkpt lat="44.12128" lon="5.80899">
        <ele>1712</ele>
        <time>2019-08-09T09:13:16Z</time>
      </trkpt>
      <trkpt lat="44.12129" lon="5.80895">
        <ele>1712</ele>
        <time>2019-08-09T09:13:17Z</time>
      </trkpt>
      <trkpt lat="44.12129" lon="5.80891">
        <ele>1712</ele>
        <time>2019-08-09T09:13:18Z</time>
      </trkpt>
      <trkpt lat="44.1213" lon="5.80887">
        <ele>1712</ele>
        <time>2019-08-09T09:13:19Z</time>
      </trkpt>
      <trkpt lat="44.1213" lon="5.80883">
        <ele>1712</ele>
        <time>2019-08-09T09:13:20Z</time>
      </trkpt>
      <trkpt lat="44.1213" lon="5.80879">
        <ele>1712</ele>
        <time>2019-08-09T09:13:21Z</time>
      </trkpt>
      <trkpt lat="44.1213" lon="5.80875">
        <ele>1712</ele>
        <time>2019-08-09T09:13:22Z</time>
      </trkpt>
      <trkpt lat="44.1213" lon="5.80871">
        <ele>1712</ele>
        <time>2019-08-09T09:13:23Z</time>
      </trkpt>
      <trkpt lat="44.1213" lon="5.80867">
        <ele>1712</ele>
        <time>2019-08-09T09:13:24Z</time>
      </trkpt>
      <trkpt lat="44.1213" lon="5.80864">
        <ele>1712</ele>
        <time>2019-08-09T09:13:25Z</time>
      </trkpt>
      <trkpt lat="44.12131" lon="5.8086">
        <ele>1712</ele>
        <time>2019-08-09T09:13:26Z</time>
      </trkpt>
      <trkpt lat="44.12132" lon="5.80856">
        <ele>1712</ele>
        <time>2019-08-09T09:13:27Z</time>
      </trkpt>
      <trkpt lat="44.12132" lon="5.80852">
        <ele>1713</ele>
        <time>2019-08-09T09:13:28Z</time>
      </trkpt>
      <trkpt lat="44.12132" lon="5.80848">
        <ele>1713</ele>
        <time>2019-08-09T09:13:29Z</time>
      </trkpt>
      <trkpt lat="44.12133" lon="5.80844">
        <ele>1713</ele>
        <time>2019-08-09T09:13:30Z</time>
      </trkpt>
      <trkpt lat="44.12133" lon="5.8084">
        <ele>1713</ele>
        <time>2019-08-09T09:13:31Z</time>
      </trkpt>
      <trkpt lat="44.12133" lon="5.80837">
        <ele>1713</ele>
        <time>2019-08-09T09:13:32Z</time>
      </trkpt>
      <trkpt lat="44.12134" lon="5.80833">
        <ele>1713</ele>
        <time>2019-08-09T09:13:33Z</time>
      </trkpt>
      <trkpt lat="44.12135" lon="5.80829">
        <ele>1713</ele>
        <time>2019-08-09T09:13:34Z</time>
      </trkpt>
      <trkpt lat="44.12135" lon="5.80825">
        <ele>1713</ele>
        <time>2019-08-09T09:13:35Z</time>
      </trkpt>
      <trkpt lat="44.12136" lon="5.80821">
        <ele>1714</ele>
        <time>2019-08-09T09:13:36Z</time>
      </trkpt>
      <trkpt lat="44.12137" lon="5.80818">
        <ele>1714</ele>
        <time>2019-08-09T09:13:37Z</time>
      </trkpt>
      <trkpt lat="44.12138" lon="5.80814">
        <ele>1714</ele>
        <time>2019-08-09T09:13:38Z</time>
      </trkpt>
      <trkpt lat="44.12139" lon="5.8081">
        <ele>1714</ele>
        <time>2019-08-09T09:13:39Z</time>
      </trkpt>
      <trkpt lat="44.1214" lon="5.80806">
        <ele>1714</ele>
        <time>2019-08-09T09:13:40Z</time>
      </trkpt>
      <trkpt lat="44.12141" lon="5.80802">
        <ele>1714</ele>
        <time>2019-08-09T09:13:41Z</time>
      </trkpt>
      <trkpt lat="44.12142" lon="5.80798">
        <ele>1714</ele>
        <time>2019-08-09T09:13:42Z</time>
      </trkpt>
      <trkpt lat="44.12143" lon="5.80795">
        <ele>1714</ele>
        <time>2019-08-09T09:13:43Z</time>
      </trkpt>
      <trkpt lat="44.12143" lon="5.80791">
        <ele>1714</ele>
        <time>2019-08-09T09:13:44Z</time>
      </trkpt>
      <trkpt lat="44.12144" lon="5.80787">
        <ele>1715</ele>
        <time>2019-08-09T09:13:45Z</time>
      </trkpt>
      <trkpt lat="44.12145" lon="5.80784">
        <ele>1715</ele>
        <time>2019-08-09T09:13:46Z</time>
      </trkpt>
      <trkpt lat="44.12146" lon="5.8078">
        <ele>1715</ele>
        <time>2019-08-09T09:13:47Z</time>
      </trkpt>
      <trkpt lat="44.12146" lon="5.80776">
        <ele>1715</ele>
        <time>2019-08-09T09:13:48Z</time>
      </trkpt>
      <trkpt lat="44.12146" lon="5.80773">
        <ele>1715</ele>
        <time>2019-08-09T09:13:49Z</time>
      </trkpt>
      <trkpt lat="44.12146" lon="5.80769">
        <ele>1715</ele>
        <time>2019-08-09T09:13:50Z</time>
      </trkpt>
      <trkpt lat="44.12145" lon="5.80766">
        <ele>1715</ele>
        <time>2019-08-09T09:13:51Z</time>
      </trkpt>
      <trkpt lat="44.12144" lon="5.80763">
        <ele>1715</ele>
        <time>2019-08-09T09:13:52Z</time>
      </trkpt>
      <trkpt lat="44.12142" lon="5.80761">
        <ele>1716</ele>
        <time>2019-08-09T09:13:53Z</time>
      </trkpt>
      <trkpt lat="44.12141" lon="5.80758">
        <ele>1716</ele>
        <time>2019-08-09T09:13:54Z</time>
      </trkpt>
      <trkpt lat="44.12139" lon="5.80756">
        <ele>1717</ele>
        <time>2019-08-09T09:13:55Z</time>
      </trkpt>
      <trkpt lat="44.12137" lon="5.80754">
        <ele>1717</ele>
        <time>2019-08-09T09:13:56Z</time>
      </trkpt>
      <trkpt lat="44.12136" lon="5.80752">
        <ele>1717</ele>
        <time>2019-08-09T09:13:57Z</time>
      </trkpt>
      <trkpt lat="44.12134" lon="5.80751">
        <ele>1718</ele>
        <time>2019-08-09T09:13:58Z</time>
      </trkpt>
      <trkpt lat="44.12132" lon="5.80749">
        <ele>1718</ele>
        <time>2019-08-09T09:13:59Z</time>
      </trkpt>
      <trkpt lat="44.1213" lon="5.80747">
        <ele>1718</ele>
        <time>2019-08-09T09:14:00Z</time>
      </trkpt>
      <trkpt lat="44.12128" lon="5.80745">
        <ele>1718</ele>
        <time>2019-08-09T09:14:01Z</time>
      </trkpt>
      <trkpt lat="44.12126" lon="5.80742">
        <ele>1719</ele>
        <time>2019-08-09T09:14:02Z</time>
      </trkpt>
      <trkpt lat="44.12124" lon="5.80739">
        <ele>1719</ele>
        <time>2019-08-09T09:14:03Z</time>
      </trkpt>
      <trkpt lat="44.12122" lon="5.80737">
        <ele>1719</ele>
        <time>2019-08-09T09:14:04Z</time>
      </trkpt>
      <trkpt lat="44.1212" lon="5.80734">
        <ele>1719</ele>
        <time>2019-08-09T09:14:05Z</time>
      </trkpt>
      <trkpt lat="44.12119" lon="5.8073">
        <ele>1719</ele>
        <time>2019-08-09T09:14:06Z</time>
      </trkpt>
      <trkpt lat="44.12117" lon="5.80727">
        <ele>1719</ele>
        <time>2019-08-09T09:14:07Z</time>
      </trkpt>
      <trkpt lat="44.12115" lon="5.80724">
        <ele>1719</ele>
        <time>2019-08-09T09:14:08Z</time>
      </trkpt>
      <trkpt lat="44.12113" lon="5.80721">
        <ele>1719</ele>
        <time>2019-08-09T09:14:09Z</time>
      </trkpt>
      <trkpt lat="44.12112" lon="5.80718">
        <ele>1720</ele>
        <time>2019-08-09T09:14:10Z</time>
      </trkpt>
      <trkpt lat="44.12111" lon="5.80715">
        <ele>1720</ele>
        <time>2019-08-09T09:14:11Z</time>
      </trkpt>
      <trkpt lat="44.12109" lon="5.80711">
        <ele>1720</ele>
        <time>2019-08-09T09:14:12Z</time>
      </trkpt>
      <trkpt lat="44.12108" lon="5.80708">
        <ele>1720</ele>
        <time>2019-08-09T09:14:13Z</time>
      </trkpt>
      <trkpt lat="44.12107" lon="5.80704">
        <ele>1720</ele>
        <time>2019-08-09T09:14:14Z</time>
      </trkpt>
      <trkpt lat="44.12106" lon="5.807">
        <ele>1721</ele>
        <time>2019-08-09T09:14:15Z</time>
      </trkpt>
      <trkpt lat="44.12106" lon="5.80697">
        <ele>1721</ele>
        <time>2019-08-09T09:14:16Z</time>
      </trkpt>
      <trkpt lat="44.12105" lon="5.80693">
        <ele>1721</ele>
        <time>2019-08-09T09:14:17Z</time>
      </trkpt>
      <trkpt lat="44.12104" lon="5.80689">
        <ele>1721</ele>
        <time>2019-08-09T09:14:18Z</time>
      </trkpt>
      <trkpt lat="44.12103" lon="5.80686">
        <ele>1721</ele>
        <time>2019-08-09T09:14:19Z</time>
      </trkpt>
      <trkpt lat="44.12102" lon="5.80682">
        <ele>1721</ele>
        <time>2019-08-09T09:14:20Z</time>
      </trkpt>
      <trkpt lat="44.12101" lon="5.80679">
        <ele>1722</ele>
        <time>2019-08-09T09:14:21Z</time>
      </trkpt>
      <trkpt lat="44.12101" lon="5.80675">
        <ele>1722</ele>
        <time>2019-08-09T09:14:22Z</time>
      </trkpt>
      <trkpt lat="44.121" lon="5.80671">
        <ele>1722</ele>
        <time>2019-08-09T09:14:23Z</time>
      </trkpt>
      <trkpt lat="44.12099" lon="5.80667">
        <ele>1722</ele>
        <time>2019-08-09T09:14:24Z</time>
      </trkpt>
      <trkpt lat="44.12098" lon="5.80664">
        <ele>1722</ele>
        <time>2019-08-09T09:14:25Z</time>
      </trkpt>
      <trkpt lat="44.12097" lon="5.8066">
        <ele>1722</ele>
        <time>2019-08-09T09:14:26Z</time>
      </trkpt>
      <trkpt lat="44.12097" lon="5.80656">
        <ele>1722</ele>
        <time>2019-08-09T09:14:27Z</time>
      </trkpt>
      <trkpt lat="44.12096" lon="5.80652">
        <ele>1723</ele>
        <time>2019-08-09T09:14:28Z</time>
      </trkpt>
      <trkpt lat="44.12095" lon="5.80648">
        <ele>1723</ele>
        <time>2019-08-09T09:14:29Z</time>
      </trkpt>
      <trkpt lat="44.12094" lon="5.80645">
        <ele>1723</ele>
        <time>2019-08-09T09:14:30Z</time>
      </trkpt>
      <trkpt lat="44.12093" lon="5.80641">
        <ele>1723</ele>
        <time>2019-08-09T09:14:31Z</time>
      </trkpt>
      <trkpt lat="44.12092" lon="5.80637">
        <ele>1723</ele>
        <time>2019-08-09T09:14:32Z</time>
      </trkpt>
      <trkpt lat="44.12091" lon="5.80633">
        <ele>1723</ele>
        <time>2019-08-09T09:14:33Z</time>
      </trkpt>
      <trkpt lat="44.1209" lon="5.80629">
        <ele>1723</ele>
        <time>2019-08-09T09:14:34Z</time>
      </trkpt>
      <trkpt lat="44.12089" lon="5.80625">
        <ele>1723</ele>
        <time>2019-08-09T09:14:35Z</time>
      </trkpt>
      <trkpt lat="44.12088" lon="5.80621">
        <ele>1723</ele>
        <time>2019-08-09T09:14:36Z</time>
      </trkpt>
      <trkpt lat="44.12087" lon="5.80618">
        <ele>1723</ele>
        <time>2019-08-09T09:14:37Z</time>
      </trkpt>
      <trkpt lat="44.12086" lon="5.80614">
        <ele>1723</ele>
        <time>2019-08-09T09:14:38Z</time>
      </trkpt>
      <trkpt lat="44.12084" lon="5.8061">
        <ele>1723</ele>
        <time>2019-08-09T09:14:39Z</time>
      </trkpt>
      <trkpt lat="44.12083" lon="5.80607">
        <ele>1723</ele>
        <time>2019-08-09T09:14:40Z</time>
      </trkpt>
      <trkpt lat="44.12082" lon="5.80603">
        <ele>1724</ele>
        <time>2019-08-09T09:14:41Z</time>
      </trkpt>
      <trkpt lat="44.1208" lon="5.80599">
        <ele>1724</ele>
        <time>2019-08-09T09:14:42Z</time>
      </trkpt>
      <trkpt lat="44.12079" lon="5.80596">
        <ele>1724</ele>
        <time>2019-08-09T09:14:43Z</time>
      </trkpt>
      <trkpt lat="44.12077" lon="5.80592">
        <ele>1724</ele>
        <time>2019-08-09T09:14:44Z</time>
      </trkpt>
      <trkpt lat="44.12076" lon="5.80588">
        <ele>1724</ele>
        <time>2019-08-09T09:14:45Z</time>
      </trkpt>
      <trkpt lat="44.12075" lon="5.80585">
        <ele>1725</ele>
        <time>2019-08-09T09:14:46Z</time>
      </trkpt>
      <trkpt lat="44.12073" lon="5.80581">
        <ele>1725</ele>
        <time>2019-08-09T09:14:47Z</time>
      </trkpt>
      <trkpt lat="44.12072" lon="5.80578">
        <ele>1725</ele>
        <time>2019-08-09T09:14:48Z</time>
      </trkpt>
      <trkpt lat="44.12071" lon="5.80574">
        <ele>1725</ele>
        <time>2019-08-09T09:14:49Z</time>
      </trkpt>
      <trkpt lat="44.12069" lon="5.80571">
        <ele>1726</ele>
        <time>2019-08-09T09:14:50Z</time>
      </trkpt>
      <trkpt lat="44.12068" lon="5.80567">
        <ele>1726</ele>
        <time>2019-08-09T09:14:51Z</time>
      </trkpt>
      <trkpt lat="44.12066" lon="5.80563">
        <ele>1726</ele>
        <time>2019-08-09T09:14:52Z</time>
      </trkpt>
      <trkpt lat="44.12064" lon="5.8056">
        <ele>1726</ele>
        <time>2019-08-09T09:14:53Z</time>
      </trkpt>
      <trkpt lat="44.12063" lon="5.80556">
        <ele>1726</ele>
        <time>2019-08-09T09:14:54Z</time>
      </trkpt>
      <trkpt lat="44.12061" lon="5.80553">
        <ele>1726</ele>
        <time>2019-08-09T09:14:55Z</time>
      </trkpt>
      <trkpt lat="44.1206" lon="5.80551">
        <ele>1727</ele>
        <time>2019-08-09T09:14:56Z</time>
      </trkpt>
      <trkpt lat="44.12058" lon="5.80548">
        <ele>1727</ele>
        <time>2019-08-09T09:14:57Z</time>
      </trkpt>
      <trkpt lat="44.12056" lon="5.80544">
        <ele>1727</ele>
        <time>2019-08-09T09:14:58Z</time>
      </trkpt>
      <trkpt lat="44.12054" lon="5.8054">
        <ele>1727</ele>
        <time>2019-08-09T09:14:59Z</time>
      </trkpt>
      <trkpt lat="44.12052" lon="5.80536">
        <ele>1727</ele>
        <time>2019-08-09T09:15:00Z</time>
      </trkpt>
      <trkpt lat="44.12051" lon="5.80532">
        <ele>1727</ele>
        <time>2019-08-09T09:15:01Z</time>
      </trkpt>
      <trkpt lat="44.12049" lon="5.80528">
        <ele>1728</ele>
        <time>2019-08-09T09:15:02Z</time>
      </trkpt>
      <trkpt lat="44.12047" lon="5.80524">
        <ele>1728</ele>
        <time>2019-08-09T09:15:03Z</time>
      </trkpt>
      <trkpt lat="44.12045" lon="5.80521">
        <ele>1728</ele>
        <time>2019-08-09T09:15:04Z</time>
      </trkpt>
      <trkpt lat="44.12044" lon="5.80517">
        <ele>1728</ele>
        <time>2019-08-09T09:15:05Z</time>
      </trkpt>
      <trkpt lat="44.12042" lon="5.80513">
        <ele>1728</ele>
        <time>2019-08-09T09:15:06Z</time>
      </trkpt>
      <trkpt lat="44.12041" lon="5.8051">
        <ele>1728</ele>
        <time>2019-08-09T09:15:07Z</time>
      </trkpt>
      <trkpt lat="44.12039" lon="5.80507">
        <ele>1729</ele>
        <time>2019-08-09T09:15:08Z</time>
      </trkpt>
      <trkpt lat="44.12037" lon="5.80503">
        <ele>1729</ele>
        <time>2019-08-09T09:15:09Z</time>
      </trkpt>
      <trkpt lat="44.12035" lon="5.805">
        <ele>1729</ele>
        <time>2019-08-09T09:15:10Z</time>
      </trkpt>
      <trkpt lat="44.12034" lon="5.80496">
        <ele>1729</ele>
        <time>2019-08-09T09:15:11Z</time>
      </trkpt>
      <trkpt lat="44.12032" lon="5.80493">
        <ele>1730</ele>
        <time>2019-08-09T09:15:12Z</time>
      </trkpt>
      <trkpt lat="44.12031" lon="5.80489">
        <ele>1730</ele>
        <time>2019-08-09T09:15:13Z</time>
      </trkpt>
      <trkpt lat="44.12029" lon="5.80486">
        <ele>1730</ele>
        <time>2019-08-09T09:15:14Z</time>
      </trkpt>
      <trkpt lat="44.12028" lon="5.80483">
        <ele>1730</ele>
        <time>2019-08-09T09:15:15Z</time>
      </trkpt>
      <trkpt lat="44.12026" lon="5.80479">
        <ele>1730</ele>
        <time>2019-08-09T09:15:16Z</time>
      </trkpt>
      <trkpt lat="44.12025" lon="5.80476">
        <ele>1731</ele>
        <time>2019-08-09T09:15:17Z</time>
      </trkpt>
      <trkpt lat="44.12023" lon="5.80472">
        <ele>1731</ele>
        <time>2019-08-09T09:15:18Z</time>
      </trkpt>
      <trkpt lat="44.12022" lon="5.80469">
        <ele>1731</ele>
        <time>2019-08-09T09:15:19Z</time>
      </trkpt>
      <trkpt lat="44.12021" lon="5.80465">
        <ele>1731</ele>
        <time>2019-08-09T09:15:20Z</time>
      </trkpt>
      <trkpt lat="44.12019" lon="5.80462">
        <ele>1731</ele>
        <time>2019-08-09T09:15:21Z</time>
      </trkpt>
      <trkpt lat="44.12018" lon="5.80458">
        <ele>1732</ele>
        <time>2019-08-09T09:15:22Z</time>
      </trkpt>
      <trkpt lat="44.12016" lon="5.80455">
        <ele>1732</ele>
        <time>2019-08-09T09:15:23Z</time>
      </trkpt>
      <trkpt lat="44.12015" lon="5.80452">
        <ele>1732</ele>
        <time>2019-08-09T09:15:24Z</time>
      </trkpt>
      <trkpt lat="44.12013" lon="5.80448">
        <ele>1732</ele>
        <time>2019-08-09T09:15:25Z</time>
      </trkpt>
      <trkpt lat="44.12011" lon="5.80445">
        <ele>1733</ele>
        <time>2019-08-09T09:15:26Z</time>
      </trkpt>
      <trkpt lat="44.1201" lon="5.80441">
        <ele>1733</ele>
        <time>2019-08-09T09:15:27Z</time>
      </trkpt>
      <trkpt lat="44.12008" lon="5.80438">
        <ele>1733</ele>
        <time>2019-08-09T09:15:28Z</time>
      </trkpt>
      <trkpt lat="44.12007" lon="5.80435">
        <ele>1733</ele>
        <time>2019-08-09T09:15:29Z</time>
      </trkpt>
      <trkpt lat="44.12005" lon="5.80431">
        <ele>1733</ele>
        <time>2019-08-09T09:15:30Z</time>
      </trkpt>
      <trkpt lat="44.12003" lon="5.80428">
        <ele>1734</ele>
        <time>2019-08-09T09:15:31Z</time>
      </trkpt>
      <trkpt lat="44.12002" lon="5.80425">
        <ele>1734</ele>
        <time>2019-08-09T09:15:32Z</time>
      </trkpt>
      <trkpt lat="44.12" lon="5.80421">
        <ele>1734</ele>
        <time>2019-08-09T09:15:33Z</time>
      </trkpt>
      <trkpt lat="44.11999" lon="5.80418">
        <ele>1734</ele>
        <time>2019-08-09T09:15:34Z</time>
      </trkpt>
      <trkpt lat="44.11997" lon="5.80414">
        <ele>1734</ele>
        <time>2019-08-09T09:15:35Z</time>
      </trkpt>
      <trkpt lat="44.11995" lon="5.80411">
        <ele>1734</ele>
        <time>2019-08-09T09:15:36Z</time>
      </trkpt>
      <trkpt lat="44.11994" lon="5.80407">
        <ele>1734</ele>
        <time>2019-08-09T09:15:37Z</time>
      </trkpt>
      <trkpt lat="44.11992" lon="5.80404">
        <ele>1735</ele>
        <time>2019-08-09T09:15:38Z</time>
      </trkpt>
      <trkpt lat="44.11991" lon="5.80401">
        <ele>1735</ele>
        <time>2019-08-09T09:15:39Z</time>
      </trkpt>
      <trkpt lat="44.11989" lon="5.80397">
        <ele>1735</ele>
        <time>2019-08-09T09:15:40Z</time>
      </trkpt>
      <trkpt lat="44.11987" lon="5.80393">
        <ele>1735</ele>
        <time>2019-08-09T09:15:41Z</time>
      </trkpt>
      <trkpt lat="44.11985" lon="5.8039">
        <ele>1736</ele>
        <time>2019-08-09T09:15:42Z</time>
      </trkpt>
      <trkpt lat="44.11983" lon="5.80386">
        <ele>1736</ele>
        <time>2019-08-09T09:15:43Z</time>
      </trkpt>
      <trkpt lat="44.11982" lon="5.80383">
        <ele>1736</ele>
        <time>2019-08-09T09:15:44Z</time>
      </trkpt>
      <trkpt lat="44.1198" lon="5.80379">
        <ele>1736</ele>
        <time>2019-08-09T09:15:45Z</time>
      </trkpt>
      <trkpt lat="44.11978" lon="5.80376">
        <ele>1737</ele>
        <time>2019-08-09T09:15:46Z</time>
      </trkpt>
      <trkpt lat="44.11977" lon="5.80373">
        <ele>1737</ele>
        <time>2019-08-09T09:15:47Z</time>
      </trkpt>
      <trkpt lat="44.11975" lon="5.80369">
        <ele>1737</ele>
        <time>2019-08-09T09:15:48Z</time>
      </trkpt>
      <trkpt lat="44.11973" lon="5.80366">
        <ele>1737</ele>
        <time>2019-08-09T09:15:49Z</time>
      </trkpt>
      <trkpt lat="44.11972" lon="5.80362">
        <ele>1737</ele>
        <time>2019-08-09T09:15:50Z</time>
      </trkpt>
      <trkpt lat="44.1197" lon="5.80359">
        <ele>1737</ele>
        <time>2019-08-09T09:15:51Z</time>
      </trkpt>
      <trkpt lat="44.11969" lon="5.80356">
        <ele>1737</ele>
        <time>2019-08-09T09:15:52Z</time>
      </trkpt>
      <trkpt lat="44.11967" lon="5.80352">
        <ele>1738</ele>
        <time>2019-08-09T09:15:53Z</time>
      </trkpt>
      <trkpt lat="44.11965" lon="5.80349">
        <ele>1738</ele>
        <time>2019-08-09T09:15:54Z</time>
      </trkpt>
      <trkpt lat="44.11964" lon="5.80345">
        <ele>1738</ele>
        <time>2019-08-09T09:15:55Z</time>
      </trkpt>
      <trkpt lat="44.11962" lon="5.80342">
        <ele>1738</ele>
        <time>2019-08-09T09:15:56Z</time>
      </trkpt>
      <trkpt lat="44.1196" lon="5.80339">
        <ele>1738</ele>
        <time>2019-08-09T09:15:57Z</time>
      </trkpt>
      <trkpt lat="44.11959" lon="5.80336">
        <ele>1739</ele>
        <time>2019-08-09T09:15:58Z</time>
      </trkpt>
      <trkpt lat="44.11957" lon="5.80333">
        <ele>1739</ele>
        <time>2019-08-09T09:15:59Z</time>
      </trkpt>
      <trkpt lat="44.11955" lon="5.80329">
        <ele>1739</ele>
        <time>2019-08-09T09:16:00Z</time>
      </trkpt>
      <trkpt lat="44.11953" lon="5.80325">
        <ele>1739</ele>
        <time>2019-08-09T09:16:01Z</time>
      </trkpt>
      <trkpt lat="44.11952" lon="5.80321">
        <ele>1739</ele>
        <time>2019-08-09T09:16:02Z</time>
      </trkpt>
      <trkpt lat="44.1195" lon="5.80317">
        <ele>1739</ele>
        <time>2019-08-09T09:16:03Z</time>
      </trkpt>
      <trkpt lat="44.11949" lon="5.80313">
        <ele>1740</ele>
        <time>2019-08-09T09:16:04Z</time>
      </trkpt>
      <trkpt lat="44.11948" lon="5.80309">
        <ele>1740</ele>
        <time>2019-08-09T09:16:05Z</time>
      </trkpt>
      <trkpt lat="44.11946" lon="5.80305">
        <ele>1740</ele>
        <time>2019-08-09T09:16:06Z</time>
      </trkpt>
      <trkpt lat="44.11945" lon="5.80301">
        <ele>1740</ele>
        <time>2019-08-09T09:16:07Z</time>
      </trkpt>
      <trkpt lat="44.11943" lon="5.80298">
        <ele>1741</ele>
        <time>2019-08-09T09:16:08Z</time>
      </trkpt>
      <trkpt lat="44.11941" lon="5.80294">
        <ele>1741</ele>
        <time>2019-08-09T09:16:09Z</time>
      </trkpt>
      <trkpt lat="44.1194" lon="5.8029">
        <ele>1741</ele>
        <time>2019-08-09T09:16:10Z</time>
      </trkpt>
      <trkpt lat="44.11938" lon="5.80286">
        <ele>1741</ele>
        <time>2019-08-09T09:16:11Z</time>
      </trkpt>
      <trkpt lat="44.11936" lon="5.80282">
        <ele>1741</ele>
        <time>2019-08-09T09:16:12Z</time>
      </trkpt>
      <trkpt lat="44.11935" lon="5.80278">
        <ele>1741</ele>
        <time>2019-08-09T09:16:13Z</time>
      </trkpt>
      <trkpt lat="44.11933" lon="5.80274">
        <ele>1742</ele>
        <time>2019-08-09T09:16:14Z</time>
      </trkpt>
      <trkpt lat="44.11932" lon="5.8027">
        <ele>1742</ele>
        <time>2019-08-09T09:16:15Z</time>
      </trkpt>
      <trkpt lat="44.1193" lon="5.80267">
        <ele>1742</ele>
        <time>2019-08-09T09:16:16Z</time>
      </trkpt>
      <trkpt lat="44.11929" lon="5.80263">
        <ele>1742</ele>
        <time>2019-08-09T09:16:17Z</time>
      </trkpt>
      <trkpt lat="44.11927" lon="5.80259">
        <ele>1743</ele>
        <time>2019-08-09T09:16:18Z</time>
      </trkpt>
      <trkpt lat="44.11925" lon="5.80254">
        <ele>1743</ele>
        <time>2019-08-09T09:16:19Z</time>
      </trkpt>
      <trkpt lat="44.11923" lon="5.8025">
        <ele>1743</ele>
        <time>2019-08-09T09:16:20Z</time>
      </trkpt>
      <trkpt lat="44.11921" lon="5.80246">
        <ele>1743</ele>
        <time>2019-08-09T09:16:21Z</time>
      </trkpt>
      <trkpt lat="44.1192" lon="5.80242">
        <ele>1743</ele>
        <time>2019-08-09T09:16:22Z</time>
      </trkpt>
      <trkpt lat="44.11918" lon="5.80238">
        <ele>1744</ele>
        <time>2019-08-09T09:16:23Z</time>
      </trkpt>
      <trkpt lat="44.11916" lon="5.80233">
        <ele>1744</ele>
        <time>2019-08-09T09:16:24Z</time>
      </trkpt>
      <trkpt lat="44.11915" lon="5.8023">
        <ele>1744</ele>
        <time>2019-08-09T09:16:25Z</time>
      </trkpt>
      <trkpt lat="44.11913" lon="5.80226">
        <ele>1744</ele>
        <time>2019-08-09T09:16:26Z</time>
      </trkpt>
      <trkpt lat="44.11911" lon="5.80222">
        <ele>1745</ele>
        <time>2019-08-09T09:16:27Z</time>
      </trkpt>
      <trkpt lat="44.1191" lon="5.80219">
        <ele>1745</ele>
        <time>2019-08-09T09:16:28Z</time>
      </trkpt>
      <trkpt lat="44.11909" lon="5.80215">
        <ele>1745</ele>
        <time>2019-08-09T09:16:29Z</time>
      </trkpt>
      <trkpt lat="44.11908" lon="5.80211">
        <ele>1745</ele>
        <time>2019-08-09T09:16:30Z</time>
      </trkpt>
      <trkpt lat="44.11906" lon="5.80208">
        <ele>1745</ele>
        <time>2019-08-09T09:16:31Z</time>
      </trkpt>
      <trkpt lat="44.11906" lon="5.80205">
        <ele>1745</ele>
        <time>2019-08-09T09:16:32Z</time>
      </trkpt>
      <trkpt lat="44.11905" lon="5.80202">
        <ele>1745</ele>
        <time>2019-08-09T09:16:33Z</time>
      </trkpt>
      <trkpt lat="44.11904" lon="5.802">
        <ele>1745</ele>
        <time>2019-08-09T09:16:34Z</time>
      </trkpt>
      <trkpt lat="44.11903" lon="5.80198">
        <ele>1745</ele>
        <time>2019-08-09T09:16:35Z</time>
      </trkpt>
      <trkpt lat="44.11902" lon="5.80196">
        <ele>1745</ele>
        <time>2019-08-09T09:16:37Z</time>
      </trkpt>
      <trkpt lat="44.11903" lon="5.80194">
        <ele>1745</ele>
        <time>2019-08-09T09:17:24Z</time>
      </trkpt>
      <trkpt lat="44.11899" lon="5.80193">
        <ele>1749</ele>
        <time>2019-08-09T09:17:46Z</time>
      </trkpt>
      <trkpt lat="44.11901" lon="5.80194">
        <ele>1749</ele>
        <time>2019-08-09T09:17:48Z</time>
      </trkpt>
      <trkpt lat="44.11901" lon="5.80195">
        <ele>1749</ele>
        <time>2019-08-09T09:17:51Z</time>
      </trkpt>
      <trkpt lat="44.11902" lon="5.80197">
        <ele>1749</ele>
        <time>2019-08-09T09:17:56Z</time>
      </trkpt>
      <trkpt lat="44.11902" lon="5.80198">
        <ele>1749</ele>
        <time>2019-08-09T09:18:06Z</time>
      </trkpt>
      <trkpt lat="44.11903" lon="5.80201">
        <ele>1749</ele>
        <time>2019-08-09T09:18:08Z</time>
      </trkpt>
      <trkpt lat="44.11903" lon="5.80204">
        <ele>1749</ele>
        <time>2019-08-09T09:18:09Z</time>
      </trkpt>
      <trkpt lat="44.11903" lon="5.80206">
        <ele>1749</ele>
        <time>2019-08-09T09:18:10Z</time>
      </trkpt>
      <trkpt lat="44.11903" lon="5.80208">
        <ele>1749</ele>
        <time>2019-08-09T09:18:11Z</time>
      </trkpt>
      <trkpt lat="44.11904" lon="5.80211">
        <ele>1749</ele>
        <time>2019-08-09T09:18:12Z</time>
      </trkpt>
      <trkpt lat="44.11905" lon="5.80214">
        <ele>1749</ele>
        <time>2019-08-09T09:18:13Z</time>
      </trkpt>
      <trkpt lat="44.11905" lon="5.80217">
        <ele>1749</ele>
        <time>2019-08-09T09:18:14Z</time>
      </trkpt>
      <trkpt lat="44.11906" lon="5.80221">
        <ele>1749</ele>
        <time>2019-08-09T09:18:15Z</time>
      </trkpt>
      <trkpt lat="44.11908" lon="5.80224">
        <ele>1749</ele>
        <time>2019-08-09T09:18:16Z</time>
      </trkpt>
      <trkpt lat="44.1191" lon="5.80229">
        <ele>1749</ele>
        <time>2019-08-09T09:18:17Z</time>
      </trkpt>
      <trkpt lat="44.11913" lon="5.80233">
        <ele>1749</ele>
        <time>2019-08-09T09:18:18Z</time>
      </trkpt>
      <trkpt lat="44.11915" lon="5.80238">
        <ele>1749</ele>
        <time>2019-08-09T09:18:19Z</time>
      </trkpt>
      <trkpt lat="44.11917" lon="5.80245">
        <ele>1749</ele>
        <time>2019-08-09T09:18:20Z</time>
      </trkpt>
      <trkpt lat="44.1192" lon="5.80251">
        <ele>1749</ele>
        <time>2019-08-09T09:18:21Z</time>
      </trkpt>
      <trkpt lat="44.11923" lon="5.80258">
        <ele>1749</ele>
        <time>2019-08-09T09:18:22Z</time>
      </trkpt>
      <trkpt lat="44.11926" lon="5.80265">
        <ele>1749</ele>
        <time>2019-08-09T09:18:23Z</time>
      </trkpt>
      <trkpt lat="44.11929" lon="5.80272">
        <ele>1749</ele>
        <time>2019-08-09T09:18:24Z</time>
      </trkpt>
      <trkpt lat="44.11933" lon="5.8028">
        <ele>1749</ele>
        <time>2019-08-09T09:18:25Z</time>
      </trkpt>
      <trkpt lat="44.11936" lon="5.80287">
        <ele>1748</ele>
        <time>2019-08-09T09:18:26Z</time>
      </trkpt>
      <trkpt lat="44.11938" lon="5.80295">
        <ele>1748</ele>
        <time>2019-08-09T09:18:27Z</time>
      </trkpt>
      <trkpt lat="44.11941" lon="5.80302">
        <ele>1747</ele>
        <time>2019-08-09T09:18:28Z</time>
      </trkpt>
      <trkpt lat="44.11944" lon="5.8031">
        <ele>1747</ele>
        <time>2019-08-09T09:18:29Z</time>
      </trkpt>
      <trkpt lat="44.11947" lon="5.80317">
        <ele>1747</ele>
        <time>2019-08-09T09:18:30Z</time>
      </trkpt>
      <trkpt lat="44.1195" lon="5.80325">
        <ele>1746</ele>
        <time>2019-08-09T09:18:31Z</time>
      </trkpt>
      <trkpt lat="44.11954" lon="5.80333">
        <ele>1746</ele>
        <time>2019-08-09T09:18:32Z</time>
      </trkpt>
      <trkpt lat="44.11958" lon="5.80341">
        <ele>1746</ele>
        <time>2019-08-09T09:18:33Z</time>
      </trkpt>
      <trkpt lat="44.11961" lon="5.80349">
        <ele>1745</ele>
        <time>2019-08-09T09:18:34Z</time>
      </trkpt>
      <trkpt lat="44.11965" lon="5.80357">
        <ele>1745</ele>
        <time>2019-08-09T09:18:35Z</time>
      </trkpt>
      <trkpt lat="44.11969" lon="5.80366">
        <ele>1744</ele>
        <time>2019-08-09T09:18:36Z</time>
      </trkpt>
      <trkpt lat="44.11974" lon="5.80374">
        <ele>1744</ele>
        <time>2019-08-09T09:18:37Z</time>
      </trkpt>
      <trkpt lat="44.11978" lon="5.80382">
        <ele>1744</ele>
        <time>2019-08-09T09:18:38Z</time>
      </trkpt>
      <trkpt lat="44.11982" lon="5.80391">
        <ele>1743</ele>
        <time>2019-08-09T09:18:39Z</time>
      </trkpt>
      <trkpt lat="44.11986" lon="5.804">
        <ele>1743</ele>
        <time>2019-08-09T09:18:40Z</time>
      </trkpt>
      <trkpt lat="44.1199" lon="5.80409">
        <ele>1742</ele>
        <time>2019-08-09T09:18:41Z</time>
      </trkpt>
      <trkpt lat="44.11995" lon="5.80418">
        <ele>1742</ele>
        <time>2019-08-09T09:18:42Z</time>
      </trkpt>
      <trkpt lat="44.11999" lon="5.80428">
        <ele>1741</ele>
        <time>2019-08-09T09:18:43Z</time>
      </trkpt>
      <trkpt lat="44.12003" lon="5.80438">
        <ele>1741</ele>
        <time>2019-08-09T09:18:44Z</time>
      </trkpt>
      <trkpt lat="44.12008" lon="5.80447">
        <ele>1740</ele>
        <time>2019-08-09T09:18:45Z</time>
      </trkpt>
      <trkpt lat="44.12012" lon="5.80456">
        <ele>1740</ele>
        <time>2019-08-09T09:18:46Z</time>
      </trkpt>
      <trkpt lat="44.12016" lon="5.80466">
        <ele>1740</ele>
        <time>2019-08-09T09:18:47Z</time>
      </trkpt>
      <trkpt lat="44.1202" lon="5.80475">
        <ele>1739</ele>
        <time>2019-08-09T09:18:48Z</time>
      </trkpt>
      <trkpt lat="44.12024" lon="5.80484">
        <ele>1739</ele>
        <time>2019-08-09T09:18:49Z</time>
      </trkpt>
      <trkpt lat="44.12028" lon="5.80493">
        <ele>1738</ele>
        <time>2019-08-09T09:18:50Z</time>
      </trkpt>
      <trkpt lat="44.12032" lon="5.80503">
        <ele>1738</ele>
        <time>2019-08-09T09:18:51Z</time>
      </trkpt>
      <trkpt lat="44.12037" lon="5.80513">
        <ele>1737</ele>
        <time>2019-08-09T09:18:52Z</time>
      </trkpt>
      <trkpt lat="44.12041" lon="5.80522">
        <ele>1737</ele>
        <time>2019-08-09T09:18:53Z</time>
      </trkpt>
      <trkpt lat="44.12045" lon="5.80531">
        <ele>1736</ele>
        <time>2019-08-09T09:18:54Z</time>
      </trkpt>
      <trkpt lat="44.1205" lon="5.80541">
        <ele>1736</ele>
        <time>2019-08-09T09:18:55Z</time>
      </trkpt>
      <trkpt lat="44.12054" lon="5.8055">
        <ele>1735</ele>
        <time>2019-08-09T09:18:56Z</time>
      </trkpt>
      <trkpt lat="44.12059" lon="5.80559">
        <ele>1735</ele>
        <time>2019-08-09T09:18:58Z</time>
      </trkpt>
      <trkpt lat="44.12064" lon="5.80569">
        <ele>1735</ele>
        <time>2019-08-09T09:18:58Z</time>
      </trkpt>
      <trkpt lat="44.12068" lon="5.80579">
        <ele>1734</ele>
        <time>2019-08-09T09:18:59Z</time>
      </trkpt>
      <trkpt lat="44.12072" lon="5.80589">
        <ele>1734</ele>
        <time>2019-08-09T09:19:00Z</time>
      </trkpt>
      <trkpt lat="44.12076" lon="5.80599">
        <ele>1733</ele>
        <time>2019-08-09T09:19:01Z</time>
      </trkpt>
      <trkpt lat="44.1208" lon="5.8061">
        <ele>1733</ele>
        <time>2019-08-09T09:19:02Z</time>
      </trkpt>
      <trkpt lat="44.12083" lon="5.80621">
        <ele>1732</ele>
        <time>2019-08-09T09:19:03Z</time>
      </trkpt>
      <trkpt lat="44.12086" lon="5.80632">
        <ele>1732</ele>
        <time>2019-08-09T09:19:04Z</time>
      </trkpt>
      <trkpt lat="44.12089" lon="5.80643">
        <ele>1731</ele>
        <time>2019-08-09T09:19:05Z</time>
      </trkpt>
      <trkpt lat="44.12092" lon="5.80655">
        <ele>1731</ele>
        <time>2019-08-09T09:19:06Z</time>
      </trkpt>
      <trkpt lat="44.12095" lon="5.80666">
        <ele>1731</ele>
        <time>2019-08-09T09:19:07Z</time>
      </trkpt>
      <trkpt lat="44.12098" lon="5.80678">
        <ele>1730</ele>
        <time>2019-08-09T09:19:08Z</time>
      </trkpt>
      <trkpt lat="44.121" lon="5.80689">
        <ele>1730</ele>
        <time>2019-08-09T09:19:09Z</time>
      </trkpt>
      <trkpt lat="44.12103" lon="5.80701">
        <ele>1729</ele>
        <time>2019-08-09T09:19:10Z</time>
      </trkpt>
      <trkpt lat="44.12106" lon="5.80712">
        <ele>1729</ele>
        <time>2019-08-09T09:19:11Z</time>
      </trkpt>
      <trkpt lat="44.12109" lon="5.80723">
        <ele>1728</ele>
        <time>2019-08-09T09:19:12Z</time>
      </trkpt>
      <trkpt lat="44.12114" lon="5.80732">
        <ele>1728</ele>
        <time>2019-08-09T09:19:13Z</time>
      </trkpt>
      <trkpt lat="44.1212" lon="5.80741">
        <ele>1727</ele>
        <time>2019-08-09T09:19:14Z</time>
      </trkpt>
      <trkpt lat="44.12125" lon="5.80749">
        <ele>1727</ele>
        <time>2019-08-09T09:19:15Z</time>
      </trkpt>
      <trkpt lat="44.12131" lon="5.80755">
        <ele>1726</ele>
        <time>2019-08-09T09:19:16Z</time>
      </trkpt>
      <trkpt lat="44.12136" lon="5.80762">
        <ele>1726</ele>
        <time>2019-08-09T09:19:17Z</time>
      </trkpt>
      <trkpt lat="44.1214" lon="5.8077">
        <ele>1725</ele>
        <time>2019-08-09T09:19:18Z</time>
      </trkpt>
      <trkpt lat="44.12142" lon="5.80779">
        <ele>1725</ele>
        <time>2019-08-09T09:19:19Z</time>
      </trkpt>
      <trkpt lat="44.12142" lon="5.80788">
        <ele>1724</ele>
        <time>2019-08-09T09:19:20Z</time>
      </trkpt>
      <trkpt lat="44.1214" lon="5.80798">
        <ele>1724</ele>
        <time>2019-08-09T09:19:21Z</time>
      </trkpt>
      <trkpt lat="44.12138" lon="5.80807">
        <ele>1723</ele>
        <time>2019-08-09T09:19:22Z</time>
      </trkpt>
      <trkpt lat="44.12135" lon="5.80816">
        <ele>1722</ele>
        <time>2019-08-09T09:19:23Z</time>
      </trkpt>
      <trkpt lat="44.12132" lon="5.80826">
        <ele>1722</ele>
        <time>2019-08-09T09:19:24Z</time>
      </trkpt>
      <trkpt lat="44.12131" lon="5.80835">
        <ele>1722</ele>
        <time>2019-08-09T09:19:25Z</time>
      </trkpt>
      <trkpt lat="44.12129" lon="5.80845">
        <ele>1721</ele>
        <time>2019-08-09T09:19:26Z</time>
      </trkpt>
      <trkpt lat="44.12128" lon="5.80856">
        <ele>1721</ele>
        <time>2019-08-09T09:19:27Z</time>
      </trkpt>
      <trkpt lat="44.12127" lon="5.80867">
        <ele>1720</ele>
        <time>2019-08-09T09:19:28Z</time>
      </trkpt>
      <trkpt lat="44.12126" lon="5.80878">
        <ele>1720</ele>
        <time>2019-08-09T09:19:29Z</time>
      </trkpt>
      <trkpt lat="44.12125" lon="5.80889">
        <ele>1719</ele>
        <time>2019-08-09T09:19:30Z</time>
      </trkpt>
      <trkpt lat="44.12125" lon="5.80901">
        <ele>1719</ele>
        <time>2019-08-09T09:19:31Z</time>
      </trkpt>
      <trkpt lat="44.12124" lon="5.80912">
        <ele>1718</ele>
        <time>2019-08-09T09:19:32Z</time>
      </trkpt>
      <trkpt lat="44.12123" lon="5.80924">
        <ele>1718</ele>
        <time>2019-08-09T09:19:33Z</time>
      </trkpt>
      <trkpt lat="44.12122" lon="5.80936">
        <ele>1717</ele>
        <time>2019-08-09T09:19:34Z</time>
      </trkpt>
      <trkpt lat="44.12121" lon="5.80947">
        <ele>1717</ele>
        <time>2019-08-09T09:19:35Z</time>
      </trkpt>
      <trkpt lat="44.1212" lon="5.80959">
        <ele>1716</ele>
        <time>2019-08-09T09:19:36Z</time>
      </trkpt>
      <trkpt lat="44.12118" lon="5.80969">
        <ele>1716</ele>
        <time>2019-08-09T09:19:37Z</time>
      </trkpt>
      <trkpt lat="44.12116" lon="5.8098">
        <ele>1715</ele>
        <time>2019-08-09T09:19:38Z</time>
      </trkpt>
      <trkpt lat="44.12115" lon="5.80992">
        <ele>1715</ele>
        <time>2019-08-09T09:19:39Z</time>
      </trkpt>
      <trkpt lat="44.12112" lon="5.81003">
        <ele>1714</ele>
        <time>2019-08-09T09:19:40Z</time>
      </trkpt>
      <trkpt lat="44.12109" lon="5.81014">
        <ele>1714</ele>
        <time>2019-08-09T09:19:41Z</time>
      </trkpt>
      <trkpt lat="44.12106" lon="5.81024">
        <ele>1713</ele>
        <time>2019-08-09T09:19:42Z</time>
      </trkpt>
      <trkpt lat="44.12102" lon="5.81035">
        <ele>1712</ele>
        <time>2019-08-09T09:19:43Z</time>
      </trkpt>
      <trkpt lat="44.12098" lon="5.81045">
        <ele>1712</ele>
        <time>2019-08-09T09:19:44Z</time>
      </trkpt>
      <trkpt lat="44.12093" lon="5.81055">
        <ele>1711</ele>
        <time>2019-08-09T09:19:45Z</time>
      </trkpt>
      <trkpt lat="44.12088" lon="5.81064">
        <ele>1711</ele>
        <time>2019-08-09T09:19:46Z</time>
      </trkpt>
      <trkpt lat="44.12083" lon="5.81074">
        <ele>1711</ele>
        <time>2019-08-09T09:19:47Z</time>
      </trkpt>
      <trkpt lat="44.12079" lon="5.81083">
        <ele>1710</ele>
        <time>2019-08-09T09:19:48Z</time>
      </trkpt>
      <trkpt lat="44.12076" lon="5.81092">
        <ele>1710</ele>
        <time>2019-08-09T09:19:49Z</time>
      </trkpt>
      <trkpt lat="44.12074" lon="5.81101">
        <ele>1710</ele>
        <time>2019-08-09T09:19:50Z</time>
      </trkpt>
      <trkpt lat="44.12073" lon="5.81111">
        <ele>1709</ele>
        <time>2019-08-09T09:19:51Z</time>
      </trkpt>
      <trkpt lat="44.12074" lon="5.8112">
        <ele>1709</ele>
        <time>2019-08-09T09:19:52Z</time>
      </trkpt>
      <trkpt lat="44.12077" lon="5.81129">
        <ele>1709</ele>
        <time>2019-08-09T09:19:53Z</time>
      </trkpt>
      <trkpt lat="44.12082" lon="5.81137">
        <ele>1709</ele>
        <time>2019-08-09T09:19:54Z</time>
      </trkpt>
      <trkpt lat="44.12087" lon="5.81144">
        <ele>1708</ele>
        <time>2019-08-09T09:19:55Z</time>
      </trkpt>
      <trkpt lat="44.12093" lon="5.8115">
        <ele>1708</ele>
        <time>2019-08-09T09:19:56Z</time>
      </trkpt>
      <trkpt lat="44.12098" lon="5.81156">
        <ele>1708</ele>
        <time>2019-08-09T09:19:57Z</time>
      </trkpt>
      <trkpt lat="44.12103" lon="5.81162">
        <ele>1708</ele>
        <time>2019-08-09T09:19:58Z</time>
      </trkpt>
      <trkpt lat="44.12107" lon="5.81168">
        <ele>1707</ele>
        <time>2019-08-09T09:19:59Z</time>
      </trkpt>
      <trkpt lat="44.12111" lon="5.81175">
        <ele>1707</ele>
        <time>2019-08-09T09:20:00Z</time>
      </trkpt>
      <trkpt lat="44.12112" lon="5.81183">
        <ele>1707</ele>
        <time>2019-08-09T09:20:01Z</time>
      </trkpt>
      <trkpt lat="44.12111" lon="5.81192">
        <ele>1706</ele>
        <time>2019-08-09T09:20:02Z</time>
      </trkpt>
      <trkpt lat="44.12108" lon="5.81201">
        <ele>1706</ele>
        <time>2019-08-09T09:20:03Z</time>
      </trkpt>
      <trkpt lat="44.12103" lon="5.81208">
        <ele>1705</ele>
        <time>2019-08-09T09:20:04Z</time>
      </trkpt>
      <trkpt lat="44.12097" lon="5.81214">
        <ele>1705</ele>
        <time>2019-08-09T09:20:05Z</time>
      </trkpt>
      <trkpt lat="44.12091" lon="5.81219">
        <ele>1705</ele>
        <time>2019-08-09T09:20:06Z</time>
      </trkpt>
      <trkpt lat="44.12085" lon="5.81224">
        <ele>1704</ele>
        <time>2019-08-09T09:20:07Z</time>
      </trkpt>
      <trkpt lat="44.12078" lon="5.8123">
        <ele>1704</ele>
        <time>2019-08-09T09:20:08Z</time>
      </trkpt>
      <trkpt lat="44.12072" lon="5.81235">
        <ele>1703</ele>
        <time>2019-08-09T09:20:09Z</time>
      </trkpt>
      <trkpt lat="44.12066" lon="5.81241">
        <ele>1703</ele>
        <time>2019-08-09T09:20:10Z</time>
      </trkpt>
      <trkpt lat="44.12059" lon="5.81246">
        <ele>1703</ele>
        <time>2019-08-09T09:20:11Z</time>
      </trkpt>
      <trkpt lat="44.12052" lon="5.81251">
        <ele>1702</ele>
        <time>2019-08-09T09:20:12Z</time>
      </trkpt>
      <trkpt lat="44.12046" lon="5.81257">
        <ele>1702</ele>
        <time>2019-08-09T09:20:13Z</time>
      </trkpt>
      <trkpt lat="44.12039" lon="5.81263">
        <ele>1702</ele>
        <time>2019-08-09T09:20:14Z</time>
      </trkpt>
      <trkpt lat="44.12032" lon="5.81269">
        <ele>1701</ele>
        <time>2019-08-09T09:20:15Z</time>
      </trkpt>
      <trkpt lat="44.12026" lon="5.81275">
        <ele>1701</ele>
        <time>2019-08-09T09:20:16Z</time>
      </trkpt>
      <trkpt lat="44.12019" lon="5.81282">
        <ele>1701</ele>
        <time>2019-08-09T09:20:17Z</time>
      </trkpt>
      <trkpt lat="44.12012" lon="5.81289">
        <ele>1700</ele>
        <time>2019-08-09T09:20:18Z</time>
      </trkpt>
      <trkpt lat="44.12005" lon="5.81296">
        <ele>1700</ele>
        <time>2019-08-09T09:20:19Z</time>
      </trkpt>
      <trkpt lat="44.11998" lon="5.81303">
        <ele>1700</ele>
        <time>2019-08-09T09:20:20Z</time>
      </trkpt>
      <trkpt lat="44.11991" lon="5.81311">
        <ele>1699</ele>
        <time>2019-08-09T09:20:21Z</time>
      </trkpt>
      <trkpt lat="44.11983" lon="5.81318">
        <ele>1699</ele>
        <time>2019-08-09T09:20:22Z</time>
      </trkpt>
      <trkpt lat="44.11976" lon="5.81326">
        <ele>1699</ele>
        <time>2019-08-09T09:20:23Z</time>
      </trkpt>
      <trkpt lat="44.11969" lon="5.81333">
        <ele>1698</ele>
        <time>2019-08-09T09:20:24Z</time>
      </trkpt>
      <trkpt lat="44.11962" lon="5.81341">
        <ele>1698</ele>
        <time>2019-08-09T09:20:25Z</time>
      </trkpt>
      <trkpt lat="44.11955" lon="5.8135">
        <ele>1698</ele>
        <time>2019-08-09T09:20:26Z</time>
      </trkpt>
      <trkpt lat="44.11949" lon="5.81358">
        <ele>1697</ele>
        <time>2019-08-09T09:20:27Z</time>
      </trkpt>
      <trkpt lat="44.11943" lon="5.81367">
        <ele>1697</ele>
        <time>2019-08-09T09:20:28Z</time>
      </trkpt>
      <trkpt lat="44.11938" lon="5.81377">
        <ele>1696</ele>
        <time>2019-08-09T09:20:29Z</time>
      </trkpt>
      <trkpt lat="44.11933" lon="5.81387">
        <ele>1696</ele>
        <time>2019-08-09T09:20:30Z</time>
      </trkpt>
      <trkpt lat="44.11928" lon="5.81396">
        <ele>1695</ele>
        <time>2019-08-09T09:20:31Z</time>
      </trkpt>
      <trkpt lat="44.11923" lon="5.81407">
        <ele>1695</ele>
        <time>2019-08-09T09:20:32Z</time>
      </trkpt>
      <trkpt lat="44.11919" lon="5.81417">
        <ele>1695</ele>
        <time>2019-08-09T09:20:33Z</time>
      </trkpt>
      <trkpt lat="44.11914" lon="5.81427">
        <ele>1694</ele>
        <time>2019-08-09T09:20:34Z</time>
      </trkpt>
      <trkpt lat="44.11911" lon="5.81437">
        <ele>1694</ele>
        <time>2019-08-09T09:20:35Z</time>
      </trkpt>
      <trkpt lat="44.11908" lon="5.81448">
        <ele>1693</ele>
        <time>2019-08-09T09:20:36Z</time>
      </trkpt>
      <trkpt lat="44.11906" lon="5.8146">
        <ele>1693</ele>
        <time>2019-08-09T09:20:37Z</time>
      </trkpt>
      <trkpt lat="44.11904" lon="5.81471">
        <ele>1692</ele>
        <time>2019-08-09T09:20:38Z</time>
      </trkpt>
      <trkpt lat="44.11904" lon="5.81484">
        <ele>1692</ele>
        <time>2019-08-09T09:20:39Z</time>
      </trkpt>
      <trkpt lat="44.11903" lon="5.81495">
        <ele>1692</ele>
        <time>2019-08-09T09:20:40Z</time>
      </trkpt>
      <trkpt lat="44.11903" lon="5.81506">
        <ele>1691</ele>
        <time>2019-08-09T09:20:41Z</time>
      </trkpt>
      <trkpt lat="44.11904" lon="5.81517">
        <ele>1691</ele>
        <time>2019-08-09T09:20:42Z</time>
      </trkpt>
      <trkpt lat="44.11904" lon="5.81527">
        <ele>1690</ele>
        <time>2019-08-09T09:20:43Z</time>
      </trkpt>
      <trkpt lat="44.11906" lon="5.81538">
        <ele>1690</ele>
        <time>2019-08-09T09:20:44Z</time>
      </trkpt>
      <trkpt lat="44.11907" lon="5.81548">
        <ele>1689</ele>
        <time>2019-08-09T09:20:45Z</time>
      </trkpt>
      <trkpt lat="44.11909" lon="5.81559">
        <ele>1689</ele>
        <time>2019-08-09T09:20:46Z</time>
      </trkpt>
      <trkpt lat="44.11912" lon="5.81569">
        <ele>1688</ele>
        <time>2019-08-09T09:20:47Z</time>
      </trkpt>
      <trkpt lat="44.11914" lon="5.81579">
        <ele>1688</ele>
        <time>2019-08-09T09:20:48Z</time>
      </trkpt>
      <trkpt lat="44.11916" lon="5.81588">
        <ele>1688</ele>
        <time>2019-08-09T09:20:49Z</time>
      </trkpt>
      <trkpt lat="44.11919" lon="5.81597">
        <ele>1687</ele>
        <time>2019-08-09T09:20:50Z</time>
      </trkpt>
      <trkpt lat="44.11921" lon="5.81606">
        <ele>1687</ele>
        <time>2019-08-09T09:20:51Z</time>
      </trkpt>
      <trkpt lat="44.11924" lon="5.81614">
        <ele>1687</ele>
        <time>2019-08-09T09:20:52Z</time>
      </trkpt>
      <trkpt lat="44.11925" lon="5.81624">
        <ele>1686</ele>
        <time>2019-08-09T09:20:53Z</time>
      </trkpt>
      <trkpt lat="44.11924" lon="5.81632">
        <ele>1686</ele>
        <time>2019-08-09T09:20:54Z</time>
      </trkpt>
      <trkpt lat="44.1192" lon="5.8164">
        <ele>1685</ele>
        <time>2019-08-09T09:20:55Z</time>
      </trkpt>
      <trkpt lat="44.11915" lon="5.81645">
        <ele>1685</ele>
        <time>2019-08-09T09:20:56Z</time>
      </trkpt>
      <trkpt lat="44.11909" lon="5.81646">
        <ele>1684</ele>
        <time>2019-08-09T09:20:57Z</time>
      </trkpt>
      <trkpt lat="44.11904" lon="5.81644">
        <ele>1684</ele>
        <time>2019-08-09T09:20:58Z</time>
      </trkpt>
      <trkpt lat="44.11899" lon="5.81638">
        <ele>1683</ele>
        <time>2019-08-09T09:20:59Z</time>
      </trkpt>
      <trkpt lat="44.11893" lon="5.81633">
        <ele>1683</ele>
        <time>2019-08-09T09:21:00Z</time>
      </trkpt>
      <trkpt lat="44.11888" lon="5.81627">
        <ele>1682</ele>
        <time>2019-08-09T09:21:01Z</time>
      </trkpt>
      <trkpt lat="44.11883" lon="5.81621">
        <ele>1682</ele>
        <time>2019-08-09T09:21:02Z</time>
      </trkpt>
      <trkpt lat="44.11877" lon="5.81616">
        <ele>1681</ele>
        <time>2019-08-09T09:21:03Z</time>
      </trkpt>
      <trkpt lat="44.11871" lon="5.81611">
        <ele>1681</ele>
        <time>2019-08-09T09:21:04Z</time>
      </trkpt>
      <trkpt lat="44.11863" lon="5.81605">
        <ele>1681</ele>
        <time>2019-08-09T09:21:05Z</time>
      </trkpt>
      <trkpt lat="44.11856" lon="5.81602">
        <ele>1681</ele>
        <time>2019-08-09T09:21:06Z</time>
      </trkpt>
      <trkpt lat="44.11849" lon="5.81598">
        <ele>1681</ele>
        <time>2019-08-09T09:21:07Z</time>
      </trkpt>
      <trkpt lat="44.11842" lon="5.81594">
        <ele>1680</ele>
        <time>2019-08-09T09:21:08Z</time>
      </trkpt>
      <trkpt lat="44.11835" lon="5.8159">
        <ele>1680</ele>
        <time>2019-08-09T09:21:09Z</time>
      </trkpt>
      <trkpt lat="44.11828" lon="5.81586">
        <ele>1680</ele>
        <time>2019-08-09T09:21:10Z</time>
      </trkpt>
      <trkpt lat="44.11821" lon="5.81581">
        <ele>1679</ele>
        <time>2019-08-09T09:21:11Z</time>
      </trkpt>
      <trkpt lat="44.11814" lon="5.81577">
        <ele>1679</ele>
        <time>2019-08-09T09:21:12Z</time>
      </trkpt>
      <trkpt lat="44.11806" lon="5.81573">
        <ele>1679</ele>
        <time>2019-08-09T09:21:13Z</time>
      </trkpt>
      <trkpt lat="44.11798" lon="5.81568">
        <ele>1678</ele>
        <time>2019-08-09T09:21:14Z</time>
      </trkpt>
      <trkpt lat="44.11791" lon="5.81566">
        <ele>1678</ele>
        <time>2019-08-09T09:21:15Z</time>
      </trkpt>
      <trkpt lat="44.11784" lon="5.81565">
        <ele>1678</ele>
        <time>2019-08-09T09:21:16Z</time>
      </trkpt>
      <trkpt lat="44.11777" lon="5.81565">
        <ele>1678</ele>
        <time>2019-08-09T09:21:17Z</time>
      </trkpt>
      <trkpt lat="44.11769" lon="5.81568">
        <ele>1678</ele>
        <time>2019-08-09T09:21:18Z</time>
      </trkpt>
      <trkpt lat="44.11764" lon="5.81574">
        <ele>1678</ele>
        <time>2019-08-09T09:21:19Z</time>
      </trkpt>
      <trkpt lat="44.11761" lon="5.81583">
        <ele>1678</ele>
        <time>2019-08-09T09:21:20Z</time>
      </trkpt>
      <trkpt lat="44.11759" lon="5.81593">
        <ele>1677</ele>
        <time>2019-08-09T09:21:21Z</time>
      </trkpt>
      <trkpt lat="44.11758" lon="5.81603">
        <ele>1677</ele>
        <time>2019-08-09T09:21:22Z</time>
      </trkpt>
      <trkpt lat="44.11758" lon="5.81613">
        <ele>1677</ele>
        <time>2019-08-09T09:21:23Z</time>
      </trkpt>
      <trkpt lat="44.11759" lon="5.81624">
        <ele>1676</ele>
        <time>2019-08-09T09:21:24Z</time>
      </trkpt>
      <trkpt lat="44.11759" lon="5.81635">
        <ele>1675</ele>
        <time>2019-08-09T09:21:25Z</time>
      </trkpt>
      <trkpt lat="44.1176" lon="5.81645">
        <ele>1675</ele>
        <time>2019-08-09T09:21:26Z</time>
      </trkpt>
      <trkpt lat="44.11761" lon="5.81656">
        <ele>1674</ele>
        <time>2019-08-09T09:21:27Z</time>
      </trkpt>
      <trkpt lat="44.11761" lon="5.81667">
        <ele>1673</ele>
        <time>2019-08-09T09:21:28Z</time>
      </trkpt>
      <trkpt lat="44.11762" lon="5.81677">
        <ele>1672</ele>
        <time>2019-08-09T09:21:29Z</time>
      </trkpt>
      <trkpt lat="44.11763" lon="5.81689">
        <ele>1671</ele>
        <time>2019-08-09T09:21:30Z</time>
      </trkpt>
      <trkpt lat="44.11763" lon="5.817">
        <ele>1670</ele>
        <time>2019-08-09T09:21:31Z</time>
      </trkpt>
      <trkpt lat="44.11764" lon="5.81711">
        <ele>1670</ele>
        <time>2019-08-09T09:21:32Z</time>
      </trkpt>
      <trkpt lat="44.11765" lon="5.81722">
        <ele>1669</ele>
        <time>2019-08-09T09:21:33Z</time>
      </trkpt>
      <trkpt lat="44.11766" lon="5.81733">
        <ele>1669</ele>
        <time>2019-08-09T09:21:34Z</time>
      </trkpt>
      <trkpt lat="44.11766" lon="5.81744">
        <ele>1668</ele>
        <time>2019-08-09T09:21:35Z</time>
      </trkpt>
      <trkpt lat="44.11767" lon="5.81754">
        <ele>1668</ele>
        <time>2019-08-09T09:21:36Z</time>
      </trkpt>
      <trkpt lat="44.11768" lon="5.81765">
        <ele>1667</ele>
        <time>2019-08-09T09:21:37Z</time>
      </trkpt>
      <trkpt lat="44.1177" lon="5.81776">
        <ele>1667</ele>
        <time>2019-08-09T09:21:38Z</time>
      </trkpt>
      <trkpt lat="44.11772" lon="5.81786">
        <ele>1666</ele>
        <time>2019-08-09T09:21:39Z</time>
      </trkpt>
      <trkpt lat="44.11774" lon="5.81798">
        <ele>1666</ele>
        <time>2019-08-09T09:21:40Z</time>
      </trkpt>
      <trkpt lat="44.11777" lon="5.81808">
        <ele>1666</ele>
        <time>2019-08-09T09:21:41Z</time>
      </trkpt>
      <trkpt lat="44.11779" lon="5.81819">
        <ele>1665</ele>
        <time>2019-08-09T09:21:42Z</time>
      </trkpt>
      <trkpt lat="44.11782" lon="5.81829">
        <ele>1665</ele>
        <time>2019-08-09T09:21:43Z</time>
      </trkpt>
      <trkpt lat="44.11786" lon="5.8184">
        <ele>1665</ele>
        <time>2019-08-09T09:21:44Z</time>
      </trkpt>
      <trkpt lat="44.11789" lon="5.8185">
        <ele>1664</ele>
        <time>2019-08-09T09:21:45Z</time>
      </trkpt>
      <trkpt lat="44.11792" lon="5.81861">
        <ele>1664</ele>
        <time>2019-08-09T09:21:46Z</time>
      </trkpt>
      <trkpt lat="44.11796" lon="5.81871">
        <ele>1664</ele>
        <time>2019-08-09T09:21:47Z</time>
      </trkpt>
      <trkpt lat="44.11799" lon="5.81882">
        <ele>1663</ele>
        <time>2019-08-09T09:21:48Z</time>
      </trkpt>
      <trkpt lat="44.11802" lon="5.81892">
        <ele>1663</ele>
        <time>2019-08-09T09:21:49Z</time>
      </trkpt>
      <trkpt lat="44.11805" lon="5.81903">
        <ele>1662</ele>
        <time>2019-08-09T09:21:50Z</time>
      </trkpt>
      <trkpt lat="44.11808" lon="5.81913">
        <ele>1662</ele>
        <time>2019-08-09T09:21:51Z</time>
      </trkpt>
      <trkpt lat="44.1181" lon="5.81923">
        <ele>1661</ele>
        <time>2019-08-09T09:21:52Z</time>
      </trkpt>
      <trkpt lat="44.11813" lon="5.81933">
        <ele>1661</ele>
        <time>2019-08-09T09:21:53Z</time>
      </trkpt>
      <trkpt lat="44.11815" lon="5.81943">
        <ele>1661</ele>
        <time>2019-08-09T09:21:54Z</time>
      </trkpt>
      <trkpt lat="44.11817" lon="5.81953">
        <ele>1660</ele>
        <time>2019-08-09T09:21:55Z</time>
      </trkpt>
      <trkpt lat="44.1182" lon="5.81963">
        <ele>1660</ele>
        <time>2019-08-09T09:21:56Z</time>
      </trkpt>
      <trkpt lat="44.11822" lon="5.81974">
        <ele>1660</ele>
        <time>2019-08-09T09:21:57Z</time>
      </trkpt>
      <trkpt lat="44.11825" lon="5.81984">
        <ele>1659</ele>
        <time>2019-08-09T09:21:58Z</time>
      </trkpt>
      <trkpt lat="44.11827" lon="5.81995">
        <ele>1659</ele>
        <time>2019-08-09T09:21:59Z</time>
      </trkpt>
      <trkpt lat="44.11829" lon="5.82006">
        <ele>1659</ele>
        <time>2019-08-09T09:22:00Z</time>
      </trkpt>
      <trkpt lat="44.11831" lon="5.82016">
        <ele>1658</ele>
        <time>2019-08-09T09:22:01Z</time>
      </trkpt>
      <trkpt lat="44.11832" lon="5.82027">
        <ele>1658</ele>
        <time>2019-08-09T09:22:02Z</time>
      </trkpt>
      <trkpt lat="44.11834" lon="5.82037">
        <ele>1657</ele>
        <time>2019-08-09T09:22:03Z</time>
      </trkpt>
      <trkpt lat="44.11835" lon="5.82048">
        <ele>1657</ele>
        <time>2019-08-09T09:22:04Z</time>
      </trkpt>
      <trkpt lat="44.11835" lon="5.82058">
        <ele>1656</ele>
        <time>2019-08-09T09:22:05Z</time>
      </trkpt>
      <trkpt lat="44.11836" lon="5.82069">
        <ele>1655</ele>
        <time>2019-08-09T09:22:06Z</time>
      </trkpt>
      <trkpt lat="44.11836" lon="5.8208">
        <ele>1655</ele>
        <time>2019-08-09T09:22:07Z</time>
      </trkpt>
      <trkpt lat="44.11835" lon="5.82092">
        <ele>1654</ele>
        <time>2019-08-09T09:22:08Z</time>
      </trkpt>
      <trkpt lat="44.11835" lon="5.82103">
        <ele>1653</ele>
        <time>2019-08-09T09:22:09Z</time>
      </trkpt>
      <trkpt lat="44.11835" lon="5.82114">
        <ele>1653</ele>
        <time>2019-08-09T09:22:10Z</time>
      </trkpt>
      <trkpt lat="44.11834" lon="5.82126">
        <ele>1652</ele>
        <time>2019-08-09T09:22:11Z</time>
      </trkpt>
      <trkpt lat="44.11833" lon="5.82137">
        <ele>1651</ele>
        <time>2019-08-09T09:22:12Z</time>
      </trkpt>
      <trkpt lat="44.11831" lon="5.82149">
        <ele>1651</ele>
        <time>2019-08-09T09:22:13Z</time>
      </trkpt>
      <trkpt lat="44.1183" lon="5.82161">
        <ele>1650</ele>
        <time>2019-08-09T09:22:14Z</time>
      </trkpt>
      <trkpt lat="44.11829" lon="5.82172">
        <ele>1650</ele>
        <time>2019-08-09T09:22:15Z</time>
      </trkpt>
      <trkpt lat="44.11827" lon="5.82185">
        <ele>1649</ele>
        <time>2019-08-09T09:22:16Z</time>
      </trkpt>
      <trkpt lat="44.11824" lon="5.82197">
        <ele>1649</ele>
        <time>2019-08-09T09:22:17Z</time>
      </trkpt>
      <trkpt lat="44.11821" lon="5.82208">
        <ele>1648</ele>
        <time>2019-08-09T09:22:18Z</time>
      </trkpt>
      <trkpt lat="44.11818" lon="5.82219">
        <ele>1648</ele>
        <time>2019-08-09T09:22:19Z</time>
      </trkpt>
      <trkpt lat="44.11814" lon="5.82229">
        <ele>1647</ele>
        <time>2019-08-09T09:22:20Z</time>
      </trkpt>
      <trkpt lat="44.11811" lon="5.82239">
        <ele>1647</ele>
        <time>2019-08-09T09:22:21Z</time>
      </trkpt>
      <trkpt lat="44.11807" lon="5.8225">
        <ele>1647</ele>
        <time>2019-08-09T09:22:22Z</time>
      </trkpt>
      <trkpt lat="44.11803" lon="5.82259">
        <ele>1647</ele>
        <time>2019-08-09T09:22:23Z</time>
      </trkpt>
      <trkpt lat="44.11799" lon="5.82269">
        <ele>1647</ele>
        <time>2019-08-09T09:22:24Z</time>
      </trkpt>
      <trkpt lat="44.11796" lon="5.82278">
        <ele>1646</ele>
        <time>2019-08-09T09:22:25Z</time>
      </trkpt>
      <trkpt lat="44.11792" lon="5.82288">
        <ele>1646</ele>
        <time>2019-08-09T09:22:26Z</time>
      </trkpt>
      <trkpt lat="44.11789" lon="5.82297">
        <ele>1646</ele>
        <time>2019-08-09T09:22:27Z</time>
      </trkpt>
      <trkpt lat="44.11786" lon="5.82306">
        <ele>1646</ele>
        <time>2019-08-09T09:22:28Z</time>
      </trkpt>
      <trkpt lat="44.11782" lon="5.82316">
        <ele>1645</ele>
        <time>2019-08-09T09:22:29Z</time>
      </trkpt>
      <trkpt lat="44.11779" lon="5.82325">
        <ele>1645</ele>
        <time>2019-08-09T09:22:30Z</time>
      </trkpt>
      <trkpt lat="44.11775" lon="5.82334">
        <ele>1645</ele>
        <time>2019-08-09T09:22:31Z</time>
      </trkpt>
      <trkpt lat="44.11772" lon="5.82343">
        <ele>1645</ele>
        <time>2019-08-09T09:22:32Z</time>
      </trkpt>
      <trkpt lat="44.11768" lon="5.82353">
        <ele>1644</ele>
        <time>2019-08-09T09:22:33Z</time>
      </trkpt>
      <trkpt lat="44.11764" lon="5.82363">
        <ele>1644</ele>
        <time>2019-08-09T09:22:34Z</time>
      </trkpt>
      <trkpt lat="44.11761" lon="5.82372">
        <ele>1644</ele>
        <time>2019-08-09T09:22:35Z</time>
      </trkpt>
      <trkpt lat="44.11757" lon="5.82382">
        <ele>1644</ele>
        <time>2019-08-09T09:22:36Z</time>
      </trkpt>
      <trkpt lat="44.11754" lon="5.82392">
        <ele>1643</ele>
        <time>2019-08-09T09:22:37Z</time>
      </trkpt>
      <trkpt lat="44.11751" lon="5.82402">
        <ele>1643</ele>
        <time>2019-08-09T09:22:38Z</time>
      </trkpt>
      <trkpt lat="44.11748" lon="5.82413">
        <ele>1643</ele>
        <time>2019-08-09T09:22:39Z</time>
      </trkpt>
      <trkpt lat="44.11745" lon="5.82423">
        <ele>1643</ele>
        <time>2019-08-09T09:22:40Z</time>
      </trkpt>
      <trkpt lat="44.11743" lon="5.82434">
        <ele>1642</ele>
        <time>2019-08-09T09:22:41Z</time>
      </trkpt>
      <trkpt lat="44.1174" lon="5.82444">
        <ele>1642</ele>
        <time>2019-08-09T09:22:42Z</time>
      </trkpt>
      <trkpt lat="44.11738" lon="5.82454">
        <ele>1641</ele>
        <time>2019-08-09T09:22:43Z</time>
      </trkpt>
      <trkpt lat="44.11736" lon="5.82464">
        <ele>1640</ele>
        <time>2019-08-09T09:22:44Z</time>
      </trkpt>
      <trkpt lat="44.11734" lon="5.82475">
        <ele>1640</ele>
        <time>2019-08-09T09:22:45Z</time>
      </trkpt>
      <trkpt lat="44.11732" lon="5.82485">
        <ele>1639</ele>
        <time>2019-08-09T09:22:46Z</time>
      </trkpt>
      <trkpt lat="44.11731" lon="5.82495">
        <ele>1638</ele>
        <time>2019-08-09T09:22:47Z</time>
      </trkpt>
      <trkpt lat="44.11729" lon="5.82505">
        <ele>1638</ele>
        <time>2019-08-09T09:22:48Z</time>
      </trkpt>
      <trkpt lat="44.11728" lon="5.82514">
        <ele>1638</ele>
        <time>2019-08-09T09:22:49Z</time>
      </trkpt>
      <trkpt lat="44.11726" lon="5.82525">
        <ele>1637</ele>
        <time>2019-08-09T09:22:50Z</time>
      </trkpt>
      <trkpt lat="44.11725" lon="5.82535">
        <ele>1637</ele>
        <time>2019-08-09T09:22:51Z</time>
      </trkpt>
      <trkpt lat="44.11724" lon="5.82546">
        <ele>1636</ele>
        <time>2019-08-09T09:22:52Z</time>
      </trkpt>
      <trkpt lat="44.11722" lon="5.82557">
        <ele>1636</ele>
        <time>2019-08-09T09:22:53Z</time>
      </trkpt>
      <trkpt lat="44.11721" lon="5.82569">
        <ele>1635</ele>
        <time>2019-08-09T09:22:54Z</time>
      </trkpt>
      <trkpt lat="44.11718" lon="5.8258">
        <ele>1634</ele>
        <time>2019-08-09T09:22:55Z</time>
      </trkpt>
      <trkpt lat="44.11715" lon="5.8259">
        <ele>1634</ele>
        <time>2019-08-09T09:22:56Z</time>
      </trkpt>
      <trkpt lat="44.1171" lon="5.82601">
        <ele>1634</ele>
        <time>2019-08-09T09:22:57Z</time>
      </trkpt>
      <trkpt lat="44.11706" lon="5.8261">
        <ele>1633</ele>
        <time>2019-08-09T09:22:58Z</time>
      </trkpt>
      <trkpt lat="44.11702" lon="5.82619">
        <ele>1633</ele>
        <time>2019-08-09T09:22:59Z</time>
      </trkpt>
      <trkpt lat="44.11697" lon="5.82629">
        <ele>1632</ele>
        <time>2019-08-09T09:23:00Z</time>
      </trkpt>
      <trkpt lat="44.11692" lon="5.82639">
        <ele>1632</ele>
        <time>2019-08-09T09:23:01Z</time>
      </trkpt>
      <trkpt lat="44.11686" lon="5.82648">
        <ele>1632</ele>
        <time>2019-08-09T09:23:02Z</time>
      </trkpt>
      <trkpt lat="44.11681" lon="5.82657">
        <ele>1631</ele>
        <time>2019-08-09T09:23:03Z</time>
      </trkpt>
      <trkpt lat="44.11676" lon="5.82666">
        <ele>1631</ele>
        <time>2019-08-09T09:23:04Z</time>
      </trkpt>
      <trkpt lat="44.11672" lon="5.82675">
        <ele>1630</ele>
        <time>2019-08-09T09:23:05Z</time>
      </trkpt>
      <trkpt lat="44.11667" lon="5.82684">
        <ele>1630</ele>
        <time>2019-08-09T09:23:06Z</time>
      </trkpt>
      <trkpt lat="44.11663" lon="5.82692">
        <ele>1629</ele>
        <time>2019-08-09T09:23:07Z</time>
      </trkpt>
      <trkpt lat="44.11657" lon="5.82699">
        <ele>1629</ele>
        <time>2019-08-09T09:23:08Z</time>
      </trkpt>
      <trkpt lat="44.11652" lon="5.82707">
        <ele>1628</ele>
        <time>2019-08-09T09:23:09Z</time>
      </trkpt>
      <trkpt lat="44.11647" lon="5.82714">
        <ele>1628</ele>
        <time>2019-08-09T09:23:10Z</time>
      </trkpt>
      <trkpt lat="44.11641" lon="5.82722">
        <ele>1627</ele>
        <time>2019-08-09T09:23:11Z</time>
      </trkpt>
      <trkpt lat="44.11635" lon="5.82729">
        <ele>1627</ele>
        <time>2019-08-09T09:23:12Z</time>
      </trkpt>
      <trkpt lat="44.11629" lon="5.82736">
        <ele>1627</ele>
        <time>2019-08-09T09:23:13Z</time>
      </trkpt>
      <trkpt lat="44.11624" lon="5.82744">
        <ele>1626</ele>
        <time>2019-08-09T09:23:14Z</time>
      </trkpt>
      <trkpt lat="44.11619" lon="5.82752">
        <ele>1626</ele>
        <time>2019-08-09T09:23:15Z</time>
      </trkpt>
      <trkpt lat="44.11614" lon="5.8276">
        <ele>1625</ele>
        <time>2019-08-09T09:23:16Z</time>
      </trkpt>
      <trkpt lat="44.11609" lon="5.82768">
        <ele>1625</ele>
        <time>2019-08-09T09:23:17Z</time>
      </trkpt>
      <trkpt lat="44.11604" lon="5.82776">
        <ele>1624</ele>
        <time>2019-08-09T09:23:18Z</time>
      </trkpt>
      <trkpt lat="44.11599" lon="5.82784">
        <ele>1624</ele>
        <time>2019-08-09T09:23:19Z</time>
      </trkpt>
      <trkpt lat="44.11594" lon="5.82792">
        <ele>1623</ele>
        <time>2019-08-09T09:23:20Z</time>
      </trkpt>
      <trkpt lat="44.11589" lon="5.828">
        <ele>1623</ele>
        <time>2019-08-09T09:23:21Z</time>
      </trkpt>
      <trkpt lat="44.11583" lon="5.82808">
        <ele>1622</ele>
        <time>2019-08-09T09:23:22Z</time>
      </trkpt>
      <trkpt lat="44.11578" lon="5.82816">
        <ele>1622</ele>
        <time>2019-08-09T09:23:23Z</time>
      </trkpt>
      <trkpt lat="44.11573" lon="5.82824">
        <ele>1621</ele>
        <time>2019-08-09T09:23:24Z</time>
      </trkpt>
      <trkpt lat="44.11568" lon="5.82832">
        <ele>1621</ele>
        <time>2019-08-09T09:23:25Z</time>
      </trkpt>
      <trkpt lat="44.11562" lon="5.82841">
        <ele>1621</ele>
        <time>2019-08-09T09:23:26Z</time>
      </trkpt>
      <trkpt lat="44.11557" lon="5.82849">
        <ele>1620</ele>
        <time>2019-08-09T09:23:27Z</time>
      </trkpt>
      <trkpt lat="44.11552" lon="5.82857">
        <ele>1620</ele>
        <time>2019-08-09T09:23:28Z</time>
      </trkpt>
      <trkpt lat="44.11546" lon="5.82865">
        <ele>1619</ele>
        <time>2019-08-09T09:23:29Z</time>
      </trkpt>
      <trkpt lat="44.11541" lon="5.82874">
        <ele>1619</ele>
        <time>2019-08-09T09:23:30Z</time>
      </trkpt>
      <trkpt lat="44.11536" lon="5.82883">
        <ele>1618</ele>
        <time>2019-08-09T09:23:31Z</time>
      </trkpt>
      <trkpt lat="44.11531" lon="5.82892">
        <ele>1618</ele>
        <time>2019-08-09T09:23:32Z</time>
      </trkpt>
      <trkpt lat="44.11527" lon="5.829">
        <ele>1617</ele>
        <time>2019-08-09T09:23:33Z</time>
      </trkpt>
      <trkpt lat="44.11522" lon="5.8291">
        <ele>1616</ele>
        <time>2019-08-09T09:23:34Z</time>
      </trkpt>
      <trkpt lat="44.11518" lon="5.8292">
        <ele>1616</ele>
        <time>2019-08-09T09:23:35Z</time>
      </trkpt>
      <trkpt lat="44.11514" lon="5.8293">
        <ele>1615</ele>
        <time>2019-08-09T09:23:36Z</time>
      </trkpt>
      <trkpt lat="44.1151" lon="5.82941">
        <ele>1615</ele>
        <time>2019-08-09T09:23:37Z</time>
      </trkpt>
      <trkpt lat="44.11507" lon="5.82951">
        <ele>1615</ele>
        <time>2019-08-09T09:23:38Z</time>
      </trkpt>
      <trkpt lat="44.11504" lon="5.82962">
        <ele>1614</ele>
        <time>2019-08-09T09:23:39Z</time>
      </trkpt>
      <trkpt lat="44.11501" lon="5.82973">
        <ele>1614</ele>
        <time>2019-08-09T09:23:40Z</time>
      </trkpt>
      <trkpt lat="44.11499" lon="5.82983">
        <ele>1614</ele>
        <time>2019-08-09T09:23:41Z</time>
      </trkpt>
      <trkpt lat="44.11498" lon="5.82994">
        <ele>1614</ele>
        <time>2019-08-09T09:23:42Z</time>
      </trkpt>
      <trkpt lat="44.11497" lon="5.83005">
        <ele>1614</ele>
        <time>2019-08-09T09:23:43Z</time>
      </trkpt>
      <trkpt lat="44.11497" lon="5.83016">
        <ele>1614</ele>
        <time>2019-08-09T09:23:44Z</time>
      </trkpt>
      <trkpt lat="44.11496" lon="5.83028">
        <ele>1613</ele>
        <time>2019-08-09T09:23:45Z</time>
      </trkpt>
      <trkpt lat="44.11496" lon="5.83039">
        <ele>1613</ele>
        <time>2019-08-09T09:23:46Z</time>
      </trkpt>
      <trkpt lat="44.11495" lon="5.83051">
        <ele>1613</ele>
        <time>2019-08-09T09:23:47Z</time>
      </trkpt>
      <trkpt lat="44.11495" lon="5.83063">
        <ele>1612</ele>
        <time>2019-08-09T09:23:48Z</time>
      </trkpt>
      <trkpt lat="44.11495" lon="5.83075">
        <ele>1612</ele>
        <time>2019-08-09T09:23:49Z</time>
      </trkpt>
      <trkpt lat="44.11495" lon="5.83087">
        <ele>1612</ele>
        <time>2019-08-09T09:23:50Z</time>
      </trkpt>
      <trkpt lat="44.11495" lon="5.83098">
        <ele>1611</ele>
        <time>2019-08-09T09:23:51Z</time>
      </trkpt>
      <trkpt lat="44.11495" lon="5.83109">
        <ele>1611</ele>
        <time>2019-08-09T09:23:52Z</time>
      </trkpt>
      <trkpt lat="44.11495" lon="5.83119">
        <ele>1611</ele>
        <time>2019-08-09T09:23:53Z</time>
      </trkpt>
      <trkpt lat="44.11496" lon="5.83129">
        <ele>1610</ele>
        <time>2019-08-09T09:23:54Z</time>
      </trkpt>
      <trkpt lat="44.11496" lon="5.83139">
        <ele>1610</ele>
        <time>2019-08-09T09:23:55Z</time>
      </trkpt>
      <trkpt lat="44.11497" lon="5.83149">
        <ele>1610</ele>
        <time>2019-08-09T09:23:56Z</time>
      </trkpt>
      <trkpt lat="44.11498" lon="5.8316">
        <ele>1610</ele>
        <time>2019-08-09T09:23:57Z</time>
      </trkpt>
      <trkpt lat="44.115" lon="5.83171">
        <ele>1609</ele>
        <time>2019-08-09T09:23:58Z</time>
      </trkpt>
      <trkpt lat="44.11502" lon="5.83181">
        <ele>1609</ele>
        <time>2019-08-09T09:23:59Z</time>
      </trkpt>
      <trkpt lat="44.11504" lon="5.8319">
        <ele>1609</ele>
        <time>2019-08-09T09:24:00Z</time>
      </trkpt>
      <trkpt lat="44.11507" lon="5.83199">
        <ele>1609</ele>
        <time>2019-08-09T09:24:01Z</time>
      </trkpt>
      <trkpt lat="44.1151" lon="5.83208">
        <ele>1608</ele>
        <time>2019-08-09T09:24:02Z</time>
      </trkpt>
      <trkpt lat="44.11512" lon="5.83217">
        <ele>1608</ele>
        <time>2019-08-09T09:24:03Z</time>
      </trkpt>
      <trkpt lat="44.11514" lon="5.83226">
        <ele>1607</ele>
        <time>2019-08-09T09:24:04Z</time>
      </trkpt>
      <trkpt lat="44.11515" lon="5.83236">
        <ele>1607</ele>
        <time>2019-08-09T09:24:05Z</time>
      </trkpt>
      <trkpt lat="44.11515" lon="5.83246">
        <ele>1607</ele>
        <time>2019-08-09T09:24:06Z</time>
      </trkpt>
      <trkpt lat="44.11514" lon="5.83255">
        <ele>1607</ele>
        <time>2019-08-09T09:24:07Z</time>
      </trkpt>
      <trkpt lat="44.11514" lon="5.83264">
        <ele>1607</ele>
        <time>2019-08-09T09:24:08Z</time>
      </trkpt>
      <trkpt lat="44.11513" lon="5.83274">
        <ele>1607</ele>
        <time>2019-08-09T09:24:09Z</time>
      </trkpt>
      <trkpt lat="44.11513" lon="5.83283">
        <ele>1606</ele>
        <time>2019-08-09T09:24:10Z</time>
      </trkpt>
      <trkpt lat="44.11512" lon="5.83292">
        <ele>1606</ele>
        <time>2019-08-09T09:24:11Z</time>
      </trkpt>
      <trkpt lat="44.11512" lon="5.833">
        <ele>1606</ele>
        <time>2019-08-09T09:24:12Z</time>
      </trkpt>
      <trkpt lat="44.11514" lon="5.83308">
        <ele>1606</ele>
        <time>2019-08-09T09:24:13Z</time>
      </trkpt>
      <trkpt lat="44.11516" lon="5.83314">
        <ele>1605</ele>
        <time>2019-08-09T09:24:14Z</time>
      </trkpt>
      <trkpt lat="44.1152" lon="5.83318">
        <ele>1605</ele>
        <time>2019-08-09T09:24:15Z</time>
      </trkpt>
      <trkpt lat="44.11525" lon="5.83319">
        <ele>1605</ele>
        <time>2019-08-09T09:24:16Z</time>
      </trkpt>
      <trkpt lat="44.11529" lon="5.83318">
        <ele>1604</ele>
        <time>2019-08-09T09:24:17Z</time>
      </trkpt>
      <trkpt lat="44.11533" lon="5.83316">
        <ele>1604</ele>
        <time>2019-08-09T09:24:18Z</time>
      </trkpt>
      <trkpt lat="44.11537" lon="5.83313">
        <ele>1604</ele>
        <time>2019-08-09T09:24:19Z</time>
      </trkpt>
      <trkpt lat="44.11541" lon="5.83307">
        <ele>1604</ele>
        <time>2019-08-09T09:24:20Z</time>
      </trkpt>
      <trkpt lat="44.11544" lon="5.833">
        <ele>1603</ele>
        <time>2019-08-09T09:24:21Z</time>
      </trkpt>
      <trkpt lat="44.11547" lon="5.83292">
        <ele>1603</ele>
        <time>2019-08-09T09:24:22Z</time>
      </trkpt>
      <trkpt lat="44.11549" lon="5.83283">
        <ele>1602</ele>
        <time>2019-08-09T09:24:23Z</time>
      </trkpt>
      <trkpt lat="44.11549" lon="5.83274">
        <ele>1602</ele>
        <time>2019-08-09T09:24:24Z</time>
      </trkpt>
      <trkpt lat="44.11549" lon="5.83262">
        <ele>1601</ele>
        <time>2019-08-09T09:24:25Z</time>
      </trkpt>
      <trkpt lat="44.11548" lon="5.83251">
        <ele>1600</ele>
        <time>2019-08-09T09:24:26Z</time>
      </trkpt>
      <trkpt lat="44.11549" lon="5.83241">
        <ele>1600</ele>
        <time>2019-08-09T09:24:27Z</time>
      </trkpt>
      <trkpt lat="44.11549" lon="5.8323">
        <ele>1599</ele>
        <time>2019-08-09T09:24:28Z</time>
      </trkpt>
      <trkpt lat="44.1155" lon="5.8322">
        <ele>1598</ele>
        <time>2019-08-09T09:24:29Z</time>
      </trkpt>
      <trkpt lat="44.11552" lon="5.83211">
        <ele>1598</ele>
        <time>2019-08-09T09:24:30Z</time>
      </trkpt>
      <trkpt lat="44.11553" lon="5.83201">
        <ele>1597</ele>
        <time>2019-08-09T09:24:31Z</time>
      </trkpt>
      <trkpt lat="44.11555" lon="5.83193">
        <ele>1596</ele>
        <time>2019-08-09T09:24:32Z</time>
      </trkpt>
      <trkpt lat="44.11557" lon="5.83186">
        <ele>1595</ele>
        <time>2019-08-09T09:24:33Z</time>
      </trkpt>
      <trkpt lat="44.11561" lon="5.83179">
        <ele>1595</ele>
        <time>2019-08-09T09:24:34Z</time>
      </trkpt>
      <trkpt lat="44.11564" lon="5.83171">
        <ele>1594</ele>
        <time>2019-08-09T09:24:35Z</time>
      </trkpt>
      <trkpt lat="44.11566" lon="5.83162">
        <ele>1593</ele>
        <time>2019-08-09T09:24:36Z</time>
      </trkpt>
      <trkpt lat="44.11569" lon="5.83154">
        <ele>1593</ele>
        <time>2019-08-09T09:24:37Z</time>
      </trkpt>
      <trkpt lat="44.11572" lon="5.83144">
        <ele>1593</ele>
        <time>2019-08-09T09:24:38Z</time>
      </trkpt>
      <trkpt lat="44.11574" lon="5.83135">
        <ele>1592</ele>
        <time>2019-08-09T09:24:39Z</time>
      </trkpt>
      <trkpt lat="44.11576" lon="5.83124">
        <ele>1592</ele>
        <time>2019-08-09T09:24:40Z</time>
      </trkpt>
      <trkpt lat="44.1158" lon="5.83116">
        <ele>1592</ele>
        <time>2019-08-09T09:24:41Z</time>
      </trkpt>
      <trkpt lat="44.11585" lon="5.83108">
        <ele>1591</ele>
        <time>2019-08-09T09:24:42Z</time>
      </trkpt>
      <trkpt lat="44.11591" lon="5.83101">
        <ele>1590</ele>
        <time>2019-08-09T09:24:43Z</time>
      </trkpt>
      <trkpt lat="44.11597" lon="5.83093">
        <ele>1589</ele>
        <time>2019-08-09T09:24:44Z</time>
      </trkpt>
      <trkpt lat="44.11602" lon="5.83084">
        <ele>1589</ele>
        <time>2019-08-09T09:24:45Z</time>
      </trkpt>
      <trkpt lat="44.11608" lon="5.83076">
        <ele>1588</ele>
        <time>2019-08-09T09:24:46Z</time>
      </trkpt>
      <trkpt lat="44.11613" lon="5.83067">
        <ele>1588</ele>
        <time>2019-08-09T09:24:47Z</time>
      </trkpt>
      <trkpt lat="44.11617" lon="5.83057">
        <ele>1587</ele>
        <time>2019-08-09T09:24:48Z</time>
      </trkpt>
      <trkpt lat="44.1162" lon="5.83047">
        <ele>1586</ele>
        <time>2019-08-09T09:24:49Z</time>
      </trkpt>
      <trkpt lat="44.11624" lon="5.83038">
        <ele>1586</ele>
        <time>2019-08-09T09:24:50Z</time>
      </trkpt>
      <trkpt lat="44.11629" lon="5.83029">
        <ele>1585</ele>
        <time>2019-08-09T09:24:51Z</time>
      </trkpt>
      <trkpt lat="44.11634" lon="5.83019">
        <ele>1584</ele>
        <time>2019-08-09T09:24:52Z</time>
      </trkpt>
      <trkpt lat="44.11639" lon="5.83009">
        <ele>1583</ele>
        <time>2019-08-09T09:24:53Z</time>
      </trkpt>
      <trkpt lat="44.11644" lon="5.83">
        <ele>1582</ele>
        <time>2019-08-09T09:24:54Z</time>
      </trkpt>
      <trkpt lat="44.11648" lon="5.8299">
        <ele>1581</ele>
        <time>2019-08-09T09:24:55Z</time>
      </trkpt>
      <trkpt lat="44.11652" lon="5.82981">
        <ele>1580</ele>
        <time>2019-08-09T09:24:56Z</time>
      </trkpt>
      <trkpt lat="44.11655" lon="5.82971">
        <ele>1579</ele>
        <time>2019-08-09T09:24:57Z</time>
      </trkpt>
      <trkpt lat="44.11661" lon="5.82964">
        <ele>1578</ele>
        <time>2019-08-09T09:24:58Z</time>
      </trkpt>
      <trkpt lat="44.11666" lon="5.82956">
        <ele>1577</ele>
        <time>2019-08-09T09:24:59Z</time>
      </trkpt>
      <trkpt lat="44.11672" lon="5.82948">
        <ele>1576</ele>
        <time>2019-08-09T09:25:00Z</time>
      </trkpt>
      <trkpt lat="44.11677" lon="5.82941">
        <ele>1576</ele>
        <time>2019-08-09T09:25:01Z</time>
      </trkpt>
      <trkpt lat="44.11681" lon="5.82934">
        <ele>1576</ele>
        <time>2019-08-09T09:25:02Z</time>
      </trkpt>
      <trkpt lat="44.11686" lon="5.82925">
        <ele>1575</ele>
        <time>2019-08-09T09:25:03Z</time>
      </trkpt>
      <trkpt lat="44.11689" lon="5.82916">
        <ele>1575</ele>
        <time>2019-08-09T09:25:04Z</time>
      </trkpt>
      <trkpt lat="44.11691" lon="5.82906">
        <ele>1575</ele>
        <time>2019-08-09T09:25:05Z</time>
      </trkpt>
      <trkpt lat="44.11694" lon="5.82896">
        <ele>1575</ele>
        <time>2019-08-09T09:25:06Z</time>
      </trkpt>
      <trkpt lat="44.11697" lon="5.82886">
        <ele>1575</ele>
        <time>2019-08-09T09:25:07Z</time>
      </trkpt>
      <trkpt lat="44.11701" lon="5.82875">
        <ele>1575</ele>
        <time>2019-08-09T09:25:08Z</time>
      </trkpt>
      <trkpt lat="44.11706" lon="5.82865">
        <ele>1575</ele>
        <time>2019-08-09T09:25:09Z</time>
      </trkpt>
      <trkpt lat="44.11711" lon="5.82856">
        <ele>1575</ele>
        <time>2019-08-09T09:25:10Z</time>
      </trkpt>
      <trkpt lat="44.11716" lon="5.82848">
        <ele>1575</ele>
        <time>2019-08-09T09:25:11Z</time>
      </trkpt>
      <trkpt lat="44.11723" lon="5.8284">
        <ele>1575</ele>
        <time>2019-08-09T09:25:12Z</time>
      </trkpt>
      <trkpt lat="44.11728" lon="5.82832">
        <ele>1575</ele>
        <time>2019-08-09T09:25:13Z</time>
      </trkpt>
      <trkpt lat="44.11732" lon="5.82824">
        <ele>1574</ele>
        <time>2019-08-09T09:25:14Z</time>
      </trkpt>
      <trkpt lat="44.11737" lon="5.82816">
        <ele>1574</ele>
        <time>2019-08-09T09:25:15Z</time>
      </trkpt>
      <trkpt lat="44.11741" lon="5.82806">
        <ele>1573</ele>
        <time>2019-08-09T09:25:16Z</time>
      </trkpt>
      <trkpt lat="44.11745" lon="5.82797">
        <ele>1572</ele>
        <time>2019-08-09T09:25:17Z</time>
      </trkpt>
      <trkpt lat="44.1175" lon="5.82788">
        <ele>1571</ele>
        <time>2019-08-09T09:25:18Z</time>
      </trkpt>
      <trkpt lat="44.11756" lon="5.8278">
        <ele>1570</ele>
        <time>2019-08-09T09:25:19Z</time>
      </trkpt>
      <trkpt lat="44.11761" lon="5.82772">
        <ele>1569</ele>
        <time>2019-08-09T09:25:20Z</time>
      </trkpt>
      <trkpt lat="44.11766" lon="5.82762">
        <ele>1568</ele>
        <time>2019-08-09T09:25:21Z</time>
      </trkpt>
      <trkpt lat="44.11772" lon="5.82753">
        <ele>1567</ele>
        <time>2019-08-09T09:25:22Z</time>
      </trkpt>
      <trkpt lat="44.11778" lon="5.82745">
        <ele>1566</ele>
        <time>2019-08-09T09:25:23Z</time>
      </trkpt>
      <trkpt lat="44.11782" lon="5.82735">
        <ele>1565</ele>
        <time>2019-08-09T09:25:24Z</time>
      </trkpt>
      <trkpt lat="44.11787" lon="5.82725">
        <ele>1564</ele>
        <time>2019-08-09T09:25:25Z</time>
      </trkpt>
      <trkpt lat="44.11791" lon="5.82715">
        <ele>1563</ele>
        <time>2019-08-09T09:25:26Z</time>
      </trkpt>
      <trkpt lat="44.11797" lon="5.82706">
        <ele>1563</ele>
        <time>2019-08-09T09:25:27Z</time>
      </trkpt>
      <trkpt lat="44.11804" lon="5.82699">
        <ele>1563</ele>
        <time>2019-08-09T09:25:28Z</time>
      </trkpt>
      <trkpt lat="44.1181" lon="5.82692">
        <ele>1562</ele>
        <time>2019-08-09T09:25:29Z</time>
      </trkpt>
      <trkpt lat="44.11816" lon="5.82684">
        <ele>1561</ele>
        <time>2019-08-09T09:25:30Z</time>
      </trkpt>
      <trkpt lat="44.11823" lon="5.82677">
        <ele>1560</ele>
        <time>2019-08-09T09:25:31Z</time>
      </trkpt>
      <trkpt lat="44.11829" lon="5.82669">
        <ele>1560</ele>
        <time>2019-08-09T09:25:32Z</time>
      </trkpt>
      <trkpt lat="44.11835" lon="5.8266">
        <ele>1559</ele>
        <time>2019-08-09T09:25:33Z</time>
      </trkpt>
      <trkpt lat="44.1184" lon="5.82651">
        <ele>1558</ele>
        <time>2019-08-09T09:25:34Z</time>
      </trkpt>
      <trkpt lat="44.11846" lon="5.82643">
        <ele>1558</ele>
        <time>2019-08-09T09:25:35Z</time>
      </trkpt>
      <trkpt lat="44.11852" lon="5.82634">
        <ele>1557</ele>
        <time>2019-08-09T09:25:36Z</time>
      </trkpt>
      <trkpt lat="44.11857" lon="5.82625">
        <ele>1556</ele>
        <time>2019-08-09T09:25:37Z</time>
      </trkpt>
      <trkpt lat="44.11863" lon="5.82617">
        <ele>1556</ele>
        <time>2019-08-09T09:25:38Z</time>
      </trkpt>
      <trkpt lat="44.11869" lon="5.82608">
        <ele>1555</ele>
        <time>2019-08-09T09:25:39Z</time>
      </trkpt>
      <trkpt lat="44.11875" lon="5.82599">
        <ele>1555</ele>
        <time>2019-08-09T09:25:40Z</time>
      </trkpt>
      <trkpt lat="44.1188" lon="5.82591">
        <ele>1554</ele>
        <time>2019-08-09T09:25:41Z</time>
      </trkpt>
      <trkpt lat="44.11885" lon="5.82583">
        <ele>1554</ele>
        <time>2019-08-09T09:25:42Z</time>
      </trkpt>
      <trkpt lat="44.11892" lon="5.82577">
        <ele>1554</ele>
        <time>2019-08-09T09:25:43Z</time>
      </trkpt>
      <trkpt lat="44.11898" lon="5.82571">
        <ele>1553</ele>
        <time>2019-08-09T09:25:44Z</time>
      </trkpt>
      <trkpt lat="44.11903" lon="5.82564">
        <ele>1553</ele>
        <time>2019-08-09T09:25:45Z</time>
      </trkpt>
      <trkpt lat="44.1191" lon="5.82558">
        <ele>1553</ele>
        <time>2019-08-09T09:25:46Z</time>
      </trkpt>
      <trkpt lat="44.11919" lon="5.82553">
        <ele>1552</ele>
        <time>2019-08-09T09:25:47Z</time>
      </trkpt>
      <trkpt lat="44.11926" lon="5.82548">
        <ele>1551</ele>
        <time>2019-08-09T09:25:48Z</time>
      </trkpt>
      <trkpt lat="44.11934" lon="5.82542">
        <ele>1551</ele>
        <time>2019-08-09T09:25:49Z</time>
      </trkpt>
      <trkpt lat="44.1194" lon="5.82534">
        <ele>1550</ele>
        <time>2019-08-09T09:25:50Z</time>
      </trkpt>
      <trkpt lat="44.11947" lon="5.82527">
        <ele>1549</ele>
        <time>2019-08-09T09:25:51Z</time>
      </trkpt>
      <trkpt lat="44.11954" lon="5.8252">
        <ele>1548</ele>
        <time>2019-08-09T09:25:52Z</time>
      </trkpt>
      <trkpt lat="44.11961" lon="5.82513">
        <ele>1547</ele>
        <time>2019-08-09T09:25:53Z</time>
      </trkpt>
      <trkpt lat="44.11968" lon="5.82504">
        <ele>1547</ele>
        <time>2019-08-09T09:25:54Z</time>
      </trkpt>
      <trkpt lat="44.11973" lon="5.82493">
        <ele>1546</ele>
        <time>2019-08-09T09:25:55Z</time>
      </trkpt>
      <trkpt lat="44.11979" lon="5.82483">
        <ele>1545</ele>
        <time>2019-08-09T09:25:56Z</time>
      </trkpt>
      <trkpt lat="44.11983" lon="5.82472">
        <ele>1544</ele>
        <time>2019-08-09T09:25:57Z</time>
      </trkpt>
      <trkpt lat="44.11989" lon="5.82463">
        <ele>1543</ele>
        <time>2019-08-09T09:25:58Z</time>
      </trkpt>
      <trkpt lat="44.11993" lon="5.82453">
        <ele>1542</ele>
        <time>2019-08-09T09:25:59Z</time>
      </trkpt>
      <trkpt lat="44.11996" lon="5.82444">
        <ele>1541</ele>
        <time>2019-08-09T09:26:00Z</time>
      </trkpt>
      <trkpt lat="44.12" lon="5.82434">
        <ele>1541</ele>
        <time>2019-08-09T09:26:01Z</time>
      </trkpt>
      <trkpt lat="44.12004" lon="5.82425">
        <ele>1540</ele>
        <time>2019-08-09T09:26:02Z</time>
      </trkpt>
      <trkpt lat="44.1201" lon="5.82416">
        <ele>1539</ele>
        <time>2019-08-09T09:26:03Z</time>
      </trkpt>
      <trkpt lat="44.12017" lon="5.82408">
        <ele>1539</ele>
        <time>2019-08-09T09:26:04Z</time>
      </trkpt>
      <trkpt lat="44.12023" lon="5.82402">
        <ele>1539</ele>
        <time>2019-08-09T09:26:05Z</time>
      </trkpt>
      <trkpt lat="44.12029" lon="5.82396">
        <ele>1539</ele>
        <time>2019-08-09T09:26:06Z</time>
      </trkpt>
      <trkpt lat="44.12035" lon="5.8239">
        <ele>1539</ele>
        <time>2019-08-09T09:26:07Z</time>
      </trkpt>
      <trkpt lat="44.12041" lon="5.82384">
        <ele>1539</ele>
        <time>2019-08-09T09:26:08Z</time>
      </trkpt>
      <trkpt lat="44.12048" lon="5.82375">
        <ele>1539</ele>
        <time>2019-08-09T09:26:09Z</time>
      </trkpt>
      <trkpt lat="44.12053" lon="5.82365">
        <ele>1539</ele>
        <time>2019-08-09T09:26:10Z</time>
      </trkpt>
      <trkpt lat="44.12057" lon="5.82354">
        <ele>1539</ele>
        <time>2019-08-09T09:26:11Z</time>
      </trkpt>
      <trkpt lat="44.12062" lon="5.82345">
        <ele>1538</ele>
        <time>2019-08-09T09:26:12Z</time>
      </trkpt>
      <trkpt lat="44.12066" lon="5.82337">
        <ele>1537</ele>
        <time>2019-08-09T09:26:13Z</time>
      </trkpt>
      <trkpt lat="44.1207" lon="5.82328">
        <ele>1536</ele>
        <time>2019-08-09T09:26:14Z</time>
      </trkpt>
      <trkpt lat="44.12073" lon="5.82318">
        <ele>1535</ele>
        <time>2019-08-09T09:26:15Z</time>
      </trkpt>
      <trkpt lat="44.12075" lon="5.82309">
        <ele>1535</ele>
        <time>2019-08-09T09:26:16Z</time>
      </trkpt>
      <trkpt lat="44.12078" lon="5.823">
        <ele>1535</ele>
        <time>2019-08-09T09:26:17Z</time>
      </trkpt>
      <trkpt lat="44.12083" lon="5.8229">
        <ele>1534</ele>
        <time>2019-08-09T09:26:18Z</time>
      </trkpt>
      <trkpt lat="44.12087" lon="5.82281">
        <ele>1533</ele>
        <time>2019-08-09T09:26:19Z</time>
      </trkpt>
      <trkpt lat="44.12092" lon="5.82273">
        <ele>1532</ele>
        <time>2019-08-09T09:26:20Z</time>
      </trkpt>
      <trkpt lat="44.12096" lon="5.82265">
        <ele>1531</ele>
        <time>2019-08-09T09:26:21Z</time>
      </trkpt>
      <trkpt lat="44.121" lon="5.82255">
        <ele>1530</ele>
        <time>2019-08-09T09:26:22Z</time>
      </trkpt>
      <trkpt lat="44.12104" lon="5.82246">
        <ele>1530</ele>
        <time>2019-08-09T09:26:23Z</time>
      </trkpt>
      <trkpt lat="44.12107" lon="5.82236">
        <ele>1529</ele>
        <time>2019-08-09T09:26:24Z</time>
      </trkpt>
      <trkpt lat="44.12111" lon="5.82226">
        <ele>1528</ele>
        <time>2019-08-09T09:26:25Z</time>
      </trkpt>
      <trkpt lat="44.12115" lon="5.82215">
        <ele>1528</ele>
        <time>2019-08-09T09:26:26Z</time>
      </trkpt>
      <trkpt lat="44.12119" lon="5.82205">
        <ele>1528</ele>
        <time>2019-08-09T09:26:27Z</time>
      </trkpt>
      <trkpt lat="44.12122" lon="5.82195">
        <ele>1527</ele>
        <time>2019-08-09T09:26:28Z</time>
      </trkpt>
      <trkpt lat="44.12124" lon="5.82183">
        <ele>1527</ele>
        <time>2019-08-09T09:26:29Z</time>
      </trkpt>
      <trkpt lat="44.12128" lon="5.82173">
        <ele>1527</ele>
        <time>2019-08-09T09:26:30Z</time>
      </trkpt>
      <trkpt lat="44.12132" lon="5.82163">
        <ele>1526</ele>
        <time>2019-08-09T09:26:31Z</time>
      </trkpt>
      <trkpt lat="44.12136" lon="5.82153">
        <ele>1525</ele>
        <time>2019-08-09T09:26:32Z</time>
      </trkpt>
      <trkpt lat="44.12141" lon="5.82143">
        <ele>1524</ele>
        <time>2019-08-09T09:26:33Z</time>
      </trkpt>
      <trkpt lat="44.12147" lon="5.82134">
        <ele>1524</ele>
        <time>2019-08-09T09:26:34Z</time>
      </trkpt>
      <trkpt lat="44.12155" lon="5.82126">
        <ele>1523</ele>
        <time>2019-08-09T09:26:35Z</time>
      </trkpt>
      <trkpt lat="44.12162" lon="5.82118">
        <ele>1522</ele>
        <time>2019-08-09T09:26:36Z</time>
      </trkpt>
      <trkpt lat="44.12168" lon="5.8211">
        <ele>1522</ele>
        <time>2019-08-09T09:26:37Z</time>
      </trkpt>
      <trkpt lat="44.12175" lon="5.82103">
        <ele>1521</ele>
        <time>2019-08-09T09:26:38Z</time>
      </trkpt>
      <trkpt lat="44.12181" lon="5.82096">
        <ele>1520</ele>
        <time>2019-08-09T09:26:39Z</time>
      </trkpt>
      <trkpt lat="44.12186" lon="5.82089">
        <ele>1520</ele>
        <time>2019-08-09T09:26:40Z</time>
      </trkpt>
      <trkpt lat="44.12192" lon="5.82082">
        <ele>1519</ele>
        <time>2019-08-09T09:26:41Z</time>
      </trkpt>
      <trkpt lat="44.12196" lon="5.82073">
        <ele>1518</ele>
        <time>2019-08-09T09:26:42Z</time>
      </trkpt>
      <trkpt lat="44.12201" lon="5.82063">
        <ele>1518</ele>
        <time>2019-08-09T09:26:43Z</time>
      </trkpt>
      <trkpt lat="44.12207" lon="5.82055">
        <ele>1517</ele>
        <time>2019-08-09T09:26:44Z</time>
      </trkpt>
      <trkpt lat="44.12213" lon="5.82047">
        <ele>1517</ele>
        <time>2019-08-09T09:26:45Z</time>
      </trkpt>
      <trkpt lat="44.12219" lon="5.82039">
        <ele>1516</ele>
        <time>2019-08-09T09:26:46Z</time>
      </trkpt>
      <trkpt lat="44.12225" lon="5.82031">
        <ele>1516</ele>
        <time>2019-08-09T09:26:47Z</time>
      </trkpt>
      <trkpt lat="44.12231" lon="5.82024">
        <ele>1515</ele>
        <time>2019-08-09T09:26:48Z</time>
      </trkpt>
      <trkpt lat="44.12236" lon="5.82018">
        <ele>1514</ele>
        <time>2019-08-09T09:26:49Z</time>
      </trkpt>
      <trkpt lat="44.12243" lon="5.82012">
        <ele>1513</ele>
        <time>2019-08-09T09:26:50Z</time>
      </trkpt>
      <trkpt lat="44.12249" lon="5.82005">
        <ele>1512</ele>
        <time>2019-08-09T09:26:51Z</time>
      </trkpt>
      <trkpt lat="44.12256" lon="5.81997">
        <ele>1511</ele>
        <time>2019-08-09T09:26:52Z</time>
      </trkpt>
      <trkpt lat="44.12262" lon="5.81989">
        <ele>1510</ele>
        <time>2019-08-09T09:26:53Z</time>
      </trkpt>
      <trkpt lat="44.12268" lon="5.8198">
        <ele>1509</ele>
        <time>2019-08-09T09:26:54Z</time>
      </trkpt>
      <trkpt lat="44.12273" lon="5.81972">
        <ele>1508</ele>
        <time>2019-08-09T09:26:55Z</time>
      </trkpt>
      <trkpt lat="44.12278" lon="5.81963">
        <ele>1507</ele>
        <time>2019-08-09T09:26:56Z</time>
      </trkpt>
      <trkpt lat="44.12283" lon="5.81955">
        <ele>1506</ele>
        <time>2019-08-09T09:26:57Z</time>
      </trkpt>
      <trkpt lat="44.12289" lon="5.81946">
        <ele>1505</ele>
        <time>2019-08-09T09:26:58Z</time>
      </trkpt>
      <trkpt lat="44.12294" lon="5.81936">
        <ele>1504</ele>
        <time>2019-08-09T09:26:59Z</time>
      </trkpt>
      <trkpt lat="44.12299" lon="5.81927">
        <ele>1503</ele>
        <time>2019-08-09T09:27:00Z</time>
      </trkpt>
      <trkpt lat="44.12304" lon="5.81917">
        <ele>1502</ele>
        <time>2019-08-09T09:27:01Z</time>
      </trkpt>
      <trkpt lat="44.12309" lon="5.81908">
        <ele>1501</ele>
        <time>2019-08-09T09:27:02Z</time>
      </trkpt>
      <trkpt lat="44.12315" lon="5.819">
        <ele>1500</ele>
        <time>2019-08-09T09:27:03Z</time>
      </trkpt>
      <trkpt lat="44.1232" lon="5.81891">
        <ele>1499</ele>
        <time>2019-08-09T09:27:04Z</time>
      </trkpt>
      <trkpt lat="44.12326" lon="5.81883">
        <ele>1498</ele>
        <time>2019-08-09T09:27:05Z</time>
      </trkpt>
      <trkpt lat="44.1233" lon="5.81874">
        <ele>1497</ele>
        <time>2019-08-09T09:27:06Z</time>
      </trkpt>
      <trkpt lat="44.12336" lon="5.81865">
        <ele>1496</ele>
        <time>2019-08-09T09:27:07Z</time>
      </trkpt>
      <trkpt lat="44.12342" lon="5.81856">
        <ele>1495</ele>
        <time>2019-08-09T09:27:08Z</time>
      </trkpt>
      <trkpt lat="44.12347" lon="5.81847">
        <ele>1494</ele>
        <time>2019-08-09T09:27:09Z</time>
      </trkpt>
      <trkpt lat="44.12352" lon="5.81838">
        <ele>1493</ele>
        <time>2019-08-09T09:27:10Z</time>
      </trkpt>
      <trkpt lat="44.12357" lon="5.81828">
        <ele>1492</ele>
        <time>2019-08-09T09:27:11Z</time>
      </trkpt>
      <trkpt lat="44.12361" lon="5.8182">
        <ele>1491</ele>
        <time>2019-08-09T09:27:12Z</time>
      </trkpt>
      <trkpt lat="44.12366" lon="5.81812">
        <ele>1490</ele>
        <time>2019-08-09T09:27:13Z</time>
      </trkpt>
      <trkpt lat="44.12371" lon="5.81803">
        <ele>1489</ele>
        <time>2019-08-09T09:27:14Z</time>
      </trkpt>
      <trkpt lat="44.12376" lon="5.81796">
        <ele>1488</ele>
        <time>2019-08-09T09:27:15Z</time>
      </trkpt>
      <trkpt lat="44.12382" lon="5.81788">
        <ele>1487</ele>
        <time>2019-08-09T09:27:16Z</time>
      </trkpt>
      <trkpt lat="44.12388" lon="5.81782">
        <ele>1486</ele>
        <time>2019-08-09T09:27:17Z</time>
      </trkpt>
      <trkpt lat="44.12395" lon="5.81777">
        <ele>1485</ele>
        <time>2019-08-09T09:27:18Z</time>
      </trkpt>
      <trkpt lat="44.124" lon="5.81772">
        <ele>1484</ele>
        <time>2019-08-09T09:27:19Z</time>
      </trkpt>
      <trkpt lat="44.12407" lon="5.81767">
        <ele>1483</ele>
        <time>2019-08-09T09:27:20Z</time>
      </trkpt>
      <trkpt lat="44.12414" lon="5.81763">
        <ele>1482</ele>
        <time>2019-08-09T09:27:21Z</time>
      </trkpt>
      <trkpt lat="44.12421" lon="5.81757">
        <ele>1482</ele>
        <time>2019-08-09T09:27:22Z</time>
      </trkpt>
      <trkpt lat="44.12427" lon="5.81752">
        <ele>1482</ele>
        <time>2019-08-09T09:27:23Z</time>
      </trkpt>
      <trkpt lat="44.12434" lon="5.81745">
        <ele>1482</ele>
        <time>2019-08-09T09:27:24Z</time>
      </trkpt>
      <trkpt lat="44.1244" lon="5.81738">
        <ele>1482</ele>
        <time>2019-08-09T09:27:25Z</time>
      </trkpt>
      <trkpt lat="44.12445" lon="5.8173">
        <ele>1482</ele>
        <time>2019-08-09T09:27:26Z</time>
      </trkpt>
      <trkpt lat="44.1245" lon="5.8172">
        <ele>1482</ele>
        <time>2019-08-09T09:27:27Z</time>
      </trkpt>
      <trkpt lat="44.12454" lon="5.81711">
        <ele>1482</ele>
        <time>2019-08-09T09:27:28Z</time>
      </trkpt>
      <trkpt lat="44.12458" lon="5.81702">
        <ele>1482</ele>
        <time>2019-08-09T09:27:29Z</time>
      </trkpt>
      <trkpt lat="44.12462" lon="5.81693">
        <ele>1482</ele>
        <time>2019-08-09T09:27:30Z</time>
      </trkpt>
      <trkpt lat="44.12465" lon="5.81683">
        <ele>1482</ele>
        <time>2019-08-09T09:27:31Z</time>
      </trkpt>
      <trkpt lat="44.12468" lon="5.81674">
        <ele>1482</ele>
        <time>2019-08-09T09:27:32Z</time>
      </trkpt>
      <trkpt lat="44.12471" lon="5.81666">
        <ele>1482</ele>
        <time>2019-08-09T09:27:33Z</time>
      </trkpt>
      <trkpt lat="44.12475" lon="5.81657">
        <ele>1482</ele>
        <time>2019-08-09T09:27:34Z</time>
      </trkpt>
      <trkpt lat="44.12479" lon="5.81648">
        <ele>1482</ele>
        <time>2019-08-09T09:27:35Z</time>
      </trkpt>
      <trkpt lat="44.12481" lon="5.81639">
        <ele>1482</ele>
        <time>2019-08-09T09:27:36Z</time>
      </trkpt>
      <trkpt lat="44.12483" lon="5.81629">
        <ele>1482</ele>
        <time>2019-08-09T09:27:37Z</time>
      </trkpt>
      <trkpt lat="44.12484" lon="5.8162">
        <ele>1482</ele>
        <time>2019-08-09T09:27:38Z</time>
      </trkpt>
      <trkpt lat="44.12487" lon="5.81611">
        <ele>1482</ele>
        <time>2019-08-09T09:27:39Z</time>
      </trkpt>
      <trkpt lat="44.1249" lon="5.81602">
        <ele>1482</ele>
        <time>2019-08-09T09:27:40Z</time>
      </trkpt>
      <trkpt lat="44.12492" lon="5.81593">
        <ele>1482</ele>
        <time>2019-08-09T09:27:41Z</time>
      </trkpt>
      <trkpt lat="44.12496" lon="5.81584">
        <ele>1481</ele>
        <time>2019-08-09T09:27:42Z</time>
      </trkpt>
      <trkpt lat="44.12501" lon="5.81576">
        <ele>1480</ele>
        <time>2019-08-09T09:27:43Z</time>
      </trkpt>
      <trkpt lat="44.12506" lon="5.81568">
        <ele>1479</ele>
        <time>2019-08-09T09:27:44Z</time>
      </trkpt>
      <trkpt lat="44.12511" lon="5.8156">
        <ele>1478</ele>
        <time>2019-08-09T09:27:45Z</time>
      </trkpt>
      <trkpt lat="44.12516" lon="5.81552">
        <ele>1477</ele>
        <time>2019-08-09T09:27:46Z</time>
      </trkpt>
      <trkpt lat="44.12521" lon="5.81545">
        <ele>1476</ele>
        <time>2019-08-09T09:27:47Z</time>
      </trkpt>
      <trkpt lat="44.12527" lon="5.81539">
        <ele>1475</ele>
        <time>2019-08-09T09:27:48Z</time>
      </trkpt>
      <trkpt lat="44.12531" lon="5.81531">
        <ele>1474</ele>
        <time>2019-08-09T09:27:49Z</time>
      </trkpt>
      <trkpt lat="44.12535" lon="5.81522">
        <ele>1474</ele>
        <time>2019-08-09T09:27:50Z</time>
      </trkpt>
      <trkpt lat="44.12537" lon="5.8151">
        <ele>1474</ele>
        <time>2019-08-09T09:27:51Z</time>
      </trkpt>
      <trkpt lat="44.1254" lon="5.81499">
        <ele>1474</ele>
        <time>2019-08-09T09:27:52Z</time>
      </trkpt>
      <trkpt lat="44.12546" lon="5.81491">
        <ele>1474</ele>
        <time>2019-08-09T09:27:53Z</time>
      </trkpt>
      <trkpt lat="44.1255" lon="5.81482">
        <ele>1473</ele>
        <time>2019-08-09T09:27:54Z</time>
      </trkpt>
      <trkpt lat="44.12554" lon="5.81472">
        <ele>1473</ele>
        <time>2019-08-09T09:27:55Z</time>
      </trkpt>
      <trkpt lat="44.12557" lon="5.81461">
        <ele>1473</ele>
        <time>2019-08-09T09:27:56Z</time>
      </trkpt>
      <trkpt lat="44.12561" lon="5.81452">
        <ele>1473</ele>
        <time>2019-08-09T09:27:57Z</time>
      </trkpt>
      <trkpt lat="44.12567" lon="5.81444">
        <ele>1473</ele>
        <time>2019-08-09T09:27:58Z</time>
      </trkpt>
      <trkpt lat="44.12573" lon="5.81437">
        <ele>1472</ele>
        <time>2019-08-09T09:27:59Z</time>
      </trkpt>
      <trkpt lat="44.12579" lon="5.8143">
        <ele>1471</ele>
        <time>2019-08-09T09:28:00Z</time>
      </trkpt>
      <trkpt lat="44.12587" lon="5.81423">
        <ele>1470</ele>
        <time>2019-08-09T09:28:01Z</time>
      </trkpt>
      <trkpt lat="44.12593" lon="5.81415">
        <ele>1469</ele>
        <time>2019-08-09T09:28:02Z</time>
      </trkpt>
      <trkpt lat="44.12597" lon="5.81405">
        <ele>1468</ele>
        <time>2019-08-09T09:28:03Z</time>
      </trkpt>
      <trkpt lat="44.12601" lon="5.81396">
        <ele>1467</ele>
        <time>2019-08-09T09:28:04Z</time>
      </trkpt>
      <trkpt lat="44.12606" lon="5.81387">
        <ele>1466</ele>
        <time>2019-08-09T09:28:05Z</time>
      </trkpt>
      <trkpt lat="44.12609" lon="5.81377">
        <ele>1465</ele>
        <time>2019-08-09T09:28:06Z</time>
      </trkpt>
      <trkpt lat="44.12613" lon="5.81367">
        <ele>1464</ele>
        <time>2019-08-09T09:28:07Z</time>
      </trkpt>
      <trkpt lat="44.12617" lon="5.81358">
        <ele>1463</ele>
        <time>2019-08-09T09:28:08Z</time>
      </trkpt>
      <trkpt lat="44.12621" lon="5.81349">
        <ele>1462</ele>
        <time>2019-08-09T09:28:09Z</time>
      </trkpt>
      <trkpt lat="44.12627" lon="5.81341">
        <ele>1462</ele>
        <time>2019-08-09T09:28:10Z</time>
      </trkpt>
      <trkpt lat="44.12631" lon="5.81332">
        <ele>1461</ele>
        <time>2019-08-09T09:28:11Z</time>
      </trkpt>
      <trkpt lat="44.12635" lon="5.81324">
        <ele>1461</ele>
        <time>2019-08-09T09:28:12Z</time>
      </trkpt>
      <trkpt lat="44.1264" lon="5.81315">
        <ele>1461</ele>
        <time>2019-08-09T09:28:13Z</time>
      </trkpt>
      <trkpt lat="44.12644" lon="5.81306">
        <ele>1461</ele>
        <time>2019-08-09T09:28:14Z</time>
      </trkpt>
      <trkpt lat="44.12649" lon="5.81297">
        <ele>1460</ele>
        <time>2019-08-09T09:28:15Z</time>
      </trkpt>
      <trkpt lat="44.12653" lon="5.81288">
        <ele>1460</ele>
        <time>2019-08-09T09:28:16Z</time>
      </trkpt>
      <trkpt lat="44.12655" lon="5.81278">
        <ele>1459</ele>
        <time>2019-08-09T09:28:17Z</time>
      </trkpt>
      <trkpt lat="44.12657" lon="5.8127">
        <ele>1459</ele>
        <time>2019-08-09T09:28:18Z</time>
      </trkpt>
      <trkpt lat="44.12657" lon="5.81263">
        <ele>1458</ele>
        <time>2019-08-09T09:28:19Z</time>
      </trkpt>
      <trkpt lat="44.12659" lon="5.8126">
        <ele>1458</ele>
        <time>2019-08-09T09:28:20Z</time>
      </trkpt>
      <trkpt lat="44.12661" lon="5.81255">
        <ele>1458</ele>
        <time>2019-08-09T09:28:21Z</time>
      </trkpt>
      <trkpt lat="44.12662" lon="5.8125">
        <ele>1458</ele>
        <time>2019-08-09T09:28:22Z</time>
      </trkpt>
      <trkpt lat="44.12665" lon="5.81245">
        <ele>1458</ele>
        <time>2019-08-09T09:28:23Z</time>
      </trkpt>
      <trkpt lat="44.12669" lon="5.81243">
        <ele>1458</ele>
        <time>2019-08-09T09:28:24Z</time>
      </trkpt>
      <trkpt lat="44.12673" lon="5.81243">
        <ele>1458</ele>
        <time>2019-08-09T09:28:25Z</time>
      </trkpt>
      <trkpt lat="44.12676" lon="5.81246">
        <ele>1458</ele>
        <time>2019-08-09T09:28:26Z</time>
      </trkpt>
      <trkpt lat="44.12678" lon="5.8125">
        <ele>1458</ele>
        <time>2019-08-09T09:28:27Z</time>
      </trkpt>
      <trkpt lat="44.12677" lon="5.81256">
        <ele>1458</ele>
        <time>2019-08-09T09:28:28Z</time>
      </trkpt>
      <trkpt lat="44.12674" lon="5.81263">
        <ele>1458</ele>
        <time>2019-08-09T09:28:29Z</time>
      </trkpt>
      <trkpt lat="44.12672" lon="5.8127">
        <ele>1458</ele>
        <time>2019-08-09T09:28:30Z</time>
      </trkpt>
      <trkpt lat="44.12669" lon="5.81277">
        <ele>1458</ele>
        <time>2019-08-09T09:28:31Z</time>
      </trkpt>
      <trkpt lat="44.12667" lon="5.81286">
        <ele>1458</ele>
        <time>2019-08-09T09:28:32Z</time>
      </trkpt>
      <trkpt lat="44.12664" lon="5.81294">
        <ele>1458</ele>
        <time>2019-08-09T09:28:33Z</time>
      </trkpt>
      <trkpt lat="44.12663" lon="5.81303">
        <ele>1459</ele>
        <time>2019-08-09T09:28:34Z</time>
      </trkpt>
      <trkpt lat="44.12661" lon="5.81312">
        <ele>1460</ele>
        <time>2019-08-09T09:28:35Z</time>
      </trkpt>
      <trkpt lat="44.12658" lon="5.81321">
        <ele>1461</ele>
        <time>2019-08-09T09:28:36Z</time>
      </trkpt>
      <trkpt lat="44.12654" lon="5.8133">
        <ele>1462</ele>
        <time>2019-08-09T09:28:37Z</time>
      </trkpt>
      <trkpt lat="44.12651" lon="5.8134">
        <ele>1463</ele>
        <time>2019-08-09T09:28:38Z</time>
      </trkpt>
      <trkpt lat="44.12647" lon="5.8135">
        <ele>1463</ele>
        <time>2019-08-09T09:28:39Z</time>
      </trkpt>
      <trkpt lat="44.12643" lon="5.8136">
        <ele>1463</ele>
        <time>2019-08-09T09:28:40Z</time>
      </trkpt>
      <trkpt lat="44.12638" lon="5.8137">
        <ele>1463</ele>
        <time>2019-08-09T09:28:41Z</time>
      </trkpt>
      <trkpt lat="44.12634" lon="5.81381">
        <ele>1463</ele>
        <time>2019-08-09T09:28:42Z</time>
      </trkpt>
      <trkpt lat="44.1263" lon="5.81391">
        <ele>1463</ele>
        <time>2019-08-09T09:28:43Z</time>
      </trkpt>
      <trkpt lat="44.12626" lon="5.81401">
        <ele>1463</ele>
        <time>2019-08-09T09:28:44Z</time>
      </trkpt>
      <trkpt lat="44.12623" lon="5.81411">
        <ele>1463</ele>
        <time>2019-08-09T09:28:45Z</time>
      </trkpt>
      <trkpt lat="44.1262" lon="5.81422">
        <ele>1463</ele>
        <time>2019-08-09T09:28:46Z</time>
      </trkpt>
      <trkpt lat="44.12617" lon="5.81432">
        <ele>1463</ele>
        <time>2019-08-09T09:28:47Z</time>
      </trkpt>
      <trkpt lat="44.12614" lon="5.81444">
        <ele>1463</ele>
        <time>2019-08-09T09:28:48Z</time>
      </trkpt>
      <trkpt lat="44.12611" lon="5.81455">
        <ele>1463</ele>
        <time>2019-08-09T09:28:49Z</time>
      </trkpt>
      <trkpt lat="44.12607" lon="5.81466">
        <ele>1463</ele>
        <time>2019-08-09T09:28:50Z</time>
      </trkpt>
      <trkpt lat="44.12603" lon="5.81478">
        <ele>1463</ele>
        <time>2019-08-09T09:28:51Z</time>
      </trkpt>
      <trkpt lat="44.12598" lon="5.81489">
        <ele>1463</ele>
        <time>2019-08-09T09:28:52Z</time>
      </trkpt>
      <trkpt lat="44.12593" lon="5.81501">
        <ele>1463</ele>
        <time>2019-08-09T09:28:53Z</time>
      </trkpt>
      <trkpt lat="44.1259" lon="5.81512">
        <ele>1463</ele>
        <time>2019-08-09T09:28:54Z</time>
      </trkpt>
      <trkpt lat="44.12586" lon="5.81524">
        <ele>1463</ele>
        <time>2019-08-09T09:28:55Z</time>
      </trkpt>
      <trkpt lat="44.12584" lon="5.81535">
        <ele>1463</ele>
        <time>2019-08-09T09:28:56Z</time>
      </trkpt>
      <trkpt lat="44.12581" lon="5.81546">
        <ele>1463</ele>
        <time>2019-08-09T09:28:57Z</time>
      </trkpt>
      <trkpt lat="44.12579" lon="5.81558">
        <ele>1462</ele>
        <time>2019-08-09T09:28:58Z</time>
      </trkpt>
      <trkpt lat="44.12577" lon="5.8157">
        <ele>1462</ele>
        <time>2019-08-09T09:28:59Z</time>
      </trkpt>
      <trkpt lat="44.12575" lon="5.81582">
        <ele>1461</ele>
        <time>2019-08-09T09:29:00Z</time>
      </trkpt>
      <trkpt lat="44.12572" lon="5.81593">
        <ele>1460</ele>
        <time>2019-08-09T09:29:01Z</time>
      </trkpt>
      <trkpt lat="44.12569" lon="5.81604">
        <ele>1459</ele>
        <time>2019-08-09T09:29:02Z</time>
      </trkpt>
      <trkpt lat="44.12567" lon="5.81614">
        <ele>1459</ele>
        <time>2019-08-09T09:29:03Z</time>
      </trkpt>
      <trkpt lat="44.12564" lon="5.81624">
        <ele>1458</ele>
        <time>2019-08-09T09:29:04Z</time>
      </trkpt>
      <trkpt lat="44.12561" lon="5.81635">
        <ele>1457</ele>
        <time>2019-08-09T09:29:05Z</time>
      </trkpt>
      <trkpt lat="44.12558" lon="5.81645">
        <ele>1456</ele>
        <time>2019-08-09T09:29:06Z</time>
      </trkpt>
      <trkpt lat="44.12555" lon="5.81656">
        <ele>1455</ele>
        <time>2019-08-09T09:29:07Z</time>
      </trkpt>
      <trkpt lat="44.12553" lon="5.81666">
        <ele>1454</ele>
        <time>2019-08-09T09:29:08Z</time>
      </trkpt>
      <trkpt lat="44.1255" lon="5.81676">
        <ele>1453</ele>
        <time>2019-08-09T09:29:09Z</time>
      </trkpt>
      <trkpt lat="44.12548" lon="5.81687">
        <ele>1452</ele>
        <time>2019-08-09T09:29:10Z</time>
      </trkpt>
      <trkpt lat="44.12548" lon="5.81698">
        <ele>1451</ele>
        <time>2019-08-09T09:29:11Z</time>
      </trkpt>
      <trkpt lat="44.12547" lon="5.81709">
        <ele>1450</ele>
        <time>2019-08-09T09:29:12Z</time>
      </trkpt>
      <trkpt lat="44.12546" lon="5.81721">
        <ele>1449</ele>
        <time>2019-08-09T09:29:13Z</time>
      </trkpt>
      <trkpt lat="44.12545" lon="5.81733">
        <ele>1448</ele>
        <time>2019-08-09T09:29:14Z</time>
      </trkpt>
      <trkpt lat="44.12544" lon="5.81745">
        <ele>1447</ele>
        <time>2019-08-09T09:29:15Z</time>
      </trkpt>
      <trkpt lat="44.12543" lon="5.81758">
        <ele>1446</ele>
        <time>2019-08-09T09:29:16Z</time>
      </trkpt>
      <trkpt lat="44.12542" lon="5.81771">
        <ele>1445</ele>
        <time>2019-08-09T09:29:17Z</time>
      </trkpt>
      <trkpt lat="44.1254" lon="5.81784">
        <ele>1444</ele>
        <time>2019-08-09T09:29:18Z</time>
      </trkpt>
      <trkpt lat="44.12538" lon="5.81796">
        <ele>1443</ele>
        <time>2019-08-09T09:29:19Z</time>
      </trkpt>
      <trkpt lat="44.12535" lon="5.81808">
        <ele>1442</ele>
        <time>2019-08-09T09:29:20Z</time>
      </trkpt>
      <trkpt lat="44.12532" lon="5.8182">
        <ele>1442</ele>
        <time>2019-08-09T09:29:21Z</time>
      </trkpt>
      <trkpt lat="44.12527" lon="5.81832">
        <ele>1441</ele>
        <time>2019-08-09T09:29:22Z</time>
      </trkpt>
      <trkpt lat="44.12522" lon="5.81842">
        <ele>1441</ele>
        <time>2019-08-09T09:29:23Z</time>
      </trkpt>
      <trkpt lat="44.12517" lon="5.81851">
        <ele>1440</ele>
        <time>2019-08-09T09:29:24Z</time>
      </trkpt>
      <trkpt lat="44.12511" lon="5.8186">
        <ele>1440</ele>
        <time>2019-08-09T09:29:25Z</time>
      </trkpt>
      <trkpt lat="44.12505" lon="5.81868">
        <ele>1439</ele>
        <time>2019-08-09T09:29:26Z</time>
      </trkpt>
      <trkpt lat="44.12498" lon="5.81876">
        <ele>1438</ele>
        <time>2019-08-09T09:29:27Z</time>
      </trkpt>
      <trkpt lat="44.12492" lon="5.81882">
        <ele>1437</ele>
        <time>2019-08-09T09:29:28Z</time>
      </trkpt>
      <trkpt lat="44.12486" lon="5.81887">
        <ele>1436</ele>
        <time>2019-08-09T09:29:29Z</time>
      </trkpt>
      <trkpt lat="44.12481" lon="5.81893">
        <ele>1435</ele>
        <time>2019-08-09T09:29:30Z</time>
      </trkpt>
      <trkpt lat="44.12476" lon="5.81902">
        <ele>1434</ele>
        <time>2019-08-09T09:29:31Z</time>
      </trkpt>
      <trkpt lat="44.12471" lon="5.81911">
        <ele>1433</ele>
        <time>2019-08-09T09:29:32Z</time>
      </trkpt>
      <trkpt lat="44.12468" lon="5.8192">
        <ele>1432</ele>
        <time>2019-08-09T09:29:33Z</time>
      </trkpt>
      <trkpt lat="44.12464" lon="5.8193">
        <ele>1432</ele>
        <time>2019-08-09T09:29:34Z</time>
      </trkpt>
      <trkpt lat="44.1246" lon="5.81941">
        <ele>1432</ele>
        <time>2019-08-09T09:29:35Z</time>
      </trkpt>
      <trkpt lat="44.12457" lon="5.81952">
        <ele>1432</ele>
        <time>2019-08-09T09:29:36Z</time>
      </trkpt>
      <trkpt lat="44.12453" lon="5.81965">
        <ele>1432</ele>
        <time>2019-08-09T09:29:37Z</time>
      </trkpt>
      <trkpt lat="44.12449" lon="5.81977">
        <ele>1432</ele>
        <time>2019-08-09T09:29:38Z</time>
      </trkpt>
      <trkpt lat="44.12444" lon="5.81989">
        <ele>1431</ele>
        <time>2019-08-09T09:29:39Z</time>
      </trkpt>
      <trkpt lat="44.12439" lon="5.82">
        <ele>1430</ele>
        <time>2019-08-09T09:29:40Z</time>
      </trkpt>
      <trkpt lat="44.12435" lon="5.82011">
        <ele>1429</ele>
        <time>2019-08-09T09:29:41Z</time>
      </trkpt>
      <trkpt lat="44.1243" lon="5.82022">
        <ele>1428</ele>
        <time>2019-08-09T09:29:42Z</time>
      </trkpt>
      <trkpt lat="44.12426" lon="5.82032">
        <ele>1428</ele>
        <time>2019-08-09T09:29:43Z</time>
      </trkpt>
      <trkpt lat="44.12421" lon="5.82043">
        <ele>1427</ele>
        <time>2019-08-09T09:29:44Z</time>
      </trkpt>
      <trkpt lat="44.12416" lon="5.82054">
        <ele>1426</ele>
        <time>2019-08-09T09:29:45Z</time>
      </trkpt>
      <trkpt lat="44.12411" lon="5.82066">
        <ele>1425</ele>
        <time>2019-08-09T09:29:46Z</time>
      </trkpt>
      <trkpt lat="44.12406" lon="5.82079">
        <ele>1425</ele>
        <time>2019-08-09T09:29:47Z</time>
      </trkpt>
      <trkpt lat="44.12401" lon="5.82092">
        <ele>1424</ele>
        <time>2019-08-09T09:29:48Z</time>
      </trkpt>
      <trkpt lat="44.12396" lon="5.82104">
        <ele>1423</ele>
        <time>2019-08-09T09:29:49Z</time>
      </trkpt>
      <trkpt lat="44.1239" lon="5.82116">
        <ele>1422</ele>
        <time>2019-08-09T09:29:50Z</time>
      </trkpt>
      <trkpt lat="44.12384" lon="5.82127">
        <ele>1421</ele>
        <time>2019-08-09T09:29:51Z</time>
      </trkpt>
      <trkpt lat="44.12378" lon="5.82137">
        <ele>1421</ele>
        <time>2019-08-09T09:29:52Z</time>
      </trkpt>
      <trkpt lat="44.12373" lon="5.82147">
        <ele>1421</ele>
        <time>2019-08-09T09:29:53Z</time>
      </trkpt>
      <trkpt lat="44.12368" lon="5.82156">
        <ele>1420</ele>
        <time>2019-08-09T09:29:54Z</time>
      </trkpt>
      <trkpt lat="44.12363" lon="5.82166">
        <ele>1420</ele>
        <time>2019-08-09T09:29:55Z</time>
      </trkpt>
      <trkpt lat="44.12358" lon="5.82177">
        <ele>1420</ele>
        <time>2019-08-09T09:29:56Z</time>
      </trkpt>
      <trkpt lat="44.12354" lon="5.82188">
        <ele>1419</ele>
        <time>2019-08-09T09:29:57Z</time>
      </trkpt>
      <trkpt lat="44.12351" lon="5.822">
        <ele>1418</ele>
        <time>2019-08-09T09:29:58Z</time>
      </trkpt>
      <trkpt lat="44.12348" lon="5.82212">
        <ele>1418</ele>
        <time>2019-08-09T09:29:59Z</time>
      </trkpt>
      <trkpt lat="44.12345" lon="5.82224">
        <ele>1417</ele>
        <time>2019-08-09T09:30:00Z</time>
      </trkpt>
      <trkpt lat="44.12342" lon="5.82236">
        <ele>1417</ele>
        <time>2019-08-09T09:30:01Z</time>
      </trkpt>
      <trkpt lat="44.12338" lon="5.82248">
        <ele>1416</ele>
        <time>2019-08-09T09:30:02Z</time>
      </trkpt>
      <trkpt lat="44.12334" lon="5.82259">
        <ele>1416</ele>
        <time>2019-08-09T09:30:03Z</time>
      </trkpt>
      <trkpt lat="44.12329" lon="5.82269">
        <ele>1415</ele>
        <time>2019-08-09T09:30:04Z</time>
      </trkpt>
      <trkpt lat="44.12325" lon="5.82279">
        <ele>1414</ele>
        <time>2019-08-09T09:30:05Z</time>
      </trkpt>
      <trkpt lat="44.12321" lon="5.82289">
        <ele>1413</ele>
        <time>2019-08-09T09:30:06Z</time>
      </trkpt>
      <trkpt lat="44.12318" lon="5.823">
        <ele>1412</ele>
        <time>2019-08-09T09:30:07Z</time>
      </trkpt>
      <trkpt lat="44.12315" lon="5.82311">
        <ele>1411</ele>
        <time>2019-08-09T09:30:08Z</time>
      </trkpt>
      <trkpt lat="44.12311" lon="5.82323">
        <ele>1411</ele>
        <time>2019-08-09T09:30:09Z</time>
      </trkpt>
      <trkpt lat="44.12308" lon="5.82334">
        <ele>1410</ele>
        <time>2019-08-09T09:30:10Z</time>
      </trkpt>
      <trkpt lat="44.12305" lon="5.82345">
        <ele>1410</ele>
        <time>2019-08-09T09:30:11Z</time>
      </trkpt>
      <trkpt lat="44.12302" lon="5.82356">
        <ele>1409</ele>
        <time>2019-08-09T09:30:12Z</time>
      </trkpt>
      <trkpt lat="44.12301" lon="5.82368">
        <ele>1409</ele>
        <time>2019-08-09T09:30:13Z</time>
      </trkpt>
      <trkpt lat="44.123" lon="5.82379">
        <ele>1408</ele>
        <time>2019-08-09T09:30:14Z</time>
      </trkpt>
      <trkpt lat="44.123" lon="5.8239">
        <ele>1407</ele>
        <time>2019-08-09T09:30:15Z</time>
      </trkpt>
      <trkpt lat="44.12299" lon="5.82402">
        <ele>1406</ele>
        <time>2019-08-09T09:30:16Z</time>
      </trkpt>
      <trkpt lat="44.12298" lon="5.82414">
        <ele>1405</ele>
        <time>2019-08-09T09:30:17Z</time>
      </trkpt>
      <trkpt lat="44.12299" lon="5.82428">
        <ele>1404</ele>
        <time>2019-08-09T09:30:18Z</time>
      </trkpt>
      <trkpt lat="44.123" lon="5.8244">
        <ele>1403</ele>
        <time>2019-08-09T09:30:19Z</time>
      </trkpt>
      <trkpt lat="44.12301" lon="5.82452">
        <ele>1402</ele>
        <time>2019-08-09T09:30:20Z</time>
      </trkpt>
      <trkpt lat="44.12302" lon="5.82464">
        <ele>1401</ele>
        <time>2019-08-09T09:30:21Z</time>
      </trkpt>
      <trkpt lat="44.123" lon="5.82476">
        <ele>1400</ele>
        <time>2019-08-09T09:30:22Z</time>
      </trkpt>
      <trkpt lat="44.12298" lon="5.82488">
        <ele>1399</ele>
        <time>2019-08-09T09:30:23Z</time>
      </trkpt>
      <trkpt lat="44.12295" lon="5.825">
        <ele>1398</ele>
        <time>2019-08-09T09:30:24Z</time>
      </trkpt>
      <trkpt lat="44.12291" lon="5.82511">
        <ele>1398</ele>
        <time>2019-08-09T09:30:25Z</time>
      </trkpt>
      <trkpt lat="44.12286" lon="5.82522">
        <ele>1398</ele>
        <time>2019-08-09T09:30:26Z</time>
      </trkpt>
      <trkpt lat="44.12281" lon="5.82532">
        <ele>1397</ele>
        <time>2019-08-09T09:30:27Z</time>
      </trkpt>
      <trkpt lat="44.12275" lon="5.8254">
        <ele>1397</ele>
        <time>2019-08-09T09:30:28Z</time>
      </trkpt>
      <trkpt lat="44.1227" lon="5.82549">
        <ele>1396</ele>
        <time>2019-08-09T09:30:29Z</time>
      </trkpt>
      <trkpt lat="44.12264" lon="5.82556">
        <ele>1395</ele>
        <time>2019-08-09T09:30:30Z</time>
      </trkpt>
      <trkpt lat="44.12258" lon="5.82565">
        <ele>1394</ele>
        <time>2019-08-09T09:30:31Z</time>
      </trkpt>
      <trkpt lat="44.12253" lon="5.82573">
        <ele>1393</ele>
        <time>2019-08-09T09:30:32Z</time>
      </trkpt>
      <trkpt lat="44.12248" lon="5.82581">
        <ele>1393</ele>
        <time>2019-08-09T09:30:33Z</time>
      </trkpt>
      <trkpt lat="44.12246" lon="5.82591">
        <ele>1393</ele>
        <time>2019-08-09T09:30:34Z</time>
      </trkpt>
      <trkpt lat="44.12244" lon="5.82603">
        <ele>1393</ele>
        <time>2019-08-09T09:30:35Z</time>
      </trkpt>
      <trkpt lat="44.12242" lon="5.82615">
        <ele>1392</ele>
        <time>2019-08-09T09:30:36Z</time>
      </trkpt>
      <trkpt lat="44.12239" lon="5.82627">
        <ele>1391</ele>
        <time>2019-08-09T09:30:37Z</time>
      </trkpt>
      <trkpt lat="44.12236" lon="5.82639">
        <ele>1390</ele>
        <time>2019-08-09T09:30:38Z</time>
      </trkpt>
      <trkpt lat="44.12233" lon="5.8265">
        <ele>1389</ele>
        <time>2019-08-09T09:30:39Z</time>
      </trkpt>
      <trkpt lat="44.1223" lon="5.82661">
        <ele>1388</ele>
        <time>2019-08-09T09:30:40Z</time>
      </trkpt>
      <trkpt lat="44.12226" lon="5.82672">
        <ele>1387</ele>
        <time>2019-08-09T09:30:41Z</time>
      </trkpt>
      <trkpt lat="44.12222" lon="5.82682">
        <ele>1386</ele>
        <time>2019-08-09T09:30:42Z</time>
      </trkpt>
      <trkpt lat="44.12217" lon="5.8269">
        <ele>1385</ele>
        <time>2019-08-09T09:30:43Z</time>
      </trkpt>
      <trkpt lat="44.12212" lon="5.827">
        <ele>1384</ele>
        <time>2019-08-09T09:30:44Z</time>
      </trkpt>
      <trkpt lat="44.12207" lon="5.82709">
        <ele>1383</ele>
        <time>2019-08-09T09:30:45Z</time>
      </trkpt>
      <trkpt lat="44.12202" lon="5.82718">
        <ele>1382</ele>
        <time>2019-08-09T09:30:46Z</time>
      </trkpt>
      <trkpt lat="44.12196" lon="5.82729">
        <ele>1381</ele>
        <time>2019-08-09T09:30:47Z</time>
      </trkpt>
      <trkpt lat="44.12191" lon="5.82741">
        <ele>1380</ele>
        <time>2019-08-09T09:30:48Z</time>
      </trkpt>
      <trkpt lat="44.12185" lon="5.82753">
        <ele>1379</ele>
        <time>2019-08-09T09:30:49Z</time>
      </trkpt>
      <trkpt lat="44.12181" lon="5.82765">
        <ele>1378</ele>
        <time>2019-08-09T09:30:50Z</time>
      </trkpt>
      <trkpt lat="44.12177" lon="5.82776">
        <ele>1377</ele>
        <time>2019-08-09T09:30:51Z</time>
      </trkpt>
      <trkpt lat="44.12173" lon="5.82787">
        <ele>1376</ele>
        <time>2019-08-09T09:30:52Z</time>
      </trkpt>
      <trkpt lat="44.12169" lon="5.82797">
        <ele>1375</ele>
        <time>2019-08-09T09:30:53Z</time>
      </trkpt>
      <trkpt lat="44.12164" lon="5.82807">
        <ele>1374</ele>
        <time>2019-08-09T09:30:54Z</time>
      </trkpt>
      <trkpt lat="44.12159" lon="5.82818">
        <ele>1373</ele>
        <time>2019-08-09T09:30:55Z</time>
      </trkpt>
      <trkpt lat="44.12155" lon="5.82828">
        <ele>1372</ele>
        <time>2019-08-09T09:30:56Z</time>
      </trkpt>
      <trkpt lat="44.1215" lon="5.82838">
        <ele>1371</ele>
        <time>2019-08-09T09:30:57Z</time>
      </trkpt>
      <trkpt lat="44.12146" lon="5.8285">
        <ele>1370</ele>
        <time>2019-08-09T09:30:58Z</time>
      </trkpt>
      <trkpt lat="44.12142" lon="5.8286">
        <ele>1369</ele>
        <time>2019-08-09T09:30:59Z</time>
      </trkpt>
      <trkpt lat="44.12138" lon="5.8287">
        <ele>1368</ele>
        <time>2019-08-09T09:31:00Z</time>
      </trkpt>
      <trkpt lat="44.12133" lon="5.82881">
        <ele>1367</ele>
        <time>2019-08-09T09:31:01Z</time>
      </trkpt>
      <trkpt lat="44.12128" lon="5.82891">
        <ele>1366</ele>
        <time>2019-08-09T09:31:02Z</time>
      </trkpt>
      <trkpt lat="44.12123" lon="5.82901">
        <ele>1365</ele>
        <time>2019-08-09T09:31:03Z</time>
      </trkpt>
      <trkpt lat="44.12118" lon="5.82909">
        <ele>1364</ele>
        <time>2019-08-09T09:31:04Z</time>
      </trkpt>
      <trkpt lat="44.12112" lon="5.82917">
        <ele>1364</ele>
        <time>2019-08-09T09:31:05Z</time>
      </trkpt>
      <trkpt lat="44.12105" lon="5.82925">
        <ele>1363</ele>
        <time>2019-08-09T09:31:06Z</time>
      </trkpt>
      <trkpt lat="44.12097" lon="5.82931">
        <ele>1362</ele>
        <time>2019-08-09T09:31:07Z</time>
      </trkpt>
      <trkpt lat="44.1209" lon="5.82936">
        <ele>1362</ele>
        <time>2019-08-09T09:31:08Z</time>
      </trkpt>
      <trkpt lat="44.12082" lon="5.82942">
        <ele>1361</ele>
        <time>2019-08-09T09:31:09Z</time>
      </trkpt>
      <trkpt lat="44.12075" lon="5.82947">
        <ele>1361</ele>
        <time>2019-08-09T09:31:10Z</time>
      </trkpt>
      <trkpt lat="44.12069" lon="5.82953">
        <ele>1360</ele>
        <time>2019-08-09T09:31:11Z</time>
      </trkpt>
      <trkpt lat="44.12062" lon="5.8296">
        <ele>1359</ele>
        <time>2019-08-09T09:31:12Z</time>
      </trkpt>
      <trkpt lat="44.12057" lon="5.82968">
        <ele>1359</ele>
        <time>2019-08-09T09:31:13Z</time>
      </trkpt>
      <trkpt lat="44.12053" lon="5.82978">
        <ele>1358</ele>
        <time>2019-08-09T09:31:14Z</time>
      </trkpt>
      <trkpt lat="44.12048" lon="5.82989">
        <ele>1358</ele>
        <time>2019-08-09T09:31:15Z</time>
      </trkpt>
      <trkpt lat="44.12044" lon="5.83">
        <ele>1358</ele>
        <time>2019-08-09T09:31:16Z</time>
      </trkpt>
      <trkpt lat="44.12039" lon="5.8301">
        <ele>1358</ele>
        <time>2019-08-09T09:31:17Z</time>
      </trkpt>
      <trkpt lat="44.12034" lon="5.83021">
        <ele>1358</ele>
        <time>2019-08-09T09:31:18Z</time>
      </trkpt>
      <trkpt lat="44.1203" lon="5.83032">
        <ele>1358</ele>
        <time>2019-08-09T09:31:19Z</time>
      </trkpt>
      <trkpt lat="44.12026" lon="5.83043">
        <ele>1358</ele>
        <time>2019-08-09T09:31:20Z</time>
      </trkpt>
      <trkpt lat="44.12022" lon="5.83053">
        <ele>1358</ele>
        <time>2019-08-09T09:31:21Z</time>
      </trkpt>
      <trkpt lat="44.12018" lon="5.83064">
        <ele>1358</ele>
        <time>2019-08-09T09:31:22Z</time>
      </trkpt>
      <trkpt lat="44.12015" lon="5.83074">
        <ele>1357</ele>
        <time>2019-08-09T09:31:23Z</time>
      </trkpt>
      <trkpt lat="44.12011" lon="5.83084">
        <ele>1357</ele>
        <time>2019-08-09T09:31:24Z</time>
      </trkpt>
      <trkpt lat="44.12008" lon="5.83094">
        <ele>1356</ele>
        <time>2019-08-09T09:31:25Z</time>
      </trkpt>
      <trkpt lat="44.12004" lon="5.83104">
        <ele>1355</ele>
        <time>2019-08-09T09:31:26Z</time>
      </trkpt>
      <trkpt lat="44.12001" lon="5.83114">
        <ele>1354</ele>
        <time>2019-08-09T09:31:27Z</time>
      </trkpt>
      <trkpt lat="44.11997" lon="5.83123">
        <ele>1353</ele>
        <time>2019-08-09T09:31:28Z</time>
      </trkpt>
      <trkpt lat="44.11994" lon="5.83133">
        <ele>1352</ele>
        <time>2019-08-09T09:31:29Z</time>
      </trkpt>
      <trkpt lat="44.1199" lon="5.83141">
        <ele>1351</ele>
        <time>2019-08-09T09:31:30Z</time>
      </trkpt>
      <trkpt lat="44.11987" lon="5.83149">
        <ele>1351</ele>
        <time>2019-08-09T09:31:31Z</time>
      </trkpt>
      <trkpt lat="44.11983" lon="5.83156">
        <ele>1351</ele>
        <time>2019-08-09T09:31:32Z</time>
      </trkpt>
      <trkpt lat="44.11981" lon="5.83163">
        <ele>1350</ele>
        <time>2019-08-09T09:31:33Z</time>
      </trkpt>
      <trkpt lat="44.1198" lon="5.83169">
        <ele>1349</ele>
        <time>2019-08-09T09:31:34Z</time>
      </trkpt>
      <trkpt lat="44.11981" lon="5.83175">
        <ele>1349</ele>
        <time>2019-08-09T09:31:35Z</time>
      </trkpt>
      <trkpt lat="44.11984" lon="5.83178">
        <ele>1348</ele>
        <time>2019-08-09T09:31:36Z</time>
      </trkpt>
      <trkpt lat="44.11988" lon="5.83177">
        <ele>1347</ele>
        <time>2019-08-09T09:31:37Z</time>
      </trkpt>
      <trkpt lat="44.11991" lon="5.83173">
        <ele>1346</ele>
        <time>2019-08-09T09:31:38Z</time>
      </trkpt>
      <trkpt lat="44.11994" lon="5.83165">
        <ele>1345</ele>
        <time>2019-08-09T09:31:39Z</time>
      </trkpt>
      <trkpt lat="44.11998" lon="5.83157">
        <ele>1344</ele>
        <time>2019-08-09T09:31:40Z</time>
      </trkpt>
      <trkpt lat="44.12003" lon="5.83149">
        <ele>1343</ele>
        <time>2019-08-09T09:31:41Z</time>
      </trkpt>
      <trkpt lat="44.12007" lon="5.83141">
        <ele>1342</ele>
        <time>2019-08-09T09:31:42Z</time>
      </trkpt>
      <trkpt lat="44.12011" lon="5.83134">
        <ele>1341</ele>
        <time>2019-08-09T09:31:43Z</time>
      </trkpt>
      <trkpt lat="44.12014" lon="5.83127">
        <ele>1340</ele>
        <time>2019-08-09T09:31:44Z</time>
      </trkpt>
      <trkpt lat="44.12019" lon="5.8312">
        <ele>1339</ele>
        <time>2019-08-09T09:31:45Z</time>
      </trkpt>
      <trkpt lat="44.12023" lon="5.83112">
        <ele>1338</ele>
        <time>2019-08-09T09:31:46Z</time>
      </trkpt>
      <trkpt lat="44.12028" lon="5.83103">
        <ele>1336</ele>
        <time>2019-08-09T09:31:47Z</time>
      </trkpt>
      <trkpt lat="44.12033" lon="5.83095">
        <ele>1334</ele>
        <time>2019-08-09T09:31:48Z</time>
      </trkpt>
      <trkpt lat="44.12039" lon="5.83086">
        <ele>1333</ele>
        <time>2019-08-09T09:31:49Z</time>
      </trkpt>
      <trkpt lat="44.12044" lon="5.83078">
        <ele>1332</ele>
        <time>2019-08-09T09:31:50Z</time>
      </trkpt>
      <trkpt lat="44.1205" lon="5.8307">
        <ele>1331</ele>
        <time>2019-08-09T09:31:51Z</time>
      </trkpt>
      <trkpt lat="44.12055" lon="5.8306">
        <ele>1330</ele>
        <time>2019-08-09T09:31:52Z</time>
      </trkpt>
      <trkpt lat="44.12061" lon="5.83052">
        <ele>1329</ele>
        <time>2019-08-09T09:31:53Z</time>
      </trkpt>
      <trkpt lat="44.12066" lon="5.83042">
        <ele>1327</ele>
        <time>2019-08-09T09:31:54Z</time>
      </trkpt>
      <trkpt lat="44.12071" lon="5.83034">
        <ele>1325</ele>
        <time>2019-08-09T09:31:55Z</time>
      </trkpt>
      <trkpt lat="44.12076" lon="5.83025">
        <ele>1324</ele>
        <time>2019-08-09T09:31:56Z</time>
      </trkpt>
      <trkpt lat="44.12082" lon="5.83017">
        <ele>1322</ele>
        <time>2019-08-09T09:31:57Z</time>
      </trkpt>
      <trkpt lat="44.12089" lon="5.83009">
        <ele>1321</ele>
        <time>2019-08-09T09:31:58Z</time>
      </trkpt>
      <trkpt lat="44.12096" lon="5.83003">
        <ele>1320</ele>
        <time>2019-08-09T09:31:59Z</time>
      </trkpt>
      <trkpt lat="44.12104" lon="5.82998">
        <ele>1319</ele>
        <time>2019-08-09T09:32:00Z</time>
      </trkpt>
      <trkpt lat="44.12111" lon="5.82994">
        <ele>1318</ele>
        <time>2019-08-09T09:32:01Z</time>
      </trkpt>
      <trkpt lat="44.12119" lon="5.82992">
        <ele>1317</ele>
        <time>2019-08-09T09:32:02Z</time>
      </trkpt>
      <trkpt lat="44.12127" lon="5.82989">
        <ele>1316</ele>
        <time>2019-08-09T09:32:03Z</time>
      </trkpt>
      <trkpt lat="44.12134" lon="5.82986">
        <ele>1315</ele>
        <time>2019-08-09T09:32:04Z</time>
      </trkpt>
      <trkpt lat="44.12142" lon="5.82984">
        <ele>1314</ele>
        <time>2019-08-09T09:32:05Z</time>
      </trkpt>
      <trkpt lat="44.12149" lon="5.82982">
        <ele>1313</ele>
        <time>2019-08-09T09:32:06Z</time>
      </trkpt>
      <trkpt lat="44.12157" lon="5.82978">
        <ele>1313</ele>
        <time>2019-08-09T09:32:07Z</time>
      </trkpt>
      <trkpt lat="44.12164" lon="5.82974">
        <ele>1312</ele>
        <time>2019-08-09T09:32:08Z</time>
      </trkpt>
      <trkpt lat="44.12172" lon="5.82968">
        <ele>1311</ele>
        <time>2019-08-09T09:32:09Z</time>
      </trkpt>
      <trkpt lat="44.1218" lon="5.82961">
        <ele>1310</ele>
        <time>2019-08-09T09:32:10Z</time>
      </trkpt>
      <trkpt lat="44.12186" lon="5.82953">
        <ele>1310</ele>
        <time>2019-08-09T09:32:11Z</time>
      </trkpt>
      <trkpt lat="44.12193" lon="5.82944">
        <ele>1310</ele>
        <time>2019-08-09T09:32:12Z</time>
      </trkpt>
      <trkpt lat="44.12199" lon="5.82934">
        <ele>1310</ele>
        <time>2019-08-09T09:32:13Z</time>
      </trkpt>
      <trkpt lat="44.12205" lon="5.82925">
        <ele>1310</ele>
        <time>2019-08-09T09:32:14Z</time>
      </trkpt>
      <trkpt lat="44.12211" lon="5.82915">
        <ele>1310</ele>
        <time>2019-08-09T09:32:15Z</time>
      </trkpt>
      <trkpt lat="44.12218" lon="5.82905">
        <ele>1310</ele>
        <time>2019-08-09T09:32:16Z</time>
      </trkpt>
      <trkpt lat="44.12223" lon="5.82894">
        <ele>1310</ele>
        <time>2019-08-09T09:32:17Z</time>
      </trkpt>
      <trkpt lat="44.12229" lon="5.82883">
        <ele>1310</ele>
        <time>2019-08-09T09:32:18Z</time>
      </trkpt>
      <trkpt lat="44.12234" lon="5.82872">
        <ele>1309</ele>
        <time>2019-08-09T09:32:19Z</time>
      </trkpt>
      <trkpt lat="44.1224" lon="5.82863">
        <ele>1308</ele>
        <time>2019-08-09T09:32:20Z</time>
      </trkpt>
      <trkpt lat="44.12246" lon="5.82855">
        <ele>1307</ele>
        <time>2019-08-09T09:32:21Z</time>
      </trkpt>
      <trkpt lat="44.12252" lon="5.82845">
        <ele>1306</ele>
        <time>2019-08-09T09:32:22Z</time>
      </trkpt>
      <trkpt lat="44.12258" lon="5.82836">
        <ele>1305</ele>
        <time>2019-08-09T09:32:23Z</time>
      </trkpt>
      <trkpt lat="44.12264" lon="5.82827">
        <ele>1304</ele>
        <time>2019-08-09T09:32:24Z</time>
      </trkpt>
      <trkpt lat="44.1227" lon="5.82819">
        <ele>1303</ele>
        <time>2019-08-09T09:32:25Z</time>
      </trkpt>
      <trkpt lat="44.12277" lon="5.82811">
        <ele>1302</ele>
        <time>2019-08-09T09:32:26Z</time>
      </trkpt>
      <trkpt lat="44.12284" lon="5.82805">
        <ele>1301</ele>
        <time>2019-08-09T09:32:27Z</time>
      </trkpt>
      <trkpt lat="44.12293" lon="5.82799">
        <ele>1300</ele>
        <time>2019-08-09T09:32:28Z</time>
      </trkpt>
      <trkpt lat="44.12302" lon="5.82794">
        <ele>1299</ele>
        <time>2019-08-09T09:32:29Z</time>
      </trkpt>
      <trkpt lat="44.1231" lon="5.82788">
        <ele>1298</ele>
        <time>2019-08-09T09:32:30Z</time>
      </trkpt>
      <trkpt lat="44.12318" lon="5.82783">
        <ele>1298</ele>
        <time>2019-08-09T09:32:31Z</time>
      </trkpt>
      <trkpt lat="44.12325" lon="5.82776">
        <ele>1298</ele>
        <time>2019-08-09T09:32:32Z</time>
      </trkpt>
      <trkpt lat="44.12331" lon="5.82768">
        <ele>1298</ele>
        <time>2019-08-09T09:32:33Z</time>
      </trkpt>
      <trkpt lat="44.12337" lon="5.8276">
        <ele>1297</ele>
        <time>2019-08-09T09:32:34Z</time>
      </trkpt>
      <trkpt lat="44.12343" lon="5.82751">
        <ele>1297</ele>
        <time>2019-08-09T09:32:35Z</time>
      </trkpt>
      <trkpt lat="44.12348" lon="5.82743">
        <ele>1297</ele>
        <time>2019-08-09T09:32:36Z</time>
      </trkpt>
      <trkpt lat="44.12353" lon="5.82733">
        <ele>1297</ele>
        <time>2019-08-09T09:32:37Z</time>
      </trkpt>
      <trkpt lat="44.12357" lon="5.82723">
        <ele>1297</ele>
        <time>2019-08-09T09:32:38Z</time>
      </trkpt>
      <trkpt lat="44.12361" lon="5.82713">
        <ele>1297</ele>
        <time>2019-08-09T09:32:39Z</time>
      </trkpt>
      <trkpt lat="44.12364" lon="5.82704">
        <ele>1297</ele>
        <time>2019-08-09T09:32:40Z</time>
      </trkpt>
      <trkpt lat="44.12367" lon="5.82695">
        <ele>1297</ele>
        <time>2019-08-09T09:32:41Z</time>
      </trkpt>
      <trkpt lat="44.1237" lon="5.82685">
        <ele>1297</ele>
        <time>2019-08-09T09:32:42Z</time>
      </trkpt>
      <trkpt lat="44.12373" lon="5.82676">
        <ele>1297</ele>
        <time>2019-08-09T09:32:43Z</time>
      </trkpt>
      <trkpt lat="44.12376" lon="5.82668">
        <ele>1297</ele>
        <time>2019-08-09T09:32:44Z</time>
      </trkpt>
      <trkpt lat="44.1238" lon="5.82662">
        <ele>1297</ele>
        <time>2019-08-09T09:32:45Z</time>
      </trkpt>
      <trkpt lat="44.12385" lon="5.82656">
        <ele>1296</ele>
        <time>2019-08-09T09:32:46Z</time>
      </trkpt>
      <trkpt lat="44.12391" lon="5.82651">
        <ele>1295</ele>
        <time>2019-08-09T09:32:47Z</time>
      </trkpt>
      <trkpt lat="44.12397" lon="5.82644">
        <ele>1294</ele>
        <time>2019-08-09T09:32:48Z</time>
      </trkpt>
      <trkpt lat="44.12403" lon="5.82637">
        <ele>1293</ele>
        <time>2019-08-09T09:32:49Z</time>
      </trkpt>
      <trkpt lat="44.12409" lon="5.82629">
        <ele>1292</ele>
        <time>2019-08-09T09:32:50Z</time>
      </trkpt>
      <trkpt lat="44.12415" lon="5.82621">
        <ele>1291</ele>
        <time>2019-08-09T09:32:51Z</time>
      </trkpt>
      <trkpt lat="44.12421" lon="5.82613">
        <ele>1290</ele>
        <time>2019-08-09T09:32:52Z</time>
      </trkpt>
      <trkpt lat="44.12426" lon="5.82605">
        <ele>1289</ele>
        <time>2019-08-09T09:32:53Z</time>
      </trkpt>
      <trkpt lat="44.1243" lon="5.82598">
        <ele>1288</ele>
        <time>2019-08-09T09:32:54Z</time>
      </trkpt>
      <trkpt lat="44.12435" lon="5.8259">
        <ele>1287</ele>
        <time>2019-08-09T09:32:55Z</time>
      </trkpt>
      <trkpt lat="44.12439" lon="5.82583">
        <ele>1286</ele>
        <time>2019-08-09T09:32:56Z</time>
      </trkpt>
      <trkpt lat="44.12444" lon="5.82575">
        <ele>1285</ele>
        <time>2019-08-09T09:32:57Z</time>
      </trkpt>
      <trkpt lat="44.12447" lon="5.82568">
        <ele>1284</ele>
        <time>2019-08-09T09:32:58Z</time>
      </trkpt>
      <trkpt lat="44.12452" lon="5.82559">
        <ele>1283</ele>
        <time>2019-08-09T09:32:59Z</time>
      </trkpt>
      <trkpt lat="44.12455" lon="5.82549">
        <ele>1282</ele>
        <time>2019-08-09T09:33:00Z</time>
      </trkpt>
      <trkpt lat="44.12458" lon="5.82539">
        <ele>1281</ele>
        <time>2019-08-09T09:33:01Z</time>
      </trkpt>
      <trkpt lat="44.12463" lon="5.82527">
        <ele>1280</ele>
        <time>2019-08-09T09:33:02Z</time>
      </trkpt>
      <trkpt lat="44.12468" lon="5.82516">
        <ele>1279</ele>
        <time>2019-08-09T09:33:03Z</time>
      </trkpt>
      <trkpt lat="44.1247" lon="5.82506">
        <ele>1278</ele>
        <time>2019-08-09T09:33:04Z</time>
      </trkpt>
      <trkpt lat="44.1247" lon="5.82496">
        <ele>1278</ele>
        <time>2019-08-09T09:33:05Z</time>
      </trkpt>
      <trkpt lat="44.12469" lon="5.82484">
        <ele>1278</ele>
        <time>2019-08-09T09:33:06Z</time>
      </trkpt>
      <trkpt lat="44.1247" lon="5.82476">
        <ele>1278</ele>
        <time>2019-08-09T09:33:07Z</time>
      </trkpt>
      <trkpt lat="44.12467" lon="5.82465">
        <ele>1278</ele>
        <time>2019-08-09T09:33:08Z</time>
      </trkpt>
      <trkpt lat="44.12466" lon="5.82455">
        <ele>1278</ele>
        <time>2019-08-09T09:33:09Z</time>
      </trkpt>
      <trkpt lat="44.12467" lon="5.82445">
        <ele>1278</ele>
        <time>2019-08-09T09:33:10Z</time>
      </trkpt>
      <trkpt lat="44.12468" lon="5.82436">
        <ele>1278</ele>
        <time>2019-08-09T09:33:11Z</time>
      </trkpt>
      <trkpt lat="44.12471" lon="5.82429">
        <ele>1278</ele>
        <time>2019-08-09T09:33:12Z</time>
      </trkpt>
      <trkpt lat="44.12475" lon="5.82422">
        <ele>1278</ele>
        <time>2019-08-09T09:33:13Z</time>
      </trkpt>
      <trkpt lat="44.12478" lon="5.82415">
        <ele>1278</ele>
        <time>2019-08-09T09:33:14Z</time>
      </trkpt>
      <trkpt lat="44.12481" lon="5.82406">
        <ele>1279</ele>
        <time>2019-08-09T09:33:15Z</time>
      </trkpt>
      <trkpt lat="44.12486" lon="5.82394">
        <ele>1280</ele>
        <time>2019-08-09T09:33:16Z</time>
      </trkpt>
      <trkpt lat="44.12492" lon="5.82384">
        <ele>1281</ele>
        <time>2019-08-09T09:33:17Z</time>
      </trkpt>
      <trkpt lat="44.12498" lon="5.82373">
        <ele>1281</ele>
        <time>2019-08-09T09:33:18Z</time>
      </trkpt>
      <trkpt lat="44.12504" lon="5.82365">
        <ele>1281</ele>
        <time>2019-08-09T09:33:19Z</time>
      </trkpt>
      <trkpt lat="44.12509" lon="5.82358">
        <ele>1281</ele>
        <time>2019-08-09T09:33:20Z</time>
      </trkpt>
      <trkpt lat="44.12516" lon="5.82348">
        <ele>1281</ele>
        <time>2019-08-09T09:33:21Z</time>
      </trkpt>
      <trkpt lat="44.12523" lon="5.8234">
        <ele>1281</ele>
        <time>2019-08-09T09:33:22Z</time>
      </trkpt>
      <trkpt lat="44.12531" lon="5.82334">
        <ele>1281</ele>
        <time>2019-08-09T09:33:23Z</time>
      </trkpt>
      <trkpt lat="44.12539" lon="5.82329">
        <ele>1280</ele>
        <time>2019-08-09T09:33:24Z</time>
      </trkpt>
      <trkpt lat="44.12546" lon="5.82324">
        <ele>1279</ele>
        <time>2019-08-09T09:33:25Z</time>
      </trkpt>
      <trkpt lat="44.12553" lon="5.82318">
        <ele>1278</ele>
        <time>2019-08-09T09:33:26Z</time>
      </trkpt>
      <trkpt lat="44.1256" lon="5.82311">
        <ele>1277</ele>
        <time>2019-08-09T09:33:27Z</time>
      </trkpt>
      <trkpt lat="44.12567" lon="5.82305">
        <ele>1276</ele>
        <time>2019-08-09T09:33:28Z</time>
      </trkpt>
      <trkpt lat="44.12574" lon="5.82298">
        <ele>1275</ele>
        <time>2019-08-09T09:33:29Z</time>
      </trkpt>
      <trkpt lat="44.12581" lon="5.82291">
        <ele>1274</ele>
        <time>2019-08-09T09:33:30Z</time>
      </trkpt>
      <trkpt lat="44.12587" lon="5.82284">
        <ele>1272</ele>
        <time>2019-08-09T09:33:31Z</time>
      </trkpt>
      <trkpt lat="44.12595" lon="5.82277">
        <ele>1271</ele>
        <time>2019-08-09T09:33:32Z</time>
      </trkpt>
      <trkpt lat="44.12603" lon="5.82272">
        <ele>1269</ele>
        <time>2019-08-09T09:33:33Z</time>
      </trkpt>
      <trkpt lat="44.12609" lon="5.82266">
        <ele>1268</ele>
        <time>2019-08-09T09:33:34Z</time>
      </trkpt>
      <trkpt lat="44.12614" lon="5.82258">
        <ele>1266</ele>
        <time>2019-08-09T09:33:35Z</time>
      </trkpt>
      <trkpt lat="44.1262" lon="5.8225">
        <ele>1265</ele>
        <time>2019-08-09T09:33:36Z</time>
      </trkpt>
      <trkpt lat="44.12627" lon="5.82243">
        <ele>1263</ele>
        <time>2019-08-09T09:33:37Z</time>
      </trkpt>
      <trkpt lat="44.12633" lon="5.82234">
        <ele>1261</ele>
        <time>2019-08-09T09:33:38Z</time>
      </trkpt>
      <trkpt lat="44.1264" lon="5.82227">
        <ele>1259</ele>
        <time>2019-08-09T09:33:39Z</time>
      </trkpt>
      <trkpt lat="44.12645" lon="5.82219">
        <ele>1258</ele>
        <time>2019-08-09T09:33:40Z</time>
      </trkpt>
      <trkpt lat="44.12651" lon="5.82212">
        <ele>1256</ele>
        <time>2019-08-09T09:33:41Z</time>
      </trkpt>
      <trkpt lat="44.12657" lon="5.82204">
        <ele>1255</ele>
        <time>2019-08-09T09:33:42Z</time>
      </trkpt>
      <trkpt lat="44.12661" lon="5.82195">
        <ele>1254</ele>
        <time>2019-08-09T09:33:43Z</time>
      </trkpt>
      <trkpt lat="44.12664" lon="5.82185">
        <ele>1253</ele>
        <time>2019-08-09T09:33:44Z</time>
      </trkpt>
      <trkpt lat="44.12666" lon="5.82173">
        <ele>1252</ele>
        <time>2019-08-09T09:33:45Z</time>
      </trkpt>
      <trkpt lat="44.12668" lon="5.82162">
        <ele>1252</ele>
        <time>2019-08-09T09:33:46Z</time>
      </trkpt>
      <trkpt lat="44.12672" lon="5.82152">
        <ele>1252</ele>
        <time>2019-08-09T09:33:47Z</time>
      </trkpt>
      <trkpt lat="44.12675" lon="5.82143">
        <ele>1252</ele>
        <time>2019-08-09T09:33:48Z</time>
      </trkpt>
      <trkpt lat="44.12681" lon="5.82135">
        <ele>1252</ele>
        <time>2019-08-09T09:33:49Z</time>
      </trkpt>
      <trkpt lat="44.12689" lon="5.82128">
        <ele>1252</ele>
        <time>2019-08-09T09:33:50Z</time>
      </trkpt>
      <trkpt lat="44.12698" lon="5.82128">
        <ele>1252</ele>
        <time>2019-08-09T09:33:51Z</time>
      </trkpt>
      <trkpt lat="44.12706" lon="5.8213">
        <ele>1252</ele>
        <time>2019-08-09T09:33:52Z</time>
      </trkpt>
      <trkpt lat="44.12713" lon="5.82131">
        <ele>1252</ele>
        <time>2019-08-09T09:33:53Z</time>
      </trkpt>
      <trkpt lat="44.1272" lon="5.82132">
        <ele>1252</ele>
        <time>2019-08-09T09:33:54Z</time>
      </trkpt>
      <trkpt lat="44.12728" lon="5.82133">
        <ele>1252</ele>
        <time>2019-08-09T09:33:55Z</time>
      </trkpt>
      <trkpt lat="44.12736" lon="5.82133">
        <ele>1252</ele>
        <time>2019-08-09T09:33:56Z</time>
      </trkpt>
      <trkpt lat="44.12743" lon="5.82132">
        <ele>1252</ele>
        <time>2019-08-09T09:33:57Z</time>
      </trkpt>
      <trkpt lat="44.1275" lon="5.82129">
        <ele>1252</ele>
        <time>2019-08-09T09:33:58Z</time>
      </trkpt>
      <trkpt lat="44.12756" lon="5.82125">
        <ele>1252</ele>
        <time>2019-08-09T09:33:59Z</time>
      </trkpt>
      <trkpt lat="44.12762" lon="5.8212">
        <ele>1252</ele>
        <time>2019-08-09T09:34:00Z</time>
      </trkpt>
      <trkpt lat="44.12767" lon="5.82113">
        <ele>1252</ele>
        <time>2019-08-09T09:34:01Z</time>
      </trkpt>
      <trkpt lat="44.12772" lon="5.82104">
        <ele>1252</ele>
        <time>2019-08-09T09:34:02Z</time>
      </trkpt>
      <trkpt lat="44.12777" lon="5.82095">
        <ele>1252</ele>
        <time>2019-08-09T09:34:03Z</time>
      </trkpt>
      <trkpt lat="44.12781" lon="5.82084">
        <ele>1252</ele>
        <time>2019-08-09T09:34:04Z</time>
      </trkpt>
      <trkpt lat="44.12785" lon="5.82073">
        <ele>1252</ele>
        <time>2019-08-09T09:34:05Z</time>
      </trkpt>
      <trkpt lat="44.12788" lon="5.82062">
        <ele>1252</ele>
        <time>2019-08-09T09:34:06Z</time>
      </trkpt>
      <trkpt lat="44.12792" lon="5.82051">
        <ele>1252</ele>
        <time>2019-08-09T09:34:07Z</time>
      </trkpt>
      <trkpt lat="44.12795" lon="5.82039">
        <ele>1252</ele>
        <time>2019-08-09T09:34:08Z</time>
      </trkpt>
      <trkpt lat="44.12797" lon="5.82027">
        <ele>1252</ele>
        <time>2019-08-09T09:34:09Z</time>
      </trkpt>
      <trkpt lat="44.12801" lon="5.82016">
        <ele>1252</ele>
        <time>2019-08-09T09:34:10Z</time>
      </trkpt>
      <trkpt lat="44.12805" lon="5.82006">
        <ele>1252</ele>
        <time>2019-08-09T09:34:11Z</time>
      </trkpt>
      <trkpt lat="44.12806" lon="5.81994">
        <ele>1252</ele>
        <time>2019-08-09T09:34:12Z</time>
      </trkpt>
      <trkpt lat="44.12809" lon="5.81984">
        <ele>1252</ele>
        <time>2019-08-09T09:34:13Z</time>
      </trkpt>
      <trkpt lat="44.12812" lon="5.81973">
        <ele>1252</ele>
        <time>2019-08-09T09:34:14Z</time>
      </trkpt>
      <trkpt lat="44.12816" lon="5.81963">
        <ele>1252</ele>
        <time>2019-08-09T09:34:15Z</time>
      </trkpt>
      <trkpt lat="44.12821" lon="5.81954">
        <ele>1252</ele>
        <time>2019-08-09T09:34:16Z</time>
      </trkpt>
      <trkpt lat="44.12826" lon="5.81945">
        <ele>1252</ele>
        <time>2019-08-09T09:34:17Z</time>
      </trkpt>
      <trkpt lat="44.1283" lon="5.81935">
        <ele>1252</ele>
        <time>2019-08-09T09:34:18Z</time>
      </trkpt>
      <trkpt lat="44.12835" lon="5.81926">
        <ele>1252</ele>
        <time>2019-08-09T09:34:19Z</time>
      </trkpt>
      <trkpt lat="44.12839" lon="5.81915">
        <ele>1252</ele>
        <time>2019-08-09T09:34:20Z</time>
      </trkpt>
      <trkpt lat="44.12844" lon="5.81904">
        <ele>1252</ele>
        <time>2019-08-09T09:34:21Z</time>
      </trkpt>
      <trkpt lat="44.12849" lon="5.81894">
        <ele>1252</ele>
        <time>2019-08-09T09:34:22Z</time>
      </trkpt>
      <trkpt lat="44.12855" lon="5.81884">
        <ele>1252</ele>
        <time>2019-08-09T09:34:23Z</time>
      </trkpt>
      <trkpt lat="44.1286" lon="5.81874">
        <ele>1252</ele>
        <time>2019-08-09T09:34:24Z</time>
      </trkpt>
      <trkpt lat="44.12865" lon="5.81864">
        <ele>1252</ele>
        <time>2019-08-09T09:34:25Z</time>
      </trkpt>
      <trkpt lat="44.1287" lon="5.81854">
        <ele>1252</ele>
        <time>2019-08-09T09:34:26Z</time>
      </trkpt>
      <trkpt lat="44.12876" lon="5.81843">
        <ele>1252</ele>
        <time>2019-08-09T09:34:27Z</time>
      </trkpt>
      <trkpt lat="44.12881" lon="5.81834">
        <ele>1252</ele>
        <time>2019-08-09T09:34:28Z</time>
      </trkpt>
      <trkpt lat="44.12888" lon="5.81824">
        <ele>1252</ele>
        <time>2019-08-09T09:34:29Z</time>
      </trkpt>
      <trkpt lat="44.12894" lon="5.81815">
        <ele>1251</ele>
        <time>2019-08-09T09:34:30Z</time>
      </trkpt>
      <trkpt lat="44.129" lon="5.81806">
        <ele>1250</ele>
        <time>2019-08-09T09:34:31Z</time>
      </trkpt>
      <trkpt lat="44.12905" lon="5.81798">
        <ele>1249</ele>
        <time>2019-08-09T09:34:32Z</time>
      </trkpt>
      <trkpt lat="44.1291" lon="5.8179">
        <ele>1248</ele>
        <time>2019-08-09T09:34:33Z</time>
      </trkpt>
      <trkpt lat="44.12914" lon="5.81782">
        <ele>1247</ele>
        <time>2019-08-09T09:34:34Z</time>
      </trkpt>
      <trkpt lat="44.12919" lon="5.81774">
        <ele>1246</ele>
        <time>2019-08-09T09:34:35Z</time>
      </trkpt>
      <trkpt lat="44.12923" lon="5.81765">
        <ele>1245</ele>
        <time>2019-08-09T09:34:36Z</time>
      </trkpt>
      <trkpt lat="44.12928" lon="5.81754">
        <ele>1244</ele>
        <time>2019-08-09T09:34:37Z</time>
      </trkpt>
      <trkpt lat="44.12933" lon="5.81743">
        <ele>1243</ele>
        <time>2019-08-09T09:34:38Z</time>
      </trkpt>
      <trkpt lat="44.12937" lon="5.81735">
        <ele>1242</ele>
        <time>2019-08-09T09:34:39Z</time>
      </trkpt>
      <trkpt lat="44.12939" lon="5.81726">
        <ele>1241</ele>
        <time>2019-08-09T09:34:40Z</time>
      </trkpt>
      <trkpt lat="44.12942" lon="5.81716">
        <ele>1240</ele>
        <time>2019-08-09T09:34:41Z</time>
      </trkpt>
      <trkpt lat="44.12945" lon="5.81706">
        <ele>1239</ele>
        <time>2019-08-09T09:34:42Z</time>
      </trkpt>
      <trkpt lat="44.12947" lon="5.81694">
        <ele>1238</ele>
        <time>2019-08-09T09:34:43Z</time>
      </trkpt>
      <trkpt lat="44.12948" lon="5.8168">
        <ele>1237</ele>
        <time>2019-08-09T09:34:44Z</time>
      </trkpt>
      <trkpt lat="44.12951" lon="5.81668">
        <ele>1236</ele>
        <time>2019-08-09T09:34:45Z</time>
      </trkpt>
      <trkpt lat="44.12953" lon="5.81656">
        <ele>1236</ele>
        <time>2019-08-09T09:34:46Z</time>
      </trkpt>
      <trkpt lat="44.12958" lon="5.81646">
        <ele>1236</ele>
        <time>2019-08-09T09:34:47Z</time>
      </trkpt>
      <trkpt lat="44.12964" lon="5.81637">
        <ele>1236</ele>
        <time>2019-08-09T09:34:48Z</time>
      </trkpt>
      <trkpt lat="44.12968" lon="5.81627">
        <ele>1236</ele>
        <time>2019-08-09T09:34:49Z</time>
      </trkpt>
      <trkpt lat="44.12973" lon="5.81618">
        <ele>1236</ele>
        <time>2019-08-09T09:34:50Z</time>
      </trkpt>
      <trkpt lat="44.12978" lon="5.81609">
        <ele>1236</ele>
        <time>2019-08-09T09:34:51Z</time>
      </trkpt>
      <trkpt lat="44.12983" lon="5.81599">
        <ele>1236</ele>
        <time>2019-08-09T09:34:52Z</time>
      </trkpt>
      <trkpt lat="44.12987" lon="5.8159">
        <ele>1236</ele>
        <time>2019-08-09T09:34:53Z</time>
      </trkpt>
      <trkpt lat="44.12992" lon="5.8158">
        <ele>1236</ele>
        <time>2019-08-09T09:34:54Z</time>
      </trkpt>
      <trkpt lat="44.12996" lon="5.8157">
        <ele>1236</ele>
        <time>2019-08-09T09:34:55Z</time>
      </trkpt>
      <trkpt lat="44.13001" lon="5.8156">
        <ele>1236</ele>
        <time>2019-08-09T09:34:56Z</time>
      </trkpt>
      <trkpt lat="44.13004" lon="5.81547">
        <ele>1236</ele>
        <time>2019-08-09T09:34:57Z</time>
      </trkpt>
      <trkpt lat="44.13007" lon="5.81537">
        <ele>1236</ele>
        <time>2019-08-09T09:34:58Z</time>
      </trkpt>
      <trkpt lat="44.13008" lon="5.81525">
        <ele>1236</ele>
        <time>2019-08-09T09:34:59Z</time>
      </trkpt>
      <trkpt lat="44.1301" lon="5.81512">
        <ele>1236</ele>
        <time>2019-08-09T09:35:00Z</time>
      </trkpt>
      <trkpt lat="44.13012" lon="5.815">
        <ele>1235</ele>
        <time>2019-08-09T09:35:01Z</time>
      </trkpt>
      <trkpt lat="44.13013" lon="5.81486">
        <ele>1234</ele>
        <time>2019-08-09T09:35:02Z</time>
      </trkpt>
      <trkpt lat="44.13015" lon="5.81473">
        <ele>1234</ele>
        <time>2019-08-09T09:35:03Z</time>
      </trkpt>
      <trkpt lat="44.13017" lon="5.81461">
        <ele>1234</ele>
        <time>2019-08-09T09:35:04Z</time>
      </trkpt>
      <trkpt lat="44.13019" lon="5.81448">
        <ele>1234</ele>
        <time>2019-08-09T09:35:05Z</time>
      </trkpt>
      <trkpt lat="44.1302" lon="5.81436">
        <ele>1234</ele>
        <time>2019-08-09T09:35:06Z</time>
      </trkpt>
      <trkpt lat="44.13021" lon="5.81423">
        <ele>1233</ele>
        <time>2019-08-09T09:35:07Z</time>
      </trkpt>
      <trkpt lat="44.13022" lon="5.81411">
        <ele>1233</ele>
        <time>2019-08-09T09:35:08Z</time>
      </trkpt>
      <trkpt lat="44.13023" lon="5.81399">
        <ele>1233</ele>
        <time>2019-08-09T09:35:09Z</time>
      </trkpt>
      <trkpt lat="44.13025" lon="5.81389">
        <ele>1232</ele>
        <time>2019-08-09T09:35:10Z</time>
      </trkpt>
      <trkpt lat="44.13027" lon="5.8138">
        <ele>1232</ele>
        <time>2019-08-09T09:35:11Z</time>
      </trkpt>
      <trkpt lat="44.1303" lon="5.81371">
        <ele>1231</ele>
        <time>2019-08-09T09:35:12Z</time>
      </trkpt>
      <trkpt lat="44.13034" lon="5.81363">
        <ele>1231</ele>
        <time>2019-08-09T09:35:13Z</time>
      </trkpt>
      <trkpt lat="44.1304" lon="5.81358">
        <ele>1230</ele>
        <time>2019-08-09T09:35:14Z</time>
      </trkpt>
      <trkpt lat="44.13046" lon="5.81354">
        <ele>1230</ele>
        <time>2019-08-09T09:35:15Z</time>
      </trkpt>
      <trkpt lat="44.13055" lon="5.81349">
        <ele>1229</ele>
        <time>2019-08-09T09:35:16Z</time>
      </trkpt>
      <trkpt lat="44.13062" lon="5.81344">
        <ele>1228</ele>
        <time>2019-08-09T09:35:17Z</time>
      </trkpt>
      <trkpt lat="44.13069" lon="5.81337">
        <ele>1227</ele>
        <time>2019-08-09T09:35:18Z</time>
      </trkpt>
      <trkpt lat="44.13075" lon="5.8133">
        <ele>1226</ele>
        <time>2019-08-09T09:35:19Z</time>
      </trkpt>
      <trkpt lat="44.13081" lon="5.81322">
        <ele>1225</ele>
        <time>2019-08-09T09:35:20Z</time>
      </trkpt>
      <trkpt lat="44.13087" lon="5.81315">
        <ele>1224</ele>
        <time>2019-08-09T09:35:21Z</time>
      </trkpt>
      <trkpt lat="44.13092" lon="5.81308">
        <ele>1223</ele>
        <time>2019-08-09T09:35:22Z</time>
      </trkpt>
      <trkpt lat="44.13098" lon="5.81298">
        <ele>1223</ele>
        <time>2019-08-09T09:35:23Z</time>
      </trkpt>
      <trkpt lat="44.13102" lon="5.81288">
        <ele>1223</ele>
        <time>2019-08-09T09:35:24Z</time>
      </trkpt>
      <trkpt lat="44.13105" lon="5.81277">
        <ele>1222</ele>
        <time>2019-08-09T09:35:25Z</time>
      </trkpt>
      <trkpt lat="44.13107" lon="5.81266">
        <ele>1222</ele>
        <time>2019-08-09T09:35:26Z</time>
      </trkpt>
      <trkpt lat="44.13108" lon="5.81255">
        <ele>1221</ele>
        <time>2019-08-09T09:35:27Z</time>
      </trkpt>
      <trkpt lat="44.1311" lon="5.81245">
        <ele>1220</ele>
        <time>2019-08-09T09:35:28Z</time>
      </trkpt>
      <trkpt lat="44.13111" lon="5.81238">
        <ele>1219</ele>
        <time>2019-08-09T09:35:29Z</time>
      </trkpt>
      <trkpt lat="44.13113" lon="5.81231">
        <ele>1218</ele>
        <time>2019-08-09T09:35:30Z</time>
      </trkpt>
      <trkpt lat="44.13116" lon="5.81227">
        <ele>1217</ele>
        <time>2019-08-09T09:35:31Z</time>
      </trkpt>
      <trkpt lat="44.1312" lon="5.81224">
        <ele>1216</ele>
        <time>2019-08-09T09:35:32Z</time>
      </trkpt>
      <trkpt lat="44.13124" lon="5.81227">
        <ele>1215</ele>
        <time>2019-08-09T09:35:33Z</time>
      </trkpt>
      <trkpt lat="44.13129" lon="5.81232">
        <ele>1214</ele>
        <time>2019-08-09T09:35:34Z</time>
      </trkpt>
      <trkpt lat="44.13131" lon="5.81239">
        <ele>1213</ele>
        <time>2019-08-09T09:35:35Z</time>
      </trkpt>
      <trkpt lat="44.13131" lon="5.81247">
        <ele>1212</ele>
        <time>2019-08-09T09:35:36Z</time>
      </trkpt>
      <trkpt lat="44.1313" lon="5.81255">
        <ele>1211</ele>
        <time>2019-08-09T09:35:37Z</time>
      </trkpt>
      <trkpt lat="44.13128" lon="5.81265">
        <ele>1210</ele>
        <time>2019-08-09T09:35:38Z</time>
      </trkpt>
      <trkpt lat="44.13126" lon="5.81278">
        <ele>1209</ele>
        <time>2019-08-09T09:35:39Z</time>
      </trkpt>
      <trkpt lat="44.13123" lon="5.8129">
        <ele>1209</ele>
        <time>2019-08-09T09:35:40Z</time>
      </trkpt>
      <trkpt lat="44.1312" lon="5.81303">
        <ele>1209</ele>
        <time>2019-08-09T09:35:41Z</time>
      </trkpt>
      <trkpt lat="44.13115" lon="5.81315">
        <ele>1209</ele>
        <time>2019-08-09T09:35:42Z</time>
      </trkpt>
      <trkpt lat="44.1311" lon="5.81326">
        <ele>1209</ele>
        <time>2019-08-09T09:35:43Z</time>
      </trkpt>
      <trkpt lat="44.13105" lon="5.81337">
        <ele>1208</ele>
        <time>2019-08-09T09:35:44Z</time>
      </trkpt>
      <trkpt lat="44.13099" lon="5.81345">
        <ele>1208</ele>
        <time>2019-08-09T09:35:45Z</time>
      </trkpt>
      <trkpt lat="44.13092" lon="5.81353">
        <ele>1208</ele>
        <time>2019-08-09T09:35:46Z</time>
      </trkpt>
      <trkpt lat="44.13084" lon="5.8136">
        <ele>1207</ele>
        <time>2019-08-09T09:35:47Z</time>
      </trkpt>
      <trkpt lat="44.13079" lon="5.81367">
        <ele>1206</ele>
        <time>2019-08-09T09:35:48Z</time>
      </trkpt>
      <trkpt lat="44.13073" lon="5.81375">
        <ele>1206</ele>
        <time>2019-08-09T09:35:49Z</time>
      </trkpt>
      <trkpt lat="44.13068" lon="5.81382">
        <ele>1206</ele>
        <time>2019-08-09T09:35:50Z</time>
      </trkpt>
      <trkpt lat="44.13062" lon="5.8139">
        <ele>1205</ele>
        <time>2019-08-09T09:35:51Z</time>
      </trkpt>
      <trkpt lat="44.13057" lon="5.814">
        <ele>1205</ele>
        <time>2019-08-09T09:35:52Z</time>
      </trkpt>
      <trkpt lat="44.13052" lon="5.81411">
        <ele>1205</ele>
        <time>2019-08-09T09:35:53Z</time>
      </trkpt>
      <trkpt lat="44.13049" lon="5.81422">
        <ele>1205</ele>
        <time>2019-08-09T09:35:54Z</time>
      </trkpt>
      <trkpt lat="44.13047" lon="5.81433">
        <ele>1205</ele>
        <time>2019-08-09T09:35:55Z</time>
      </trkpt>
      <trkpt lat="44.13049" lon="5.81444">
        <ele>1205</ele>
        <time>2019-08-09T09:35:56Z</time>
      </trkpt>
      <trkpt lat="44.13049" lon="5.81457">
        <ele>1205</ele>
        <time>2019-08-09T09:35:57Z</time>
      </trkpt>
      <trkpt lat="44.1305" lon="5.81469">
        <ele>1205</ele>
        <time>2019-08-09T09:35:58Z</time>
      </trkpt>
      <trkpt lat="44.1305" lon="5.81482">
        <ele>1205</ele>
        <time>2019-08-09T09:35:59Z</time>
      </trkpt>
      <trkpt lat="44.13052" lon="5.81494">
        <ele>1204</ele>
        <time>2019-08-09T09:36:00Z</time>
      </trkpt>
      <trkpt lat="44.13055" lon="5.81505">
        <ele>1204</ele>
        <time>2019-08-09T09:36:01Z</time>
      </trkpt>
      <trkpt lat="44.13058" lon="5.81517">
        <ele>1204</ele>
        <time>2019-08-09T09:36:02Z</time>
      </trkpt>
      <trkpt lat="44.1306" lon="5.81527">
        <ele>1204</ele>
        <time>2019-08-09T09:36:03Z</time>
      </trkpt>
      <trkpt lat="44.13061" lon="5.81538">
        <ele>1204</ele>
        <time>2019-08-09T09:36:04Z</time>
      </trkpt>
      <trkpt lat="44.13061" lon="5.81551">
        <ele>1204</ele>
        <time>2019-08-09T09:36:05Z</time>
      </trkpt>
      <trkpt lat="44.13061" lon="5.81563">
        <ele>1203</ele>
        <time>2019-08-09T09:36:06Z</time>
      </trkpt>
      <trkpt lat="44.1306" lon="5.81575">
        <ele>1203</ele>
        <time>2019-08-09T09:36:07Z</time>
      </trkpt>
      <trkpt lat="44.1306" lon="5.81588">
        <ele>1203</ele>
        <time>2019-08-09T09:36:08Z</time>
      </trkpt>
      <trkpt lat="44.13059" lon="5.81601">
        <ele>1203</ele>
        <time>2019-08-09T09:36:09Z</time>
      </trkpt>
      <trkpt lat="44.13058" lon="5.81614">
        <ele>1203</ele>
        <time>2019-08-09T09:36:10Z</time>
      </trkpt>
      <trkpt lat="44.13057" lon="5.81627">
        <ele>1202</ele>
        <time>2019-08-09T09:36:11Z</time>
      </trkpt>
      <trkpt lat="44.13055" lon="5.8164">
        <ele>1201</ele>
        <time>2019-08-09T09:36:12Z</time>
      </trkpt>
      <trkpt lat="44.13053" lon="5.81653">
        <ele>1200</ele>
        <time>2019-08-09T09:36:13Z</time>
      </trkpt>
      <trkpt lat="44.13051" lon="5.81666">
        <ele>1199</ele>
        <time>2019-08-09T09:36:14Z</time>
      </trkpt>
      <trkpt lat="44.13049" lon="5.81677">
        <ele>1198</ele>
        <time>2019-08-09T09:36:15Z</time>
      </trkpt>
      <trkpt lat="44.13046" lon="5.81689">
        <ele>1198</ele>
        <time>2019-08-09T09:36:16Z</time>
      </trkpt>
      <trkpt lat="44.13044" lon="5.81701">
        <ele>1198</ele>
        <time>2019-08-09T09:36:17Z</time>
      </trkpt>
      <trkpt lat="44.13043" lon="5.81712">
        <ele>1197</ele>
        <time>2019-08-09T09:36:18Z</time>
      </trkpt>
      <trkpt lat="44.13042" lon="5.81724">
        <ele>1197</ele>
        <time>2019-08-09T09:36:19Z</time>
      </trkpt>
      <trkpt lat="44.13042" lon="5.81736">
        <ele>1197</ele>
        <time>2019-08-09T09:36:20Z</time>
      </trkpt>
      <trkpt lat="44.13042" lon="5.81747">
        <ele>1196</ele>
        <time>2019-08-09T09:36:21Z</time>
      </trkpt>
      <trkpt lat="44.13043" lon="5.81759">
        <ele>1196</ele>
        <time>2019-08-09T09:36:22Z</time>
      </trkpt>
      <trkpt lat="44.13045" lon="5.81771">
        <ele>1196</ele>
        <time>2019-08-09T09:36:23Z</time>
      </trkpt>
      <trkpt lat="44.13046" lon="5.81783">
        <ele>1196</ele>
        <time>2019-08-09T09:36:24Z</time>
      </trkpt>
      <trkpt lat="44.13048" lon="5.81796">
        <ele>1196</ele>
        <time>2019-08-09T09:36:25Z</time>
      </trkpt>
      <trkpt lat="44.13049" lon="5.81809">
        <ele>1195</ele>
        <time>2019-08-09T09:36:26Z</time>
      </trkpt>
      <trkpt lat="44.13051" lon="5.81822">
        <ele>1195</ele>
        <time>2019-08-09T09:36:27Z</time>
      </trkpt>
      <trkpt lat="44.13053" lon="5.81834">
        <ele>1194</ele>
        <time>2019-08-09T09:36:28Z</time>
      </trkpt>
      <trkpt lat="44.13053" lon="5.81847">
        <ele>1193</ele>
        <time>2019-08-09T09:36:29Z</time>
      </trkpt>
      <trkpt lat="44.13052" lon="5.81859">
        <ele>1192</ele>
        <time>2019-08-09T09:36:30Z</time>
      </trkpt>
      <trkpt lat="44.13051" lon="5.81872">
        <ele>1191</ele>
        <time>2019-08-09T09:36:31Z</time>
      </trkpt>
      <trkpt lat="44.13048" lon="5.81885">
        <ele>1190</ele>
        <time>2019-08-09T09:36:32Z</time>
      </trkpt>
      <trkpt lat="44.13045" lon="5.81897">
        <ele>1189</ele>
        <time>2019-08-09T09:36:33Z</time>
      </trkpt>
      <trkpt lat="44.13041" lon="5.81909">
        <ele>1188</ele>
        <time>2019-08-09T09:36:34Z</time>
      </trkpt>
      <trkpt lat="44.13036" lon="5.81918">
        <ele>1187</ele>
        <time>2019-08-09T09:36:35Z</time>
      </trkpt>
      <trkpt lat="44.1303" lon="5.81926">
        <ele>1186</ele>
        <time>2019-08-09T09:36:36Z</time>
      </trkpt>
      <trkpt lat="44.13025" lon="5.81934">
        <ele>1184</ele>
        <time>2019-08-09T09:36:37Z</time>
      </trkpt>
      <trkpt lat="44.13018" lon="5.81941">
        <ele>1183</ele>
        <time>2019-08-09T09:36:38Z</time>
      </trkpt>
      <trkpt lat="44.13012" lon="5.81948">
        <ele>1182</ele>
        <time>2019-08-09T09:36:39Z</time>
      </trkpt>
      <trkpt lat="44.13007" lon="5.81955">
        <ele>1181</ele>
        <time>2019-08-09T09:36:40Z</time>
      </trkpt>
      <trkpt lat="44.13002" lon="5.81964">
        <ele>1180</ele>
        <time>2019-08-09T09:36:41Z</time>
      </trkpt>
      <trkpt lat="44.12997" lon="5.81974">
        <ele>1179</ele>
        <time>2019-08-09T09:36:42Z</time>
      </trkpt>
      <trkpt lat="44.12993" lon="5.81983">
        <ele>1178</ele>
        <time>2019-08-09T09:36:43Z</time>
      </trkpt>
      <trkpt lat="44.12989" lon="5.81994">
        <ele>1177</ele>
        <time>2019-08-09T09:36:44Z</time>
      </trkpt>
      <trkpt lat="44.12986" lon="5.82004">
        <ele>1176</ele>
        <time>2019-08-09T09:36:45Z</time>
      </trkpt>
      <trkpt lat="44.12983" lon="5.82015">
        <ele>1175</ele>
        <time>2019-08-09T09:36:46Z</time>
      </trkpt>
      <trkpt lat="44.1298" lon="5.82026">
        <ele>1174</ele>
        <time>2019-08-09T09:36:47Z</time>
      </trkpt>
      <trkpt lat="44.12975" lon="5.82036">
        <ele>1173</ele>
        <time>2019-08-09T09:36:48Z</time>
      </trkpt>
      <trkpt lat="44.1297" lon="5.82046">
        <ele>1172</ele>
        <time>2019-08-09T09:36:49Z</time>
      </trkpt>
      <trkpt lat="44.12964" lon="5.82055">
        <ele>1172</ele>
        <time>2019-08-09T09:36:50Z</time>
      </trkpt>
      <trkpt lat="44.12957" lon="5.82065">
        <ele>1171</ele>
        <time>2019-08-09T09:36:51Z</time>
      </trkpt>
      <trkpt lat="44.12952" lon="5.82074">
        <ele>1170</ele>
        <time>2019-08-09T09:36:52Z</time>
      </trkpt>
      <trkpt lat="44.12947" lon="5.82084">
        <ele>1170</ele>
        <time>2019-08-09T09:36:53Z</time>
      </trkpt>
      <trkpt lat="44.12943" lon="5.82094">
        <ele>1169</ele>
        <time>2019-08-09T09:36:54Z</time>
      </trkpt>
      <trkpt lat="44.12939" lon="5.82104">
        <ele>1168</ele>
        <time>2019-08-09T09:36:55Z</time>
      </trkpt>
      <trkpt lat="44.12935" lon="5.82115">
        <ele>1167</ele>
        <time>2019-08-09T09:36:56Z</time>
      </trkpt>
      <trkpt lat="44.12931" lon="5.82125">
        <ele>1167</ele>
        <time>2019-08-09T09:36:57Z</time>
      </trkpt>
      <trkpt lat="44.12926" lon="5.82135">
        <ele>1167</ele>
        <time>2019-08-09T09:36:58Z</time>
      </trkpt>
      <trkpt lat="44.12922" lon="5.82142">
        <ele>1167</ele>
        <time>2019-08-09T09:36:59Z</time>
      </trkpt>
      <trkpt lat="44.12916" lon="5.82151">
        <ele>1167</ele>
        <time>2019-08-09T09:37:00Z</time>
      </trkpt>
      <trkpt lat="44.12911" lon="5.8216">
        <ele>1167</ele>
        <time>2019-08-09T09:37:01Z</time>
      </trkpt>
      <trkpt lat="44.12907" lon="5.82168">
        <ele>1167</ele>
        <time>2019-08-09T09:37:02Z</time>
      </trkpt>
      <trkpt lat="44.12906" lon="5.82175">
        <ele>1167</ele>
        <time>2019-08-09T09:37:03Z</time>
      </trkpt>
      <trkpt lat="44.12906" lon="5.82182">
        <ele>1167</ele>
        <time>2019-08-09T09:37:04Z</time>
      </trkpt>
      <trkpt lat="44.12906" lon="5.82191">
        <ele>1167</ele>
        <time>2019-08-09T09:37:05Z</time>
      </trkpt>
      <trkpt lat="44.12907" lon="5.82202">
        <ele>1167</ele>
        <time>2019-08-09T09:37:06Z</time>
      </trkpt>
      <trkpt lat="44.12908" lon="5.82212">
        <ele>1167</ele>
        <time>2019-08-09T09:37:07Z</time>
      </trkpt>
      <trkpt lat="44.12908" lon="5.82223">
        <ele>1167</ele>
        <time>2019-08-09T09:37:08Z</time>
      </trkpt>
      <trkpt lat="44.12908" lon="5.82233">
        <ele>1167</ele>
        <time>2019-08-09T09:37:09Z</time>
      </trkpt>
      <trkpt lat="44.12907" lon="5.82244">
        <ele>1167</ele>
        <time>2019-08-09T09:37:10Z</time>
      </trkpt>
      <trkpt lat="44.12907" lon="5.82256">
        <ele>1167</ele>
        <time>2019-08-09T09:37:11Z</time>
      </trkpt>
      <trkpt lat="44.12906" lon="5.82266">
        <ele>1167</ele>
        <time>2019-08-09T09:37:12Z</time>
      </trkpt>
      <trkpt lat="44.12907" lon="5.82277">
        <ele>1167</ele>
        <time>2019-08-09T09:37:13Z</time>
      </trkpt>
      <trkpt lat="44.12907" lon="5.82288">
        <ele>1167</ele>
        <time>2019-08-09T09:37:14Z</time>
      </trkpt>
      <trkpt lat="44.12908" lon="5.82299">
        <ele>1167</ele>
        <time>2019-08-09T09:37:15Z</time>
      </trkpt>
      <trkpt lat="44.12908" lon="5.82309">
        <ele>1167</ele>
        <time>2019-08-09T09:37:16Z</time>
      </trkpt>
      <trkpt lat="44.12908" lon="5.82322">
        <ele>1167</ele>
        <time>2019-08-09T09:37:17Z</time>
      </trkpt>
      <trkpt lat="44.12907" lon="5.82335">
        <ele>1167</ele>
        <time>2019-08-09T09:37:18Z</time>
      </trkpt>
      <trkpt lat="44.12906" lon="5.82347">
        <ele>1167</ele>
        <time>2019-08-09T09:37:19Z</time>
      </trkpt>
      <trkpt lat="44.12904" lon="5.8236">
        <ele>1167</ele>
        <time>2019-08-09T09:37:20Z</time>
      </trkpt>
      <trkpt lat="44.12903" lon="5.82372">
        <ele>1167</ele>
        <time>2019-08-09T09:37:21Z</time>
      </trkpt>
      <trkpt lat="44.12901" lon="5.82383">
        <ele>1167</ele>
        <time>2019-08-09T09:37:22Z</time>
      </trkpt>
      <trkpt lat="44.129" lon="5.82394">
        <ele>1168</ele>
        <time>2019-08-09T09:37:23Z</time>
      </trkpt>
      <trkpt lat="44.12896" lon="5.82403">
        <ele>1168</ele>
        <time>2019-08-09T09:37:24Z</time>
      </trkpt>
      <trkpt lat="44.12893" lon="5.82412">
        <ele>1168</ele>
        <time>2019-08-09T09:37:25Z</time>
      </trkpt>
      <trkpt lat="44.1289" lon="5.82419">
        <ele>1168</ele>
        <time>2019-08-09T09:37:26Z</time>
      </trkpt>
      <trkpt lat="44.12885" lon="5.82425">
        <ele>1168</ele>
        <time>2019-08-09T09:37:27Z</time>
      </trkpt>
      <trkpt lat="44.12878" lon="5.82427">
        <ele>1167</ele>
        <time>2019-08-09T09:37:28Z</time>
      </trkpt>
      <trkpt lat="44.1287" lon="5.82427">
        <ele>1166</ele>
        <time>2019-08-09T09:37:29Z</time>
      </trkpt>
      <trkpt lat="44.12861" lon="5.82425">
        <ele>1165</ele>
        <time>2019-08-09T09:37:30Z</time>
      </trkpt>
      <trkpt lat="44.12853" lon="5.82422">
        <ele>1164</ele>
        <time>2019-08-09T09:37:31Z</time>
      </trkpt>
      <trkpt lat="44.12845" lon="5.82421">
        <ele>1163</ele>
        <time>2019-08-09T09:37:32Z</time>
      </trkpt>
      <trkpt lat="44.12837" lon="5.8242">
        <ele>1162</ele>
        <time>2019-08-09T09:37:33Z</time>
      </trkpt>
      <trkpt lat="44.12831" lon="5.82421">
        <ele>1161</ele>
        <time>2019-08-09T09:37:34Z</time>
      </trkpt>
      <trkpt lat="44.12825" lon="5.82423">
        <ele>1160</ele>
        <time>2019-08-09T09:37:35Z</time>
      </trkpt>
      <trkpt lat="44.12818" lon="5.82431">
        <ele>1159</ele>
        <time>2019-08-09T09:37:36Z</time>
      </trkpt>
      <trkpt lat="44.12813" lon="5.82437">
        <ele>1158</ele>
        <time>2019-08-09T09:37:37Z</time>
      </trkpt>
      <trkpt lat="44.12809" lon="5.82445">
        <ele>1157</ele>
        <time>2019-08-09T09:37:38Z</time>
      </trkpt>
      <trkpt lat="44.12806" lon="5.82455">
        <ele>1156</ele>
        <time>2019-08-09T09:37:39Z</time>
      </trkpt>
      <trkpt lat="44.12803" lon="5.82466">
        <ele>1155</ele>
        <time>2019-08-09T09:37:40Z</time>
      </trkpt>
      <trkpt lat="44.12802" lon="5.82477">
        <ele>1154</ele>
        <time>2019-08-09T09:37:41Z</time>
      </trkpt>
      <trkpt lat="44.12801" lon="5.82491">
        <ele>1153</ele>
        <time>2019-08-09T09:37:42Z</time>
      </trkpt>
      <trkpt lat="44.12799" lon="5.82506">
        <ele>1153</ele>
        <time>2019-08-09T09:37:43Z</time>
      </trkpt>
      <trkpt lat="44.12798" lon="5.8252">
        <ele>1153</ele>
        <time>2019-08-09T09:37:44Z</time>
      </trkpt>
      <trkpt lat="44.12798" lon="5.82535">
        <ele>1153</ele>
        <time>2019-08-09T09:37:45Z</time>
      </trkpt>
      <trkpt lat="44.12797" lon="5.82549">
        <ele>1153</ele>
        <time>2019-08-09T09:37:46Z</time>
      </trkpt>
      <trkpt lat="44.12797" lon="5.82563">
        <ele>1153</ele>
        <time>2019-08-09T09:37:47Z</time>
      </trkpt>
      <trkpt lat="44.12798" lon="5.82577">
        <ele>1153</ele>
        <time>2019-08-09T09:37:48Z</time>
      </trkpt>
      <trkpt lat="44.12797" lon="5.82591">
        <ele>1153</ele>
        <time>2019-08-09T09:37:49Z</time>
      </trkpt>
      <trkpt lat="44.12796" lon="5.82604">
        <ele>1153</ele>
        <time>2019-08-09T09:37:50Z</time>
      </trkpt>
      <trkpt lat="44.12794" lon="5.82615">
        <ele>1153</ele>
        <time>2019-08-09T09:37:51Z</time>
      </trkpt>
      <trkpt lat="44.12791" lon="5.82626">
        <ele>1153</ele>
        <time>2019-08-09T09:37:52Z</time>
      </trkpt>
      <trkpt lat="44.12786" lon="5.82636">
        <ele>1153</ele>
        <time>2019-08-09T09:37:53Z</time>
      </trkpt>
      <trkpt lat="44.1278" lon="5.82644">
        <ele>1153</ele>
        <time>2019-08-09T09:37:54Z</time>
      </trkpt>
      <trkpt lat="44.12773" lon="5.82649">
        <ele>1152</ele>
        <time>2019-08-09T09:37:55Z</time>
      </trkpt>
      <trkpt lat="44.12765" lon="5.82652">
        <ele>1151</ele>
        <time>2019-08-09T09:37:56Z</time>
      </trkpt>
      <trkpt lat="44.12757" lon="5.82653">
        <ele>1150</ele>
        <time>2019-08-09T09:37:57Z</time>
      </trkpt>
      <trkpt lat="44.12749" lon="5.82654">
        <ele>1149</ele>
        <time>2019-08-09T09:37:58Z</time>
      </trkpt>
      <trkpt lat="44.12741" lon="5.82656">
        <ele>1148</ele>
        <time>2019-08-09T09:37:59Z</time>
      </trkpt>
      <trkpt lat="44.12734" lon="5.82661">
        <ele>1147</ele>
        <time>2019-08-09T09:38:00Z</time>
      </trkpt>
      <trkpt lat="44.12727" lon="5.82667">
        <ele>1146</ele>
        <time>2019-08-09T09:38:01Z</time>
      </trkpt>
      <trkpt lat="44.12721" lon="5.82677">
        <ele>1145</ele>
        <time>2019-08-09T09:38:02Z</time>
      </trkpt>
      <trkpt lat="44.12714" lon="5.82687">
        <ele>1144</ele>
        <time>2019-08-09T09:38:03Z</time>
      </trkpt>
      <trkpt lat="44.12708" lon="5.82696">
        <ele>1143</ele>
        <time>2019-08-09T09:38:04Z</time>
      </trkpt>
      <trkpt lat="44.12701" lon="5.82706">
        <ele>1142</ele>
        <time>2019-08-09T09:38:05Z</time>
      </trkpt>
      <trkpt lat="44.12695" lon="5.82714">
        <ele>1141</ele>
        <time>2019-08-09T09:38:06Z</time>
      </trkpt>
      <trkpt lat="44.1269" lon="5.82721">
        <ele>1140</ele>
        <time>2019-08-09T09:38:07Z</time>
      </trkpt>
      <trkpt lat="44.12685" lon="5.82728">
        <ele>1140</ele>
        <time>2019-08-09T09:38:08Z</time>
      </trkpt>
      <trkpt lat="44.12682" lon="5.82735">
        <ele>1140</ele>
        <time>2019-08-09T09:38:09Z</time>
      </trkpt>
      <trkpt lat="44.12681" lon="5.82742">
        <ele>1140</ele>
        <time>2019-08-09T09:38:10Z</time>
      </trkpt>
      <trkpt lat="44.12681" lon="5.82753">
        <ele>1140</ele>
        <time>2019-08-09T09:38:11Z</time>
      </trkpt>
      <trkpt lat="44.12683" lon="5.82762">
        <ele>1140</ele>
        <time>2019-08-09T09:38:12Z</time>
      </trkpt>
      <trkpt lat="44.12683" lon="5.8277">
        <ele>1140</ele>
        <time>2019-08-09T09:38:13Z</time>
      </trkpt>
      <trkpt lat="44.12684" lon="5.82782">
        <ele>1140</ele>
        <time>2019-08-09T09:38:14Z</time>
      </trkpt>
      <trkpt lat="44.12683" lon="5.82794">
        <ele>1140</ele>
        <time>2019-08-09T09:38:15Z</time>
      </trkpt>
      <trkpt lat="44.12682" lon="5.82805">
        <ele>1140</ele>
        <time>2019-08-09T09:38:16Z</time>
      </trkpt>
      <trkpt lat="44.1268" lon="5.82816">
        <ele>1140</ele>
        <time>2019-08-09T09:38:17Z</time>
      </trkpt>
      <trkpt lat="44.12676" lon="5.82825">
        <ele>1140</ele>
        <time>2019-08-09T09:38:18Z</time>
      </trkpt>
      <trkpt lat="44.12673" lon="5.82834">
        <ele>1140</ele>
        <time>2019-08-09T09:38:19Z</time>
      </trkpt>
      <trkpt lat="44.1267" lon="5.82843">
        <ele>1140</ele>
        <time>2019-08-09T09:38:20Z</time>
      </trkpt>
      <trkpt lat="44.1267" lon="5.8285">
        <ele>1140</ele>
        <time>2019-08-09T09:38:22Z</time>
      </trkpt>
      <trkpt lat="44.12672" lon="5.82856">
        <ele>1140</ele>
        <time>2019-08-09T09:38:22Z</time>
      </trkpt>
      <trkpt lat="44.12674" lon="5.82864">
        <ele>1140</ele>
        <time>2019-08-09T09:38:23Z</time>
      </trkpt>
      <trkpt lat="44.12675" lon="5.82872">
        <ele>1140</ele>
        <time>2019-08-09T09:38:24Z</time>
      </trkpt>
      <trkpt lat="44.12677" lon="5.82881">
        <ele>1140</ele>
        <time>2019-08-09T09:38:25Z</time>
      </trkpt>
      <trkpt lat="44.1268" lon="5.8289">
        <ele>1139</ele>
        <time>2019-08-09T09:38:26Z</time>
      </trkpt>
      <trkpt lat="44.12682" lon="5.82899">
        <ele>1138</ele>
        <time>2019-08-09T09:38:27Z</time>
      </trkpt>
      <trkpt lat="44.12685" lon="5.82909">
        <ele>1137</ele>
        <time>2019-08-09T09:38:28Z</time>
      </trkpt>
      <trkpt lat="44.12688" lon="5.8292">
        <ele>1136</ele>
        <time>2019-08-09T09:38:29Z</time>
      </trkpt>
      <trkpt lat="44.1269" lon="5.82932">
        <ele>1135</ele>
        <time>2019-08-09T09:38:30Z</time>
      </trkpt>
      <trkpt lat="44.12693" lon="5.82943">
        <ele>1134</ele>
        <time>2019-08-09T09:38:31Z</time>
      </trkpt>
      <trkpt lat="44.12696" lon="5.82954">
        <ele>1133</ele>
        <time>2019-08-09T09:38:32Z</time>
      </trkpt>
      <trkpt lat="44.12698" lon="5.82966">
        <ele>1132</ele>
        <time>2019-08-09T09:38:33Z</time>
      </trkpt>
      <trkpt lat="44.127" lon="5.82977">
        <ele>1131</ele>
        <time>2019-08-09T09:38:34Z</time>
      </trkpt>
      <trkpt lat="44.12702" lon="5.82989">
        <ele>1130</ele>
        <time>2019-08-09T09:38:35Z</time>
      </trkpt>
      <trkpt lat="44.12704" lon="5.83001">
        <ele>1129</ele>
        <time>2019-08-09T09:38:36Z</time>
      </trkpt>
      <trkpt lat="44.12706" lon="5.83013">
        <ele>1128</ele>
        <time>2019-08-09T09:38:37Z</time>
      </trkpt>
      <trkpt lat="44.12707" lon="5.83025">
        <ele>1127</ele>
        <time>2019-08-09T09:38:38Z</time>
      </trkpt>
      <trkpt lat="44.12707" lon="5.83037">
        <ele>1126</ele>
        <time>2019-08-09T09:38:39Z</time>
      </trkpt>
      <trkpt lat="44.12706" lon="5.8305">
        <ele>1125</ele>
        <time>2019-08-09T09:38:40Z</time>
      </trkpt>
      <trkpt lat="44.12705" lon="5.83063">
        <ele>1124</ele>
        <time>2019-08-09T09:38:41Z</time>
      </trkpt>
      <trkpt lat="44.12703" lon="5.83075">
        <ele>1122</ele>
        <time>2019-08-09T09:38:42Z</time>
      </trkpt>
      <trkpt lat="44.12701" lon="5.83088">
        <ele>1120</ele>
        <time>2019-08-09T09:38:43Z</time>
      </trkpt>
      <trkpt lat="44.12698" lon="5.83099">
        <ele>1118</ele>
        <time>2019-08-09T09:38:44Z</time>
      </trkpt>
      <trkpt lat="44.12694" lon="5.8311">
        <ele>1116</ele>
        <time>2019-08-09T09:38:45Z</time>
      </trkpt>
      <trkpt lat="44.1269" lon="5.83121">
        <ele>1114</ele>
        <time>2019-08-09T09:38:46Z</time>
      </trkpt>
      <trkpt lat="44.12686" lon="5.8313">
        <ele>1112</ele>
        <time>2019-08-09T09:38:47Z</time>
      </trkpt>
      <trkpt lat="44.12681" lon="5.8314">
        <ele>1111</ele>
        <time>2019-08-09T09:38:48Z</time>
      </trkpt>
      <trkpt lat="44.12677" lon="5.83149">
        <ele>1110</ele>
        <time>2019-08-09T09:38:49Z</time>
      </trkpt>
      <trkpt lat="44.12672" lon="5.83156">
        <ele>1108</ele>
        <time>2019-08-09T09:38:50Z</time>
      </trkpt>
      <trkpt lat="44.12667" lon="5.83162">
        <ele>1107</ele>
        <time>2019-08-09T09:38:51Z</time>
      </trkpt>
      <trkpt lat="44.12661" lon="5.83168">
        <ele>1106</ele>
        <time>2019-08-09T09:38:52Z</time>
      </trkpt>
      <trkpt lat="44.12656" lon="5.83174">
        <ele>1105</ele>
        <time>2019-08-09T09:38:53Z</time>
      </trkpt>
      <trkpt lat="44.12651" lon="5.83181">
        <ele>1104</ele>
        <time>2019-08-09T09:38:54Z</time>
      </trkpt>
      <trkpt lat="44.12649" lon="5.83188">
        <ele>1103</ele>
        <time>2019-08-09T09:38:55Z</time>
      </trkpt>
      <trkpt lat="44.12648" lon="5.83198">
        <ele>1102</ele>
        <time>2019-08-09T09:38:56Z</time>
      </trkpt>
      <trkpt lat="44.1265" lon="5.83207">
        <ele>1101</ele>
        <time>2019-08-09T09:38:57Z</time>
      </trkpt>
      <trkpt lat="44.12652" lon="5.83217">
        <ele>1100</ele>
        <time>2019-08-09T09:38:58Z</time>
      </trkpt>
      <trkpt lat="44.12655" lon="5.83227">
        <ele>1099</ele>
        <time>2019-08-09T09:38:59Z</time>
      </trkpt>
      <trkpt lat="44.12656" lon="5.83238">
        <ele>1098</ele>
        <time>2019-08-09T09:39:00Z</time>
      </trkpt>
      <trkpt lat="44.12657" lon="5.83249">
        <ele>1097</ele>
        <time>2019-08-09T09:39:01Z</time>
      </trkpt>
      <trkpt lat="44.12657" lon="5.83259">
        <ele>1096</ele>
        <time>2019-08-09T09:39:02Z</time>
      </trkpt>
      <trkpt lat="44.12655" lon="5.8327">
        <ele>1095</ele>
        <time>2019-08-09T09:39:03Z</time>
      </trkpt>
      <trkpt lat="44.12651" lon="5.8328">
        <ele>1094</ele>
        <time>2019-08-09T09:39:04Z</time>
      </trkpt>
      <trkpt lat="44.12647" lon="5.8329">
        <ele>1093</ele>
        <time>2019-08-09T09:39:05Z</time>
      </trkpt>
      <trkpt lat="44.12642" lon="5.83297">
        <ele>1093</ele>
        <time>2019-08-09T09:39:06Z</time>
      </trkpt>
      <trkpt lat="44.12636" lon="5.83303">
        <ele>1093</ele>
        <time>2019-08-09T09:39:07Z</time>
      </trkpt>
      <trkpt lat="44.12629" lon="5.83308">
        <ele>1092</ele>
        <time>2019-08-09T09:39:08Z</time>
      </trkpt>
      <trkpt lat="44.12622" lon="5.83312">
        <ele>1092</ele>
        <time>2019-08-09T09:39:09Z</time>
      </trkpt>
      <trkpt lat="44.12614" lon="5.83315">
        <ele>1091</ele>
        <time>2019-08-09T09:39:10Z</time>
      </trkpt>
      <trkpt lat="44.12606" lon="5.83316">
        <ele>1091</ele>
        <time>2019-08-09T09:39:11Z</time>
      </trkpt>
      <trkpt lat="44.12599" lon="5.83319">
        <ele>1090</ele>
        <time>2019-08-09T09:39:12Z</time>
      </trkpt>
      <trkpt lat="44.12592" lon="5.83323">
        <ele>1090</ele>
        <time>2019-08-09T09:39:13Z</time>
      </trkpt>
      <trkpt lat="44.12586" lon="5.83328">
        <ele>1089</ele>
        <time>2019-08-09T09:39:14Z</time>
      </trkpt>
      <trkpt lat="44.12582" lon="5.83336">
        <ele>1089</ele>
        <time>2019-08-09T09:39:15Z</time>
      </trkpt>
      <trkpt lat="44.12579" lon="5.83346">
        <ele>1089</ele>
        <time>2019-08-09T09:39:16Z</time>
      </trkpt>
      <trkpt lat="44.12577" lon="5.83356">
        <ele>1089</ele>
        <time>2019-08-09T09:39:17Z</time>
      </trkpt>
      <trkpt lat="44.12574" lon="5.83367">
        <ele>1089</ele>
        <time>2019-08-09T09:39:18Z</time>
      </trkpt>
      <trkpt lat="44.12571" lon="5.83378">
        <ele>1089</ele>
        <time>2019-08-09T09:39:19Z</time>
      </trkpt>
      <trkpt lat="44.12567" lon="5.83389">
        <ele>1089</ele>
        <time>2019-08-09T09:39:20Z</time>
      </trkpt>
      <trkpt lat="44.12563" lon="5.83399">
        <ele>1089</ele>
        <time>2019-08-09T09:39:21Z</time>
      </trkpt>
      <trkpt lat="44.12558" lon="5.8341">
        <ele>1089</ele>
        <time>2019-08-09T09:39:22Z</time>
      </trkpt>
      <trkpt lat="44.12551" lon="5.83422">
        <ele>1089</ele>
        <time>2019-08-09T09:39:23Z</time>
      </trkpt>
      <trkpt lat="44.12545" lon="5.83431">
        <ele>1089</ele>
        <time>2019-08-09T09:39:24Z</time>
      </trkpt>
      <trkpt lat="44.12537" lon="5.8344">
        <ele>1089</ele>
        <time>2019-08-09T09:39:25Z</time>
      </trkpt>
      <trkpt lat="44.1253" lon="5.83449">
        <ele>1089</ele>
        <time>2019-08-09T09:39:26Z</time>
      </trkpt>
      <trkpt lat="44.12523" lon="5.83457">
        <ele>1089</ele>
        <time>2019-08-09T09:39:27Z</time>
      </trkpt>
      <trkpt lat="44.12518" lon="5.83464">
        <ele>1089</ele>
        <time>2019-08-09T09:39:28Z</time>
      </trkpt>
      <trkpt lat="44.12513" lon="5.83473">
        <ele>1089</ele>
        <time>2019-08-09T09:39:29Z</time>
      </trkpt>
      <trkpt lat="44.1251" lon="5.83483">
        <ele>1089</ele>
        <time>2019-08-09T09:39:30Z</time>
      </trkpt>
      <trkpt lat="44.12508" lon="5.83494">
        <ele>1089</ele>
        <time>2019-08-09T09:39:31Z</time>
      </trkpt>
      <trkpt lat="44.12507" lon="5.83507">
        <ele>1089</ele>
        <time>2019-08-09T09:39:32Z</time>
      </trkpt>
      <trkpt lat="44.12505" lon="5.8352">
        <ele>1089</ele>
        <time>2019-08-09T09:39:33Z</time>
      </trkpt>
      <trkpt lat="44.12502" lon="5.83532">
        <ele>1089</ele>
        <time>2019-08-09T09:39:34Z</time>
      </trkpt>
      <trkpt lat="44.12498" lon="5.83544">
        <ele>1088</ele>
        <time>2019-08-09T09:39:35Z</time>
      </trkpt>
      <trkpt lat="44.12494" lon="5.83556">
        <ele>1088</ele>
        <time>2019-08-09T09:39:36Z</time>
      </trkpt>
      <trkpt lat="44.12489" lon="5.83566">
        <ele>1088</ele>
        <time>2019-08-09T09:39:37Z</time>
      </trkpt>
      <trkpt lat="44.12483" lon="5.83575">
        <ele>1087</ele>
        <time>2019-08-09T09:39:38Z</time>
      </trkpt>
      <trkpt lat="44.12476" lon="5.83581">
        <ele>1087</ele>
        <time>2019-08-09T09:39:39Z</time>
      </trkpt>
      <trkpt lat="44.12468" lon="5.83586">
        <ele>1086</ele>
        <time>2019-08-09T09:39:40Z</time>
      </trkpt>
      <trkpt lat="44.1246" lon="5.83588">
        <ele>1086</ele>
        <time>2019-08-09T09:39:41Z</time>
      </trkpt>
      <trkpt lat="44.12452" lon="5.83589">
        <ele>1085</ele>
        <time>2019-08-09T09:39:42Z</time>
      </trkpt>
      <trkpt lat="44.12444" lon="5.83586">
        <ele>1085</ele>
        <time>2019-08-09T09:39:43Z</time>
      </trkpt>
      <trkpt lat="44.12437" lon="5.83583">
        <ele>1084</ele>
        <time>2019-08-09T09:39:44Z</time>
      </trkpt>
      <trkpt lat="44.12429" lon="5.8358">
        <ele>1083</ele>
        <time>2019-08-09T09:39:45Z</time>
      </trkpt>
      <trkpt lat="44.12421" lon="5.83578">
        <ele>1083</ele>
        <time>2019-08-09T09:39:46Z</time>
      </trkpt>
      <trkpt lat="44.12413" lon="5.83575">
        <ele>1082</ele>
        <time>2019-08-09T09:39:47Z</time>
      </trkpt>
      <trkpt lat="44.12404" lon="5.83574">
        <ele>1081</ele>
        <time>2019-08-09T09:39:48Z</time>
      </trkpt>
      <trkpt lat="44.12396" lon="5.83574">
        <ele>1080</ele>
        <time>2019-08-09T09:39:49Z</time>
      </trkpt>
      <trkpt lat="44.12388" lon="5.83575">
        <ele>1079</ele>
        <time>2019-08-09T09:39:50Z</time>
      </trkpt>
      <trkpt lat="44.1238" lon="5.83579">
        <ele>1078</ele>
        <time>2019-08-09T09:39:51Z</time>
      </trkpt>
      <trkpt lat="44.12373" lon="5.83585">
        <ele>1077</ele>
        <time>2019-08-09T09:39:52Z</time>
      </trkpt>
      <trkpt lat="44.12366" lon="5.83592">
        <ele>1076</ele>
        <time>2019-08-09T09:39:53Z</time>
      </trkpt>
      <trkpt lat="44.12359" lon="5.836">
        <ele>1075</ele>
        <time>2019-08-09T09:39:54Z</time>
      </trkpt>
      <trkpt lat="44.12352" lon="5.83608">
        <ele>1075</ele>
        <time>2019-08-09T09:39:55Z</time>
      </trkpt>
      <trkpt lat="44.12346" lon="5.83617">
        <ele>1074</ele>
        <time>2019-08-09T09:39:56Z</time>
      </trkpt>
      <trkpt lat="44.1234" lon="5.83626">
        <ele>1073</ele>
        <time>2019-08-09T09:39:57Z</time>
      </trkpt>
      <trkpt lat="44.12334" lon="5.83635">
        <ele>1073</ele>
        <time>2019-08-09T09:39:58Z</time>
      </trkpt>
      <trkpt lat="44.12331" lon="5.83646">
        <ele>1072</ele>
        <time>2019-08-09T09:39:59Z</time>
      </trkpt>
      <trkpt lat="44.12329" lon="5.83656">
        <ele>1072</ele>
        <time>2019-08-09T09:40:00Z</time>
      </trkpt>
      <trkpt lat="44.12329" lon="5.83666">
        <ele>1071</ele>
        <time>2019-08-09T09:40:01Z</time>
      </trkpt>
      <trkpt lat="44.12328" lon="5.83677">
        <ele>1071</ele>
        <time>2019-08-09T09:40:02Z</time>
      </trkpt>
      <trkpt lat="44.12328" lon="5.83688">
        <ele>1070</ele>
        <time>2019-08-09T09:40:03Z</time>
      </trkpt>
      <trkpt lat="44.12326" lon="5.83699">
        <ele>1070</ele>
        <time>2019-08-09T09:40:04Z</time>
      </trkpt>
      <trkpt lat="44.12325" lon="5.8371">
        <ele>1070</ele>
        <time>2019-08-09T09:40:05Z</time>
      </trkpt>
      <trkpt lat="44.12323" lon="5.83721">
        <ele>1070</ele>
        <time>2019-08-09T09:40:06Z</time>
      </trkpt>
      <trkpt lat="44.12323" lon="5.83733">
        <ele>1070</ele>
        <time>2019-08-09T09:40:07Z</time>
      </trkpt>
      <trkpt lat="44.12323" lon="5.83744">
        <ele>1070</ele>
        <time>2019-08-09T09:40:08Z</time>
      </trkpt>
      <trkpt lat="44.12323" lon="5.83756">
        <ele>1070</ele>
        <time>2019-08-09T09:40:09Z</time>
      </trkpt>
      <trkpt lat="44.12325" lon="5.83767">
        <ele>1070</ele>
        <time>2019-08-09T09:40:10Z</time>
      </trkpt>
      <trkpt lat="44.12326" lon="5.83779">
        <ele>1070</ele>
        <time>2019-08-09T09:40:11Z</time>
      </trkpt>
      <trkpt lat="44.12328" lon="5.8379">
        <ele>1070</ele>
        <time>2019-08-09T09:40:12Z</time>
      </trkpt>
      <trkpt lat="44.12331" lon="5.838">
        <ele>1070</ele>
        <time>2019-08-09T09:40:13Z</time>
      </trkpt>
      <trkpt lat="44.12334" lon="5.83811">
        <ele>1070</ele>
        <time>2019-08-09T09:40:14Z</time>
      </trkpt>
      <trkpt lat="44.12336" lon="5.8382">
        <ele>1070</ele>
        <time>2019-08-09T09:40:15Z</time>
      </trkpt>
      <trkpt lat="44.12339" lon="5.8383">
        <ele>1069</ele>
        <time>2019-08-09T09:40:16Z</time>
      </trkpt>
      <trkpt lat="44.12342" lon="5.8384">
        <ele>1068</ele>
        <time>2019-08-09T09:40:17Z</time>
      </trkpt>
      <trkpt lat="44.12346" lon="5.83851">
        <ele>1068</ele>
        <time>2019-08-09T09:40:18Z</time>
      </trkpt>
      <trkpt lat="44.12349" lon="5.83861">
        <ele>1067</ele>
        <time>2019-08-09T09:40:19Z</time>
      </trkpt>
      <trkpt lat="44.12352" lon="5.83872">
        <ele>1067</ele>
        <time>2019-08-09T09:40:20Z</time>
      </trkpt>
      <trkpt lat="44.12352" lon="5.8388">
        <ele>1066</ele>
        <time>2019-08-09T09:40:21Z</time>
      </trkpt>
      <trkpt lat="44.12354" lon="5.83889">
        <ele>1066</ele>
        <time>2019-08-09T09:40:22Z</time>
      </trkpt>
      <trkpt lat="44.12357" lon="5.83897">
        <ele>1066</ele>
        <time>2019-08-09T09:40:23Z</time>
      </trkpt>
      <trkpt lat="44.1236" lon="5.83904">
        <ele>1066</ele>
        <time>2019-08-09T09:40:24Z</time>
      </trkpt>
      <trkpt lat="44.12364" lon="5.83912">
        <ele>1065</ele>
        <time>2019-08-09T09:40:25Z</time>
      </trkpt>
      <trkpt lat="44.12368" lon="5.8392">
        <ele>1064</ele>
        <time>2019-08-09T09:40:26Z</time>
      </trkpt>
      <trkpt lat="44.12373" lon="5.83928">
        <ele>1063</ele>
        <time>2019-08-09T09:40:27Z</time>
      </trkpt>
      <trkpt lat="44.12376" lon="5.83937">
        <ele>1062</ele>
        <time>2019-08-09T09:40:28Z</time>
      </trkpt>
      <trkpt lat="44.12378" lon="5.83947">
        <ele>1061</ele>
        <time>2019-08-09T09:40:29Z</time>
      </trkpt>
      <trkpt lat="44.12378" lon="5.83957">
        <ele>1061</ele>
        <time>2019-08-09T09:40:30Z</time>
      </trkpt>
      <trkpt lat="44.12376" lon="5.83967">
        <ele>1061</ele>
        <time>2019-08-09T09:40:31Z</time>
      </trkpt>
      <trkpt lat="44.1237" lon="5.83977">
        <ele>1061</ele>
        <time>2019-08-09T09:40:32Z</time>
      </trkpt>
      <trkpt lat="44.12363" lon="5.83986">
        <ele>1061</ele>
        <time>2019-08-09T09:40:33Z</time>
      </trkpt>
      <trkpt lat="44.12357" lon="5.83994">
        <ele>1060</ele>
        <time>2019-08-09T09:40:34Z</time>
      </trkpt>
      <trkpt lat="44.12353" lon="5.84001">
        <ele>1060</ele>
        <time>2019-08-09T09:40:35Z</time>
      </trkpt>
      <trkpt lat="44.12349" lon="5.84009">
        <ele>1060</ele>
        <time>2019-08-09T09:40:36Z</time>
      </trkpt>
      <trkpt lat="44.12345" lon="5.84017">
        <ele>1059</ele>
        <time>2019-08-09T09:40:37Z</time>
      </trkpt>
      <trkpt lat="44.12342" lon="5.84025">
        <ele>1059</ele>
        <time>2019-08-09T09:40:38Z</time>
      </trkpt>
      <trkpt lat="44.1234" lon="5.84034">
        <ele>1058</ele>
        <time>2019-08-09T09:40:39Z</time>
      </trkpt>
      <trkpt lat="44.1234" lon="5.84042">
        <ele>1058</ele>
        <time>2019-08-09T09:40:40Z</time>
      </trkpt>
      <trkpt lat="44.12341" lon="5.84051">
        <ele>1057</ele>
        <time>2019-08-09T09:40:41Z</time>
      </trkpt>
      <trkpt lat="44.12344" lon="5.84061">
        <ele>1057</ele>
        <time>2019-08-09T09:40:42Z</time>
      </trkpt>
      <trkpt lat="44.12349" lon="5.84071">
        <ele>1056</ele>
        <time>2019-08-09T09:40:43Z</time>
      </trkpt>
      <trkpt lat="44.12355" lon="5.84078">
        <ele>1056</ele>
        <time>2019-08-09T09:40:44Z</time>
      </trkpt>
      <trkpt lat="44.12362" lon="5.84084">
        <ele>1055</ele>
        <time>2019-08-09T09:40:45Z</time>
      </trkpt>
      <trkpt lat="44.12369" lon="5.84092">
        <ele>1054</ele>
        <time>2019-08-09T09:40:46Z</time>
      </trkpt>
      <trkpt lat="44.12376" lon="5.84099">
        <ele>1053</ele>
        <time>2019-08-09T09:40:47Z</time>
      </trkpt>
      <trkpt lat="44.12383" lon="5.84108">
        <ele>1052</ele>
        <time>2019-08-09T09:40:48Z</time>
      </trkpt>
      <trkpt lat="44.1239" lon="5.84117">
        <ele>1051</ele>
        <time>2019-08-09T09:40:49Z</time>
      </trkpt>
      <trkpt lat="44.12397" lon="5.84126">
        <ele>1050</ele>
        <time>2019-08-09T09:40:50Z</time>
      </trkpt>
      <trkpt lat="44.12405" lon="5.84135">
        <ele>1050</ele>
        <time>2019-08-09T09:40:51Z</time>
      </trkpt>
      <trkpt lat="44.12412" lon="5.84144">
        <ele>1049</ele>
        <time>2019-08-09T09:40:52Z</time>
      </trkpt>
      <trkpt lat="44.12419" lon="5.84153">
        <ele>1049</ele>
        <time>2019-08-09T09:40:53Z</time>
      </trkpt>
      <trkpt lat="44.12426" lon="5.84161">
        <ele>1048</ele>
        <time>2019-08-09T09:40:54Z</time>
      </trkpt>
      <trkpt lat="44.12433" lon="5.84169">
        <ele>1048</ele>
        <time>2019-08-09T09:40:55Z</time>
      </trkpt>
      <trkpt lat="44.12439" lon="5.84177">
        <ele>1048</ele>
        <time>2019-08-09T09:40:56Z</time>
      </trkpt>
      <trkpt lat="44.12444" lon="5.84188">
        <ele>1048</ele>
        <time>2019-08-09T09:40:57Z</time>
      </trkpt>
      <trkpt lat="44.1245" lon="5.84201">
        <ele>1047</ele>
        <time>2019-08-09T09:40:58Z</time>
      </trkpt>
      <trkpt lat="44.12455" lon="5.84213">
        <ele>1047</ele>
        <time>2019-08-09T09:40:59Z</time>
      </trkpt>
      <trkpt lat="44.12458" lon="5.84226">
        <ele>1047</ele>
        <time>2019-08-09T09:41:00Z</time>
      </trkpt>
      <trkpt lat="44.12462" lon="5.84238">
        <ele>1047</ele>
        <time>2019-08-09T09:41:01Z</time>
      </trkpt>
      <trkpt lat="44.12464" lon="5.84249">
        <ele>1046</ele>
        <time>2019-08-09T09:41:02Z</time>
      </trkpt>
      <trkpt lat="44.12466" lon="5.84261">
        <ele>1046</ele>
        <time>2019-08-09T09:41:03Z</time>
      </trkpt>
      <trkpt lat="44.12464" lon="5.84269">
        <ele>1046</ele>
        <time>2019-08-09T09:41:04Z</time>
      </trkpt>
      <trkpt lat="44.12463" lon="5.84279">
        <ele>1046</ele>
        <time>2019-08-09T09:41:05Z</time>
      </trkpt>
      <trkpt lat="44.12462" lon="5.8429">
        <ele>1046</ele>
        <time>2019-08-09T09:41:06Z</time>
      </trkpt>
      <trkpt lat="44.12464" lon="5.84301">
        <ele>1046</ele>
        <time>2019-08-09T09:41:07Z</time>
      </trkpt>
      <trkpt lat="44.12464" lon="5.84311">
        <ele>1045</ele>
        <time>2019-08-09T09:41:08Z</time>
      </trkpt>
      <trkpt lat="44.12465" lon="5.84321">
        <ele>1045</ele>
        <time>2019-08-09T09:41:09Z</time>
      </trkpt>
      <trkpt lat="44.12467" lon="5.84331">
        <ele>1044</ele>
        <time>2019-08-09T09:41:10Z</time>
      </trkpt>
      <trkpt lat="44.1247" lon="5.84341">
        <ele>1044</ele>
        <time>2019-08-09T09:41:11Z</time>
      </trkpt>
      <trkpt lat="44.12473" lon="5.84351">
        <ele>1044</ele>
        <time>2019-08-09T09:41:12Z</time>
      </trkpt>
      <trkpt lat="44.12477" lon="5.8436">
        <ele>1044</ele>
        <time>2019-08-09T09:41:13Z</time>
      </trkpt>
      <trkpt lat="44.12481" lon="5.84369">
        <ele>1043</ele>
        <time>2019-08-09T09:41:14Z</time>
      </trkpt>
      <trkpt lat="44.12486" lon="5.84377">
        <ele>1043</ele>
        <time>2019-08-09T09:41:15Z</time>
      </trkpt>
      <trkpt lat="44.1249" lon="5.84385">
        <ele>1042</ele>
        <time>2019-08-09T09:41:16Z</time>
      </trkpt>
      <trkpt lat="44.12494" lon="5.84393">
        <ele>1041</ele>
        <time>2019-08-09T09:41:17Z</time>
      </trkpt>
      <trkpt lat="44.12498" lon="5.84402">
        <ele>1040</ele>
        <time>2019-08-09T09:41:18Z</time>
      </trkpt>
      <trkpt lat="44.12502" lon="5.84409">
        <ele>1040</ele>
        <time>2019-08-09T09:41:19Z</time>
      </trkpt>
      <trkpt lat="44.12506" lon="5.84416">
        <ele>1039</ele>
        <time>2019-08-09T09:41:20Z</time>
      </trkpt>
      <trkpt lat="44.12511" lon="5.8442">
        <ele>1039</ele>
        <time>2019-08-09T09:41:21Z</time>
      </trkpt>
      <trkpt lat="44.12516" lon="5.84423">
        <ele>1039</ele>
        <time>2019-08-09T09:41:22Z</time>
      </trkpt>
      <trkpt lat="44.12521" lon="5.84421">
        <ele>1039</ele>
        <time>2019-08-09T09:41:23Z</time>
      </trkpt>
      <trkpt lat="44.12525" lon="5.84418">
        <ele>1038</ele>
        <time>2019-08-09T09:41:24Z</time>
      </trkpt>
      <trkpt lat="44.12529" lon="5.84415">
        <ele>1037</ele>
        <time>2019-08-09T09:41:25Z</time>
      </trkpt>
      <trkpt lat="44.12534" lon="5.84413">
        <ele>1036</ele>
        <time>2019-08-09T09:41:26Z</time>
      </trkpt>
      <trkpt lat="44.12538" lon="5.84413">
        <ele>1035</ele>
        <time>2019-08-09T09:41:27Z</time>
      </trkpt>
      <trkpt lat="44.12542" lon="5.84416">
        <ele>1034</ele>
        <time>2019-08-09T09:41:28Z</time>
      </trkpt>
      <trkpt lat="44.12542" lon="5.84424">
        <ele>1033</ele>
        <time>2019-08-09T09:41:29Z</time>
      </trkpt>
      <trkpt lat="44.1254" lon="5.84432">
        <ele>1032</ele>
        <time>2019-08-09T09:41:30Z</time>
      </trkpt>
      <trkpt lat="44.12537" lon="5.84438">
        <ele>1031</ele>
        <time>2019-08-09T09:41:31Z</time>
      </trkpt>
      <trkpt lat="44.12532" lon="5.84446">
        <ele>1030</ele>
        <time>2019-08-09T09:41:32Z</time>
      </trkpt>
      <trkpt lat="44.12527" lon="5.84452">
        <ele>1029</ele>
        <time>2019-08-09T09:41:33Z</time>
      </trkpt>
      <trkpt lat="44.12521" lon="5.84455">
        <ele>1028</ele>
        <time>2019-08-09T09:41:34Z</time>
      </trkpt>
      <trkpt lat="44.12514" lon="5.84453">
        <ele>1028</ele>
        <time>2019-08-09T09:41:35Z</time>
      </trkpt>
      <trkpt lat="44.12507" lon="5.84449">
        <ele>1027</ele>
        <time>2019-08-09T09:41:36Z</time>
      </trkpt>
      <trkpt lat="44.125" lon="5.84443">
        <ele>1026</ele>
        <time>2019-08-09T09:41:37Z</time>
      </trkpt>
      <trkpt lat="44.12494" lon="5.84437">
        <ele>1025</ele>
        <time>2019-08-09T09:41:38Z</time>
      </trkpt>
      <trkpt lat="44.12487" lon="5.8443">
        <ele>1024</ele>
        <time>2019-08-09T09:41:39Z</time>
      </trkpt>
      <trkpt lat="44.1248" lon="5.84422">
        <ele>1023</ele>
        <time>2019-08-09T09:41:40Z</time>
      </trkpt>
      <trkpt lat="44.12473" lon="5.84415">
        <ele>1023</ele>
        <time>2019-08-09T09:41:41Z</time>
      </trkpt>
      <trkpt lat="44.12467" lon="5.84407">
        <ele>1023</ele>
        <time>2019-08-09T09:41:42Z</time>
      </trkpt>
      <trkpt lat="44.1246" lon="5.84399">
        <ele>1023</ele>
        <time>2019-08-09T09:41:43Z</time>
      </trkpt>
      <trkpt lat="44.12453" lon="5.84391">
        <ele>1023</ele>
        <time>2019-08-09T09:41:44Z</time>
      </trkpt>
      <trkpt lat="44.12447" lon="5.84383">
        <ele>1023</ele>
        <time>2019-08-09T09:41:45Z</time>
      </trkpt>
      <trkpt lat="44.12441" lon="5.84373">
        <ele>1023</ele>
        <time>2019-08-09T09:41:46Z</time>
      </trkpt>
      <trkpt lat="44.12434" lon="5.84364">
        <ele>1023</ele>
        <time>2019-08-09T09:41:47Z</time>
      </trkpt>
      <trkpt lat="44.12429" lon="5.84354">
        <ele>1023</ele>
        <time>2019-08-09T09:41:48Z</time>
      </trkpt>
      <trkpt lat="44.12422" lon="5.84344">
        <ele>1023</ele>
        <time>2019-08-09T09:41:49Z</time>
      </trkpt>
      <trkpt lat="44.12417" lon="5.84333">
        <ele>1023</ele>
        <time>2019-08-09T09:41:50Z</time>
      </trkpt>
      <trkpt lat="44.12412" lon="5.84323">
        <ele>1023</ele>
        <time>2019-08-09T09:41:51Z</time>
      </trkpt>
      <trkpt lat="44.12408" lon="5.84311">
        <ele>1022</ele>
        <time>2019-08-09T09:41:52Z</time>
      </trkpt>
      <trkpt lat="44.12403" lon="5.843">
        <ele>1021</ele>
        <time>2019-08-09T09:41:53Z</time>
      </trkpt>
      <trkpt lat="44.12398" lon="5.84289">
        <ele>1020</ele>
        <time>2019-08-09T09:41:54Z</time>
      </trkpt>
      <trkpt lat="44.12394" lon="5.84278">
        <ele>1020</ele>
        <time>2019-08-09T09:41:55Z</time>
      </trkpt>
      <trkpt lat="44.12389" lon="5.84269">
        <ele>1019</ele>
        <time>2019-08-09T09:41:56Z</time>
      </trkpt>
      <trkpt lat="44.12384" lon="5.84262">
        <ele>1019</ele>
        <time>2019-08-09T09:41:57Z</time>
      </trkpt>
      <trkpt lat="44.12377" lon="5.84258">
        <ele>1019</ele>
        <time>2019-08-09T09:41:58Z</time>
      </trkpt>
      <trkpt lat="44.1237" lon="5.84259">
        <ele>1019</ele>
        <time>2019-08-09T09:41:59Z</time>
      </trkpt>
      <trkpt lat="44.12363" lon="5.8426">
        <ele>1019</ele>
        <time>2019-08-09T09:42:00Z</time>
      </trkpt>
      <trkpt lat="44.12357" lon="5.84265">
        <ele>1019</ele>
        <time>2019-08-09T09:42:01Z</time>
      </trkpt>
      <trkpt lat="44.12352" lon="5.84273">
        <ele>1019</ele>
        <time>2019-08-09T09:42:02Z</time>
      </trkpt>
      <trkpt lat="44.12349" lon="5.84284">
        <ele>1019</ele>
        <time>2019-08-09T09:42:03Z</time>
      </trkpt>
      <trkpt lat="44.12349" lon="5.84298">
        <ele>1018</ele>
        <time>2019-08-09T09:42:04Z</time>
      </trkpt>
      <trkpt lat="44.12348" lon="5.8431">
        <ele>1017</ele>
        <time>2019-08-09T09:42:05Z</time>
      </trkpt>
      <trkpt lat="44.12346" lon="5.84323">
        <ele>1017</ele>
        <time>2019-08-09T09:42:06Z</time>
      </trkpt>
      <trkpt lat="44.12345" lon="5.84335">
        <ele>1017</ele>
        <time>2019-08-09T09:42:07Z</time>
      </trkpt>
      <trkpt lat="44.12342" lon="5.84346">
        <ele>1016</ele>
        <time>2019-08-09T09:42:08Z</time>
      </trkpt>
      <trkpt lat="44.1234" lon="5.84358">
        <ele>1015</ele>
        <time>2019-08-09T09:42:09Z</time>
      </trkpt>
      <trkpt lat="44.12336" lon="5.8437">
        <ele>1014</ele>
        <time>2019-08-09T09:42:10Z</time>
      </trkpt>
      <trkpt lat="44.12333" lon="5.84382">
        <ele>1013</ele>
        <time>2019-08-09T09:42:11Z</time>
      </trkpt>
      <trkpt lat="44.1233" lon="5.84394">
        <ele>1012</ele>
        <time>2019-08-09T09:42:12Z</time>
      </trkpt>
      <trkpt lat="44.12327" lon="5.84406">
        <ele>1011</ele>
        <time>2019-08-09T09:42:13Z</time>
      </trkpt>
      <trkpt lat="44.12324" lon="5.84418">
        <ele>1010</ele>
        <time>2019-08-09T09:42:14Z</time>
      </trkpt>
      <trkpt lat="44.12321" lon="5.8443">
        <ele>1010</ele>
        <time>2019-08-09T09:42:15Z</time>
      </trkpt>
      <trkpt lat="44.12318" lon="5.84441">
        <ele>1009</ele>
        <time>2019-08-09T09:42:16Z</time>
      </trkpt>
      <trkpt lat="44.12315" lon="5.84451">
        <ele>1008</ele>
        <time>2019-08-09T09:42:17Z</time>
      </trkpt>
      <trkpt lat="44.12313" lon="5.84463">
        <ele>1007</ele>
        <time>2019-08-09T09:42:18Z</time>
      </trkpt>
      <trkpt lat="44.12311" lon="5.84473">
        <ele>1007</ele>
        <time>2019-08-09T09:42:19Z</time>
      </trkpt>
      <trkpt lat="44.1231" lon="5.84484">
        <ele>1006</ele>
        <time>2019-08-09T09:42:20Z</time>
      </trkpt>
      <trkpt lat="44.12309" lon="5.84495">
        <ele>1005</ele>
        <time>2019-08-09T09:42:21Z</time>
      </trkpt>
      <trkpt lat="44.1231" lon="5.84507">
        <ele>1004</ele>
        <time>2019-08-09T09:42:22Z</time>
      </trkpt>
      <trkpt lat="44.12311" lon="5.84517">
        <ele>1003</ele>
        <time>2019-08-09T09:42:23Z</time>
      </trkpt>
      <trkpt lat="44.12311" lon="5.84528">
        <ele>1003</ele>
        <time>2019-08-09T09:42:24Z</time>
      </trkpt>
      <trkpt lat="44.1231" lon="5.84538">
        <ele>1002</ele>
        <time>2019-08-09T09:42:25Z</time>
      </trkpt>
      <trkpt lat="44.1231" lon="5.84548">
        <ele>1002</ele>
        <time>2019-08-09T09:42:26Z</time>
      </trkpt>
      <trkpt lat="44.1231" lon="5.84556">
        <ele>1001</ele>
        <time>2019-08-09T09:42:27Z</time>
      </trkpt>
      <trkpt lat="44.12312" lon="5.84566">
        <ele>1001</ele>
        <time>2019-08-09T09:42:28Z</time>
      </trkpt>
      <trkpt lat="44.12316" lon="5.84577">
        <ele>1000</ele>
        <time>2019-08-09T09:42:29Z</time>
      </trkpt>
      <trkpt lat="44.12319" lon="5.84588">
        <ele>1000</ele>
        <time>2019-08-09T09:42:30Z</time>
      </trkpt>
      <trkpt lat="44.12323" lon="5.84598">
        <ele>999</ele>
        <time>2019-08-09T09:42:31Z</time>
      </trkpt>
      <trkpt lat="44.12327" lon="5.84609">
        <ele>998</ele>
        <time>2019-08-09T09:42:32Z</time>
      </trkpt>
      <trkpt lat="44.12332" lon="5.84621">
        <ele>997</ele>
        <time>2019-08-09T09:42:33Z</time>
      </trkpt>
      <trkpt lat="44.12334" lon="5.84634">
        <ele>996</ele>
        <time>2019-08-09T09:42:34Z</time>
      </trkpt>
      <trkpt lat="44.12337" lon="5.84649">
        <ele>996</ele>
        <time>2019-08-09T09:42:35Z</time>
      </trkpt>
      <trkpt lat="44.12339" lon="5.8466">
        <ele>996</ele>
        <time>2019-08-09T09:42:36Z</time>
      </trkpt>
      <trkpt lat="44.12341" lon="5.84671">
        <ele>996</ele>
        <time>2019-08-09T09:42:37Z</time>
      </trkpt>
      <trkpt lat="44.12344" lon="5.84682">
        <ele>995</ele>
        <time>2019-08-09T09:42:38Z</time>
      </trkpt>
      <trkpt lat="44.12347" lon="5.84693">
        <ele>995</ele>
        <time>2019-08-09T09:42:39Z</time>
      </trkpt>
      <trkpt lat="44.12353" lon="5.84703">
        <ele>994</ele>
        <time>2019-08-09T09:42:40Z</time>
      </trkpt>
      <trkpt lat="44.12358" lon="5.84714">
        <ele>993</ele>
        <time>2019-08-09T09:42:41Z</time>
      </trkpt>
      <trkpt lat="44.12362" lon="5.84723">
        <ele>992</ele>
        <time>2019-08-09T09:42:42Z</time>
      </trkpt>
      <trkpt lat="44.12367" lon="5.84732">
        <ele>991</ele>
        <time>2019-08-09T09:42:43Z</time>
      </trkpt>
      <trkpt lat="44.12373" lon="5.84741">
        <ele>990</ele>
        <time>2019-08-09T09:42:44Z</time>
      </trkpt>
      <trkpt lat="44.12377" lon="5.84751">
        <ele>989</ele>
        <time>2019-08-09T09:42:45Z</time>
      </trkpt>
      <trkpt lat="44.12379" lon="5.84762">
        <ele>988</ele>
        <time>2019-08-09T09:42:46Z</time>
      </trkpt>
      <trkpt lat="44.12381" lon="5.84771">
        <ele>987</ele>
        <time>2019-08-09T09:42:47Z</time>
      </trkpt>
      <trkpt lat="44.12383" lon="5.84782">
        <ele>986</ele>
        <time>2019-08-09T09:42:48Z</time>
      </trkpt>
      <trkpt lat="44.12386" lon="5.84791">
        <ele>986</ele>
        <time>2019-08-09T09:42:49Z</time>
      </trkpt>
      <trkpt lat="44.1239" lon="5.848">
        <ele>985</ele>
        <time>2019-08-09T09:42:50Z</time>
      </trkpt>
      <trkpt lat="44.12394" lon="5.84809">
        <ele>985</ele>
        <time>2019-08-09T09:42:51Z</time>
      </trkpt>
      <trkpt lat="44.12399" lon="5.84818">
        <ele>984</ele>
        <time>2019-08-09T09:42:52Z</time>
      </trkpt>
      <trkpt lat="44.12403" lon="5.84827">
        <ele>983</ele>
        <time>2019-08-09T09:42:53Z</time>
      </trkpt>
      <trkpt lat="44.12408" lon="5.84836">
        <ele>982</ele>
        <time>2019-08-09T09:42:54Z</time>
      </trkpt>
      <trkpt lat="44.12412" lon="5.84846">
        <ele>982</ele>
        <time>2019-08-09T09:42:55Z</time>
      </trkpt>
      <trkpt lat="44.12417" lon="5.84857">
        <ele>982</ele>
        <time>2019-08-09T09:42:56Z</time>
      </trkpt>
      <trkpt lat="44.12421" lon="5.84868">
        <ele>982</ele>
        <time>2019-08-09T09:42:57Z</time>
      </trkpt>
      <trkpt lat="44.12424" lon="5.8488">
        <ele>982</ele>
        <time>2019-08-09T09:42:58Z</time>
      </trkpt>
      <trkpt lat="44.12426" lon="5.84893">
        <ele>982</ele>
        <time>2019-08-09T09:42:59Z</time>
      </trkpt>
      <trkpt lat="44.12427" lon="5.84905">
        <ele>981</ele>
        <time>2019-08-09T09:43:00Z</time>
      </trkpt>
      <trkpt lat="44.12427" lon="5.84916">
        <ele>981</ele>
        <time>2019-08-09T09:43:01Z</time>
      </trkpt>
      <trkpt lat="44.12424" lon="5.84926">
        <ele>980</ele>
        <time>2019-08-09T09:43:02Z</time>
      </trkpt>
      <trkpt lat="44.1242" lon="5.84936">
        <ele>979</ele>
        <time>2019-08-09T09:43:03Z</time>
      </trkpt>
      <trkpt lat="44.12415" lon="5.84946">
        <ele>979</ele>
        <time>2019-08-09T09:43:04Z</time>
      </trkpt>
      <trkpt lat="44.1241" lon="5.84956">
        <ele>978</ele>
        <time>2019-08-09T09:43:05Z</time>
      </trkpt>
      <trkpt lat="44.12402" lon="5.84966">
        <ele>978</ele>
        <time>2019-08-09T09:43:06Z</time>
      </trkpt>
      <trkpt lat="44.12396" lon="5.84975">
        <ele>977</ele>
        <time>2019-08-09T09:43:07Z</time>
      </trkpt>
      <trkpt lat="44.12388" lon="5.84984">
        <ele>976</ele>
        <time>2019-08-09T09:43:08Z</time>
      </trkpt>
      <trkpt lat="44.12381" lon="5.84993">
        <ele>975</ele>
        <time>2019-08-09T09:43:09Z</time>
      </trkpt>
      <trkpt lat="44.12375" lon="5.85001">
        <ele>974</ele>
        <time>2019-08-09T09:43:10Z</time>
      </trkpt>
      <trkpt lat="44.1237" lon="5.85009">
        <ele>973</ele>
        <time>2019-08-09T09:43:11Z</time>
      </trkpt>
      <trkpt lat="44.12366" lon="5.85018">
        <ele>972</ele>
        <time>2019-08-09T09:43:12Z</time>
      </trkpt>
      <trkpt lat="44.12367" lon="5.85027">
        <ele>971</ele>
        <time>2019-08-09T09:43:13Z</time>
      </trkpt>
      <trkpt lat="44.12369" lon="5.85036">
        <ele>971</ele>
        <time>2019-08-09T09:43:14Z</time>
      </trkpt>
      <trkpt lat="44.12373" lon="5.85045">
        <ele>971</ele>
        <time>2019-08-09T09:43:15Z</time>
      </trkpt>
      <trkpt lat="44.12376" lon="5.85053">
        <ele>971</ele>
        <time>2019-08-09T09:43:16Z</time>
      </trkpt>
      <trkpt lat="44.12378" lon="5.85062">
        <ele>971</ele>
        <time>2019-08-09T09:43:17Z</time>
      </trkpt>
      <trkpt lat="44.12381" lon="5.85071">
        <ele>971</ele>
        <time>2019-08-09T09:43:18Z</time>
      </trkpt>
      <trkpt lat="44.12384" lon="5.8508">
        <ele>971</ele>
        <time>2019-08-09T09:43:19Z</time>
      </trkpt>
      <trkpt lat="44.12388" lon="5.85088">
        <ele>971</ele>
        <time>2019-08-09T09:43:20Z</time>
      </trkpt>
      <trkpt lat="44.12394" lon="5.85097">
        <ele>971</ele>
        <time>2019-08-09T09:43:21Z</time>
      </trkpt>
      <trkpt lat="44.124" lon="5.85104">
        <ele>971</ele>
        <time>2019-08-09T09:43:22Z</time>
      </trkpt>
      <trkpt lat="44.12407" lon="5.8511">
        <ele>971</ele>
        <time>2019-08-09T09:43:23Z</time>
      </trkpt>
      <trkpt lat="44.12414" lon="5.85114">
        <ele>971</ele>
        <time>2019-08-09T09:43:24Z</time>
      </trkpt>
      <trkpt lat="44.12421" lon="5.85118">
        <ele>971</ele>
        <time>2019-08-09T09:43:25Z</time>
      </trkpt>
      <trkpt lat="44.12428" lon="5.8512">
        <ele>971</ele>
        <time>2019-08-09T09:43:26Z</time>
      </trkpt>
      <trkpt lat="44.12436" lon="5.85122">
        <ele>971</ele>
        <time>2019-08-09T09:43:27Z</time>
      </trkpt>
      <trkpt lat="44.12443" lon="5.85125">
        <ele>971</ele>
        <time>2019-08-09T09:43:28Z</time>
      </trkpt>
      <trkpt lat="44.12451" lon="5.85126">
        <ele>971</ele>
        <time>2019-08-09T09:43:29Z</time>
      </trkpt>
      <trkpt lat="44.12458" lon="5.85128">
        <ele>971</ele>
        <time>2019-08-09T09:43:30Z</time>
      </trkpt>
      <trkpt lat="44.12466" lon="5.85131">
        <ele>971</ele>
        <time>2019-08-09T09:43:31Z</time>
      </trkpt>
      <trkpt lat="44.12473" lon="5.85134">
        <ele>971</ele>
        <time>2019-08-09T09:43:32Z</time>
      </trkpt>
      <trkpt lat="44.12481" lon="5.85138">
        <ele>971</ele>
        <time>2019-08-09T09:43:33Z</time>
      </trkpt>
      <trkpt lat="44.12488" lon="5.85143">
        <ele>971</ele>
        <time>2019-08-09T09:43:34Z</time>
      </trkpt>
      <trkpt lat="44.12494" lon="5.8515">
        <ele>971</ele>
        <time>2019-08-09T09:43:35Z</time>
      </trkpt>
      <trkpt lat="44.125" lon="5.85159">
        <ele>971</ele>
        <time>2019-08-09T09:43:36Z</time>
      </trkpt>
      <trkpt lat="44.12505" lon="5.85168">
        <ele>971</ele>
        <time>2019-08-09T09:43:37Z</time>
      </trkpt>
      <trkpt lat="44.12508" lon="5.85178">
        <ele>971</ele>
        <time>2019-08-09T09:43:38Z</time>
      </trkpt>
      <trkpt lat="44.12511" lon="5.85188">
        <ele>971</ele>
        <time>2019-08-09T09:43:39Z</time>
      </trkpt>
      <trkpt lat="44.12514" lon="5.852">
        <ele>971</ele>
        <time>2019-08-09T09:43:40Z</time>
      </trkpt>
      <trkpt lat="44.12517" lon="5.85212">
        <ele>971</ele>
        <time>2019-08-09T09:43:41Z</time>
      </trkpt>
      <trkpt lat="44.12521" lon="5.85224">
        <ele>971</ele>
        <time>2019-08-09T09:43:42Z</time>
      </trkpt>
      <trkpt lat="44.12527" lon="5.85234">
        <ele>971</ele>
        <time>2019-08-09T09:43:43Z</time>
      </trkpt>
      <trkpt lat="44.12533" lon="5.85243">
        <ele>971</ele>
        <time>2019-08-09T09:43:44Z</time>
      </trkpt>
      <trkpt lat="44.12539" lon="5.8525">
        <ele>971</ele>
        <time>2019-08-09T09:43:45Z</time>
      </trkpt>
      <trkpt lat="44.12545" lon="5.85255">
        <ele>971</ele>
        <time>2019-08-09T09:43:46Z</time>
      </trkpt>
      <trkpt lat="44.12552" lon="5.8526">
        <ele>971</ele>
        <time>2019-08-09T09:43:47Z</time>
      </trkpt>
      <trkpt lat="44.1256" lon="5.85265">
        <ele>971</ele>
        <time>2019-08-09T09:43:48Z</time>
      </trkpt>
      <trkpt lat="44.12567" lon="5.8527">
        <ele>971</ele>
        <time>2019-08-09T09:43:49Z</time>
      </trkpt>
      <trkpt lat="44.12574" lon="5.85277">
        <ele>971</ele>
        <time>2019-08-09T09:43:50Z</time>
      </trkpt>
      <trkpt lat="44.12579" lon="5.85286">
        <ele>971</ele>
        <time>2019-08-09T09:43:51Z</time>
      </trkpt>
      <trkpt lat="44.12583" lon="5.85295">
        <ele>971</ele>
        <time>2019-08-09T09:43:52Z</time>
      </trkpt>
      <trkpt lat="44.12587" lon="5.85305">
        <ele>971</ele>
        <time>2019-08-09T09:43:53Z</time>
      </trkpt>
      <trkpt lat="44.12589" lon="5.85315">
        <ele>970</ele>
        <time>2019-08-09T09:43:54Z</time>
      </trkpt>
      <trkpt lat="44.12592" lon="5.85326">
        <ele>969</ele>
        <time>2019-08-09T09:43:55Z</time>
      </trkpt>
      <trkpt lat="44.12594" lon="5.85337">
        <ele>968</ele>
        <time>2019-08-09T09:43:56Z</time>
      </trkpt>
      <trkpt lat="44.12593" lon="5.85348">
        <ele>967</ele>
        <time>2019-08-09T09:43:57Z</time>
      </trkpt>
      <trkpt lat="44.12591" lon="5.85358">
        <ele>966</ele>
        <time>2019-08-09T09:43:58Z</time>
      </trkpt>
      <trkpt lat="44.12587" lon="5.85368">
        <ele>965</ele>
        <time>2019-08-09T09:43:59Z</time>
      </trkpt>
      <trkpt lat="44.1258" lon="5.85375">
        <ele>964</ele>
        <time>2019-08-09T09:44:00Z</time>
      </trkpt>
      <trkpt lat="44.12573" lon="5.85379">
        <ele>964</ele>
        <time>2019-08-09T09:44:01Z</time>
      </trkpt>
      <trkpt lat="44.12564" lon="5.85381">
        <ele>963</ele>
        <time>2019-08-09T09:44:02Z</time>
      </trkpt>
      <trkpt lat="44.12556" lon="5.8538">
        <ele>962</ele>
        <time>2019-08-09T09:44:03Z</time>
      </trkpt>
      <trkpt lat="44.12547" lon="5.85379">
        <ele>961</ele>
        <time>2019-08-09T09:44:04Z</time>
      </trkpt>
      <trkpt lat="44.12538" lon="5.85378">
        <ele>960</ele>
        <time>2019-08-09T09:44:05Z</time>
      </trkpt>
      <trkpt lat="44.12528" lon="5.85377">
        <ele>959</ele>
        <time>2019-08-09T09:44:06Z</time>
      </trkpt>
      <trkpt lat="44.12518" lon="5.85377">
        <ele>958</ele>
        <time>2019-08-09T09:44:07Z</time>
      </trkpt>
      <trkpt lat="44.12509" lon="5.85377">
        <ele>957</ele>
        <time>2019-08-09T09:44:08Z</time>
      </trkpt>
      <trkpt lat="44.125" lon="5.85378">
        <ele>957</ele>
        <time>2019-08-09T09:44:09Z</time>
      </trkpt>
      <trkpt lat="44.1249" lon="5.85379">
        <ele>957</ele>
        <time>2019-08-09T09:44:10Z</time>
      </trkpt>
      <trkpt lat="44.12481" lon="5.85381">
        <ele>957</ele>
        <time>2019-08-09T09:44:11Z</time>
      </trkpt>
      <trkpt lat="44.12471" lon="5.85384">
        <ele>956</ele>
        <time>2019-08-09T09:44:12Z</time>
      </trkpt>
      <trkpt lat="44.12463" lon="5.85387">
        <ele>956</ele>
        <time>2019-08-09T09:44:13Z</time>
      </trkpt>
      <trkpt lat="44.12456" lon="5.85391">
        <ele>956</ele>
        <time>2019-08-09T09:44:14Z</time>
      </trkpt>
      <trkpt lat="44.1245" lon="5.85398">
        <ele>955</ele>
        <time>2019-08-09T09:44:15Z</time>
      </trkpt>
      <trkpt lat="44.12447" lon="5.85408">
        <ele>955</ele>
        <time>2019-08-09T09:44:16Z</time>
      </trkpt>
      <trkpt lat="44.12445" lon="5.85418">
        <ele>955</ele>
        <time>2019-08-09T09:44:17Z</time>
      </trkpt>
      <trkpt lat="44.12447" lon="5.85429">
        <ele>955</ele>
        <time>2019-08-09T09:44:18Z</time>
      </trkpt>
      <trkpt lat="44.12452" lon="5.85441">
        <ele>955</ele>
        <time>2019-08-09T09:44:19Z</time>
      </trkpt>
      <trkpt lat="44.12457" lon="5.8545">
        <ele>955</ele>
        <time>2019-08-09T09:44:20Z</time>
      </trkpt>
      <trkpt lat="44.12463" lon="5.8546">
        <ele>955</ele>
        <time>2019-08-09T09:44:21Z</time>
      </trkpt>
      <trkpt lat="44.12468" lon="5.85469">
        <ele>955</ele>
        <time>2019-08-09T09:44:22Z</time>
      </trkpt>
      <trkpt lat="44.12474" lon="5.85478">
        <ele>954</ele>
        <time>2019-08-09T09:44:23Z</time>
      </trkpt>
      <trkpt lat="44.12479" lon="5.85487">
        <ele>954</ele>
        <time>2019-08-09T09:44:24Z</time>
      </trkpt>
      <trkpt lat="44.12485" lon="5.85496">
        <ele>953</ele>
        <time>2019-08-09T09:44:25Z</time>
      </trkpt>
      <trkpt lat="44.12491" lon="5.85505">
        <ele>953</ele>
        <time>2019-08-09T09:44:26Z</time>
      </trkpt>
      <trkpt lat="44.12497" lon="5.85514">
        <ele>953</ele>
        <time>2019-08-09T09:44:27Z</time>
      </trkpt>
      <trkpt lat="44.12502" lon="5.85524">
        <ele>952</ele>
        <time>2019-08-09T09:44:28Z</time>
      </trkpt>
      <trkpt lat="44.12508" lon="5.85533">
        <ele>952</ele>
        <time>2019-08-09T09:44:29Z</time>
      </trkpt>
      <trkpt lat="44.12512" lon="5.85543">
        <ele>952</ele>
        <time>2019-08-09T09:44:30Z</time>
      </trkpt>
      <trkpt lat="44.12517" lon="5.85554">
        <ele>952</ele>
        <time>2019-08-09T09:44:31Z</time>
      </trkpt>
      <trkpt lat="44.12522" lon="5.85567">
        <ele>952</ele>
        <time>2019-08-09T09:44:32Z</time>
      </trkpt>
      <trkpt lat="44.12525" lon="5.8558">
        <ele>952</ele>
        <time>2019-08-09T09:44:33Z</time>
      </trkpt>
      <trkpt lat="44.12528" lon="5.85592">
        <ele>951</ele>
        <time>2019-08-09T09:44:34Z</time>
      </trkpt>
      <trkpt lat="44.12529" lon="5.85605">
        <ele>951</ele>
        <time>2019-08-09T09:44:35Z</time>
      </trkpt>
      <trkpt lat="44.1253" lon="5.85618">
        <ele>951</ele>
        <time>2019-08-09T09:44:36Z</time>
      </trkpt>
      <trkpt lat="44.1253" lon="5.85629">
        <ele>951</ele>
        <time>2019-08-09T09:44:37Z</time>
      </trkpt>
      <trkpt lat="44.12531" lon="5.85638">
        <ele>951</ele>
        <time>2019-08-09T09:44:38Z</time>
      </trkpt>
      <trkpt lat="44.12534" lon="5.85647">
        <ele>951</ele>
        <time>2019-08-09T09:44:39Z</time>
      </trkpt>
      <trkpt lat="44.12539" lon="5.85653">
        <ele>951</ele>
        <time>2019-08-09T09:44:40Z</time>
      </trkpt>
      <trkpt lat="44.12543" lon="5.85658">
        <ele>951</ele>
        <time>2019-08-09T09:44:41Z</time>
      </trkpt>
      <trkpt lat="44.12547" lon="5.85665">
        <ele>951</ele>
        <time>2019-08-09T09:44:42Z</time>
      </trkpt>
      <trkpt lat="44.12551" lon="5.85674">
        <ele>951</ele>
        <time>2019-08-09T09:44:43Z</time>
      </trkpt>
      <trkpt lat="44.12554" lon="5.85684">
        <ele>951</ele>
        <time>2019-08-09T09:44:44Z</time>
      </trkpt>
      <trkpt lat="44.12556" lon="5.85694">
        <ele>950</ele>
        <time>2019-08-09T09:44:45Z</time>
      </trkpt>
      <trkpt lat="44.12558" lon="5.85704">
        <ele>950</ele>
        <time>2019-08-09T09:44:46Z</time>
      </trkpt>
      <trkpt lat="44.12559" lon="5.85714">
        <ele>949</ele>
        <time>2019-08-09T09:44:47Z</time>
      </trkpt>
      <trkpt lat="44.12559" lon="5.85723">
        <ele>949</ele>
        <time>2019-08-09T09:44:48Z</time>
      </trkpt>
      <trkpt lat="44.1256" lon="5.85734">
        <ele>949</ele>
        <time>2019-08-09T09:44:49Z</time>
      </trkpt>
      <trkpt lat="44.12561" lon="5.85744">
        <ele>949</ele>
        <time>2019-08-09T09:44:50Z</time>
      </trkpt>
      <trkpt lat="44.12563" lon="5.85756">
        <ele>948</ele>
        <time>2019-08-09T09:44:51Z</time>
      </trkpt>
      <trkpt lat="44.12564" lon="5.85768">
        <ele>948</ele>
        <time>2019-08-09T09:44:52Z</time>
      </trkpt>
      <trkpt lat="44.12565" lon="5.8578">
        <ele>948</ele>
        <time>2019-08-09T09:44:53Z</time>
      </trkpt>
      <trkpt lat="44.12567" lon="5.85793">
        <ele>948</ele>
        <time>2019-08-09T09:44:54Z</time>
      </trkpt>
      <trkpt lat="44.12568" lon="5.85806">
        <ele>947</ele>
        <time>2019-08-09T09:44:55Z</time>
      </trkpt>
      <trkpt lat="44.12567" lon="5.85818">
        <ele>947</ele>
        <time>2019-08-09T09:44:56Z</time>
      </trkpt>
      <trkpt lat="44.12565" lon="5.8583">
        <ele>947</ele>
        <time>2019-08-09T09:44:57Z</time>
      </trkpt>
      <trkpt lat="44.12562" lon="5.85841">
        <ele>947</ele>
        <time>2019-08-09T09:44:58Z</time>
      </trkpt>
      <trkpt lat="44.12558" lon="5.85851">
        <ele>946</ele>
        <time>2019-08-09T09:44:59Z</time>
      </trkpt>
      <trkpt lat="44.12552" lon="5.8586">
        <ele>945</ele>
        <time>2019-08-09T09:45:00Z</time>
      </trkpt>
      <trkpt lat="44.12546" lon="5.8587">
        <ele>944</ele>
        <time>2019-08-09T09:45:01Z</time>
      </trkpt>
      <trkpt lat="44.12543" lon="5.85881">
        <ele>943</ele>
        <time>2019-08-09T09:45:02Z</time>
      </trkpt>
      <trkpt lat="44.12541" lon="5.85892">
        <ele>942</ele>
        <time>2019-08-09T09:45:03Z</time>
      </trkpt>
      <trkpt lat="44.1254" lon="5.85904">
        <ele>941</ele>
        <time>2019-08-09T09:45:04Z</time>
      </trkpt>
      <trkpt lat="44.12538" lon="5.85917">
        <ele>940</ele>
        <time>2019-08-09T09:45:05Z</time>
      </trkpt>
      <trkpt lat="44.12537" lon="5.85928">
        <ele>940</ele>
        <time>2019-08-09T09:45:06Z</time>
      </trkpt>
      <trkpt lat="44.12537" lon="5.85939">
        <ele>939</ele>
        <time>2019-08-09T09:45:07Z</time>
      </trkpt>
      <trkpt lat="44.1254" lon="5.8595">
        <ele>939</ele>
        <time>2019-08-09T09:45:08Z</time>
      </trkpt>
      <trkpt lat="44.12544" lon="5.85961">
        <ele>939</ele>
        <time>2019-08-09T09:45:09Z</time>
      </trkpt>
      <trkpt lat="44.12547" lon="5.8597">
        <ele>939</ele>
        <time>2019-08-09T09:45:10Z</time>
      </trkpt>
      <trkpt lat="44.12551" lon="5.85982">
        <ele>938</ele>
        <time>2019-08-09T09:45:11Z</time>
      </trkpt>
      <trkpt lat="44.12555" lon="5.85995">
        <ele>938</ele>
        <time>2019-08-09T09:45:12Z</time>
      </trkpt>
      <trkpt lat="44.12558" lon="5.86008">
        <ele>938</ele>
        <time>2019-08-09T09:45:13Z</time>
      </trkpt>
      <trkpt lat="44.1256" lon="5.86022">
        <ele>938</ele>
        <time>2019-08-09T09:45:14Z</time>
      </trkpt>
      <trkpt lat="44.12559" lon="5.86035">
        <ele>938</ele>
        <time>2019-08-09T09:45:15Z</time>
      </trkpt>
      <trkpt lat="44.12556" lon="5.86048">
        <ele>937</ele>
        <time>2019-08-09T09:45:16Z</time>
      </trkpt>
      <trkpt lat="44.12552" lon="5.86061">
        <ele>937</ele>
        <time>2019-08-09T09:45:17Z</time>
      </trkpt>
      <trkpt lat="44.12548" lon="5.86072">
        <ele>936</ele>
        <time>2019-08-09T09:45:18Z</time>
      </trkpt>
      <trkpt lat="44.12544" lon="5.86084">
        <ele>935</ele>
        <time>2019-08-09T09:45:19Z</time>
      </trkpt>
      <trkpt lat="44.1254" lon="5.86095">
        <ele>934</ele>
        <time>2019-08-09T09:45:20Z</time>
      </trkpt>
      <trkpt lat="44.12536" lon="5.86107">
        <ele>933</ele>
        <time>2019-08-09T09:45:21Z</time>
      </trkpt>
      <trkpt lat="44.12533" lon="5.8612">
        <ele>932</ele>
        <time>2019-08-09T09:45:22Z</time>
      </trkpt>
      <trkpt lat="44.12531" lon="5.86133">
        <ele>931</ele>
        <time>2019-08-09T09:45:23Z</time>
      </trkpt>
      <trkpt lat="44.12529" lon="5.86146">
        <ele>930</ele>
        <time>2019-08-09T09:45:24Z</time>
      </trkpt>
      <trkpt lat="44.12527" lon="5.86158">
        <ele>929</ele>
        <time>2019-08-09T09:45:25Z</time>
      </trkpt>
      <trkpt lat="44.12524" lon="5.86169">
        <ele>928</ele>
        <time>2019-08-09T09:45:26Z</time>
      </trkpt>
      <trkpt lat="44.1252" lon="5.8618">
        <ele>927</ele>
        <time>2019-08-09T09:45:27Z</time>
      </trkpt>
      <trkpt lat="44.12515" lon="5.8619">
        <ele>926</ele>
        <time>2019-08-09T09:45:28Z</time>
      </trkpt>
      <trkpt lat="44.1251" lon="5.86199">
        <ele>925</ele>
        <time>2019-08-09T09:45:29Z</time>
      </trkpt>
      <trkpt lat="44.12504" lon="5.86205">
        <ele>925</ele>
        <time>2019-08-09T09:45:30Z</time>
      </trkpt>
      <trkpt lat="44.12496" lon="5.86205">
        <ele>925</ele>
        <time>2019-08-09T09:45:31Z</time>
      </trkpt>
      <trkpt lat="44.12488" lon="5.86201">
        <ele>925</ele>
        <time>2019-08-09T09:45:32Z</time>
      </trkpt>
      <trkpt lat="44.12479" lon="5.86196">
        <ele>925</ele>
        <time>2019-08-09T09:45:33Z</time>
      </trkpt>
      <trkpt lat="44.12473" lon="5.86189">
        <ele>925</ele>
        <time>2019-08-09T09:45:34Z</time>
      </trkpt>
      <trkpt lat="44.12467" lon="5.8618">
        <ele>925</ele>
        <time>2019-08-09T09:45:35Z</time>
      </trkpt>
      <trkpt lat="44.1246" lon="5.86171">
        <ele>925</ele>
        <time>2019-08-09T09:45:36Z</time>
      </trkpt>
      <trkpt lat="44.12455" lon="5.86163">
        <ele>925</ele>
        <time>2019-08-09T09:45:37Z</time>
      </trkpt>
      <trkpt lat="44.12448" lon="5.86155">
        <ele>925</ele>
        <time>2019-08-09T09:45:38Z</time>
      </trkpt>
      <trkpt lat="44.12442" lon="5.86147">
        <ele>925</ele>
        <time>2019-08-09T09:45:39Z</time>
      </trkpt>
      <trkpt lat="44.12435" lon="5.86141">
        <ele>925</ele>
        <time>2019-08-09T09:45:40Z</time>
      </trkpt>
      <trkpt lat="44.12428" lon="5.86135">
        <ele>925</ele>
        <time>2019-08-09T09:45:41Z</time>
      </trkpt>
      <trkpt lat="44.12421" lon="5.8613">
        <ele>925</ele>
        <time>2019-08-09T09:45:42Z</time>
      </trkpt>
      <trkpt lat="44.12412" lon="5.86124">
        <ele>925</ele>
        <time>2019-08-09T09:45:43Z</time>
      </trkpt>
      <trkpt lat="44.12403" lon="5.86119">
        <ele>925</ele>
        <time>2019-08-09T09:45:44Z</time>
      </trkpt>
      <trkpt lat="44.12395" lon="5.86117">
        <ele>924</ele>
        <time>2019-08-09T09:45:45Z</time>
      </trkpt>
      <trkpt lat="44.12387" lon="5.86117">
        <ele>923</ele>
        <time>2019-08-09T09:45:46Z</time>
      </trkpt>
      <trkpt lat="44.12379" lon="5.86118">
        <ele>922</ele>
        <time>2019-08-09T09:45:47Z</time>
      </trkpt>
      <trkpt lat="44.12371" lon="5.86121">
        <ele>921</ele>
        <time>2019-08-09T09:45:48Z</time>
      </trkpt>
      <trkpt lat="44.12363" lon="5.86126">
        <ele>920</ele>
        <time>2019-08-09T09:45:49Z</time>
      </trkpt>
      <trkpt lat="44.12358" lon="5.86134">
        <ele>919</ele>
        <time>2019-08-09T09:45:50Z</time>
      </trkpt>
      <trkpt lat="44.12355" lon="5.86143">
        <ele>918</ele>
        <time>2019-08-09T09:45:51Z</time>
      </trkpt>
      <trkpt lat="44.12355" lon="5.86155">
        <ele>917</ele>
        <time>2019-08-09T09:45:52Z</time>
      </trkpt>
      <trkpt lat="44.1236" lon="5.86168">
        <ele>917</ele>
        <time>2019-08-09T09:45:53Z</time>
      </trkpt>
      <trkpt lat="44.12364" lon="5.86179">
        <ele>916</ele>
        <time>2019-08-09T09:45:54Z</time>
      </trkpt>
      <trkpt lat="44.12368" lon="5.8619">
        <ele>916</ele>
        <time>2019-08-09T09:45:55Z</time>
      </trkpt>
      <trkpt lat="44.12372" lon="5.862">
        <ele>915</ele>
        <time>2019-08-09T09:45:56Z</time>
      </trkpt>
      <trkpt lat="44.12375" lon="5.8621">
        <ele>915</ele>
        <time>2019-08-09T09:45:57Z</time>
      </trkpt>
      <trkpt lat="44.12377" lon="5.8622">
        <ele>915</ele>
        <time>2019-08-09T09:45:58Z</time>
      </trkpt>
      <trkpt lat="44.12377" lon="5.86229">
        <ele>914</ele>
        <time>2019-08-09T09:45:59Z</time>
      </trkpt>
      <trkpt lat="44.12375" lon="5.86237">
        <ele>914</ele>
        <time>2019-08-09T09:46:00Z</time>
      </trkpt>
      <trkpt lat="44.1237" lon="5.86244">
        <ele>914</ele>
        <time>2019-08-09T09:46:01Z</time>
      </trkpt>
      <trkpt lat="44.12362" lon="5.86247">
        <ele>914</ele>
        <time>2019-08-09T09:46:02Z</time>
      </trkpt>
      <trkpt lat="44.12354" lon="5.86247">
        <ele>914</ele>
        <time>2019-08-09T09:46:03Z</time>
      </trkpt>
      <trkpt lat="44.12347" lon="5.86247">
        <ele>914</ele>
        <time>2019-08-09T09:46:04Z</time>
      </trkpt>
      <trkpt lat="44.12339" lon="5.86246">
        <ele>914</ele>
        <time>2019-08-09T09:46:05Z</time>
      </trkpt>
      <trkpt lat="44.12332" lon="5.86244">
        <ele>913</ele>
        <time>2019-08-09T09:46:06Z</time>
      </trkpt>
      <trkpt lat="44.12325" lon="5.86242">
        <ele>913</ele>
        <time>2019-08-09T09:46:07Z</time>
      </trkpt>
      <trkpt lat="44.12318" lon="5.86242">
        <ele>913</ele>
        <time>2019-08-09T09:46:08Z</time>
      </trkpt>
      <trkpt lat="44.12312" lon="5.86243">
        <ele>913</ele>
        <time>2019-08-09T09:46:09Z</time>
      </trkpt>
      <trkpt lat="44.12306" lon="5.86246">
        <ele>913</ele>
        <time>2019-08-09T09:46:10Z</time>
      </trkpt>
      <trkpt lat="44.12301" lon="5.86251">
        <ele>913</ele>
        <time>2019-08-09T09:46:11Z</time>
      </trkpt>
      <trkpt lat="44.12297" lon="5.86257">
        <ele>913</ele>
        <time>2019-08-09T09:46:12Z</time>
      </trkpt>
      <trkpt lat="44.12295" lon="5.86262">
        <ele>913</ele>
        <time>2019-08-09T09:46:13Z</time>
      </trkpt>
      <trkpt lat="44.12298" lon="5.86269">
        <ele>913</ele>
        <time>2019-08-09T09:46:14Z</time>
      </trkpt>
      <trkpt lat="44.12304" lon="5.86276">
        <ele>913</ele>
        <time>2019-08-09T09:46:15Z</time>
      </trkpt>
      <trkpt lat="44.1231" lon="5.86282">
        <ele>913</ele>
        <time>2019-08-09T09:46:16Z</time>
      </trkpt>
      <trkpt lat="44.12316" lon="5.86288">
        <ele>913</ele>
        <time>2019-08-09T09:46:17Z</time>
      </trkpt>
      <trkpt lat="44.12322" lon="5.86295">
        <ele>913</ele>
        <time>2019-08-09T09:46:18Z</time>
      </trkpt>
      <trkpt lat="44.12328" lon="5.86301">
        <ele>913</ele>
        <time>2019-08-09T09:46:19Z</time>
      </trkpt>
      <trkpt lat="44.12333" lon="5.86307">
        <ele>913</ele>
        <time>2019-08-09T09:46:20Z</time>
      </trkpt>
      <trkpt lat="44.12338" lon="5.86314">
        <ele>913</ele>
        <time>2019-08-09T09:46:21Z</time>
      </trkpt>
      <trkpt lat="44.12342" lon="5.86321">
        <ele>913</ele>
        <time>2019-08-09T09:46:22Z</time>
      </trkpt>
      <trkpt lat="44.12347" lon="5.86329">
        <ele>913</ele>
        <time>2019-08-09T09:46:23Z</time>
      </trkpt>
      <trkpt lat="44.12352" lon="5.86337">
        <ele>913</ele>
        <time>2019-08-09T09:46:24Z</time>
      </trkpt>
      <trkpt lat="44.12356" lon="5.86346">
        <ele>913</ele>
        <time>2019-08-09T09:46:25Z</time>
      </trkpt>
      <trkpt lat="44.12359" lon="5.86354">
        <ele>913</ele>
        <time>2019-08-09T09:46:26Z</time>
      </trkpt>
      <trkpt lat="44.12363" lon="5.86363">
        <ele>913</ele>
        <time>2019-08-09T09:46:27Z</time>
      </trkpt>
      <trkpt lat="44.12366" lon="5.86372">
        <ele>913</ele>
        <time>2019-08-09T09:46:28Z</time>
      </trkpt>
      <trkpt lat="44.12371" lon="5.86382">
        <ele>913</ele>
        <time>2019-08-09T09:46:29Z</time>
      </trkpt>
      <trkpt lat="44.12374" lon="5.8639">
        <ele>913</ele>
        <time>2019-08-09T09:46:30Z</time>
      </trkpt>
      <trkpt lat="44.12378" lon="5.86399">
        <ele>913</ele>
        <time>2019-08-09T09:46:31Z</time>
      </trkpt>
      <trkpt lat="44.12381" lon="5.86407">
        <ele>913</ele>
        <time>2019-08-09T09:46:32Z</time>
      </trkpt>
      <trkpt lat="44.12385" lon="5.86415">
        <ele>913</ele>
        <time>2019-08-09T09:46:33Z</time>
      </trkpt>
      <trkpt lat="44.1239" lon="5.86424">
        <ele>913</ele>
        <time>2019-08-09T09:46:34Z</time>
      </trkpt>
      <trkpt lat="44.12394" lon="5.86433">
        <ele>913</ele>
        <time>2019-08-09T09:46:35Z</time>
      </trkpt>
      <trkpt lat="44.12396" lon="5.86442">
        <ele>913</ele>
        <time>2019-08-09T09:46:36Z</time>
      </trkpt>
      <trkpt lat="44.12397" lon="5.86451">
        <ele>913</ele>
        <time>2019-08-09T09:46:37Z</time>
      </trkpt>
      <trkpt lat="44.12396" lon="5.86461">
        <ele>913</ele>
        <time>2019-08-09T09:46:38Z</time>
      </trkpt>
      <trkpt lat="44.12393" lon="5.86471">
        <ele>913</ele>
        <time>2019-08-09T09:46:39Z</time>
      </trkpt>
      <trkpt lat="44.1239" lon="5.8648">
        <ele>913</ele>
        <time>2019-08-09T09:46:40Z</time>
      </trkpt>
      <trkpt lat="44.12386" lon="5.86489">
        <ele>913</ele>
        <time>2019-08-09T09:46:41Z</time>
      </trkpt>
      <trkpt lat="44.12384" lon="5.86497">
        <ele>913</ele>
        <time>2019-08-09T09:46:42Z</time>
      </trkpt>
      <trkpt lat="44.12382" lon="5.86506">
        <ele>913</ele>
        <time>2019-08-09T09:46:43Z</time>
      </trkpt>
      <trkpt lat="44.12384" lon="5.86514">
        <ele>913</ele>
        <time>2019-08-09T09:46:44Z</time>
      </trkpt>
      <trkpt lat="44.12387" lon="5.86522">
        <ele>913</ele>
        <time>2019-08-09T09:46:45Z</time>
      </trkpt>
      <trkpt lat="44.12392" lon="5.8653">
        <ele>913</ele>
        <time>2019-08-09T09:46:46Z</time>
      </trkpt>
      <trkpt lat="44.12399" lon="5.86538">
        <ele>913</ele>
        <time>2019-08-09T09:46:47Z</time>
      </trkpt>
      <trkpt lat="44.12405" lon="5.86545">
        <ele>913</ele>
        <time>2019-08-09T09:46:48Z</time>
      </trkpt>
      <trkpt lat="44.12411" lon="5.86551">
        <ele>913</ele>
        <time>2019-08-09T09:46:49Z</time>
      </trkpt>
      <trkpt lat="44.12417" lon="5.86557">
        <ele>913</ele>
        <time>2019-08-09T09:46:50Z</time>
      </trkpt>
      <trkpt lat="44.12423" lon="5.86563">
        <ele>913</ele>
        <time>2019-08-09T09:46:51Z</time>
      </trkpt>
      <trkpt lat="44.1243" lon="5.86569">
        <ele>913</ele>
        <time>2019-08-09T09:46:52Z</time>
      </trkpt>
      <trkpt lat="44.12437" lon="5.86576">
        <ele>913</ele>
        <time>2019-08-09T09:46:53Z</time>
      </trkpt>
      <trkpt lat="44.12442" lon="5.86581">
        <ele>913</ele>
        <time>2019-08-09T09:46:54Z</time>
      </trkpt>
      <trkpt lat="44.12447" lon="5.86588">
        <ele>913</ele>
        <time>2019-08-09T09:46:55Z</time>
      </trkpt>
      <trkpt lat="44.12452" lon="5.86595">
        <ele>913</ele>
        <time>2019-08-09T09:46:56Z</time>
      </trkpt>
      <trkpt lat="44.12455" lon="5.86602">
        <ele>913</ele>
        <time>2019-08-09T09:46:57Z</time>
      </trkpt>
      <trkpt lat="44.12459" lon="5.86611">
        <ele>913</ele>
        <time>2019-08-09T09:46:58Z</time>
      </trkpt>
      <trkpt lat="44.12462" lon="5.86621">
        <ele>913</ele>
        <time>2019-08-09T09:46:59Z</time>
      </trkpt>
      <trkpt lat="44.12464" lon="5.86632">
        <ele>913</ele>
        <time>2019-08-09T09:47:00Z</time>
      </trkpt>
      <trkpt lat="44.12465" lon="5.86642">
        <ele>913</ele>
        <time>2019-08-09T09:47:01Z</time>
      </trkpt>
      <trkpt lat="44.12463" lon="5.86653">
        <ele>913</ele>
        <time>2019-08-09T09:47:02Z</time>
      </trkpt>
      <trkpt lat="44.1246" lon="5.86662">
        <ele>913</ele>
        <time>2019-08-09T09:47:03Z</time>
      </trkpt>
      <trkpt lat="44.12454" lon="5.86671">
        <ele>913</ele>
        <time>2019-08-09T09:47:04Z</time>
      </trkpt>
      <trkpt lat="44.12446" lon="5.8668">
        <ele>913</ele>
        <time>2019-08-09T09:47:05Z</time>
      </trkpt>
      <trkpt lat="44.12436" lon="5.86681">
        <ele>912</ele>
        <time>2019-08-09T09:47:06Z</time>
      </trkpt>
      <trkpt lat="44.12428" lon="5.86681">
        <ele>911</ele>
        <time>2019-08-09T09:47:07Z</time>
      </trkpt>
      <trkpt lat="44.1242" lon="5.86684">
        <ele>910</ele>
        <time>2019-08-09T09:47:08Z</time>
      </trkpt>
      <trkpt lat="44.12415" lon="5.86688">
        <ele>910</ele>
        <time>2019-08-09T09:47:09Z</time>
      </trkpt>
      <trkpt lat="44.12408" lon="5.8669">
        <ele>909</ele>
        <time>2019-08-09T09:47:10Z</time>
      </trkpt>
      <trkpt lat="44.12403" lon="5.86693">
        <ele>908</ele>
        <time>2019-08-09T09:47:11Z</time>
      </trkpt>
      <trkpt lat="44.12396" lon="5.86698">
        <ele>908</ele>
        <time>2019-08-09T09:47:12Z</time>
      </trkpt>
      <trkpt lat="44.1239" lon="5.86702">
        <ele>908</ele>
        <time>2019-08-09T09:47:13Z</time>
      </trkpt>
      <trkpt lat="44.12383" lon="5.86706">
        <ele>908</ele>
        <time>2019-08-09T09:47:14Z</time>
      </trkpt>
      <trkpt lat="44.12377" lon="5.86709">
        <ele>908</ele>
        <time>2019-08-09T09:47:15Z</time>
      </trkpt>
      <trkpt lat="44.1237" lon="5.86712">
        <ele>908</ele>
        <time>2019-08-09T09:47:16Z</time>
      </trkpt>
      <trkpt lat="44.12363" lon="5.86715">
        <ele>908</ele>
        <time>2019-08-09T09:47:17Z</time>
      </trkpt>
      <trkpt lat="44.12356" lon="5.86718">
        <ele>908</ele>
        <time>2019-08-09T09:47:18Z</time>
      </trkpt>
      <trkpt lat="44.12349" lon="5.86721">
        <ele>908</ele>
        <time>2019-08-09T09:47:19Z</time>
      </trkpt>
      <trkpt lat="44.12342" lon="5.86724">
        <ele>908</ele>
        <time>2019-08-09T09:47:20Z</time>
      </trkpt>
      <trkpt lat="44.12336" lon="5.86727">
        <ele>908</ele>
        <time>2019-08-09T09:47:21Z</time>
      </trkpt>
      <trkpt lat="44.12329" lon="5.86732">
        <ele>908</ele>
        <time>2019-08-09T09:47:22Z</time>
      </trkpt>
      <trkpt lat="44.12323" lon="5.86738">
        <ele>908</ele>
        <time>2019-08-09T09:47:23Z</time>
      </trkpt>
      <trkpt lat="44.12319" lon="5.86745">
        <ele>908</ele>
        <time>2019-08-09T09:47:24Z</time>
      </trkpt>
      <trkpt lat="44.12315" lon="5.86754">
        <ele>908</ele>
        <time>2019-08-09T09:47:25Z</time>
      </trkpt>
      <trkpt lat="44.12312" lon="5.86765">
        <ele>908</ele>
        <time>2019-08-09T09:47:26Z</time>
      </trkpt>
      <trkpt lat="44.12312" lon="5.86776">
        <ele>908</ele>
        <time>2019-08-09T09:47:27Z</time>
      </trkpt>
      <trkpt lat="44.12312" lon="5.86787">
        <ele>908</ele>
        <time>2019-08-09T09:47:28Z</time>
      </trkpt>
      <trkpt lat="44.12313" lon="5.86797">
        <ele>908</ele>
        <time>2019-08-09T09:47:29Z</time>
      </trkpt>
      <trkpt lat="44.12315" lon="5.86808">
        <ele>908</ele>
        <time>2019-08-09T09:47:30Z</time>
      </trkpt>
      <trkpt lat="44.12316" lon="5.86817">
        <ele>908</ele>
        <time>2019-08-09T09:47:31Z</time>
      </trkpt>
      <trkpt lat="44.12319" lon="5.86826">
        <ele>908</ele>
        <time>2019-08-09T09:47:32Z</time>
      </trkpt>
      <trkpt lat="44.12324" lon="5.86834">
        <ele>907</ele>
        <time>2019-08-09T09:47:33Z</time>
      </trkpt>
      <trkpt lat="44.1233" lon="5.86838">
        <ele>906</ele>
        <time>2019-08-09T09:47:34Z</time>
      </trkpt>
      <trkpt lat="44.12336" lon="5.8684">
        <ele>905</ele>
        <time>2019-08-09T09:47:35Z</time>
      </trkpt>
      <trkpt lat="44.12343" lon="5.86837">
        <ele>904</ele>
        <time>2019-08-09T09:47:36Z</time>
      </trkpt>
      <trkpt lat="44.1235" lon="5.86833">
        <ele>903</ele>
        <time>2019-08-09T09:47:37Z</time>
      </trkpt>
      <trkpt lat="44.12357" lon="5.86829">
        <ele>902</ele>
        <time>2019-08-09T09:47:38Z</time>
      </trkpt>
      <trkpt lat="44.12364" lon="5.86825">
        <ele>902</ele>
        <time>2019-08-09T09:47:39Z</time>
      </trkpt>
      <trkpt lat="44.12372" lon="5.86822">
        <ele>902</ele>
        <time>2019-08-09T09:47:40Z</time>
      </trkpt>
      <trkpt lat="44.12379" lon="5.86821">
        <ele>902</ele>
        <time>2019-08-09T09:47:41Z</time>
      </trkpt>
      <trkpt lat="44.12387" lon="5.8682">
        <ele>902</ele>
        <time>2019-08-09T09:47:42Z</time>
      </trkpt>
      <trkpt lat="44.12394" lon="5.86819">
        <ele>902</ele>
        <time>2019-08-09T09:47:43Z</time>
      </trkpt>
      <trkpt lat="44.12402" lon="5.8682">
        <ele>902</ele>
        <time>2019-08-09T09:47:44Z</time>
      </trkpt>
      <trkpt lat="44.1241" lon="5.8682">
        <ele>902</ele>
        <time>2019-08-09T09:47:45Z</time>
      </trkpt>
      <trkpt lat="44.12417" lon="5.86822">
        <ele>902</ele>
        <time>2019-08-09T09:47:46Z</time>
      </trkpt>
      <trkpt lat="44.12426" lon="5.86823">
        <ele>902</ele>
        <time>2019-08-09T09:47:47Z</time>
      </trkpt>
      <trkpt lat="44.12433" lon="5.86826">
        <ele>902</ele>
        <time>2019-08-09T09:47:48Z</time>
      </trkpt>
      <trkpt lat="44.1244" lon="5.8683">
        <ele>902</ele>
        <time>2019-08-09T09:47:49Z</time>
      </trkpt>
      <trkpt lat="44.12445" lon="5.86837">
        <ele>902</ele>
        <time>2019-08-09T09:47:50Z</time>
      </trkpt>
      <trkpt lat="44.12448" lon="5.86845">
        <ele>902</ele>
        <time>2019-08-09T09:47:51Z</time>
      </trkpt>
      <trkpt lat="44.12451" lon="5.86855">
        <ele>902</ele>
        <time>2019-08-09T09:47:52Z</time>
      </trkpt>
      <trkpt lat="44.12453" lon="5.86865">
        <ele>902</ele>
        <time>2019-08-09T09:47:53Z</time>
      </trkpt>
      <trkpt lat="44.12454" lon="5.86875">
        <ele>902</ele>
        <time>2019-08-09T09:47:54Z</time>
      </trkpt>
      <trkpt lat="44.12455" lon="5.86883">
        <ele>902</ele>
        <time>2019-08-09T09:47:55Z</time>
      </trkpt>
      <trkpt lat="44.12457" lon="5.86892">
        <ele>902</ele>
        <time>2019-08-09T09:47:56Z</time>
      </trkpt>
      <trkpt lat="44.12458" lon="5.86902">
        <ele>902</ele>
        <time>2019-08-09T09:47:57Z</time>
      </trkpt>
      <trkpt lat="44.12457" lon="5.86912">
        <ele>902</ele>
        <time>2019-08-09T09:47:58Z</time>
      </trkpt>
      <trkpt lat="44.12455" lon="5.86922">
        <ele>902</ele>
        <time>2019-08-09T09:47:59Z</time>
      </trkpt>
      <trkpt lat="44.12452" lon="5.86931">
        <ele>902</ele>
        <time>2019-08-09T09:48:00Z</time>
      </trkpt>
      <trkpt lat="44.12449" lon="5.86939">
        <ele>902</ele>
        <time>2019-08-09T09:48:01Z</time>
      </trkpt>
      <trkpt lat="44.12447" lon="5.86947">
        <ele>902</ele>
        <time>2019-08-09T09:48:02Z</time>
      </trkpt>
      <trkpt lat="44.12445" lon="5.86956">
        <ele>902</ele>
        <time>2019-08-09T09:48:03Z</time>
      </trkpt>
      <trkpt lat="44.12446" lon="5.86964">
        <ele>902</ele>
        <time>2019-08-09T09:48:04Z</time>
      </trkpt>
      <trkpt lat="44.1245" lon="5.86971">
        <ele>902</ele>
        <time>2019-08-09T09:48:05Z</time>
      </trkpt>
      <trkpt lat="44.12455" lon="5.86975">
        <ele>902</ele>
        <time>2019-08-09T09:48:06Z</time>
      </trkpt>
      <trkpt lat="44.12461" lon="5.86976">
        <ele>902</ele>
        <time>2019-08-09T09:48:07Z</time>
      </trkpt>
      <trkpt lat="44.12469" lon="5.86976">
        <ele>902</ele>
        <time>2019-08-09T09:48:08Z</time>
      </trkpt>
      <trkpt lat="44.12476" lon="5.86975">
        <ele>902</ele>
        <time>2019-08-09T09:48:09Z</time>
      </trkpt>
      <trkpt lat="44.12483" lon="5.86976">
        <ele>902</ele>
        <time>2019-08-09T09:48:10Z</time>
      </trkpt>
      <trkpt lat="44.1249" lon="5.86977">
        <ele>902</ele>
        <time>2019-08-09T09:48:11Z</time>
      </trkpt>
      <trkpt lat="44.12497" lon="5.86979">
        <ele>902</ele>
        <time>2019-08-09T09:48:12Z</time>
      </trkpt>
      <trkpt lat="44.12503" lon="5.86983">
        <ele>902</ele>
        <time>2019-08-09T09:48:13Z</time>
      </trkpt>
      <trkpt lat="44.12509" lon="5.86989">
        <ele>902</ele>
        <time>2019-08-09T09:48:14Z</time>
      </trkpt>
      <trkpt lat="44.12513" lon="5.86995">
        <ele>902</ele>
        <time>2019-08-09T09:48:15Z</time>
      </trkpt>
      <trkpt lat="44.12517" lon="5.87002">
        <ele>902</ele>
        <time>2019-08-09T09:48:16Z</time>
      </trkpt>
      <trkpt lat="44.1252" lon="5.87009">
        <ele>902</ele>
        <time>2019-08-09T09:48:17Z</time>
      </trkpt>
      <trkpt lat="44.12523" lon="5.87016">
        <ele>902</ele>
        <time>2019-08-09T09:48:18Z</time>
      </trkpt>
      <trkpt lat="44.12526" lon="5.87024">
        <ele>902</ele>
        <time>2019-08-09T09:48:19Z</time>
      </trkpt>
      <trkpt lat="44.1253" lon="5.87032">
        <ele>902</ele>
        <time>2019-08-09T09:48:20Z</time>
      </trkpt>
      <trkpt lat="44.12533" lon="5.87041">
        <ele>902</ele>
        <time>2019-08-09T09:48:21Z</time>
      </trkpt>
      <trkpt lat="44.12535" lon="5.87051">
        <ele>902</ele>
        <time>2019-08-09T09:48:22Z</time>
      </trkpt>
      <trkpt lat="44.12536" lon="5.87061">
        <ele>902</ele>
        <time>2019-08-09T09:48:23Z</time>
      </trkpt>
      <trkpt lat="44.12535" lon="5.87071">
        <ele>902</ele>
        <time>2019-08-09T09:48:24Z</time>
      </trkpt>
      <trkpt lat="44.12535" lon="5.87082">
        <ele>902</ele>
        <time>2019-08-09T09:48:25Z</time>
      </trkpt>
      <trkpt lat="44.12534" lon="5.87093">
        <ele>902</ele>
        <time>2019-08-09T09:48:26Z</time>
      </trkpt>
      <trkpt lat="44.12534" lon="5.87104">
        <ele>902</ele>
        <time>2019-08-09T09:48:27Z</time>
      </trkpt>
      <trkpt lat="44.12533" lon="5.87115">
        <ele>902</ele>
        <time>2019-08-09T09:48:28Z</time>
      </trkpt>
      <trkpt lat="44.12532" lon="5.87126">
        <ele>902</ele>
        <time>2019-08-09T09:48:29Z</time>
      </trkpt>
      <trkpt lat="44.12531" lon="5.87137">
        <ele>902</ele>
        <time>2019-08-09T09:48:30Z</time>
      </trkpt>
      <trkpt lat="44.1253" lon="5.87148">
        <ele>902</ele>
        <time>2019-08-09T09:48:31Z</time>
      </trkpt>
      <trkpt lat="44.12529" lon="5.87159">
        <ele>902</ele>
        <time>2019-08-09T09:48:32Z</time>
      </trkpt>
      <trkpt lat="44.12529" lon="5.87171">
        <ele>902</ele>
        <time>2019-08-09T09:48:33Z</time>
      </trkpt>
      <trkpt lat="44.12528" lon="5.87184">
        <ele>902</ele>
        <time>2019-08-09T09:48:34Z</time>
      </trkpt>
      <trkpt lat="44.12527" lon="5.87196">
        <ele>902</ele>
        <time>2019-08-09T09:48:35Z</time>
      </trkpt>
      <trkpt lat="44.12526" lon="5.87209">
        <ele>902</ele>
        <time>2019-08-09T09:48:36Z</time>
      </trkpt>
      <trkpt lat="44.12524" lon="5.87222">
        <ele>902</ele>
        <time>2019-08-09T09:48:37Z</time>
      </trkpt>
      <trkpt lat="44.12522" lon="5.87235">
        <ele>902</ele>
        <time>2019-08-09T09:48:38Z</time>
      </trkpt>
      <trkpt lat="44.12519" lon="5.87248">
        <ele>902</ele>
        <time>2019-08-09T09:48:39Z</time>
      </trkpt>
      <trkpt lat="44.12517" lon="5.87262">
        <ele>902</ele>
        <time>2019-08-09T09:48:40Z</time>
      </trkpt>
      <trkpt lat="44.12516" lon="5.87276">
        <ele>902</ele>
        <time>2019-08-09T09:48:41Z</time>
      </trkpt>
      <trkpt lat="44.12515" lon="5.8729">
        <ele>902</ele>
        <time>2019-08-09T09:48:42Z</time>
      </trkpt>
      <trkpt lat="44.12515" lon="5.87304">
        <ele>902</ele>
        <time>2019-08-09T09:48:43Z</time>
      </trkpt>
      <trkpt lat="44.12516" lon="5.87319">
        <ele>902</ele>
        <time>2019-08-09T09:48:44Z</time>
      </trkpt>
      <trkpt lat="44.12518" lon="5.87332">
        <ele>901</ele>
        <time>2019-08-09T09:48:45Z</time>
      </trkpt>
      <trkpt lat="44.12521" lon="5.87345">
        <ele>900</ele>
        <time>2019-08-09T09:48:46Z</time>
      </trkpt>
      <trkpt lat="44.12523" lon="5.87359">
        <ele>900</ele>
        <time>2019-08-09T09:48:47Z</time>
      </trkpt>
      <trkpt lat="44.12524" lon="5.87372">
        <ele>900</ele>
        <time>2019-08-09T09:48:48Z</time>
      </trkpt>
      <trkpt lat="44.12523" lon="5.87385">
        <ele>900</ele>
        <time>2019-08-09T09:48:49Z</time>
      </trkpt>
      <trkpt lat="44.12521" lon="5.87398">
        <ele>899</ele>
        <time>2019-08-09T09:48:50Z</time>
      </trkpt>
      <trkpt lat="44.12519" lon="5.87411">
        <ele>898</ele>
        <time>2019-08-09T09:48:51Z</time>
      </trkpt>
      <trkpt lat="44.12517" lon="5.87424">
        <ele>897</ele>
        <time>2019-08-09T09:48:52Z</time>
      </trkpt>
      <trkpt lat="44.12515" lon="5.87437">
        <ele>896</ele>
        <time>2019-08-09T09:48:53Z</time>
      </trkpt>
      <trkpt lat="44.12513" lon="5.8745">
        <ele>895</ele>
        <time>2019-08-09T09:48:54Z</time>
      </trkpt>
      <trkpt lat="44.1251" lon="5.87462">
        <ele>894</ele>
        <time>2019-08-09T09:48:55Z</time>
      </trkpt>
      <trkpt lat="44.12506" lon="5.87473">
        <ele>893</ele>
        <time>2019-08-09T09:48:56Z</time>
      </trkpt>
      <trkpt lat="44.12501" lon="5.87484">
        <ele>892</ele>
        <time>2019-08-09T09:48:57Z</time>
      </trkpt>
      <trkpt lat="44.12496" lon="5.87495">
        <ele>891</ele>
        <time>2019-08-09T09:48:58Z</time>
      </trkpt>
      <trkpt lat="44.12492" lon="5.87506">
        <ele>890</ele>
        <time>2019-08-09T09:48:59Z</time>
      </trkpt>
      <trkpt lat="44.12488" lon="5.87518">
        <ele>890</ele>
        <time>2019-08-09T09:49:00Z</time>
      </trkpt>
      <trkpt lat="44.12486" lon="5.8753">
        <ele>889</ele>
        <time>2019-08-09T09:49:01Z</time>
      </trkpt>
      <trkpt lat="44.12484" lon="5.87542">
        <ele>888</ele>
        <time>2019-08-09T09:49:02Z</time>
      </trkpt>
      <trkpt lat="44.12483" lon="5.87554">
        <ele>888</ele>
        <time>2019-08-09T09:49:03Z</time>
      </trkpt>
      <trkpt lat="44.12482" lon="5.87565">
        <ele>887</ele>
        <time>2019-08-09T09:49:04Z</time>
      </trkpt>
      <trkpt lat="44.12481" lon="5.87576">
        <ele>886</ele>
        <time>2019-08-09T09:49:05Z</time>
      </trkpt>
      <trkpt lat="44.1248" lon="5.87586">
        <ele>885</ele>
        <time>2019-08-09T09:49:06Z</time>
      </trkpt>
      <trkpt lat="44.12478" lon="5.87597">
        <ele>884</ele>
        <time>2019-08-09T09:49:07Z</time>
      </trkpt>
      <trkpt lat="44.12476" lon="5.87607">
        <ele>884</ele>
        <time>2019-08-09T09:49:08Z</time>
      </trkpt>
      <trkpt lat="44.12473" lon="5.87616">
        <ele>883</ele>
        <time>2019-08-09T09:49:09Z</time>
      </trkpt>
      <trkpt lat="44.12469" lon="5.87625">
        <ele>882</ele>
        <time>2019-08-09T09:49:10Z</time>
      </trkpt>
      <trkpt lat="44.12464" lon="5.87632">
        <ele>882</ele>
        <time>2019-08-09T09:49:11Z</time>
      </trkpt>
      <trkpt lat="44.12459" lon="5.87637">
        <ele>882</ele>
        <time>2019-08-09T09:49:12Z</time>
      </trkpt>
      <trkpt lat="44.12453" lon="5.87641">
        <ele>882</ele>
        <time>2019-08-09T09:49:13Z</time>
      </trkpt>
      <trkpt lat="44.12447" lon="5.87643">
        <ele>882</ele>
        <time>2019-08-09T09:49:14Z</time>
      </trkpt>
      <trkpt lat="44.1244" lon="5.87645">
        <ele>882</ele>
        <time>2019-08-09T09:49:15Z</time>
      </trkpt>
      <trkpt lat="44.12433" lon="5.87645">
        <ele>882</ele>
        <time>2019-08-09T09:49:16Z</time>
      </trkpt>
      <trkpt lat="44.12427" lon="5.87645">
        <ele>882</ele>
        <time>2019-08-09T09:49:17Z</time>
      </trkpt>
      <trkpt lat="44.12421" lon="5.87646">
        <ele>882</ele>
        <time>2019-08-09T09:49:18Z</time>
      </trkpt>
      <trkpt lat="44.12414" lon="5.87646">
        <ele>882</ele>
        <time>2019-08-09T09:49:19Z</time>
      </trkpt>
      <trkpt lat="44.12408" lon="5.87646">
        <ele>882</ele>
        <time>2019-08-09T09:49:20Z</time>
      </trkpt>
      <trkpt lat="44.12402" lon="5.87647">
        <ele>882</ele>
        <time>2019-08-09T09:49:21Z</time>
      </trkpt>
      <trkpt lat="44.12396" lon="5.87647">
        <ele>882</ele>
        <time>2019-08-09T09:49:22Z</time>
      </trkpt>
      <trkpt lat="44.1239" lon="5.87647">
        <ele>882</ele>
        <time>2019-08-09T09:49:23Z</time>
      </trkpt>
      <trkpt lat="44.12384" lon="5.87647">
        <ele>882</ele>
        <time>2019-08-09T09:49:24Z</time>
      </trkpt>
      <trkpt lat="44.12378" lon="5.87648">
        <ele>882</ele>
        <time>2019-08-09T09:49:25Z</time>
      </trkpt>
      <trkpt lat="44.12371" lon="5.8765">
        <ele>882</ele>
        <time>2019-08-09T09:49:26Z</time>
      </trkpt>
      <trkpt lat="44.12365" lon="5.87653">
        <ele>882</ele>
        <time>2019-08-09T09:49:27Z</time>
      </trkpt>
      <trkpt lat="44.12362" lon="5.87659">
        <ele>883</ele>
        <time>2019-08-09T09:49:28Z</time>
      </trkpt>
      <trkpt lat="44.1236" lon="5.87667">
        <ele>883</ele>
        <time>2019-08-09T09:49:29Z</time>
      </trkpt>
      <trkpt lat="44.12362" lon="5.87676">
        <ele>884</ele>
        <time>2019-08-09T09:49:30Z</time>
      </trkpt>
      <trkpt lat="44.12367" lon="5.87685">
        <ele>885</ele>
        <time>2019-08-09T09:49:31Z</time>
      </trkpt>
      <trkpt lat="44.12374" lon="5.87691">
        <ele>886</ele>
        <time>2019-08-09T09:49:32Z</time>
      </trkpt>
      <trkpt lat="44.12381" lon="5.87697">
        <ele>887</ele>
        <time>2019-08-09T09:49:33Z</time>
      </trkpt>
      <trkpt lat="44.12389" lon="5.87703">
        <ele>888</ele>
        <time>2019-08-09T09:49:34Z</time>
      </trkpt>
      <trkpt lat="44.12395" lon="5.87709">
        <ele>888</ele>
        <time>2019-08-09T09:49:35Z</time>
      </trkpt>
      <trkpt lat="44.12402" lon="5.87715">
        <ele>888</ele>
        <time>2019-08-09T09:49:36Z</time>
      </trkpt>
      <trkpt lat="44.12408" lon="5.87723">
        <ele>888</ele>
        <time>2019-08-09T09:49:37Z</time>
      </trkpt>
      <trkpt lat="44.12413" lon="5.87733">
        <ele>888</ele>
        <time>2019-08-09T09:49:38Z</time>
      </trkpt>
      <trkpt lat="44.12416" lon="5.87744">
        <ele>888</ele>
        <time>2019-08-09T09:49:39Z</time>
      </trkpt>
      <trkpt lat="44.1242" lon="5.87756">
        <ele>888</ele>
        <time>2019-08-09T09:49:40Z</time>
      </trkpt>
      <trkpt lat="44.12425" lon="5.87766">
        <ele>888</ele>
        <time>2019-08-09T09:49:41Z</time>
      </trkpt>
      <trkpt lat="44.12431" lon="5.87775">
        <ele>888</ele>
        <time>2019-08-09T09:49:42Z</time>
      </trkpt>
      <trkpt lat="44.12438" lon="5.87782">
        <ele>888</ele>
        <time>2019-08-09T09:49:43Z</time>
      </trkpt>
      <trkpt lat="44.12447" lon="5.87786">
        <ele>888</ele>
        <time>2019-08-09T09:49:44Z</time>
      </trkpt>
      <trkpt lat="44.12455" lon="5.87791">
        <ele>888</ele>
        <time>2019-08-09T09:49:45Z</time>
      </trkpt>
      <trkpt lat="44.12464" lon="5.87796">
        <ele>887</ele>
        <time>2019-08-09T09:49:46Z</time>
      </trkpt>
      <trkpt lat="44.12474" lon="5.87801">
        <ele>886</ele>
        <time>2019-08-09T09:49:47Z</time>
      </trkpt>
      <trkpt lat="44.12482" lon="5.87807">
        <ele>885</ele>
        <time>2019-08-09T09:49:48Z</time>
      </trkpt>
      <trkpt lat="44.12491" lon="5.87815">
        <ele>884</ele>
        <time>2019-08-09T09:49:49Z</time>
      </trkpt>
      <trkpt lat="44.12498" lon="5.87823">
        <ele>883</ele>
        <time>2019-08-09T09:49:50Z</time>
      </trkpt>
      <trkpt lat="44.12505" lon="5.87834">
        <ele>882</ele>
        <time>2019-08-09T09:49:51Z</time>
      </trkpt>
      <trkpt lat="44.12508" lon="5.87846">
        <ele>882</ele>
        <time>2019-08-09T09:49:52Z</time>
      </trkpt>
      <trkpt lat="44.12511" lon="5.87859">
        <ele>882</ele>
        <time>2019-08-09T09:49:53Z</time>
      </trkpt>
      <trkpt lat="44.12513" lon="5.87873">
        <ele>881</ele>
        <time>2019-08-09T09:49:54Z</time>
      </trkpt>
      <trkpt lat="44.12513" lon="5.87887">
        <ele>881</ele>
        <time>2019-08-09T09:49:55Z</time>
      </trkpt>
      <trkpt lat="44.12516" lon="5.87902">
        <ele>880</ele>
        <time>2019-08-09T09:49:56Z</time>
      </trkpt>
      <trkpt lat="44.12517" lon="5.87916">
        <ele>879</ele>
        <time>2019-08-09T09:49:57Z</time>
      </trkpt>
      <trkpt lat="44.12517" lon="5.87931">
        <ele>878</ele>
        <time>2019-08-09T09:49:58Z</time>
      </trkpt>
      <trkpt lat="44.12517" lon="5.87946">
        <ele>877</ele>
        <time>2019-08-09T09:49:59Z</time>
      </trkpt>
      <trkpt lat="44.12516" lon="5.87962">
        <ele>876</ele>
        <time>2019-08-09T09:50:00Z</time>
      </trkpt>
      <trkpt lat="44.12515" lon="5.87978">
        <ele>875</ele>
        <time>2019-08-09T09:50:01Z</time>
      </trkpt>
      <trkpt lat="44.12514" lon="5.87993">
        <ele>874</ele>
        <time>2019-08-09T09:50:02Z</time>
      </trkpt>
      <trkpt lat="44.12513" lon="5.88008">
        <ele>873</ele>
        <time>2019-08-09T09:50:03Z</time>
      </trkpt>
      <trkpt lat="44.12512" lon="5.88022">
        <ele>872</ele>
        <time>2019-08-09T09:50:04Z</time>
      </trkpt>
      <trkpt lat="44.12511" lon="5.88035">
        <ele>871</ele>
        <time>2019-08-09T09:50:05Z</time>
      </trkpt>
      <trkpt lat="44.12509" lon="5.88046">
        <ele>870</ele>
        <time>2019-08-09T09:50:06Z</time>
      </trkpt>
      <trkpt lat="44.12505" lon="5.88056">
        <ele>869</ele>
        <time>2019-08-09T09:50:07Z</time>
      </trkpt>
      <trkpt lat="44.12501" lon="5.88065">
        <ele>868</ele>
        <time>2019-08-09T09:50:08Z</time>
      </trkpt>
      <trkpt lat="44.12495" lon="5.88071">
        <ele>867</ele>
        <time>2019-08-09T09:50:09Z</time>
      </trkpt>
      <trkpt lat="44.12488" lon="5.88073">
        <ele>866</ele>
        <time>2019-08-09T09:50:10Z</time>
      </trkpt>
      <trkpt lat="44.1248" lon="5.88071">
        <ele>865</ele>
        <time>2019-08-09T09:50:11Z</time>
      </trkpt>
      <trkpt lat="44.12471" lon="5.88069">
        <ele>864</ele>
        <time>2019-08-09T09:50:12Z</time>
      </trkpt>
      <trkpt lat="44.12463" lon="5.8807">
        <ele>863</ele>
        <time>2019-08-09T09:50:13Z</time>
      </trkpt>
      <trkpt lat="44.12456" lon="5.88073">
        <ele>862</ele>
        <time>2019-08-09T09:50:14Z</time>
      </trkpt>
      <trkpt lat="44.12449" lon="5.88077">
        <ele>861</ele>
        <time>2019-08-09T09:50:15Z</time>
      </trkpt>
      <trkpt lat="44.12445" lon="5.88086">
        <ele>860</ele>
        <time>2019-08-09T09:50:16Z</time>
      </trkpt>
      <trkpt lat="44.12443" lon="5.88097">
        <ele>860</ele>
        <time>2019-08-09T09:50:17Z</time>
      </trkpt>
      <trkpt lat="44.12443" lon="5.8811">
        <ele>859</ele>
        <time>2019-08-09T09:50:18Z</time>
      </trkpt>
      <trkpt lat="44.12445" lon="5.88122">
        <ele>858</ele>
        <time>2019-08-09T09:50:19Z</time>
      </trkpt>
      <trkpt lat="44.12447" lon="5.88134">
        <ele>858</ele>
        <time>2019-08-09T09:50:20Z</time>
      </trkpt>
      <trkpt lat="44.12449" lon="5.88147">
        <ele>858</ele>
        <time>2019-08-09T09:50:21Z</time>
      </trkpt>
      <trkpt lat="44.1245" lon="5.88159">
        <ele>858</ele>
        <time>2019-08-09T09:50:22Z</time>
      </trkpt>
      <trkpt lat="44.12453" lon="5.88172">
        <ele>858</ele>
        <time>2019-08-09T09:50:23Z</time>
      </trkpt>
      <trkpt lat="44.12457" lon="5.88184">
        <ele>858</ele>
        <time>2019-08-09T09:50:24Z</time>
      </trkpt>
      <trkpt lat="44.12462" lon="5.88194">
        <ele>858</ele>
        <time>2019-08-09T09:50:25Z</time>
      </trkpt>
      <trkpt lat="44.12468" lon="5.88203">
        <ele>858</ele>
        <time>2019-08-09T09:50:26Z</time>
      </trkpt>
      <trkpt lat="44.12475" lon="5.88211">
        <ele>858</ele>
        <time>2019-08-09T09:50:27Z</time>
      </trkpt>
      <trkpt lat="44.12481" lon="5.88221">
        <ele>857</ele>
        <time>2019-08-09T09:50:28Z</time>
      </trkpt>
      <trkpt lat="44.12486" lon="5.88232">
        <ele>856</ele>
        <time>2019-08-09T09:50:29Z</time>
      </trkpt>
      <trkpt lat="44.1249" lon="5.88244">
        <ele>855</ele>
        <time>2019-08-09T09:50:30Z</time>
      </trkpt>
      <trkpt lat="44.12493" lon="5.88256">
        <ele>854</ele>
        <time>2019-08-09T09:50:31Z</time>
      </trkpt>
      <trkpt lat="44.12494" lon="5.8827">
        <ele>853</ele>
        <time>2019-08-09T09:50:32Z</time>
      </trkpt>
      <trkpt lat="44.12495" lon="5.88284">
        <ele>852</ele>
        <time>2019-08-09T09:50:33Z</time>
      </trkpt>
      <trkpt lat="44.12495" lon="5.88297">
        <ele>851</ele>
        <time>2019-08-09T09:50:34Z</time>
      </trkpt>
      <trkpt lat="44.12495" lon="5.88311">
        <ele>850</ele>
        <time>2019-08-09T09:50:35Z</time>
      </trkpt>
      <trkpt lat="44.12498" lon="5.88324">
        <ele>849</ele>
        <time>2019-08-09T09:50:36Z</time>
      </trkpt>
      <trkpt lat="44.125" lon="5.88339">
        <ele>849</ele>
        <time>2019-08-09T09:50:37Z</time>
      </trkpt>
      <trkpt lat="44.12503" lon="5.88353">
        <ele>848</ele>
        <time>2019-08-09T09:50:38Z</time>
      </trkpt>
      <trkpt lat="44.12507" lon="5.88365">
        <ele>848</ele>
        <time>2019-08-09T09:50:39Z</time>
      </trkpt>
      <trkpt lat="44.1251" lon="5.88377">
        <ele>848</ele>
        <time>2019-08-09T09:50:40Z</time>
      </trkpt>
      <trkpt lat="44.12514" lon="5.8839">
        <ele>847</ele>
        <time>2019-08-09T09:50:41Z</time>
      </trkpt>
      <trkpt lat="44.12517" lon="5.88403">
        <ele>847</ele>
        <time>2019-08-09T09:50:42Z</time>
      </trkpt>
      <trkpt lat="44.12518" lon="5.88415">
        <ele>847</ele>
        <time>2019-08-09T09:50:43Z</time>
      </trkpt>
      <trkpt lat="44.12518" lon="5.88428">
        <ele>846</ele>
        <time>2019-08-09T09:50:44Z</time>
      </trkpt>
      <trkpt lat="44.12517" lon="5.88441">
        <ele>845</ele>
        <time>2019-08-09T09:50:45Z</time>
      </trkpt>
      <trkpt lat="44.12515" lon="5.88454">
        <ele>844</ele>
        <time>2019-08-09T09:50:46Z</time>
      </trkpt>
      <trkpt lat="44.12511" lon="5.88467">
        <ele>843</ele>
        <time>2019-08-09T09:50:47Z</time>
      </trkpt>
      <trkpt lat="44.12505" lon="5.88478">
        <ele>842</ele>
        <time>2019-08-09T09:50:48Z</time>
      </trkpt>
      <trkpt lat="44.12497" lon="5.88488">
        <ele>841</ele>
        <time>2019-08-09T09:50:49Z</time>
      </trkpt>
      <trkpt lat="44.12491" lon="5.885">
        <ele>840</ele>
        <time>2019-08-09T09:50:50Z</time>
      </trkpt>
      <trkpt lat="44.12486" lon="5.88513">
        <ele>839</ele>
        <time>2019-08-09T09:50:51Z</time>
      </trkpt>
      <trkpt lat="44.12482" lon="5.88524">
        <ele>838</ele>
        <time>2019-08-09T09:50:52Z</time>
      </trkpt>
      <trkpt lat="44.12479" lon="5.88535">
        <ele>837</ele>
        <time>2019-08-09T09:50:53Z</time>
      </trkpt>
      <trkpt lat="44.12474" lon="5.88545">
        <ele>836</ele>
        <time>2019-08-09T09:50:54Z</time>
      </trkpt>
      <trkpt lat="44.12469" lon="5.88552">
        <ele>835</ele>
        <time>2019-08-09T09:50:55Z</time>
      </trkpt>
      <trkpt lat="44.12463" lon="5.88557">
        <ele>834</ele>
        <time>2019-08-09T09:50:56Z</time>
      </trkpt>
      <trkpt lat="44.12457" lon="5.8856">
        <ele>833</ele>
        <time>2019-08-09T09:50:57Z</time>
      </trkpt>
      <trkpt lat="44.1245" lon="5.88559">
        <ele>833</ele>
        <time>2019-08-09T09:50:58Z</time>
      </trkpt>
      <trkpt lat="44.12443" lon="5.88556">
        <ele>833</ele>
        <time>2019-08-09T09:50:59Z</time>
      </trkpt>
      <trkpt lat="44.12437" lon="5.88553">
        <ele>833</ele>
        <time>2019-08-09T09:51:00Z</time>
      </trkpt>
      <trkpt lat="44.12429" lon="5.88551">
        <ele>833</ele>
        <time>2019-08-09T09:51:01Z</time>
      </trkpt>
      <trkpt lat="44.12423" lon="5.88552">
        <ele>833</ele>
        <time>2019-08-09T09:51:02Z</time>
      </trkpt>
      <trkpt lat="44.12418" lon="5.88557">
        <ele>833</ele>
        <time>2019-08-09T09:51:03Z</time>
      </trkpt>
      <trkpt lat="44.12414" lon="5.88563">
        <ele>833</ele>
        <time>2019-08-09T09:51:04Z</time>
      </trkpt>
      <trkpt lat="44.12411" lon="5.88571">
        <ele>832</ele>
        <time>2019-08-09T09:51:05Z</time>
      </trkpt>
      <trkpt lat="44.12413" lon="5.88579">
        <ele>832</ele>
        <time>2019-08-09T09:51:06Z</time>
      </trkpt>
      <trkpt lat="44.12417" lon="5.88586">
        <ele>831</ele>
        <time>2019-08-09T09:51:07Z</time>
      </trkpt>
      <trkpt lat="44.12423" lon="5.88593">
        <ele>830</ele>
        <time>2019-08-09T09:51:08Z</time>
      </trkpt>
      <trkpt lat="44.12429" lon="5.886">
        <ele>829</ele>
        <time>2019-08-09T09:51:09Z</time>
      </trkpt>
      <trkpt lat="44.12434" lon="5.88607">
        <ele>828</ele>
        <time>2019-08-09T09:51:10Z</time>
      </trkpt>
      <trkpt lat="44.1244" lon="5.88613">
        <ele>827</ele>
        <time>2019-08-09T09:51:11Z</time>
      </trkpt>
      <trkpt lat="44.12446" lon="5.88618">
        <ele>826</ele>
        <time>2019-08-09T09:51:12Z</time>
      </trkpt>
      <trkpt lat="44.12452" lon="5.88623">
        <ele>825</ele>
        <time>2019-08-09T09:51:13Z</time>
      </trkpt>
      <trkpt lat="44.12459" lon="5.88627">
        <ele>824</ele>
        <time>2019-08-09T09:51:14Z</time>
      </trkpt>
      <trkpt lat="44.12465" lon="5.88632">
        <ele>823</ele>
        <time>2019-08-09T09:51:15Z</time>
      </trkpt>
      <trkpt lat="44.12472" lon="5.88636">
        <ele>823</ele>
        <time>2019-08-09T09:51:16Z</time>
      </trkpt>
      <trkpt lat="44.12478" lon="5.8864">
        <ele>823</ele>
        <time>2019-08-09T09:51:17Z</time>
      </trkpt>
      <trkpt lat="44.12485" lon="5.88642">
        <ele>823</ele>
        <time>2019-08-09T09:51:18Z</time>
      </trkpt>
      <trkpt lat="44.12492" lon="5.88645">
        <ele>823</ele>
        <time>2019-08-09T09:51:19Z</time>
      </trkpt>
      <trkpt lat="44.125" lon="5.88646">
        <ele>823</ele>
        <time>2019-08-09T09:51:20Z</time>
      </trkpt>
      <trkpt lat="44.12508" lon="5.88648">
        <ele>823</ele>
        <time>2019-08-09T09:51:21Z</time>
      </trkpt>
      <trkpt lat="44.12517" lon="5.88651">
        <ele>823</ele>
        <time>2019-08-09T09:51:22Z</time>
      </trkpt>
      <trkpt lat="44.12524" lon="5.88654">
        <ele>823</ele>
        <time>2019-08-09T09:51:23Z</time>
      </trkpt>
      <trkpt lat="44.12532" lon="5.8866">
        <ele>823</ele>
        <time>2019-08-09T09:51:24Z</time>
      </trkpt>
      <trkpt lat="44.12539" lon="5.88667">
        <ele>823</ele>
        <time>2019-08-09T09:51:25Z</time>
      </trkpt>
      <trkpt lat="44.12546" lon="5.88674">
        <ele>823</ele>
        <time>2019-08-09T09:51:26Z</time>
      </trkpt>
      <trkpt lat="44.12553" lon="5.88682">
        <ele>823</ele>
        <time>2019-08-09T09:51:27Z</time>
      </trkpt>
      <trkpt lat="44.1256" lon="5.8869">
        <ele>823</ele>
        <time>2019-08-09T09:51:28Z</time>
      </trkpt>
      <trkpt lat="44.12568" lon="5.88698">
        <ele>823</ele>
        <time>2019-08-09T09:51:29Z</time>
      </trkpt>
      <trkpt lat="44.12575" lon="5.88706">
        <ele>823</ele>
        <time>2019-08-09T09:51:30Z</time>
      </trkpt>
      <trkpt lat="44.12583" lon="5.88714">
        <ele>823</ele>
        <time>2019-08-09T09:51:31Z</time>
      </trkpt>
      <trkpt lat="44.1259" lon="5.88721">
        <ele>823</ele>
        <time>2019-08-09T09:51:32Z</time>
      </trkpt>
      <trkpt lat="44.12598" lon="5.88729">
        <ele>823</ele>
        <time>2019-08-09T09:51:33Z</time>
      </trkpt>
      <trkpt lat="44.12606" lon="5.88737">
        <ele>822</ele>
        <time>2019-08-09T09:51:34Z</time>
      </trkpt>
      <trkpt lat="44.12615" lon="5.88744">
        <ele>822</ele>
        <time>2019-08-09T09:51:35Z</time>
      </trkpt>
      <trkpt lat="44.12624" lon="5.88751">
        <ele>821</ele>
        <time>2019-08-09T09:51:36Z</time>
      </trkpt>
      <trkpt lat="44.12633" lon="5.88757">
        <ele>821</ele>
        <time>2019-08-09T09:51:37Z</time>
      </trkpt>
      <trkpt lat="44.12642" lon="5.88764">
        <ele>820</ele>
        <time>2019-08-09T09:51:38Z</time>
      </trkpt>
      <trkpt lat="44.12652" lon="5.88769">
        <ele>819</ele>
        <time>2019-08-09T09:51:39Z</time>
      </trkpt>
      <trkpt lat="44.1266" lon="5.88775">
        <ele>819</ele>
        <time>2019-08-09T09:51:40Z</time>
      </trkpt>
      <trkpt lat="44.12668" lon="5.88781">
        <ele>818</ele>
        <time>2019-08-09T09:51:41Z</time>
      </trkpt>
      <trkpt lat="44.12675" lon="5.88789">
        <ele>818</ele>
        <time>2019-08-09T09:51:42Z</time>
      </trkpt>
      <trkpt lat="44.12682" lon="5.88797">
        <ele>818</ele>
        <time>2019-08-09T09:51:43Z</time>
      </trkpt>
      <trkpt lat="44.12688" lon="5.88806">
        <ele>818</ele>
        <time>2019-08-09T09:51:44Z</time>
      </trkpt>
      <trkpt lat="44.12693" lon="5.88818">
        <ele>818</ele>
        <time>2019-08-09T09:51:45Z</time>
      </trkpt>
      <trkpt lat="44.12698" lon="5.88831">
        <ele>817</ele>
        <time>2019-08-09T09:51:46Z</time>
      </trkpt>
      <trkpt lat="44.12701" lon="5.88845">
        <ele>817</ele>
        <time>2019-08-09T09:51:47Z</time>
      </trkpt>
      <trkpt lat="44.12703" lon="5.88858">
        <ele>817</ele>
        <time>2019-08-09T09:51:48Z</time>
      </trkpt>
      <trkpt lat="44.12705" lon="5.88871">
        <ele>816</ele>
        <time>2019-08-09T09:51:49Z</time>
      </trkpt>
      <trkpt lat="44.12705" lon="5.88883">
        <ele>815</ele>
        <time>2019-08-09T09:51:50Z</time>
      </trkpt>
      <trkpt lat="44.12706" lon="5.88895">
        <ele>814</ele>
        <time>2019-08-09T09:51:51Z</time>
      </trkpt>
      <trkpt lat="44.12706" lon="5.88907">
        <ele>813</ele>
        <time>2019-08-09T09:51:52Z</time>
      </trkpt>
      <trkpt lat="44.12704" lon="5.88918">
        <ele>812</ele>
        <time>2019-08-09T09:51:53Z</time>
      </trkpt>
      <trkpt lat="44.12702" lon="5.8893">
        <ele>811</ele>
        <time>2019-08-09T09:51:54Z</time>
      </trkpt>
      <trkpt lat="44.127" lon="5.88941">
        <ele>810</ele>
        <time>2019-08-09T09:51:55Z</time>
      </trkpt>
      <trkpt lat="44.12701" lon="5.8895">
        <ele>809</ele>
        <time>2019-08-09T09:51:56Z</time>
      </trkpt>
      <trkpt lat="44.12704" lon="5.8896">
        <ele>808</ele>
        <time>2019-08-09T09:51:57Z</time>
      </trkpt>
      <trkpt lat="44.12709" lon="5.88969">
        <ele>807</ele>
        <time>2019-08-09T09:51:58Z</time>
      </trkpt>
      <trkpt lat="44.12715" lon="5.88975">
        <ele>806</ele>
        <time>2019-08-09T09:51:59Z</time>
      </trkpt>
      <trkpt lat="44.12722" lon="5.8898">
        <ele>805</ele>
        <time>2019-08-09T09:52:00Z</time>
      </trkpt>
      <trkpt lat="44.1273" lon="5.88985">
        <ele>804</ele>
        <time>2019-08-09T09:52:01Z</time>
      </trkpt>
      <trkpt lat="44.12738" lon="5.88989">
        <ele>803</ele>
        <time>2019-08-09T09:52:02Z</time>
      </trkpt>
      <trkpt lat="44.12746" lon="5.88993">
        <ele>802</ele>
        <time>2019-08-09T09:52:03Z</time>
      </trkpt>
      <trkpt lat="44.12751" lon="5.88999">
        <ele>801</ele>
        <time>2019-08-09T09:52:04Z</time>
      </trkpt>
      <trkpt lat="44.12755" lon="5.89007">
        <ele>801</ele>
        <time>2019-08-09T09:52:05Z</time>
      </trkpt>
      <trkpt lat="44.12756" lon="5.89014">
        <ele>801</ele>
        <time>2019-08-09T09:52:06Z</time>
      </trkpt>
      <trkpt lat="44.12752" lon="5.89022">
        <ele>801</ele>
        <time>2019-08-09T09:52:07Z</time>
      </trkpt>
      <trkpt lat="44.12746" lon="5.89029">
        <ele>801</ele>
        <time>2019-08-09T09:52:08Z</time>
      </trkpt>
      <trkpt lat="44.12739" lon="5.89032">
        <ele>801</ele>
        <time>2019-08-09T09:52:09Z</time>
      </trkpt>
      <trkpt lat="44.12731" lon="5.89032">
        <ele>800</ele>
        <time>2019-08-09T09:52:10Z</time>
      </trkpt>
      <trkpt lat="44.12724" lon="5.89032">
        <ele>800</ele>
        <time>2019-08-09T09:52:11Z</time>
      </trkpt>
      <trkpt lat="44.12716" lon="5.89031">
        <ele>799</ele>
        <time>2019-08-09T09:52:12Z</time>
      </trkpt>
      <trkpt lat="44.12708" lon="5.89031">
        <ele>798</ele>
        <time>2019-08-09T09:52:13Z</time>
      </trkpt>
      <trkpt lat="44.127" lon="5.89031">
        <ele>798</ele>
        <time>2019-08-09T09:52:14Z</time>
      </trkpt>
      <trkpt lat="44.12691" lon="5.89031">
        <ele>798</ele>
        <time>2019-08-09T09:52:15Z</time>
      </trkpt>
      <trkpt lat="44.12683" lon="5.89031">
        <ele>798</ele>
        <time>2019-08-09T09:52:16Z</time>
      </trkpt>
      <trkpt lat="44.12674" lon="5.89032">
        <ele>798</ele>
        <time>2019-08-09T09:52:17Z</time>
      </trkpt>
      <trkpt lat="44.12666" lon="5.89033">
        <ele>798</ele>
        <time>2019-08-09T09:52:18Z</time>
      </trkpt>
      <trkpt lat="44.12659" lon="5.89034">
        <ele>798</ele>
        <time>2019-08-09T09:52:19Z</time>
      </trkpt>
      <trkpt lat="44.12651" lon="5.89035">
        <ele>798</ele>
        <time>2019-08-09T09:52:20Z</time>
      </trkpt>
      <trkpt lat="44.12643" lon="5.89036">
        <ele>798</ele>
        <time>2019-08-09T09:52:21Z</time>
      </trkpt>
      <trkpt lat="44.12635" lon="5.89038">
        <ele>798</ele>
        <time>2019-08-09T09:52:22Z</time>
      </trkpt>
      <trkpt lat="44.12628" lon="5.89039">
        <ele>798</ele>
        <time>2019-08-09T09:52:23Z</time>
      </trkpt>
      <trkpt lat="44.12621" lon="5.8904">
        <ele>798</ele>
        <time>2019-08-09T09:52:24Z</time>
      </trkpt>
      <trkpt lat="44.12613" lon="5.89042">
        <ele>798</ele>
        <time>2019-08-09T09:52:25Z</time>
      </trkpt>
      <trkpt lat="44.12606" lon="5.89044">
        <ele>798</ele>
        <time>2019-08-09T09:52:26Z</time>
      </trkpt>
      <trkpt lat="44.12599" lon="5.89046">
        <ele>798</ele>
        <time>2019-08-09T09:52:27Z</time>
      </trkpt>
      <trkpt lat="44.12592" lon="5.89049">
        <ele>798</ele>
        <time>2019-08-09T09:52:28Z</time>
      </trkpt>
      <trkpt lat="44.12584" lon="5.89052">
        <ele>798</ele>
        <time>2019-08-09T09:52:29Z</time>
      </trkpt>
      <trkpt lat="44.12577" lon="5.89056">
        <ele>798</ele>
        <time>2019-08-09T09:52:30Z</time>
      </trkpt>
      <trkpt lat="44.12569" lon="5.8906">
        <ele>798</ele>
        <time>2019-08-09T09:52:31Z</time>
      </trkpt>
      <trkpt lat="44.12562" lon="5.89064">
        <ele>798</ele>
        <time>2019-08-09T09:52:32Z</time>
      </trkpt>
      <trkpt lat="44.12554" lon="5.89068">
        <ele>798</ele>
        <time>2019-08-09T09:52:33Z</time>
      </trkpt>
      <trkpt lat="44.12546" lon="5.89072">
        <ele>798</ele>
        <time>2019-08-09T09:52:34Z</time>
      </trkpt>
      <trkpt lat="44.12538" lon="5.89076">
        <ele>798</ele>
        <time>2019-08-09T09:52:35Z</time>
      </trkpt>
      <trkpt lat="44.12529" lon="5.8908">
        <ele>798</ele>
        <time>2019-08-09T09:52:36Z</time>
      </trkpt>
      <trkpt lat="44.12521" lon="5.89085">
        <ele>798</ele>
        <time>2019-08-09T09:52:37Z</time>
      </trkpt>
      <trkpt lat="44.12514" lon="5.89092">
        <ele>798</ele>
        <time>2019-08-09T09:52:38Z</time>
      </trkpt>
      <trkpt lat="44.12509" lon="5.891">
        <ele>797</ele>
        <time>2019-08-09T09:52:39Z</time>
      </trkpt>
      <trkpt lat="44.12506" lon="5.8911">
        <ele>797</ele>
        <time>2019-08-09T09:52:40Z</time>
      </trkpt>
      <trkpt lat="44.12505" lon="5.89121">
        <ele>797</ele>
        <time>2019-08-09T09:52:41Z</time>
      </trkpt>
      <trkpt lat="44.12508" lon="5.89132">
        <ele>797</ele>
        <time>2019-08-09T09:52:42Z</time>
      </trkpt>
      <trkpt lat="44.12513" lon="5.89143">
        <ele>797</ele>
        <time>2019-08-09T09:52:43Z</time>
      </trkpt>
      <trkpt lat="44.12518" lon="5.89152">
        <ele>797</ele>
        <time>2019-08-09T09:52:44Z</time>
      </trkpt>
      <trkpt lat="44.12525" lon="5.89161">
        <ele>797</ele>
        <time>2019-08-09T09:52:45Z</time>
      </trkpt>
      <trkpt lat="44.12532" lon="5.8917">
        <ele>797</ele>
        <time>2019-08-09T09:52:46Z</time>
      </trkpt>
      <trkpt lat="44.12541" lon="5.89178">
        <ele>797</ele>
        <time>2019-08-09T09:52:47Z</time>
      </trkpt>
      <trkpt lat="44.1255" lon="5.89186">
        <ele>797</ele>
        <time>2019-08-09T09:52:48Z</time>
      </trkpt>
      <trkpt lat="44.12558" lon="5.89196">
        <ele>796</ele>
        <time>2019-08-09T09:52:49Z</time>
      </trkpt>
      <trkpt lat="44.12566" lon="5.89206">
        <ele>795</ele>
        <time>2019-08-09T09:52:50Z</time>
      </trkpt>
      <trkpt lat="44.12575" lon="5.89216">
        <ele>794</ele>
        <time>2019-08-09T09:52:51Z</time>
      </trkpt>
      <trkpt lat="44.12584" lon="5.89225">
        <ele>793</ele>
        <time>2019-08-09T09:52:52Z</time>
      </trkpt>
      <trkpt lat="44.12592" lon="5.89235">
        <ele>792</ele>
        <time>2019-08-09T09:52:53Z</time>
      </trkpt>
      <trkpt lat="44.12601" lon="5.89245">
        <ele>791</ele>
        <time>2019-08-09T09:52:54Z</time>
      </trkpt>
      <trkpt lat="44.12609" lon="5.89254">
        <ele>790</ele>
        <time>2019-08-09T09:52:55Z</time>
      </trkpt>
      <trkpt lat="44.12617" lon="5.89263">
        <ele>789</ele>
        <time>2019-08-09T09:52:56Z</time>
      </trkpt>
      <trkpt lat="44.12624" lon="5.89273">
        <ele>788</ele>
        <time>2019-08-09T09:52:57Z</time>
      </trkpt>
      <trkpt lat="44.12631" lon="5.89282">
        <ele>787</ele>
        <time>2019-08-09T09:52:58Z</time>
      </trkpt>
      <trkpt lat="44.12638" lon="5.89292">
        <ele>787</ele>
        <time>2019-08-09T09:52:59Z</time>
      </trkpt>
      <trkpt lat="44.12645" lon="5.89301">
        <ele>787</ele>
        <time>2019-08-09T09:53:00Z</time>
      </trkpt>
      <trkpt lat="44.12651" lon="5.89311">
        <ele>787</ele>
        <time>2019-08-09T09:53:01Z</time>
      </trkpt>
      <trkpt lat="44.12658" lon="5.89321">
        <ele>787</ele>
        <time>2019-08-09T09:53:02Z</time>
      </trkpt>
      <trkpt lat="44.12663" lon="5.89331">
        <ele>787</ele>
        <time>2019-08-09T09:53:03Z</time>
      </trkpt>
      <trkpt lat="44.12667" lon="5.89341">
        <ele>787</ele>
        <time>2019-08-09T09:53:04Z</time>
      </trkpt>
      <trkpt lat="44.12671" lon="5.89352">
        <ele>787</ele>
        <time>2019-08-09T09:53:05Z</time>
      </trkpt>
      <trkpt lat="44.12673" lon="5.89363">
        <ele>787</ele>
        <time>2019-08-09T09:53:06Z</time>
      </trkpt>
      <trkpt lat="44.12675" lon="5.89375">
        <ele>787</ele>
        <time>2019-08-09T09:53:07Z</time>
      </trkpt>
      <trkpt lat="44.12677" lon="5.89387">
        <ele>786</ele>
        <time>2019-08-09T09:53:08Z</time>
      </trkpt>
      <trkpt lat="44.12679" lon="5.89399">
        <ele>786</ele>
        <time>2019-08-09T09:53:09Z</time>
      </trkpt>
      <trkpt lat="44.1268" lon="5.89413">
        <ele>786</ele>
        <time>2019-08-09T09:53:10Z</time>
      </trkpt>
      <trkpt lat="44.1268" lon="5.89426">
        <ele>785</ele>
        <time>2019-08-09T09:53:11Z</time>
      </trkpt>
      <trkpt lat="44.12677" lon="5.89439">
        <ele>784</ele>
        <time>2019-08-09T09:53:12Z</time>
      </trkpt>
      <trkpt lat="44.12674" lon="5.89451">
        <ele>783</ele>
        <time>2019-08-09T09:53:13Z</time>
      </trkpt>
      <trkpt lat="44.12669" lon="5.89462">
        <ele>782</ele>
        <time>2019-08-09T09:53:14Z</time>
      </trkpt>
      <trkpt lat="44.12661" lon="5.8947">
        <ele>781</ele>
        <time>2019-08-09T09:53:15Z</time>
      </trkpt>
      <trkpt lat="44.12652" lon="5.89479">
        <ele>780</ele>
        <time>2019-08-09T09:53:16Z</time>
      </trkpt>
      <trkpt lat="44.12643" lon="5.89486">
        <ele>779</ele>
        <time>2019-08-09T09:53:17Z</time>
      </trkpt>
      <trkpt lat="44.12634" lon="5.89493">
        <ele>778</ele>
        <time>2019-08-09T09:53:18Z</time>
      </trkpt>
      <trkpt lat="44.12627" lon="5.895">
        <ele>777</ele>
        <time>2019-08-09T09:53:19Z</time>
      </trkpt>
      <trkpt lat="44.12621" lon="5.89507">
        <ele>776</ele>
        <time>2019-08-09T09:53:20Z</time>
      </trkpt>
      <trkpt lat="44.12617" lon="5.89516">
        <ele>775</ele>
        <time>2019-08-09T09:53:21Z</time>
      </trkpt>
      <trkpt lat="44.12614" lon="5.89526">
        <ele>774</ele>
        <time>2019-08-09T09:53:22Z</time>
      </trkpt>
      <trkpt lat="44.12613" lon="5.89535">
        <ele>773</ele>
        <time>2019-08-09T09:53:23Z</time>
      </trkpt>
      <trkpt lat="44.12614" lon="5.89542">
        <ele>772</ele>
        <time>2019-08-09T09:53:24Z</time>
      </trkpt>
      <trkpt lat="44.12622" lon="5.89548">
        <ele>771</ele>
        <time>2019-08-09T09:53:25Z</time>
      </trkpt>
      <trkpt lat="44.12628" lon="5.89552">
        <ele>770</ele>
        <time>2019-08-09T09:53:26Z</time>
      </trkpt>
      <trkpt lat="44.12635" lon="5.89556">
        <ele>769</ele>
        <time>2019-08-09T09:53:27Z</time>
      </trkpt>
      <trkpt lat="44.12643" lon="5.89558">
        <ele>768</ele>
        <time>2019-08-09T09:53:28Z</time>
      </trkpt>
      <trkpt lat="44.1265" lon="5.8956">
        <ele>768</ele>
        <time>2019-08-09T09:53:29Z</time>
      </trkpt>
      <trkpt lat="44.12656" lon="5.89562">
        <ele>768</ele>
        <time>2019-08-09T09:53:30Z</time>
      </trkpt>
      <trkpt lat="44.12662" lon="5.89565">
        <ele>768</ele>
        <time>2019-08-09T09:53:31Z</time>
      </trkpt>
      <trkpt lat="44.12669" lon="5.89567">
        <ele>768</ele>
        <time>2019-08-09T09:53:32Z</time>
      </trkpt>
      <trkpt lat="44.12677" lon="5.89568">
        <ele>768</ele>
        <time>2019-08-09T09:53:33Z</time>
      </trkpt>
      <trkpt lat="44.12683" lon="5.89571">
        <ele>768</ele>
        <time>2019-08-09T09:53:34Z</time>
      </trkpt>
      <trkpt lat="44.1269" lon="5.89573">
        <ele>768</ele>
        <time>2019-08-09T09:53:35Z</time>
      </trkpt>
      <trkpt lat="44.12696" lon="5.89576">
        <ele>768</ele>
        <time>2019-08-09T09:53:36Z</time>
      </trkpt>
      <trkpt lat="44.12703" lon="5.89579">
        <ele>768</ele>
        <time>2019-08-09T09:53:37Z</time>
      </trkpt>
      <trkpt lat="44.12709" lon="5.89584">
        <ele>768</ele>
        <time>2019-08-09T09:53:38Z</time>
      </trkpt>
      <trkpt lat="44.12716" lon="5.89588">
        <ele>768</ele>
        <time>2019-08-09T09:53:39Z</time>
      </trkpt>
      <trkpt lat="44.12721" lon="5.89594">
        <ele>768</ele>
        <time>2019-08-09T09:53:40Z</time>
      </trkpt>
      <trkpt lat="44.12726" lon="5.89601">
        <ele>768</ele>
        <time>2019-08-09T09:53:41Z</time>
      </trkpt>
      <trkpt lat="44.1273" lon="5.89608">
        <ele>768</ele>
        <time>2019-08-09T09:53:42Z</time>
      </trkpt>
      <trkpt lat="44.12734" lon="5.89616">
        <ele>768</ele>
        <time>2019-08-09T09:53:43Z</time>
      </trkpt>
      <trkpt lat="44.12737" lon="5.89626">
        <ele>768</ele>
        <time>2019-08-09T09:53:44Z</time>
      </trkpt>
      <trkpt lat="44.12738" lon="5.89636">
        <ele>768</ele>
        <time>2019-08-09T09:53:45Z</time>
      </trkpt>
      <trkpt lat="44.12738" lon="5.89647">
        <ele>768</ele>
        <time>2019-08-09T09:53:46Z</time>
      </trkpt>
      <trkpt lat="44.12737" lon="5.89658">
        <ele>768</ele>
        <time>2019-08-09T09:53:47Z</time>
      </trkpt>
      <trkpt lat="44.12735" lon="5.8967">
        <ele>768</ele>
        <time>2019-08-09T09:53:48Z</time>
      </trkpt>
      <trkpt lat="44.12733" lon="5.89683">
        <ele>768</ele>
        <time>2019-08-09T09:53:49Z</time>
      </trkpt>
      <trkpt lat="44.12733" lon="5.89696">
        <ele>768</ele>
        <time>2019-08-09T09:53:50Z</time>
      </trkpt>
      <trkpt lat="44.12734" lon="5.89708">
        <ele>768</ele>
        <time>2019-08-09T09:53:51Z</time>
      </trkpt>
      <trkpt lat="44.12735" lon="5.8972">
        <ele>768</ele>
        <time>2019-08-09T09:53:52Z</time>
      </trkpt>
      <trkpt lat="44.12736" lon="5.89732">
        <ele>768</ele>
        <time>2019-08-09T09:53:53Z</time>
      </trkpt>
      <trkpt lat="44.12736" lon="5.89743">
        <ele>768</ele>
        <time>2019-08-09T09:53:54Z</time>
      </trkpt>
      <trkpt lat="44.12734" lon="5.89754">
        <ele>768</ele>
        <time>2019-08-09T09:53:55Z</time>
      </trkpt>
      <trkpt lat="44.12731" lon="5.89764">
        <ele>768</ele>
        <time>2019-08-09T09:53:56Z</time>
      </trkpt>
      <trkpt lat="44.12725" lon="5.89774">
        <ele>768</ele>
        <time>2019-08-09T09:53:57Z</time>
      </trkpt>
      <trkpt lat="44.12718" lon="5.89779">
        <ele>768</ele>
        <time>2019-08-09T09:53:58Z</time>
      </trkpt>
      <trkpt lat="44.12709" lon="5.89785">
        <ele>768</ele>
        <time>2019-08-09T09:53:59Z</time>
      </trkpt>
      <trkpt lat="44.12702" lon="5.89791">
        <ele>768</ele>
        <time>2019-08-09T09:54:00Z</time>
      </trkpt>
      <trkpt lat="44.12695" lon="5.89797">
        <ele>767</ele>
        <time>2019-08-09T09:54:01Z</time>
      </trkpt>
      <trkpt lat="44.12689" lon="5.89806">
        <ele>766</ele>
        <time>2019-08-09T09:54:02Z</time>
      </trkpt>
      <trkpt lat="44.12683" lon="5.89816">
        <ele>765</ele>
        <time>2019-08-09T09:54:03Z</time>
      </trkpt>
      <trkpt lat="44.12679" lon="5.89829">
        <ele>764</ele>
        <time>2019-08-09T09:54:04Z</time>
      </trkpt>
      <trkpt lat="44.12677" lon="5.89844">
        <ele>763</ele>
        <time>2019-08-09T09:54:05Z</time>
      </trkpt>
      <trkpt lat="44.12676" lon="5.89857">
        <ele>762</ele>
        <time>2019-08-09T09:54:06Z</time>
      </trkpt>
      <trkpt lat="44.12675" lon="5.89872">
        <ele>761</ele>
        <time>2019-08-09T09:54:07Z</time>
      </trkpt>
      <trkpt lat="44.12674" lon="5.89886">
        <ele>760</ele>
        <time>2019-08-09T09:54:08Z</time>
      </trkpt>
      <trkpt lat="44.12674" lon="5.899">
        <ele>759</ele>
        <time>2019-08-09T09:54:09Z</time>
      </trkpt>
      <trkpt lat="44.12674" lon="5.89915">
        <ele>758</ele>
        <time>2019-08-09T09:54:10Z</time>
      </trkpt>
      <trkpt lat="44.12675" lon="5.89929">
        <ele>757</ele>
        <time>2019-08-09T09:54:11Z</time>
      </trkpt>
      <trkpt lat="44.12677" lon="5.89944">
        <ele>756</ele>
        <time>2019-08-09T09:54:12Z</time>
      </trkpt>
      <trkpt lat="44.12681" lon="5.89957">
        <ele>755</ele>
        <time>2019-08-09T09:54:13Z</time>
      </trkpt>
      <trkpt lat="44.12686" lon="5.8997">
        <ele>755</ele>
        <time>2019-08-09T09:54:14Z</time>
      </trkpt>
      <trkpt lat="44.12691" lon="5.89983">
        <ele>755</ele>
        <time>2019-08-09T09:54:15Z</time>
      </trkpt>
      <trkpt lat="44.12696" lon="5.89995">
        <ele>755</ele>
        <time>2019-08-09T09:54:16Z</time>
      </trkpt>
      <trkpt lat="44.12702" lon="5.90006">
        <ele>755</ele>
        <time>2019-08-09T09:54:17Z</time>
      </trkpt>
      <trkpt lat="44.12706" lon="5.90017">
        <ele>755</ele>
        <time>2019-08-09T09:54:18Z</time>
      </trkpt>
      <trkpt lat="44.12711" lon="5.90027">
        <ele>755</ele>
        <time>2019-08-09T09:54:19Z</time>
      </trkpt>
      <trkpt lat="44.12717" lon="5.90036">
        <ele>755</ele>
        <time>2019-08-09T09:54:20Z</time>
      </trkpt>
      <trkpt lat="44.12723" lon="5.90043">
        <ele>755</ele>
        <time>2019-08-09T09:54:21Z</time>
      </trkpt>
      <trkpt lat="44.1273" lon="5.90048">
        <ele>755</ele>
        <time>2019-08-09T09:54:22Z</time>
      </trkpt>
      <trkpt lat="44.12738" lon="5.90052">
        <ele>754</ele>
        <time>2019-08-09T09:54:23Z</time>
      </trkpt>
      <trkpt lat="44.12745" lon="5.90054">
        <ele>753</ele>
        <time>2019-08-09T09:54:24Z</time>
      </trkpt>
      <trkpt lat="44.12752" lon="5.90054">
        <ele>752</ele>
        <time>2019-08-09T09:54:25Z</time>
      </trkpt>
      <trkpt lat="44.12758" lon="5.90054">
        <ele>752</ele>
        <time>2019-08-09T09:54:26Z</time>
      </trkpt>
      <trkpt lat="44.12764" lon="5.90053">
        <ele>752</ele>
        <time>2019-08-09T09:54:27Z</time>
      </trkpt>
      <trkpt lat="44.12769" lon="5.90051">
        <ele>752</ele>
        <time>2019-08-09T09:54:28Z</time>
      </trkpt>
      <trkpt lat="44.12775" lon="5.90048">
        <ele>752</ele>
        <time>2019-08-09T09:54:29Z</time>
      </trkpt>
      <trkpt lat="44.1278" lon="5.90045">
        <ele>752</ele>
        <time>2019-08-09T09:54:30Z</time>
      </trkpt>
      <trkpt lat="44.12785" lon="5.90041">
        <ele>752</ele>
        <time>2019-08-09T09:54:31Z</time>
      </trkpt>
      <trkpt lat="44.1279" lon="5.90038">
        <ele>752</ele>
        <time>2019-08-09T09:54:32Z</time>
      </trkpt>
      <trkpt lat="44.12795" lon="5.90035">
        <ele>752</ele>
        <time>2019-08-09T09:54:33Z</time>
      </trkpt>
      <trkpt lat="44.12799" lon="5.90032">
        <ele>753</ele>
        <time>2019-08-09T09:54:34Z</time>
      </trkpt>
      <trkpt lat="44.12804" lon="5.90029">
        <ele>754</ele>
        <time>2019-08-09T09:54:35Z</time>
      </trkpt>
      <trkpt lat="44.12809" lon="5.90026">
        <ele>755</ele>
        <time>2019-08-09T09:54:36Z</time>
      </trkpt>
      <trkpt lat="44.12814" lon="5.90022">
        <ele>756</ele>
        <time>2019-08-09T09:54:37Z</time>
      </trkpt>
      <trkpt lat="44.12817" lon="5.90018">
        <ele>757</ele>
        <time>2019-08-09T09:54:38Z</time>
      </trkpt>
      <trkpt lat="44.12822" lon="5.90015">
        <ele>758</ele>
        <time>2019-08-09T09:54:39Z</time>
      </trkpt>
      <trkpt lat="44.12827" lon="5.90013">
        <ele>759</ele>
        <time>2019-08-09T09:54:40Z</time>
      </trkpt>
      <trkpt lat="44.12831" lon="5.9001">
        <ele>760</ele>
        <time>2019-08-09T09:54:41Z</time>
      </trkpt>
      <trkpt lat="44.12837" lon="5.90011">
        <ele>761</ele>
        <time>2019-08-09T09:54:42Z</time>
      </trkpt>
      <trkpt lat="44.12843" lon="5.90013">
        <ele>761</ele>
        <time>2019-08-09T09:54:43Z</time>
      </trkpt>
      <trkpt lat="44.12848" lon="5.90017">
        <ele>762</ele>
        <time>2019-08-09T09:54:44Z</time>
      </trkpt>
      <trkpt lat="44.12853" lon="5.90021">
        <ele>762</ele>
        <time>2019-08-09T09:54:45Z</time>
      </trkpt>
      <trkpt lat="44.12857" lon="5.90026">
        <ele>762</ele>
        <time>2019-08-09T09:54:46Z</time>
      </trkpt>
      <trkpt lat="44.1286" lon="5.90031">
        <ele>763</ele>
        <time>2019-08-09T09:54:47Z</time>
      </trkpt>
      <trkpt lat="44.12864" lon="5.90037">
        <ele>763</ele>
        <time>2019-08-09T09:54:48Z</time>
      </trkpt>
      <trkpt lat="44.12867" lon="5.90044">
        <ele>763</ele>
        <time>2019-08-09T09:54:49Z</time>
      </trkpt>
      <trkpt lat="44.12872" lon="5.9005">
        <ele>764</ele>
        <time>2019-08-09T09:54:50Z</time>
      </trkpt>
      <trkpt lat="44.12876" lon="5.90057">
        <ele>764</ele>
        <time>2019-08-09T09:54:51Z</time>
      </trkpt>
      <trkpt lat="44.12879" lon="5.90064">
        <ele>764</ele>
        <time>2019-08-09T09:54:52Z</time>
      </trkpt>
      <trkpt lat="44.12883" lon="5.90071">
        <ele>764</ele>
        <time>2019-08-09T09:54:53Z</time>
      </trkpt>
      <trkpt lat="44.12886" lon="5.90078">
        <ele>764</ele>
        <time>2019-08-09T09:54:54Z</time>
      </trkpt>
      <trkpt lat="44.12889" lon="5.90084">
        <ele>764</ele>
        <time>2019-08-09T09:54:55Z</time>
      </trkpt>
      <trkpt lat="44.12893" lon="5.90091">
        <ele>764</ele>
        <time>2019-08-09T09:54:56Z</time>
      </trkpt>
      <trkpt lat="44.12896" lon="5.90097">
        <ele>764</ele>
        <time>2019-08-09T09:54:57Z</time>
      </trkpt>
      <trkpt lat="44.129" lon="5.90103">
        <ele>764</ele>
        <time>2019-08-09T09:54:58Z</time>
      </trkpt>
      <trkpt lat="44.12904" lon="5.9011">
        <ele>764</ele>
        <time>2019-08-09T09:54:59Z</time>
      </trkpt>
      <trkpt lat="44.12909" lon="5.90116">
        <ele>764</ele>
        <time>2019-08-09T09:55:00Z</time>
      </trkpt>
      <trkpt lat="44.12915" lon="5.90121">
        <ele>764</ele>
        <time>2019-08-09T09:55:01Z</time>
      </trkpt>
      <trkpt lat="44.12921" lon="5.90126">
        <ele>764</ele>
        <time>2019-08-09T09:55:02Z</time>
      </trkpt>
      <trkpt lat="44.12928" lon="5.9013">
        <ele>764</ele>
        <time>2019-08-09T09:55:03Z</time>
      </trkpt>
      <trkpt lat="44.12937" lon="5.90134">
        <ele>764</ele>
        <time>2019-08-09T09:55:04Z</time>
      </trkpt>
      <trkpt lat="44.12945" lon="5.90137">
        <ele>764</ele>
        <time>2019-08-09T09:55:05Z</time>
      </trkpt>
      <trkpt lat="44.12954" lon="5.90139">
        <ele>764</ele>
        <time>2019-08-09T09:55:06Z</time>
      </trkpt>
      <trkpt lat="44.12961" lon="5.9014">
        <ele>764</ele>
        <time>2019-08-09T09:55:07Z</time>
      </trkpt>
      <trkpt lat="44.12968" lon="5.9014">
        <ele>764</ele>
        <time>2019-08-09T09:55:08Z</time>
      </trkpt>
      <trkpt lat="44.12976" lon="5.9014">
        <ele>764</ele>
        <time>2019-08-09T09:55:09Z</time>
      </trkpt>
      <trkpt lat="44.12984" lon="5.90139">
        <ele>764</ele>
        <time>2019-08-09T09:55:10Z</time>
      </trkpt>
      <trkpt lat="44.12993" lon="5.9014">
        <ele>764</ele>
        <time>2019-08-09T09:55:11Z</time>
      </trkpt>
      <trkpt lat="44.13002" lon="5.90139">
        <ele>764</ele>
        <time>2019-08-09T09:55:12Z</time>
      </trkpt>
      <trkpt lat="44.1301" lon="5.90139">
        <ele>764</ele>
        <time>2019-08-09T09:55:13Z</time>
      </trkpt>
      <trkpt lat="44.13019" lon="5.90139">
        <ele>764</ele>
        <time>2019-08-09T09:55:14Z</time>
      </trkpt>
      <trkpt lat="44.13027" lon="5.90139">
        <ele>765</ele>
        <time>2019-08-09T09:55:15Z</time>
      </trkpt>
      <trkpt lat="44.13036" lon="5.90138">
        <ele>765</ele>
        <time>2019-08-09T09:55:16Z</time>
      </trkpt>
      <trkpt lat="44.13046" lon="5.90138">
        <ele>766</ele>
        <time>2019-08-09T09:55:17Z</time>
      </trkpt>
      <trkpt lat="44.13054" lon="5.90137">
        <ele>767</ele>
        <time>2019-08-09T09:55:18Z</time>
      </trkpt>
      <trkpt lat="44.13062" lon="5.90137">
        <ele>767</ele>
        <time>2019-08-09T09:55:19Z</time>
      </trkpt>
      <trkpt lat="44.13069" lon="5.90138">
        <ele>767</ele>
        <time>2019-08-09T09:55:20Z</time>
      </trkpt>
      <trkpt lat="44.13075" lon="5.90141">
        <ele>767</ele>
        <time>2019-08-09T09:55:21Z</time>
      </trkpt>
      <trkpt lat="44.1308" lon="5.90145">
        <ele>767</ele>
        <time>2019-08-09T09:55:22Z</time>
      </trkpt>
      <trkpt lat="44.13085" lon="5.90152">
        <ele>767</ele>
        <time>2019-08-09T09:55:23Z</time>
      </trkpt>
      <trkpt lat="44.13088" lon="5.90161">
        <ele>767</ele>
        <time>2019-08-09T09:55:24Z</time>
      </trkpt>
      <trkpt lat="44.13087" lon="5.90173">
        <ele>767</ele>
        <time>2019-08-09T09:55:25Z</time>
      </trkpt>
      <trkpt lat="44.13085" lon="5.90185">
        <ele>767</ele>
        <time>2019-08-09T09:55:26Z</time>
      </trkpt>
      <trkpt lat="44.13081" lon="5.90196">
        <ele>767</ele>
        <time>2019-08-09T09:55:27Z</time>
      </trkpt>
      <trkpt lat="44.13076" lon="5.90207">
        <ele>767</ele>
        <time>2019-08-09T09:55:28Z</time>
      </trkpt>
      <trkpt lat="44.13071" lon="5.90217">
        <ele>767</ele>
        <time>2019-08-09T09:55:29Z</time>
      </trkpt>
      <trkpt lat="44.13066" lon="5.90228">
        <ele>766</ele>
        <time>2019-08-09T09:55:30Z</time>
      </trkpt>
      <trkpt lat="44.1306" lon="5.90239">
        <ele>765</ele>
        <time>2019-08-09T09:55:31Z</time>
      </trkpt>
      <trkpt lat="44.13054" lon="5.90249">
        <ele>764</ele>
        <time>2019-08-09T09:55:32Z</time>
      </trkpt>
      <trkpt lat="44.13049" lon="5.9026">
        <ele>763</ele>
        <time>2019-08-09T09:55:33Z</time>
      </trkpt>
      <trkpt lat="44.13044" lon="5.90271">
        <ele>762</ele>
        <time>2019-08-09T09:55:34Z</time>
      </trkpt>
      <trkpt lat="44.1304" lon="5.90282">
        <ele>761</ele>
        <time>2019-08-09T09:55:35Z</time>
      </trkpt>
      <trkpt lat="44.13036" lon="5.90294">
        <ele>760</ele>
        <time>2019-08-09T09:55:36Z</time>
      </trkpt>
      <trkpt lat="44.13033" lon="5.90306">
        <ele>759</ele>
        <time>2019-08-09T09:55:37Z</time>
      </trkpt>
      <trkpt lat="44.1303" lon="5.90317">
        <ele>758</ele>
        <time>2019-08-09T09:55:38Z</time>
      </trkpt>
      <trkpt lat="44.13028" lon="5.90329">
        <ele>757</ele>
        <time>2019-08-09T09:55:39Z</time>
      </trkpt>
      <trkpt lat="44.13027" lon="5.90341">
        <ele>755</ele>
        <time>2019-08-09T09:55:40Z</time>
      </trkpt>
      <trkpt lat="44.13026" lon="5.90354">
        <ele>753</ele>
        <time>2019-08-09T09:55:41Z</time>
      </trkpt>
      <trkpt lat="44.13027" lon="5.90367">
        <ele>752</ele>
        <time>2019-08-09T09:55:42Z</time>
      </trkpt>
      <trkpt lat="44.13028" lon="5.90381">
        <ele>750</ele>
        <time>2019-08-09T09:55:43Z</time>
      </trkpt>
      <trkpt lat="44.1303" lon="5.90395">
        <ele>749</ele>
        <time>2019-08-09T09:55:44Z</time>
      </trkpt>
      <trkpt lat="44.13032" lon="5.90409">
        <ele>748</ele>
        <time>2019-08-09T09:55:45Z</time>
      </trkpt>
      <trkpt lat="44.13034" lon="5.90422">
        <ele>747</ele>
        <time>2019-08-09T09:55:46Z</time>
      </trkpt>
      <trkpt lat="44.13036" lon="5.90435">
        <ele>745</ele>
        <time>2019-08-09T09:55:47Z</time>
      </trkpt>
      <trkpt lat="44.13037" lon="5.90447">
        <ele>744</ele>
        <time>2019-08-09T09:55:48Z</time>
      </trkpt>
      <trkpt lat="44.13036" lon="5.90458">
        <ele>743</ele>
        <time>2019-08-09T09:55:49Z</time>
      </trkpt>
      <trkpt lat="44.13033" lon="5.90467">
        <ele>742</ele>
        <time>2019-08-09T09:55:50Z</time>
      </trkpt>
      <trkpt lat="44.13026" lon="5.90473">
        <ele>741</ele>
        <time>2019-08-09T09:55:51Z</time>
      </trkpt>
      <trkpt lat="44.13018" lon="5.90478">
        <ele>740</ele>
        <time>2019-08-09T09:55:52Z</time>
      </trkpt>
      <trkpt lat="44.1301" lon="5.90482">
        <ele>739</ele>
        <time>2019-08-09T09:55:53Z</time>
      </trkpt>
      <trkpt lat="44.13002" lon="5.90487">
        <ele>738</ele>
        <time>2019-08-09T09:55:54Z</time>
      </trkpt>
      <trkpt lat="44.12995" lon="5.90493">
        <ele>737</ele>
        <time>2019-08-09T09:55:55Z</time>
      </trkpt>
      <trkpt lat="44.12989" lon="5.90503">
        <ele>736</ele>
        <time>2019-08-09T09:55:56Z</time>
      </trkpt>
      <trkpt lat="44.12983" lon="5.90513">
        <ele>734</ele>
        <time>2019-08-09T09:55:57Z</time>
      </trkpt>
      <trkpt lat="44.1298" lon="5.90525">
        <ele>733</ele>
        <time>2019-08-09T09:55:58Z</time>
      </trkpt>
      <trkpt lat="44.12975" lon="5.90538">
        <ele>731</ele>
        <time>2019-08-09T09:55:59Z</time>
      </trkpt>
      <trkpt lat="44.12976" lon="5.90551">
        <ele>730</ele>
        <time>2019-08-09T09:56:00Z</time>
      </trkpt>
      <trkpt lat="44.1298" lon="5.90561">
        <ele>729</ele>
        <time>2019-08-09T09:56:01Z</time>
      </trkpt>
      <trkpt lat="44.12988" lon="5.9057">
        <ele>727</ele>
        <time>2019-08-09T09:56:02Z</time>
      </trkpt>
      <trkpt lat="44.12996" lon="5.90578">
        <ele>726</ele>
        <time>2019-08-09T09:56:03Z</time>
      </trkpt>
      <trkpt lat="44.13003" lon="5.90586">
        <ele>725</ele>
        <time>2019-08-09T09:56:04Z</time>
      </trkpt>
      <trkpt lat="44.13011" lon="5.90595">
        <ele>724</ele>
        <time>2019-08-09T09:56:05Z</time>
      </trkpt>
      <trkpt lat="44.13019" lon="5.90603">
        <ele>723</ele>
        <time>2019-08-09T09:56:06Z</time>
      </trkpt>
      <trkpt lat="44.13026" lon="5.90613">
        <ele>722</ele>
        <time>2019-08-09T09:56:07Z</time>
      </trkpt>
      <trkpt lat="44.13034" lon="5.90621">
        <ele>721</ele>
        <time>2019-08-09T09:56:08Z</time>
      </trkpt>
      <trkpt lat="44.13043" lon="5.90628">
        <ele>720</ele>
        <time>2019-08-09T09:56:09Z</time>
      </trkpt>
      <trkpt lat="44.13052" lon="5.90633">
        <ele>719</ele>
        <time>2019-08-09T09:56:10Z</time>
      </trkpt>
      <trkpt lat="44.1306" lon="5.90636">
        <ele>718</ele>
        <time>2019-08-09T09:56:11Z</time>
      </trkpt>
      <trkpt lat="44.1307" lon="5.90636">
        <ele>717</ele>
        <time>2019-08-09T09:56:12Z</time>
      </trkpt>
      <trkpt lat="44.13079" lon="5.90635">
        <ele>716</ele>
        <time>2019-08-09T09:56:13Z</time>
      </trkpt>
      <trkpt lat="44.1309" lon="5.90634">
        <ele>715</ele>
        <time>2019-08-09T09:56:14Z</time>
      </trkpt>
      <trkpt lat="44.13101" lon="5.90632">
        <ele>714</ele>
        <time>2019-08-09T09:56:15Z</time>
      </trkpt>
      <trkpt lat="44.13112" lon="5.90629">
        <ele>714</ele>
        <time>2019-08-09T09:56:16Z</time>
      </trkpt>
      <trkpt lat="44.13122" lon="5.90627">
        <ele>714</ele>
        <time>2019-08-09T09:56:17Z</time>
      </trkpt>
      <trkpt lat="44.13133" lon="5.90625">
        <ele>713</ele>
        <time>2019-08-09T09:56:18Z</time>
      </trkpt>
      <trkpt lat="44.13144" lon="5.90623">
        <ele>713</ele>
        <time>2019-08-09T09:56:19Z</time>
      </trkpt>
      <trkpt lat="44.13155" lon="5.90622">
        <ele>712</ele>
        <time>2019-08-09T09:56:20Z</time>
      </trkpt>
      <trkpt lat="44.13167" lon="5.90621">
        <ele>711</ele>
        <time>2019-08-09T09:56:21Z</time>
      </trkpt>
      <trkpt lat="44.13179" lon="5.9062">
        <ele>711</ele>
        <time>2019-08-09T09:56:22Z</time>
      </trkpt>
      <trkpt lat="44.1319" lon="5.90618">
        <ele>710</ele>
        <time>2019-08-09T09:56:23Z</time>
      </trkpt>
      <trkpt lat="44.13202" lon="5.90617">
        <ele>710</ele>
        <time>2019-08-09T09:56:24Z</time>
      </trkpt>
      <trkpt lat="44.13213" lon="5.90616">
        <ele>709</ele>
        <time>2019-08-09T09:56:25Z</time>
      </trkpt>
      <trkpt lat="44.13224" lon="5.90615">
        <ele>708</ele>
        <time>2019-08-09T09:56:26Z</time>
      </trkpt>
      <trkpt lat="44.13234" lon="5.90613">
        <ele>708</ele>
        <time>2019-08-09T09:56:27Z</time>
      </trkpt>
      <trkpt lat="44.13245" lon="5.9061">
        <ele>707</ele>
        <time>2019-08-09T09:56:28Z</time>
      </trkpt>
      <trkpt lat="44.13256" lon="5.90606">
        <ele>706</ele>
        <time>2019-08-09T09:56:29Z</time>
      </trkpt>
      <trkpt lat="44.13266" lon="5.90599">
        <ele>705</ele>
        <time>2019-08-09T09:56:30Z</time>
      </trkpt>
      <trkpt lat="44.13276" lon="5.90592">
        <ele>704</ele>
        <time>2019-08-09T09:56:31Z</time>
      </trkpt>
      <trkpt lat="44.13286" lon="5.90586">
        <ele>703</ele>
        <time>2019-08-09T09:56:32Z</time>
      </trkpt>
      <trkpt lat="44.13296" lon="5.9058">
        <ele>702</ele>
        <time>2019-08-09T09:56:33Z</time>
      </trkpt>
      <trkpt lat="44.13307" lon="5.90576">
        <ele>701</ele>
        <time>2019-08-09T09:56:34Z</time>
      </trkpt>
      <trkpt lat="44.13318" lon="5.90574">
        <ele>700</ele>
        <time>2019-08-09T09:56:35Z</time>
      </trkpt>
      <trkpt lat="44.1333" lon="5.90574">
        <ele>699</ele>
        <time>2019-08-09T09:56:36Z</time>
      </trkpt>
      <trkpt lat="44.13343" lon="5.90576">
        <ele>698</ele>
        <time>2019-08-09T09:56:37Z</time>
      </trkpt>
      <trkpt lat="44.13354" lon="5.90578">
        <ele>697</ele>
        <time>2019-08-09T09:56:38Z</time>
      </trkpt>
      <trkpt lat="44.13366" lon="5.90579">
        <ele>696</ele>
        <time>2019-08-09T09:56:39Z</time>
      </trkpt>
      <trkpt lat="44.13379" lon="5.90581">
        <ele>696</ele>
        <time>2019-08-09T09:56:40Z</time>
      </trkpt>
      <trkpt lat="44.13391" lon="5.90582">
        <ele>695</ele>
        <time>2019-08-09T09:56:41Z</time>
      </trkpt>
      <trkpt lat="44.13403" lon="5.90583">
        <ele>694</ele>
        <time>2019-08-09T09:56:42Z</time>
      </trkpt>
      <trkpt lat="44.13414" lon="5.90585">
        <ele>693</ele>
        <time>2019-08-09T09:56:43Z</time>
      </trkpt>
      <trkpt lat="44.13426" lon="5.90588">
        <ele>692</ele>
        <time>2019-08-09T09:56:44Z</time>
      </trkpt>
      <trkpt lat="44.13438" lon="5.90592">
        <ele>692</ele>
        <time>2019-08-09T09:56:45Z</time>
      </trkpt>
      <trkpt lat="44.1345" lon="5.90596">
        <ele>691</ele>
        <time>2019-08-09T09:56:46Z</time>
      </trkpt>
      <trkpt lat="44.13461" lon="5.90599">
        <ele>690</ele>
        <time>2019-08-09T09:56:47Z</time>
      </trkpt>
      <trkpt lat="44.13472" lon="5.90601">
        <ele>689</ele>
        <time>2019-08-09T09:56:48Z</time>
      </trkpt>
      <trkpt lat="44.13484" lon="5.906">
        <ele>688</ele>
        <time>2019-08-09T09:56:49Z</time>
      </trkpt>
      <trkpt lat="44.13495" lon="5.90597">
        <ele>687</ele>
        <time>2019-08-09T09:56:50Z</time>
      </trkpt>
      <trkpt lat="44.13503" lon="5.90592">
        <ele>686</ele>
        <time>2019-08-09T09:56:51Z</time>
      </trkpt>
      <trkpt lat="44.13511" lon="5.90587">
        <ele>685</ele>
        <time>2019-08-09T09:56:52Z</time>
      </trkpt>
      <trkpt lat="44.13519" lon="5.90582">
        <ele>685</ele>
        <time>2019-08-09T09:56:53Z</time>
      </trkpt>
      <trkpt lat="44.13525" lon="5.90576">
        <ele>684</ele>
        <time>2019-08-09T09:56:54Z</time>
      </trkpt>
      <trkpt lat="44.13529" lon="5.90567">
        <ele>683</ele>
        <time>2019-08-09T09:56:55Z</time>
      </trkpt>
      <trkpt lat="44.13533" lon="5.90558">
        <ele>683</ele>
        <time>2019-08-09T09:56:56Z</time>
      </trkpt>
      <trkpt lat="44.13534" lon="5.90546">
        <ele>682</ele>
        <time>2019-08-09T09:56:57Z</time>
      </trkpt>
      <trkpt lat="44.13535" lon="5.90534">
        <ele>682</ele>
        <time>2019-08-09T09:56:58Z</time>
      </trkpt>
      <trkpt lat="44.13538" lon="5.90522">
        <ele>682</ele>
        <time>2019-08-09T09:56:59Z</time>
      </trkpt>
      <trkpt lat="44.13541" lon="5.90511">
        <ele>682</ele>
        <time>2019-08-09T09:57:00Z</time>
      </trkpt>
      <trkpt lat="44.13545" lon="5.90498">
        <ele>682</ele>
        <time>2019-08-09T09:57:01Z</time>
      </trkpt>
      <trkpt lat="44.13551" lon="5.90488">
        <ele>682</ele>
        <time>2019-08-09T09:57:02Z</time>
      </trkpt>
      <trkpt lat="44.13558" lon="5.90479">
        <ele>682</ele>
        <time>2019-08-09T09:57:03Z</time>
      </trkpt>
      <trkpt lat="44.13566" lon="5.90472">
        <ele>681</ele>
        <time>2019-08-09T09:57:04Z</time>
      </trkpt>
      <trkpt lat="44.13574" lon="5.90465">
        <ele>681</ele>
        <time>2019-08-09T09:57:05Z</time>
      </trkpt>
      <trkpt lat="44.13583" lon="5.90458">
        <ele>681</ele>
        <time>2019-08-09T09:57:06Z</time>
      </trkpt>
      <trkpt lat="44.13592" lon="5.90451">
        <ele>681</ele>
        <time>2019-08-09T09:57:07Z</time>
      </trkpt>
      <trkpt lat="44.13601" lon="5.90446">
        <ele>681</ele>
        <time>2019-08-09T09:57:08Z</time>
      </trkpt>
      <trkpt lat="44.1361" lon="5.90441">
        <ele>680</ele>
        <time>2019-08-09T09:57:09Z</time>
      </trkpt>
      <trkpt lat="44.1362" lon="5.90436">
        <ele>680</ele>
        <time>2019-08-09T09:57:10Z</time>
      </trkpt>
      <trkpt lat="44.13629" lon="5.9043">
        <ele>680</ele>
        <time>2019-08-09T09:57:11Z</time>
      </trkpt>
      <trkpt lat="44.13639" lon="5.90424">
        <ele>680</ele>
        <time>2019-08-09T09:57:12Z</time>
      </trkpt>
      <trkpt lat="44.13649" lon="5.90419">
        <ele>680</ele>
        <time>2019-08-09T09:57:13Z</time>
      </trkpt>
      <trkpt lat="44.1366" lon="5.90415">
        <ele>679</ele>
        <time>2019-08-09T09:57:14Z</time>
      </trkpt>
      <trkpt lat="44.1367" lon="5.90409">
        <ele>678</ele>
        <time>2019-08-09T09:57:15Z</time>
      </trkpt>
      <trkpt lat="44.1368" lon="5.90404">
        <ele>678</ele>
        <time>2019-08-09T09:57:16Z</time>
      </trkpt>
      <trkpt lat="44.1369" lon="5.90399">
        <ele>677</ele>
        <time>2019-08-09T09:57:17Z</time>
      </trkpt>
      <trkpt lat="44.137" lon="5.90394">
        <ele>676</ele>
        <time>2019-08-09T09:57:18Z</time>
      </trkpt>
      <trkpt lat="44.13711" lon="5.9039">
        <ele>675</ele>
        <time>2019-08-09T09:57:19Z</time>
      </trkpt>
      <trkpt lat="44.13721" lon="5.90387">
        <ele>675</ele>
        <time>2019-08-09T09:57:20Z</time>
      </trkpt>
      <trkpt lat="44.13732" lon="5.90383">
        <ele>674</ele>
        <time>2019-08-09T09:57:21Z</time>
      </trkpt>
      <trkpt lat="44.13743" lon="5.90379">
        <ele>674</ele>
        <time>2019-08-09T09:57:22Z</time>
      </trkpt>
      <trkpt lat="44.13752" lon="5.90376">
        <ele>673</ele>
        <time>2019-08-09T09:57:23Z</time>
      </trkpt>
      <trkpt lat="44.13762" lon="5.90373">
        <ele>672</ele>
        <time>2019-08-09T09:57:24Z</time>
      </trkpt>
      <trkpt lat="44.1377" lon="5.9037">
        <ele>672</ele>
        <time>2019-08-09T09:57:25Z</time>
      </trkpt>
      <trkpt lat="44.13779" lon="5.90365">
        <ele>671</ele>
        <time>2019-08-09T09:57:26Z</time>
      </trkpt>
      <trkpt lat="44.13786" lon="5.90358">
        <ele>670</ele>
        <time>2019-08-09T09:57:27Z</time>
      </trkpt>
      <trkpt lat="44.1379" lon="5.90348">
        <ele>669</ele>
        <time>2019-08-09T09:57:28Z</time>
      </trkpt>
      <trkpt lat="44.13794" lon="5.90334">
        <ele>668</ele>
        <time>2019-08-09T09:57:29Z</time>
      </trkpt>
      <trkpt lat="44.13797" lon="5.90318">
        <ele>668</ele>
        <time>2019-08-09T09:57:30Z</time>
      </trkpt>
      <trkpt lat="44.13801" lon="5.90302">
        <ele>667</ele>
        <time>2019-08-09T09:57:31Z</time>
      </trkpt>
      <trkpt lat="44.13806" lon="5.90285">
        <ele>666</ele>
        <time>2019-08-09T09:57:32Z</time>
      </trkpt>
      <trkpt lat="44.13811" lon="5.90269">
        <ele>665</ele>
        <time>2019-08-09T09:57:33Z</time>
      </trkpt>
      <trkpt lat="44.13818" lon="5.90253">
        <ele>664</ele>
        <time>2019-08-09T09:57:34Z</time>
      </trkpt>
      <trkpt lat="44.13825" lon="5.90239">
        <ele>663</ele>
        <time>2019-08-09T09:57:35Z</time>
      </trkpt>
      <trkpt lat="44.13831" lon="5.90224">
        <ele>662</ele>
        <time>2019-08-09T09:57:36Z</time>
      </trkpt>
      <trkpt lat="44.13836" lon="5.90207">
        <ele>661</ele>
        <time>2019-08-09T09:57:37Z</time>
      </trkpt>
      <trkpt lat="44.13841" lon="5.9019">
        <ele>660</ele>
        <time>2019-08-09T09:57:38Z</time>
      </trkpt>
      <trkpt lat="44.13847" lon="5.90174">
        <ele>659</ele>
        <time>2019-08-09T09:57:39Z</time>
      </trkpt>
      <trkpt lat="44.13852" lon="5.90158">
        <ele>658</ele>
        <time>2019-08-09T09:57:40Z</time>
      </trkpt>
      <trkpt lat="44.13857" lon="5.90142">
        <ele>657</ele>
        <time>2019-08-09T09:57:41Z</time>
      </trkpt>
      <trkpt lat="44.13861" lon="5.90126">
        <ele>656</ele>
        <time>2019-08-09T09:57:42Z</time>
      </trkpt>
      <trkpt lat="44.13865" lon="5.90109">
        <ele>655</ele>
        <time>2019-08-09T09:57:43Z</time>
      </trkpt>
      <trkpt lat="44.13868" lon="5.90094">
        <ele>654</ele>
        <time>2019-08-09T09:57:44Z</time>
      </trkpt>
      <trkpt lat="44.13873" lon="5.90079">
        <ele>653</ele>
        <time>2019-08-09T09:57:45Z</time>
      </trkpt>
      <trkpt lat="44.13877" lon="5.90065">
        <ele>652</ele>
        <time>2019-08-09T09:57:46Z</time>
      </trkpt>
      <trkpt lat="44.13881" lon="5.9005">
        <ele>651</ele>
        <time>2019-08-09T09:57:47Z</time>
      </trkpt>
      <trkpt lat="44.13887" lon="5.90036">
        <ele>650</ele>
        <time>2019-08-09T09:57:48Z</time>
      </trkpt>
      <trkpt lat="44.13893" lon="5.90023">
        <ele>649</ele>
        <time>2019-08-09T09:57:49Z</time>
      </trkpt>
      <trkpt lat="44.13901" lon="5.90012">
        <ele>648</ele>
        <time>2019-08-09T09:57:50Z</time>
      </trkpt>
      <trkpt lat="44.1391" lon="5.90003">
        <ele>647</ele>
        <time>2019-08-09T09:57:51Z</time>
      </trkpt>
      <trkpt lat="44.1392" lon="5.89996">
        <ele>646</ele>
        <time>2019-08-09T09:57:52Z</time>
      </trkpt>
      <trkpt lat="44.1393" lon="5.89988">
        <ele>645</ele>
        <time>2019-08-09T09:57:53Z</time>
      </trkpt>
      <trkpt lat="44.1394" lon="5.8998">
        <ele>644</ele>
        <time>2019-08-09T09:57:54Z</time>
      </trkpt>
      <trkpt lat="44.13948" lon="5.8997">
        <ele>643</ele>
        <time>2019-08-09T09:57:55Z</time>
      </trkpt>
      <trkpt lat="44.13954" lon="5.89957">
        <ele>642</ele>
        <time>2019-08-09T09:57:56Z</time>
      </trkpt>
      <trkpt lat="44.1396" lon="5.89942">
        <ele>641</ele>
        <time>2019-08-09T09:57:57Z</time>
      </trkpt>
      <trkpt lat="44.13967" lon="5.89928">
        <ele>640</ele>
        <time>2019-08-09T09:57:58Z</time>
      </trkpt>
      <trkpt lat="44.13975" lon="5.89917">
        <ele>639</ele>
        <time>2019-08-09T09:57:59Z</time>
      </trkpt>
      <trkpt lat="44.13984" lon="5.89906">
        <ele>637</ele>
        <time>2019-08-09T09:58:00Z</time>
      </trkpt>
      <trkpt lat="44.13993" lon="5.89896">
        <ele>636</ele>
        <time>2019-08-09T09:58:01Z</time>
      </trkpt>
      <trkpt lat="44.14002" lon="5.89887">
        <ele>635</ele>
        <time>2019-08-09T09:58:02Z</time>
      </trkpt>
      <trkpt lat="44.14011" lon="5.89876">
        <ele>634</ele>
        <time>2019-08-09T09:58:03Z</time>
      </trkpt>
      <trkpt lat="44.14019" lon="5.89865">
        <ele>633</ele>
        <time>2019-08-09T09:58:04Z</time>
      </trkpt>
      <trkpt lat="44.14027" lon="5.89852">
        <ele>632</ele>
        <time>2019-08-09T09:58:05Z</time>
      </trkpt>
      <trkpt lat="44.14035" lon="5.89838">
        <ele>631</ele>
        <time>2019-08-09T09:58:06Z</time>
      </trkpt>
      <trkpt lat="44.14043" lon="5.89824">
        <ele>630</ele>
        <time>2019-08-09T09:58:07Z</time>
      </trkpt>
      <trkpt lat="44.14051" lon="5.8981">
        <ele>629</ele>
        <time>2019-08-09T09:58:08Z</time>
      </trkpt>
      <trkpt lat="44.14058" lon="5.89795">
        <ele>628</ele>
        <time>2019-08-09T09:58:09Z</time>
      </trkpt>
      <trkpt lat="44.14066" lon="5.89781">
        <ele>627</ele>
        <time>2019-08-09T09:58:10Z</time>
      </trkpt>
      <trkpt lat="44.14075" lon="5.89767">
        <ele>626</ele>
        <time>2019-08-09T09:58:11Z</time>
      </trkpt>
      <trkpt lat="44.14083" lon="5.89755">
        <ele>625</ele>
        <time>2019-08-09T09:58:12Z</time>
      </trkpt>
      <trkpt lat="44.14092" lon="5.89743">
        <ele>624</ele>
        <time>2019-08-09T09:58:13Z</time>
      </trkpt>
      <trkpt lat="44.14101" lon="5.89731">
        <ele>623</ele>
        <time>2019-08-09T09:58:14Z</time>
      </trkpt>
      <trkpt lat="44.1411" lon="5.8972">
        <ele>622</ele>
        <time>2019-08-09T09:58:15Z</time>
      </trkpt>
      <trkpt lat="44.14119" lon="5.89711">
        <ele>621</ele>
        <time>2019-08-09T09:58:16Z</time>
      </trkpt>
      <trkpt lat="44.14129" lon="5.89701">
        <ele>620</ele>
        <time>2019-08-09T09:58:17Z</time>
      </trkpt>
      <trkpt lat="44.14138" lon="5.89691">
        <ele>619</ele>
        <time>2019-08-09T09:58:18Z</time>
      </trkpt>
      <trkpt lat="44.14147" lon="5.89681">
        <ele>618</ele>
        <time>2019-08-09T09:58:19Z</time>
      </trkpt>
      <trkpt lat="44.14156" lon="5.8967">
        <ele>617</ele>
        <time>2019-08-09T09:58:20Z</time>
      </trkpt>
      <trkpt lat="44.14164" lon="5.89658">
        <ele>616</ele>
        <time>2019-08-09T09:58:21Z</time>
      </trkpt>
      <trkpt lat="44.14172" lon="5.89646">
        <ele>615</ele>
        <time>2019-08-09T09:58:22Z</time>
      </trkpt>
      <trkpt lat="44.14181" lon="5.89635">
        <ele>614</ele>
        <time>2019-08-09T09:58:23Z</time>
      </trkpt>
      <trkpt lat="44.14188" lon="5.89624">
        <ele>613</ele>
        <time>2019-08-09T09:58:24Z</time>
      </trkpt>
      <trkpt lat="44.14196" lon="5.89612">
        <ele>613</ele>
        <time>2019-08-09T09:58:25Z</time>
      </trkpt>
      <trkpt lat="44.14204" lon="5.89601">
        <ele>612</ele>
        <time>2019-08-09T09:58:26Z</time>
      </trkpt>
      <trkpt lat="44.14212" lon="5.8959">
        <ele>611</ele>
        <time>2019-08-09T09:58:27Z</time>
      </trkpt>
      <trkpt lat="44.14221" lon="5.89579">
        <ele>611</ele>
        <time>2019-08-09T09:58:28Z</time>
      </trkpt>
      <trkpt lat="44.1423" lon="5.89569">
        <ele>610</ele>
        <time>2019-08-09T09:58:29Z</time>
      </trkpt>
      <trkpt lat="44.14239" lon="5.8956">
        <ele>609</ele>
        <time>2019-08-09T09:58:30Z</time>
      </trkpt>
      <trkpt lat="44.14249" lon="5.89553">
        <ele>609</ele>
        <time>2019-08-09T09:58:31Z</time>
      </trkpt>
      <trkpt lat="44.14258" lon="5.89546">
        <ele>608</ele>
        <time>2019-08-09T09:58:32Z</time>
      </trkpt>
      <trkpt lat="44.14267" lon="5.89539">
        <ele>607</ele>
        <time>2019-08-09T09:58:33Z</time>
      </trkpt>
      <trkpt lat="44.14275" lon="5.89532">
        <ele>606</ele>
        <time>2019-08-09T09:58:34Z</time>
      </trkpt>
      <trkpt lat="44.14282" lon="5.89522">
        <ele>605</ele>
        <time>2019-08-09T09:58:35Z</time>
      </trkpt>
      <trkpt lat="44.14289" lon="5.89512">
        <ele>604</ele>
        <time>2019-08-09T09:58:36Z</time>
      </trkpt>
      <trkpt lat="44.14296" lon="5.89502">
        <ele>604</ele>
        <time>2019-08-09T09:58:37Z</time>
      </trkpt>
      <trkpt lat="44.14303" lon="5.89491">
        <ele>603</ele>
        <time>2019-08-09T09:58:38Z</time>
      </trkpt>
      <trkpt lat="44.1431" lon="5.89479">
        <ele>602</ele>
        <time>2019-08-09T09:58:39Z</time>
      </trkpt>
      <trkpt lat="44.14317" lon="5.89468">
        <ele>602</ele>
        <time>2019-08-09T09:58:40Z</time>
      </trkpt>
      <trkpt lat="44.14324" lon="5.89458">
        <ele>601</ele>
        <time>2019-08-09T09:58:41Z</time>
      </trkpt>
      <trkpt lat="44.14331" lon="5.89447">
        <ele>601</ele>
        <time>2019-08-09T09:58:42Z</time>
      </trkpt>
      <trkpt lat="44.14338" lon="5.89436">
        <ele>601</ele>
        <time>2019-08-09T09:58:43Z</time>
      </trkpt>
      <trkpt lat="44.14344" lon="5.89426">
        <ele>601</ele>
        <time>2019-08-09T09:58:44Z</time>
      </trkpt>
      <trkpt lat="44.14351" lon="5.89414">
        <ele>600</ele>
        <time>2019-08-09T09:58:45Z</time>
      </trkpt>
      <trkpt lat="44.14358" lon="5.89403">
        <ele>600</ele>
        <time>2019-08-09T09:58:46Z</time>
      </trkpt>
      <trkpt lat="44.14365" lon="5.89393">
        <ele>600</ele>
        <time>2019-08-09T09:58:47Z</time>
      </trkpt>
      <trkpt lat="44.14373" lon="5.89383">
        <ele>599</ele>
        <time>2019-08-09T09:58:48Z</time>
      </trkpt>
      <trkpt lat="44.14381" lon="5.89374">
        <ele>598</ele>
        <time>2019-08-09T09:58:49Z</time>
      </trkpt>
      <trkpt lat="44.14389" lon="5.89365">
        <ele>598</ele>
        <time>2019-08-09T09:58:50Z</time>
      </trkpt>
      <trkpt lat="44.14395" lon="5.89353">
        <ele>597</ele>
        <time>2019-08-09T09:58:51Z</time>
      </trkpt>
      <trkpt lat="44.144" lon="5.8934">
        <ele>596</ele>
        <time>2019-08-09T09:58:52Z</time>
      </trkpt>
      <trkpt lat="44.14406" lon="5.89327">
        <ele>596</ele>
        <time>2019-08-09T09:58:53Z</time>
      </trkpt>
      <trkpt lat="44.14411" lon="5.89314">
        <ele>595</ele>
        <time>2019-08-09T09:58:54Z</time>
      </trkpt>
      <trkpt lat="44.14418" lon="5.89302">
        <ele>595</ele>
        <time>2019-08-09T09:58:55Z</time>
      </trkpt>
      <trkpt lat="44.14424" lon="5.8929">
        <ele>594</ele>
        <time>2019-08-09T09:58:56Z</time>
      </trkpt>
      <trkpt lat="44.14431" lon="5.89277">
        <ele>594</ele>
        <time>2019-08-09T09:58:57Z</time>
      </trkpt>
      <trkpt lat="44.14437" lon="5.89265">
        <ele>594</ele>
        <time>2019-08-09T09:58:58Z</time>
      </trkpt>
      <trkpt lat="44.14444" lon="5.89252">
        <ele>594</ele>
        <time>2019-08-09T09:58:59Z</time>
      </trkpt>
      <trkpt lat="44.1445" lon="5.8924">
        <ele>594</ele>
        <time>2019-08-09T09:59:00Z</time>
      </trkpt>
      <trkpt lat="44.14457" lon="5.89227">
        <ele>594</ele>
        <time>2019-08-09T09:59:01Z</time>
      </trkpt>
      <trkpt lat="44.14463" lon="5.89214">
        <ele>594</ele>
        <time>2019-08-09T09:59:02Z</time>
      </trkpt>
      <trkpt lat="44.14469" lon="5.89201">
        <ele>594</ele>
        <time>2019-08-09T09:59:03Z</time>
      </trkpt>
      <trkpt lat="44.14475" lon="5.89189">
        <ele>594</ele>
        <time>2019-08-09T09:59:04Z</time>
      </trkpt>
      <trkpt lat="44.14481" lon="5.89176">
        <ele>593</ele>
        <time>2019-08-09T09:59:05Z</time>
      </trkpt>
      <trkpt lat="44.14486" lon="5.89162">
        <ele>593</ele>
        <time>2019-08-09T09:59:06Z</time>
      </trkpt>
      <trkpt lat="44.14491" lon="5.89148">
        <ele>593</ele>
        <time>2019-08-09T09:59:07Z</time>
      </trkpt>
      <trkpt lat="44.14495" lon="5.89133">
        <ele>593</ele>
        <time>2019-08-09T09:59:08Z</time>
      </trkpt>
      <trkpt lat="44.14499" lon="5.89119">
        <ele>592</ele>
        <time>2019-08-09T09:59:09Z</time>
      </trkpt>
      <trkpt lat="44.14501" lon="5.89104">
        <ele>591</ele>
        <time>2019-08-09T09:59:10Z</time>
      </trkpt>
      <trkpt lat="44.14503" lon="5.89089">
        <ele>591</ele>
        <time>2019-08-09T09:59:11Z</time>
      </trkpt>
      <trkpt lat="44.14506" lon="5.89075">
        <ele>590</ele>
        <time>2019-08-09T09:59:12Z</time>
      </trkpt>
      <trkpt lat="44.14509" lon="5.89062">
        <ele>589</ele>
        <time>2019-08-09T09:59:13Z</time>
      </trkpt>
      <trkpt lat="44.14515" lon="5.89051">
        <ele>588</ele>
        <time>2019-08-09T09:59:14Z</time>
      </trkpt>
      <trkpt lat="44.14522" lon="5.89042">
        <ele>587</ele>
        <time>2019-08-09T09:59:15Z</time>
      </trkpt>
      <trkpt lat="44.1453" lon="5.89035">
        <ele>587</ele>
        <time>2019-08-09T09:59:16Z</time>
      </trkpt>
      <trkpt lat="44.14539" lon="5.89028">
        <ele>586</ele>
        <time>2019-08-09T09:59:17Z</time>
      </trkpt>
      <trkpt lat="44.14549" lon="5.89022">
        <ele>585</ele>
        <time>2019-08-09T09:59:18Z</time>
      </trkpt>
      <trkpt lat="44.14559" lon="5.89016">
        <ele>584</ele>
        <time>2019-08-09T09:59:19Z</time>
      </trkpt>
      <trkpt lat="44.1457" lon="5.89011">
        <ele>583</ele>
        <time>2019-08-09T09:59:20Z</time>
      </trkpt>
      <trkpt lat="44.14581" lon="5.89006">
        <ele>582</ele>
        <time>2019-08-09T09:59:21Z</time>
      </trkpt>
      <trkpt lat="44.14591" lon="5.89001">
        <ele>581</ele>
        <time>2019-08-09T09:59:22Z</time>
      </trkpt>
      <trkpt lat="44.146" lon="5.88996">
        <ele>580</ele>
        <time>2019-08-09T09:59:23Z</time>
      </trkpt>
      <trkpt lat="44.14609" lon="5.88988">
        <ele>579</ele>
        <time>2019-08-09T09:59:24Z</time>
      </trkpt>
      <trkpt lat="44.14617" lon="5.88978">
        <ele>578</ele>
        <time>2019-08-09T09:59:25Z</time>
      </trkpt>
      <trkpt lat="44.14624" lon="5.88967">
        <ele>577</ele>
        <time>2019-08-09T09:59:26Z</time>
      </trkpt>
      <trkpt lat="44.14629" lon="5.88954">
        <ele>576</ele>
        <time>2019-08-09T09:59:27Z</time>
      </trkpt>
      <trkpt lat="44.14633" lon="5.88939">
        <ele>575</ele>
        <time>2019-08-09T09:59:28Z</time>
      </trkpt>
      <trkpt lat="44.14637" lon="5.88925">
        <ele>574</ele>
        <time>2019-08-09T09:59:29Z</time>
      </trkpt>
      <trkpt lat="44.1464" lon="5.88911">
        <ele>573</ele>
        <time>2019-08-09T09:59:30Z</time>
      </trkpt>
      <trkpt lat="44.14642" lon="5.88897">
        <ele>573</ele>
        <time>2019-08-09T09:59:31Z</time>
      </trkpt>
      <trkpt lat="44.14644" lon="5.88884">
        <ele>573</ele>
        <time>2019-08-09T09:59:32Z</time>
      </trkpt>
      <trkpt lat="44.14645" lon="5.88872">
        <ele>573</ele>
        <time>2019-08-09T09:59:33Z</time>
      </trkpt>
      <trkpt lat="44.14645" lon="5.88861">
        <ele>573</ele>
        <time>2019-08-09T09:59:34Z</time>
      </trkpt>
      <trkpt lat="44.14644" lon="5.88851">
        <ele>573</ele>
        <time>2019-08-09T09:59:35Z</time>
      </trkpt>
      <trkpt lat="44.14642" lon="5.88841">
        <ele>573</ele>
        <time>2019-08-09T09:59:36Z</time>
      </trkpt>
      <trkpt lat="44.1464" lon="5.88832">
        <ele>573</ele>
        <time>2019-08-09T09:59:37Z</time>
      </trkpt>
      <trkpt lat="44.14638" lon="5.88823">
        <ele>573</ele>
        <time>2019-08-09T09:59:38Z</time>
      </trkpt>
      <trkpt lat="44.14635" lon="5.88814">
        <ele>573</ele>
        <time>2019-08-09T09:59:39Z</time>
      </trkpt>
      <trkpt lat="44.14633" lon="5.88805">
        <ele>573</ele>
        <time>2019-08-09T09:59:40Z</time>
      </trkpt>
      <trkpt lat="44.14631" lon="5.88797">
        <ele>573</ele>
        <time>2019-08-09T09:59:41Z</time>
      </trkpt>
      <trkpt lat="44.14629" lon="5.88789">
        <ele>573</ele>
        <time>2019-08-09T09:59:42Z</time>
      </trkpt>
      <trkpt lat="44.14628" lon="5.88781">
        <ele>573</ele>
        <time>2019-08-09T09:59:43Z</time>
      </trkpt>
      <trkpt lat="44.14627" lon="5.88773">
        <ele>573</ele>
        <time>2019-08-09T09:59:44Z</time>
      </trkpt>
      <trkpt lat="44.14627" lon="5.88766">
        <ele>573</ele>
        <time>2019-08-09T09:59:45Z</time>
      </trkpt>
      <trkpt lat="44.14628" lon="5.88758">
        <ele>573</ele>
        <time>2019-08-09T09:59:46Z</time>
      </trkpt>
      <trkpt lat="44.14629" lon="5.88751">
        <ele>573</ele>
        <time>2019-08-09T09:59:47Z</time>
      </trkpt>
      <trkpt lat="44.14632" lon="5.88743">
        <ele>573</ele>
        <time>2019-08-09T09:59:48Z</time>
      </trkpt>
      <trkpt lat="44.14635" lon="5.88735">
        <ele>573</ele>
        <time>2019-08-09T09:59:49Z</time>
      </trkpt>
      <trkpt lat="44.14638" lon="5.88728">
        <ele>573</ele>
        <time>2019-08-09T09:59:50Z</time>
      </trkpt>
      <trkpt lat="44.14643" lon="5.88721">
        <ele>573</ele>
        <time>2019-08-09T09:59:51Z</time>
      </trkpt>
      <trkpt lat="44.14648" lon="5.88714">
        <ele>573</ele>
        <time>2019-08-09T09:59:52Z</time>
      </trkpt>
      <trkpt lat="44.14654" lon="5.88708">
        <ele>573</ele>
        <time>2019-08-09T09:59:53Z</time>
      </trkpt>
      <trkpt lat="44.1466" lon="5.88701">
        <ele>573</ele>
        <time>2019-08-09T09:59:54Z</time>
      </trkpt>
      <trkpt lat="44.14666" lon="5.88695">
        <ele>573</ele>
        <time>2019-08-09T09:59:55Z</time>
      </trkpt>
      <trkpt lat="44.14672" lon="5.88688">
        <ele>573</ele>
        <time>2019-08-09T09:59:56Z</time>
      </trkpt>
      <trkpt lat="44.14678" lon="5.88682">
        <ele>573</ele>
        <time>2019-08-09T09:59:57Z</time>
      </trkpt>
      <trkpt lat="44.14684" lon="5.88675">
        <ele>573</ele>
        <time>2019-08-09T09:59:58Z</time>
      </trkpt>
      <trkpt lat="44.14691" lon="5.88669">
        <ele>573</ele>
        <time>2019-08-09T09:59:59Z</time>
      </trkpt>
      <trkpt lat="44.14698" lon="5.88663">
        <ele>573</ele>
        <time>2019-08-09T10:00:00Z</time>
      </trkpt>
      <trkpt lat="44.14705" lon="5.88657">
        <ele>573</ele>
        <time>2019-08-09T10:00:01Z</time>
      </trkpt>
      <trkpt lat="44.14713" lon="5.88651">
        <ele>573</ele>
        <time>2019-08-09T10:00:02Z</time>
      </trkpt>
      <trkpt lat="44.1472" lon="5.88644">
        <ele>573</ele>
        <time>2019-08-09T10:00:03Z</time>
      </trkpt>
      <trkpt lat="44.14728" lon="5.88638">
        <ele>573</ele>
        <time>2019-08-09T10:00:04Z</time>
      </trkpt>
      <trkpt lat="44.14736" lon="5.88631">
        <ele>573</ele>
        <time>2019-08-09T10:00:05Z</time>
      </trkpt>
      <trkpt lat="44.14743" lon="5.88624">
        <ele>573</ele>
        <time>2019-08-09T10:00:06Z</time>
      </trkpt>
      <trkpt lat="44.14751" lon="5.88616">
        <ele>573</ele>
        <time>2019-08-09T10:00:07Z</time>
      </trkpt>
      <trkpt lat="44.14759" lon="5.88608">
        <ele>573</ele>
        <time>2019-08-09T10:00:08Z</time>
      </trkpt>
      <trkpt lat="44.14766" lon="5.88599">
        <ele>572</ele>
        <time>2019-08-09T10:00:09Z</time>
      </trkpt>
      <trkpt lat="44.14773" lon="5.8859">
        <ele>571</ele>
        <time>2019-08-09T10:00:10Z</time>
      </trkpt>
      <trkpt lat="44.1478" lon="5.88582">
        <ele>570</ele>
        <time>2019-08-09T10:00:11Z</time>
      </trkpt>
      <trkpt lat="44.14787" lon="5.88573">
        <ele>570</ele>
        <time>2019-08-09T10:00:12Z</time>
      </trkpt>
      <trkpt lat="44.14795" lon="5.88564">
        <ele>569</ele>
        <time>2019-08-09T10:00:13Z</time>
      </trkpt>
      <trkpt lat="44.14803" lon="5.88555">
        <ele>568</ele>
        <time>2019-08-09T10:00:14Z</time>
      </trkpt>
      <trkpt lat="44.1481" lon="5.88547">
        <ele>568</ele>
        <time>2019-08-09T10:00:15Z</time>
      </trkpt>
      <trkpt lat="44.14817" lon="5.8854">
        <ele>567</ele>
        <time>2019-08-09T10:00:16Z</time>
      </trkpt>
      <trkpt lat="44.14823" lon="5.88531">
        <ele>567</ele>
        <time>2019-08-09T10:00:17Z</time>
      </trkpt>
      <trkpt lat="44.14827" lon="5.88522">
        <ele>567</ele>
        <time>2019-08-09T10:00:18Z</time>
      </trkpt>
      <trkpt lat="44.14828" lon="5.88511">
        <ele>566</ele>
        <time>2019-08-09T10:00:19Z</time>
      </trkpt>
      <trkpt lat="44.14827" lon="5.88499">
        <ele>566</ele>
        <time>2019-08-09T10:00:20Z</time>
      </trkpt>
      <trkpt lat="44.14825" lon="5.88488">
        <ele>565</ele>
        <time>2019-08-09T10:00:21Z</time>
      </trkpt>
      <trkpt lat="44.14822" lon="5.88477">
        <ele>565</ele>
        <time>2019-08-09T10:00:22Z</time>
      </trkpt>
      <trkpt lat="44.1482" lon="5.88466">
        <ele>564</ele>
        <time>2019-08-09T10:00:23Z</time>
      </trkpt>
      <trkpt lat="44.14818" lon="5.88455">
        <ele>564</ele>
        <time>2019-08-09T10:00:24Z</time>
      </trkpt>
      <trkpt lat="44.14818" lon="5.88444">
        <ele>564</ele>
        <time>2019-08-09T10:00:25Z</time>
      </trkpt>
      <trkpt lat="44.14819" lon="5.88434">
        <ele>564</ele>
        <time>2019-08-09T10:00:26Z</time>
      </trkpt>
      <trkpt lat="44.1482" lon="5.88423">
        <ele>564</ele>
        <time>2019-08-09T10:00:27Z</time>
      </trkpt>
      <trkpt lat="44.14822" lon="5.88413">
        <ele>564</ele>
        <time>2019-08-09T10:00:28Z</time>
      </trkpt>
      <trkpt lat="44.14824" lon="5.88402">
        <ele>564</ele>
        <time>2019-08-09T10:00:29Z</time>
      </trkpt>
      <trkpt lat="44.14825" lon="5.88391">
        <ele>564</ele>
        <time>2019-08-09T10:00:30Z</time>
      </trkpt>
      <trkpt lat="44.14827" lon="5.8838">
        <ele>564</ele>
        <time>2019-08-09T10:00:31Z</time>
      </trkpt>
      <trkpt lat="44.14829" lon="5.88369">
        <ele>563</ele>
        <time>2019-08-09T10:00:32Z</time>
      </trkpt>
      <trkpt lat="44.14831" lon="5.88358">
        <ele>563</ele>
        <time>2019-08-09T10:00:33Z</time>
      </trkpt>
      <trkpt lat="44.14833" lon="5.88347">
        <ele>563</ele>
        <time>2019-08-09T10:00:34Z</time>
      </trkpt>
      <trkpt lat="44.14834" lon="5.88336">
        <ele>563</ele>
        <time>2019-08-09T10:00:35Z</time>
      </trkpt>
      <trkpt lat="44.14836" lon="5.88324">
        <ele>562</ele>
        <time>2019-08-09T10:00:36Z</time>
      </trkpt>
      <trkpt lat="44.14838" lon="5.88313">
        <ele>562</ele>
        <time>2019-08-09T10:00:37Z</time>
      </trkpt>
      <trkpt lat="44.14841" lon="5.88302">
        <ele>562</ele>
        <time>2019-08-09T10:00:38Z</time>
      </trkpt>
      <trkpt lat="44.14844" lon="5.88291">
        <ele>562</ele>
        <time>2019-08-09T10:00:39Z</time>
      </trkpt>
      <trkpt lat="44.14848" lon="5.88279">
        <ele>561</ele>
        <time>2019-08-09T10:00:40Z</time>
      </trkpt>
      <trkpt lat="44.14851" lon="5.88268">
        <ele>561</ele>
        <time>2019-08-09T10:00:41Z</time>
      </trkpt>
      <trkpt lat="44.14854" lon="5.88257">
        <ele>561</ele>
        <time>2019-08-09T10:00:42Z</time>
      </trkpt>
      <trkpt lat="44.14856" lon="5.88245">
        <ele>561</ele>
        <time>2019-08-09T10:00:43Z</time>
      </trkpt>
      <trkpt lat="44.14856" lon="5.88234">
        <ele>561</ele>
        <time>2019-08-09T10:00:44Z</time>
      </trkpt>
      <trkpt lat="44.14855" lon="5.88223">
        <ele>561</ele>
        <time>2019-08-09T10:00:45Z</time>
      </trkpt>
      <trkpt lat="44.14853" lon="5.88212">
        <ele>561</ele>
        <time>2019-08-09T10:00:46Z</time>
      </trkpt>
      <trkpt lat="44.14849" lon="5.882">
        <ele>561</ele>
        <time>2019-08-09T10:00:47Z</time>
      </trkpt>
      <trkpt lat="44.14846" lon="5.88189">
        <ele>560</ele>
        <time>2019-08-09T10:00:48Z</time>
      </trkpt>
      <trkpt lat="44.14843" lon="5.88178">
        <ele>560</ele>
        <time>2019-08-09T10:00:49Z</time>
      </trkpt>
      <trkpt lat="44.1484" lon="5.88167">
        <ele>560</ele>
        <time>2019-08-09T10:00:50Z</time>
      </trkpt>
      <trkpt lat="44.14837" lon="5.88156">
        <ele>559</ele>
        <time>2019-08-09T10:00:51Z</time>
      </trkpt>
      <trkpt lat="44.14834" lon="5.88145">
        <ele>559</ele>
        <time>2019-08-09T10:00:52Z</time>
      </trkpt>
      <trkpt lat="44.1483" lon="5.88134">
        <ele>558</ele>
        <time>2019-08-09T10:00:53Z</time>
      </trkpt>
      <trkpt lat="44.14827" lon="5.88125">
        <ele>558</ele>
        <time>2019-08-09T10:00:54Z</time>
      </trkpt>
      <trkpt lat="44.14823" lon="5.88115">
        <ele>557</ele>
        <time>2019-08-09T10:00:55Z</time>
      </trkpt>
      <trkpt lat="44.14818" lon="5.88106">
        <ele>556</ele>
        <time>2019-08-09T10:00:56Z</time>
      </trkpt>
      <trkpt lat="44.14813" lon="5.88098">
        <ele>556</ele>
        <time>2019-08-09T10:00:57Z</time>
      </trkpt>
      <trkpt lat="44.14807" lon="5.88089">
        <ele>556</ele>
        <time>2019-08-09T10:00:58Z</time>
      </trkpt>
      <trkpt lat="44.14802" lon="5.8808">
        <ele>555</ele>
        <time>2019-08-09T10:00:59Z</time>
      </trkpt>
      <trkpt lat="44.14798" lon="5.88072">
        <ele>555</ele>
        <time>2019-08-09T10:01:00Z</time>
      </trkpt>
      <trkpt lat="44.14793" lon="5.88065">
        <ele>554</ele>
        <time>2019-08-09T10:01:01Z</time>
      </trkpt>
      <trkpt lat="44.1479" lon="5.88059">
        <ele>554</ele>
        <time>2019-08-09T10:01:02Z</time>
      </trkpt>
      <trkpt lat="44.14788" lon="5.88052">
        <ele>554</ele>
        <time>2019-08-09T10:01:03Z</time>
      </trkpt>
      <trkpt lat="44.14786" lon="5.88046">
        <ele>554</ele>
        <time>2019-08-09T10:01:04Z</time>
      </trkpt>
      <trkpt lat="44.14785" lon="5.88041">
        <ele>553</ele>
        <time>2019-08-09T10:01:05Z</time>
      </trkpt>
      <trkpt lat="44.14784" lon="5.88036">
        <ele>553</ele>
        <time>2019-08-09T10:01:06Z</time>
      </trkpt>
      <trkpt lat="44.14783" lon="5.88031">
        <ele>553</ele>
        <time>2019-08-09T10:01:07Z</time>
      </trkpt>
      <trkpt lat="44.14782" lon="5.88026">
        <ele>553</ele>
        <time>2019-08-09T10:01:08Z</time>
      </trkpt>
      <trkpt lat="44.14782" lon="5.88023">
        <ele>553</ele>
        <time>2019-08-09T10:01:09Z</time>
      </trkpt>
      <trkpt lat="44.14781" lon="5.8802">
        <ele>553</ele>
        <time>2019-08-09T10:01:10Z</time>
      </trkpt>
      <trkpt lat="44.1478" lon="5.88017">
        <ele>553</ele>
        <time>2019-08-09T10:01:11Z</time>
      </trkpt>
      <trkpt lat="44.14779" lon="5.88015">
        <ele>553</ele>
        <time>2019-08-09T10:01:14Z</time>
      </trkpt>
      <trkpt lat="44.1478" lon="5.88013">
        <ele>553</ele>
        <time>2019-08-09T10:01:18Z</time>
      </trkpt>
      <trkpt lat="44.14781" lon="5.88015">
        <ele>553</ele>
        <time>2019-08-09T10:01:21Z</time>
      </trkpt>
      <trkpt lat="44.14782" lon="5.88016">
        <ele>553</ele>
        <time>2019-08-09T10:01:25Z</time>
      </trkpt>
      <trkpt lat="44.14783" lon="5.88017">
        <ele>553</ele>
        <time>2019-08-09T10:01:28Z</time>
      </trkpt>
      <trkpt lat="44.14785" lon="5.88018">
        <ele>555</ele>
        <time>2019-08-09T10:01:32Z</time>
      </trkpt>
      <trkpt lat="44.14785" lon="5.8802">
        <ele>558</ele>
        <time>2019-08-09T10:01:43Z</time>
      </trkpt>
      <trkpt lat="44.14785" lon="5.88022">
        <ele>558</ele>
        <time>2019-08-09T10:01:51Z</time>
      </trkpt>
      <trkpt lat="44.14786" lon="5.88022">
        <ele>558</ele>
        <time>2019-08-09T10:01:56Z</time>
      </trkpt>
      <trkpt lat="44.14787" lon="5.88022">
        <ele>558</ele>
        <time>2019-08-09T10:02:02Z</time>
      </trkpt>
      <trkpt lat="44.14786" lon="5.88024">
        <ele>558</ele>
        <time>2019-08-09T10:02:20Z</time>
      </trkpt>
      <trkpt lat="44.14785" lon="5.88025">
        <ele>558</ele>
        <time>2019-08-09T10:02:25Z</time>
      </trkpt>
      <trkpt lat="44.14786" lon="5.88025">
        <ele>558</ele>
        <time>2019-08-09T10:02:44Z</time>
      </trkpt>
      <trkpt lat="44.14787" lon="5.88024">
        <ele>558</ele>
        <time>2019-08-09T10:02:57Z</time>
      </trkpt>
      <trkpt lat="44.14788" lon="5.88023">
        <ele>558</ele>
        <time>2019-08-09T10:03:23Z</time>
      </trkpt>
      <trkpt lat="44.14789" lon="5.88023">
        <ele>558</ele>
        <time>2019-08-09T10:03:43Z</time>
      </trkpt>
      <trkpt lat="44.1479" lon="5.88023">
        <ele>558</ele>
        <time>2019-08-09T10:04:09Z</time>
      </trkpt>
      <trkpt lat="44.14792" lon="5.88022">
        <ele>558</ele>
        <time>2019-08-09T10:04:15Z</time>
      </trkpt>
      <trkpt lat="44.14793" lon="5.88022">
        <ele>558</ele>
        <time>2019-08-09T10:04:20Z</time>
      </trkpt>
      <trkpt lat="44.14794" lon="5.88022">
        <ele>558</ele>
        <time>2019-08-09T10:04:25Z</time>
      </trkpt>
      <trkpt lat="44.14793" lon="5.88023">
        <ele>558</ele>
        <time>2019-08-09T10:04:47Z</time>
      </trkpt>
      <trkpt lat="44.14794" lon="5.88023">
        <ele>560</ele>
        <time>2019-08-09T10:05:20Z</time>
      </trkpt>
      <trkpt lat="44.14794" lon="5.8802">
        <ele>560</ele>
        <time>2019-08-09T10:05:22Z</time>
      </trkpt>
      <trkpt lat="44.14794" lon="5.88019">
        <ele>560</ele>
        <time>2019-08-09T10:05:23Z</time>
      </trkpt>
      <trkpt lat="44.14795" lon="5.88017">
        <ele>560</ele>
        <time>2019-08-09T10:05:24Z</time>
      </trkpt>
      <trkpt lat="44.14797" lon="5.88014">
        <ele>560</ele>
        <time>2019-08-09T10:05:26Z</time>
      </trkpt>
      <trkpt lat="44.14798" lon="5.88012">
        <ele>560</ele>
        <time>2019-08-09T10:05:27Z</time>
      </trkpt>
      <trkpt lat="44.148" lon="5.88009">
        <ele>560</ele>
        <time>2019-08-09T10:05:28Z</time>
      </trkpt>
      <trkpt lat="44.14803" lon="5.88006">
        <ele>560</ele>
        <time>2019-08-09T10:05:29Z</time>
      </trkpt>
      <trkpt lat="44.14806" lon="5.88004">
        <ele>560</ele>
        <time>2019-08-09T10:05:30Z</time>
      </trkpt>
      <trkpt lat="44.14809" lon="5.88001">
        <ele>560</ele>
        <time>2019-08-09T10:05:31Z</time>
      </trkpt>
      <trkpt lat="44.14811" lon="5.87997">
        <ele>560</ele>
        <time>2019-08-09T10:05:32Z</time>
      </trkpt>
      <trkpt lat="44.14814" lon="5.87993">
        <ele>560</ele>
        <time>2019-08-09T10:05:33Z</time>
      </trkpt>
      <trkpt lat="44.14817" lon="5.87987">
        <ele>560</ele>
        <time>2019-08-09T10:05:34Z</time>
      </trkpt>
      <trkpt lat="44.14819" lon="5.87982">
        <ele>560</ele>
        <time>2019-08-09T10:05:35Z</time>
      </trkpt>
      <trkpt lat="44.14822" lon="5.87977">
        <ele>560</ele>
        <time>2019-08-09T10:05:36Z</time>
      </trkpt>
      <trkpt lat="44.14824" lon="5.87971">
        <ele>560</ele>
        <time>2019-08-09T10:05:37Z</time>
      </trkpt>
      <trkpt lat="44.14827" lon="5.87965">
        <ele>560</ele>
        <time>2019-08-09T10:05:38Z</time>
      </trkpt>
      <trkpt lat="44.14829" lon="5.87959">
        <ele>560</ele>
        <time>2019-08-09T10:05:39Z</time>
      </trkpt>
      <trkpt lat="44.14833" lon="5.87953">
        <ele>560</ele>
        <time>2019-08-09T10:05:40Z</time>
      </trkpt>
      <trkpt lat="44.14836" lon="5.87946">
        <ele>560</ele>
        <time>2019-08-09T10:05:41Z</time>
      </trkpt>
      <trkpt lat="44.14839" lon="5.87939">
        <ele>560</ele>
        <time>2019-08-09T10:05:42Z</time>
      </trkpt>
      <trkpt lat="44.14842" lon="5.87931">
        <ele>560</ele>
        <time>2019-08-09T10:05:43Z</time>
      </trkpt>
      <trkpt lat="44.14846" lon="5.87924">
        <ele>560</ele>
        <time>2019-08-09T10:05:44Z</time>
      </trkpt>
      <trkpt lat="44.1485" lon="5.87916">
        <ele>559</ele>
        <time>2019-08-09T10:05:45Z</time>
      </trkpt>
      <trkpt lat="44.14854" lon="5.87907">
        <ele>559</ele>
        <time>2019-08-09T10:05:46Z</time>
      </trkpt>
      <trkpt lat="44.14859" lon="5.87898">
        <ele>559</ele>
        <time>2019-08-09T10:05:47Z</time>
      </trkpt>
      <trkpt lat="44.14863" lon="5.87889">
        <ele>558</ele>
        <time>2019-08-09T10:05:48Z</time>
      </trkpt>
      <trkpt lat="44.14868" lon="5.87879">
        <ele>558</ele>
        <time>2019-08-09T10:05:49Z</time>
      </trkpt>
      <trkpt lat="44.14873" lon="5.87869">
        <ele>557</ele>
        <time>2019-08-09T10:05:50Z</time>
      </trkpt>
      <trkpt lat="44.14879" lon="5.87858">
        <ele>557</ele>
        <time>2019-08-09T10:05:51Z</time>
      </trkpt>
      <trkpt lat="44.14885" lon="5.87848">
        <ele>556</ele>
        <time>2019-08-09T10:05:52Z</time>
      </trkpt>
      <trkpt lat="44.14891" lon="5.87838">
        <ele>556</ele>
        <time>2019-08-09T10:05:53Z</time>
      </trkpt>
      <trkpt lat="44.14897" lon="5.87828">
        <ele>555</ele>
        <time>2019-08-09T10:05:54Z</time>
      </trkpt>
      <trkpt lat="44.14903" lon="5.87817">
        <ele>555</ele>
        <time>2019-08-09T10:05:55Z</time>
      </trkpt>
      <trkpt lat="44.1491" lon="5.87807">
        <ele>554</ele>
        <time>2019-08-09T10:05:56Z</time>
      </trkpt>
      <trkpt lat="44.14916" lon="5.87796">
        <ele>554</ele>
        <time>2019-08-09T10:05:57Z</time>
      </trkpt>
      <trkpt lat="44.14923" lon="5.87785">
        <ele>553</ele>
        <time>2019-08-09T10:05:58Z</time>
      </trkpt>
      <trkpt lat="44.1493" lon="5.87775">
        <ele>553</ele>
        <time>2019-08-09T10:05:59Z</time>
      </trkpt>
      <trkpt lat="44.14937" lon="5.87764">
        <ele>553</ele>
        <time>2019-08-09T10:06:00Z</time>
      </trkpt>
      <trkpt lat="44.14944" lon="5.87752">
        <ele>552</ele>
        <time>2019-08-09T10:06:01Z</time>
      </trkpt>
      <trkpt lat="44.14951" lon="5.87742">
        <ele>552</ele>
        <time>2019-08-09T10:06:02Z</time>
      </trkpt>
      <trkpt lat="44.14958" lon="5.87731">
        <ele>552</ele>
        <time>2019-08-09T10:06:03Z</time>
      </trkpt>
      <trkpt lat="44.14965" lon="5.8772">
        <ele>552</ele>
        <time>2019-08-09T10:06:04Z</time>
      </trkpt>
      <trkpt lat="44.14972" lon="5.8771">
        <ele>552</ele>
        <time>2019-08-09T10:06:05Z</time>
      </trkpt>
      <trkpt lat="44.1498" lon="5.87699">
        <ele>551</ele>
        <time>2019-08-09T10:06:06Z</time>
      </trkpt>
      <trkpt lat="44.14987" lon="5.87689">
        <ele>551</ele>
        <time>2019-08-09T10:06:07Z</time>
      </trkpt>
      <trkpt lat="44.14995" lon="5.87678">
        <ele>551</ele>
        <time>2019-08-09T10:06:08Z</time>
      </trkpt>
      <trkpt lat="44.15004" lon="5.87669">
        <ele>551</ele>
        <time>2019-08-09T10:06:09Z</time>
      </trkpt>
      <trkpt lat="44.15013" lon="5.8766">
        <ele>550</ele>
        <time>2019-08-09T10:06:10Z</time>
      </trkpt>
      <trkpt lat="44.15023" lon="5.87652">
        <ele>550</ele>
        <time>2019-08-09T10:06:11Z</time>
      </trkpt>
      <trkpt lat="44.15033" lon="5.87645">
        <ele>550</ele>
        <time>2019-08-09T10:06:12Z</time>
      </trkpt>
      <trkpt lat="44.15044" lon="5.87641">
        <ele>549</ele>
        <time>2019-08-09T10:06:13Z</time>
      </trkpt>
      <trkpt lat="44.15054" lon="5.87638">
        <ele>549</ele>
        <time>2019-08-09T10:06:14Z</time>
      </trkpt>
      <trkpt lat="44.15065" lon="5.87637">
        <ele>548</ele>
        <time>2019-08-09T10:06:15Z</time>
      </trkpt>
      <trkpt lat="44.15076" lon="5.87635">
        <ele>548</ele>
        <time>2019-08-09T10:06:16Z</time>
      </trkpt>
      <trkpt lat="44.15087" lon="5.87634">
        <ele>547</ele>
        <time>2019-08-09T10:06:17Z</time>
      </trkpt>
      <trkpt lat="44.15098" lon="5.87633">
        <ele>547</ele>
        <time>2019-08-09T10:06:18Z</time>
      </trkpt>
      <trkpt lat="44.15108" lon="5.87633">
        <ele>546</ele>
        <time>2019-08-09T10:06:19Z</time>
      </trkpt>
      <trkpt lat="44.15118" lon="5.87632">
        <ele>546</ele>
        <time>2019-08-09T10:06:20Z</time>
      </trkpt>
      <trkpt lat="44.15128" lon="5.8763">
        <ele>546</ele>
        <time>2019-08-09T10:06:21Z</time>
      </trkpt>
      <trkpt lat="44.15138" lon="5.87629">
        <ele>546</ele>
        <time>2019-08-09T10:06:22Z</time>
      </trkpt>
      <trkpt lat="44.15147" lon="5.87628">
        <ele>546</ele>
        <time>2019-08-09T10:06:23Z</time>
      </trkpt>
      <trkpt lat="44.15156" lon="5.87628">
        <ele>546</ele>
        <time>2019-08-09T10:06:24Z</time>
      </trkpt>
      <trkpt lat="44.15164" lon="5.87627">
        <ele>546</ele>
        <time>2019-08-09T10:06:25Z</time>
      </trkpt>
      <trkpt lat="44.15173" lon="5.87627">
        <ele>546</ele>
        <time>2019-08-09T10:06:26Z</time>
      </trkpt>
      <trkpt lat="44.15181" lon="5.87625">
        <ele>546</ele>
        <time>2019-08-09T10:06:27Z</time>
      </trkpt>
      <trkpt lat="44.15189" lon="5.87623">
        <ele>546</ele>
        <time>2019-08-09T10:06:28Z</time>
      </trkpt>
      <trkpt lat="44.15196" lon="5.87618">
        <ele>546</ele>
        <time>2019-08-09T10:06:29Z</time>
      </trkpt>
      <trkpt lat="44.15202" lon="5.87612">
        <ele>546</ele>
        <time>2019-08-09T10:06:30Z</time>
      </trkpt>
      <trkpt lat="44.15208" lon="5.87604">
        <ele>546</ele>
        <time>2019-08-09T10:06:31Z</time>
      </trkpt>
      <trkpt lat="44.15212" lon="5.87594">
        <ele>546</ele>
        <time>2019-08-09T10:06:32Z</time>
      </trkpt>
      <trkpt lat="44.15215" lon="5.87583">
        <ele>546</ele>
        <time>2019-08-09T10:06:33Z</time>
      </trkpt>
      <trkpt lat="44.15218" lon="5.87572">
        <ele>545</ele>
        <time>2019-08-09T10:06:34Z</time>
      </trkpt>
      <trkpt lat="44.1522" lon="5.87561">
        <ele>545</ele>
        <time>2019-08-09T10:06:35Z</time>
      </trkpt>
      <trkpt lat="44.15223" lon="5.8755">
        <ele>545</ele>
        <time>2019-08-09T10:06:36Z</time>
      </trkpt>
      <trkpt lat="44.15226" lon="5.87539">
        <ele>545</ele>
        <time>2019-08-09T10:06:37Z</time>
      </trkpt>
      <trkpt lat="44.15229" lon="5.87528">
        <ele>545</ele>
        <time>2019-08-09T10:06:38Z</time>
      </trkpt>
      <trkpt lat="44.15233" lon="5.87517">
        <ele>545</ele>
        <time>2019-08-09T10:06:39Z</time>
      </trkpt>
      <trkpt lat="44.15237" lon="5.87506">
        <ele>544</ele>
        <time>2019-08-09T10:06:40Z</time>
      </trkpt>
      <trkpt lat="44.15241" lon="5.87496">
        <ele>544</ele>
        <time>2019-08-09T10:06:41Z</time>
      </trkpt>
      <trkpt lat="44.15245" lon="5.87485">
        <ele>544</ele>
        <time>2019-08-09T10:06:42Z</time>
      </trkpt>
      <trkpt lat="44.1525" lon="5.87475">
        <ele>544</ele>
        <time>2019-08-09T10:06:43Z</time>
      </trkpt>
      <trkpt lat="44.15257" lon="5.87466">
        <ele>544</ele>
        <time>2019-08-09T10:06:44Z</time>
      </trkpt>
      <trkpt lat="44.15263" lon="5.87458">
        <ele>543</ele>
        <time>2019-08-09T10:06:45Z</time>
      </trkpt>
      <trkpt lat="44.1527" lon="5.87449">
        <ele>543</ele>
        <time>2019-08-09T10:06:46Z</time>
      </trkpt>
      <trkpt lat="44.15277" lon="5.87442">
        <ele>543</ele>
        <time>2019-08-09T10:06:47Z</time>
      </trkpt>
      <trkpt lat="44.15284" lon="5.87434">
        <ele>543</ele>
        <time>2019-08-09T10:06:48Z</time>
      </trkpt>
      <trkpt lat="44.15292" lon="5.87427">
        <ele>543</ele>
        <time>2019-08-09T10:06:49Z</time>
      </trkpt>
      <trkpt lat="44.15299" lon="5.87419">
        <ele>543</ele>
        <time>2019-08-09T10:06:50Z</time>
      </trkpt>
      <trkpt lat="44.15306" lon="5.87411">
        <ele>543</ele>
        <time>2019-08-09T10:06:51Z</time>
      </trkpt>
      <trkpt lat="44.15314" lon="5.87404">
        <ele>543</ele>
        <time>2019-08-09T10:06:52Z</time>
      </trkpt>
      <trkpt lat="44.15321" lon="5.87397">
        <ele>543</ele>
        <time>2019-08-09T10:06:53Z</time>
      </trkpt>
      <trkpt lat="44.15328" lon="5.87389">
        <ele>542</ele>
        <time>2019-08-09T10:06:54Z</time>
      </trkpt>
      <trkpt lat="44.15336" lon="5.87382">
        <ele>542</ele>
        <time>2019-08-09T10:06:55Z</time>
      </trkpt>
      <trkpt lat="44.15343" lon="5.87374">
        <ele>542</ele>
        <time>2019-08-09T10:06:56Z</time>
      </trkpt>
      <trkpt lat="44.1535" lon="5.87367">
        <ele>541</ele>
        <time>2019-08-09T10:06:57Z</time>
      </trkpt>
      <trkpt lat="44.15358" lon="5.8736">
        <ele>541</ele>
        <time>2019-08-09T10:06:58Z</time>
      </trkpt>
      <trkpt lat="44.15366" lon="5.87354">
        <ele>540</ele>
        <time>2019-08-09T10:06:59Z</time>
      </trkpt>
      <trkpt lat="44.15374" lon="5.87347">
        <ele>540</ele>
        <time>2019-08-09T10:07:00Z</time>
      </trkpt>
      <trkpt lat="44.15382" lon="5.87341">
        <ele>540</ele>
        <time>2019-08-09T10:07:01Z</time>
      </trkpt>
      <trkpt lat="44.1539" lon="5.87334">
        <ele>539</ele>
        <time>2019-08-09T10:07:02Z</time>
      </trkpt>
      <trkpt lat="44.15398" lon="5.87328">
        <ele>539</ele>
        <time>2019-08-09T10:07:03Z</time>
      </trkpt>
      <trkpt lat="44.15407" lon="5.87322">
        <ele>538</ele>
        <time>2019-08-09T10:07:04Z</time>
      </trkpt>
      <trkpt lat="44.15415" lon="5.87315">
        <ele>538</ele>
        <time>2019-08-09T10:07:05Z</time>
      </trkpt>
      <trkpt lat="44.15424" lon="5.87308">
        <ele>537</ele>
        <time>2019-08-09T10:07:06Z</time>
      </trkpt>
      <trkpt lat="44.15433" lon="5.87302">
        <ele>537</ele>
        <time>2019-08-09T10:07:07Z</time>
      </trkpt>
      <trkpt lat="44.15442" lon="5.87296">
        <ele>537</ele>
        <time>2019-08-09T10:07:08Z</time>
      </trkpt>
      <trkpt lat="44.15451" lon="5.8729">
        <ele>536</ele>
        <time>2019-08-09T10:07:09Z</time>
      </trkpt>
      <trkpt lat="44.1546" lon="5.87284">
        <ele>536</ele>
        <time>2019-08-09T10:07:10Z</time>
      </trkpt>
      <trkpt lat="44.15469" lon="5.87277">
        <ele>535</ele>
        <time>2019-08-09T10:07:11Z</time>
      </trkpt>
      <trkpt lat="44.15478" lon="5.87271">
        <ele>535</ele>
        <time>2019-08-09T10:07:12Z</time>
      </trkpt>
      <trkpt lat="44.15487" lon="5.87264">
        <ele>535</ele>
        <time>2019-08-09T10:07:13Z</time>
      </trkpt>
      <trkpt lat="44.15496" lon="5.87258">
        <ele>534</ele>
        <time>2019-08-09T10:07:14Z</time>
      </trkpt>
      <trkpt lat="44.15504" lon="5.87252">
        <ele>534</ele>
        <time>2019-08-09T10:07:15Z</time>
      </trkpt>
      <trkpt lat="44.15513" lon="5.87246">
        <ele>534</ele>
        <time>2019-08-09T10:07:16Z</time>
      </trkpt>
      <trkpt lat="44.15522" lon="5.8724">
        <ele>534</ele>
        <time>2019-08-09T10:07:17Z</time>
      </trkpt>
      <trkpt lat="44.1553" lon="5.87233">
        <ele>533</ele>
        <time>2019-08-09T10:07:18Z</time>
      </trkpt>
      <trkpt lat="44.15537" lon="5.87225">
        <ele>533</ele>
        <time>2019-08-09T10:07:19Z</time>
      </trkpt>
      <trkpt lat="44.15544" lon="5.87217">
        <ele>533</ele>
        <time>2019-08-09T10:07:20Z</time>
      </trkpt>
      <trkpt lat="44.1555" lon="5.87208">
        <ele>533</ele>
        <time>2019-08-09T10:07:21Z</time>
      </trkpt>
      <trkpt lat="44.15557" lon="5.872">
        <ele>533</ele>
        <time>2019-08-09T10:07:22Z</time>
      </trkpt>
      <trkpt lat="44.15564" lon="5.87192">
        <ele>533</ele>
        <time>2019-08-09T10:07:23Z</time>
      </trkpt>
      <trkpt lat="44.15571" lon="5.87184">
        <ele>533</ele>
        <time>2019-08-09T10:07:24Z</time>
      </trkpt>
      <trkpt lat="44.15577" lon="5.87175">
        <ele>532</ele>
        <time>2019-08-09T10:07:25Z</time>
      </trkpt>
      <trkpt lat="44.15584" lon="5.87167">
        <ele>532</ele>
        <time>2019-08-09T10:07:26Z</time>
      </trkpt>
      <trkpt lat="44.15591" lon="5.87158">
        <ele>532</ele>
        <time>2019-08-09T10:07:27Z</time>
      </trkpt>
      <trkpt lat="44.15597" lon="5.87149">
        <ele>532</ele>
        <time>2019-08-09T10:07:28Z</time>
      </trkpt>
      <trkpt lat="44.15603" lon="5.87141">
        <ele>532</ele>
        <time>2019-08-09T10:07:29Z</time>
      </trkpt>
      <trkpt lat="44.15609" lon="5.87132">
        <ele>532</ele>
        <time>2019-08-09T10:07:30Z</time>
      </trkpt>
      <trkpt lat="44.15615" lon="5.87122">
        <ele>532</ele>
        <time>2019-08-09T10:07:31Z</time>
      </trkpt>
      <trkpt lat="44.1562" lon="5.87112">
        <ele>532</ele>
        <time>2019-08-09T10:07:32Z</time>
      </trkpt>
      <trkpt lat="44.15625" lon="5.87102">
        <ele>532</ele>
        <time>2019-08-09T10:07:33Z</time>
      </trkpt>
      <trkpt lat="44.1563" lon="5.8709">
        <ele>532</ele>
        <time>2019-08-09T10:07:34Z</time>
      </trkpt>
      <trkpt lat="44.15634" lon="5.8708">
        <ele>532</ele>
        <time>2019-08-09T10:07:35Z</time>
      </trkpt>
      <trkpt lat="44.15639" lon="5.8707">
        <ele>532</ele>
        <time>2019-08-09T10:07:36Z</time>
      </trkpt>
      <trkpt lat="44.15646" lon="5.87061">
        <ele>532</ele>
        <time>2019-08-09T10:07:37Z</time>
      </trkpt>
      <trkpt lat="44.15651" lon="5.87052">
        <ele>532</ele>
        <time>2019-08-09T10:07:38Z</time>
      </trkpt>
      <trkpt lat="44.15658" lon="5.87044">
        <ele>532</ele>
        <time>2019-08-09T10:07:39Z</time>
      </trkpt>
      <trkpt lat="44.15664" lon="5.87037">
        <ele>531</ele>
        <time>2019-08-09T10:07:40Z</time>
      </trkpt>
      <trkpt lat="44.1567" lon="5.8703">
        <ele>531</ele>
        <time>2019-08-09T10:07:41Z</time>
      </trkpt>
      <trkpt lat="44.15678" lon="5.87023">
        <ele>531</ele>
        <time>2019-08-09T10:07:42Z</time>
      </trkpt>
      <trkpt lat="44.15685" lon="5.87016">
        <ele>530</ele>
        <time>2019-08-09T10:07:43Z</time>
      </trkpt>
      <trkpt lat="44.15693" lon="5.8701">
        <ele>530</ele>
        <time>2019-08-09T10:07:44Z</time>
      </trkpt>
      <trkpt lat="44.157" lon="5.87004">
        <ele>530</ele>
        <time>2019-08-09T10:07:45Z</time>
      </trkpt>
      <trkpt lat="44.15707" lon="5.86996">
        <ele>530</ele>
        <time>2019-08-09T10:07:46Z</time>
      </trkpt>
      <trkpt lat="44.15713" lon="5.86988">
        <ele>530</ele>
        <time>2019-08-09T10:07:47Z</time>
      </trkpt>
      <trkpt lat="44.1572" lon="5.8698">
        <ele>530</ele>
        <time>2019-08-09T10:07:48Z</time>
      </trkpt>
      <trkpt lat="44.15726" lon="5.86973">
        <ele>530</ele>
        <time>2019-08-09T10:07:49Z</time>
      </trkpt>
      <trkpt lat="44.15734" lon="5.86966">
        <ele>530</ele>
        <time>2019-08-09T10:07:50Z</time>
      </trkpt>
      <trkpt lat="44.15743" lon="5.86962">
        <ele>529</ele>
        <time>2019-08-09T10:07:51Z</time>
      </trkpt>
      <trkpt lat="44.15752" lon="5.86959">
        <ele>529</ele>
        <time>2019-08-09T10:07:52Z</time>
      </trkpt>
      <trkpt lat="44.15761" lon="5.86955">
        <ele>528</ele>
        <time>2019-08-09T10:07:53Z</time>
      </trkpt>
      <trkpt lat="44.1577" lon="5.86951">
        <ele>527</ele>
        <time>2019-08-09T10:07:54Z</time>
      </trkpt>
      <trkpt lat="44.15779" lon="5.86946">
        <ele>527</ele>
        <time>2019-08-09T10:07:55Z</time>
      </trkpt>
      <trkpt lat="44.15788" lon="5.86939">
        <ele>526</ele>
        <time>2019-08-09T10:07:56Z</time>
      </trkpt>
      <trkpt lat="44.15796" lon="5.86932">
        <ele>525</ele>
        <time>2019-08-09T10:07:57Z</time>
      </trkpt>
      <trkpt lat="44.15804" lon="5.86924">
        <ele>524</ele>
        <time>2019-08-09T10:07:58Z</time>
      </trkpt>
      <trkpt lat="44.15812" lon="5.86916">
        <ele>524</ele>
        <time>2019-08-09T10:07:59Z</time>
      </trkpt>
      <trkpt lat="44.1582" lon="5.86908">
        <ele>524</ele>
        <time>2019-08-09T10:08:00Z</time>
      </trkpt>
      <trkpt lat="44.15828" lon="5.86901">
        <ele>524</ele>
        <time>2019-08-09T10:08:01Z</time>
      </trkpt>
      <trkpt lat="44.15837" lon="5.86896">
        <ele>524</ele>
        <time>2019-08-09T10:08:02Z</time>
      </trkpt>
      <trkpt lat="44.15846" lon="5.86891">
        <ele>524</ele>
        <time>2019-08-09T10:08:03Z</time>
      </trkpt>
      <trkpt lat="44.15856" lon="5.86888">
        <ele>523</ele>
        <time>2019-08-09T10:08:04Z</time>
      </trkpt>
      <trkpt lat="44.15865" lon="5.86885">
        <ele>523</ele>
        <time>2019-08-09T10:08:05Z</time>
      </trkpt>
      <trkpt lat="44.15874" lon="5.86881">
        <ele>523</ele>
        <time>2019-08-09T10:08:06Z</time>
      </trkpt>
      <trkpt lat="44.15883" lon="5.86878">
        <ele>523</ele>
        <time>2019-08-09T10:08:07Z</time>
      </trkpt>
      <trkpt lat="44.15892" lon="5.86874">
        <ele>523</ele>
        <time>2019-08-09T10:08:08Z</time>
      </trkpt>
      <trkpt lat="44.159" lon="5.8687">
        <ele>522</ele>
        <time>2019-08-09T10:08:09Z</time>
      </trkpt>
      <trkpt lat="44.15909" lon="5.86867">
        <ele>522</ele>
        <time>2019-08-09T10:08:10Z</time>
      </trkpt>
      <trkpt lat="44.15917" lon="5.86863">
        <ele>522</ele>
        <time>2019-08-09T10:08:11Z</time>
      </trkpt>
      <trkpt lat="44.15925" lon="5.86858">
        <ele>521</ele>
        <time>2019-08-09T10:08:12Z</time>
      </trkpt>
      <trkpt lat="44.15933" lon="5.86854">
        <ele>521</ele>
        <time>2019-08-09T10:08:13Z</time>
      </trkpt>
      <trkpt lat="44.15941" lon="5.86849">
        <ele>520</ele>
        <time>2019-08-09T10:08:14Z</time>
      </trkpt>
      <trkpt lat="44.15948" lon="5.86843">
        <ele>520</ele>
        <time>2019-08-09T10:08:15Z</time>
      </trkpt>
      <trkpt lat="44.15956" lon="5.86838">
        <ele>520</ele>
        <time>2019-08-09T10:08:16Z</time>
      </trkpt>
      <trkpt lat="44.15964" lon="5.86832">
        <ele>520</ele>
        <time>2019-08-09T10:08:17Z</time>
      </trkpt>
      <trkpt lat="44.15971" lon="5.86825">
        <ele>520</ele>
        <time>2019-08-09T10:08:18Z</time>
      </trkpt>
      <trkpt lat="44.15979" lon="5.86819">
        <ele>519</ele>
        <time>2019-08-09T10:08:19Z</time>
      </trkpt>
      <trkpt lat="44.15986" lon="5.86813">
        <ele>519</ele>
        <time>2019-08-09T10:08:20Z</time>
      </trkpt>
      <trkpt lat="44.15993" lon="5.86807">
        <ele>519</ele>
        <time>2019-08-09T10:08:21Z</time>
      </trkpt>
      <trkpt lat="44.16" lon="5.86801">
        <ele>519</ele>
        <time>2019-08-09T10:08:22Z</time>
      </trkpt>
      <trkpt lat="44.16008" lon="5.86796">
        <ele>518</ele>
        <time>2019-08-09T10:08:23Z</time>
      </trkpt>
      <trkpt lat="44.16015" lon="5.86791">
        <ele>518</ele>
        <time>2019-08-09T10:08:24Z</time>
      </trkpt>
      <trkpt lat="44.16022" lon="5.86786">
        <ele>518</ele>
        <time>2019-08-09T10:08:25Z</time>
      </trkpt>
      <trkpt lat="44.1603" lon="5.86782">
        <ele>518</ele>
        <time>2019-08-09T10:08:26Z</time>
      </trkpt>
      <trkpt lat="44.16039" lon="5.86779">
        <ele>518</ele>
        <time>2019-08-09T10:08:27Z</time>
      </trkpt>
      <trkpt lat="44.16047" lon="5.86778">
        <ele>518</ele>
        <time>2019-08-09T10:08:28Z</time>
      </trkpt>
      <trkpt lat="44.16055" lon="5.86778">
        <ele>518</ele>
        <time>2019-08-09T10:08:29Z</time>
      </trkpt>
      <trkpt lat="44.16063" lon="5.86781">
        <ele>518</ele>
        <time>2019-08-09T10:08:30Z</time>
      </trkpt>
      <trkpt lat="44.1607" lon="5.86784">
        <ele>518</ele>
        <time>2019-08-09T10:08:31Z</time>
      </trkpt>
      <trkpt lat="44.16077" lon="5.86788">
        <ele>518</ele>
        <time>2019-08-09T10:08:32Z</time>
      </trkpt>
      <trkpt lat="44.16083" lon="5.86793">
        <ele>518</ele>
        <time>2019-08-09T10:08:33Z</time>
      </trkpt>
      <trkpt lat="44.16089" lon="5.86798">
        <ele>518</ele>
        <time>2019-08-09T10:08:34Z</time>
      </trkpt>
      <trkpt lat="44.16094" lon="5.86802">
        <ele>518</ele>
        <time>2019-08-09T10:08:35Z</time>
      </trkpt>
      <trkpt lat="44.161" lon="5.86807">
        <ele>518</ele>
        <time>2019-08-09T10:08:36Z</time>
      </trkpt>
      <trkpt lat="44.16105" lon="5.86812">
        <ele>518</ele>
        <time>2019-08-09T10:08:37Z</time>
      </trkpt>
      <trkpt lat="44.1611" lon="5.86816">
        <ele>518</ele>
        <time>2019-08-09T10:08:38Z</time>
      </trkpt>
      <trkpt lat="44.16115" lon="5.8682">
        <ele>518</ele>
        <time>2019-08-09T10:08:39Z</time>
      </trkpt>
      <trkpt lat="44.16121" lon="5.86824">
        <ele>518</ele>
        <time>2019-08-09T10:08:40Z</time>
      </trkpt>
      <trkpt lat="44.16126" lon="5.86827">
        <ele>518</ele>
        <time>2019-08-09T10:08:41Z</time>
      </trkpt>
      <trkpt lat="44.16131" lon="5.8683">
        <ele>518</ele>
        <time>2019-08-09T10:08:42Z</time>
      </trkpt>
      <trkpt lat="44.16137" lon="5.86832">
        <ele>518</ele>
        <time>2019-08-09T10:08:43Z</time>
      </trkpt>
      <trkpt lat="44.16143" lon="5.86834">
        <ele>518</ele>
        <time>2019-08-09T10:08:44Z</time>
      </trkpt>
      <trkpt lat="44.16148" lon="5.86836">
        <ele>518</ele>
        <time>2019-08-09T10:08:45Z</time>
      </trkpt>
      <trkpt lat="44.16154" lon="5.86838">
        <ele>518</ele>
        <time>2019-08-09T10:08:46Z</time>
      </trkpt>
      <trkpt lat="44.1616" lon="5.86839">
        <ele>518</ele>
        <time>2019-08-09T10:08:47Z</time>
      </trkpt>
      <trkpt lat="44.16166" lon="5.8684">
        <ele>518</ele>
        <time>2019-08-09T10:08:48Z</time>
      </trkpt>
      <trkpt lat="44.16171" lon="5.86841">
        <ele>518</ele>
        <time>2019-08-09T10:08:49Z</time>
      </trkpt>
      <trkpt lat="44.16177" lon="5.86843">
        <ele>518</ele>
        <time>2019-08-09T10:08:50Z</time>
      </trkpt>
      <trkpt lat="44.16183" lon="5.86844">
        <ele>518</ele>
        <time>2019-08-09T10:08:51Z</time>
      </trkpt>
      <trkpt lat="44.16189" lon="5.86846">
        <ele>518</ele>
        <time>2019-08-09T10:08:52Z</time>
      </trkpt>
      <trkpt lat="44.16196" lon="5.8685">
        <ele>518</ele>
        <time>2019-08-09T10:08:53Z</time>
      </trkpt>
      <trkpt lat="44.16202" lon="5.86854">
        <ele>518</ele>
        <time>2019-08-09T10:08:54Z</time>
      </trkpt>
      <trkpt lat="44.16208" lon="5.8686">
        <ele>518</ele>
        <time>2019-08-09T10:08:55Z</time>
      </trkpt>
      <trkpt lat="44.16214" lon="5.86867">
        <ele>518</ele>
        <time>2019-08-09T10:08:56Z</time>
      </trkpt>
      <trkpt lat="44.16219" lon="5.86874">
        <ele>518</ele>
        <time>2019-08-09T10:08:57Z</time>
      </trkpt>
      <trkpt lat="44.16225" lon="5.86881">
        <ele>518</ele>
        <time>2019-08-09T10:08:58Z</time>
      </trkpt>
      <trkpt lat="44.16231" lon="5.86889">
        <ele>518</ele>
        <time>2019-08-09T10:08:59Z</time>
      </trkpt>
      <trkpt lat="44.16236" lon="5.86896">
        <ele>518</ele>
        <time>2019-08-09T10:09:00Z</time>
      </trkpt>
      <trkpt lat="44.16242" lon="5.86903">
        <ele>518</ele>
        <time>2019-08-09T10:09:01Z</time>
      </trkpt>
      <trkpt lat="44.16247" lon="5.8691">
        <ele>518</ele>
        <time>2019-08-09T10:09:02Z</time>
      </trkpt>
      <trkpt lat="44.16252" lon="5.86917">
        <ele>518</ele>
        <time>2019-08-09T10:09:03Z</time>
      </trkpt>
      <trkpt lat="44.16258" lon="5.86923">
        <ele>518</ele>
        <time>2019-08-09T10:09:04Z</time>
      </trkpt>
      <trkpt lat="44.16264" lon="5.86929">
        <ele>518</ele>
        <time>2019-08-09T10:09:05Z</time>
      </trkpt>
      <trkpt lat="44.1627" lon="5.86935">
        <ele>518</ele>
        <time>2019-08-09T10:09:06Z</time>
      </trkpt>
      <trkpt lat="44.16275" lon="5.86941">
        <ele>518</ele>
        <time>2019-08-09T10:09:07Z</time>
      </trkpt>
      <trkpt lat="44.16282" lon="5.86947">
        <ele>518</ele>
        <time>2019-08-09T10:09:08Z</time>
      </trkpt>
      <trkpt lat="44.16288" lon="5.86953">
        <ele>518</ele>
        <time>2019-08-09T10:09:09Z</time>
      </trkpt>
      <trkpt lat="44.16295" lon="5.86957">
        <ele>518</ele>
        <time>2019-08-09T10:09:10Z</time>
      </trkpt>
      <trkpt lat="44.16302" lon="5.86961">
        <ele>518</ele>
        <time>2019-08-09T10:09:11Z</time>
      </trkpt>
      <trkpt lat="44.16309" lon="5.86964">
        <ele>518</ele>
        <time>2019-08-09T10:09:12Z</time>
      </trkpt>
      <trkpt lat="44.16316" lon="5.86967">
        <ele>518</ele>
        <time>2019-08-09T10:09:13Z</time>
      </trkpt>
      <trkpt lat="44.16323" lon="5.86969">
        <ele>518</ele>
        <time>2019-08-09T10:09:14Z</time>
      </trkpt>
      <trkpt lat="44.16331" lon="5.86971">
        <ele>518</ele>
        <time>2019-08-09T10:09:15Z</time>
      </trkpt>
      <trkpt lat="44.16338" lon="5.86974">
        <ele>518</ele>
        <time>2019-08-09T10:09:16Z</time>
      </trkpt>
      <trkpt lat="44.16345" lon="5.86978">
        <ele>518</ele>
        <time>2019-08-09T10:09:17Z</time>
      </trkpt>
      <trkpt lat="44.16351" lon="5.86984">
        <ele>518</ele>
        <time>2019-08-09T10:09:18Z</time>
      </trkpt>
      <trkpt lat="44.16357" lon="5.86992">
        <ele>518</ele>
        <time>2019-08-09T10:09:19Z</time>
      </trkpt>
      <trkpt lat="44.16362" lon="5.87002">
        <ele>518</ele>
        <time>2019-08-09T10:09:20Z</time>
      </trkpt>
      <trkpt lat="44.16366" lon="5.87011">
        <ele>517</ele>
        <time>2019-08-09T10:09:21Z</time>
      </trkpt>
      <trkpt lat="44.1637" lon="5.87022">
        <ele>517</ele>
        <time>2019-08-09T10:09:22Z</time>
      </trkpt>
      <trkpt lat="44.16375" lon="5.87032">
        <ele>516</ele>
        <time>2019-08-09T10:09:23Z</time>
      </trkpt>
      <trkpt lat="44.16379" lon="5.87042">
        <ele>516</ele>
        <time>2019-08-09T10:09:24Z</time>
      </trkpt>
      <trkpt lat="44.16383" lon="5.87052">
        <ele>515</ele>
        <time>2019-08-09T10:09:25Z</time>
      </trkpt>
      <trkpt lat="44.16387" lon="5.87062">
        <ele>515</ele>
        <time>2019-08-09T10:09:26Z</time>
      </trkpt>
      <trkpt lat="44.16391" lon="5.87073">
        <ele>514</ele>
        <time>2019-08-09T10:09:27Z</time>
      </trkpt>
      <trkpt lat="44.16396" lon="5.87083">
        <ele>513</ele>
        <time>2019-08-09T10:09:28Z</time>
      </trkpt>
      <trkpt lat="44.16403" lon="5.87092">
        <ele>513</ele>
        <time>2019-08-09T10:09:29Z</time>
      </trkpt>
      <trkpt lat="44.16411" lon="5.87099">
        <ele>512</ele>
        <time>2019-08-09T10:09:30Z</time>
      </trkpt>
      <trkpt lat="44.1642" lon="5.87104">
        <ele>511</ele>
        <time>2019-08-09T10:09:31Z</time>
      </trkpt>
      <trkpt lat="44.16428" lon="5.87107">
        <ele>511</ele>
        <time>2019-08-09T10:09:32Z</time>
      </trkpt>
      <trkpt lat="44.16438" lon="5.87109">
        <ele>510</ele>
        <time>2019-08-09T10:09:33Z</time>
      </trkpt>
      <trkpt lat="44.16446" lon="5.8711">
        <ele>510</ele>
        <time>2019-08-09T10:09:34Z</time>
      </trkpt>
      <trkpt lat="44.16455" lon="5.8711">
        <ele>510</ele>
        <time>2019-08-09T10:09:35Z</time>
      </trkpt>
      <trkpt lat="44.16464" lon="5.8711">
        <ele>510</ele>
        <time>2019-08-09T10:09:36Z</time>
      </trkpt>
      <trkpt lat="44.16472" lon="5.8711">
        <ele>510</ele>
        <time>2019-08-09T10:09:37Z</time>
      </trkpt>
      <trkpt lat="44.1648" lon="5.8711">
        <ele>510</ele>
        <time>2019-08-09T10:09:38Z</time>
      </trkpt>
      <trkpt lat="44.16489" lon="5.8711">
        <ele>509</ele>
        <time>2019-08-09T10:09:39Z</time>
      </trkpt>
      <trkpt lat="44.16497" lon="5.8711">
        <ele>509</ele>
        <time>2019-08-09T10:09:40Z</time>
      </trkpt>
      <trkpt lat="44.16505" lon="5.8711">
        <ele>509</ele>
        <time>2019-08-09T10:09:41Z</time>
      </trkpt>
      <trkpt lat="44.16512" lon="5.8711">
        <ele>509</ele>
        <time>2019-08-09T10:09:42Z</time>
      </trkpt>
      <trkpt lat="44.1652" lon="5.87109">
        <ele>509</ele>
        <time>2019-08-09T10:09:43Z</time>
      </trkpt>
      <trkpt lat="44.16527" lon="5.87109">
        <ele>509</ele>
        <time>2019-08-09T10:09:44Z</time>
      </trkpt>
      <trkpt lat="44.16534" lon="5.87109">
        <ele>509</ele>
        <time>2019-08-09T10:09:45Z</time>
      </trkpt>
      <trkpt lat="44.16542" lon="5.87109">
        <ele>509</ele>
        <time>2019-08-09T10:09:46Z</time>
      </trkpt>
      <trkpt lat="44.16549" lon="5.87109">
        <ele>509</ele>
        <time>2019-08-09T10:09:47Z</time>
      </trkpt>
      <trkpt lat="44.16556" lon="5.87109">
        <ele>509</ele>
        <time>2019-08-09T10:09:48Z</time>
      </trkpt>
      <trkpt lat="44.16563" lon="5.87108">
        <ele>509</ele>
        <time>2019-08-09T10:09:49Z</time>
      </trkpt>
      <trkpt lat="44.1657" lon="5.87108">
        <ele>509</ele>
        <time>2019-08-09T10:09:50Z</time>
      </trkpt>
      <trkpt lat="44.16577" lon="5.87107">
        <ele>509</ele>
        <time>2019-08-09T10:09:51Z</time>
      </trkpt>
      <trkpt lat="44.16584" lon="5.87107">
        <ele>509</ele>
        <time>2019-08-09T10:09:52Z</time>
      </trkpt>
      <trkpt lat="44.16591" lon="5.87107">
        <ele>509</ele>
        <time>2019-08-09T10:09:53Z</time>
      </trkpt>
      <trkpt lat="44.16597" lon="5.87107">
        <ele>509</ele>
        <time>2019-08-09T10:09:54Z</time>
      </trkpt>
      <trkpt lat="44.16604" lon="5.87107">
        <ele>509</ele>
        <time>2019-08-09T10:09:55Z</time>
      </trkpt>
      <trkpt lat="44.1661" lon="5.87107">
        <ele>509</ele>
        <time>2019-08-09T10:09:56Z</time>
      </trkpt>
      <trkpt lat="44.16617" lon="5.87107">
        <ele>509</ele>
        <time>2019-08-09T10:09:57Z</time>
      </trkpt>
      <trkpt lat="44.16623" lon="5.87108">
        <ele>509</ele>
        <time>2019-08-09T10:09:58Z</time>
      </trkpt>
      <trkpt lat="44.16629" lon="5.87108">
        <ele>509</ele>
        <time>2019-08-09T10:09:59Z</time>
      </trkpt>
      <trkpt lat="44.16636" lon="5.87108">
        <ele>509</ele>
        <time>2019-08-09T10:10:00Z</time>
      </trkpt>
      <trkpt lat="44.16642" lon="5.87108">
        <ele>509</ele>
        <time>2019-08-09T10:10:01Z</time>
      </trkpt>
      <trkpt lat="44.16648" lon="5.87108">
        <ele>509</ele>
        <time>2019-08-09T10:10:02Z</time>
      </trkpt>
      <trkpt lat="44.16655" lon="5.87108">
        <ele>509</ele>
        <time>2019-08-09T10:10:03Z</time>
      </trkpt>
      <trkpt lat="44.16661" lon="5.87108">
        <ele>509</ele>
        <time>2019-08-09T10:10:04Z</time>
      </trkpt>
      <trkpt lat="44.16668" lon="5.87107">
        <ele>509</ele>
        <time>2019-08-09T10:10:05Z</time>
      </trkpt>
      <trkpt lat="44.16674" lon="5.87107">
        <ele>509</ele>
        <time>2019-08-09T10:10:06Z</time>
      </trkpt>
      <trkpt lat="44.16681" lon="5.87107">
        <ele>509</ele>
        <time>2019-08-09T10:10:07Z</time>
      </trkpt>
      <trkpt lat="44.16688" lon="5.87107">
        <ele>509</ele>
        <time>2019-08-09T10:10:08Z</time>
      </trkpt>
      <trkpt lat="44.16694" lon="5.87107">
        <ele>509</ele>
        <time>2019-08-09T10:10:09Z</time>
      </trkpt>
      <trkpt lat="44.16701" lon="5.87107">
        <ele>509</ele>
        <time>2019-08-09T10:10:10Z</time>
      </trkpt>
      <trkpt lat="44.16708" lon="5.87108">
        <ele>509</ele>
        <time>2019-08-09T10:10:11Z</time>
      </trkpt>
      <trkpt lat="44.16714" lon="5.8711">
        <ele>509</ele>
        <time>2019-08-09T10:10:12Z</time>
      </trkpt>
      <trkpt lat="44.16721" lon="5.87113">
        <ele>509</ele>
        <time>2019-08-09T10:10:13Z</time>
      </trkpt>
      <trkpt lat="44.16726" lon="5.87117">
        <ele>509</ele>
        <time>2019-08-09T10:10:14Z</time>
      </trkpt>
      <trkpt lat="44.16732" lon="5.87121">
        <ele>509</ele>
        <time>2019-08-09T10:10:15Z</time>
      </trkpt>
      <trkpt lat="44.16737" lon="5.87127">
        <ele>509</ele>
        <time>2019-08-09T10:10:16Z</time>
      </trkpt>
      <trkpt lat="44.1674" lon="5.87132">
        <ele>509</ele>
        <time>2019-08-09T10:10:17Z</time>
      </trkpt>
      <trkpt lat="44.16744" lon="5.87137">
        <ele>509</ele>
        <time>2019-08-09T10:10:18Z</time>
      </trkpt>
      <trkpt lat="44.16747" lon="5.87144">
        <ele>509</ele>
        <time>2019-08-09T10:10:19Z</time>
      </trkpt>
      <trkpt lat="44.16749" lon="5.87151">
        <ele>509</ele>
        <time>2019-08-09T10:10:20Z</time>
      </trkpt>
      <trkpt lat="44.16751" lon="5.87159">
        <ele>509</ele>
        <time>2019-08-09T10:10:21Z</time>
      </trkpt>
      <trkpt lat="44.16753" lon="5.87168">
        <ele>509</ele>
        <time>2019-08-09T10:10:22Z</time>
      </trkpt>
      <trkpt lat="44.16755" lon="5.87178">
        <ele>509</ele>
        <time>2019-08-09T10:10:23Z</time>
      </trkpt>
      <trkpt lat="44.16756" lon="5.87188">
        <ele>509</ele>
        <time>2019-08-09T10:10:24Z</time>
      </trkpt>
      <trkpt lat="44.16758" lon="5.87198">
        <ele>509</ele>
        <time>2019-08-09T10:10:25Z</time>
      </trkpt>
      <trkpt lat="44.16759" lon="5.8721">
        <ele>508</ele>
        <time>2019-08-09T10:10:26Z</time>
      </trkpt>
      <trkpt lat="44.16761" lon="5.87221">
        <ele>508</ele>
        <time>2019-08-09T10:10:27Z</time>
      </trkpt>
      <trkpt lat="44.16762" lon="5.87232">
        <ele>507</ele>
        <time>2019-08-09T10:10:28Z</time>
      </trkpt>
      <trkpt lat="44.16764" lon="5.87243">
        <ele>506</ele>
        <time>2019-08-09T10:10:29Z</time>
      </trkpt>
      <trkpt lat="44.16765" lon="5.87254">
        <ele>506</ele>
        <time>2019-08-09T10:10:30Z</time>
      </trkpt>
      <trkpt lat="44.16766" lon="5.87265">
        <ele>505</ele>
        <time>2019-08-09T10:10:31Z</time>
      </trkpt>
      <trkpt lat="44.16768" lon="5.87276">
        <ele>504</ele>
        <time>2019-08-09T10:10:32Z</time>
      </trkpt>
      <trkpt lat="44.16769" lon="5.87287">
        <ele>503</ele>
        <time>2019-08-09T10:10:33Z</time>
      </trkpt>
      <trkpt lat="44.16771" lon="5.87298">
        <ele>503</ele>
        <time>2019-08-09T10:10:34Z</time>
      </trkpt>
      <trkpt lat="44.16772" lon="5.87309">
        <ele>503</ele>
        <time>2019-08-09T10:10:35Z</time>
      </trkpt>
      <trkpt lat="44.16773" lon="5.8732">
        <ele>502</ele>
        <time>2019-08-09T10:10:36Z</time>
      </trkpt>
      <trkpt lat="44.16775" lon="5.87331">
        <ele>502</ele>
        <time>2019-08-09T10:10:37Z</time>
      </trkpt>
      <trkpt lat="44.16776" lon="5.87341">
        <ele>502</ele>
        <time>2019-08-09T10:10:38Z</time>
      </trkpt>
      <trkpt lat="44.16777" lon="5.87351">
        <ele>502</ele>
        <time>2019-08-09T10:10:39Z</time>
      </trkpt>
      <trkpt lat="44.16779" lon="5.87361">
        <ele>502</ele>
        <time>2019-08-09T10:10:40Z</time>
      </trkpt>
      <trkpt lat="44.1678" lon="5.87371">
        <ele>502</ele>
        <time>2019-08-09T10:10:41Z</time>
      </trkpt>
      <trkpt lat="44.16781" lon="5.8738">
        <ele>502</ele>
        <time>2019-08-09T10:10:42Z</time>
      </trkpt>
      <trkpt lat="44.16782" lon="5.87389">
        <ele>501</ele>
        <time>2019-08-09T10:10:43Z</time>
      </trkpt>
      <trkpt lat="44.16784" lon="5.87398">
        <ele>501</ele>
        <time>2019-08-09T10:10:44Z</time>
      </trkpt>
      <trkpt lat="44.16785" lon="5.87406">
        <ele>500</ele>
        <time>2019-08-09T10:10:45Z</time>
      </trkpt>
      <trkpt lat="44.16786" lon="5.87415">
        <ele>500</ele>
        <time>2019-08-09T10:10:46Z</time>
      </trkpt>
      <trkpt lat="44.16787" lon="5.87424">
        <ele>499</ele>
        <time>2019-08-09T10:10:47Z</time>
      </trkpt>
      <trkpt lat="44.16787" lon="5.87433">
        <ele>498</ele>
        <time>2019-08-09T10:10:48Z</time>
      </trkpt>
      <trkpt lat="44.16788" lon="5.87442">
        <ele>497</ele>
        <time>2019-08-09T10:10:49Z</time>
      </trkpt>
      <trkpt lat="44.1679" lon="5.87452">
        <ele>497</ele>
        <time>2019-08-09T10:10:50Z</time>
      </trkpt>
      <trkpt lat="44.16791" lon="5.87461">
        <ele>496</ele>
        <time>2019-08-09T10:10:51Z</time>
      </trkpt>
      <trkpt lat="44.16793" lon="5.87471">
        <ele>495</ele>
        <time>2019-08-09T10:10:52Z</time>
      </trkpt>
      <trkpt lat="44.16795" lon="5.87481">
        <ele>494</ele>
        <time>2019-08-09T10:10:53Z</time>
      </trkpt>
      <trkpt lat="44.16796" lon="5.87492">
        <ele>494</ele>
        <time>2019-08-09T10:10:54Z</time>
      </trkpt>
      <trkpt lat="44.16799" lon="5.87502">
        <ele>494</ele>
        <time>2019-08-09T10:10:55Z</time>
      </trkpt>
      <trkpt lat="44.16801" lon="5.87512">
        <ele>494</ele>
        <time>2019-08-09T10:10:56Z</time>
      </trkpt>
      <trkpt lat="44.16804" lon="5.87523">
        <ele>494</ele>
        <time>2019-08-09T10:10:57Z</time>
      </trkpt>
      <trkpt lat="44.16806" lon="5.87534">
        <ele>494</ele>
        <time>2019-08-09T10:10:58Z</time>
      </trkpt>
      <trkpt lat="44.16809" lon="5.87545">
        <ele>494</ele>
        <time>2019-08-09T10:10:59Z</time>
      </trkpt>
      <trkpt lat="44.16811" lon="5.87557">
        <ele>494</ele>
        <time>2019-08-09T10:11:00Z</time>
      </trkpt>
      <trkpt lat="44.16813" lon="5.87568">
        <ele>494</ele>
        <time>2019-08-09T10:11:01Z</time>
      </trkpt>
      <trkpt lat="44.16815" lon="5.8758">
        <ele>494</ele>
        <time>2019-08-09T10:11:02Z</time>
      </trkpt>
      <trkpt lat="44.16817" lon="5.87592">
        <ele>494</ele>
        <time>2019-08-09T10:11:03Z</time>
      </trkpt>
      <trkpt lat="44.16819" lon="5.87603">
        <ele>494</ele>
        <time>2019-08-09T10:11:04Z</time>
      </trkpt>
      <trkpt lat="44.1682" lon="5.87614">
        <ele>494</ele>
        <time>2019-08-09T10:11:05Z</time>
      </trkpt>
      <trkpt lat="44.16822" lon="5.87626">
        <ele>494</ele>
        <time>2019-08-09T10:11:06Z</time>
      </trkpt>
      <trkpt lat="44.16823" lon="5.87636">
        <ele>494</ele>
        <time>2019-08-09T10:11:07Z</time>
      </trkpt>
      <trkpt lat="44.16825" lon="5.87647">
        <ele>494</ele>
        <time>2019-08-09T10:11:08Z</time>
      </trkpt>
      <trkpt lat="44.16827" lon="5.87657">
        <ele>494</ele>
        <time>2019-08-09T10:11:09Z</time>
      </trkpt>
      <trkpt lat="44.16828" lon="5.87668">
        <ele>494</ele>
        <time>2019-08-09T10:11:10Z</time>
      </trkpt>
      <trkpt lat="44.1683" lon="5.87678">
        <ele>494</ele>
        <time>2019-08-09T10:11:11Z</time>
      </trkpt>
      <trkpt lat="44.16832" lon="5.87688">
        <ele>494</ele>
        <time>2019-08-09T10:11:12Z</time>
      </trkpt>
      <trkpt lat="44.16833" lon="5.87699">
        <ele>495</ele>
        <time>2019-08-09T10:11:13Z</time>
      </trkpt>
      <trkpt lat="44.16835" lon="5.87709">
        <ele>495</ele>
        <time>2019-08-09T10:11:14Z</time>
      </trkpt>
      <trkpt lat="44.16837" lon="5.87719">
        <ele>495</ele>
        <time>2019-08-09T10:11:15Z</time>
      </trkpt>
      <trkpt lat="44.16838" lon="5.8773">
        <ele>495</ele>
        <time>2019-08-09T10:11:16Z</time>
      </trkpt>
      <trkpt lat="44.1684" lon="5.8774">
        <ele>496</ele>
        <time>2019-08-09T10:11:17Z</time>
      </trkpt>
      <trkpt lat="44.16841" lon="5.8775">
        <ele>496</ele>
        <time>2019-08-09T10:11:18Z</time>
      </trkpt>
      <trkpt lat="44.16843" lon="5.8776">
        <ele>496</ele>
        <time>2019-08-09T10:11:19Z</time>
      </trkpt>
      <trkpt lat="44.16844" lon="5.8777">
        <ele>496</ele>
        <time>2019-08-09T10:11:20Z</time>
      </trkpt>
      <trkpt lat="44.16846" lon="5.8778">
        <ele>497</ele>
        <time>2019-08-09T10:11:21Z</time>
      </trkpt>
      <trkpt lat="44.16848" lon="5.87789">
        <ele>497</ele>
        <time>2019-08-09T10:11:22Z</time>
      </trkpt>
      <trkpt lat="44.16849" lon="5.87799">
        <ele>497</ele>
        <time>2019-08-09T10:11:23Z</time>
      </trkpt>
      <trkpt lat="44.16851" lon="5.87808">
        <ele>497</ele>
        <time>2019-08-09T10:11:24Z</time>
      </trkpt>
      <trkpt lat="44.16852" lon="5.87818">
        <ele>498</ele>
        <time>2019-08-09T10:11:25Z</time>
      </trkpt>
      <trkpt lat="44.16854" lon="5.87827">
        <ele>498</ele>
        <time>2019-08-09T10:11:26Z</time>
      </trkpt>
      <trkpt lat="44.16856" lon="5.87837">
        <ele>498</ele>
        <time>2019-08-09T10:11:27Z</time>
      </trkpt>
      <trkpt lat="44.16857" lon="5.87846">
        <ele>498</ele>
        <time>2019-08-09T10:11:28Z</time>
      </trkpt>
      <trkpt lat="44.16859" lon="5.87856">
        <ele>499</ele>
        <time>2019-08-09T10:11:29Z</time>
      </trkpt>
      <trkpt lat="44.1686" lon="5.87865">
        <ele>499</ele>
        <time>2019-08-09T10:11:30Z</time>
      </trkpt>
      <trkpt lat="44.16862" lon="5.87874">
        <ele>499</ele>
        <time>2019-08-09T10:11:31Z</time>
      </trkpt>
      <trkpt lat="44.16863" lon="5.87884">
        <ele>499</ele>
        <time>2019-08-09T10:11:32Z</time>
      </trkpt>
      <trkpt lat="44.16865" lon="5.87893">
        <ele>499</ele>
        <time>2019-08-09T10:11:33Z</time>
      </trkpt>
      <trkpt lat="44.16866" lon="5.87902">
        <ele>500</ele>
        <time>2019-08-09T10:11:34Z</time>
      </trkpt>
      <trkpt lat="44.16868" lon="5.87911">
        <ele>500</ele>
        <time>2019-08-09T10:11:35Z</time>
      </trkpt>
      <trkpt lat="44.16869" lon="5.87921">
        <ele>500</ele>
        <time>2019-08-09T10:11:36Z</time>
      </trkpt>
      <trkpt lat="44.16871" lon="5.8793">
        <ele>500</ele>
        <time>2019-08-09T10:11:37Z</time>
      </trkpt>
      <trkpt lat="44.16872" lon="5.87939">
        <ele>500</ele>
        <time>2019-08-09T10:11:38Z</time>
      </trkpt>
      <trkpt lat="44.16874" lon="5.87948">
        <ele>500</ele>
        <time>2019-08-09T10:11:39Z</time>
      </trkpt>
      <trkpt lat="44.16875" lon="5.87958">
        <ele>500</ele>
        <time>2019-08-09T10:11:40Z</time>
      </trkpt>
      <trkpt lat="44.16877" lon="5.87967">
        <ele>500</ele>
        <time>2019-08-09T10:11:41Z</time>
      </trkpt>
      <trkpt lat="44.16878" lon="5.87976">
        <ele>501</ele>
        <time>2019-08-09T10:11:42Z</time>
      </trkpt>
      <trkpt lat="44.16879" lon="5.87986">
        <ele>501</ele>
        <time>2019-08-09T10:11:43Z</time>
      </trkpt>
      <trkpt lat="44.16881" lon="5.87995">
        <ele>501</ele>
        <time>2019-08-09T10:11:44Z</time>
      </trkpt>
      <trkpt lat="44.16882" lon="5.88004">
        <ele>501</ele>
        <time>2019-08-09T10:11:45Z</time>
      </trkpt>
      <trkpt lat="44.16884" lon="5.88013">
        <ele>501</ele>
        <time>2019-08-09T10:11:46Z</time>
      </trkpt>
      <trkpt lat="44.16885" lon="5.88022">
        <ele>501</ele>
        <time>2019-08-09T10:11:47Z</time>
      </trkpt>
      <trkpt lat="44.16887" lon="5.88031">
        <ele>501</ele>
        <time>2019-08-09T10:11:48Z</time>
      </trkpt>
      <trkpt lat="44.16888" lon="5.88039">
        <ele>501</ele>
        <time>2019-08-09T10:11:49Z</time>
      </trkpt>
      <trkpt lat="44.16889" lon="5.88048">
        <ele>501</ele>
        <time>2019-08-09T10:11:50Z</time>
      </trkpt>
      <trkpt lat="44.16891" lon="5.88057">
        <ele>501</ele>
        <time>2019-08-09T10:11:51Z</time>
      </trkpt>
      <trkpt lat="44.16892" lon="5.88065">
        <ele>501</ele>
        <time>2019-08-09T10:11:52Z</time>
      </trkpt>
      <trkpt lat="44.16893" lon="5.88073">
        <ele>501</ele>
        <time>2019-08-09T10:11:53Z</time>
      </trkpt>
      <trkpt lat="44.16895" lon="5.88082">
        <ele>501</ele>
        <time>2019-08-09T10:11:54Z</time>
      </trkpt>
      <trkpt lat="44.16896" lon="5.8809">
        <ele>501</ele>
        <time>2019-08-09T10:11:55Z</time>
      </trkpt>
      <trkpt lat="44.16898" lon="5.88098">
        <ele>501</ele>
        <time>2019-08-09T10:11:56Z</time>
      </trkpt>
      <trkpt lat="44.16899" lon="5.88106">
        <ele>501</ele>
        <time>2019-08-09T10:11:57Z</time>
      </trkpt>
      <trkpt lat="44.16901" lon="5.88114">
        <ele>501</ele>
        <time>2019-08-09T10:11:58Z</time>
      </trkpt>
      <trkpt lat="44.16902" lon="5.88122">
        <ele>501</ele>
        <time>2019-08-09T10:11:59Z</time>
      </trkpt>
      <trkpt lat="44.16904" lon="5.88129">
        <ele>501</ele>
        <time>2019-08-09T10:12:00Z</time>
      </trkpt>
      <trkpt lat="44.16905" lon="5.88136">
        <ele>501</ele>
        <time>2019-08-09T10:12:01Z</time>
      </trkpt>
      <trkpt lat="44.16907" lon="5.88144">
        <ele>501</ele>
        <time>2019-08-09T10:12:02Z</time>
      </trkpt>
      <trkpt lat="44.16909" lon="5.88151">
        <ele>501</ele>
        <time>2019-08-09T10:12:03Z</time>
      </trkpt>
      <trkpt lat="44.16912" lon="5.88159">
        <ele>501</ele>
        <time>2019-08-09T10:12:04Z</time>
      </trkpt>
      <trkpt lat="44.16915" lon="5.88166">
        <ele>502</ele>
        <time>2019-08-09T10:12:05Z</time>
      </trkpt>
      <trkpt lat="44.16918" lon="5.88173">
        <ele>502</ele>
        <time>2019-08-09T10:12:06Z</time>
      </trkpt>
      <trkpt lat="44.16921" lon="5.88181">
        <ele>502</ele>
        <time>2019-08-09T10:12:07Z</time>
      </trkpt>
      <trkpt lat="44.16925" lon="5.88188">
        <ele>502</ele>
        <time>2019-08-09T10:12:08Z</time>
      </trkpt>
      <trkpt lat="44.16928" lon="5.88195">
        <ele>502</ele>
        <time>2019-08-09T10:12:09Z</time>
      </trkpt>
      <trkpt lat="44.16931" lon="5.88202">
        <ele>502</ele>
        <time>2019-08-09T10:12:10Z</time>
      </trkpt>
      <trkpt lat="44.16933" lon="5.88209">
        <ele>502</ele>
        <time>2019-08-09T10:12:11Z</time>
      </trkpt>
      <trkpt lat="44.16936" lon="5.88217">
        <ele>502</ele>
        <time>2019-08-09T10:12:12Z</time>
      </trkpt>
      <trkpt lat="44.16938" lon="5.88224">
        <ele>502</ele>
        <time>2019-08-09T10:12:13Z</time>
      </trkpt>
      <trkpt lat="44.1694" lon="5.88231">
        <ele>502</ele>
        <time>2019-08-09T10:12:14Z</time>
      </trkpt>
      <trkpt lat="44.16942" lon="5.88238">
        <ele>502</ele>
        <time>2019-08-09T10:12:15Z</time>
      </trkpt>
      <trkpt lat="44.16944" lon="5.88245">
        <ele>502</ele>
        <time>2019-08-09T10:12:16Z</time>
      </trkpt>
      <trkpt lat="44.16946" lon="5.88252">
        <ele>502</ele>
        <time>2019-08-09T10:12:17Z</time>
      </trkpt>
      <trkpt lat="44.16947" lon="5.88259">
        <ele>502</ele>
        <time>2019-08-09T10:12:18Z</time>
      </trkpt>
      <trkpt lat="44.16948" lon="5.88266">
        <ele>502</ele>
        <time>2019-08-09T10:12:19Z</time>
      </trkpt>
      <trkpt lat="44.16949" lon="5.88273">
        <ele>502</ele>
        <time>2019-08-09T10:12:20Z</time>
      </trkpt>
      <trkpt lat="44.16951" lon="5.88281">
        <ele>502</ele>
        <time>2019-08-09T10:12:21Z</time>
      </trkpt>
      <trkpt lat="44.16952" lon="5.88289">
        <ele>502</ele>
        <time>2019-08-09T10:12:22Z</time>
      </trkpt>
      <trkpt lat="44.16953" lon="5.88297">
        <ele>502</ele>
        <time>2019-08-09T10:12:23Z</time>
      </trkpt>
      <trkpt lat="44.16954" lon="5.88305">
        <ele>502</ele>
        <time>2019-08-09T10:12:24Z</time>
      </trkpt>
      <trkpt lat="44.16955" lon="5.88313">
        <ele>502</ele>
        <time>2019-08-09T10:12:25Z</time>
      </trkpt>
      <trkpt lat="44.16956" lon="5.88321">
        <ele>502</ele>
        <time>2019-08-09T10:12:26Z</time>
      </trkpt>
      <trkpt lat="44.16957" lon="5.8833">
        <ele>502</ele>
        <time>2019-08-09T10:12:27Z</time>
      </trkpt>
      <trkpt lat="44.16958" lon="5.88339">
        <ele>502</ele>
        <time>2019-08-09T10:12:28Z</time>
      </trkpt>
      <trkpt lat="44.16959" lon="5.88347">
        <ele>502</ele>
        <time>2019-08-09T10:12:29Z</time>
      </trkpt>
      <trkpt lat="44.1696" lon="5.88356">
        <ele>502</ele>
        <time>2019-08-09T10:12:30Z</time>
      </trkpt>
      <trkpt lat="44.16961" lon="5.88365">
        <ele>502</ele>
        <time>2019-08-09T10:12:31Z</time>
      </trkpt>
      <trkpt lat="44.16962" lon="5.88374">
        <ele>502</ele>
        <time>2019-08-09T10:12:32Z</time>
      </trkpt>
      <trkpt lat="44.16963" lon="5.88383">
        <ele>502</ele>
        <time>2019-08-09T10:12:33Z</time>
      </trkpt>
      <trkpt lat="44.16964" lon="5.88392">
        <ele>502</ele>
        <time>2019-08-09T10:12:34Z</time>
      </trkpt>
      <trkpt lat="44.16966" lon="5.88401">
        <ele>502</ele>
        <time>2019-08-09T10:12:35Z</time>
      </trkpt>
      <trkpt lat="44.16968" lon="5.8841">
        <ele>502</ele>
        <time>2019-08-09T10:12:36Z</time>
      </trkpt>
      <trkpt lat="44.1697" lon="5.88419">
        <ele>502</ele>
        <time>2019-08-09T10:12:37Z</time>
      </trkpt>
      <trkpt lat="44.16972" lon="5.88428">
        <ele>502</ele>
        <time>2019-08-09T10:12:38Z</time>
      </trkpt>
      <trkpt lat="44.16975" lon="5.88437">
        <ele>502</ele>
        <time>2019-08-09T10:12:39Z</time>
      </trkpt>
      <trkpt lat="44.16977" lon="5.88446">
        <ele>502</ele>
        <time>2019-08-09T10:12:40Z</time>
      </trkpt>
      <trkpt lat="44.16981" lon="5.88454">
        <ele>502</ele>
        <time>2019-08-09T10:12:41Z</time>
      </trkpt>
      <trkpt lat="44.16984" lon="5.88463">
        <ele>502</ele>
        <time>2019-08-09T10:12:42Z</time>
      </trkpt>
      <trkpt lat="44.16988" lon="5.88471">
        <ele>502</ele>
        <time>2019-08-09T10:12:43Z</time>
      </trkpt>
      <trkpt lat="44.16992" lon="5.8848">
        <ele>502</ele>
        <time>2019-08-09T10:12:44Z</time>
      </trkpt>
      <trkpt lat="44.16996" lon="5.88488">
        <ele>502</ele>
        <time>2019-08-09T10:12:45Z</time>
      </trkpt>
      <trkpt lat="44.17" lon="5.88497">
        <ele>502</ele>
        <time>2019-08-09T10:12:46Z</time>
      </trkpt>
      <trkpt lat="44.17004" lon="5.88506">
        <ele>502</ele>
        <time>2019-08-09T10:12:47Z</time>
      </trkpt>
      <trkpt lat="44.17008" lon="5.88515">
        <ele>502</ele>
        <time>2019-08-09T10:12:48Z</time>
      </trkpt>
      <trkpt lat="44.17012" lon="5.88523">
        <ele>502</ele>
        <time>2019-08-09T10:12:49Z</time>
      </trkpt>
      <trkpt lat="44.17016" lon="5.88532">
        <ele>502</ele>
        <time>2019-08-09T10:12:50Z</time>
      </trkpt>
      <trkpt lat="44.1702" lon="5.88541">
        <ele>502</ele>
        <time>2019-08-09T10:12:51Z</time>
      </trkpt>
      <trkpt lat="44.17024" lon="5.88551">
        <ele>502</ele>
        <time>2019-08-09T10:12:52Z</time>
      </trkpt>
      <trkpt lat="44.17028" lon="5.88561">
        <ele>502</ele>
        <time>2019-08-09T10:12:53Z</time>
      </trkpt>
      <trkpt lat="44.17031" lon="5.88571">
        <ele>502</ele>
        <time>2019-08-09T10:12:54Z</time>
      </trkpt>
      <trkpt lat="44.17034" lon="5.8858">
        <ele>502</ele>
        <time>2019-08-09T10:12:55Z</time>
      </trkpt>
      <trkpt lat="44.17037" lon="5.8859">
        <ele>502</ele>
        <time>2019-08-09T10:12:56Z</time>
      </trkpt>
      <trkpt lat="44.17041" lon="5.88599">
        <ele>502</ele>
        <time>2019-08-09T10:12:57Z</time>
      </trkpt>
      <trkpt lat="44.17044" lon="5.88609">
        <ele>502</ele>
        <time>2019-08-09T10:12:58Z</time>
      </trkpt>
      <trkpt lat="44.17046" lon="5.88618">
        <ele>502</ele>
        <time>2019-08-09T10:12:59Z</time>
      </trkpt>
      <trkpt lat="44.17049" lon="5.88627">
        <ele>502</ele>
        <time>2019-08-09T10:13:00Z</time>
      </trkpt>
      <trkpt lat="44.17052" lon="5.88637">
        <ele>502</ele>
        <time>2019-08-09T10:13:01Z</time>
      </trkpt>
      <trkpt lat="44.17055" lon="5.88646">
        <ele>502</ele>
        <time>2019-08-09T10:13:02Z</time>
      </trkpt>
      <trkpt lat="44.17057" lon="5.88656">
        <ele>502</ele>
        <time>2019-08-09T10:13:03Z</time>
      </trkpt>
      <trkpt lat="44.17059" lon="5.88665">
        <ele>502</ele>
        <time>2019-08-09T10:13:04Z</time>
      </trkpt>
      <trkpt lat="44.17062" lon="5.88674">
        <ele>502</ele>
        <time>2019-08-09T10:13:05Z</time>
      </trkpt>
      <trkpt lat="44.17064" lon="5.88684">
        <ele>502</ele>
        <time>2019-08-09T10:13:06Z</time>
      </trkpt>
      <trkpt lat="44.17067" lon="5.88693">
        <ele>502</ele>
        <time>2019-08-09T10:13:07Z</time>
      </trkpt>
      <trkpt lat="44.17069" lon="5.88702">
        <ele>502</ele>
        <time>2019-08-09T10:13:08Z</time>
      </trkpt>
      <trkpt lat="44.17072" lon="5.88711">
        <ele>502</ele>
        <time>2019-08-09T10:13:09Z</time>
      </trkpt>
      <trkpt lat="44.17074" lon="5.8872">
        <ele>502</ele>
        <time>2019-08-09T10:13:10Z</time>
      </trkpt>
      <trkpt lat="44.17077" lon="5.88729">
        <ele>502</ele>
        <time>2019-08-09T10:13:11Z</time>
      </trkpt>
      <trkpt lat="44.1708" lon="5.88737">
        <ele>502</ele>
        <time>2019-08-09T10:13:12Z</time>
      </trkpt>
      <trkpt lat="44.17083" lon="5.88746">
        <ele>502</ele>
        <time>2019-08-09T10:13:13Z</time>
      </trkpt>
      <trkpt lat="44.17087" lon="5.88755">
        <ele>502</ele>
        <time>2019-08-09T10:13:14Z</time>
      </trkpt>
      <trkpt lat="44.1709" lon="5.88764">
        <ele>502</ele>
        <time>2019-08-09T10:13:15Z</time>
      </trkpt>
      <trkpt lat="44.17094" lon="5.88774">
        <ele>502</ele>
        <time>2019-08-09T10:13:16Z</time>
      </trkpt>
      <trkpt lat="44.17097" lon="5.88783">
        <ele>502</ele>
        <time>2019-08-09T10:13:17Z</time>
      </trkpt>
      <trkpt lat="44.17101" lon="5.88792">
        <ele>502</ele>
        <time>2019-08-09T10:13:18Z</time>
      </trkpt>
      <trkpt lat="44.17104" lon="5.88801">
        <ele>502</ele>
        <time>2019-08-09T10:13:19Z</time>
      </trkpt>
      <trkpt lat="44.17107" lon="5.8881">
        <ele>502</ele>
        <time>2019-08-09T10:13:20Z</time>
      </trkpt>
      <trkpt lat="44.17111" lon="5.88819">
        <ele>502</ele>
        <time>2019-08-09T10:13:21Z</time>
      </trkpt>
      <trkpt lat="44.17115" lon="5.88829">
        <ele>502</ele>
        <time>2019-08-09T10:13:22Z</time>
      </trkpt>
      <trkpt lat="44.17118" lon="5.88838">
        <ele>502</ele>
        <time>2019-08-09T10:13:23Z</time>
      </trkpt>
      <trkpt lat="44.17122" lon="5.88847">
        <ele>502</ele>
        <time>2019-08-09T10:13:24Z</time>
      </trkpt>
      <trkpt lat="44.17125" lon="5.88855">
        <ele>502</ele>
        <time>2019-08-09T10:13:25Z</time>
      </trkpt>
      <trkpt lat="44.17129" lon="5.88864">
        <ele>502</ele>
        <time>2019-08-09T10:13:26Z</time>
      </trkpt>
      <trkpt lat="44.17132" lon="5.88872">
        <ele>501</ele>
        <time>2019-08-09T10:13:27Z</time>
      </trkpt>
      <trkpt lat="44.17136" lon="5.8888">
        <ele>501</ele>
        <time>2019-08-09T10:13:28Z</time>
      </trkpt>
      <trkpt lat="44.17139" lon="5.88889">
        <ele>500</ele>
        <time>2019-08-09T10:13:29Z</time>
      </trkpt>
      <trkpt lat="44.17143" lon="5.88897">
        <ele>500</ele>
        <time>2019-08-09T10:13:30Z</time>
      </trkpt>
      <trkpt lat="44.17146" lon="5.88906">
        <ele>500</ele>
        <time>2019-08-09T10:13:31Z</time>
      </trkpt>
      <trkpt lat="44.17149" lon="5.88914">
        <ele>500</ele>
        <time>2019-08-09T10:13:32Z</time>
      </trkpt>
      <trkpt lat="44.17152" lon="5.88923">
        <ele>500</ele>
        <time>2019-08-09T10:13:33Z</time>
      </trkpt>
      <trkpt lat="44.17155" lon="5.88932">
        <ele>500</ele>
        <time>2019-08-09T10:13:34Z</time>
      </trkpt>
      <trkpt lat="44.17158" lon="5.88941">
        <ele>500</ele>
        <time>2019-08-09T10:13:35Z</time>
      </trkpt>
      <trkpt lat="44.1716" lon="5.8895">
        <ele>500</ele>
        <time>2019-08-09T10:13:36Z</time>
      </trkpt>
      <trkpt lat="44.17162" lon="5.8896">
        <ele>500</ele>
        <time>2019-08-09T10:13:37Z</time>
      </trkpt>
      <trkpt lat="44.17164" lon="5.88969">
        <ele>500</ele>
        <time>2019-08-09T10:13:38Z</time>
      </trkpt>
      <trkpt lat="44.17165" lon="5.88978">
        <ele>500</ele>
        <time>2019-08-09T10:13:39Z</time>
      </trkpt>
      <trkpt lat="44.17168" lon="5.88988">
        <ele>500</ele>
        <time>2019-08-09T10:13:40Z</time>
      </trkpt>
      <trkpt lat="44.17169" lon="5.88998">
        <ele>500</ele>
        <time>2019-08-09T10:13:41Z</time>
      </trkpt>
      <trkpt lat="44.17171" lon="5.89007">
        <ele>500</ele>
        <time>2019-08-09T10:13:42Z</time>
      </trkpt>
      <trkpt lat="44.17173" lon="5.89017">
        <ele>500</ele>
        <time>2019-08-09T10:13:43Z</time>
      </trkpt>
      <trkpt lat="44.17174" lon="5.89027">
        <ele>500</ele>
        <time>2019-08-09T10:13:44Z</time>
      </trkpt>
      <trkpt lat="44.17176" lon="5.89036">
        <ele>499</ele>
        <time>2019-08-09T10:13:45Z</time>
      </trkpt>
      <trkpt lat="44.17178" lon="5.89045">
        <ele>499</ele>
        <time>2019-08-09T10:13:46Z</time>
      </trkpt>
      <trkpt lat="44.17179" lon="5.89054">
        <ele>499</ele>
        <time>2019-08-09T10:13:47Z</time>
      </trkpt>
      <trkpt lat="44.17182" lon="5.89063">
        <ele>499</ele>
        <time>2019-08-09T10:13:48Z</time>
      </trkpt>
      <trkpt lat="44.17184" lon="5.89072">
        <ele>499</ele>
        <time>2019-08-09T10:13:49Z</time>
      </trkpt>
      <trkpt lat="44.17187" lon="5.89081">
        <ele>499</ele>
        <time>2019-08-09T10:13:50Z</time>
      </trkpt>
      <trkpt lat="44.17191" lon="5.8909">
        <ele>499</ele>
        <time>2019-08-09T10:13:51Z</time>
      </trkpt>
      <trkpt lat="44.17194" lon="5.89099">
        <ele>499</ele>
        <time>2019-08-09T10:13:52Z</time>
      </trkpt>
      <trkpt lat="44.17197" lon="5.89108">
        <ele>499</ele>
        <time>2019-08-09T10:13:53Z</time>
      </trkpt>
      <trkpt lat="44.17201" lon="5.89117">
        <ele>498</ele>
        <time>2019-08-09T10:13:54Z</time>
      </trkpt>
      <trkpt lat="44.17205" lon="5.89127">
        <ele>498</ele>
        <time>2019-08-09T10:13:55Z</time>
      </trkpt>
      <trkpt lat="44.17208" lon="5.89137">
        <ele>498</ele>
        <time>2019-08-09T10:13:56Z</time>
      </trkpt>
      <trkpt lat="44.17212" lon="5.89147">
        <ele>497</ele>
        <time>2019-08-09T10:13:57Z</time>
      </trkpt>
      <trkpt lat="44.17216" lon="5.89156">
        <ele>496</ele>
        <time>2019-08-09T10:13:58Z</time>
      </trkpt>
      <trkpt lat="44.17221" lon="5.89166">
        <ele>495</ele>
        <time>2019-08-09T10:13:59Z</time>
      </trkpt>
      <trkpt lat="44.17225" lon="5.89176">
        <ele>495</ele>
        <time>2019-08-09T10:14:00Z</time>
      </trkpt>
      <trkpt lat="44.17228" lon="5.89185">
        <ele>494</ele>
        <time>2019-08-09T10:14:01Z</time>
      </trkpt>
      <trkpt lat="44.17232" lon="5.89195">
        <ele>494</ele>
        <time>2019-08-09T10:14:02Z</time>
      </trkpt>
      <trkpt lat="44.17235" lon="5.89204">
        <ele>494</ele>
        <time>2019-08-09T10:14:03Z</time>
      </trkpt>
      <trkpt lat="44.17239" lon="5.89214">
        <ele>494</ele>
        <time>2019-08-09T10:14:04Z</time>
      </trkpt>
      <trkpt lat="44.17242" lon="5.89223">
        <ele>494</ele>
        <time>2019-08-09T10:14:05Z</time>
      </trkpt>
      <trkpt lat="44.17245" lon="5.89233">
        <ele>494</ele>
        <time>2019-08-09T10:14:06Z</time>
      </trkpt>
      <trkpt lat="44.17247" lon="5.89243">
        <ele>494</ele>
        <time>2019-08-09T10:14:07Z</time>
      </trkpt>
      <trkpt lat="44.1725" lon="5.89253">
        <ele>494</ele>
        <time>2019-08-09T10:14:08Z</time>
      </trkpt>
      <trkpt lat="44.17251" lon="5.89263">
        <ele>494</ele>
        <time>2019-08-09T10:14:09Z</time>
      </trkpt>
      <trkpt lat="44.17253" lon="5.89273">
        <ele>494</ele>
        <time>2019-08-09T10:14:10Z</time>
      </trkpt>
      <trkpt lat="44.17255" lon="5.89284">
        <ele>494</ele>
        <time>2019-08-09T10:14:11Z</time>
      </trkpt>
      <trkpt lat="44.17256" lon="5.89294">
        <ele>494</ele>
        <time>2019-08-09T10:14:12Z</time>
      </trkpt>
      <trkpt lat="44.17258" lon="5.89304">
        <ele>494</ele>
        <time>2019-08-09T10:14:13Z</time>
      </trkpt>
      <trkpt lat="44.17259" lon="5.89315">
        <ele>494</ele>
        <time>2019-08-09T10:14:14Z</time>
      </trkpt>
      <trkpt lat="44.1726" lon="5.89326">
        <ele>494</ele>
        <time>2019-08-09T10:14:15Z</time>
      </trkpt>
      <trkpt lat="44.17261" lon="5.89336">
        <ele>494</ele>
        <time>2019-08-09T10:14:16Z</time>
      </trkpt>
      <trkpt lat="44.17262" lon="5.89347">
        <ele>494</ele>
        <time>2019-08-09T10:14:17Z</time>
      </trkpt>
      <trkpt lat="44.17263" lon="5.89357">
        <ele>494</ele>
        <time>2019-08-09T10:14:18Z</time>
      </trkpt>
      <trkpt lat="44.17264" lon="5.89367">
        <ele>494</ele>
        <time>2019-08-09T10:14:19Z</time>
      </trkpt>
      <trkpt lat="44.17265" lon="5.89378">
        <ele>494</ele>
        <time>2019-08-09T10:14:20Z</time>
      </trkpt>
      <trkpt lat="44.17266" lon="5.89388">
        <ele>494</ele>
        <time>2019-08-09T10:14:21Z</time>
      </trkpt>
      <trkpt lat="44.17267" lon="5.89398">
        <ele>494</ele>
        <time>2019-08-09T10:14:22Z</time>
      </trkpt>
      <trkpt lat="44.17268" lon="5.89409">
        <ele>494</ele>
        <time>2019-08-09T10:14:23Z</time>
      </trkpt>
      <trkpt lat="44.1727" lon="5.8942">
        <ele>494</ele>
        <time>2019-08-09T10:14:24Z</time>
      </trkpt>
      <trkpt lat="44.17271" lon="5.89431">
        <ele>494</ele>
        <time>2019-08-09T10:14:25Z</time>
      </trkpt>
      <trkpt lat="44.17272" lon="5.89441">
        <ele>494</ele>
        <time>2019-08-09T10:14:26Z</time>
      </trkpt>
      <trkpt lat="44.17273" lon="5.89452">
        <ele>494</ele>
        <time>2019-08-09T10:14:27Z</time>
      </trkpt>
      <trkpt lat="44.17275" lon="5.89463">
        <ele>494</ele>
        <time>2019-08-09T10:14:28Z</time>
      </trkpt>
      <trkpt lat="44.17276" lon="5.89473">
        <ele>494</ele>
        <time>2019-08-09T10:14:29Z</time>
      </trkpt>
      <trkpt lat="44.17278" lon="5.89484">
        <ele>494</ele>
        <time>2019-08-09T10:14:30Z</time>
      </trkpt>
      <trkpt lat="44.17279" lon="5.89495">
        <ele>494</ele>
        <time>2019-08-09T10:14:31Z</time>
      </trkpt>
      <trkpt lat="44.1728" lon="5.89505">
        <ele>494</ele>
        <time>2019-08-09T10:14:32Z</time>
      </trkpt>
      <trkpt lat="44.17281" lon="5.89515">
        <ele>494</ele>
        <time>2019-08-09T10:14:33Z</time>
      </trkpt>
      <trkpt lat="44.17283" lon="5.89526">
        <ele>494</ele>
        <time>2019-08-09T10:14:34Z</time>
      </trkpt>
      <trkpt lat="44.17284" lon="5.89537">
        <ele>494</ele>
        <time>2019-08-09T10:14:35Z</time>
      </trkpt>
      <trkpt lat="44.17286" lon="5.89547">
        <ele>494</ele>
        <time>2019-08-09T10:14:36Z</time>
      </trkpt>
      <trkpt lat="44.17287" lon="5.89558">
        <ele>494</ele>
        <time>2019-08-09T10:14:37Z</time>
      </trkpt>
      <trkpt lat="44.17288" lon="5.89569">
        <ele>494</ele>
        <time>2019-08-09T10:14:38Z</time>
      </trkpt>
      <trkpt lat="44.17289" lon="5.8958">
        <ele>494</ele>
        <time>2019-08-09T10:14:39Z</time>
      </trkpt>
      <trkpt lat="44.1729" lon="5.8959">
        <ele>494</ele>
        <time>2019-08-09T10:14:40Z</time>
      </trkpt>
      <trkpt lat="44.17292" lon="5.89601">
        <ele>494</ele>
        <time>2019-08-09T10:14:41Z</time>
      </trkpt>
      <trkpt lat="44.17293" lon="5.89611">
        <ele>494</ele>
        <time>2019-08-09T10:14:42Z</time>
      </trkpt>
      <trkpt lat="44.17294" lon="5.89622">
        <ele>494</ele>
        <time>2019-08-09T10:14:43Z</time>
      </trkpt>
      <trkpt lat="44.17295" lon="5.89632">
        <ele>494</ele>
        <time>2019-08-09T10:14:44Z</time>
      </trkpt>
      <trkpt lat="44.17296" lon="5.89642">
        <ele>494</ele>
        <time>2019-08-09T10:14:45Z</time>
      </trkpt>
      <trkpt lat="44.17297" lon="5.89652">
        <ele>494</ele>
        <time>2019-08-09T10:14:46Z</time>
      </trkpt>
      <trkpt lat="44.17298" lon="5.89662">
        <ele>494</ele>
        <time>2019-08-09T10:14:47Z</time>
      </trkpt>
      <trkpt lat="44.173" lon="5.89672">
        <ele>494</ele>
        <time>2019-08-09T10:14:48Z</time>
      </trkpt>
      <trkpt lat="44.17301" lon="5.89682">
        <ele>494</ele>
        <time>2019-08-09T10:14:49Z</time>
      </trkpt>
      <trkpt lat="44.17303" lon="5.89691">
        <ele>494</ele>
        <time>2019-08-09T10:14:50Z</time>
      </trkpt>
      <trkpt lat="44.17305" lon="5.89701">
        <ele>494</ele>
        <time>2019-08-09T10:14:51Z</time>
      </trkpt>
      <trkpt lat="44.17306" lon="5.89711">
        <ele>494</ele>
        <time>2019-08-09T10:14:52Z</time>
      </trkpt>
      <trkpt lat="44.17308" lon="5.8972">
        <ele>494</ele>
        <time>2019-08-09T10:14:53Z</time>
      </trkpt>
      <trkpt lat="44.17309" lon="5.89729">
        <ele>494</ele>
        <time>2019-08-09T10:14:54Z</time>
      </trkpt>
      <trkpt lat="44.17311" lon="5.89739">
        <ele>494</ele>
        <time>2019-08-09T10:14:55Z</time>
      </trkpt>
      <trkpt lat="44.17313" lon="5.89749">
        <ele>494</ele>
        <time>2019-08-09T10:14:56Z</time>
      </trkpt>
      <trkpt lat="44.17314" lon="5.89759">
        <ele>494</ele>
        <time>2019-08-09T10:14:57Z</time>
      </trkpt>
      <trkpt lat="44.17316" lon="5.89769">
        <ele>494</ele>
        <time>2019-08-09T10:14:58Z</time>
      </trkpt>
      <trkpt lat="44.17318" lon="5.89778">
        <ele>494</ele>
        <time>2019-08-09T10:14:59Z</time>
      </trkpt>
      <trkpt lat="44.1732" lon="5.89788">
        <ele>494</ele>
        <time>2019-08-09T10:15:00Z</time>
      </trkpt>
      <trkpt lat="44.17322" lon="5.89798">
        <ele>494</ele>
        <time>2019-08-09T10:15:01Z</time>
      </trkpt>
      <trkpt lat="44.17324" lon="5.89808">
        <ele>494</ele>
        <time>2019-08-09T10:15:02Z</time>
      </trkpt>
      <trkpt lat="44.17326" lon="5.89817">
        <ele>494</ele>
        <time>2019-08-09T10:15:03Z</time>
      </trkpt>
      <trkpt lat="44.17327" lon="5.89827">
        <ele>494</ele>
        <time>2019-08-09T10:15:04Z</time>
      </trkpt>
      <trkpt lat="44.17329" lon="5.89837">
        <ele>494</ele>
        <time>2019-08-09T10:15:05Z</time>
      </trkpt>
      <trkpt lat="44.17331" lon="5.89847">
        <ele>494</ele>
        <time>2019-08-09T10:15:06Z</time>
      </trkpt>
      <trkpt lat="44.17332" lon="5.89857">
        <ele>494</ele>
        <time>2019-08-09T10:15:07Z</time>
      </trkpt>
      <trkpt lat="44.17334" lon="5.89867">
        <ele>494</ele>
        <time>2019-08-09T10:15:08Z</time>
      </trkpt>
      <trkpt lat="44.17336" lon="5.89877">
        <ele>494</ele>
        <time>2019-08-09T10:15:09Z</time>
      </trkpt>
      <trkpt lat="44.17338" lon="5.89887">
        <ele>494</ele>
        <time>2019-08-09T10:15:10Z</time>
      </trkpt>
      <trkpt lat="44.1734" lon="5.89897">
        <ele>494</ele>
        <time>2019-08-09T10:15:11Z</time>
      </trkpt>
      <trkpt lat="44.17342" lon="5.89906">
        <ele>494</ele>
        <time>2019-08-09T10:15:12Z</time>
      </trkpt>
      <trkpt lat="44.17344" lon="5.89916">
        <ele>494</ele>
        <time>2019-08-09T10:15:13Z</time>
      </trkpt>
      <trkpt lat="44.17347" lon="5.89925">
        <ele>494</ele>
        <time>2019-08-09T10:15:14Z</time>
      </trkpt>
      <trkpt lat="44.17349" lon="5.89935">
        <ele>494</ele>
        <time>2019-08-09T10:15:15Z</time>
      </trkpt>
      <trkpt lat="44.17352" lon="5.89944">
        <ele>494</ele>
        <time>2019-08-09T10:15:16Z</time>
      </trkpt>
      <trkpt lat="44.17355" lon="5.89953">
        <ele>494</ele>
        <time>2019-08-09T10:15:17Z</time>
      </trkpt>
      <trkpt lat="44.17358" lon="5.89962">
        <ele>494</ele>
        <time>2019-08-09T10:15:18Z</time>
      </trkpt>
      <trkpt lat="44.17361" lon="5.89971">
        <ele>494</ele>
        <time>2019-08-09T10:15:19Z</time>
      </trkpt>
      <trkpt lat="44.17364" lon="5.89981">
        <ele>494</ele>
        <time>2019-08-09T10:15:20Z</time>
      </trkpt>
      <trkpt lat="44.17367" lon="5.8999">
        <ele>494</ele>
        <time>2019-08-09T10:15:21Z</time>
      </trkpt>
      <trkpt lat="44.1737" lon="5.9">
        <ele>494</ele>
        <time>2019-08-09T10:15:22Z</time>
      </trkpt>
      <trkpt lat="44.17373" lon="5.9001">
        <ele>494</ele>
        <time>2019-08-09T10:15:23Z</time>
      </trkpt>
      <trkpt lat="44.17375" lon="5.9002">
        <ele>494</ele>
        <time>2019-08-09T10:15:24Z</time>
      </trkpt>
      <trkpt lat="44.17378" lon="5.9003">
        <ele>494</ele>
        <time>2019-08-09T10:15:25Z</time>
      </trkpt>
      <trkpt lat="44.17381" lon="5.9004">
        <ele>494</ele>
        <time>2019-08-09T10:15:26Z</time>
      </trkpt>
      <trkpt lat="44.17384" lon="5.9005">
        <ele>494</ele>
        <time>2019-08-09T10:15:27Z</time>
      </trkpt>
      <trkpt lat="44.17386" lon="5.90061">
        <ele>494</ele>
        <time>2019-08-09T10:15:28Z</time>
      </trkpt>
      <trkpt lat="44.17388" lon="5.90071">
        <ele>494</ele>
        <time>2019-08-09T10:15:29Z</time>
      </trkpt>
      <trkpt lat="44.1739" lon="5.90082">
        <ele>494</ele>
        <time>2019-08-09T10:15:30Z</time>
      </trkpt>
      <trkpt lat="44.17392" lon="5.90093">
        <ele>494</ele>
        <time>2019-08-09T10:15:31Z</time>
      </trkpt>
      <trkpt lat="44.17393" lon="5.90103">
        <ele>494</ele>
        <time>2019-08-09T10:15:32Z</time>
      </trkpt>
      <trkpt lat="44.17394" lon="5.90114">
        <ele>494</ele>
        <time>2019-08-09T10:15:33Z</time>
      </trkpt>
      <trkpt lat="44.17395" lon="5.90124">
        <ele>494</ele>
        <time>2019-08-09T10:15:34Z</time>
      </trkpt>
      <trkpt lat="44.17396" lon="5.90135">
        <ele>493</ele>
        <time>2019-08-09T10:15:35Z</time>
      </trkpt>
      <trkpt lat="44.17397" lon="5.90146">
        <ele>493</ele>
        <time>2019-08-09T10:15:36Z</time>
      </trkpt>
      <trkpt lat="44.17397" lon="5.90157">
        <ele>493</ele>
        <time>2019-08-09T10:15:37Z</time>
      </trkpt>
      <trkpt lat="44.17396" lon="5.90168">
        <ele>493</ele>
        <time>2019-08-09T10:15:38Z</time>
      </trkpt>
      <trkpt lat="44.17396" lon="5.90178">
        <ele>492</ele>
        <time>2019-08-09T10:15:39Z</time>
      </trkpt>
      <trkpt lat="44.17396" lon="5.90189">
        <ele>492</ele>
        <time>2019-08-09T10:15:40Z</time>
      </trkpt>
      <trkpt lat="44.17396" lon="5.90199">
        <ele>492</ele>
        <time>2019-08-09T10:15:41Z</time>
      </trkpt>
      <trkpt lat="44.17395" lon="5.90209">
        <ele>492</ele>
        <time>2019-08-09T10:15:42Z</time>
      </trkpt>
      <trkpt lat="44.17395" lon="5.90219">
        <ele>492</ele>
        <time>2019-08-09T10:15:43Z</time>
      </trkpt>
      <trkpt lat="44.17395" lon="5.90229">
        <ele>492</ele>
        <time>2019-08-09T10:15:44Z</time>
      </trkpt>
      <trkpt lat="44.17395" lon="5.90239">
        <ele>492</ele>
        <time>2019-08-09T10:15:45Z</time>
      </trkpt>
      <trkpt lat="44.17395" lon="5.9025">
        <ele>492</ele>
        <time>2019-08-09T10:15:46Z</time>
      </trkpt>
      <trkpt lat="44.17395" lon="5.9026">
        <ele>492</ele>
        <time>2019-08-09T10:15:47Z</time>
      </trkpt>
      <trkpt lat="44.17395" lon="5.9027">
        <ele>492</ele>
        <time>2019-08-09T10:15:48Z</time>
      </trkpt>
      <trkpt lat="44.17394" lon="5.90281">
        <ele>492</ele>
        <time>2019-08-09T10:15:49Z</time>
      </trkpt>
      <trkpt lat="44.17393" lon="5.90291">
        <ele>492</ele>
        <time>2019-08-09T10:15:50Z</time>
      </trkpt>
      <trkpt lat="44.17392" lon="5.90302">
        <ele>492</ele>
        <time>2019-08-09T10:15:51Z</time>
      </trkpt>
      <trkpt lat="44.17391" lon="5.90312">
        <ele>492</ele>
        <time>2019-08-09T10:15:52Z</time>
      </trkpt>
      <trkpt lat="44.1739" lon="5.90323">
        <ele>491</ele>
        <time>2019-08-09T10:15:53Z</time>
      </trkpt>
      <trkpt lat="44.17389" lon="5.90333">
        <ele>491</ele>
        <time>2019-08-09T10:15:54Z</time>
      </trkpt>
      <trkpt lat="44.17387" lon="5.90344">
        <ele>491</ele>
        <time>2019-08-09T10:15:55Z</time>
      </trkpt>
      <trkpt lat="44.17385" lon="5.90355">
        <ele>491</ele>
        <time>2019-08-09T10:15:56Z</time>
      </trkpt>
      <trkpt lat="44.17384" lon="5.90366">
        <ele>491</ele>
        <time>2019-08-09T10:15:57Z</time>
      </trkpt>
      <trkpt lat="44.17383" lon="5.90377">
        <ele>491</ele>
        <time>2019-08-09T10:15:58Z</time>
      </trkpt>
      <trkpt lat="44.17382" lon="5.90388">
        <ele>491</ele>
        <time>2019-08-09T10:15:59Z</time>
      </trkpt>
      <trkpt lat="44.17381" lon="5.904">
        <ele>491</ele>
        <time>2019-08-09T10:16:00Z</time>
      </trkpt>
      <trkpt lat="44.17381" lon="5.90411">
        <ele>491</ele>
        <time>2019-08-09T10:16:01Z</time>
      </trkpt>
      <trkpt lat="44.1738" lon="5.90422">
        <ele>491</ele>
        <time>2019-08-09T10:16:02Z</time>
      </trkpt>
      <trkpt lat="44.1738" lon="5.90433">
        <ele>491</ele>
        <time>2019-08-09T10:16:03Z</time>
      </trkpt>
      <trkpt lat="44.17379" lon="5.90444">
        <ele>491</ele>
        <time>2019-08-09T10:16:04Z</time>
      </trkpt>
      <trkpt lat="44.17379" lon="5.90456">
        <ele>490</ele>
        <time>2019-08-09T10:16:05Z</time>
      </trkpt>
      <trkpt lat="44.17379" lon="5.90467">
        <ele>490</ele>
        <time>2019-08-09T10:16:06Z</time>
      </trkpt>
      <trkpt lat="44.17379" lon="5.90478">
        <ele>490</ele>
        <time>2019-08-09T10:16:07Z</time>
      </trkpt>
      <trkpt lat="44.17379" lon="5.90489">
        <ele>490</ele>
        <time>2019-08-09T10:16:08Z</time>
      </trkpt>
      <trkpt lat="44.17379" lon="5.905">
        <ele>489</ele>
        <time>2019-08-09T10:16:09Z</time>
      </trkpt>
      <trkpt lat="44.17379" lon="5.90511">
        <ele>489</ele>
        <time>2019-08-09T10:16:10Z</time>
      </trkpt>
      <trkpt lat="44.17379" lon="5.90522">
        <ele>489</ele>
        <time>2019-08-09T10:16:11Z</time>
      </trkpt>
      <trkpt lat="44.17379" lon="5.90533">
        <ele>489</ele>
        <time>2019-08-09T10:16:12Z</time>
      </trkpt>
      <trkpt lat="44.17379" lon="5.90543">
        <ele>489</ele>
        <time>2019-08-09T10:16:13Z</time>
      </trkpt>
      <trkpt lat="44.17379" lon="5.90554">
        <ele>489</ele>
        <time>2019-08-09T10:16:14Z</time>
      </trkpt>
      <trkpt lat="44.17379" lon="5.90565">
        <ele>489</ele>
        <time>2019-08-09T10:16:15Z</time>
      </trkpt>
      <trkpt lat="44.17379" lon="5.90575">
        <ele>489</ele>
        <time>2019-08-09T10:16:16Z</time>
      </trkpt>
      <trkpt lat="44.17379" lon="5.90586">
        <ele>489</ele>
        <time>2019-08-09T10:16:17Z</time>
      </trkpt>
      <trkpt lat="44.17379" lon="5.90597">
        <ele>489</ele>
        <time>2019-08-09T10:16:18Z</time>
      </trkpt>
      <trkpt lat="44.17379" lon="5.90607">
        <ele>489</ele>
        <time>2019-08-09T10:16:19Z</time>
      </trkpt>
      <trkpt lat="44.17379" lon="5.90618">
        <ele>489</ele>
        <time>2019-08-09T10:16:20Z</time>
      </trkpt>
      <trkpt lat="44.17379" lon="5.90629">
        <ele>489</ele>
        <time>2019-08-09T10:16:21Z</time>
      </trkpt>
      <trkpt lat="44.17379" lon="5.90639">
        <ele>489</ele>
        <time>2019-08-09T10:16:22Z</time>
      </trkpt>
      <trkpt lat="44.17379" lon="5.90649">
        <ele>489</ele>
        <time>2019-08-09T10:16:23Z</time>
      </trkpt>
      <trkpt lat="44.17379" lon="5.9066">
        <ele>489</ele>
        <time>2019-08-09T10:16:24Z</time>
      </trkpt>
      <trkpt lat="44.17379" lon="5.90669">
        <ele>489</ele>
        <time>2019-08-09T10:16:25Z</time>
      </trkpt>
      <trkpt lat="44.17379" lon="5.9068">
        <ele>489</ele>
        <time>2019-08-09T10:16:26Z</time>
      </trkpt>
      <trkpt lat="44.17379" lon="5.9069">
        <ele>489</ele>
        <time>2019-08-09T10:16:27Z</time>
      </trkpt>
      <trkpt lat="44.17379" lon="5.907">
        <ele>489</ele>
        <time>2019-08-09T10:16:28Z</time>
      </trkpt>
      <trkpt lat="44.17379" lon="5.90709">
        <ele>489</ele>
        <time>2019-08-09T10:16:29Z</time>
      </trkpt>
      <trkpt lat="44.17379" lon="5.90719">
        <ele>489</ele>
        <time>2019-08-09T10:16:30Z</time>
      </trkpt>
      <trkpt lat="44.17379" lon="5.90729">
        <ele>488</ele>
        <time>2019-08-09T10:16:31Z</time>
      </trkpt>
      <trkpt lat="44.17379" lon="5.90738">
        <ele>488</ele>
        <time>2019-08-09T10:16:32Z</time>
      </trkpt>
      <trkpt lat="44.17379" lon="5.90749">
        <ele>488</ele>
        <time>2019-08-09T10:16:33Z</time>
      </trkpt>
      <trkpt lat="44.17378" lon="5.90759">
        <ele>488</ele>
        <time>2019-08-09T10:16:34Z</time>
      </trkpt>
      <trkpt lat="44.17378" lon="5.90769">
        <ele>488</ele>
        <time>2019-08-09T10:16:35Z</time>
      </trkpt>
      <trkpt lat="44.17377" lon="5.90779">
        <ele>488</ele>
        <time>2019-08-09T10:16:36Z</time>
      </trkpt>
      <trkpt lat="44.17377" lon="5.90789">
        <ele>488</ele>
        <time>2019-08-09T10:16:37Z</time>
      </trkpt>
      <trkpt lat="44.17377" lon="5.908">
        <ele>488</ele>
        <time>2019-08-09T10:16:38Z</time>
      </trkpt>
      <trkpt lat="44.17376" lon="5.90809">
        <ele>488</ele>
        <time>2019-08-09T10:16:39Z</time>
      </trkpt>
      <trkpt lat="44.17375" lon="5.9082">
        <ele>488</ele>
        <time>2019-08-09T10:16:40Z</time>
      </trkpt>
      <trkpt lat="44.17374" lon="5.9083">
        <ele>488</ele>
        <time>2019-08-09T10:16:41Z</time>
      </trkpt>
      <trkpt lat="44.17373" lon="5.9084">
        <ele>488</ele>
        <time>2019-08-09T10:16:42Z</time>
      </trkpt>
      <trkpt lat="44.17372" lon="5.9085">
        <ele>488</ele>
        <time>2019-08-09T10:16:43Z</time>
      </trkpt>
      <trkpt lat="44.17371" lon="5.90861">
        <ele>488</ele>
        <time>2019-08-09T10:16:44Z</time>
      </trkpt>
      <trkpt lat="44.1737" lon="5.90871">
        <ele>488</ele>
        <time>2019-08-09T10:16:45Z</time>
      </trkpt>
      <trkpt lat="44.17369" lon="5.90881">
        <ele>488</ele>
        <time>2019-08-09T10:16:46Z</time>
      </trkpt>
      <trkpt lat="44.17367" lon="5.90892">
        <ele>488</ele>
        <time>2019-08-09T10:16:47Z</time>
      </trkpt>
      <trkpt lat="44.17366" lon="5.90902">
        <ele>488</ele>
        <time>2019-08-09T10:16:48Z</time>
      </trkpt>
      <trkpt lat="44.17365" lon="5.90912">
        <ele>488</ele>
        <time>2019-08-09T10:16:49Z</time>
      </trkpt>
      <trkpt lat="44.17363" lon="5.90923">
        <ele>488</ele>
        <time>2019-08-09T10:16:50Z</time>
      </trkpt>
      <trkpt lat="44.17362" lon="5.90934">
        <ele>488</ele>
        <time>2019-08-09T10:16:51Z</time>
      </trkpt>
      <trkpt lat="44.17361" lon="5.90944">
        <ele>488</ele>
        <time>2019-08-09T10:16:52Z</time>
      </trkpt>
      <trkpt lat="44.1736" lon="5.90954">
        <ele>488</ele>
        <time>2019-08-09T10:16:53Z</time>
      </trkpt>
      <trkpt lat="44.17359" lon="5.90965">
        <ele>488</ele>
        <time>2019-08-09T10:16:54Z</time>
      </trkpt>
      <trkpt lat="44.17358" lon="5.90975">
        <ele>488</ele>
        <time>2019-08-09T10:16:55Z</time>
      </trkpt>
      <trkpt lat="44.17357" lon="5.90985">
        <ele>487</ele>
        <time>2019-08-09T10:16:56Z</time>
      </trkpt>
      <trkpt lat="44.17356" lon="5.90996">
        <ele>487</ele>
        <time>2019-08-09T10:16:57Z</time>
      </trkpt>
      <trkpt lat="44.17355" lon="5.91006">
        <ele>487</ele>
        <time>2019-08-09T10:16:58Z</time>
      </trkpt>
      <trkpt lat="44.17354" lon="5.91016">
        <ele>487</ele>
        <time>2019-08-09T10:16:59Z</time>
      </trkpt>
      <trkpt lat="44.17353" lon="5.91027">
        <ele>487</ele>
        <time>2019-08-09T10:17:00Z</time>
      </trkpt>
      <trkpt lat="44.17353" lon="5.91038">
        <ele>487</ele>
        <time>2019-08-09T10:17:01Z</time>
      </trkpt>
      <trkpt lat="44.17352" lon="5.91048">
        <ele>487</ele>
        <time>2019-08-09T10:17:02Z</time>
      </trkpt>
      <trkpt lat="44.17352" lon="5.91059">
        <ele>486</ele>
        <time>2019-08-09T10:17:03Z</time>
      </trkpt>
      <trkpt lat="44.17351" lon="5.9107">
        <ele>486</ele>
        <time>2019-08-09T10:17:04Z</time>
      </trkpt>
      <trkpt lat="44.1735" lon="5.91081">
        <ele>486</ele>
        <time>2019-08-09T10:17:05Z</time>
      </trkpt>
      <trkpt lat="44.17349" lon="5.91092">
        <ele>485</ele>
        <time>2019-08-09T10:17:06Z</time>
      </trkpt>
      <trkpt lat="44.17348" lon="5.91103">
        <ele>485</ele>
        <time>2019-08-09T10:17:07Z</time>
      </trkpt>
      <trkpt lat="44.17346" lon="5.91114">
        <ele>485</ele>
        <time>2019-08-09T10:17:08Z</time>
      </trkpt>
      <trkpt lat="44.17345" lon="5.91126">
        <ele>484</ele>
        <time>2019-08-09T10:17:09Z</time>
      </trkpt>
      <trkpt lat="44.17343" lon="5.91137">
        <ele>484</ele>
        <time>2019-08-09T10:17:10Z</time>
      </trkpt>
      <trkpt lat="44.1734" lon="5.91148">
        <ele>484</ele>
        <time>2019-08-09T10:17:11Z</time>
      </trkpt>
      <trkpt lat="44.17337" lon="5.91159">
        <ele>483</ele>
        <time>2019-08-09T10:17:12Z</time>
      </trkpt>
      <trkpt lat="44.17334" lon="5.9117">
        <ele>483</ele>
        <time>2019-08-09T10:17:13Z</time>
      </trkpt>
      <trkpt lat="44.1733" lon="5.91179">
        <ele>483</ele>
        <time>2019-08-09T10:17:14Z</time>
      </trkpt>
      <trkpt lat="44.17326" lon="5.91188">
        <ele>483</ele>
        <time>2019-08-09T10:17:15Z</time>
      </trkpt>
      <trkpt lat="44.17321" lon="5.91197">
        <ele>482</ele>
        <time>2019-08-09T10:17:16Z</time>
      </trkpt>
      <trkpt lat="44.17317" lon="5.91205">
        <ele>482</ele>
        <time>2019-08-09T10:17:17Z</time>
      </trkpt>
      <trkpt lat="44.17313" lon="5.91213">
        <ele>482</ele>
        <time>2019-08-09T10:17:18Z</time>
      </trkpt>
      <trkpt lat="44.17308" lon="5.91221">
        <ele>481</ele>
        <time>2019-08-09T10:17:19Z</time>
      </trkpt>
      <trkpt lat="44.17304" lon="5.91228">
        <ele>481</ele>
        <time>2019-08-09T10:17:20Z</time>
      </trkpt>
      <trkpt lat="44.173" lon="5.91235">
        <ele>481</ele>
        <time>2019-08-09T10:17:21Z</time>
      </trkpt>
      <trkpt lat="44.17297" lon="5.91243">
        <ele>481</ele>
        <time>2019-08-09T10:17:22Z</time>
      </trkpt>
      <trkpt lat="44.17293" lon="5.91251">
        <ele>481</ele>
        <time>2019-08-09T10:17:23Z</time>
      </trkpt>
      <trkpt lat="44.17289" lon="5.91259">
        <ele>481</ele>
        <time>2019-08-09T10:17:24Z</time>
      </trkpt>
      <trkpt lat="44.17286" lon="5.91267">
        <ele>481</ele>
        <time>2019-08-09T10:17:25Z</time>
      </trkpt>
      <trkpt lat="44.17282" lon="5.91275">
        <ele>481</ele>
        <time>2019-08-09T10:17:26Z</time>
      </trkpt>
      <trkpt lat="44.17278" lon="5.91284">
        <ele>481</ele>
        <time>2019-08-09T10:17:27Z</time>
      </trkpt>
      <trkpt lat="44.17275" lon="5.91292">
        <ele>481</ele>
        <time>2019-08-09T10:17:28Z</time>
      </trkpt>
      <trkpt lat="44.17271" lon="5.91301">
        <ele>481</ele>
        <time>2019-08-09T10:17:29Z</time>
      </trkpt>
      <trkpt lat="44.17268" lon="5.9131">
        <ele>481</ele>
        <time>2019-08-09T10:17:30Z</time>
      </trkpt>
      <trkpt lat="44.17265" lon="5.9132">
        <ele>481</ele>
        <time>2019-08-09T10:17:31Z</time>
      </trkpt>
      <trkpt lat="44.17262" lon="5.91329">
        <ele>481</ele>
        <time>2019-08-09T10:17:32Z</time>
      </trkpt>
      <trkpt lat="44.17259" lon="5.91338">
        <ele>481</ele>
        <time>2019-08-09T10:17:33Z</time>
      </trkpt>
      <trkpt lat="44.17257" lon="5.91348">
        <ele>481</ele>
        <time>2019-08-09T10:17:34Z</time>
      </trkpt>
      <trkpt lat="44.17255" lon="5.91358">
        <ele>481</ele>
        <time>2019-08-09T10:17:35Z</time>
      </trkpt>
      <trkpt lat="44.17252" lon="5.91368">
        <ele>481</ele>
        <time>2019-08-09T10:17:36Z</time>
      </trkpt>
      <trkpt lat="44.1725" lon="5.91377">
        <ele>481</ele>
        <time>2019-08-09T10:17:37Z</time>
      </trkpt>
      <trkpt lat="44.17248" lon="5.91388">
        <ele>481</ele>
        <time>2019-08-09T10:17:38Z</time>
      </trkpt>
      <trkpt lat="44.17245" lon="5.91398">
        <ele>480</ele>
        <time>2019-08-09T10:17:39Z</time>
      </trkpt>
      <trkpt lat="44.17243" lon="5.91408">
        <ele>480</ele>
        <time>2019-08-09T10:17:40Z</time>
      </trkpt>
      <trkpt lat="44.17242" lon="5.91418">
        <ele>480</ele>
        <time>2019-08-09T10:17:41Z</time>
      </trkpt>
      <trkpt lat="44.17239" lon="5.91428">
        <ele>479</ele>
        <time>2019-08-09T10:17:42Z</time>
      </trkpt>
      <trkpt lat="44.17238" lon="5.91439">
        <ele>478</ele>
        <time>2019-08-09T10:17:43Z</time>
      </trkpt>
      <trkpt lat="44.17236" lon="5.91449">
        <ele>477</ele>
        <time>2019-08-09T10:17:44Z</time>
      </trkpt>
      <trkpt lat="44.17234" lon="5.91459">
        <ele>477</ele>
        <time>2019-08-09T10:17:45Z</time>
      </trkpt>
      <trkpt lat="44.17233" lon="5.91469">
        <ele>476</ele>
        <time>2019-08-09T10:17:46Z</time>
      </trkpt>
      <trkpt lat="44.17231" lon="5.91479">
        <ele>475</ele>
        <time>2019-08-09T10:17:47Z</time>
      </trkpt>
      <trkpt lat="44.1723" lon="5.9149">
        <ele>475</ele>
        <time>2019-08-09T10:17:48Z</time>
      </trkpt>
      <trkpt lat="44.17228" lon="5.915">
        <ele>475</ele>
        <time>2019-08-09T10:17:49Z</time>
      </trkpt>
      <trkpt lat="44.17227" lon="5.9151">
        <ele>474</ele>
        <time>2019-08-09T10:17:50Z</time>
      </trkpt>
      <trkpt lat="44.17225" lon="5.9152">
        <ele>474</ele>
        <time>2019-08-09T10:17:51Z</time>
      </trkpt>
      <trkpt lat="44.17223" lon="5.91531">
        <ele>474</ele>
        <time>2019-08-09T10:17:52Z</time>
      </trkpt>
      <trkpt lat="44.17221" lon="5.9154">
        <ele>473</ele>
        <time>2019-08-09T10:17:53Z</time>
      </trkpt>
      <trkpt lat="44.17219" lon="5.91549">
        <ele>473</ele>
        <time>2019-08-09T10:17:54Z</time>
      </trkpt>
      <trkpt lat="44.17218" lon="5.91558">
        <ele>472</ele>
        <time>2019-08-09T10:17:55Z</time>
      </trkpt>
      <trkpt lat="44.17216" lon="5.91567">
        <ele>471</ele>
        <time>2019-08-09T10:17:56Z</time>
      </trkpt>
      <trkpt lat="44.17214" lon="5.91576">
        <ele>470</ele>
        <time>2019-08-09T10:17:57Z</time>
      </trkpt>
      <trkpt lat="44.17212" lon="5.91585">
        <ele>469</ele>
        <time>2019-08-09T10:17:58Z</time>
      </trkpt>
      <trkpt lat="44.17211" lon="5.91594">
        <ele>468</ele>
        <time>2019-08-09T10:17:59Z</time>
      </trkpt>
      <trkpt lat="44.17209" lon="5.91602">
        <ele>467</ele>
        <time>2019-08-09T10:18:00Z</time>
      </trkpt>
      <trkpt lat="44.17208" lon="5.91611">
        <ele>466</ele>
        <time>2019-08-09T10:18:01Z</time>
      </trkpt>
      <trkpt lat="44.17206" lon="5.9162">
        <ele>466</ele>
        <time>2019-08-09T10:18:02Z</time>
      </trkpt>
      <trkpt lat="44.17204" lon="5.91629">
        <ele>466</ele>
        <time>2019-08-09T10:18:03Z</time>
      </trkpt>
      <trkpt lat="44.17202" lon="5.91638">
        <ele>466</ele>
        <time>2019-08-09T10:18:04Z</time>
      </trkpt>
      <trkpt lat="44.17199" lon="5.91647">
        <ele>466</ele>
        <time>2019-08-09T10:18:05Z</time>
      </trkpt>
      <trkpt lat="44.17197" lon="5.91655">
        <ele>466</ele>
        <time>2019-08-09T10:18:06Z</time>
      </trkpt>
      <trkpt lat="44.17196" lon="5.91664">
        <ele>466</ele>
        <time>2019-08-09T10:18:07Z</time>
      </trkpt>
      <trkpt lat="44.17194" lon="5.91673">
        <ele>466</ele>
        <time>2019-08-09T10:18:08Z</time>
      </trkpt>
      <trkpt lat="44.17192" lon="5.91682">
        <ele>466</ele>
        <time>2019-08-09T10:18:09Z</time>
      </trkpt>
      <trkpt lat="44.17191" lon="5.9169">
        <ele>465</ele>
        <time>2019-08-09T10:18:10Z</time>
      </trkpt>
      <trkpt lat="44.17189" lon="5.91699">
        <ele>465</ele>
        <time>2019-08-09T10:18:11Z</time>
      </trkpt>
      <trkpt lat="44.17188" lon="5.91707">
        <ele>465</ele>
        <time>2019-08-09T10:18:12Z</time>
      </trkpt>
      <trkpt lat="44.17187" lon="5.91715">
        <ele>464</ele>
        <time>2019-08-09T10:18:13Z</time>
      </trkpt>
      <trkpt lat="44.17186" lon="5.91724">
        <ele>464</ele>
        <time>2019-08-09T10:18:14Z</time>
      </trkpt>
      <trkpt lat="44.17184" lon="5.91733">
        <ele>464</ele>
        <time>2019-08-09T10:18:15Z</time>
      </trkpt>
      <trkpt lat="44.17183" lon="5.91743">
        <ele>464</ele>
        <time>2019-08-09T10:18:16Z</time>
      </trkpt>
      <trkpt lat="44.17181" lon="5.91752">
        <ele>464</ele>
        <time>2019-08-09T10:18:17Z</time>
      </trkpt>
      <trkpt lat="44.1718" lon="5.91762">
        <ele>464</ele>
        <time>2019-08-09T10:18:18Z</time>
      </trkpt>
      <trkpt lat="44.17178" lon="5.91771">
        <ele>464</ele>
        <time>2019-08-09T10:18:19Z</time>
      </trkpt>
      <trkpt lat="44.17177" lon="5.91781">
        <ele>464</ele>
        <time>2019-08-09T10:18:20Z</time>
      </trkpt>
      <trkpt lat="44.17176" lon="5.91789">
        <ele>464</ele>
        <time>2019-08-09T10:18:21Z</time>
      </trkpt>
      <trkpt lat="44.17175" lon="5.91798">
        <ele>464</ele>
        <time>2019-08-09T10:18:22Z</time>
      </trkpt>
      <trkpt lat="44.17174" lon="5.91807">
        <ele>464</ele>
        <time>2019-08-09T10:18:23Z</time>
      </trkpt>
      <trkpt lat="44.17173" lon="5.91815">
        <ele>464</ele>
        <time>2019-08-09T10:18:24Z</time>
      </trkpt>
      <trkpt lat="44.17171" lon="5.91823">
        <ele>464</ele>
        <time>2019-08-09T10:18:25Z</time>
      </trkpt>
      <trkpt lat="44.17171" lon="5.91831">
        <ele>464</ele>
        <time>2019-08-09T10:18:26Z</time>
      </trkpt>
      <trkpt lat="44.17171" lon="5.91839">
        <ele>464</ele>
        <time>2019-08-09T10:18:27Z</time>
      </trkpt>
      <trkpt lat="44.17173" lon="5.91846">
        <ele>465</ele>
        <time>2019-08-09T10:18:28Z</time>
      </trkpt>
      <trkpt lat="44.17176" lon="5.91853">
        <ele>466</ele>
        <time>2019-08-09T10:18:29Z</time>
      </trkpt>
      <trkpt lat="44.17181" lon="5.91858">
        <ele>466</ele>
        <time>2019-08-09T10:18:30Z</time>
      </trkpt>
      <trkpt lat="44.17186" lon="5.91863">
        <ele>467</ele>
        <time>2019-08-09T10:18:31Z</time>
      </trkpt>
      <trkpt lat="44.17191" lon="5.91868">
        <ele>468</ele>
        <time>2019-08-09T10:18:32Z</time>
      </trkpt>
      <trkpt lat="44.17195" lon="5.91874">
        <ele>468</ele>
        <time>2019-08-09T10:18:33Z</time>
      </trkpt>
      <trkpt lat="44.17199" lon="5.9188">
        <ele>469</ele>
        <time>2019-08-09T10:18:34Z</time>
      </trkpt>
      <trkpt lat="44.17201" lon="5.91886">
        <ele>470</ele>
        <time>2019-08-09T10:18:35Z</time>
      </trkpt>
      <trkpt lat="44.17202" lon="5.91893">
        <ele>470</ele>
        <time>2019-08-09T10:18:36Z</time>
      </trkpt>
      <trkpt lat="44.17203" lon="5.91899">
        <ele>471</ele>
        <time>2019-08-09T10:18:37Z</time>
      </trkpt>
      <trkpt lat="44.17204" lon="5.91905">
        <ele>471</ele>
        <time>2019-08-09T10:18:38Z</time>
      </trkpt>
      <trkpt lat="44.17204" lon="5.91912">
        <ele>472</ele>
        <time>2019-08-09T10:18:39Z</time>
      </trkpt>
      <trkpt lat="44.17205" lon="5.91918">
        <ele>472</ele>
        <time>2019-08-09T10:18:40Z</time>
      </trkpt>
      <trkpt lat="44.17205" lon="5.91924">
        <ele>473</ele>
        <time>2019-08-09T10:18:41Z</time>
      </trkpt>
      <trkpt lat="44.17206" lon="5.9193">
        <ele>473</ele>
        <time>2019-08-09T10:18:42Z</time>
      </trkpt>
      <trkpt lat="44.17207" lon="5.91936">
        <ele>474</ele>
        <time>2019-08-09T10:18:43Z</time>
      </trkpt>
      <trkpt lat="44.17208" lon="5.91942">
        <ele>474</ele>
        <time>2019-08-09T10:18:44Z</time>
      </trkpt>
      <trkpt lat="44.17209" lon="5.91947">
        <ele>474</ele>
        <time>2019-08-09T10:18:45Z</time>
      </trkpt>
      <trkpt lat="44.1721" lon="5.91953">
        <ele>475</ele>
        <time>2019-08-09T10:18:46Z</time>
      </trkpt>
      <trkpt lat="44.17212" lon="5.91958">
        <ele>475</ele>
        <time>2019-08-09T10:18:47Z</time>
      </trkpt>
      <trkpt lat="44.17213" lon="5.91964">
        <ele>475</ele>
        <time>2019-08-09T10:18:48Z</time>
      </trkpt>
      <trkpt lat="44.17215" lon="5.91969">
        <ele>475</ele>
        <time>2019-08-09T10:18:49Z</time>
      </trkpt>
      <trkpt lat="44.17217" lon="5.91973">
        <ele>475</ele>
        <time>2019-08-09T10:18:50Z</time>
      </trkpt>
      <trkpt lat="44.17219" lon="5.91979">
        <ele>475</ele>
        <time>2019-08-09T10:18:51Z</time>
      </trkpt>
      <trkpt lat="44.17221" lon="5.91984">
        <ele>475</ele>
        <time>2019-08-09T10:18:52Z</time>
      </trkpt>
      <trkpt lat="44.17223" lon="5.91988">
        <ele>475</ele>
        <time>2019-08-09T10:18:53Z</time>
      </trkpt>
      <trkpt lat="44.17225" lon="5.91993">
        <ele>475</ele>
        <time>2019-08-09T10:18:54Z</time>
      </trkpt>
      <trkpt lat="44.17228" lon="5.91998">
        <ele>475</ele>
        <time>2019-08-09T10:18:55Z</time>
      </trkpt>
      <trkpt lat="44.1723" lon="5.92003">
        <ele>475</ele>
        <time>2019-08-09T10:18:56Z</time>
      </trkpt>
      <trkpt lat="44.17232" lon="5.92008">
        <ele>476</ele>
        <time>2019-08-09T10:18:57Z</time>
      </trkpt>
      <trkpt lat="44.17234" lon="5.92013">
        <ele>476</ele>
        <time>2019-08-09T10:18:58Z</time>
      </trkpt>
      <trkpt lat="44.17236" lon="5.92017">
        <ele>476</ele>
        <time>2019-08-09T10:18:59Z</time>
      </trkpt>
      <trkpt lat="44.17238" lon="5.92022">
        <ele>477</ele>
        <time>2019-08-09T10:19:00Z</time>
      </trkpt>
      <trkpt lat="44.1724" lon="5.92027">
        <ele>477</ele>
        <time>2019-08-09T10:19:01Z</time>
      </trkpt>
      <trkpt lat="44.17241" lon="5.92032">
        <ele>477</ele>
        <time>2019-08-09T10:19:02Z</time>
      </trkpt>
      <trkpt lat="44.17243" lon="5.92037">
        <ele>478</ele>
        <time>2019-08-09T10:19:03Z</time>
      </trkpt>
      <trkpt lat="44.17245" lon="5.92042">
        <ele>478</ele>
        <time>2019-08-09T10:19:04Z</time>
      </trkpt>
      <trkpt lat="44.17247" lon="5.92047">
        <ele>478</ele>
        <time>2019-08-09T10:19:05Z</time>
      </trkpt>
      <trkpt lat="44.17249" lon="5.92052">
        <ele>478</ele>
        <time>2019-08-09T10:19:06Z</time>
      </trkpt>
      <trkpt lat="44.17251" lon="5.92057">
        <ele>479</ele>
        <time>2019-08-09T10:19:07Z</time>
      </trkpt>
      <trkpt lat="44.17253" lon="5.92062">
        <ele>479</ele>
        <time>2019-08-09T10:19:08Z</time>
      </trkpt>
      <trkpt lat="44.17255" lon="5.92067">
        <ele>479</ele>
        <time>2019-08-09T10:19:09Z</time>
      </trkpt>
      <trkpt lat="44.17257" lon="5.92071">
        <ele>480</ele>
        <time>2019-08-09T10:19:10Z</time>
      </trkpt>
      <trkpt lat="44.17259" lon="5.92076">
        <ele>480</ele>
        <time>2019-08-09T10:19:11Z</time>
      </trkpt>
      <trkpt lat="44.17261" lon="5.92081">
        <ele>481</ele>
        <time>2019-08-09T10:19:12Z</time>
      </trkpt>
      <trkpt lat="44.17263" lon="5.92087">
        <ele>481</ele>
        <time>2019-08-09T10:19:13Z</time>
      </trkpt>
      <trkpt lat="44.17264" lon="5.92092">
        <ele>481</ele>
        <time>2019-08-09T10:19:14Z</time>
      </trkpt>
      <trkpt lat="44.17266" lon="5.92097">
        <ele>481</ele>
        <time>2019-08-09T10:19:15Z</time>
      </trkpt>
      <trkpt lat="44.17268" lon="5.92101">
        <ele>482</ele>
        <time>2019-08-09T10:19:16Z</time>
      </trkpt>
      <trkpt lat="44.1727" lon="5.92106">
        <ele>482</ele>
        <time>2019-08-09T10:19:17Z</time>
      </trkpt>
      <trkpt lat="44.17272" lon="5.92111">
        <ele>482</ele>
        <time>2019-08-09T10:19:18Z</time>
      </trkpt>
      <trkpt lat="44.17274" lon="5.92116">
        <ele>482</ele>
        <time>2019-08-09T10:19:19Z</time>
      </trkpt>
      <trkpt lat="44.17275" lon="5.9212">
        <ele>483</ele>
        <time>2019-08-09T10:19:20Z</time>
      </trkpt>
      <trkpt lat="44.17277" lon="5.92125">
        <ele>483</ele>
        <time>2019-08-09T10:19:21Z</time>
      </trkpt>
      <trkpt lat="44.17279" lon="5.92129">
        <ele>483</ele>
        <time>2019-08-09T10:19:22Z</time>
      </trkpt>
      <trkpt lat="44.17281" lon="5.92134">
        <ele>484</ele>
        <time>2019-08-09T10:19:23Z</time>
      </trkpt>
      <trkpt lat="44.17282" lon="5.92138">
        <ele>484</ele>
        <time>2019-08-09T10:19:24Z</time>
      </trkpt>
      <trkpt lat="44.17284" lon="5.92142">
        <ele>484</ele>
        <time>2019-08-09T10:19:25Z</time>
      </trkpt>
      <trkpt lat="44.17286" lon="5.92147">
        <ele>485</ele>
        <time>2019-08-09T10:19:26Z</time>
      </trkpt>
      <trkpt lat="44.17288" lon="5.92151">
        <ele>485</ele>
        <time>2019-08-09T10:19:27Z</time>
      </trkpt>
      <trkpt lat="44.1729" lon="5.92155">
        <ele>486</ele>
        <time>2019-08-09T10:19:28Z</time>
      </trkpt>
      <trkpt lat="44.17291" lon="5.92159">
        <ele>486</ele>
        <time>2019-08-09T10:19:29Z</time>
      </trkpt>
      <trkpt lat="44.17293" lon="5.92164">
        <ele>486</ele>
        <time>2019-08-09T10:19:30Z</time>
      </trkpt>
      <trkpt lat="44.17295" lon="5.92168">
        <ele>487</ele>
        <time>2019-08-09T10:19:31Z</time>
      </trkpt>
      <trkpt lat="44.17297" lon="5.92173">
        <ele>487</ele>
        <time>2019-08-09T10:19:32Z</time>
      </trkpt>
      <trkpt lat="44.173" lon="5.92178">
        <ele>487</ele>
        <time>2019-08-09T10:19:33Z</time>
      </trkpt>
      <trkpt lat="44.17301" lon="5.92183">
        <ele>487</ele>
        <time>2019-08-09T10:19:34Z</time>
      </trkpt>
      <trkpt lat="44.17302" lon="5.92188">
        <ele>487</ele>
        <time>2019-08-09T10:19:35Z</time>
      </trkpt>
      <trkpt lat="44.17303" lon="5.92193">
        <ele>487</ele>
        <time>2019-08-09T10:19:36Z</time>
      </trkpt>
      <trkpt lat="44.17305" lon="5.92197">
        <ele>488</ele>
        <time>2019-08-09T10:19:37Z</time>
      </trkpt>
      <trkpt lat="44.17305" lon="5.92202">
        <ele>488</ele>
        <time>2019-08-09T10:19:38Z</time>
      </trkpt>
      <trkpt lat="44.17306" lon="5.92206">
        <ele>488</ele>
        <time>2019-08-09T10:19:39Z</time>
      </trkpt>
      <trkpt lat="44.17307" lon="5.92211">
        <ele>488</ele>
        <time>2019-08-09T10:19:40Z</time>
      </trkpt>
      <trkpt lat="44.17308" lon="5.92215">
        <ele>488</ele>
        <time>2019-08-09T10:19:41Z</time>
      </trkpt>
      <trkpt lat="44.17309" lon="5.9222">
        <ele>488</ele>
        <time>2019-08-09T10:19:42Z</time>
      </trkpt>
      <trkpt lat="44.1731" lon="5.92225">
        <ele>488</ele>
        <time>2019-08-09T10:19:43Z</time>
      </trkpt>
      <trkpt lat="44.17311" lon="5.9223">
        <ele>488</ele>
        <time>2019-08-09T10:19:44Z</time>
      </trkpt>
      <trkpt lat="44.17312" lon="5.92234">
        <ele>488</ele>
        <time>2019-08-09T10:19:45Z</time>
      </trkpt>
      <trkpt lat="44.17313" lon="5.92238">
        <ele>488</ele>
        <time>2019-08-09T10:19:46Z</time>
      </trkpt>
      <trkpt lat="44.17314" lon="5.92241">
        <ele>488</ele>
        <time>2019-08-09T10:19:47Z</time>
      </trkpt>
      <trkpt lat="44.17316" lon="5.92245">
        <ele>488</ele>
        <time>2019-08-09T10:19:48Z</time>
      </trkpt>
      <trkpt lat="44.17316" lon="5.92249">
        <ele>488</ele>
        <time>2019-08-09T10:19:49Z</time>
      </trkpt>
      <trkpt lat="44.17317" lon="5.92252">
        <ele>489</ele>
        <time>2019-08-09T10:19:50Z</time>
      </trkpt>
      <trkpt lat="44.17319" lon="5.92256">
        <ele>489</ele>
        <time>2019-08-09T10:19:51Z</time>
      </trkpt>
      <trkpt lat="44.17321" lon="5.92261">
        <ele>489</ele>
        <time>2019-08-09T10:19:52Z</time>
      </trkpt>
      <trkpt lat="44.17323" lon="5.92265">
        <ele>489</ele>
        <time>2019-08-09T10:19:53Z</time>
      </trkpt>
      <trkpt lat="44.17324" lon="5.92268">
        <ele>490</ele>
        <time>2019-08-09T10:19:54Z</time>
      </trkpt>
      <trkpt lat="44.17326" lon="5.92273">
        <ele>490</ele>
        <time>2019-08-09T10:19:55Z</time>
      </trkpt>
      <trkpt lat="44.17327" lon="5.92277">
        <ele>490</ele>
        <time>2019-08-09T10:19:56Z</time>
      </trkpt>
      <trkpt lat="44.17329" lon="5.92281">
        <ele>490</ele>
        <time>2019-08-09T10:19:57Z</time>
      </trkpt>
      <trkpt lat="44.17331" lon="5.92285">
        <ele>490</ele>
        <time>2019-08-09T10:19:58Z</time>
      </trkpt>
      <trkpt lat="44.17333" lon="5.9229">
        <ele>490</ele>
        <time>2019-08-09T10:19:59Z</time>
      </trkpt>
      <trkpt lat="44.17334" lon="5.92295">
        <ele>490</ele>
        <time>2019-08-09T10:20:00Z</time>
      </trkpt>
      <trkpt lat="44.17336" lon="5.92299">
        <ele>491</ele>
        <time>2019-08-09T10:20:01Z</time>
      </trkpt>
      <trkpt lat="44.17339" lon="5.92304">
        <ele>491</ele>
        <time>2019-08-09T10:20:02Z</time>
      </trkpt>
      <trkpt lat="44.1734" lon="5.92309">
        <ele>491</ele>
        <time>2019-08-09T10:20:03Z</time>
      </trkpt>
      <trkpt lat="44.17342" lon="5.92313">
        <ele>491</ele>
        <time>2019-08-09T10:20:04Z</time>
      </trkpt>
      <trkpt lat="44.17345" lon="5.92318">
        <ele>492</ele>
        <time>2019-08-09T10:20:05Z</time>
      </trkpt>
      <trkpt lat="44.17347" lon="5.92323">
        <ele>492</ele>
        <time>2019-08-09T10:20:06Z</time>
      </trkpt>
      <trkpt lat="44.17348" lon="5.92328">
        <ele>492</ele>
        <time>2019-08-09T10:20:07Z</time>
      </trkpt>
      <trkpt lat="44.1735" lon="5.92333">
        <ele>492</ele>
        <time>2019-08-09T10:20:08Z</time>
      </trkpt>
      <trkpt lat="44.17353" lon="5.92338">
        <ele>493</ele>
        <time>2019-08-09T10:20:09Z</time>
      </trkpt>
      <trkpt lat="44.17355" lon="5.92342">
        <ele>493</ele>
        <time>2019-08-09T10:20:10Z</time>
      </trkpt>
      <trkpt lat="44.17357" lon="5.92347">
        <ele>493</ele>
        <time>2019-08-09T10:20:11Z</time>
      </trkpt>
      <trkpt lat="44.17359" lon="5.92352">
        <ele>493</ele>
        <time>2019-08-09T10:20:12Z</time>
      </trkpt>
      <trkpt lat="44.17361" lon="5.92357">
        <ele>493</ele>
        <time>2019-08-09T10:20:13Z</time>
      </trkpt>
      <trkpt lat="44.17364" lon="5.92362">
        <ele>494</ele>
        <time>2019-08-09T10:20:14Z</time>
      </trkpt>
      <trkpt lat="44.17366" lon="5.92367">
        <ele>494</ele>
        <time>2019-08-09T10:20:15Z</time>
      </trkpt>
      <trkpt lat="44.17368" lon="5.92372">
        <ele>494</ele>
        <time>2019-08-09T10:20:16Z</time>
      </trkpt>
      <trkpt lat="44.17371" lon="5.92376">
        <ele>494</ele>
        <time>2019-08-09T10:20:17Z</time>
      </trkpt>
      <trkpt lat="44.17373" lon="5.92381">
        <ele>495</ele>
        <time>2019-08-09T10:20:18Z</time>
      </trkpt>
      <trkpt lat="44.17375" lon="5.92386">
        <ele>495</ele>
        <time>2019-08-09T10:20:19Z</time>
      </trkpt>
      <trkpt lat="44.17377" lon="5.92391">
        <ele>495</ele>
        <time>2019-08-09T10:20:20Z</time>
      </trkpt>
      <trkpt lat="44.1738" lon="5.92396">
        <ele>495</ele>
        <time>2019-08-09T10:20:21Z</time>
      </trkpt>
      <trkpt lat="44.17382" lon="5.92401">
        <ele>496</ele>
        <time>2019-08-09T10:20:22Z</time>
      </trkpt>
      <trkpt lat="44.17384" lon="5.92406">
        <ele>496</ele>
        <time>2019-08-09T10:20:23Z</time>
      </trkpt>
      <trkpt lat="44.17387" lon="5.92411">
        <ele>496</ele>
        <time>2019-08-09T10:20:24Z</time>
      </trkpt>
      <trkpt lat="44.1739" lon="5.92416">
        <ele>496</ele>
        <time>2019-08-09T10:20:25Z</time>
      </trkpt>
      <trkpt lat="44.17392" lon="5.9242">
        <ele>496</ele>
        <time>2019-08-09T10:20:26Z</time>
      </trkpt>
      <trkpt lat="44.17395" lon="5.92425">
        <ele>497</ele>
        <time>2019-08-09T10:20:27Z</time>
      </trkpt>
      <trkpt lat="44.17398" lon="5.9243">
        <ele>497</ele>
        <time>2019-08-09T10:20:28Z</time>
      </trkpt>
      <trkpt lat="44.174" lon="5.92435">
        <ele>497</ele>
        <time>2019-08-09T10:20:29Z</time>
      </trkpt>
      <trkpt lat="44.17403" lon="5.9244">
        <ele>497</ele>
        <time>2019-08-09T10:20:30Z</time>
      </trkpt>
      <trkpt lat="44.17405" lon="5.92445">
        <ele>497</ele>
        <time>2019-08-09T10:20:31Z</time>
      </trkpt>
      <trkpt lat="44.17408" lon="5.92449">
        <ele>498</ele>
        <time>2019-08-09T10:20:32Z</time>
      </trkpt>
      <trkpt lat="44.17411" lon="5.92454">
        <ele>498</ele>
        <time>2019-08-09T10:20:33Z</time>
      </trkpt>
      <trkpt lat="44.17414" lon="5.92458">
        <ele>498</ele>
        <time>2019-08-09T10:20:34Z</time>
      </trkpt>
      <trkpt lat="44.17417" lon="5.92462">
        <ele>498</ele>
        <time>2019-08-09T10:20:35Z</time>
      </trkpt>
      <trkpt lat="44.1742" lon="5.92466">
        <ele>498</ele>
        <time>2019-08-09T10:20:36Z</time>
      </trkpt>
      <trkpt lat="44.17423" lon="5.92471">
        <ele>498</ele>
        <time>2019-08-09T10:20:37Z</time>
      </trkpt>
      <trkpt lat="44.17427" lon="5.92475">
        <ele>498</ele>
        <time>2019-08-09T10:20:38Z</time>
      </trkpt>
      <trkpt lat="44.1743" lon="5.92479">
        <ele>498</ele>
        <time>2019-08-09T10:20:39Z</time>
      </trkpt>
      <trkpt lat="44.17434" lon="5.92483">
        <ele>499</ele>
        <time>2019-08-09T10:20:40Z</time>
      </trkpt>
      <trkpt lat="44.17437" lon="5.92486">
        <ele>499</ele>
        <time>2019-08-09T10:20:41Z</time>
      </trkpt>
      <trkpt lat="44.17441" lon="5.9249">
        <ele>499</ele>
        <time>2019-08-09T10:20:42Z</time>
      </trkpt>
      <trkpt lat="44.17445" lon="5.92494">
        <ele>499</ele>
        <time>2019-08-09T10:20:43Z</time>
      </trkpt>
      <trkpt lat="44.17449" lon="5.92497">
        <ele>499</ele>
        <time>2019-08-09T10:20:44Z</time>
      </trkpt>
      <trkpt lat="44.17453" lon="5.925">
        <ele>499</ele>
        <time>2019-08-09T10:20:45Z</time>
      </trkpt>
      <trkpt lat="44.17457" lon="5.92503">
        <ele>499</ele>
        <time>2019-08-09T10:20:46Z</time>
      </trkpt>
      <trkpt lat="44.17461" lon="5.92506">
        <ele>499</ele>
        <time>2019-08-09T10:20:47Z</time>
      </trkpt>
      <trkpt lat="44.17466" lon="5.92508">
        <ele>499</ele>
        <time>2019-08-09T10:20:48Z</time>
      </trkpt>
      <trkpt lat="44.1747" lon="5.9251">
        <ele>499</ele>
        <time>2019-08-09T10:20:49Z</time>
      </trkpt>
      <trkpt lat="44.17475" lon="5.92513">
        <ele>500</ele>
        <time>2019-08-09T10:20:50Z</time>
      </trkpt>
      <trkpt lat="44.17479" lon="5.92515">
        <ele>500</ele>
        <time>2019-08-09T10:20:51Z</time>
      </trkpt>
      <trkpt lat="44.17484" lon="5.92517">
        <ele>500</ele>
        <time>2019-08-09T10:20:52Z</time>
      </trkpt>
      <trkpt lat="44.17489" lon="5.92519">
        <ele>500</ele>
        <time>2019-08-09T10:20:53Z</time>
      </trkpt>
      <trkpt lat="44.17494" lon="5.9252">
        <ele>500</ele>
        <time>2019-08-09T10:20:54Z</time>
      </trkpt>
      <trkpt lat="44.17499" lon="5.92522">
        <ele>500</ele>
        <time>2019-08-09T10:20:55Z</time>
      </trkpt>
      <trkpt lat="44.17504" lon="5.92523">
        <ele>500</ele>
        <time>2019-08-09T10:20:56Z</time>
      </trkpt>
      <trkpt lat="44.17509" lon="5.92525">
        <ele>500</ele>
        <time>2019-08-09T10:20:57Z</time>
      </trkpt>
      <trkpt lat="44.17514" lon="5.92526">
        <ele>501</ele>
        <time>2019-08-09T10:20:58Z</time>
      </trkpt>
      <trkpt lat="44.17519" lon="5.92527">
        <ele>501</ele>
        <time>2019-08-09T10:20:59Z</time>
      </trkpt>
      <trkpt lat="44.17524" lon="5.92529">
        <ele>501</ele>
        <time>2019-08-09T10:21:00Z</time>
      </trkpt>
      <trkpt lat="44.1753" lon="5.92531">
        <ele>501</ele>
        <time>2019-08-09T10:21:01Z</time>
      </trkpt>
      <trkpt lat="44.17535" lon="5.92532">
        <ele>501</ele>
        <time>2019-08-09T10:21:02Z</time>
      </trkpt>
      <trkpt lat="44.17541" lon="5.92534">
        <ele>501</ele>
        <time>2019-08-09T10:21:03Z</time>
      </trkpt>
      <trkpt lat="44.17546" lon="5.92536">
        <ele>501</ele>
        <time>2019-08-09T10:21:04Z</time>
      </trkpt>
      <trkpt lat="44.17552" lon="5.92537">
        <ele>501</ele>
        <time>2019-08-09T10:21:05Z</time>
      </trkpt>
      <trkpt lat="44.17557" lon="5.92539">
        <ele>501</ele>
        <time>2019-08-09T10:21:06Z</time>
      </trkpt>
      <trkpt lat="44.17563" lon="5.92541">
        <ele>501</ele>
        <time>2019-08-09T10:21:07Z</time>
      </trkpt>
      <trkpt lat="44.17569" lon="5.92542">
        <ele>501</ele>
        <time>2019-08-09T10:21:08Z</time>
      </trkpt>
      <trkpt lat="44.17574" lon="5.92544">
        <ele>501</ele>
        <time>2019-08-09T10:21:09Z</time>
      </trkpt>
      <trkpt lat="44.1758" lon="5.92546">
        <ele>501</ele>
        <time>2019-08-09T10:21:10Z</time>
      </trkpt>
      <trkpt lat="44.17586" lon="5.92547">
        <ele>501</ele>
        <time>2019-08-09T10:21:11Z</time>
      </trkpt>
      <trkpt lat="44.17592" lon="5.92549">
        <ele>501</ele>
        <time>2019-08-09T10:21:12Z</time>
      </trkpt>
      <trkpt lat="44.17598" lon="5.9255">
        <ele>501</ele>
        <time>2019-08-09T10:21:13Z</time>
      </trkpt>
      <trkpt lat="44.17603" lon="5.92552">
        <ele>501</ele>
        <time>2019-08-09T10:21:14Z</time>
      </trkpt>
      <trkpt lat="44.17609" lon="5.92554">
        <ele>501</ele>
        <time>2019-08-09T10:21:15Z</time>
      </trkpt>
      <trkpt lat="44.17615" lon="5.92555">
        <ele>501</ele>
        <time>2019-08-09T10:21:16Z</time>
      </trkpt>
      <trkpt lat="44.17621" lon="5.92556">
        <ele>501</ele>
        <time>2019-08-09T10:21:17Z</time>
      </trkpt>
      <trkpt lat="44.17627" lon="5.92558">
        <ele>501</ele>
        <time>2019-08-09T10:21:18Z</time>
      </trkpt>
      <trkpt lat="44.17633" lon="5.92559">
        <ele>501</ele>
        <time>2019-08-09T10:21:19Z</time>
      </trkpt>
      <trkpt lat="44.1764" lon="5.92561">
        <ele>501</ele>
        <time>2019-08-09T10:21:20Z</time>
      </trkpt>
      <trkpt lat="44.17646" lon="5.92562">
        <ele>501</ele>
        <time>2019-08-09T10:21:21Z</time>
      </trkpt>
      <trkpt lat="44.17653" lon="5.92563">
        <ele>501</ele>
        <time>2019-08-09T10:21:22Z</time>
      </trkpt>
      <trkpt lat="44.17659" lon="5.92563">
        <ele>501</ele>
        <time>2019-08-09T10:21:23Z</time>
      </trkpt>
      <trkpt lat="44.17666" lon="5.92563">
        <ele>501</ele>
        <time>2019-08-09T10:21:24Z</time>
      </trkpt>
      <trkpt lat="44.17672" lon="5.92563">
        <ele>501</ele>
        <time>2019-08-09T10:21:25Z</time>
      </trkpt>
      <trkpt lat="44.17679" lon="5.92561">
        <ele>501</ele>
        <time>2019-08-09T10:21:26Z</time>
      </trkpt>
      <trkpt lat="44.17685" lon="5.92559">
        <ele>501</ele>
        <time>2019-08-09T10:21:27Z</time>
      </trkpt>
      <trkpt lat="44.17692" lon="5.92557">
        <ele>501</ele>
        <time>2019-08-09T10:21:28Z</time>
      </trkpt>
      <trkpt lat="44.17698" lon="5.92555">
        <ele>501</ele>
        <time>2019-08-09T10:21:29Z</time>
      </trkpt>
      <trkpt lat="44.17705" lon="5.92553">
        <ele>501</ele>
        <time>2019-08-09T10:21:30Z</time>
      </trkpt>
      <trkpt lat="44.17712" lon="5.92549">
        <ele>501</ele>
        <time>2019-08-09T10:21:31Z</time>
      </trkpt>
      <trkpt lat="44.17717" lon="5.92546">
        <ele>500</ele>
        <time>2019-08-09T10:21:32Z</time>
      </trkpt>
      <trkpt lat="44.17724" lon="5.92543">
        <ele>500</ele>
        <time>2019-08-09T10:21:33Z</time>
      </trkpt>
      <trkpt lat="44.1773" lon="5.92539">
        <ele>500</ele>
        <time>2019-08-09T10:21:34Z</time>
      </trkpt>
      <trkpt lat="44.17736" lon="5.92536">
        <ele>500</ele>
        <time>2019-08-09T10:21:35Z</time>
      </trkpt>
      <trkpt lat="44.17742" lon="5.92532">
        <ele>500</ele>
        <time>2019-08-09T10:21:36Z</time>
      </trkpt>
      <trkpt lat="44.17749" lon="5.92528">
        <ele>500</ele>
        <time>2019-08-09T10:21:37Z</time>
      </trkpt>
      <trkpt lat="44.17754" lon="5.92525">
        <ele>500</ele>
        <time>2019-08-09T10:21:38Z</time>
      </trkpt>
      <trkpt lat="44.17759" lon="5.92521">
        <ele>500</ele>
        <time>2019-08-09T10:21:39Z</time>
      </trkpt>
      <trkpt lat="44.17765" lon="5.92519">
        <ele>500</ele>
        <time>2019-08-09T10:21:40Z</time>
      </trkpt>
      <trkpt lat="44.17771" lon="5.92518">
        <ele>500</ele>
        <time>2019-08-09T10:21:41Z</time>
      </trkpt>
      <trkpt lat="44.17776" lon="5.92518">
        <ele>500</ele>
        <time>2019-08-09T10:21:42Z</time>
      </trkpt>
      <trkpt lat="44.17782" lon="5.92519">
        <ele>500</ele>
        <time>2019-08-09T10:21:43Z</time>
      </trkpt>
      <trkpt lat="44.17787" lon="5.92521">
        <ele>500</ele>
        <time>2019-08-09T10:21:44Z</time>
      </trkpt>
      <trkpt lat="44.17792" lon="5.92523">
        <ele>500</ele>
        <time>2019-08-09T10:21:45Z</time>
      </trkpt>
      <trkpt lat="44.17796" lon="5.92526">
        <ele>500</ele>
        <time>2019-08-09T10:21:46Z</time>
      </trkpt>
      <trkpt lat="44.178" lon="5.92529">
        <ele>500</ele>
        <time>2019-08-09T10:21:47Z</time>
      </trkpt>
      <trkpt lat="44.17804" lon="5.92533">
        <ele>500</ele>
        <time>2019-08-09T10:21:48Z</time>
      </trkpt>
      <trkpt lat="44.17807" lon="5.92537">
        <ele>500</ele>
        <time>2019-08-09T10:21:49Z</time>
      </trkpt>
      <trkpt lat="44.17809" lon="5.92541">
        <ele>500</ele>
        <time>2019-08-09T10:21:50Z</time>
      </trkpt>
      <trkpt lat="44.17812" lon="5.92545">
        <ele>500</ele>
        <time>2019-08-09T10:21:51Z</time>
      </trkpt>
      <trkpt lat="44.17815" lon="5.92548">
        <ele>500</ele>
        <time>2019-08-09T10:21:52Z</time>
      </trkpt>
      <trkpt lat="44.17817" lon="5.92552">
        <ele>500</ele>
        <time>2019-08-09T10:21:53Z</time>
      </trkpt>
      <trkpt lat="44.1782" lon="5.92555">
        <ele>501</ele>
        <time>2019-08-09T10:21:54Z</time>
      </trkpt>
      <trkpt lat="44.17822" lon="5.92558">
        <ele>501</ele>
        <time>2019-08-09T10:21:55Z</time>
      </trkpt>
      <trkpt lat="44.17824" lon="5.92562">
        <ele>502</ele>
        <time>2019-08-09T10:21:56Z</time>
      </trkpt>
      <trkpt lat="44.17826" lon="5.92565">
        <ele>503</ele>
        <time>2019-08-09T10:21:57Z</time>
      </trkpt>
      <trkpt lat="44.17828" lon="5.92568">
        <ele>503</ele>
        <time>2019-08-09T10:21:58Z</time>
      </trkpt>
      <trkpt lat="44.1783" lon="5.92572">
        <ele>504</ele>
        <time>2019-08-09T10:21:59Z</time>
      </trkpt>
      <trkpt lat="44.17831" lon="5.92575">
        <ele>504</ele>
        <time>2019-08-09T10:22:00Z</time>
      </trkpt>
      <trkpt lat="44.17832" lon="5.92579">
        <ele>505</ele>
        <time>2019-08-09T10:22:01Z</time>
      </trkpt>
      <trkpt lat="44.17833" lon="5.92583">
        <ele>505</ele>
        <time>2019-08-09T10:22:02Z</time>
      </trkpt>
      <trkpt lat="44.17834" lon="5.92587">
        <ele>505</ele>
        <time>2019-08-09T10:22:03Z</time>
      </trkpt>
      <trkpt lat="44.17835" lon="5.92591">
        <ele>506</ele>
        <time>2019-08-09T10:22:04Z</time>
      </trkpt>
      <trkpt lat="44.17836" lon="5.92594">
        <ele>506</ele>
        <time>2019-08-09T10:22:05Z</time>
      </trkpt>
      <trkpt lat="44.17837" lon="5.92598">
        <ele>506</ele>
        <time>2019-08-09T10:22:06Z</time>
      </trkpt>
      <trkpt lat="44.17837" lon="5.92602">
        <ele>506</ele>
        <time>2019-08-09T10:22:07Z</time>
      </trkpt>
      <trkpt lat="44.17838" lon="5.92606">
        <ele>506</ele>
        <time>2019-08-09T10:22:08Z</time>
      </trkpt>
      <trkpt lat="44.17839" lon="5.92611">
        <ele>506</ele>
        <time>2019-08-09T10:22:09Z</time>
      </trkpt>
      <trkpt lat="44.17839" lon="5.92614">
        <ele>506</ele>
        <time>2019-08-09T10:22:10Z</time>
      </trkpt>
      <trkpt lat="44.1784" lon="5.92618">
        <ele>506</ele>
        <time>2019-08-09T10:22:11Z</time>
      </trkpt>
      <trkpt lat="44.17841" lon="5.92622">
        <ele>506</ele>
        <time>2019-08-09T10:22:12Z</time>
      </trkpt>
      <trkpt lat="44.17841" lon="5.92626">
        <ele>506</ele>
        <time>2019-08-09T10:22:13Z</time>
      </trkpt>
      <trkpt lat="44.17842" lon="5.92629">
        <ele>506</ele>
        <time>2019-08-09T10:22:14Z</time>
      </trkpt>
      <trkpt lat="44.17842" lon="5.92633">
        <ele>506</ele>
        <time>2019-08-09T10:22:15Z</time>
      </trkpt>
      <trkpt lat="44.17843" lon="5.92636">
        <ele>506</ele>
        <time>2019-08-09T10:22:16Z</time>
      </trkpt>
      <trkpt lat="44.17843" lon="5.92639">
        <ele>506</ele>
        <time>2019-08-09T10:22:17Z</time>
      </trkpt>
      <trkpt lat="44.17844" lon="5.92642">
        <ele>506</ele>
        <time>2019-08-09T10:22:18Z</time>
      </trkpt>
      <trkpt lat="44.17844" lon="5.92646">
        <ele>506</ele>
        <time>2019-08-09T10:22:19Z</time>
      </trkpt>
      <trkpt lat="44.17845" lon="5.92649">
        <ele>506</ele>
        <time>2019-08-09T10:22:20Z</time>
      </trkpt>
      <trkpt lat="44.17845" lon="5.92652">
        <ele>506</ele>
        <time>2019-08-09T10:22:21Z</time>
      </trkpt>
      <trkpt lat="44.17846" lon="5.92655">
        <ele>506</ele>
        <time>2019-08-09T10:22:22Z</time>
      </trkpt>
      <trkpt lat="44.17846" lon="5.92658">
        <ele>506</ele>
        <time>2019-08-09T10:22:23Z</time>
      </trkpt>
      <trkpt lat="44.17847" lon="5.92661">
        <ele>506</ele>
        <time>2019-08-09T10:22:24Z</time>
      </trkpt>
      <trkpt lat="44.17847" lon="5.92664">
        <ele>506</ele>
        <time>2019-08-09T10:22:25Z</time>
      </trkpt>
      <trkpt lat="44.17848" lon="5.92667">
        <ele>506</ele>
        <time>2019-08-09T10:22:26Z</time>
      </trkpt>
      <trkpt lat="44.17849" lon="5.9267">
        <ele>506</ele>
        <time>2019-08-09T10:22:27Z</time>
      </trkpt>
      <trkpt lat="44.17849" lon="5.92673">
        <ele>506</ele>
        <time>2019-08-09T10:22:28Z</time>
      </trkpt>
      <trkpt lat="44.1785" lon="5.92676">
        <ele>506</ele>
        <time>2019-08-09T10:22:29Z</time>
      </trkpt>
      <trkpt lat="44.17851" lon="5.92679">
        <ele>506</ele>
        <time>2019-08-09T10:22:30Z</time>
      </trkpt>
      <trkpt lat="44.17851" lon="5.92682">
        <ele>506</ele>
        <time>2019-08-09T10:22:31Z</time>
      </trkpt>
      <trkpt lat="44.17852" lon="5.92685">
        <ele>506</ele>
        <time>2019-08-09T10:22:32Z</time>
      </trkpt>
      <trkpt lat="44.17852" lon="5.92688">
        <ele>507</ele>
        <time>2019-08-09T10:22:33Z</time>
      </trkpt>
      <trkpt lat="44.17852" lon="5.92691">
        <ele>507</ele>
        <time>2019-08-09T10:22:34Z</time>
      </trkpt>
      <trkpt lat="44.17853" lon="5.92694">
        <ele>507</ele>
        <time>2019-08-09T10:22:35Z</time>
      </trkpt>
      <trkpt lat="44.17854" lon="5.92697">
        <ele>507</ele>
        <time>2019-08-09T10:22:36Z</time>
      </trkpt>
      <trkpt lat="44.17854" lon="5.927">
        <ele>508</ele>
        <time>2019-08-09T10:22:37Z</time>
      </trkpt>
      <trkpt lat="44.17855" lon="5.92704">
        <ele>508</ele>
        <time>2019-08-09T10:22:38Z</time>
      </trkpt>
      <trkpt lat="44.17855" lon="5.92708">
        <ele>508</ele>
        <time>2019-08-09T10:22:39Z</time>
      </trkpt>
      <trkpt lat="44.17856" lon="5.92711">
        <ele>508</ele>
        <time>2019-08-09T10:22:40Z</time>
      </trkpt>
      <trkpt lat="44.17856" lon="5.92715">
        <ele>508</ele>
        <time>2019-08-09T10:22:41Z</time>
      </trkpt>
      <trkpt lat="44.17857" lon="5.92719">
        <ele>508</ele>
        <time>2019-08-09T10:22:42Z</time>
      </trkpt>
      <trkpt lat="44.17857" lon="5.92722">
        <ele>508</ele>
        <time>2019-08-09T10:22:43Z</time>
      </trkpt>
      <trkpt lat="44.17858" lon="5.92726">
        <ele>508</ele>
        <time>2019-08-09T10:22:44Z</time>
      </trkpt>
      <trkpt lat="44.17859" lon="5.9273">
        <ele>508</ele>
        <time>2019-08-09T10:22:45Z</time>
      </trkpt>
      <trkpt lat="44.17859" lon="5.92733">
        <ele>508</ele>
        <time>2019-08-09T10:22:46Z</time>
      </trkpt>
      <trkpt lat="44.17859" lon="5.92737">
        <ele>509</ele>
        <time>2019-08-09T10:22:47Z</time>
      </trkpt>
      <trkpt lat="44.17859" lon="5.92741">
        <ele>509</ele>
        <time>2019-08-09T10:22:48Z</time>
      </trkpt>
      <trkpt lat="44.17859" lon="5.92745">
        <ele>509</ele>
        <time>2019-08-09T10:22:49Z</time>
      </trkpt>
      <trkpt lat="44.17859" lon="5.92749">
        <ele>509</ele>
        <time>2019-08-09T10:22:50Z</time>
      </trkpt>
      <trkpt lat="44.17859" lon="5.92754">
        <ele>509</ele>
        <time>2019-08-09T10:22:51Z</time>
      </trkpt>
      <trkpt lat="44.17858" lon="5.92758">
        <ele>510</ele>
        <time>2019-08-09T10:22:52Z</time>
      </trkpt>
      <trkpt lat="44.17858" lon="5.92761">
        <ele>510</ele>
        <time>2019-08-09T10:22:53Z</time>
      </trkpt>
      <trkpt lat="44.17857" lon="5.92765">
        <ele>510</ele>
        <time>2019-08-09T10:22:54Z</time>
      </trkpt>
      <trkpt lat="44.17857" lon="5.92769">
        <ele>511</ele>
        <time>2019-08-09T10:22:55Z</time>
      </trkpt>
      <trkpt lat="44.17857" lon="5.92773">
        <ele>511</ele>
        <time>2019-08-09T10:22:56Z</time>
      </trkpt>
      <trkpt lat="44.17857" lon="5.92777">
        <ele>512</ele>
        <time>2019-08-09T10:22:57Z</time>
      </trkpt>
      <trkpt lat="44.17856" lon="5.92781">
        <ele>512</ele>
        <time>2019-08-09T10:22:58Z</time>
      </trkpt>
      <trkpt lat="44.17855" lon="5.92785">
        <ele>512</ele>
        <time>2019-08-09T10:22:59Z</time>
      </trkpt>
      <trkpt lat="44.17855" lon="5.92789">
        <ele>513</ele>
        <time>2019-08-09T10:23:00Z</time>
      </trkpt>
      <trkpt lat="44.17854" lon="5.92793">
        <ele>513</ele>
        <time>2019-08-09T10:23:01Z</time>
      </trkpt>
      <trkpt lat="44.17853" lon="5.92796">
        <ele>513</ele>
        <time>2019-08-09T10:23:02Z</time>
      </trkpt>
      <trkpt lat="44.17853" lon="5.928">
        <ele>514</ele>
        <time>2019-08-09T10:23:03Z</time>
      </trkpt>
      <trkpt lat="44.17852" lon="5.92804">
        <ele>514</ele>
        <time>2019-08-09T10:23:04Z</time>
      </trkpt>
      <trkpt lat="44.17851" lon="5.92808">
        <ele>514</ele>
        <time>2019-08-09T10:23:05Z</time>
      </trkpt>
      <trkpt lat="44.17851" lon="5.92812">
        <ele>514</ele>
        <time>2019-08-09T10:23:06Z</time>
      </trkpt>
      <trkpt lat="44.1785" lon="5.92816">
        <ele>515</ele>
        <time>2019-08-09T10:23:07Z</time>
      </trkpt>
      <trkpt lat="44.17849" lon="5.9282">
        <ele>515</ele>
        <time>2019-08-09T10:23:08Z</time>
      </trkpt>
      <trkpt lat="44.17849" lon="5.92824">
        <ele>515</ele>
        <time>2019-08-09T10:23:09Z</time>
      </trkpt>
      <trkpt lat="44.17849" lon="5.92828">
        <ele>515</ele>
        <time>2019-08-09T10:23:10Z</time>
      </trkpt>
      <trkpt lat="44.17848" lon="5.92832">
        <ele>516</ele>
        <time>2019-08-09T10:23:11Z</time>
      </trkpt>
      <trkpt lat="44.17848" lon="5.92836">
        <ele>516</ele>
        <time>2019-08-09T10:23:12Z</time>
      </trkpt>
      <trkpt lat="44.17848" lon="5.9284">
        <ele>516</ele>
        <time>2019-08-09T10:23:13Z</time>
      </trkpt>
      <trkpt lat="44.17848" lon="5.92843">
        <ele>516</ele>
        <time>2019-08-09T10:23:14Z</time>
      </trkpt>
      <trkpt lat="44.17848" lon="5.92847">
        <ele>517</ele>
        <time>2019-08-09T10:23:15Z</time>
      </trkpt>
      <trkpt lat="44.17848" lon="5.92851">
        <ele>517</ele>
        <time>2019-08-09T10:23:16Z</time>
      </trkpt>
      <trkpt lat="44.17848" lon="5.92855">
        <ele>517</ele>
        <time>2019-08-09T10:23:17Z</time>
      </trkpt>
      <trkpt lat="44.17848" lon="5.92859">
        <ele>517</ele>
        <time>2019-08-09T10:23:18Z</time>
      </trkpt>
      <trkpt lat="44.17848" lon="5.92862">
        <ele>518</ele>
        <time>2019-08-09T10:23:19Z</time>
      </trkpt>
      <trkpt lat="44.17848" lon="5.92866">
        <ele>518</ele>
        <time>2019-08-09T10:23:20Z</time>
      </trkpt>
      <trkpt lat="44.17848" lon="5.9287">
        <ele>518</ele>
        <time>2019-08-09T10:23:21Z</time>
      </trkpt>
      <trkpt lat="44.17848" lon="5.92874">
        <ele>518</ele>
        <time>2019-08-09T10:23:22Z</time>
      </trkpt>
      <trkpt lat="44.17849" lon="5.92877">
        <ele>518</ele>
        <time>2019-08-09T10:23:23Z</time>
      </trkpt>
      <trkpt lat="44.17849" lon="5.92881">
        <ele>518</ele>
        <time>2019-08-09T10:23:24Z</time>
      </trkpt>
      <trkpt lat="44.17849" lon="5.92885">
        <ele>519</ele>
        <time>2019-08-09T10:23:25Z</time>
      </trkpt>
      <trkpt lat="44.17849" lon="5.92889">
        <ele>519</ele>
        <time>2019-08-09T10:23:26Z</time>
      </trkpt>
      <trkpt lat="44.17849" lon="5.92893">
        <ele>519</ele>
        <time>2019-08-09T10:23:27Z</time>
      </trkpt>
      <trkpt lat="44.17849" lon="5.92897">
        <ele>519</ele>
        <time>2019-08-09T10:23:28Z</time>
      </trkpt>
      <trkpt lat="44.1785" lon="5.92901">
        <ele>520</ele>
        <time>2019-08-09T10:23:29Z</time>
      </trkpt>
      <trkpt lat="44.1785" lon="5.92905">
        <ele>520</ele>
        <time>2019-08-09T10:23:30Z</time>
      </trkpt>
      <trkpt lat="44.1785" lon="5.92908">
        <ele>520</ele>
        <time>2019-08-09T10:23:31Z</time>
      </trkpt>
      <trkpt lat="44.1785" lon="5.92911">
        <ele>520</ele>
        <time>2019-08-09T10:23:32Z</time>
      </trkpt>
      <trkpt lat="44.17851" lon="5.92915">
        <ele>521</ele>
        <time>2019-08-09T10:23:33Z</time>
      </trkpt>
      <trkpt lat="44.17851" lon="5.92918">
        <ele>521</ele>
        <time>2019-08-09T10:23:34Z</time>
      </trkpt>
      <trkpt lat="44.17851" lon="5.92922">
        <ele>521</ele>
        <time>2019-08-09T10:23:35Z</time>
      </trkpt>
      <trkpt lat="44.17852" lon="5.92925">
        <ele>521</ele>
        <time>2019-08-09T10:23:36Z</time>
      </trkpt>
      <trkpt lat="44.17852" lon="5.92928">
        <ele>522</ele>
        <time>2019-08-09T10:23:37Z</time>
      </trkpt>
      <trkpt lat="44.17852" lon="5.92932">
        <ele>522</ele>
        <time>2019-08-09T10:23:38Z</time>
      </trkpt>
      <trkpt lat="44.17853" lon="5.92935">
        <ele>522</ele>
        <time>2019-08-09T10:23:39Z</time>
      </trkpt>
      <trkpt lat="44.17853" lon="5.92938">
        <ele>522</ele>
        <time>2019-08-09T10:23:40Z</time>
      </trkpt>
      <trkpt lat="44.17854" lon="5.92942">
        <ele>522</ele>
        <time>2019-08-09T10:23:41Z</time>
      </trkpt>
      <trkpt lat="44.17854" lon="5.92945">
        <ele>522</ele>
        <time>2019-08-09T10:23:42Z</time>
      </trkpt>
      <trkpt lat="44.17855" lon="5.92948">
        <ele>523</ele>
        <time>2019-08-09T10:23:43Z</time>
      </trkpt>
      <trkpt lat="44.17856" lon="5.92951">
        <ele>523</ele>
        <time>2019-08-09T10:23:44Z</time>
      </trkpt>
      <trkpt lat="44.17857" lon="5.92954">
        <ele>523</ele>
        <time>2019-08-09T10:23:45Z</time>
      </trkpt>
      <trkpt lat="44.17857" lon="5.92958">
        <ele>523</ele>
        <time>2019-08-09T10:23:46Z</time>
      </trkpt>
      <trkpt lat="44.17858" lon="5.92961">
        <ele>523</ele>
        <time>2019-08-09T10:23:47Z</time>
      </trkpt>
      <trkpt lat="44.17859" lon="5.92965">
        <ele>524</ele>
        <time>2019-08-09T10:23:48Z</time>
      </trkpt>
      <trkpt lat="44.1786" lon="5.92968">
        <ele>524</ele>
        <time>2019-08-09T10:23:49Z</time>
      </trkpt>
      <trkpt lat="44.17861" lon="5.92971">
        <ele>524</ele>
        <time>2019-08-09T10:23:50Z</time>
      </trkpt>
      <trkpt lat="44.17862" lon="5.92975">
        <ele>524</ele>
        <time>2019-08-09T10:23:51Z</time>
      </trkpt>
      <trkpt lat="44.17862" lon="5.92978">
        <ele>524</ele>
        <time>2019-08-09T10:23:52Z</time>
      </trkpt>
      <trkpt lat="44.17863" lon="5.92982">
        <ele>524</ele>
        <time>2019-08-09T10:23:53Z</time>
      </trkpt>
      <trkpt lat="44.17864" lon="5.92986">
        <ele>524</ele>
        <time>2019-08-09T10:23:54Z</time>
      </trkpt>
      <trkpt lat="44.17865" lon="5.9299">
        <ele>525</ele>
        <time>2019-08-09T10:23:55Z</time>
      </trkpt>
      <trkpt lat="44.17866" lon="5.92993">
        <ele>525</ele>
        <time>2019-08-09T10:23:56Z</time>
      </trkpt>
      <trkpt lat="44.17866" lon="5.92997">
        <ele>525</ele>
        <time>2019-08-09T10:23:57Z</time>
      </trkpt>
      <trkpt lat="44.17867" lon="5.93001">
        <ele>525</ele>
        <time>2019-08-09T10:23:58Z</time>
      </trkpt>
      <trkpt lat="44.17867" lon="5.93005">
        <ele>525</ele>
        <time>2019-08-09T10:23:59Z</time>
      </trkpt>
      <trkpt lat="44.17867" lon="5.93009">
        <ele>525</ele>
        <time>2019-08-09T10:24:00Z</time>
      </trkpt>
      <trkpt lat="44.17867" lon="5.93013">
        <ele>525</ele>
        <time>2019-08-09T10:24:01Z</time>
      </trkpt>
      <trkpt lat="44.17867" lon="5.93017">
        <ele>525</ele>
        <time>2019-08-09T10:24:02Z</time>
      </trkpt>
      <trkpt lat="44.17867" lon="5.93021">
        <ele>525</ele>
        <time>2019-08-09T10:24:03Z</time>
      </trkpt>
      <trkpt lat="44.17867" lon="5.93025">
        <ele>525</ele>
        <time>2019-08-09T10:24:04Z</time>
      </trkpt>
      <trkpt lat="44.17868" lon="5.93029">
        <ele>525</ele>
        <time>2019-08-09T10:24:05Z</time>
      </trkpt>
      <trkpt lat="44.17868" lon="5.93033">
        <ele>525</ele>
        <time>2019-08-09T10:24:06Z</time>
      </trkpt>
      <trkpt lat="44.17868" lon="5.93037">
        <ele>525</ele>
        <time>2019-08-09T10:24:07Z</time>
      </trkpt>
      <trkpt lat="44.17868" lon="5.93041">
        <ele>525</ele>
        <time>2019-08-09T10:24:08Z</time>
      </trkpt>
      <trkpt lat="44.17868" lon="5.93045">
        <ele>525</ele>
        <time>2019-08-09T10:24:09Z</time>
      </trkpt>
      <trkpt lat="44.17868" lon="5.93049">
        <ele>525</ele>
        <time>2019-08-09T10:24:10Z</time>
      </trkpt>
      <trkpt lat="44.17868" lon="5.93054">
        <ele>525</ele>
        <time>2019-08-09T10:24:11Z</time>
      </trkpt>
      <trkpt lat="44.17868" lon="5.93058">
        <ele>525</ele>
        <time>2019-08-09T10:24:12Z</time>
      </trkpt>
      <trkpt lat="44.17869" lon="5.93062">
        <ele>525</ele>
        <time>2019-08-09T10:24:13Z</time>
      </trkpt>
      <trkpt lat="44.1787" lon="5.93067">
        <ele>525</ele>
        <time>2019-08-09T10:24:14Z</time>
      </trkpt>
      <trkpt lat="44.17871" lon="5.93071">
        <ele>525</ele>
        <time>2019-08-09T10:24:15Z</time>
      </trkpt>
      <trkpt lat="44.17872" lon="5.93074">
        <ele>525</ele>
        <time>2019-08-09T10:24:16Z</time>
      </trkpt>
      <trkpt lat="44.17873" lon="5.93078">
        <ele>525</ele>
        <time>2019-08-09T10:24:17Z</time>
      </trkpt>
      <trkpt lat="44.17874" lon="5.93082">
        <ele>525</ele>
        <time>2019-08-09T10:24:18Z</time>
      </trkpt>
      <trkpt lat="44.17875" lon="5.93085">
        <ele>525</ele>
        <time>2019-08-09T10:24:19Z</time>
      </trkpt>
      <trkpt lat="44.17876" lon="5.93088">
        <ele>526</ele>
        <time>2019-08-09T10:24:20Z</time>
      </trkpt>
      <trkpt lat="44.17877" lon="5.93091">
        <ele>526</ele>
        <time>2019-08-09T10:24:21Z</time>
      </trkpt>
      <trkpt lat="44.17878" lon="5.93094">
        <ele>527</ele>
        <time>2019-08-09T10:24:22Z</time>
      </trkpt>
      <trkpt lat="44.17879" lon="5.93097">
        <ele>527</ele>
        <time>2019-08-09T10:24:23Z</time>
      </trkpt>
      <trkpt lat="44.17881" lon="5.931">
        <ele>528</ele>
        <time>2019-08-09T10:24:24Z</time>
      </trkpt>
      <trkpt lat="44.17882" lon="5.93103">
        <ele>528</ele>
        <time>2019-08-09T10:24:25Z</time>
      </trkpt>
      <trkpt lat="44.17884" lon="5.93105">
        <ele>529</ele>
        <time>2019-08-09T10:24:26Z</time>
      </trkpt>
      <trkpt lat="44.17886" lon="5.93108">
        <ele>529</ele>
        <time>2019-08-09T10:24:27Z</time>
      </trkpt>
      <trkpt lat="44.17887" lon="5.9311">
        <ele>530</ele>
        <time>2019-08-09T10:24:28Z</time>
      </trkpt>
      <trkpt lat="44.17889" lon="5.93112">
        <ele>530</ele>
        <time>2019-08-09T10:24:29Z</time>
      </trkpt>
      <trkpt lat="44.17891" lon="5.93115">
        <ele>530</ele>
        <time>2019-08-09T10:24:30Z</time>
      </trkpt>
      <trkpt lat="44.17893" lon="5.93117">
        <ele>531</ele>
        <time>2019-08-09T10:24:31Z</time>
      </trkpt>
      <trkpt lat="44.17895" lon="5.93119">
        <ele>531</ele>
        <time>2019-08-09T10:24:32Z</time>
      </trkpt>
      <trkpt lat="44.17897" lon="5.93121">
        <ele>532</ele>
        <time>2019-08-09T10:24:33Z</time>
      </trkpt>
      <trkpt lat="44.17899" lon="5.93123">
        <ele>532</ele>
        <time>2019-08-09T10:24:34Z</time>
      </trkpt>
      <trkpt lat="44.17902" lon="5.93125">
        <ele>532</ele>
        <time>2019-08-09T10:24:35Z</time>
      </trkpt>
      <trkpt lat="44.17904" lon="5.93127">
        <ele>533</ele>
        <time>2019-08-09T10:24:36Z</time>
      </trkpt>
      <trkpt lat="44.17906" lon="5.93129">
        <ele>533</ele>
        <time>2019-08-09T10:24:37Z</time>
      </trkpt>
      <trkpt lat="44.17908" lon="5.93131">
        <ele>533</ele>
        <time>2019-08-09T10:24:38Z</time>
      </trkpt>
      <trkpt lat="44.17911" lon="5.93133">
        <ele>533</ele>
        <time>2019-08-09T10:24:39Z</time>
      </trkpt>
      <trkpt lat="44.17913" lon="5.93135">
        <ele>534</ele>
        <time>2019-08-09T10:24:40Z</time>
      </trkpt>
      <trkpt lat="44.17915" lon="5.93137">
        <ele>534</ele>
        <time>2019-08-09T10:24:41Z</time>
      </trkpt>
      <trkpt lat="44.17918" lon="5.93139">
        <ele>534</ele>
        <time>2019-08-09T10:24:42Z</time>
      </trkpt>
      <trkpt lat="44.1792" lon="5.9314">
        <ele>535</ele>
        <time>2019-08-09T10:24:43Z</time>
      </trkpt>
      <trkpt lat="44.17923" lon="5.93142">
        <ele>535</ele>
        <time>2019-08-09T10:24:44Z</time>
      </trkpt>
      <trkpt lat="44.17925" lon="5.93144">
        <ele>535</ele>
        <time>2019-08-09T10:24:45Z</time>
      </trkpt>
      <trkpt lat="44.17927" lon="5.93146">
        <ele>536</ele>
        <time>2019-08-09T10:24:46Z</time>
      </trkpt>
      <trkpt lat="44.17929" lon="5.93148">
        <ele>536</ele>
        <time>2019-08-09T10:24:47Z</time>
      </trkpt>
      <trkpt lat="44.17932" lon="5.9315">
        <ele>536</ele>
        <time>2019-08-09T10:24:48Z</time>
      </trkpt>
      <trkpt lat="44.17934" lon="5.93151">
        <ele>537</ele>
        <time>2019-08-09T10:24:49Z</time>
      </trkpt>
      <trkpt lat="44.17936" lon="5.93153">
        <ele>537</ele>
        <time>2019-08-09T10:24:50Z</time>
      </trkpt>
      <trkpt lat="44.17939" lon="5.93155">
        <ele>537</ele>
        <time>2019-08-09T10:24:51Z</time>
      </trkpt>
      <trkpt lat="44.17941" lon="5.93157">
        <ele>538</ele>
        <time>2019-08-09T10:24:52Z</time>
      </trkpt>
      <trkpt lat="44.17944" lon="5.93159">
        <ele>538</ele>
        <time>2019-08-09T10:24:53Z</time>
      </trkpt>
      <trkpt lat="44.17946" lon="5.9316">
        <ele>539</ele>
        <time>2019-08-09T10:24:54Z</time>
      </trkpt>
      <trkpt lat="44.17949" lon="5.93162">
        <ele>539</ele>
        <time>2019-08-09T10:24:55Z</time>
      </trkpt>
      <trkpt lat="44.17951" lon="5.93164">
        <ele>539</ele>
        <time>2019-08-09T10:24:56Z</time>
      </trkpt>
      <trkpt lat="44.17953" lon="5.93166">
        <ele>539</ele>
        <time>2019-08-09T10:24:57Z</time>
      </trkpt>
      <trkpt lat="44.17955" lon="5.93168">
        <ele>540</ele>
        <time>2019-08-09T10:24:58Z</time>
      </trkpt>
      <trkpt lat="44.17958" lon="5.93169">
        <ele>540</ele>
        <time>2019-08-09T10:24:59Z</time>
      </trkpt>
      <trkpt lat="44.1796" lon="5.93171">
        <ele>540</ele>
        <time>2019-08-09T10:25:00Z</time>
      </trkpt>
      <trkpt lat="44.17963" lon="5.93172">
        <ele>540</ele>
        <time>2019-08-09T10:25:01Z</time>
      </trkpt>
      <trkpt lat="44.17966" lon="5.93173">
        <ele>541</ele>
        <time>2019-08-09T10:25:02Z</time>
      </trkpt>
      <trkpt lat="44.17968" lon="5.93175">
        <ele>541</ele>
        <time>2019-08-09T10:25:03Z</time>
      </trkpt>
      <trkpt lat="44.17971" lon="5.93176">
        <ele>541</ele>
        <time>2019-08-09T10:25:04Z</time>
      </trkpt>
      <trkpt lat="44.17974" lon="5.93178">
        <ele>541</ele>
        <time>2019-08-09T10:25:05Z</time>
      </trkpt>
      <trkpt lat="44.17977" lon="5.93179">
        <ele>541</ele>
        <time>2019-08-09T10:25:06Z</time>
      </trkpt>
      <trkpt lat="44.1798" lon="5.9318">
        <ele>542</ele>
        <time>2019-08-09T10:25:07Z</time>
      </trkpt>
      <trkpt lat="44.17983" lon="5.93181">
        <ele>542</ele>
        <time>2019-08-09T10:25:08Z</time>
      </trkpt>
      <trkpt lat="44.17986" lon="5.93182">
        <ele>542</ele>
        <time>2019-08-09T10:25:09Z</time>
      </trkpt>
      <trkpt lat="44.17988" lon="5.93183">
        <ele>542</ele>
        <time>2019-08-09T10:25:10Z</time>
      </trkpt>
      <trkpt lat="44.17991" lon="5.93183">
        <ele>543</ele>
        <time>2019-08-09T10:25:11Z</time>
      </trkpt>
      <trkpt lat="44.17994" lon="5.93184">
        <ele>543</ele>
        <time>2019-08-09T10:25:12Z</time>
      </trkpt>
      <trkpt lat="44.17997" lon="5.93185">
        <ele>543</ele>
        <time>2019-08-09T10:25:13Z</time>
      </trkpt>
      <trkpt lat="44.18" lon="5.93185">
        <ele>543</ele>
        <time>2019-08-09T10:25:14Z</time>
      </trkpt>
      <trkpt lat="44.18003" lon="5.93185">
        <ele>544</ele>
        <time>2019-08-09T10:25:15Z</time>
      </trkpt>
      <trkpt lat="44.18005" lon="5.93185">
        <ele>544</ele>
        <time>2019-08-09T10:25:16Z</time>
      </trkpt>
      <trkpt lat="44.18008" lon="5.93185">
        <ele>544</ele>
        <time>2019-08-09T10:25:17Z</time>
      </trkpt>
      <trkpt lat="44.18011" lon="5.93185">
        <ele>544</ele>
        <time>2019-08-09T10:25:18Z</time>
      </trkpt>
      <trkpt lat="44.18014" lon="5.93185">
        <ele>545</ele>
        <time>2019-08-09T10:25:19Z</time>
      </trkpt>
      <trkpt lat="44.18016" lon="5.93185">
        <ele>545</ele>
        <time>2019-08-09T10:25:20Z</time>
      </trkpt>
      <trkpt lat="44.18019" lon="5.93185">
        <ele>545</ele>
        <time>2019-08-09T10:25:21Z</time>
      </trkpt>
      <trkpt lat="44.18022" lon="5.93185">
        <ele>545</ele>
        <time>2019-08-09T10:25:22Z</time>
      </trkpt>
      <trkpt lat="44.18024" lon="5.93186">
        <ele>546</ele>
        <time>2019-08-09T10:25:23Z</time>
      </trkpt>
      <trkpt lat="44.18027" lon="5.93186">
        <ele>546</ele>
        <time>2019-08-09T10:25:24Z</time>
      </trkpt>
      <trkpt lat="44.18029" lon="5.93186">
        <ele>546</ele>
        <time>2019-08-09T10:25:25Z</time>
      </trkpt>
      <trkpt lat="44.18032" lon="5.93186">
        <ele>546</ele>
        <time>2019-08-09T10:25:26Z</time>
      </trkpt>
      <trkpt lat="44.18034" lon="5.93186">
        <ele>546</ele>
        <time>2019-08-09T10:25:27Z</time>
      </trkpt>
      <trkpt lat="44.18037" lon="5.93186">
        <ele>546</ele>
        <time>2019-08-09T10:25:28Z</time>
      </trkpt>
      <trkpt lat="44.1804" lon="5.93187">
        <ele>547</ele>
        <time>2019-08-09T10:25:29Z</time>
      </trkpt>
      <trkpt lat="44.18042" lon="5.93187">
        <ele>547</ele>
        <time>2019-08-09T10:25:30Z</time>
      </trkpt>
      <trkpt lat="44.18045" lon="5.93188">
        <ele>547</ele>
        <time>2019-08-09T10:25:31Z</time>
      </trkpt>
      <trkpt lat="44.18048" lon="5.93188">
        <ele>547</ele>
        <time>2019-08-09T10:25:32Z</time>
      </trkpt>
      <trkpt lat="44.18051" lon="5.93189">
        <ele>548</ele>
        <time>2019-08-09T10:25:33Z</time>
      </trkpt>
      <trkpt lat="44.18054" lon="5.93189">
        <ele>548</ele>
        <time>2019-08-09T10:25:34Z</time>
      </trkpt>
      <trkpt lat="44.18057" lon="5.9319">
        <ele>548</ele>
        <time>2019-08-09T10:25:35Z</time>
      </trkpt>
      <trkpt lat="44.1806" lon="5.93191">
        <ele>548</ele>
        <time>2019-08-09T10:25:36Z</time>
      </trkpt>
      <trkpt lat="44.18063" lon="5.93192">
        <ele>548</ele>
        <time>2019-08-09T10:25:37Z</time>
      </trkpt>
      <trkpt lat="44.18066" lon="5.93192">
        <ele>548</ele>
        <time>2019-08-09T10:25:38Z</time>
      </trkpt>
      <trkpt lat="44.18069" lon="5.93192">
        <ele>548</ele>
        <time>2019-08-09T10:25:39Z</time>
      </trkpt>
      <trkpt lat="44.18072" lon="5.93193">
        <ele>548</ele>
        <time>2019-08-09T10:25:40Z</time>
      </trkpt>
      <trkpt lat="44.18075" lon="5.93194">
        <ele>548</ele>
        <time>2019-08-09T10:25:41Z</time>
      </trkpt>
      <trkpt lat="44.18077" lon="5.93194">
        <ele>548</ele>
        <time>2019-08-09T10:25:42Z</time>
      </trkpt>
      <trkpt lat="44.18081" lon="5.93194">
        <ele>549</ele>
        <time>2019-08-09T10:25:43Z</time>
      </trkpt>
      <trkpt lat="44.18084" lon="5.93195">
        <ele>549</ele>
        <time>2019-08-09T10:25:44Z</time>
      </trkpt>
      <trkpt lat="44.18086" lon="5.93196">
        <ele>550</ele>
        <time>2019-08-09T10:25:45Z</time>
      </trkpt>
      <trkpt lat="44.18089" lon="5.93197">
        <ele>550</ele>
        <time>2019-08-09T10:25:46Z</time>
      </trkpt>
      <trkpt lat="44.18091" lon="5.93197">
        <ele>550</ele>
        <time>2019-08-09T10:25:47Z</time>
      </trkpt>
      <trkpt lat="44.18093" lon="5.93197">
        <ele>551</ele>
        <time>2019-08-09T10:25:48Z</time>
      </trkpt>
      <trkpt lat="44.18096" lon="5.93197">
        <ele>551</ele>
        <time>2019-08-09T10:25:49Z</time>
      </trkpt>
      <trkpt lat="44.18098" lon="5.93198">
        <ele>551</ele>
        <time>2019-08-09T10:25:50Z</time>
      </trkpt>
      <trkpt lat="44.18101" lon="5.93199">
        <ele>551</ele>
        <time>2019-08-09T10:25:51Z</time>
      </trkpt>
      <trkpt lat="44.18103" lon="5.932">
        <ele>551</ele>
        <time>2019-08-09T10:25:52Z</time>
      </trkpt>
      <trkpt lat="44.18106" lon="5.93201">
        <ele>552</ele>
        <time>2019-08-09T10:25:53Z</time>
      </trkpt>
      <trkpt lat="44.18108" lon="5.93201">
        <ele>552</ele>
        <time>2019-08-09T10:25:54Z</time>
      </trkpt>
      <trkpt lat="44.18111" lon="5.93202">
        <ele>552</ele>
        <time>2019-08-09T10:25:55Z</time>
      </trkpt>
      <trkpt lat="44.18114" lon="5.93203">
        <ele>552</ele>
        <time>2019-08-09T10:25:56Z</time>
      </trkpt>
      <trkpt lat="44.18117" lon="5.93204">
        <ele>552</ele>
        <time>2019-08-09T10:25:57Z</time>
      </trkpt>
      <trkpt lat="44.18119" lon="5.93205">
        <ele>552</ele>
        <time>2019-08-09T10:25:58Z</time>
      </trkpt>
      <trkpt lat="44.18122" lon="5.93205">
        <ele>552</ele>
        <time>2019-08-09T10:25:59Z</time>
      </trkpt>
      <trkpt lat="44.18124" lon="5.93206">
        <ele>552</ele>
        <time>2019-08-09T10:26:00Z</time>
      </trkpt>
      <trkpt lat="44.18127" lon="5.93207">
        <ele>552</ele>
        <time>2019-08-09T10:26:01Z</time>
      </trkpt>
      <trkpt lat="44.1813" lon="5.93208">
        <ele>553</ele>
        <time>2019-08-09T10:26:02Z</time>
      </trkpt>
      <trkpt lat="44.18132" lon="5.93208">
        <ele>553</ele>
        <time>2019-08-09T10:26:03Z</time>
      </trkpt>
      <trkpt lat="44.18135" lon="5.93209">
        <ele>553</ele>
        <time>2019-08-09T10:26:04Z</time>
      </trkpt>
      <trkpt lat="44.18138" lon="5.93209">
        <ele>553</ele>
        <time>2019-08-09T10:26:05Z</time>
      </trkpt>
      <trkpt lat="44.1814" lon="5.9321">
        <ele>553</ele>
        <time>2019-08-09T10:26:06Z</time>
      </trkpt>
      <trkpt lat="44.18143" lon="5.93211">
        <ele>553</ele>
        <time>2019-08-09T10:26:07Z</time>
      </trkpt>
      <trkpt lat="44.18146" lon="5.93211">
        <ele>554</ele>
        <time>2019-08-09T10:26:08Z</time>
      </trkpt>
      <trkpt lat="44.18148" lon="5.93212">
        <ele>554</ele>
        <time>2019-08-09T10:26:09Z</time>
      </trkpt>
      <trkpt lat="44.18151" lon="5.93213">
        <ele>554</ele>
        <time>2019-08-09T10:26:10Z</time>
      </trkpt>
      <trkpt lat="44.18154" lon="5.93213">
        <ele>554</ele>
        <time>2019-08-09T10:26:11Z</time>
      </trkpt>
      <trkpt lat="44.18156" lon="5.93214">
        <ele>555</ele>
        <time>2019-08-09T10:26:12Z</time>
      </trkpt>
      <trkpt lat="44.18159" lon="5.93214">
        <ele>555</ele>
        <time>2019-08-09T10:26:13Z</time>
      </trkpt>
      <trkpt lat="44.18162" lon="5.93214">
        <ele>555</ele>
        <time>2019-08-09T10:26:14Z</time>
      </trkpt>
      <trkpt lat="44.18165" lon="5.93214">
        <ele>555</ele>
        <time>2019-08-09T10:26:15Z</time>
      </trkpt>
      <trkpt lat="44.18168" lon="5.93215">
        <ele>556</ele>
        <time>2019-08-09T10:26:16Z</time>
      </trkpt>
      <trkpt lat="44.1817" lon="5.93215">
        <ele>556</ele>
        <time>2019-08-09T10:26:17Z</time>
      </trkpt>
      <trkpt lat="44.18173" lon="5.93216">
        <ele>556</ele>
        <time>2019-08-09T10:26:18Z</time>
      </trkpt>
      <trkpt lat="44.18176" lon="5.93216">
        <ele>556</ele>
        <time>2019-08-09T10:26:19Z</time>
      </trkpt>
      <trkpt lat="44.18179" lon="5.93216">
        <ele>557</ele>
        <time>2019-08-09T10:26:20Z</time>
      </trkpt>
      <trkpt lat="44.18182" lon="5.93217">
        <ele>557</ele>
        <time>2019-08-09T10:26:21Z</time>
      </trkpt>
      <trkpt lat="44.18185" lon="5.93217">
        <ele>558</ele>
        <time>2019-08-09T10:26:22Z</time>
      </trkpt>
      <trkpt lat="44.18188" lon="5.93217">
        <ele>558</ele>
        <time>2019-08-09T10:26:23Z</time>
      </trkpt>
      <trkpt lat="44.18191" lon="5.93218">
        <ele>559</ele>
        <time>2019-08-09T10:26:24Z</time>
      </trkpt>
      <trkpt lat="44.18194" lon="5.93219">
        <ele>559</ele>
        <time>2019-08-09T10:26:25Z</time>
      </trkpt>
      <trkpt lat="44.18198" lon="5.9322">
        <ele>559</ele>
        <time>2019-08-09T10:26:26Z</time>
      </trkpt>
      <trkpt lat="44.18201" lon="5.93222">
        <ele>560</ele>
        <time>2019-08-09T10:26:27Z</time>
      </trkpt>
      <trkpt lat="44.18204" lon="5.93223">
        <ele>560</ele>
        <time>2019-08-09T10:26:28Z</time>
      </trkpt>
      <trkpt lat="44.18208" lon="5.93225">
        <ele>560</ele>
        <time>2019-08-09T10:26:29Z</time>
      </trkpt>
      <trkpt lat="44.18211" lon="5.93227">
        <ele>560</ele>
        <time>2019-08-09T10:26:30Z</time>
      </trkpt>
      <trkpt lat="44.18214" lon="5.9323">
        <ele>560</ele>
        <time>2019-08-09T10:26:31Z</time>
      </trkpt>
      <trkpt lat="44.18218" lon="5.93234">
        <ele>560</ele>
        <time>2019-08-09T10:26:32Z</time>
      </trkpt>
      <trkpt lat="44.18222" lon="5.93238">
        <ele>560</ele>
        <time>2019-08-09T10:26:33Z</time>
      </trkpt>
      <trkpt lat="44.18225" lon="5.93242">
        <ele>560</ele>
        <time>2019-08-09T10:26:34Z</time>
      </trkpt>
      <trkpt lat="44.18228" lon="5.93248">
        <ele>560</ele>
        <time>2019-08-09T10:26:35Z</time>
      </trkpt>
      <trkpt lat="44.18231" lon="5.93253">
        <ele>560</ele>
        <time>2019-08-09T10:26:36Z</time>
      </trkpt>
      <trkpt lat="44.18234" lon="5.93259">
        <ele>560</ele>
        <time>2019-08-09T10:26:37Z</time>
      </trkpt>
      <trkpt lat="44.18237" lon="5.93265">
        <ele>560</ele>
        <time>2019-08-09T10:26:38Z</time>
      </trkpt>
      <trkpt lat="44.1824" lon="5.93271">
        <ele>560</ele>
        <time>2019-08-09T10:26:39Z</time>
      </trkpt>
      <trkpt lat="44.18242" lon="5.93277">
        <ele>560</ele>
        <time>2019-08-09T10:26:40Z</time>
      </trkpt>
      <trkpt lat="44.18245" lon="5.93284">
        <ele>560</ele>
        <time>2019-08-09T10:26:41Z</time>
      </trkpt>
      <trkpt lat="44.18247" lon="5.93291">
        <ele>560</ele>
        <time>2019-08-09T10:26:42Z</time>
      </trkpt>
      <trkpt lat="44.18249" lon="5.93297">
        <ele>560</ele>
        <time>2019-08-09T10:26:43Z</time>
      </trkpt>
      <trkpt lat="44.18251" lon="5.93304">
        <ele>560</ele>
        <time>2019-08-09T10:26:44Z</time>
      </trkpt>
      <trkpt lat="44.18253" lon="5.93311">
        <ele>560</ele>
        <time>2019-08-09T10:26:45Z</time>
      </trkpt>
      <trkpt lat="44.18254" lon="5.93318">
        <ele>560</ele>
        <time>2019-08-09T10:26:46Z</time>
      </trkpt>
      <trkpt lat="44.18256" lon="5.93324">
        <ele>560</ele>
        <time>2019-08-09T10:26:47Z</time>
      </trkpt>
      <trkpt lat="44.18258" lon="5.9333">
        <ele>561</ele>
        <time>2019-08-09T10:26:48Z</time>
      </trkpt>
      <trkpt lat="44.1826" lon="5.93337">
        <ele>561</ele>
        <time>2019-08-09T10:26:49Z</time>
      </trkpt>
      <trkpt lat="44.18262" lon="5.93343">
        <ele>561</ele>
        <time>2019-08-09T10:26:50Z</time>
      </trkpt>
      <trkpt lat="44.18263" lon="5.93349">
        <ele>561</ele>
        <time>2019-08-09T10:26:51Z</time>
      </trkpt>
      <trkpt lat="44.18265" lon="5.93355">
        <ele>561</ele>
        <time>2019-08-09T10:26:52Z</time>
      </trkpt>
      <trkpt lat="44.18266" lon="5.93361">
        <ele>561</ele>
        <time>2019-08-09T10:26:53Z</time>
      </trkpt>
      <trkpt lat="44.18268" lon="5.93366">
        <ele>561</ele>
        <time>2019-08-09T10:26:54Z</time>
      </trkpt>
      <trkpt lat="44.18269" lon="5.93372">
        <ele>561</ele>
        <time>2019-08-09T10:26:55Z</time>
      </trkpt>
      <trkpt lat="44.18271" lon="5.93378">
        <ele>562</ele>
        <time>2019-08-09T10:26:56Z</time>
      </trkpt>
      <trkpt lat="44.18273" lon="5.93384">
        <ele>562</ele>
        <time>2019-08-09T10:26:57Z</time>
      </trkpt>
      <trkpt lat="44.18275" lon="5.9339">
        <ele>562</ele>
        <time>2019-08-09T10:26:58Z</time>
      </trkpt>
      <trkpt lat="44.18277" lon="5.93397">
        <ele>562</ele>
        <time>2019-08-09T10:26:59Z</time>
      </trkpt>
      <trkpt lat="44.18279" lon="5.93403">
        <ele>562</ele>
        <time>2019-08-09T10:27:00Z</time>
      </trkpt>
      <trkpt lat="44.18281" lon="5.93409">
        <ele>562</ele>
        <time>2019-08-09T10:27:01Z</time>
      </trkpt>
      <trkpt lat="44.18283" lon="5.93416">
        <ele>562</ele>
        <time>2019-08-09T10:27:02Z</time>
      </trkpt>
      <trkpt lat="44.18285" lon="5.93422">
        <ele>562</ele>
        <time>2019-08-09T10:27:03Z</time>
      </trkpt>
      <trkpt lat="44.18287" lon="5.93428">
        <ele>562</ele>
        <time>2019-08-09T10:27:04Z</time>
      </trkpt>
      <trkpt lat="44.1829" lon="5.93435">
        <ele>562</ele>
        <time>2019-08-09T10:27:05Z</time>
      </trkpt>
      <trkpt lat="44.18292" lon="5.93441">
        <ele>562</ele>
        <time>2019-08-09T10:27:06Z</time>
      </trkpt>
      <trkpt lat="44.18295" lon="5.93448">
        <ele>562</ele>
        <time>2019-08-09T10:27:07Z</time>
      </trkpt>
      <trkpt lat="44.18298" lon="5.93455">
        <ele>562</ele>
        <time>2019-08-09T10:27:08Z</time>
      </trkpt>
      <trkpt lat="44.183" lon="5.93462">
        <ele>562</ele>
        <time>2019-08-09T10:27:09Z</time>
      </trkpt>
      <trkpt lat="44.18303" lon="5.93469">
        <ele>562</ele>
        <time>2019-08-09T10:27:10Z</time>
      </trkpt>
      <trkpt lat="44.18306" lon="5.93476">
        <ele>562</ele>
        <time>2019-08-09T10:27:11Z</time>
      </trkpt>
      <trkpt lat="44.18309" lon="5.93483">
        <ele>562</ele>
        <time>2019-08-09T10:27:12Z</time>
      </trkpt>
      <trkpt lat="44.18312" lon="5.9349">
        <ele>562</ele>
        <time>2019-08-09T10:27:13Z</time>
      </trkpt>
      <trkpt lat="44.18315" lon="5.93497">
        <ele>562</ele>
        <time>2019-08-09T10:27:14Z</time>
      </trkpt>
      <trkpt lat="44.18318" lon="5.93504">
        <ele>562</ele>
        <time>2019-08-09T10:27:15Z</time>
      </trkpt>
      <trkpt lat="44.1832" lon="5.93511">
        <ele>562</ele>
        <time>2019-08-09T10:27:16Z</time>
      </trkpt>
      <trkpt lat="44.18323" lon="5.93517">
        <ele>562</ele>
        <time>2019-08-09T10:27:17Z</time>
      </trkpt>
      <trkpt lat="44.18326" lon="5.93524">
        <ele>562</ele>
        <time>2019-08-09T10:27:18Z</time>
      </trkpt>
      <trkpt lat="44.18329" lon="5.93531">
        <ele>562</ele>
        <time>2019-08-09T10:27:19Z</time>
      </trkpt>
      <trkpt lat="44.18333" lon="5.93539">
        <ele>562</ele>
        <time>2019-08-09T10:27:20Z</time>
      </trkpt>
      <trkpt lat="44.18337" lon="5.93546">
        <ele>562</ele>
        <time>2019-08-09T10:27:21Z</time>
      </trkpt>
      <trkpt lat="44.18341" lon="5.93553">
        <ele>562</ele>
        <time>2019-08-09T10:27:22Z</time>
      </trkpt>
      <trkpt lat="44.18345" lon="5.9356">
        <ele>562</ele>
        <time>2019-08-09T10:27:23Z</time>
      </trkpt>
      <trkpt lat="44.18349" lon="5.93567">
        <ele>562</ele>
        <time>2019-08-09T10:27:24Z</time>
      </trkpt>
      <trkpt lat="44.18354" lon="5.93573">
        <ele>562</ele>
        <time>2019-08-09T10:27:25Z</time>
      </trkpt>
      <trkpt lat="44.18358" lon="5.9358">
        <ele>562</ele>
        <time>2019-08-09T10:27:26Z</time>
      </trkpt>
      <trkpt lat="44.18362" lon="5.93587">
        <ele>562</ele>
        <time>2019-08-09T10:27:27Z</time>
      </trkpt>
      <trkpt lat="44.18367" lon="5.93594">
        <ele>562</ele>
        <time>2019-08-09T10:27:28Z</time>
      </trkpt>
      <trkpt lat="44.18372" lon="5.93601">
        <ele>562</ele>
        <time>2019-08-09T10:27:29Z</time>
      </trkpt>
      <trkpt lat="44.18376" lon="5.93608">
        <ele>562</ele>
        <time>2019-08-09T10:27:30Z</time>
      </trkpt>
      <trkpt lat="44.18381" lon="5.93615">
        <ele>562</ele>
        <time>2019-08-09T10:27:31Z</time>
      </trkpt>
      <trkpt lat="44.18385" lon="5.93622">
        <ele>562</ele>
        <time>2019-08-09T10:27:32Z</time>
      </trkpt>
      <trkpt lat="44.18389" lon="5.93629">
        <ele>562</ele>
        <time>2019-08-09T10:27:33Z</time>
      </trkpt>
      <trkpt lat="44.18394" lon="5.93637">
        <ele>562</ele>
        <time>2019-08-09T10:27:34Z</time>
      </trkpt>
      <trkpt lat="44.18399" lon="5.93644">
        <ele>562</ele>
        <time>2019-08-09T10:27:35Z</time>
      </trkpt>
      <trkpt lat="44.18403" lon="5.93651">
        <ele>562</ele>
        <time>2019-08-09T10:27:36Z</time>
      </trkpt>
      <trkpt lat="44.18408" lon="5.93659">
        <ele>562</ele>
        <time>2019-08-09T10:27:37Z</time>
      </trkpt>
      <trkpt lat="44.18413" lon="5.93667">
        <ele>562</ele>
        <time>2019-08-09T10:27:38Z</time>
      </trkpt>
      <trkpt lat="44.18418" lon="5.93675">
        <ele>562</ele>
        <time>2019-08-09T10:27:39Z</time>
      </trkpt>
      <trkpt lat="44.18422" lon="5.93682">
        <ele>562</ele>
        <time>2019-08-09T10:27:40Z</time>
      </trkpt>
      <trkpt lat="44.18427" lon="5.9369">
        <ele>562</ele>
        <time>2019-08-09T10:27:41Z</time>
      </trkpt>
      <trkpt lat="44.18432" lon="5.93698">
        <ele>562</ele>
        <time>2019-08-09T10:27:42Z</time>
      </trkpt>
      <trkpt lat="44.18436" lon="5.93706">
        <ele>562</ele>
        <time>2019-08-09T10:27:43Z</time>
      </trkpt>
      <trkpt lat="44.18441" lon="5.93714">
        <ele>562</ele>
        <time>2019-08-09T10:27:44Z</time>
      </trkpt>
      <trkpt lat="44.18445" lon="5.93721">
        <ele>561</ele>
        <time>2019-08-09T10:27:45Z</time>
      </trkpt>
      <trkpt lat="44.1845" lon="5.93729">
        <ele>561</ele>
        <time>2019-08-09T10:27:46Z</time>
      </trkpt>
      <trkpt lat="44.18455" lon="5.93737">
        <ele>561</ele>
        <time>2019-08-09T10:27:47Z</time>
      </trkpt>
      <trkpt lat="44.1846" lon="5.93745">
        <ele>561</ele>
        <time>2019-08-09T10:27:48Z</time>
      </trkpt>
      <trkpt lat="44.18464" lon="5.93753">
        <ele>561</ele>
        <time>2019-08-09T10:27:49Z</time>
      </trkpt>
      <trkpt lat="44.18469" lon="5.93761">
        <ele>560</ele>
        <time>2019-08-09T10:27:50Z</time>
      </trkpt>
      <trkpt lat="44.18474" lon="5.93769">
        <ele>560</ele>
        <time>2019-08-09T10:27:51Z</time>
      </trkpt>
      <trkpt lat="44.18479" lon="5.93777">
        <ele>560</ele>
        <time>2019-08-09T10:27:52Z</time>
      </trkpt>
      <trkpt lat="44.18484" lon="5.93784">
        <ele>560</ele>
        <time>2019-08-09T10:27:53Z</time>
      </trkpt>
      <trkpt lat="44.18488" lon="5.93791">
        <ele>560</ele>
        <time>2019-08-09T10:27:54Z</time>
      </trkpt>
      <trkpt lat="44.18493" lon="5.93799">
        <ele>560</ele>
        <time>2019-08-09T10:27:55Z</time>
      </trkpt>
      <trkpt lat="44.18497" lon="5.93806">
        <ele>560</ele>
        <time>2019-08-09T10:27:56Z</time>
      </trkpt>
      <trkpt lat="44.18502" lon="5.93814">
        <ele>559</ele>
        <time>2019-08-09T10:27:57Z</time>
      </trkpt>
      <trkpt lat="44.18507" lon="5.93821">
        <ele>559</ele>
        <time>2019-08-09T10:27:58Z</time>
      </trkpt>
      <trkpt lat="44.18511" lon="5.93829">
        <ele>559</ele>
        <time>2019-08-09T10:27:59Z</time>
      </trkpt>
      <trkpt lat="44.18516" lon="5.93837">
        <ele>559</ele>
        <time>2019-08-09T10:28:00Z</time>
      </trkpt>
      <trkpt lat="44.1852" lon="5.93845">
        <ele>559</ele>
        <time>2019-08-09T10:28:01Z</time>
      </trkpt>
      <trkpt lat="44.18525" lon="5.93852">
        <ele>559</ele>
        <time>2019-08-09T10:28:02Z</time>
      </trkpt>
      <trkpt lat="44.1853" lon="5.93859">
        <ele>559</ele>
        <time>2019-08-09T10:28:03Z</time>
      </trkpt>
      <trkpt lat="44.18536" lon="5.93867">
        <ele>559</ele>
        <time>2019-08-09T10:28:04Z</time>
      </trkpt>
      <trkpt lat="44.18541" lon="5.93874">
        <ele>559</ele>
        <time>2019-08-09T10:28:05Z</time>
      </trkpt>
      <trkpt lat="44.18546" lon="5.93881">
        <ele>559</ele>
        <time>2019-08-09T10:28:06Z</time>
      </trkpt>
      <trkpt lat="44.18551" lon="5.93888">
        <ele>559</ele>
        <time>2019-08-09T10:28:07Z</time>
      </trkpt>
      <trkpt lat="44.18555" lon="5.93896">
        <ele>559</ele>
        <time>2019-08-09T10:28:08Z</time>
      </trkpt>
      <trkpt lat="44.1856" lon="5.93903">
        <ele>559</ele>
        <time>2019-08-09T10:28:09Z</time>
      </trkpt>
      <trkpt lat="44.18565" lon="5.9391">
        <ele>559</ele>
        <time>2019-08-09T10:28:10Z</time>
      </trkpt>
      <trkpt lat="44.1857" lon="5.93917">
        <ele>559</ele>
        <time>2019-08-09T10:28:11Z</time>
      </trkpt>
      <trkpt lat="44.18575" lon="5.93924">
        <ele>559</ele>
        <time>2019-08-09T10:28:12Z</time>
      </trkpt>
      <trkpt lat="44.1858" lon="5.9393">
        <ele>559</ele>
        <time>2019-08-09T10:28:13Z</time>
      </trkpt>
      <trkpt lat="44.18584" lon="5.93937">
        <ele>559</ele>
        <time>2019-08-09T10:28:14Z</time>
      </trkpt>
      <trkpt lat="44.18589" lon="5.93943">
        <ele>559</ele>
        <time>2019-08-09T10:28:15Z</time>
      </trkpt>
      <trkpt lat="44.18594" lon="5.93951">
        <ele>559</ele>
        <time>2019-08-09T10:28:16Z</time>
      </trkpt>
      <trkpt lat="44.18598" lon="5.93958">
        <ele>558</ele>
        <time>2019-08-09T10:28:17Z</time>
      </trkpt>
      <trkpt lat="44.18602" lon="5.93965">
        <ele>558</ele>
        <time>2019-08-09T10:28:18Z</time>
      </trkpt>
      <trkpt lat="44.18605" lon="5.93974">
        <ele>558</ele>
        <time>2019-08-09T10:28:19Z</time>
      </trkpt>
      <trkpt lat="44.18608" lon="5.93982">
        <ele>558</ele>
        <time>2019-08-09T10:28:20Z</time>
      </trkpt>
      <trkpt lat="44.18613" lon="5.93988">
        <ele>557</ele>
        <time>2019-08-09T10:28:21Z</time>
      </trkpt>
      <trkpt lat="44.18618" lon="5.93992">
        <ele>557</ele>
        <time>2019-08-09T10:28:22Z</time>
      </trkpt>
      <trkpt lat="44.18625" lon="5.93992">
        <ele>556</ele>
        <time>2019-08-09T10:28:23Z</time>
      </trkpt>
      <trkpt lat="44.18632" lon="5.93993">
        <ele>556</ele>
        <time>2019-08-09T10:28:24Z</time>
      </trkpt>
      <trkpt lat="44.18638" lon="5.93996">
        <ele>556</ele>
        <time>2019-08-09T10:28:25Z</time>
      </trkpt>
      <trkpt lat="44.18645" lon="5.93999">
        <ele>556</ele>
        <time>2019-08-09T10:28:26Z</time>
      </trkpt>
      <trkpt lat="44.18651" lon="5.94003">
        <ele>556</ele>
        <time>2019-08-09T10:28:27Z</time>
      </trkpt>
      <trkpt lat="44.18656" lon="5.94008">
        <ele>556</ele>
        <time>2019-08-09T10:28:28Z</time>
      </trkpt>
      <trkpt lat="44.18662" lon="5.94014">
        <ele>556</ele>
        <time>2019-08-09T10:28:29Z</time>
      </trkpt>
      <trkpt lat="44.18667" lon="5.94019">
        <ele>556</ele>
        <time>2019-08-09T10:28:30Z</time>
      </trkpt>
      <trkpt lat="44.18673" lon="5.94025">
        <ele>556</ele>
        <time>2019-08-09T10:28:31Z</time>
      </trkpt>
      <trkpt lat="44.18678" lon="5.94031">
        <ele>556</ele>
        <time>2019-08-09T10:28:32Z</time>
      </trkpt>
      <trkpt lat="44.18682" lon="5.94037">
        <ele>556</ele>
        <time>2019-08-09T10:28:33Z</time>
      </trkpt>
      <trkpt lat="44.18687" lon="5.94043">
        <ele>556</ele>
        <time>2019-08-09T10:28:34Z</time>
      </trkpt>
      <trkpt lat="44.18692" lon="5.94048">
        <ele>556</ele>
        <time>2019-08-09T10:28:35Z</time>
      </trkpt>
      <trkpt lat="44.18696" lon="5.94054">
        <ele>556</ele>
        <time>2019-08-09T10:28:36Z</time>
      </trkpt>
      <trkpt lat="44.187" lon="5.94059">
        <ele>556</ele>
        <time>2019-08-09T10:28:37Z</time>
      </trkpt>
      <trkpt lat="44.18705" lon="5.94064">
        <ele>556</ele>
        <time>2019-08-09T10:28:38Z</time>
      </trkpt>
      <trkpt lat="44.1871" lon="5.94069">
        <ele>556</ele>
        <time>2019-08-09T10:28:39Z</time>
      </trkpt>
      <trkpt lat="44.18714" lon="5.94074">
        <ele>556</ele>
        <time>2019-08-09T10:28:40Z</time>
      </trkpt>
      <trkpt lat="44.18719" lon="5.94079">
        <ele>556</ele>
        <time>2019-08-09T10:28:41Z</time>
      </trkpt>
      <trkpt lat="44.18724" lon="5.94083">
        <ele>556</ele>
        <time>2019-08-09T10:28:42Z</time>
      </trkpt>
      <trkpt lat="44.18729" lon="5.94088">
        <ele>556</ele>
        <time>2019-08-09T10:28:43Z</time>
      </trkpt>
      <trkpt lat="44.18733" lon="5.94092">
        <ele>556</ele>
        <time>2019-08-09T10:28:44Z</time>
      </trkpt>
      <trkpt lat="44.18738" lon="5.94097">
        <ele>556</ele>
        <time>2019-08-09T10:28:45Z</time>
      </trkpt>
      <trkpt lat="44.18743" lon="5.94102">
        <ele>556</ele>
        <time>2019-08-09T10:28:46Z</time>
      </trkpt>
      <trkpt lat="44.18747" lon="5.94106">
        <ele>556</ele>
        <time>2019-08-09T10:28:47Z</time>
      </trkpt>
      <trkpt lat="44.18752" lon="5.94111">
        <ele>556</ele>
        <time>2019-08-09T10:28:48Z</time>
      </trkpt>
      <trkpt lat="44.18757" lon="5.94116">
        <ele>556</ele>
        <time>2019-08-09T10:28:49Z</time>
      </trkpt>
      <trkpt lat="44.18762" lon="5.94121">
        <ele>556</ele>
        <time>2019-08-09T10:28:50Z</time>
      </trkpt>
      <trkpt lat="44.18766" lon="5.94125">
        <ele>556</ele>
        <time>2019-08-09T10:28:51Z</time>
      </trkpt>
      <trkpt lat="44.18772" lon="5.94129">
        <ele>556</ele>
        <time>2019-08-09T10:28:52Z</time>
      </trkpt>
      <trkpt lat="44.18777" lon="5.94134">
        <ele>556</ele>
        <time>2019-08-09T10:28:53Z</time>
      </trkpt>
      <trkpt lat="44.18783" lon="5.94138">
        <ele>556</ele>
        <time>2019-08-09T10:28:54Z</time>
      </trkpt>
      <trkpt lat="44.18788" lon="5.94143">
        <ele>556</ele>
        <time>2019-08-09T10:28:55Z</time>
      </trkpt>
      <trkpt lat="44.18793" lon="5.94147">
        <ele>556</ele>
        <time>2019-08-09T10:28:56Z</time>
      </trkpt>
      <trkpt lat="44.18798" lon="5.94151">
        <ele>556</ele>
        <time>2019-08-09T10:28:57Z</time>
      </trkpt>
      <trkpt lat="44.18803" lon="5.94155">
        <ele>556</ele>
        <time>2019-08-09T10:28:58Z</time>
      </trkpt>
      <trkpt lat="44.18808" lon="5.94158">
        <ele>556</ele>
        <time>2019-08-09T10:28:59Z</time>
      </trkpt>
      <trkpt lat="44.18813" lon="5.94162">
        <ele>556</ele>
        <time>2019-08-09T10:29:00Z</time>
      </trkpt>
      <trkpt lat="44.18819" lon="5.94165">
        <ele>556</ele>
        <time>2019-08-09T10:29:01Z</time>
      </trkpt>
      <trkpt lat="44.18824" lon="5.94168">
        <ele>556</ele>
        <time>2019-08-09T10:29:02Z</time>
      </trkpt>
      <trkpt lat="44.1883" lon="5.94171">
        <ele>556</ele>
        <time>2019-08-09T10:29:03Z</time>
      </trkpt>
      <trkpt lat="44.18835" lon="5.94174">
        <ele>556</ele>
        <time>2019-08-09T10:29:04Z</time>
      </trkpt>
      <trkpt lat="44.18841" lon="5.94177">
        <ele>556</ele>
        <time>2019-08-09T10:29:05Z</time>
      </trkpt>
      <trkpt lat="44.18847" lon="5.94181">
        <ele>555</ele>
        <time>2019-08-09T10:29:06Z</time>
      </trkpt>
      <trkpt lat="44.18853" lon="5.94183">
        <ele>555</ele>
        <time>2019-08-09T10:29:07Z</time>
      </trkpt>
      <trkpt lat="44.1886" lon="5.94185">
        <ele>554</ele>
        <time>2019-08-09T10:29:08Z</time>
      </trkpt>
      <trkpt lat="44.18866" lon="5.94186">
        <ele>554</ele>
        <time>2019-08-09T10:29:09Z</time>
      </trkpt>
      <trkpt lat="44.18873" lon="5.94186">
        <ele>553</ele>
        <time>2019-08-09T10:29:10Z</time>
      </trkpt>
      <trkpt lat="44.1888" lon="5.94187">
        <ele>553</ele>
        <time>2019-08-09T10:29:11Z</time>
      </trkpt>
      <trkpt lat="44.18887" lon="5.94186">
        <ele>553</ele>
        <time>2019-08-09T10:29:12Z</time>
      </trkpt>
      <trkpt lat="44.18894" lon="5.94186">
        <ele>553</ele>
        <time>2019-08-09T10:29:13Z</time>
      </trkpt>
      <trkpt lat="44.18901" lon="5.94186">
        <ele>552</ele>
        <time>2019-08-09T10:29:14Z</time>
      </trkpt>
      <trkpt lat="44.18909" lon="5.94187">
        <ele>552</ele>
        <time>2019-08-09T10:29:15Z</time>
      </trkpt>
      <trkpt lat="44.18917" lon="5.94191">
        <ele>552</ele>
        <time>2019-08-09T10:29:16Z</time>
      </trkpt>
      <trkpt lat="44.18925" lon="5.94197">
        <ele>551</ele>
        <time>2019-08-09T10:29:17Z</time>
      </trkpt>
      <trkpt lat="44.18931" lon="5.94206">
        <ele>551</ele>
        <time>2019-08-09T10:29:18Z</time>
      </trkpt>
      <trkpt lat="44.18936" lon="5.94216">
        <ele>550</ele>
        <time>2019-08-09T10:29:19Z</time>
      </trkpt>
      <trkpt lat="44.18941" lon="5.94227">
        <ele>550</ele>
        <time>2019-08-09T10:29:20Z</time>
      </trkpt>
      <trkpt lat="44.18947" lon="5.94238">
        <ele>549</ele>
        <time>2019-08-09T10:29:21Z</time>
      </trkpt>
      <trkpt lat="44.18955" lon="5.94248">
        <ele>548</ele>
        <time>2019-08-09T10:29:22Z</time>
      </trkpt>
      <trkpt lat="44.18963" lon="5.94257">
        <ele>547</ele>
        <time>2019-08-09T10:29:23Z</time>
      </trkpt>
      <trkpt lat="44.18972" lon="5.94265">
        <ele>546</ele>
        <time>2019-08-09T10:29:24Z</time>
      </trkpt>
      <trkpt lat="44.18981" lon="5.94274">
        <ele>545</ele>
        <time>2019-08-09T10:29:25Z</time>
      </trkpt>
      <trkpt lat="44.18989" lon="5.94284">
        <ele>544</ele>
        <time>2019-08-09T10:29:26Z</time>
      </trkpt>
      <trkpt lat="44.18996" lon="5.94296">
        <ele>543</ele>
        <time>2019-08-09T10:29:27Z</time>
      </trkpt>
      <trkpt lat="44.19002" lon="5.94308">
        <ele>542</ele>
        <time>2019-08-09T10:29:28Z</time>
      </trkpt>
      <trkpt lat="44.19007" lon="5.94321">
        <ele>541</ele>
        <time>2019-08-09T10:29:29Z</time>
      </trkpt>
      <trkpt lat="44.19014" lon="5.94334">
        <ele>540</ele>
        <time>2019-08-09T10:29:30Z</time>
      </trkpt>
      <trkpt lat="44.19022" lon="5.94343">
        <ele>539</ele>
        <time>2019-08-09T10:29:31Z</time>
      </trkpt>
      <trkpt lat="44.1903" lon="5.94351">
        <ele>538</ele>
        <time>2019-08-09T10:29:32Z</time>
      </trkpt>
      <trkpt lat="44.19039" lon="5.94355">
        <ele>537</ele>
        <time>2019-08-09T10:29:33Z</time>
      </trkpt>
      <trkpt lat="44.1905" lon="5.94355">
        <ele>536</ele>
        <time>2019-08-09T10:29:34Z</time>
      </trkpt>
      <trkpt lat="44.19061" lon="5.94352">
        <ele>535</ele>
        <time>2019-08-09T10:29:35Z</time>
      </trkpt>
      <trkpt lat="44.19072" lon="5.94349">
        <ele>534</ele>
        <time>2019-08-09T10:29:36Z</time>
      </trkpt>
      <trkpt lat="44.19083" lon="5.94346">
        <ele>533</ele>
        <time>2019-08-09T10:29:37Z</time>
      </trkpt>
      <trkpt lat="44.19095" lon="5.94345">
        <ele>532</ele>
        <time>2019-08-09T10:29:38Z</time>
      </trkpt>
      <trkpt lat="44.19107" lon="5.94346">
        <ele>531</ele>
        <time>2019-08-09T10:29:39Z</time>
      </trkpt>
      <trkpt lat="44.19119" lon="5.9435">
        <ele>530</ele>
        <time>2019-08-09T10:29:40Z</time>
      </trkpt>
      <trkpt lat="44.19131" lon="5.94352">
        <ele>529</ele>
        <time>2019-08-09T10:29:41Z</time>
      </trkpt>
      <trkpt lat="44.19143" lon="5.94353">
        <ele>528</ele>
        <time>2019-08-09T10:29:42Z</time>
      </trkpt>
      <trkpt lat="44.19154" lon="5.94352">
        <ele>528</ele>
        <time>2019-08-09T10:29:43Z</time>
      </trkpt>
      <trkpt lat="44.19164" lon="5.94347">
        <ele>528</ele>
        <time>2019-08-09T10:29:44Z</time>
      </trkpt>
      <trkpt lat="44.19172" lon="5.94337">
        <ele>527</ele>
        <time>2019-08-09T10:29:45Z</time>
      </trkpt>
      <trkpt lat="44.19179" lon="5.94326">
        <ele>527</ele>
        <time>2019-08-09T10:29:46Z</time>
      </trkpt>
      <trkpt lat="44.19186" lon="5.94314">
        <ele>527</ele>
        <time>2019-08-09T10:29:47Z</time>
      </trkpt>
      <trkpt lat="44.19193" lon="5.94302">
        <ele>527</ele>
        <time>2019-08-09T10:29:48Z</time>
      </trkpt>
      <trkpt lat="44.19199" lon="5.94291">
        <ele>527</ele>
        <time>2019-08-09T10:29:49Z</time>
      </trkpt>
      <trkpt lat="44.19207" lon="5.94282">
        <ele>526</ele>
        <time>2019-08-09T10:29:50Z</time>
      </trkpt>
      <trkpt lat="44.19216" lon="5.94275">
        <ele>525</ele>
        <time>2019-08-09T10:29:51Z</time>
      </trkpt>
      <trkpt lat="44.19225" lon="5.94269">
        <ele>524</ele>
        <time>2019-08-09T10:29:52Z</time>
      </trkpt>
      <trkpt lat="44.19233" lon="5.94262">
        <ele>524</ele>
        <time>2019-08-09T10:29:53Z</time>
      </trkpt>
      <trkpt lat="44.19243" lon="5.94256">
        <ele>524</ele>
        <time>2019-08-09T10:29:54Z</time>
      </trkpt>
      <trkpt lat="44.19252" lon="5.94251">
        <ele>523</ele>
        <time>2019-08-09T10:29:55Z</time>
      </trkpt>
      <trkpt lat="44.19262" lon="5.94246">
        <ele>523</ele>
        <time>2019-08-09T10:29:56Z</time>
      </trkpt>
      <trkpt lat="44.1927" lon="5.94241">
        <ele>522</ele>
        <time>2019-08-09T10:29:57Z</time>
      </trkpt>
      <trkpt lat="44.1928" lon="5.94236">
        <ele>522</ele>
        <time>2019-08-09T10:29:58Z</time>
      </trkpt>
      <trkpt lat="44.19289" lon="5.94231">
        <ele>521</ele>
        <time>2019-08-09T10:29:59Z</time>
      </trkpt>
      <trkpt lat="44.19298" lon="5.94227">
        <ele>520</ele>
        <time>2019-08-09T10:30:00Z</time>
      </trkpt>
      <trkpt lat="44.19307" lon="5.94223">
        <ele>520</ele>
        <time>2019-08-09T10:30:01Z</time>
      </trkpt>
      <trkpt lat="44.19315" lon="5.94219">
        <ele>519</ele>
        <time>2019-08-09T10:30:02Z</time>
      </trkpt>
      <trkpt lat="44.19325" lon="5.94214">
        <ele>519</ele>
        <time>2019-08-09T10:30:03Z</time>
      </trkpt>
      <trkpt lat="44.19334" lon="5.9421">
        <ele>518</ele>
        <time>2019-08-09T10:30:04Z</time>
      </trkpt>
      <trkpt lat="44.19344" lon="5.94206">
        <ele>518</ele>
        <time>2019-08-09T10:30:05Z</time>
      </trkpt>
      <trkpt lat="44.19353" lon="5.94202">
        <ele>517</ele>
        <time>2019-08-09T10:30:06Z</time>
      </trkpt>
      <trkpt lat="44.19362" lon="5.94199">
        <ele>517</ele>
        <time>2019-08-09T10:30:07Z</time>
      </trkpt>
      <trkpt lat="44.19371" lon="5.94196">
        <ele>517</ele>
        <time>2019-08-09T10:30:08Z</time>
      </trkpt>
      <trkpt lat="44.1938" lon="5.94193">
        <ele>517</ele>
        <time>2019-08-09T10:30:09Z</time>
      </trkpt>
      <trkpt lat="44.19389" lon="5.94188">
        <ele>517</ele>
        <time>2019-08-09T10:30:10Z</time>
      </trkpt>
      <trkpt lat="44.19398" lon="5.94184">
        <ele>517</ele>
        <time>2019-08-09T10:30:11Z</time>
      </trkpt>
      <trkpt lat="44.19407" lon="5.9418">
        <ele>517</ele>
        <time>2019-08-09T10:30:12Z</time>
      </trkpt>
      <trkpt lat="44.19416" lon="5.94176">
        <ele>517</ele>
        <time>2019-08-09T10:30:13Z</time>
      </trkpt>
      <trkpt lat="44.19424" lon="5.94172">
        <ele>517</ele>
        <time>2019-08-09T10:30:14Z</time>
      </trkpt>
      <trkpt lat="44.19433" lon="5.94169">
        <ele>517</ele>
        <time>2019-08-09T10:30:15Z</time>
      </trkpt>
      <trkpt lat="44.19441" lon="5.94166">
        <ele>517</ele>
        <time>2019-08-09T10:30:16Z</time>
      </trkpt>
      <trkpt lat="44.1945" lon="5.94163">
        <ele>517</ele>
        <time>2019-08-09T10:30:17Z</time>
      </trkpt>
      <trkpt lat="44.19459" lon="5.94162">
        <ele>517</ele>
        <time>2019-08-09T10:30:18Z</time>
      </trkpt>
      <trkpt lat="44.19468" lon="5.94161">
        <ele>517</ele>
        <time>2019-08-09T10:30:19Z</time>
      </trkpt>
      <trkpt lat="44.19477" lon="5.94161">
        <ele>517</ele>
        <time>2019-08-09T10:30:20Z</time>
      </trkpt>
      <trkpt lat="44.19485" lon="5.94162">
        <ele>517</ele>
        <time>2019-08-09T10:30:21Z</time>
      </trkpt>
      <trkpt lat="44.19494" lon="5.94164">
        <ele>516</ele>
        <time>2019-08-09T10:30:22Z</time>
      </trkpt>
      <trkpt lat="44.19501" lon="5.94165">
        <ele>515</ele>
        <time>2019-08-09T10:30:23Z</time>
      </trkpt>
      <trkpt lat="44.19509" lon="5.94167">
        <ele>514</ele>
        <time>2019-08-09T10:30:24Z</time>
      </trkpt>
      <trkpt lat="44.19516" lon="5.94169">
        <ele>513</ele>
        <time>2019-08-09T10:30:25Z</time>
      </trkpt>
      <trkpt lat="44.19522" lon="5.94172">
        <ele>512</ele>
        <time>2019-08-09T10:30:26Z</time>
      </trkpt>
      <trkpt lat="44.19529" lon="5.94174">
        <ele>511</ele>
        <time>2019-08-09T10:30:27Z</time>
      </trkpt>
      <trkpt lat="44.19536" lon="5.94176">
        <ele>510</ele>
        <time>2019-08-09T10:30:28Z</time>
      </trkpt>
      <trkpt lat="44.19543" lon="5.94178">
        <ele>509</ele>
        <time>2019-08-09T10:30:29Z</time>
      </trkpt>
      <trkpt lat="44.1955" lon="5.94179">
        <ele>509</ele>
        <time>2019-08-09T10:30:30Z</time>
      </trkpt>
      <trkpt lat="44.19556" lon="5.94177">
        <ele>508</ele>
        <time>2019-08-09T10:30:31Z</time>
      </trkpt>
      <trkpt lat="44.19562" lon="5.94173">
        <ele>507</ele>
        <time>2019-08-09T10:30:32Z</time>
      </trkpt>
      <trkpt lat="44.19566" lon="5.94168">
        <ele>506</ele>
        <time>2019-08-09T10:30:33Z</time>
      </trkpt>
      <trkpt lat="44.19571" lon="5.94163">
        <ele>506</ele>
        <time>2019-08-09T10:30:34Z</time>
      </trkpt>
      <trkpt lat="44.19574" lon="5.94156">
        <ele>505</ele>
        <time>2019-08-09T10:30:35Z</time>
      </trkpt>
      <trkpt lat="44.19577" lon="5.94149">
        <ele>505</ele>
        <time>2019-08-09T10:30:36Z</time>
      </trkpt>
      <trkpt lat="44.19581" lon="5.94142">
        <ele>505</ele>
        <time>2019-08-09T10:30:37Z</time>
      </trkpt>
      <trkpt lat="44.19583" lon="5.94136">
        <ele>505</ele>
        <time>2019-08-09T10:30:38Z</time>
      </trkpt>
      <trkpt lat="44.19586" lon="5.9413">
        <ele>505</ele>
        <time>2019-08-09T10:30:39Z</time>
      </trkpt>
      <trkpt lat="44.19588" lon="5.94124">
        <ele>505</ele>
        <time>2019-08-09T10:30:40Z</time>
      </trkpt>
      <trkpt lat="44.19591" lon="5.94119">
        <ele>505</ele>
        <time>2019-08-09T10:30:41Z</time>
      </trkpt>
      <trkpt lat="44.19594" lon="5.94114">
        <ele>505</ele>
        <time>2019-08-09T10:30:42Z</time>
      </trkpt>
      <trkpt lat="44.19596" lon="5.94109">
        <ele>505</ele>
        <time>2019-08-09T10:30:43Z</time>
      </trkpt>
      <trkpt lat="44.19599" lon="5.94104">
        <ele>505</ele>
        <time>2019-08-09T10:30:44Z</time>
      </trkpt>
      <trkpt lat="44.19601" lon="5.941">
        <ele>505</ele>
        <time>2019-08-09T10:30:45Z</time>
      </trkpt>
      <trkpt lat="44.19604" lon="5.94095">
        <ele>505</ele>
        <time>2019-08-09T10:30:46Z</time>
      </trkpt>
      <trkpt lat="44.19606" lon="5.94091">
        <ele>505</ele>
        <time>2019-08-09T10:30:47Z</time>
      </trkpt>
      <trkpt lat="44.19609" lon="5.94087">
        <ele>505</ele>
        <time>2019-08-09T10:30:48Z</time>
      </trkpt>
      <trkpt lat="44.19611" lon="5.94082">
        <ele>505</ele>
        <time>2019-08-09T10:30:49Z</time>
      </trkpt>
      <trkpt lat="44.19614" lon="5.94078">
        <ele>505</ele>
        <time>2019-08-09T10:30:50Z</time>
      </trkpt>
      <trkpt lat="44.19616" lon="5.94074">
        <ele>505</ele>
        <time>2019-08-09T10:30:51Z</time>
      </trkpt>
      <trkpt lat="44.19618" lon="5.9407">
        <ele>505</ele>
        <time>2019-08-09T10:30:52Z</time>
      </trkpt>
      <trkpt lat="44.19621" lon="5.94066">
        <ele>505</ele>
        <time>2019-08-09T10:30:53Z</time>
      </trkpt>
      <trkpt lat="44.19622" lon="5.94062">
        <ele>505</ele>
        <time>2019-08-09T10:30:54Z</time>
      </trkpt>
      <trkpt lat="44.19624" lon="5.94058">
        <ele>505</ele>
        <time>2019-08-09T10:30:55Z</time>
      </trkpt>
      <trkpt lat="44.19624" lon="5.94054">
        <ele>505</ele>
        <time>2019-08-09T10:30:56Z</time>
      </trkpt>
      <trkpt lat="44.19624" lon="5.9405">
        <ele>505</ele>
        <time>2019-08-09T10:30:57Z</time>
      </trkpt>
      <trkpt lat="44.19623" lon="5.94046">
        <ele>505</ele>
        <time>2019-08-09T10:30:58Z</time>
      </trkpt>
      <trkpt lat="44.19622" lon="5.94042">
        <ele>505</ele>
        <time>2019-08-09T10:30:59Z</time>
      </trkpt>
      <trkpt lat="44.19621" lon="5.94039">
        <ele>505</ele>
        <time>2019-08-09T10:31:00Z</time>
      </trkpt>
      <trkpt lat="44.19619" lon="5.94036">
        <ele>505</ele>
        <time>2019-08-09T10:31:01Z</time>
      </trkpt>
      <trkpt lat="44.19618" lon="5.94034">
        <ele>505</ele>
        <time>2019-08-09T10:31:02Z</time>
      </trkpt>
      <trkpt lat="44.19616" lon="5.94032">
        <ele>505</ele>
        <time>2019-08-09T10:31:03Z</time>
      </trkpt>
      <trkpt lat="44.19615" lon="5.94029">
        <ele>505</ele>
        <time>2019-08-09T10:31:04Z</time>
      </trkpt>
      <trkpt lat="44.19614" lon="5.94027">
        <ele>506</ele>
        <time>2019-08-09T10:31:05Z</time>
      </trkpt>
      <trkpt lat="44.19613" lon="5.94024">
        <ele>506</ele>
        <time>2019-08-09T10:31:06Z</time>
      </trkpt>
      <trkpt lat="44.19612" lon="5.9402">
        <ele>507</ele>
        <time>2019-08-09T10:31:07Z</time>
      </trkpt>
      <trkpt lat="44.19611" lon="5.94017">
        <ele>508</ele>
        <time>2019-08-09T10:31:08Z</time>
      </trkpt>
      <trkpt lat="44.1961" lon="5.94014">
        <ele>509</ele>
        <time>2019-08-09T10:31:09Z</time>
      </trkpt>
      <trkpt lat="44.19608" lon="5.94011">
        <ele>510</ele>
        <time>2019-08-09T10:31:10Z</time>
      </trkpt>
      <trkpt lat="44.19607" lon="5.94008">
        <ele>510</ele>
        <time>2019-08-09T10:31:11Z</time>
      </trkpt>
      <trkpt lat="44.19606" lon="5.94004">
        <ele>510</ele>
        <time>2019-08-09T10:31:12Z</time>
      </trkpt>
      <trkpt lat="44.19605" lon="5.94001">
        <ele>510</ele>
        <time>2019-08-09T10:31:13Z</time>
      </trkpt>
      <trkpt lat="44.19604" lon="5.93997">
        <ele>510</ele>
        <time>2019-08-09T10:31:14Z</time>
      </trkpt>
      <trkpt lat="44.19603" lon="5.93994">
        <ele>511</ele>
        <time>2019-08-09T10:31:15Z</time>
      </trkpt>
      <trkpt lat="44.19603" lon="5.9399">
        <ele>512</ele>
        <time>2019-08-09T10:31:16Z</time>
      </trkpt>
      <trkpt lat="44.19601" lon="5.93987">
        <ele>512</ele>
        <time>2019-08-09T10:31:17Z</time>
      </trkpt>
      <trkpt lat="44.19601" lon="5.93984">
        <ele>513</ele>
        <time>2019-08-09T10:31:18Z</time>
      </trkpt>
      <trkpt lat="44.196" lon="5.93982">
        <ele>513</ele>
        <time>2019-08-09T10:31:19Z</time>
      </trkpt>
      <trkpt lat="44.196" lon="5.93978">
        <ele>513</ele>
        <time>2019-08-09T10:31:20Z</time>
      </trkpt>
      <trkpt lat="44.19599" lon="5.93975">
        <ele>513</ele>
        <time>2019-08-09T10:31:21Z</time>
      </trkpt>
      <trkpt lat="44.19599" lon="5.93971">
        <ele>513</ele>
        <time>2019-08-09T10:31:22Z</time>
      </trkpt>
      <trkpt lat="44.19599" lon="5.93968">
        <ele>513</ele>
        <time>2019-08-09T10:31:23Z</time>
      </trkpt>
      <trkpt lat="44.196" lon="5.93965">
        <ele>513</ele>
        <time>2019-08-09T10:31:24Z</time>
      </trkpt>
      <trkpt lat="44.19601" lon="5.93962">
        <ele>513</ele>
        <time>2019-08-09T10:31:25Z</time>
      </trkpt>
      <trkpt lat="44.19601" lon="5.93959">
        <ele>513</ele>
        <time>2019-08-09T10:31:26Z</time>
      </trkpt>
      <trkpt lat="44.19602" lon="5.93956">
        <ele>513</ele>
        <time>2019-08-09T10:31:27Z</time>
      </trkpt>
      <trkpt lat="44.19602" lon="5.93953">
        <ele>513</ele>
        <time>2019-08-09T10:31:28Z</time>
      </trkpt>
      <trkpt lat="44.19603" lon="5.9395">
        <ele>513</ele>
        <time>2019-08-09T10:31:29Z</time>
      </trkpt>
      <trkpt lat="44.19603" lon="5.93948">
        <ele>513</ele>
        <time>2019-08-09T10:31:30Z</time>
      </trkpt>
      <trkpt lat="44.19604" lon="5.93945">
        <ele>513</ele>
        <time>2019-08-09T10:31:31Z</time>
      </trkpt>
      <trkpt lat="44.19604" lon="5.93942">
        <ele>513</ele>
        <time>2019-08-09T10:31:32Z</time>
      </trkpt>
      <trkpt lat="44.19605" lon="5.93939">
        <ele>513</ele>
        <time>2019-08-09T10:31:33Z</time>
      </trkpt>
      <trkpt lat="44.19606" lon="5.93936">
        <ele>513</ele>
        <time>2019-08-09T10:31:34Z</time>
      </trkpt>
      <trkpt lat="44.19607" lon="5.93934">
        <ele>513</ele>
        <time>2019-08-09T10:31:35Z</time>
      </trkpt>
      <trkpt lat="44.19608" lon="5.9393">
        <ele>513</ele>
        <time>2019-08-09T10:31:36Z</time>
      </trkpt>
      <trkpt lat="44.19609" lon="5.93927">
        <ele>513</ele>
        <time>2019-08-09T10:31:37Z</time>
      </trkpt>
      <trkpt lat="44.1961" lon="5.93924">
        <ele>514</ele>
        <time>2019-08-09T10:31:38Z</time>
      </trkpt>
      <trkpt lat="44.19611" lon="5.93921">
        <ele>514</ele>
        <time>2019-08-09T10:31:39Z</time>
      </trkpt>
      <trkpt lat="44.19611" lon="5.93918">
        <ele>515</ele>
        <time>2019-08-09T10:31:40Z</time>
      </trkpt>
      <trkpt lat="44.19611" lon="5.93914">
        <ele>515</ele>
        <time>2019-08-09T10:31:41Z</time>
      </trkpt>
      <trkpt lat="44.19612" lon="5.93911">
        <ele>516</ele>
        <time>2019-08-09T10:31:42Z</time>
      </trkpt>
      <trkpt lat="44.19613" lon="5.93908">
        <ele>516</ele>
        <time>2019-08-09T10:31:43Z</time>
      </trkpt>
      <trkpt lat="44.19614" lon="5.93904">
        <ele>516</ele>
        <time>2019-08-09T10:31:44Z</time>
      </trkpt>
      <trkpt lat="44.19615" lon="5.93901">
        <ele>516</ele>
        <time>2019-08-09T10:31:45Z</time>
      </trkpt>
      <trkpt lat="44.19616" lon="5.93899">
        <ele>516</ele>
        <time>2019-08-09T10:31:46Z</time>
      </trkpt>
      <trkpt lat="44.19617" lon="5.93896">
        <ele>517</ele>
        <time>2019-08-09T10:31:47Z</time>
      </trkpt>
      <trkpt lat="44.19617" lon="5.93893">
        <ele>518</ele>
        <time>2019-08-09T10:31:48Z</time>
      </trkpt>
      <trkpt lat="44.19618" lon="5.9389">
        <ele>518</ele>
        <time>2019-08-09T10:31:49Z</time>
      </trkpt>
      <trkpt lat="44.19618" lon="5.93888">
        <ele>519</ele>
        <time>2019-08-09T10:31:50Z</time>
      </trkpt>
      <trkpt lat="44.19619" lon="5.93886">
        <ele>519</ele>
        <time>2019-08-09T10:31:51Z</time>
      </trkpt>
      <trkpt lat="44.1962" lon="5.93884">
        <ele>519</ele>
        <time>2019-08-09T10:31:52Z</time>
      </trkpt>
      <trkpt lat="44.19621" lon="5.93882">
        <ele>519</ele>
        <time>2019-08-09T10:31:53Z</time>
      </trkpt>
      <trkpt lat="44.19621" lon="5.9388">
        <ele>519</ele>
        <time>2019-08-09T10:31:54Z</time>
      </trkpt>
      <trkpt lat="44.19622" lon="5.93877">
        <ele>519</ele>
        <time>2019-08-09T10:31:55Z</time>
      </trkpt>
      <trkpt lat="44.19622" lon="5.93875">
        <ele>519</ele>
        <time>2019-08-09T10:31:56Z</time>
      </trkpt>
      <trkpt lat="44.19623" lon="5.93872">
        <ele>519</ele>
        <time>2019-08-09T10:31:57Z</time>
      </trkpt>
      <trkpt lat="44.19623" lon="5.9387">
        <ele>519</ele>
        <time>2019-08-09T10:31:58Z</time>
      </trkpt>
      <trkpt lat="44.19624" lon="5.93868">
        <ele>519</ele>
        <time>2019-08-09T10:31:59Z</time>
      </trkpt>
      <trkpt lat="44.19625" lon="5.93866">
        <ele>519</ele>
        <time>2019-08-09T10:32:00Z</time>
      </trkpt>
      <trkpt lat="44.19626" lon="5.93864">
        <ele>519</ele>
        <time>2019-08-09T10:32:01Z</time>
      </trkpt>
      <trkpt lat="44.19626" lon="5.93862">
        <ele>519</ele>
        <time>2019-08-09T10:32:02Z</time>
      </trkpt>
      <trkpt lat="44.19627" lon="5.9386">
        <ele>519</ele>
        <time>2019-08-09T10:32:03Z</time>
      </trkpt>
      <trkpt lat="44.19628" lon="5.93858">
        <ele>519</ele>
        <time>2019-08-09T10:32:04Z</time>
      </trkpt>
      <trkpt lat="44.19629" lon="5.93856">
        <ele>519</ele>
        <time>2019-08-09T10:32:05Z</time>
      </trkpt>
      <trkpt lat="44.1963" lon="5.93854">
        <ele>519</ele>
        <time>2019-08-09T10:32:06Z</time>
      </trkpt>
      <trkpt lat="44.1963" lon="5.93852">
        <ele>519</ele>
        <time>2019-08-09T10:32:07Z</time>
      </trkpt>
      <trkpt lat="44.19631" lon="5.9385">
        <ele>519</ele>
        <time>2019-08-09T10:32:08Z</time>
      </trkpt>
      <trkpt lat="44.19631" lon="5.93847">
        <ele>520</ele>
        <time>2019-08-09T10:32:09Z</time>
      </trkpt>
      <trkpt lat="44.19632" lon="5.93845">
        <ele>520</ele>
        <time>2019-08-09T10:32:10Z</time>
      </trkpt>
      <trkpt lat="44.19633" lon="5.93843">
        <ele>520</ele>
        <time>2019-08-09T10:32:11Z</time>
      </trkpt>
      <trkpt lat="44.19634" lon="5.9384">
        <ele>520</ele>
        <time>2019-08-09T10:32:12Z</time>
      </trkpt>
      <trkpt lat="44.19634" lon="5.93838">
        <ele>520</ele>
        <time>2019-08-09T10:32:13Z</time>
      </trkpt>
      <trkpt lat="44.19635" lon="5.93835">
        <ele>520</ele>
        <time>2019-08-09T10:32:14Z</time>
      </trkpt>
      <trkpt lat="44.19635" lon="5.93832">
        <ele>520</ele>
        <time>2019-08-09T10:32:15Z</time>
      </trkpt>
      <trkpt lat="44.19636" lon="5.93829">
        <ele>520</ele>
        <time>2019-08-09T10:32:16Z</time>
      </trkpt>
      <trkpt lat="44.19637" lon="5.93827">
        <ele>520</ele>
        <time>2019-08-09T10:32:17Z</time>
      </trkpt>
      <trkpt lat="44.19637" lon="5.93824">
        <ele>520</ele>
        <time>2019-08-09T10:32:18Z</time>
      </trkpt>
      <trkpt lat="44.19638" lon="5.93822">
        <ele>520</ele>
        <time>2019-08-09T10:32:19Z</time>
      </trkpt>
      <trkpt lat="44.19639" lon="5.9382">
        <ele>520</ele>
        <time>2019-08-09T10:32:20Z</time>
      </trkpt>
      <trkpt lat="44.19639" lon="5.93817">
        <ele>520</ele>
        <time>2019-08-09T10:32:21Z</time>
      </trkpt>
      <trkpt lat="44.1964" lon="5.93815">
        <ele>520</ele>
        <time>2019-08-09T10:32:22Z</time>
      </trkpt>
      <trkpt lat="44.1964" lon="5.93812">
        <ele>520</ele>
        <time>2019-08-09T10:32:23Z</time>
      </trkpt>
      <trkpt lat="44.19641" lon="5.9381">
        <ele>520</ele>
        <time>2019-08-09T10:32:24Z</time>
      </trkpt>
      <trkpt lat="44.19642" lon="5.93807">
        <ele>520</ele>
        <time>2019-08-09T10:32:25Z</time>
      </trkpt>
      <trkpt lat="44.19643" lon="5.93804">
        <ele>520</ele>
        <time>2019-08-09T10:32:26Z</time>
      </trkpt>
      <trkpt lat="44.19644" lon="5.93802">
        <ele>520</ele>
        <time>2019-08-09T10:32:27Z</time>
      </trkpt>
      <trkpt lat="44.19645" lon="5.93799">
        <ele>520</ele>
        <time>2019-08-09T10:32:28Z</time>
      </trkpt>
      <trkpt lat="44.19646" lon="5.93796">
        <ele>520</ele>
        <time>2019-08-09T10:32:29Z</time>
      </trkpt>
      <trkpt lat="44.19647" lon="5.93794">
        <ele>520</ele>
        <time>2019-08-09T10:32:30Z</time>
      </trkpt>
      <trkpt lat="44.19648" lon="5.93791">
        <ele>520</ele>
        <time>2019-08-09T10:32:31Z</time>
      </trkpt>
      <trkpt lat="44.19649" lon="5.93788">
        <ele>520</ele>
        <time>2019-08-09T10:32:32Z</time>
      </trkpt>
      <trkpt lat="44.1965" lon="5.93785">
        <ele>520</ele>
        <time>2019-08-09T10:32:33Z</time>
      </trkpt>
      <trkpt lat="44.19651" lon="5.93783">
        <ele>520</ele>
        <time>2019-08-09T10:32:34Z</time>
      </trkpt>
      <trkpt lat="44.19652" lon="5.9378">
        <ele>520</ele>
        <time>2019-08-09T10:32:35Z</time>
      </trkpt>
      <trkpt lat="44.19653" lon="5.93776">
        <ele>520</ele>
        <time>2019-08-09T10:32:36Z</time>
      </trkpt>
      <trkpt lat="44.19655" lon="5.93772">
        <ele>520</ele>
        <time>2019-08-09T10:32:37Z</time>
      </trkpt>
      <trkpt lat="44.19656" lon="5.93767">
        <ele>520</ele>
        <time>2019-08-09T10:32:38Z</time>
      </trkpt>
      <trkpt lat="44.19657" lon="5.93763">
        <ele>520</ele>
        <time>2019-08-09T10:32:39Z</time>
      </trkpt>
      <trkpt lat="44.19659" lon="5.93758">
        <ele>520</ele>
        <time>2019-08-09T10:32:40Z</time>
      </trkpt>
      <trkpt lat="44.1966" lon="5.93755">
        <ele>520</ele>
        <time>2019-08-09T10:32:41Z</time>
      </trkpt>
      <trkpt lat="44.19661" lon="5.93751">
        <ele>520</ele>
        <time>2019-08-09T10:32:42Z</time>
      </trkpt>
      <trkpt lat="44.19661" lon="5.93747">
        <ele>520</ele>
        <time>2019-08-09T10:32:43Z</time>
      </trkpt>
      <trkpt lat="44.19663" lon="5.93742">
        <ele>520</ele>
        <time>2019-08-09T10:32:44Z</time>
      </trkpt>
      <trkpt lat="44.19663" lon="5.93737">
        <ele>521</ele>
        <time>2019-08-09T10:32:45Z</time>
      </trkpt>
      <trkpt lat="44.19664" lon="5.93731">
        <ele>521</ele>
        <time>2019-08-09T10:32:46Z</time>
      </trkpt>
      <trkpt lat="44.19665" lon="5.93725">
        <ele>522</ele>
        <time>2019-08-09T10:32:47Z</time>
      </trkpt>
      <trkpt lat="44.19665" lon="5.93719">
        <ele>522</ele>
        <time>2019-08-09T10:32:48Z</time>
      </trkpt>
      <trkpt lat="44.19665" lon="5.93714">
        <ele>522</ele>
        <time>2019-08-09T10:32:49Z</time>
      </trkpt>
      <trkpt lat="44.19665" lon="5.93708">
        <ele>522</ele>
        <time>2019-08-09T10:32:50Z</time>
      </trkpt>
      <trkpt lat="44.19665" lon="5.93703">
        <ele>522</ele>
        <time>2019-08-09T10:32:51Z</time>
      </trkpt>
      <trkpt lat="44.19664" lon="5.93698">
        <ele>522</ele>
        <time>2019-08-09T10:32:52Z</time>
      </trkpt>
      <trkpt lat="44.19664" lon="5.93693">
        <ele>522</ele>
        <time>2019-08-09T10:32:53Z</time>
      </trkpt>
      <trkpt lat="44.19664" lon="5.93688">
        <ele>522</ele>
        <time>2019-08-09T10:32:54Z</time>
      </trkpt>
      <trkpt lat="44.19665" lon="5.93684">
        <ele>522</ele>
        <time>2019-08-09T10:32:55Z</time>
      </trkpt>
      <trkpt lat="44.19665" lon="5.9368">
        <ele>522</ele>
        <time>2019-08-09T10:32:56Z</time>
      </trkpt>
      <trkpt lat="44.19665" lon="5.93675">
        <ele>522</ele>
        <time>2019-08-09T10:32:57Z</time>
      </trkpt>
      <trkpt lat="44.19666" lon="5.9367">
        <ele>522</ele>
        <time>2019-08-09T10:32:58Z</time>
      </trkpt>
      <trkpt lat="44.19666" lon="5.93664">
        <ele>522</ele>
        <time>2019-08-09T10:32:59Z</time>
      </trkpt>
      <trkpt lat="44.19667" lon="5.93658">
        <ele>523</ele>
        <time>2019-08-09T10:33:00Z</time>
      </trkpt>
      <trkpt lat="44.19667" lon="5.93653">
        <ele>523</ele>
        <time>2019-08-09T10:33:01Z</time>
      </trkpt>
      <trkpt lat="44.19667" lon="5.93647">
        <ele>523</ele>
        <time>2019-08-09T10:33:02Z</time>
      </trkpt>
      <trkpt lat="44.19668" lon="5.93641">
        <ele>523</ele>
        <time>2019-08-09T10:33:03Z</time>
      </trkpt>
      <trkpt lat="44.19669" lon="5.93635">
        <ele>524</ele>
        <time>2019-08-09T10:33:04Z</time>
      </trkpt>
      <trkpt lat="44.19669" lon="5.93629">
        <ele>524</ele>
        <time>2019-08-09T10:33:05Z</time>
      </trkpt>
      <trkpt lat="44.19669" lon="5.93622">
        <ele>524</ele>
        <time>2019-08-09T10:33:06Z</time>
      </trkpt>
      <trkpt lat="44.19669" lon="5.93616">
        <ele>524</ele>
        <time>2019-08-09T10:33:07Z</time>
      </trkpt>
      <trkpt lat="44.1967" lon="5.9361">
        <ele>524</ele>
        <time>2019-08-09T10:33:08Z</time>
      </trkpt>
      <trkpt lat="44.1967" lon="5.93604">
        <ele>525</ele>
        <time>2019-08-09T10:33:09Z</time>
      </trkpt>
      <trkpt lat="44.1967" lon="5.93599">
        <ele>525</ele>
        <time>2019-08-09T10:33:10Z</time>
      </trkpt>
      <trkpt lat="44.1967" lon="5.93593">
        <ele>525</ele>
        <time>2019-08-09T10:33:11Z</time>
      </trkpt>
      <trkpt lat="44.19669" lon="5.93587">
        <ele>525</ele>
        <time>2019-08-09T10:33:12Z</time>
      </trkpt>
      <trkpt lat="44.19669" lon="5.93582">
        <ele>526</ele>
        <time>2019-08-09T10:33:13Z</time>
      </trkpt>
      <trkpt lat="44.19669" lon="5.93576">
        <ele>526</ele>
        <time>2019-08-09T10:33:14Z</time>
      </trkpt>
      <trkpt lat="44.19668" lon="5.93571">
        <ele>526</ele>
        <time>2019-08-09T10:33:15Z</time>
      </trkpt>
      <trkpt lat="44.19668" lon="5.93566">
        <ele>526</ele>
        <time>2019-08-09T10:33:16Z</time>
      </trkpt>
      <trkpt lat="44.19667" lon="5.93561">
        <ele>526</ele>
        <time>2019-08-09T10:33:17Z</time>
      </trkpt>
      <trkpt lat="44.19667" lon="5.93556">
        <ele>526</ele>
        <time>2019-08-09T10:33:18Z</time>
      </trkpt>
      <trkpt lat="44.19667" lon="5.93551">
        <ele>526</ele>
        <time>2019-08-09T10:33:19Z</time>
      </trkpt>
      <trkpt lat="44.19666" lon="5.93546">
        <ele>526</ele>
        <time>2019-08-09T10:33:20Z</time>
      </trkpt>
      <trkpt lat="44.19666" lon="5.93541">
        <ele>526</ele>
        <time>2019-08-09T10:33:21Z</time>
      </trkpt>
      <trkpt lat="44.19665" lon="5.93536">
        <ele>526</ele>
        <time>2019-08-09T10:33:22Z</time>
      </trkpt>
      <trkpt lat="44.19665" lon="5.93531">
        <ele>526</ele>
        <time>2019-08-09T10:33:23Z</time>
      </trkpt>
      <trkpt lat="44.19664" lon="5.93527">
        <ele>526</ele>
        <time>2019-08-09T10:33:24Z</time>
      </trkpt>
      <trkpt lat="44.19664" lon="5.93522">
        <ele>526</ele>
        <time>2019-08-09T10:33:25Z</time>
      </trkpt>
      <trkpt lat="44.19663" lon="5.93517">
        <ele>527</ele>
        <time>2019-08-09T10:33:26Z</time>
      </trkpt>
      <trkpt lat="44.19663" lon="5.93512">
        <ele>527</ele>
        <time>2019-08-09T10:33:27Z</time>
      </trkpt>
      <trkpt lat="44.19662" lon="5.93508">
        <ele>527</ele>
        <time>2019-08-09T10:33:28Z</time>
      </trkpt>
      <trkpt lat="44.19661" lon="5.93503">
        <ele>528</ele>
        <time>2019-08-09T10:33:29Z</time>
      </trkpt>
      <trkpt lat="44.19661" lon="5.93498">
        <ele>528</ele>
        <time>2019-08-09T10:33:30Z</time>
      </trkpt>
      <trkpt lat="44.19661" lon="5.93494">
        <ele>528</ele>
        <time>2019-08-09T10:33:31Z</time>
      </trkpt>
      <trkpt lat="44.1966" lon="5.93489">
        <ele>529</ele>
        <time>2019-08-09T10:33:32Z</time>
      </trkpt>
      <trkpt lat="44.19659" lon="5.93484">
        <ele>529</ele>
        <time>2019-08-09T10:33:33Z</time>
      </trkpt>
      <trkpt lat="44.19659" lon="5.9348">
        <ele>529</ele>
        <time>2019-08-09T10:33:34Z</time>
      </trkpt>
      <trkpt lat="44.19659" lon="5.93475">
        <ele>529</ele>
        <time>2019-08-09T10:33:35Z</time>
      </trkpt>
      <trkpt lat="44.19658" lon="5.93471">
        <ele>530</ele>
        <time>2019-08-09T10:33:36Z</time>
      </trkpt>
      <trkpt lat="44.19658" lon="5.93466">
        <ele>530</ele>
        <time>2019-08-09T10:33:37Z</time>
      </trkpt>
      <trkpt lat="44.19658" lon="5.93462">
        <ele>530</ele>
        <time>2019-08-09T10:33:38Z</time>
      </trkpt>
      <trkpt lat="44.19657" lon="5.93457">
        <ele>530</ele>
        <time>2019-08-09T10:33:39Z</time>
      </trkpt>
      <trkpt lat="44.19656" lon="5.93453">
        <ele>531</ele>
        <time>2019-08-09T10:33:40Z</time>
      </trkpt>
      <trkpt lat="44.19656" lon="5.93448">
        <ele>531</ele>
        <time>2019-08-09T10:33:41Z</time>
      </trkpt>
      <trkpt lat="44.19656" lon="5.93444">
        <ele>531</ele>
        <time>2019-08-09T10:33:42Z</time>
      </trkpt>
      <trkpt lat="44.19656" lon="5.93439">
        <ele>531</ele>
        <time>2019-08-09T10:33:43Z</time>
      </trkpt>
      <trkpt lat="44.19656" lon="5.93434">
        <ele>531</ele>
        <time>2019-08-09T10:33:44Z</time>
      </trkpt>
      <trkpt lat="44.19655" lon="5.9343">
        <ele>531</ele>
        <time>2019-08-09T10:33:45Z</time>
      </trkpt>
      <trkpt lat="44.19655" lon="5.93425">
        <ele>531</ele>
        <time>2019-08-09T10:33:46Z</time>
      </trkpt>
      <trkpt lat="44.19654" lon="5.9342">
        <ele>531</ele>
        <time>2019-08-09T10:33:47Z</time>
      </trkpt>
      <trkpt lat="44.19654" lon="5.93415">
        <ele>531</ele>
        <time>2019-08-09T10:33:48Z</time>
      </trkpt>
      <trkpt lat="44.19654" lon="5.93411">
        <ele>531</ele>
        <time>2019-08-09T10:33:49Z</time>
      </trkpt>
      <trkpt lat="44.19653" lon="5.93406">
        <ele>531</ele>
        <time>2019-08-09T10:33:50Z</time>
      </trkpt>
      <trkpt lat="44.19653" lon="5.93401">
        <ele>531</ele>
        <time>2019-08-09T10:33:51Z</time>
      </trkpt>
      <trkpt lat="44.19652" lon="5.93397">
        <ele>531</ele>
        <time>2019-08-09T10:33:52Z</time>
      </trkpt>
      <trkpt lat="44.19652" lon="5.93393">
        <ele>531</ele>
        <time>2019-08-09T10:33:53Z</time>
      </trkpt>
      <trkpt lat="44.19651" lon="5.93388">
        <ele>531</ele>
        <time>2019-08-09T10:33:54Z</time>
      </trkpt>
      <trkpt lat="44.19651" lon="5.93384">
        <ele>532</ele>
        <time>2019-08-09T10:33:55Z</time>
      </trkpt>
      <trkpt lat="44.1965" lon="5.9338">
        <ele>532</ele>
        <time>2019-08-09T10:33:56Z</time>
      </trkpt>
      <trkpt lat="44.19649" lon="5.93376">
        <ele>532</ele>
        <time>2019-08-09T10:33:57Z</time>
      </trkpt>
      <trkpt lat="44.19648" lon="5.93372">
        <ele>532</ele>
        <time>2019-08-09T10:33:58Z</time>
      </trkpt>
      <trkpt lat="44.19647" lon="5.93368">
        <ele>532</ele>
        <time>2019-08-09T10:33:59Z</time>
      </trkpt>
      <trkpt lat="44.19646" lon="5.93364">
        <ele>532</ele>
        <time>2019-08-09T10:34:00Z</time>
      </trkpt>
      <trkpt lat="44.19646" lon="5.9336">
        <ele>532</ele>
        <time>2019-08-09T10:34:01Z</time>
      </trkpt>
      <trkpt lat="44.19645" lon="5.93356">
        <ele>532</ele>
        <time>2019-08-09T10:34:02Z</time>
      </trkpt>
      <trkpt lat="44.19644" lon="5.93353">
        <ele>532</ele>
        <time>2019-08-09T10:34:03Z</time>
      </trkpt>
      <trkpt lat="44.19643" lon="5.93349">
        <ele>532</ele>
        <time>2019-08-09T10:34:04Z</time>
      </trkpt>
      <trkpt lat="44.19642" lon="5.93345">
        <ele>532</ele>
        <time>2019-08-09T10:34:05Z</time>
      </trkpt>
      <trkpt lat="44.19641" lon="5.93341">
        <ele>533</ele>
        <time>2019-08-09T10:34:06Z</time>
      </trkpt>
      <trkpt lat="44.1964" lon="5.93338">
        <ele>533</ele>
        <time>2019-08-09T10:34:07Z</time>
      </trkpt>
      <trkpt lat="44.19639" lon="5.93334">
        <ele>533</ele>
        <time>2019-08-09T10:34:08Z</time>
      </trkpt>
      <trkpt lat="44.19638" lon="5.9333">
        <ele>533</ele>
        <time>2019-08-09T10:34:09Z</time>
      </trkpt>
      <trkpt lat="44.19637" lon="5.93327">
        <ele>533</ele>
        <time>2019-08-09T10:34:10Z</time>
      </trkpt>
      <trkpt lat="44.19636" lon="5.93324">
        <ele>533</ele>
        <time>2019-08-09T10:34:11Z</time>
      </trkpt>
      <trkpt lat="44.19635" lon="5.93321">
        <ele>534</ele>
        <time>2019-08-09T10:34:12Z</time>
      </trkpt>
      <trkpt lat="44.19634" lon="5.93317">
        <ele>534</ele>
        <time>2019-08-09T10:34:13Z</time>
      </trkpt>
      <trkpt lat="44.19633" lon="5.93314">
        <ele>534</ele>
        <time>2019-08-09T10:34:14Z</time>
      </trkpt>
      <trkpt lat="44.19632" lon="5.93311">
        <ele>534</ele>
        <time>2019-08-09T10:34:15Z</time>
      </trkpt>
      <trkpt lat="44.1963" lon="5.93308">
        <ele>534</ele>
        <time>2019-08-09T10:34:16Z</time>
      </trkpt>
      <trkpt lat="44.19629" lon="5.93305">
        <ele>534</ele>
        <time>2019-08-09T10:34:17Z</time>
      </trkpt>
      <trkpt lat="44.19628" lon="5.93302">
        <ele>535</ele>
        <time>2019-08-09T10:34:18Z</time>
      </trkpt>
      <trkpt lat="44.19627" lon="5.93299">
        <ele>535</ele>
        <time>2019-08-09T10:34:19Z</time>
      </trkpt>
      <trkpt lat="44.19626" lon="5.93296">
        <ele>535</ele>
        <time>2019-08-09T10:34:20Z</time>
      </trkpt>
      <trkpt lat="44.19625" lon="5.93293">
        <ele>535</ele>
        <time>2019-08-09T10:34:21Z</time>
      </trkpt>
      <trkpt lat="44.19624" lon="5.9329">
        <ele>535</ele>
        <time>2019-08-09T10:34:22Z</time>
      </trkpt>
      <trkpt lat="44.19623" lon="5.93287">
        <ele>535</ele>
        <time>2019-08-09T10:34:23Z</time>
      </trkpt>
      <trkpt lat="44.19622" lon="5.93284">
        <ele>535</ele>
        <time>2019-08-09T10:34:24Z</time>
      </trkpt>
      <trkpt lat="44.19621" lon="5.93281">
        <ele>535</ele>
        <time>2019-08-09T10:34:25Z</time>
      </trkpt>
      <trkpt lat="44.19619" lon="5.93278">
        <ele>535</ele>
        <time>2019-08-09T10:34:26Z</time>
      </trkpt>
      <trkpt lat="44.19618" lon="5.93275">
        <ele>536</ele>
        <time>2019-08-09T10:34:27Z</time>
      </trkpt>
      <trkpt lat="44.19617" lon="5.93272">
        <ele>536</ele>
        <time>2019-08-09T10:34:28Z</time>
      </trkpt>
      <trkpt lat="44.19616" lon="5.93269">
        <ele>536</ele>
        <time>2019-08-09T10:34:29Z</time>
      </trkpt>
      <trkpt lat="44.19616" lon="5.93266">
        <ele>536</ele>
        <time>2019-08-09T10:34:30Z</time>
      </trkpt>
      <trkpt lat="44.19615" lon="5.93262">
        <ele>537</ele>
        <time>2019-08-09T10:34:31Z</time>
      </trkpt>
      <trkpt lat="44.19614" lon="5.93258">
        <ele>537</ele>
        <time>2019-08-09T10:34:32Z</time>
      </trkpt>
      <trkpt lat="44.19613" lon="5.93254">
        <ele>538</ele>
        <time>2019-08-09T10:34:33Z</time>
      </trkpt>
      <trkpt lat="44.19613" lon="5.93251">
        <ele>539</ele>
        <time>2019-08-09T10:34:34Z</time>
      </trkpt>
      <trkpt lat="44.19612" lon="5.93247">
        <ele>540</ele>
        <time>2019-08-09T10:34:35Z</time>
      </trkpt>
      <trkpt lat="44.19612" lon="5.93243">
        <ele>541</ele>
        <time>2019-08-09T10:34:36Z</time>
      </trkpt>
      <trkpt lat="44.19611" lon="5.93239">
        <ele>542</ele>
        <time>2019-08-09T10:34:37Z</time>
      </trkpt>
      <trkpt lat="44.19611" lon="5.93235">
        <ele>542</ele>
        <time>2019-08-09T10:34:38Z</time>
      </trkpt>
      <trkpt lat="44.19609" lon="5.93231">
        <ele>542</ele>
        <time>2019-08-09T10:34:39Z</time>
      </trkpt>
      <trkpt lat="44.19608" lon="5.93227">
        <ele>542</ele>
        <time>2019-08-09T10:34:40Z</time>
      </trkpt>
      <trkpt lat="44.19607" lon="5.93223">
        <ele>543</ele>
        <time>2019-08-09T10:34:41Z</time>
      </trkpt>
      <trkpt lat="44.19606" lon="5.9322">
        <ele>543</ele>
        <time>2019-08-09T10:34:42Z</time>
      </trkpt>
      <trkpt lat="44.19605" lon="5.93216">
        <ele>544</ele>
        <time>2019-08-09T10:34:43Z</time>
      </trkpt>
      <trkpt lat="44.19604" lon="5.93213">
        <ele>544</ele>
        <time>2019-08-09T10:34:44Z</time>
      </trkpt>
      <trkpt lat="44.19603" lon="5.93209">
        <ele>545</ele>
        <time>2019-08-09T10:34:45Z</time>
      </trkpt>
      <trkpt lat="44.19602" lon="5.93205">
        <ele>546</ele>
        <time>2019-08-09T10:34:46Z</time>
      </trkpt>
      <trkpt lat="44.19601" lon="5.93202">
        <ele>546</ele>
        <time>2019-08-09T10:34:47Z</time>
      </trkpt>
      <trkpt lat="44.196" lon="5.93198">
        <ele>547</ele>
        <time>2019-08-09T10:34:48Z</time>
      </trkpt>
      <trkpt lat="44.19599" lon="5.93195">
        <ele>547</ele>
        <time>2019-08-09T10:34:49Z</time>
      </trkpt>
      <trkpt lat="44.19598" lon="5.93191">
        <ele>548</ele>
        <time>2019-08-09T10:34:50Z</time>
      </trkpt>
      <trkpt lat="44.19596" lon="5.93187">
        <ele>548</ele>
        <time>2019-08-09T10:34:51Z</time>
      </trkpt>
      <trkpt lat="44.19596" lon="5.93184">
        <ele>549</ele>
        <time>2019-08-09T10:34:52Z</time>
      </trkpt>
      <trkpt lat="44.19595" lon="5.9318">
        <ele>549</ele>
        <time>2019-08-09T10:34:53Z</time>
      </trkpt>
      <trkpt lat="44.19595" lon="5.93176">
        <ele>549</ele>
        <time>2019-08-09T10:34:54Z</time>
      </trkpt>
      <trkpt lat="44.19594" lon="5.93172">
        <ele>549</ele>
        <time>2019-08-09T10:34:55Z</time>
      </trkpt>
      <trkpt lat="44.19593" lon="5.93168">
        <ele>550</ele>
        <time>2019-08-09T10:34:56Z</time>
      </trkpt>
      <trkpt lat="44.19593" lon="5.93164">
        <ele>550</ele>
        <time>2019-08-09T10:34:57Z</time>
      </trkpt>
      <trkpt lat="44.19592" lon="5.9316">
        <ele>550</ele>
        <time>2019-08-09T10:34:58Z</time>
      </trkpt>
      <trkpt lat="44.19591" lon="5.93155">
        <ele>551</ele>
        <time>2019-08-09T10:34:59Z</time>
      </trkpt>
      <trkpt lat="44.1959" lon="5.93151">
        <ele>551</ele>
        <time>2019-08-09T10:35:00Z</time>
      </trkpt>
      <trkpt lat="44.19589" lon="5.93147">
        <ele>552</ele>
        <time>2019-08-09T10:35:01Z</time>
      </trkpt>
      <trkpt lat="44.19589" lon="5.93142">
        <ele>552</ele>
        <time>2019-08-09T10:35:02Z</time>
      </trkpt>
      <trkpt lat="44.19588" lon="5.93137">
        <ele>552</ele>
        <time>2019-08-09T10:35:03Z</time>
      </trkpt>
      <trkpt lat="44.19587" lon="5.93132">
        <ele>552</ele>
        <time>2019-08-09T10:35:04Z</time>
      </trkpt>
      <trkpt lat="44.19587" lon="5.93128">
        <ele>552</ele>
        <time>2019-08-09T10:35:05Z</time>
      </trkpt>
      <trkpt lat="44.19586" lon="5.93123">
        <ele>552</ele>
        <time>2019-08-09T10:35:06Z</time>
      </trkpt>
      <trkpt lat="44.19586" lon="5.93118">
        <ele>552</ele>
        <time>2019-08-09T10:35:07Z</time>
      </trkpt>
      <trkpt lat="44.19585" lon="5.93112">
        <ele>552</ele>
        <time>2019-08-09T10:35:08Z</time>
      </trkpt>
      <trkpt lat="44.19585" lon="5.93107">
        <ele>552</ele>
        <time>2019-08-09T10:35:09Z</time>
      </trkpt>
      <trkpt lat="44.19585" lon="5.93102">
        <ele>552</ele>
        <time>2019-08-09T10:35:10Z</time>
      </trkpt>
      <trkpt lat="44.19584" lon="5.93096">
        <ele>552</ele>
        <time>2019-08-09T10:35:11Z</time>
      </trkpt>
      <trkpt lat="44.19584" lon="5.93091">
        <ele>552</ele>
        <time>2019-08-09T10:35:12Z</time>
      </trkpt>
      <trkpt lat="44.19584" lon="5.93085">
        <ele>552</ele>
        <time>2019-08-09T10:35:13Z</time>
      </trkpt>
      <trkpt lat="44.19584" lon="5.9308">
        <ele>552</ele>
        <time>2019-08-09T10:35:14Z</time>
      </trkpt>
      <trkpt lat="44.19584" lon="5.93075">
        <ele>552</ele>
        <time>2019-08-09T10:35:15Z</time>
      </trkpt>
      <trkpt lat="44.19584" lon="5.93069">
        <ele>552</ele>
        <time>2019-08-09T10:35:16Z</time>
      </trkpt>
      <trkpt lat="44.19585" lon="5.93063">
        <ele>552</ele>
        <time>2019-08-09T10:35:17Z</time>
      </trkpt>
      <trkpt lat="44.19585" lon="5.93058">
        <ele>552</ele>
        <time>2019-08-09T10:35:18Z</time>
      </trkpt>
      <trkpt lat="44.19585" lon="5.93052">
        <ele>552</ele>
        <time>2019-08-09T10:35:19Z</time>
      </trkpt>
      <trkpt lat="44.19586" lon="5.93046">
        <ele>552</ele>
        <time>2019-08-09T10:35:20Z</time>
      </trkpt>
      <trkpt lat="44.19586" lon="5.93041">
        <ele>552</ele>
        <time>2019-08-09T10:35:21Z</time>
      </trkpt>
      <trkpt lat="44.19587" lon="5.93035">
        <ele>552</ele>
        <time>2019-08-09T10:35:22Z</time>
      </trkpt>
      <trkpt lat="44.19588" lon="5.93029">
        <ele>552</ele>
        <time>2019-08-09T10:35:23Z</time>
      </trkpt>
      <trkpt lat="44.19588" lon="5.93023">
        <ele>552</ele>
        <time>2019-08-09T10:35:24Z</time>
      </trkpt>
      <trkpt lat="44.19589" lon="5.93017">
        <ele>552</ele>
        <time>2019-08-09T10:35:25Z</time>
      </trkpt>
      <trkpt lat="44.1959" lon="5.93011">
        <ele>552</ele>
        <time>2019-08-09T10:35:26Z</time>
      </trkpt>
      <trkpt lat="44.19592" lon="5.93005">
        <ele>552</ele>
        <time>2019-08-09T10:35:27Z</time>
      </trkpt>
      <trkpt lat="44.19593" lon="5.92998">
        <ele>552</ele>
        <time>2019-08-09T10:35:28Z</time>
      </trkpt>
      <trkpt lat="44.19595" lon="5.92991">
        <ele>552</ele>
        <time>2019-08-09T10:35:29Z</time>
      </trkpt>
      <trkpt lat="44.19596" lon="5.92984">
        <ele>552</ele>
        <time>2019-08-09T10:35:30Z</time>
      </trkpt>
      <trkpt lat="44.19598" lon="5.92977">
        <ele>552</ele>
        <time>2019-08-09T10:35:31Z</time>
      </trkpt>
      <trkpt lat="44.19599" lon="5.9297">
        <ele>552</ele>
        <time>2019-08-09T10:35:32Z</time>
      </trkpt>
      <trkpt lat="44.19601" lon="5.92963">
        <ele>552</ele>
        <time>2019-08-09T10:35:33Z</time>
      </trkpt>
      <trkpt lat="44.19603" lon="5.92956">
        <ele>552</ele>
        <time>2019-08-09T10:35:34Z</time>
      </trkpt>
      <trkpt lat="44.19605" lon="5.92949">
        <ele>552</ele>
        <time>2019-08-09T10:35:35Z</time>
      </trkpt>
      <trkpt lat="44.19607" lon="5.92942">
        <ele>552</ele>
        <time>2019-08-09T10:35:36Z</time>
      </trkpt>
      <trkpt lat="44.19609" lon="5.92935">
        <ele>552</ele>
        <time>2019-08-09T10:35:37Z</time>
      </trkpt>
      <trkpt lat="44.1961" lon="5.92928">
        <ele>552</ele>
        <time>2019-08-09T10:35:38Z</time>
      </trkpt>
      <trkpt lat="44.19611" lon="5.92921">
        <ele>552</ele>
        <time>2019-08-09T10:35:39Z</time>
      </trkpt>
      <trkpt lat="44.19613" lon="5.92913">
        <ele>552</ele>
        <time>2019-08-09T10:35:40Z</time>
      </trkpt>
      <trkpt lat="44.19613" lon="5.92906">
        <ele>552</ele>
        <time>2019-08-09T10:35:41Z</time>
      </trkpt>
      <trkpt lat="44.19613" lon="5.92899">
        <ele>552</ele>
        <time>2019-08-09T10:35:42Z</time>
      </trkpt>
      <trkpt lat="44.19613" lon="5.92892">
        <ele>552</ele>
        <time>2019-08-09T10:35:43Z</time>
      </trkpt>
      <trkpt lat="44.19611" lon="5.92885">
        <ele>552</ele>
        <time>2019-08-09T10:35:44Z</time>
      </trkpt>
      <trkpt lat="44.1961" lon="5.92878">
        <ele>552</ele>
        <time>2019-08-09T10:35:45Z</time>
      </trkpt>
      <trkpt lat="44.19608" lon="5.92872">
        <ele>552</ele>
        <time>2019-08-09T10:35:46Z</time>
      </trkpt>
      <trkpt lat="44.19606" lon="5.92866">
        <ele>552</ele>
        <time>2019-08-09T10:35:47Z</time>
      </trkpt>
      <trkpt lat="44.19604" lon="5.9286">
        <ele>552</ele>
        <time>2019-08-09T10:35:48Z</time>
      </trkpt>
      <trkpt lat="44.19601" lon="5.92853">
        <ele>552</ele>
        <time>2019-08-09T10:35:49Z</time>
      </trkpt>
      <trkpt lat="44.196" lon="5.92847">
        <ele>552</ele>
        <time>2019-08-09T10:35:50Z</time>
      </trkpt>
      <trkpt lat="44.19598" lon="5.9284">
        <ele>552</ele>
        <time>2019-08-09T10:35:51Z</time>
      </trkpt>
      <trkpt lat="44.19596" lon="5.92834">
        <ele>552</ele>
        <time>2019-08-09T10:35:52Z</time>
      </trkpt>
      <trkpt lat="44.19594" lon="5.92827">
        <ele>552</ele>
        <time>2019-08-09T10:35:53Z</time>
      </trkpt>
      <trkpt lat="44.19593" lon="5.9282">
        <ele>552</ele>
        <time>2019-08-09T10:35:54Z</time>
      </trkpt>
      <trkpt lat="44.19591" lon="5.92813">
        <ele>552</ele>
        <time>2019-08-09T10:35:55Z</time>
      </trkpt>
      <trkpt lat="44.1959" lon="5.92806">
        <ele>552</ele>
        <time>2019-08-09T10:35:56Z</time>
      </trkpt>
      <trkpt lat="44.19588" lon="5.92799">
        <ele>552</ele>
        <time>2019-08-09T10:35:57Z</time>
      </trkpt>
      <trkpt lat="44.19587" lon="5.92792">
        <ele>552</ele>
        <time>2019-08-09T10:35:58Z</time>
      </trkpt>
      <trkpt lat="44.19586" lon="5.92785">
        <ele>552</ele>
        <time>2019-08-09T10:35:59Z</time>
      </trkpt>
      <trkpt lat="44.19585" lon="5.92778">
        <ele>552</ele>
        <time>2019-08-09T10:36:00Z</time>
      </trkpt>
      <trkpt lat="44.19584" lon="5.92771">
        <ele>553</ele>
        <time>2019-08-09T10:36:01Z</time>
      </trkpt>
      <trkpt lat="44.19583" lon="5.92765">
        <ele>553</ele>
        <time>2019-08-09T10:36:02Z</time>
      </trkpt>
      <trkpt lat="44.19582" lon="5.92758">
        <ele>553</ele>
        <time>2019-08-09T10:36:03Z</time>
      </trkpt>
      <trkpt lat="44.19582" lon="5.92751">
        <ele>553</ele>
        <time>2019-08-09T10:36:04Z</time>
      </trkpt>
      <trkpt lat="44.19581" lon="5.92744">
        <ele>554</ele>
        <time>2019-08-09T10:36:05Z</time>
      </trkpt>
      <trkpt lat="44.19581" lon="5.92737">
        <ele>554</ele>
        <time>2019-08-09T10:36:06Z</time>
      </trkpt>
      <trkpt lat="44.19581" lon="5.92731">
        <ele>554</ele>
        <time>2019-08-09T10:36:07Z</time>
      </trkpt>
      <trkpt lat="44.1958" lon="5.92725">
        <ele>555</ele>
        <time>2019-08-09T10:36:08Z</time>
      </trkpt>
      <trkpt lat="44.1958" lon="5.92719">
        <ele>555</ele>
        <time>2019-08-09T10:36:09Z</time>
      </trkpt>
      <trkpt lat="44.1958" lon="5.92712">
        <ele>555</ele>
        <time>2019-08-09T10:36:10Z</time>
      </trkpt>
      <trkpt lat="44.1958" lon="5.92707">
        <ele>556</ele>
        <time>2019-08-09T10:36:11Z</time>
      </trkpt>
      <trkpt lat="44.1958" lon="5.92701">
        <ele>556</ele>
        <time>2019-08-09T10:36:12Z</time>
      </trkpt>
      <trkpt lat="44.19579" lon="5.92695">
        <ele>556</ele>
        <time>2019-08-09T10:36:13Z</time>
      </trkpt>
      <trkpt lat="44.19579" lon="5.9269">
        <ele>557</ele>
        <time>2019-08-09T10:36:14Z</time>
      </trkpt>
      <trkpt lat="44.19579" lon="5.92684">
        <ele>557</ele>
        <time>2019-08-09T10:36:15Z</time>
      </trkpt>
      <trkpt lat="44.19579" lon="5.92678">
        <ele>557</ele>
        <time>2019-08-09T10:36:16Z</time>
      </trkpt>
      <trkpt lat="44.19579" lon="5.92672">
        <ele>558</ele>
        <time>2019-08-09T10:36:17Z</time>
      </trkpt>
      <trkpt lat="44.19579" lon="5.92666">
        <ele>558</ele>
        <time>2019-08-09T10:36:18Z</time>
      </trkpt>
      <trkpt lat="44.19578" lon="5.92661">
        <ele>558</ele>
        <time>2019-08-09T10:36:19Z</time>
      </trkpt>
      <trkpt lat="44.19578" lon="5.92654">
        <ele>558</ele>
        <time>2019-08-09T10:36:20Z</time>
      </trkpt>
      <trkpt lat="44.19577" lon="5.92648">
        <ele>559</ele>
        <time>2019-08-09T10:36:21Z</time>
      </trkpt>
      <trkpt lat="44.19577" lon="5.92642">
        <ele>559</ele>
        <time>2019-08-09T10:36:22Z</time>
      </trkpt>
      <trkpt lat="44.19576" lon="5.92635">
        <ele>559</ele>
        <time>2019-08-09T10:36:23Z</time>
      </trkpt>
      <trkpt lat="44.19576" lon="5.92629">
        <ele>559</ele>
        <time>2019-08-09T10:36:24Z</time>
      </trkpt>
      <trkpt lat="44.19575" lon="5.92622">
        <ele>559</ele>
        <time>2019-08-09T10:36:25Z</time>
      </trkpt>
      <trkpt lat="44.19575" lon="5.92616">
        <ele>559</ele>
        <time>2019-08-09T10:36:26Z</time>
      </trkpt>
      <trkpt lat="44.19574" lon="5.92609">
        <ele>559</ele>
        <time>2019-08-09T10:36:27Z</time>
      </trkpt>
      <trkpt lat="44.19574" lon="5.92602">
        <ele>559</ele>
        <time>2019-08-09T10:36:28Z</time>
      </trkpt>
      <trkpt lat="44.19574" lon="5.92595">
        <ele>560</ele>
        <time>2019-08-09T10:36:29Z</time>
      </trkpt>
      <trkpt lat="44.19573" lon="5.92589">
        <ele>560</ele>
        <time>2019-08-09T10:36:30Z</time>
      </trkpt>
      <trkpt lat="44.19573" lon="5.92582">
        <ele>560</ele>
        <time>2019-08-09T10:36:31Z</time>
      </trkpt>
      <trkpt lat="44.19573" lon="5.92575">
        <ele>560</ele>
        <time>2019-08-09T10:36:32Z</time>
      </trkpt>
      <trkpt lat="44.19573" lon="5.92568">
        <ele>560</ele>
        <time>2019-08-09T10:36:33Z</time>
      </trkpt>
      <trkpt lat="44.19573" lon="5.92562">
        <ele>560</ele>
        <time>2019-08-09T10:36:34Z</time>
      </trkpt>
      <trkpt lat="44.19573" lon="5.92555">
        <ele>560</ele>
        <time>2019-08-09T10:36:35Z</time>
      </trkpt>
      <trkpt lat="44.19574" lon="5.92549">
        <ele>561</ele>
        <time>2019-08-09T10:36:36Z</time>
      </trkpt>
      <trkpt lat="44.19574" lon="5.92542">
        <ele>561</ele>
        <time>2019-08-09T10:36:37Z</time>
      </trkpt>
      <trkpt lat="44.19574" lon="5.92536">
        <ele>561</ele>
        <time>2019-08-09T10:36:38Z</time>
      </trkpt>
      <trkpt lat="44.19574" lon="5.9253">
        <ele>561</ele>
        <time>2019-08-09T10:36:39Z</time>
      </trkpt>
      <trkpt lat="44.19573" lon="5.92524">
        <ele>561</ele>
        <time>2019-08-09T10:36:40Z</time>
      </trkpt>
      <trkpt lat="44.19573" lon="5.92517">
        <ele>561</ele>
        <time>2019-08-09T10:36:41Z</time>
      </trkpt>
      <trkpt lat="44.19573" lon="5.92511">
        <ele>561</ele>
        <time>2019-08-09T10:36:42Z</time>
      </trkpt>
      <trkpt lat="44.19573" lon="5.92504">
        <ele>561</ele>
        <time>2019-08-09T10:36:43Z</time>
      </trkpt>
      <trkpt lat="44.19572" lon="5.92497">
        <ele>561</ele>
        <time>2019-08-09T10:36:44Z</time>
      </trkpt>
      <trkpt lat="44.19572" lon="5.92491">
        <ele>561</ele>
        <time>2019-08-09T10:36:45Z</time>
      </trkpt>
      <trkpt lat="44.19572" lon="5.92484">
        <ele>561</ele>
        <time>2019-08-09T10:36:46Z</time>
      </trkpt>
      <trkpt lat="44.19571" lon="5.92478">
        <ele>561</ele>
        <time>2019-08-09T10:36:47Z</time>
      </trkpt>
      <trkpt lat="44.19571" lon="5.92471">
        <ele>561</ele>
        <time>2019-08-09T10:36:48Z</time>
      </trkpt>
      <trkpt lat="44.1957" lon="5.92465">
        <ele>561</ele>
        <time>2019-08-09T10:36:49Z</time>
      </trkpt>
      <trkpt lat="44.19569" lon="5.92459">
        <ele>561</ele>
        <time>2019-08-09T10:36:50Z</time>
      </trkpt>
      <trkpt lat="44.19569" lon="5.92452">
        <ele>561</ele>
        <time>2019-08-09T10:36:51Z</time>
      </trkpt>
      <trkpt lat="44.19569" lon="5.92446">
        <ele>561</ele>
        <time>2019-08-09T10:36:52Z</time>
      </trkpt>
      <trkpt lat="44.19568" lon="5.9244">
        <ele>561</ele>
        <time>2019-08-09T10:36:53Z</time>
      </trkpt>
      <trkpt lat="44.19568" lon="5.92433">
        <ele>561</ele>
        <time>2019-08-09T10:36:54Z</time>
      </trkpt>
      <trkpt lat="44.19567" lon="5.92427">
        <ele>561</ele>
        <time>2019-08-09T10:36:55Z</time>
      </trkpt>
      <trkpt lat="44.19567" lon="5.9242">
        <ele>561</ele>
        <time>2019-08-09T10:36:56Z</time>
      </trkpt>
      <trkpt lat="44.19567" lon="5.92413">
        <ele>561</ele>
        <time>2019-08-09T10:36:57Z</time>
      </trkpt>
      <trkpt lat="44.19566" lon="5.92406">
        <ele>561</ele>
        <time>2019-08-09T10:36:58Z</time>
      </trkpt>
      <trkpt lat="44.19566" lon="5.92399">
        <ele>561</ele>
        <time>2019-08-09T10:36:59Z</time>
      </trkpt>
      <trkpt lat="44.19566" lon="5.92392">
        <ele>561</ele>
        <time>2019-08-09T10:37:00Z</time>
      </trkpt>
      <trkpt lat="44.19565" lon="5.92384">
        <ele>561</ele>
        <time>2019-08-09T10:37:01Z</time>
      </trkpt>
      <trkpt lat="44.19565" lon="5.92377">
        <ele>562</ele>
        <time>2019-08-09T10:37:02Z</time>
      </trkpt>
      <trkpt lat="44.19564" lon="5.9237">
        <ele>562</ele>
        <time>2019-08-09T10:37:03Z</time>
      </trkpt>
      <trkpt lat="44.19564" lon="5.92363">
        <ele>562</ele>
        <time>2019-08-09T10:37:04Z</time>
      </trkpt>
      <trkpt lat="44.19563" lon="5.92356">
        <ele>562</ele>
        <time>2019-08-09T10:37:05Z</time>
      </trkpt>
      <trkpt lat="44.19563" lon="5.92349">
        <ele>563</ele>
        <time>2019-08-09T10:37:06Z</time>
      </trkpt>
      <trkpt lat="44.19562" lon="5.92343">
        <ele>563</ele>
        <time>2019-08-09T10:37:07Z</time>
      </trkpt>
      <trkpt lat="44.19562" lon="5.92336">
        <ele>563</ele>
        <time>2019-08-09T10:37:08Z</time>
      </trkpt>
      <trkpt lat="44.19561" lon="5.9233">
        <ele>563</ele>
        <time>2019-08-09T10:37:09Z</time>
      </trkpt>
      <trkpt lat="44.1956" lon="5.92323">
        <ele>564</ele>
        <time>2019-08-09T10:37:10Z</time>
      </trkpt>
      <trkpt lat="44.1956" lon="5.92316">
        <ele>564</ele>
        <time>2019-08-09T10:37:11Z</time>
      </trkpt>
      <trkpt lat="44.19559" lon="5.92309">
        <ele>564</ele>
        <time>2019-08-09T10:37:12Z</time>
      </trkpt>
      <trkpt lat="44.19558" lon="5.92303">
        <ele>564</ele>
        <time>2019-08-09T10:37:13Z</time>
      </trkpt>
      <trkpt lat="44.19558" lon="5.92296">
        <ele>564</ele>
        <time>2019-08-09T10:37:14Z</time>
      </trkpt>
      <trkpt lat="44.19557" lon="5.92289">
        <ele>564</ele>
        <time>2019-08-09T10:37:15Z</time>
      </trkpt>
      <trkpt lat="44.19556" lon="5.92282">
        <ele>564</ele>
        <time>2019-08-09T10:37:16Z</time>
      </trkpt>
      <trkpt lat="44.19556" lon="5.92275">
        <ele>564</ele>
        <time>2019-08-09T10:37:17Z</time>
      </trkpt>
      <trkpt lat="44.19555" lon="5.92267">
        <ele>564</ele>
        <time>2019-08-09T10:37:18Z</time>
      </trkpt>
      <trkpt lat="44.19554" lon="5.9226">
        <ele>564</ele>
        <time>2019-08-09T10:37:19Z</time>
      </trkpt>
      <trkpt lat="44.19553" lon="5.92253">
        <ele>564</ele>
        <time>2019-08-09T10:37:20Z</time>
      </trkpt>
      <trkpt lat="44.19552" lon="5.92246">
        <ele>564</ele>
        <time>2019-08-09T10:37:21Z</time>
      </trkpt>
      <trkpt lat="44.19551" lon="5.92239">
        <ele>564</ele>
        <time>2019-08-09T10:37:22Z</time>
      </trkpt>
      <trkpt lat="44.19551" lon="5.92233">
        <ele>564</ele>
        <time>2019-08-09T10:37:23Z</time>
      </trkpt>
      <trkpt lat="44.1955" lon="5.92227">
        <ele>564</ele>
        <time>2019-08-09T10:37:24Z</time>
      </trkpt>
      <trkpt lat="44.1955" lon="5.9222">
        <ele>564</ele>
        <time>2019-08-09T10:37:25Z</time>
      </trkpt>
      <trkpt lat="44.1955" lon="5.92214">
        <ele>564</ele>
        <time>2019-08-09T10:37:26Z</time>
      </trkpt>
      <trkpt lat="44.19549" lon="5.92208">
        <ele>564</ele>
        <time>2019-08-09T10:37:27Z</time>
      </trkpt>
      <trkpt lat="44.19549" lon="5.92202">
        <ele>564</ele>
        <time>2019-08-09T10:37:28Z</time>
      </trkpt>
      <trkpt lat="44.19549" lon="5.92196">
        <ele>564</ele>
        <time>2019-08-09T10:37:29Z</time>
      </trkpt>
      <trkpt lat="44.19549" lon="5.9219">
        <ele>564</ele>
        <time>2019-08-09T10:37:30Z</time>
      </trkpt>
      <trkpt lat="44.1955" lon="5.92183">
        <ele>564</ele>
        <time>2019-08-09T10:37:31Z</time>
      </trkpt>
      <trkpt lat="44.1955" lon="5.92177">
        <ele>564</ele>
        <time>2019-08-09T10:37:32Z</time>
      </trkpt>
      <trkpt lat="44.19551" lon="5.9217">
        <ele>564</ele>
        <time>2019-08-09T10:37:33Z</time>
      </trkpt>
      <trkpt lat="44.19551" lon="5.92164">
        <ele>564</ele>
        <time>2019-08-09T10:37:34Z</time>
      </trkpt>
      <trkpt lat="44.19553" lon="5.92157">
        <ele>564</ele>
        <time>2019-08-09T10:37:35Z</time>
      </trkpt>
      <trkpt lat="44.19553" lon="5.92151">
        <ele>564</ele>
        <time>2019-08-09T10:37:36Z</time>
      </trkpt>
      <trkpt lat="44.19555" lon="5.92144">
        <ele>564</ele>
        <time>2019-08-09T10:37:37Z</time>
      </trkpt>
      <trkpt lat="44.19556" lon="5.92137">
        <ele>564</ele>
        <time>2019-08-09T10:37:38Z</time>
      </trkpt>
      <trkpt lat="44.19557" lon="5.92131">
        <ele>564</ele>
        <time>2019-08-09T10:37:39Z</time>
      </trkpt>
      <trkpt lat="44.19559" lon="5.92124">
        <ele>564</ele>
        <time>2019-08-09T10:37:40Z</time>
      </trkpt>
      <trkpt lat="44.19561" lon="5.92118">
        <ele>564</ele>
        <time>2019-08-09T10:37:41Z</time>
      </trkpt>
      <trkpt lat="44.19562" lon="5.92112">
        <ele>564</ele>
        <time>2019-08-09T10:37:42Z</time>
      </trkpt>
      <trkpt lat="44.19564" lon="5.92105">
        <ele>564</ele>
        <time>2019-08-09T10:37:43Z</time>
      </trkpt>
      <trkpt lat="44.19566" lon="5.92099">
        <ele>564</ele>
        <time>2019-08-09T10:37:44Z</time>
      </trkpt>
      <trkpt lat="44.19567" lon="5.92092">
        <ele>564</ele>
        <time>2019-08-09T10:37:45Z</time>
      </trkpt>
      <trkpt lat="44.19569" lon="5.92086">
        <ele>564</ele>
        <time>2019-08-09T10:37:46Z</time>
      </trkpt>
      <trkpt lat="44.19572" lon="5.92079">
        <ele>564</ele>
        <time>2019-08-09T10:37:47Z</time>
      </trkpt>
      <trkpt lat="44.19574" lon="5.92072">
        <ele>564</ele>
        <time>2019-08-09T10:37:48Z</time>
      </trkpt>
      <trkpt lat="44.19576" lon="5.92066">
        <ele>564</ele>
        <time>2019-08-09T10:37:49Z</time>
      </trkpt>
      <trkpt lat="44.19578" lon="5.92059">
        <ele>564</ele>
        <time>2019-08-09T10:37:50Z</time>
      </trkpt>
      <trkpt lat="44.1958" lon="5.92052">
        <ele>564</ele>
        <time>2019-08-09T10:37:51Z</time>
      </trkpt>
      <trkpt lat="44.19583" lon="5.92046">
        <ele>564</ele>
        <time>2019-08-09T10:37:52Z</time>
      </trkpt>
      <trkpt lat="44.19585" lon="5.92039">
        <ele>564</ele>
        <time>2019-08-09T10:37:53Z</time>
      </trkpt>
      <trkpt lat="44.19586" lon="5.92032">
        <ele>564</ele>
        <time>2019-08-09T10:37:54Z</time>
      </trkpt>
      <trkpt lat="44.19588" lon="5.92025">
        <ele>564</ele>
        <time>2019-08-09T10:37:55Z</time>
      </trkpt>
      <trkpt lat="44.19589" lon="5.92018">
        <ele>564</ele>
        <time>2019-08-09T10:37:56Z</time>
      </trkpt>
      <trkpt lat="44.19591" lon="5.9201">
        <ele>564</ele>
        <time>2019-08-09T10:37:57Z</time>
      </trkpt>
      <trkpt lat="44.19592" lon="5.92002">
        <ele>564</ele>
        <time>2019-08-09T10:37:58Z</time>
      </trkpt>
      <trkpt lat="44.19593" lon="5.91995">
        <ele>564</ele>
        <time>2019-08-09T10:37:59Z</time>
      </trkpt>
      <trkpt lat="44.19594" lon="5.91987">
        <ele>564</ele>
        <time>2019-08-09T10:38:00Z</time>
      </trkpt>
      <trkpt lat="44.19595" lon="5.91979">
        <ele>564</ele>
        <time>2019-08-09T10:38:01Z</time>
      </trkpt>
      <trkpt lat="44.19596" lon="5.91972">
        <ele>564</ele>
        <time>2019-08-09T10:38:02Z</time>
      </trkpt>
      <trkpt lat="44.19597" lon="5.91965">
        <ele>564</ele>
        <time>2019-08-09T10:38:03Z</time>
      </trkpt>
      <trkpt lat="44.19598" lon="5.91959">
        <ele>564</ele>
        <time>2019-08-09T10:38:04Z</time>
      </trkpt>
      <trkpt lat="44.19599" lon="5.91952">
        <ele>564</ele>
        <time>2019-08-09T10:38:05Z</time>
      </trkpt>
      <trkpt lat="44.19601" lon="5.91945">
        <ele>564</ele>
        <time>2019-08-09T10:38:06Z</time>
      </trkpt>
      <trkpt lat="44.19601" lon="5.91938">
        <ele>564</ele>
        <time>2019-08-09T10:38:07Z</time>
      </trkpt>
      <trkpt lat="44.19602" lon="5.9193">
        <ele>564</ele>
        <time>2019-08-09T10:38:08Z</time>
      </trkpt>
      <trkpt lat="44.19603" lon="5.91924">
        <ele>564</ele>
        <time>2019-08-09T10:38:09Z</time>
      </trkpt>
      <trkpt lat="44.19604" lon="5.91917">
        <ele>564</ele>
        <time>2019-08-09T10:38:10Z</time>
      </trkpt>
      <trkpt lat="44.19606" lon="5.9191">
        <ele>564</ele>
        <time>2019-08-09T10:38:11Z</time>
      </trkpt>
      <trkpt lat="44.19607" lon="5.91904">
        <ele>564</ele>
        <time>2019-08-09T10:38:12Z</time>
      </trkpt>
      <trkpt lat="44.19608" lon="5.91897">
        <ele>564</ele>
        <time>2019-08-09T10:38:13Z</time>
      </trkpt>
      <trkpt lat="44.19608" lon="5.91891">
        <ele>564</ele>
        <time>2019-08-09T10:38:14Z</time>
      </trkpt>
      <trkpt lat="44.19609" lon="5.91884">
        <ele>564</ele>
        <time>2019-08-09T10:38:15Z</time>
      </trkpt>
      <trkpt lat="44.19609" lon="5.91877">
        <ele>564</ele>
        <time>2019-08-09T10:38:16Z</time>
      </trkpt>
      <trkpt lat="44.19609" lon="5.9187">
        <ele>564</ele>
        <time>2019-08-09T10:38:17Z</time>
      </trkpt>
      <trkpt lat="44.19609" lon="5.91863">
        <ele>564</ele>
        <time>2019-08-09T10:38:18Z</time>
      </trkpt>
      <trkpt lat="44.19609" lon="5.91856">
        <ele>564</ele>
        <time>2019-08-09T10:38:19Z</time>
      </trkpt>
      <trkpt lat="44.19609" lon="5.9185">
        <ele>564</ele>
        <time>2019-08-09T10:38:20Z</time>
      </trkpt>
      <trkpt lat="44.19609" lon="5.91842">
        <ele>564</ele>
        <time>2019-08-09T10:38:21Z</time>
      </trkpt>
      <trkpt lat="44.19608" lon="5.91835">
        <ele>564</ele>
        <time>2019-08-09T10:38:22Z</time>
      </trkpt>
      <trkpt lat="44.19608" lon="5.91827">
        <ele>564</ele>
        <time>2019-08-09T10:38:23Z</time>
      </trkpt>
      <trkpt lat="44.19607" lon="5.91819">
        <ele>564</ele>
        <time>2019-08-09T10:38:24Z</time>
      </trkpt>
      <trkpt lat="44.19607" lon="5.91812">
        <ele>564</ele>
        <time>2019-08-09T10:38:25Z</time>
      </trkpt>
      <trkpt lat="44.19606" lon="5.91805">
        <ele>564</ele>
        <time>2019-08-09T10:38:26Z</time>
      </trkpt>
      <trkpt lat="44.19606" lon="5.91797">
        <ele>564</ele>
        <time>2019-08-09T10:38:27Z</time>
      </trkpt>
      <trkpt lat="44.19606" lon="5.9179">
        <ele>564</ele>
        <time>2019-08-09T10:38:28Z</time>
      </trkpt>
      <trkpt lat="44.19606" lon="5.91782">
        <ele>564</ele>
        <time>2019-08-09T10:38:29Z</time>
      </trkpt>
      <trkpt lat="44.19606" lon="5.91774">
        <ele>564</ele>
        <time>2019-08-09T10:38:30Z</time>
      </trkpt>
      <trkpt lat="44.19605" lon="5.91766">
        <ele>564</ele>
        <time>2019-08-09T10:38:31Z</time>
      </trkpt>
      <trkpt lat="44.19605" lon="5.91758">
        <ele>564</ele>
        <time>2019-08-09T10:38:32Z</time>
      </trkpt>
      <trkpt lat="44.19605" lon="5.9175">
        <ele>564</ele>
        <time>2019-08-09T10:38:33Z</time>
      </trkpt>
      <trkpt lat="44.19604" lon="5.91742">
        <ele>564</ele>
        <time>2019-08-09T10:38:34Z</time>
      </trkpt>
      <trkpt lat="44.19604" lon="5.91735">
        <ele>564</ele>
        <time>2019-08-09T10:38:35Z</time>
      </trkpt>
      <trkpt lat="44.19603" lon="5.91728">
        <ele>565</ele>
        <time>2019-08-09T10:38:36Z</time>
      </trkpt>
      <trkpt lat="44.19603" lon="5.9172">
        <ele>565</ele>
        <time>2019-08-09T10:38:37Z</time>
      </trkpt>
      <trkpt lat="44.19603" lon="5.91713">
        <ele>566</ele>
        <time>2019-08-09T10:38:38Z</time>
      </trkpt>
      <trkpt lat="44.19603" lon="5.91706">
        <ele>566</ele>
        <time>2019-08-09T10:38:39Z</time>
      </trkpt>
      <trkpt lat="44.19603" lon="5.91699">
        <ele>567</ele>
        <time>2019-08-09T10:38:40Z</time>
      </trkpt>
      <trkpt lat="44.19603" lon="5.91692">
        <ele>567</ele>
        <time>2019-08-09T10:38:41Z</time>
      </trkpt>
      <trkpt lat="44.19603" lon="5.91685">
        <ele>567</ele>
        <time>2019-08-09T10:38:42Z</time>
      </trkpt>
      <trkpt lat="44.19604" lon="5.91678">
        <ele>567</ele>
        <time>2019-08-09T10:38:43Z</time>
      </trkpt>
      <trkpt lat="44.19605" lon="5.91671">
        <ele>568</ele>
        <time>2019-08-09T10:38:44Z</time>
      </trkpt>
      <trkpt lat="44.19606" lon="5.91665">
        <ele>568</ele>
        <time>2019-08-09T10:38:45Z</time>
      </trkpt>
      <trkpt lat="44.19608" lon="5.9166">
        <ele>568</ele>
        <time>2019-08-09T10:38:46Z</time>
      </trkpt>
      <trkpt lat="44.1961" lon="5.91653">
        <ele>568</ele>
        <time>2019-08-09T10:38:47Z</time>
      </trkpt>
      <trkpt lat="44.19611" lon="5.91647">
        <ele>568</ele>
        <time>2019-08-09T10:38:48Z</time>
      </trkpt>
      <trkpt lat="44.19613" lon="5.91641">
        <ele>568</ele>
        <time>2019-08-09T10:38:49Z</time>
      </trkpt>
      <trkpt lat="44.19615" lon="5.91635">
        <ele>568</ele>
        <time>2019-08-09T10:38:50Z</time>
      </trkpt>
      <trkpt lat="44.19616" lon="5.91629">
        <ele>568</ele>
        <time>2019-08-09T10:38:51Z</time>
      </trkpt>
      <trkpt lat="44.19618" lon="5.91623">
        <ele>568</ele>
        <time>2019-08-09T10:38:52Z</time>
      </trkpt>
      <trkpt lat="44.1962" lon="5.91618">
        <ele>568</ele>
        <time>2019-08-09T10:38:53Z</time>
      </trkpt>
      <trkpt lat="44.19621" lon="5.91612">
        <ele>568</ele>
        <time>2019-08-09T10:38:54Z</time>
      </trkpt>
      <trkpt lat="44.19623" lon="5.91607">
        <ele>568</ele>
        <time>2019-08-09T10:38:55Z</time>
      </trkpt>
      <trkpt lat="44.19625" lon="5.91601">
        <ele>569</ele>
        <time>2019-08-09T10:38:56Z</time>
      </trkpt>
      <trkpt lat="44.19626" lon="5.91595">
        <ele>569</ele>
        <time>2019-08-09T10:38:57Z</time>
      </trkpt>
      <trkpt lat="44.19628" lon="5.9159">
        <ele>569</ele>
        <time>2019-08-09T10:38:58Z</time>
      </trkpt>
      <trkpt lat="44.1963" lon="5.91584">
        <ele>569</ele>
        <time>2019-08-09T10:38:59Z</time>
      </trkpt>
      <trkpt lat="44.19632" lon="5.91579">
        <ele>569</ele>
        <time>2019-08-09T10:39:00Z</time>
      </trkpt>
      <trkpt lat="44.19633" lon="5.91573">
        <ele>569</ele>
        <time>2019-08-09T10:39:01Z</time>
      </trkpt>
      <trkpt lat="44.19635" lon="5.91567">
        <ele>569</ele>
        <time>2019-08-09T10:39:02Z</time>
      </trkpt>
      <trkpt lat="44.19637" lon="5.91562">
        <ele>569</ele>
        <time>2019-08-09T10:39:03Z</time>
      </trkpt>
      <trkpt lat="44.19638" lon="5.91557">
        <ele>569</ele>
        <time>2019-08-09T10:39:04Z</time>
      </trkpt>
      <trkpt lat="44.1964" lon="5.91551">
        <ele>569</ele>
        <time>2019-08-09T10:39:05Z</time>
      </trkpt>
      <trkpt lat="44.19642" lon="5.91545">
        <ele>569</ele>
        <time>2019-08-09T10:39:06Z</time>
      </trkpt>
      <trkpt lat="44.19643" lon="5.91539">
        <ele>569</ele>
        <time>2019-08-09T10:39:07Z</time>
      </trkpt>
      <trkpt lat="44.19645" lon="5.91534">
        <ele>569</ele>
        <time>2019-08-09T10:39:08Z</time>
      </trkpt>
      <trkpt lat="44.19648" lon="5.91529">
        <ele>569</ele>
        <time>2019-08-09T10:39:09Z</time>
      </trkpt>
      <trkpt lat="44.1965" lon="5.91523">
        <ele>569</ele>
        <time>2019-08-09T10:39:10Z</time>
      </trkpt>
      <trkpt lat="44.19652" lon="5.91518">
        <ele>569</ele>
        <time>2019-08-09T10:39:11Z</time>
      </trkpt>
      <trkpt lat="44.19654" lon="5.91512">
        <ele>569</ele>
        <time>2019-08-09T10:39:12Z</time>
      </trkpt>
      <trkpt lat="44.19656" lon="5.91506">
        <ele>569</ele>
        <time>2019-08-09T10:39:13Z</time>
      </trkpt>
      <trkpt lat="44.19659" lon="5.915">
        <ele>570</ele>
        <time>2019-08-09T10:39:14Z</time>
      </trkpt>
      <trkpt lat="44.19661" lon="5.91495">
        <ele>570</ele>
        <time>2019-08-09T10:39:15Z</time>
      </trkpt>
      <trkpt lat="44.19663" lon="5.91489">
        <ele>570</ele>
        <time>2019-08-09T10:39:16Z</time>
      </trkpt>
      <trkpt lat="44.19666" lon="5.91485">
        <ele>570</ele>
        <time>2019-08-09T10:39:17Z</time>
      </trkpt>
      <trkpt lat="44.19668" lon="5.9148">
        <ele>570</ele>
        <time>2019-08-09T10:39:18Z</time>
      </trkpt>
      <trkpt lat="44.1967" lon="5.91475">
        <ele>570</ele>
        <time>2019-08-09T10:39:19Z</time>
      </trkpt>
      <trkpt lat="44.19672" lon="5.9147">
        <ele>570</ele>
        <time>2019-08-09T10:39:20Z</time>
      </trkpt>
      <trkpt lat="44.19674" lon="5.91465">
        <ele>570</ele>
        <time>2019-08-09T10:39:21Z</time>
      </trkpt>
      <trkpt lat="44.19676" lon="5.9146">
        <ele>570</ele>
        <time>2019-08-09T10:39:22Z</time>
      </trkpt>
      <trkpt lat="44.19678" lon="5.91454">
        <ele>570</ele>
        <time>2019-08-09T10:39:23Z</time>
      </trkpt>
      <trkpt lat="44.1968" lon="5.91449">
        <ele>571</ele>
        <time>2019-08-09T10:39:24Z</time>
      </trkpt>
      <trkpt lat="44.19683" lon="5.91443">
        <ele>571</ele>
        <time>2019-08-09T10:39:25Z</time>
      </trkpt>
      <trkpt lat="44.19685" lon="5.91438">
        <ele>571</ele>
        <time>2019-08-09T10:39:26Z</time>
      </trkpt>
      <trkpt lat="44.19687" lon="5.91432">
        <ele>571</ele>
        <time>2019-08-09T10:39:27Z</time>
      </trkpt>
      <trkpt lat="44.19689" lon="5.91427">
        <ele>571</ele>
        <time>2019-08-09T10:39:28Z</time>
      </trkpt>
      <trkpt lat="44.19691" lon="5.91422">
        <ele>571</ele>
        <time>2019-08-09T10:39:29Z</time>
      </trkpt>
      <trkpt lat="44.19693" lon="5.91416">
        <ele>572</ele>
        <time>2019-08-09T10:39:30Z</time>
      </trkpt>
      <trkpt lat="44.19695" lon="5.91411">
        <ele>572</ele>
        <time>2019-08-09T10:39:31Z</time>
      </trkpt>
      <trkpt lat="44.19698" lon="5.91405">
        <ele>572</ele>
        <time>2019-08-09T10:39:32Z</time>
      </trkpt>
      <trkpt lat="44.197" lon="5.914">
        <ele>572</ele>
        <time>2019-08-09T10:39:33Z</time>
      </trkpt>
      <trkpt lat="44.19702" lon="5.91394">
        <ele>572</ele>
        <time>2019-08-09T10:39:34Z</time>
      </trkpt>
      <trkpt lat="44.19704" lon="5.91389">
        <ele>572</ele>
        <time>2019-08-09T10:39:35Z</time>
      </trkpt>
      <trkpt lat="44.19706" lon="5.91383">
        <ele>572</ele>
        <time>2019-08-09T10:39:36Z</time>
      </trkpt>
      <trkpt lat="44.19708" lon="5.91377">
        <ele>572</ele>
        <time>2019-08-09T10:39:37Z</time>
      </trkpt>
      <trkpt lat="44.1971" lon="5.91371">
        <ele>572</ele>
        <time>2019-08-09T10:39:38Z</time>
      </trkpt>
      <trkpt lat="44.19712" lon="5.91364">
        <ele>572</ele>
        <time>2019-08-09T10:39:39Z</time>
      </trkpt>
      <trkpt lat="44.19715" lon="5.91358">
        <ele>572</ele>
        <time>2019-08-09T10:39:40Z</time>
      </trkpt>
      <trkpt lat="44.19717" lon="5.91351">
        <ele>572</ele>
        <time>2019-08-09T10:39:41Z</time>
      </trkpt>
      <trkpt lat="44.1972" lon="5.91343">
        <ele>572</ele>
        <time>2019-08-09T10:39:42Z</time>
      </trkpt>
      <trkpt lat="44.19723" lon="5.91336">
        <ele>572</ele>
        <time>2019-08-09T10:39:43Z</time>
      </trkpt>
      <trkpt lat="44.19726" lon="5.91328">
        <ele>572</ele>
        <time>2019-08-09T10:39:44Z</time>
      </trkpt>
      <trkpt lat="44.19729" lon="5.9132">
        <ele>572</ele>
        <time>2019-08-09T10:39:45Z</time>
      </trkpt>
      <trkpt lat="44.19733" lon="5.91311">
        <ele>572</ele>
        <time>2019-08-09T10:39:46Z</time>
      </trkpt>
      <trkpt lat="44.19736" lon="5.91301">
        <ele>572</ele>
        <time>2019-08-09T10:39:47Z</time>
      </trkpt>
      <trkpt lat="44.1974" lon="5.91292">
        <ele>572</ele>
        <time>2019-08-09T10:39:48Z</time>
      </trkpt>
      <trkpt lat="44.19743" lon="5.91282">
        <ele>572</ele>
        <time>2019-08-09T10:39:49Z</time>
      </trkpt>
      <trkpt lat="44.19747" lon="5.91272">
        <ele>572</ele>
        <time>2019-08-09T10:39:50Z</time>
      </trkpt>
      <trkpt lat="44.19751" lon="5.91262">
        <ele>572</ele>
        <time>2019-08-09T10:39:51Z</time>
      </trkpt>
      <trkpt lat="44.19755" lon="5.91252">
        <ele>572</ele>
        <time>2019-08-09T10:39:52Z</time>
      </trkpt>
      <trkpt lat="44.19759" lon="5.91242">
        <ele>571</ele>
        <time>2019-08-09T10:39:53Z</time>
      </trkpt>
      <trkpt lat="44.19763" lon="5.91231">
        <ele>571</ele>
        <time>2019-08-09T10:39:54Z</time>
      </trkpt>
      <trkpt lat="44.19767" lon="5.91221">
        <ele>570</ele>
        <time>2019-08-09T10:39:55Z</time>
      </trkpt>
      <trkpt lat="44.19771" lon="5.9121">
        <ele>570</ele>
        <time>2019-08-09T10:39:56Z</time>
      </trkpt>
      <trkpt lat="44.19775" lon="5.912">
        <ele>569</ele>
        <time>2019-08-09T10:39:57Z</time>
      </trkpt>
      <trkpt lat="44.19779" lon="5.91189">
        <ele>569</ele>
        <time>2019-08-09T10:39:58Z</time>
      </trkpt>
      <trkpt lat="44.19783" lon="5.91178">
        <ele>568</ele>
        <time>2019-08-09T10:39:59Z</time>
      </trkpt>
      <trkpt lat="44.19786" lon="5.91167">
        <ele>568</ele>
        <time>2019-08-09T10:40:00Z</time>
      </trkpt>
      <trkpt lat="44.19789" lon="5.91155">
        <ele>567</ele>
        <time>2019-08-09T10:40:01Z</time>
      </trkpt>
      <trkpt lat="44.19792" lon="5.91143">
        <ele>567</ele>
        <time>2019-08-09T10:40:02Z</time>
      </trkpt>
      <trkpt lat="44.19794" lon="5.9113">
        <ele>567</ele>
        <time>2019-08-09T10:40:03Z</time>
      </trkpt>
      <trkpt lat="44.19796" lon="5.91118">
        <ele>566</ele>
        <time>2019-08-09T10:40:04Z</time>
      </trkpt>
      <trkpt lat="44.19798" lon="5.91105">
        <ele>566</ele>
        <time>2019-08-09T10:40:05Z</time>
      </trkpt>
      <trkpt lat="44.19801" lon="5.91093">
        <ele>566</ele>
        <time>2019-08-09T10:40:06Z</time>
      </trkpt>
      <trkpt lat="44.19805" lon="5.91081">
        <ele>565</ele>
        <time>2019-08-09T10:40:07Z</time>
      </trkpt>
      <trkpt lat="44.19809" lon="5.9107">
        <ele>564</ele>
        <time>2019-08-09T10:40:08Z</time>
      </trkpt>
      <trkpt lat="44.19813" lon="5.91059">
        <ele>564</ele>
        <time>2019-08-09T10:40:09Z</time>
      </trkpt>
      <trkpt lat="44.19817" lon="5.91048">
        <ele>563</ele>
        <time>2019-08-09T10:40:10Z</time>
      </trkpt>
      <trkpt lat="44.19818" lon="5.91036">
        <ele>563</ele>
        <time>2019-08-09T10:40:11Z</time>
      </trkpt>
      <trkpt lat="44.1982" lon="5.91023">
        <ele>562</ele>
        <time>2019-08-09T10:40:12Z</time>
      </trkpt>
      <trkpt lat="44.19822" lon="5.91011">
        <ele>562</ele>
        <time>2019-08-09T10:40:13Z</time>
      </trkpt>
      <trkpt lat="44.19823" lon="5.90999">
        <ele>561</ele>
        <time>2019-08-09T10:40:14Z</time>
      </trkpt>
      <trkpt lat="44.19825" lon="5.90986">
        <ele>561</ele>
        <time>2019-08-09T10:40:15Z</time>
      </trkpt>
      <trkpt lat="44.19827" lon="5.90972">
        <ele>560</ele>
        <time>2019-08-09T10:40:16Z</time>
      </trkpt>
      <trkpt lat="44.19828" lon="5.90957">
        <ele>560</ele>
        <time>2019-08-09T10:40:17Z</time>
      </trkpt>
      <trkpt lat="44.1983" lon="5.90943">
        <ele>559</ele>
        <time>2019-08-09T10:40:18Z</time>
      </trkpt>
      <trkpt lat="44.19833" lon="5.90928">
        <ele>558</ele>
        <time>2019-08-09T10:40:19Z</time>
      </trkpt>
      <trkpt lat="44.19835" lon="5.90913">
        <ele>558</ele>
        <time>2019-08-09T10:40:20Z</time>
      </trkpt>
      <trkpt lat="44.19838" lon="5.90899">
        <ele>557</ele>
        <time>2019-08-09T10:40:21Z</time>
      </trkpt>
      <trkpt lat="44.19839" lon="5.90886">
        <ele>556</ele>
        <time>2019-08-09T10:40:22Z</time>
      </trkpt>
      <trkpt lat="44.19839" lon="5.90873">
        <ele>556</ele>
        <time>2019-08-09T10:40:23Z</time>
      </trkpt>
      <trkpt lat="44.19838" lon="5.9086">
        <ele>555</ele>
        <time>2019-08-09T10:40:24Z</time>
      </trkpt>
      <trkpt lat="44.19835" lon="5.90847">
        <ele>555</ele>
        <time>2019-08-09T10:40:25Z</time>
      </trkpt>
      <trkpt lat="44.19831" lon="5.90836">
        <ele>554</ele>
        <time>2019-08-09T10:40:26Z</time>
      </trkpt>
      <trkpt lat="44.19827" lon="5.90825">
        <ele>553</ele>
        <time>2019-08-09T10:40:27Z</time>
      </trkpt>
      <trkpt lat="44.19824" lon="5.90814">
        <ele>553</ele>
        <time>2019-08-09T10:40:28Z</time>
      </trkpt>
      <trkpt lat="44.19823" lon="5.90803">
        <ele>552</ele>
        <time>2019-08-09T10:40:29Z</time>
      </trkpt>
      <trkpt lat="44.19824" lon="5.90792">
        <ele>551</ele>
        <time>2019-08-09T10:40:30Z</time>
      </trkpt>
      <trkpt lat="44.19827" lon="5.90782">
        <ele>551</ele>
        <time>2019-08-09T10:40:31Z</time>
      </trkpt>
      <trkpt lat="44.19833" lon="5.90774">
        <ele>550</ele>
        <time>2019-08-09T10:40:32Z</time>
      </trkpt>
      <trkpt lat="44.19841" lon="5.90768">
        <ele>549</ele>
        <time>2019-08-09T10:40:33Z</time>
      </trkpt>
      <trkpt lat="44.19848" lon="5.90762">
        <ele>548</ele>
        <time>2019-08-09T10:40:34Z</time>
      </trkpt>
      <trkpt lat="44.19857" lon="5.90757">
        <ele>547</ele>
        <time>2019-08-09T10:40:35Z</time>
      </trkpt>
      <trkpt lat="44.19867" lon="5.90754">
        <ele>546</ele>
        <time>2019-08-09T10:40:36Z</time>
      </trkpt>
      <trkpt lat="44.19876" lon="5.90752">
        <ele>545</ele>
        <time>2019-08-09T10:40:37Z</time>
      </trkpt>
      <trkpt lat="44.19885" lon="5.9075">
        <ele>544</ele>
        <time>2019-08-09T10:40:38Z</time>
      </trkpt>
      <trkpt lat="44.19894" lon="5.90748">
        <ele>543</ele>
        <time>2019-08-09T10:40:39Z</time>
      </trkpt>
      <trkpt lat="44.19904" lon="5.90745">
        <ele>542</ele>
        <time>2019-08-09T10:40:40Z</time>
      </trkpt>
      <trkpt lat="44.19912" lon="5.90741">
        <ele>541</ele>
        <time>2019-08-09T10:40:41Z</time>
      </trkpt>
      <trkpt lat="44.19922" lon="5.90736">
        <ele>540</ele>
        <time>2019-08-09T10:40:42Z</time>
      </trkpt>
      <trkpt lat="44.1993" lon="5.90729">
        <ele>539</ele>
        <time>2019-08-09T10:40:43Z</time>
      </trkpt>
      <trkpt lat="44.19939" lon="5.90721">
        <ele>538</ele>
        <time>2019-08-09T10:40:44Z</time>
      </trkpt>
      <trkpt lat="44.19946" lon="5.9071">
        <ele>537</ele>
        <time>2019-08-09T10:40:45Z</time>
      </trkpt>
      <trkpt lat="44.19953" lon="5.90698">
        <ele>536</ele>
        <time>2019-08-09T10:40:46Z</time>
      </trkpt>
      <trkpt lat="44.19958" lon="5.90685">
        <ele>535</ele>
        <time>2019-08-09T10:40:47Z</time>
      </trkpt>
      <trkpt lat="44.19963" lon="5.90671">
        <ele>534</ele>
        <time>2019-08-09T10:40:48Z</time>
      </trkpt>
      <trkpt lat="44.19967" lon="5.90658">
        <ele>533</ele>
        <time>2019-08-09T10:40:49Z</time>
      </trkpt>
      <trkpt lat="44.19972" lon="5.90644">
        <ele>532</ele>
        <time>2019-08-09T10:40:50Z</time>
      </trkpt>
      <trkpt lat="44.19976" lon="5.9063">
        <ele>531</ele>
        <time>2019-08-09T10:40:51Z</time>
      </trkpt>
      <trkpt lat="44.19981" lon="5.90618">
        <ele>530</ele>
        <time>2019-08-09T10:40:52Z</time>
      </trkpt>
      <trkpt lat="44.19986" lon="5.90606">
        <ele>529</ele>
        <time>2019-08-09T10:40:53Z</time>
      </trkpt>
      <trkpt lat="44.19991" lon="5.90593">
        <ele>528</ele>
        <time>2019-08-09T10:40:54Z</time>
      </trkpt>
      <trkpt lat="44.19994" lon="5.9058">
        <ele>527</ele>
        <time>2019-08-09T10:40:55Z</time>
      </trkpt>
      <trkpt lat="44.19998" lon="5.90566">
        <ele>526</ele>
        <time>2019-08-09T10:40:56Z</time>
      </trkpt>
      <trkpt lat="44.20001" lon="5.90551">
        <ele>525</ele>
        <time>2019-08-09T10:40:57Z</time>
      </trkpt>
      <trkpt lat="44.20004" lon="5.90535">
        <ele>524</ele>
        <time>2019-08-09T10:40:58Z</time>
      </trkpt>
      <trkpt lat="44.20006" lon="5.90519">
        <ele>523</ele>
        <time>2019-08-09T10:40:59Z</time>
      </trkpt>
      <trkpt lat="44.20008" lon="5.90503">
        <ele>522</ele>
        <time>2019-08-09T10:41:00Z</time>
      </trkpt>
      <trkpt lat="44.2001" lon="5.90488">
        <ele>521</ele>
        <time>2019-08-09T10:41:01Z</time>
      </trkpt>
      <trkpt lat="44.20015" lon="5.90474">
        <ele>521</ele>
        <time>2019-08-09T10:41:02Z</time>
      </trkpt>
      <trkpt lat="44.2002" lon="5.90459">
        <ele>520</ele>
        <time>2019-08-09T10:41:03Z</time>
      </trkpt>
      <trkpt lat="44.20024" lon="5.90445">
        <ele>519</ele>
        <time>2019-08-09T10:41:04Z</time>
      </trkpt>
      <trkpt lat="44.20028" lon="5.90431">
        <ele>518</ele>
        <time>2019-08-09T10:41:05Z</time>
      </trkpt>
      <trkpt lat="44.20031" lon="5.90416">
        <ele>517</ele>
        <time>2019-08-09T10:41:06Z</time>
      </trkpt>
      <trkpt lat="44.20032" lon="5.90402">
        <ele>516</ele>
        <time>2019-08-09T10:41:07Z</time>
      </trkpt>
      <trkpt lat="44.20033" lon="5.90387">
        <ele>515</ele>
        <time>2019-08-09T10:41:08Z</time>
      </trkpt>
      <trkpt lat="44.20035" lon="5.90374">
        <ele>514</ele>
        <time>2019-08-09T10:41:09Z</time>
      </trkpt>
      <trkpt lat="44.20039" lon="5.90361">
        <ele>513</ele>
        <time>2019-08-09T10:41:10Z</time>
      </trkpt>
      <trkpt lat="44.20045" lon="5.90351">
        <ele>512</ele>
        <time>2019-08-09T10:41:11Z</time>
      </trkpt>
      <trkpt lat="44.20052" lon="5.90341">
        <ele>511</ele>
        <time>2019-08-09T10:41:12Z</time>
      </trkpt>
      <trkpt lat="44.20058" lon="5.90329">
        <ele>510</ele>
        <time>2019-08-09T10:41:13Z</time>
      </trkpt>
      <trkpt lat="44.20064" lon="5.90318">
        <ele>509</ele>
        <time>2019-08-09T10:41:14Z</time>
      </trkpt>
      <trkpt lat="44.20071" lon="5.90307">
        <ele>508</ele>
        <time>2019-08-09T10:41:15Z</time>
      </trkpt>
      <trkpt lat="44.20077" lon="5.90295">
        <ele>507</ele>
        <time>2019-08-09T10:41:16Z</time>
      </trkpt>
      <trkpt lat="44.20083" lon="5.90283">
        <ele>506</ele>
        <time>2019-08-09T10:41:17Z</time>
      </trkpt>
      <trkpt lat="44.20088" lon="5.90271">
        <ele>505</ele>
        <time>2019-08-09T10:41:18Z</time>
      </trkpt>
      <trkpt lat="44.20095" lon="5.90259">
        <ele>504</ele>
        <time>2019-08-09T10:41:19Z</time>
      </trkpt>
      <trkpt lat="44.20103" lon="5.9025">
        <ele>503</ele>
        <time>2019-08-09T10:41:20Z</time>
      </trkpt>
      <trkpt lat="44.20112" lon="5.90242">
        <ele>502</ele>
        <time>2019-08-09T10:41:21Z</time>
      </trkpt>
      <trkpt lat="44.20121" lon="5.90236">
        <ele>501</ele>
        <time>2019-08-09T10:41:22Z</time>
      </trkpt>
      <trkpt lat="44.20131" lon="5.9023">
        <ele>500</ele>
        <time>2019-08-09T10:41:23Z</time>
      </trkpt>
      <trkpt lat="44.20141" lon="5.90224">
        <ele>500</ele>
        <time>2019-08-09T10:41:24Z</time>
      </trkpt>
      <trkpt lat="44.20151" lon="5.90218">
        <ele>499</ele>
        <time>2019-08-09T10:41:25Z</time>
      </trkpt>
      <trkpt lat="44.20161" lon="5.90213">
        <ele>498</ele>
        <time>2019-08-09T10:41:26Z</time>
      </trkpt>
      <trkpt lat="44.20171" lon="5.90207">
        <ele>498</ele>
        <time>2019-08-09T10:41:27Z</time>
      </trkpt>
      <trkpt lat="44.2018" lon="5.90201">
        <ele>497</ele>
        <time>2019-08-09T10:41:28Z</time>
      </trkpt>
      <trkpt lat="44.20189" lon="5.90194">
        <ele>496</ele>
        <time>2019-08-09T10:41:29Z</time>
      </trkpt>
      <trkpt lat="44.20197" lon="5.90186">
        <ele>496</ele>
        <time>2019-08-09T10:41:30Z</time>
      </trkpt>
      <trkpt lat="44.20204" lon="5.90178">
        <ele>495</ele>
        <time>2019-08-09T10:41:31Z</time>
      </trkpt>
      <trkpt lat="44.2021" lon="5.90169">
        <ele>494</ele>
        <time>2019-08-09T10:41:32Z</time>
      </trkpt>
      <trkpt lat="44.20214" lon="5.90159">
        <ele>493</ele>
        <time>2019-08-09T10:41:33Z</time>
      </trkpt>
      <trkpt lat="44.20219" lon="5.90147">
        <ele>492</ele>
        <time>2019-08-09T10:41:34Z</time>
      </trkpt>
      <trkpt lat="44.20223" lon="5.90136">
        <ele>491</ele>
        <time>2019-08-09T10:41:35Z</time>
      </trkpt>
      <trkpt lat="44.20227" lon="5.90125">
        <ele>490</ele>
        <time>2019-08-09T10:41:36Z</time>
      </trkpt>
      <trkpt lat="44.20231" lon="5.90115">
        <ele>489</ele>
        <time>2019-08-09T10:41:37Z</time>
      </trkpt>
      <trkpt lat="44.20234" lon="5.90105">
        <ele>488</ele>
        <time>2019-08-09T10:41:38Z</time>
      </trkpt>
      <trkpt lat="44.20237" lon="5.90097">
        <ele>487</ele>
        <time>2019-08-09T10:41:39Z</time>
      </trkpt>
      <trkpt lat="44.2024" lon="5.9009">
        <ele>486</ele>
        <time>2019-08-09T10:41:40Z</time>
      </trkpt>
      <trkpt lat="44.20244" lon="5.90086">
        <ele>485</ele>
        <time>2019-08-09T10:41:41Z</time>
      </trkpt>
      <trkpt lat="44.20248" lon="5.90084">
        <ele>485</ele>
        <time>2019-08-09T10:41:42Z</time>
      </trkpt>
      <trkpt lat="44.20252" lon="5.90083">
        <ele>484</ele>
        <time>2019-08-09T10:41:43Z</time>
      </trkpt>
      <trkpt lat="44.20256" lon="5.9008">
        <ele>483</ele>
        <time>2019-08-09T10:41:44Z</time>
      </trkpt>
      <trkpt lat="44.20259" lon="5.90075">
        <ele>482</ele>
        <time>2019-08-09T10:41:45Z</time>
      </trkpt>
      <trkpt lat="44.20261" lon="5.90067">
        <ele>482</ele>
        <time>2019-08-09T10:41:46Z</time>
      </trkpt>
      <trkpt lat="44.20263" lon="5.90059">
        <ele>481</ele>
        <time>2019-08-09T10:41:47Z</time>
      </trkpt>
      <trkpt lat="44.20264" lon="5.9005">
        <ele>481</ele>
        <time>2019-08-09T10:41:48Z</time>
      </trkpt>
      <trkpt lat="44.20265" lon="5.90041">
        <ele>481</ele>
        <time>2019-08-09T10:41:49Z</time>
      </trkpt>
      <trkpt lat="44.20266" lon="5.90031">
        <ele>481</ele>
        <time>2019-08-09T10:41:50Z</time>
      </trkpt>
      <trkpt lat="44.20268" lon="5.90021">
        <ele>481</ele>
        <time>2019-08-09T10:41:51Z</time>
      </trkpt>
      <trkpt lat="44.2027" lon="5.90011">
        <ele>481</ele>
        <time>2019-08-09T10:41:52Z</time>
      </trkpt>
      <trkpt lat="44.20272" lon="5.90001">
        <ele>481</ele>
        <time>2019-08-09T10:41:53Z</time>
      </trkpt>
      <trkpt lat="44.20274" lon="5.89992">
        <ele>481</ele>
        <time>2019-08-09T10:41:54Z</time>
      </trkpt>
      <trkpt lat="44.20276" lon="5.89982">
        <ele>481</ele>
        <time>2019-08-09T10:41:55Z</time>
      </trkpt>
      <trkpt lat="44.20279" lon="5.89973">
        <ele>481</ele>
        <time>2019-08-09T10:41:56Z</time>
      </trkpt>
      <trkpt lat="44.20281" lon="5.89964">
        <ele>481</ele>
        <time>2019-08-09T10:41:57Z</time>
      </trkpt>
      <trkpt lat="44.20283" lon="5.89956">
        <ele>481</ele>
        <time>2019-08-09T10:41:58Z</time>
      </trkpt>
      <trkpt lat="44.20285" lon="5.89947">
        <ele>481</ele>
        <time>2019-08-09T10:41:59Z</time>
      </trkpt>
      <trkpt lat="44.20287" lon="5.89938">
        <ele>481</ele>
        <time>2019-08-09T10:42:00Z</time>
      </trkpt>
      <trkpt lat="44.2029" lon="5.89928">
        <ele>481</ele>
        <time>2019-08-09T10:42:01Z</time>
      </trkpt>
      <trkpt lat="44.20292" lon="5.8992">
        <ele>481</ele>
        <time>2019-08-09T10:42:02Z</time>
      </trkpt>
      <trkpt lat="44.20295" lon="5.8991">
        <ele>481</ele>
        <time>2019-08-09T10:42:03Z</time>
      </trkpt>
      <trkpt lat="44.20297" lon="5.89901">
        <ele>481</ele>
        <time>2019-08-09T10:42:04Z</time>
      </trkpt>
      <trkpt lat="44.20299" lon="5.89892">
        <ele>481</ele>
        <time>2019-08-09T10:42:05Z</time>
      </trkpt>
      <trkpt lat="44.20302" lon="5.89883">
        <ele>481</ele>
        <time>2019-08-09T10:42:06Z</time>
      </trkpt>
      <trkpt lat="44.20304" lon="5.89873">
        <ele>481</ele>
        <time>2019-08-09T10:42:07Z</time>
      </trkpt>
      <trkpt lat="44.20306" lon="5.89864">
        <ele>481</ele>
        <time>2019-08-09T10:42:08Z</time>
      </trkpt>
      <trkpt lat="44.20309" lon="5.89854">
        <ele>481</ele>
        <time>2019-08-09T10:42:09Z</time>
      </trkpt>
      <trkpt lat="44.20311" lon="5.89845">
        <ele>481</ele>
        <time>2019-08-09T10:42:10Z</time>
      </trkpt>
      <trkpt lat="44.20313" lon="5.89835">
        <ele>481</ele>
        <time>2019-08-09T10:42:11Z</time>
      </trkpt>
      <trkpt lat="44.20316" lon="5.89826">
        <ele>481</ele>
        <time>2019-08-09T10:42:12Z</time>
      </trkpt>
      <trkpt lat="44.20318" lon="5.89817">
        <ele>481</ele>
        <time>2019-08-09T10:42:13Z</time>
      </trkpt>
      <trkpt lat="44.2032" lon="5.89808">
        <ele>481</ele>
        <time>2019-08-09T10:42:14Z</time>
      </trkpt>
      <trkpt lat="44.20322" lon="5.89798">
        <ele>481</ele>
        <time>2019-08-09T10:42:15Z</time>
      </trkpt>
      <trkpt lat="44.20325" lon="5.89789">
        <ele>481</ele>
        <time>2019-08-09T10:42:16Z</time>
      </trkpt>
      <trkpt lat="44.20327" lon="5.8978">
        <ele>481</ele>
        <time>2019-08-09T10:42:17Z</time>
      </trkpt>
      <trkpt lat="44.2033" lon="5.89771">
        <ele>481</ele>
        <time>2019-08-09T10:42:18Z</time>
      </trkpt>
      <trkpt lat="44.20332" lon="5.89762">
        <ele>481</ele>
        <time>2019-08-09T10:42:19Z</time>
      </trkpt>
      <trkpt lat="44.20334" lon="5.89752">
        <ele>481</ele>
        <time>2019-08-09T10:42:20Z</time>
      </trkpt>
      <trkpt lat="44.20337" lon="5.89744">
        <ele>481</ele>
        <time>2019-08-09T10:42:21Z</time>
      </trkpt>
      <trkpt lat="44.20339" lon="5.89735">
        <ele>481</ele>
        <time>2019-08-09T10:42:22Z</time>
      </trkpt>
      <trkpt lat="44.20341" lon="5.89726">
        <ele>481</ele>
        <time>2019-08-09T10:42:23Z</time>
      </trkpt>
      <trkpt lat="44.20343" lon="5.89717">
        <ele>481</ele>
        <time>2019-08-09T10:42:24Z</time>
      </trkpt>
      <trkpt lat="44.20345" lon="5.89709">
        <ele>481</ele>
        <time>2019-08-09T10:42:25Z</time>
      </trkpt>
      <trkpt lat="44.20348" lon="5.897">
        <ele>481</ele>
        <time>2019-08-09T10:42:26Z</time>
      </trkpt>
      <trkpt lat="44.2035" lon="5.89692">
        <ele>481</ele>
        <time>2019-08-09T10:42:27Z</time>
      </trkpt>
      <trkpt lat="44.20352" lon="5.89683">
        <ele>481</ele>
        <time>2019-08-09T10:42:28Z</time>
      </trkpt>
      <trkpt lat="44.20354" lon="5.89674">
        <ele>481</ele>
        <time>2019-08-09T10:42:29Z</time>
      </trkpt>
      <trkpt lat="44.20356" lon="5.89665">
        <ele>481</ele>
        <time>2019-08-09T10:42:30Z</time>
      </trkpt>
      <trkpt lat="44.20359" lon="5.89656">
        <ele>481</ele>
        <time>2019-08-09T10:42:31Z</time>
      </trkpt>
      <trkpt lat="44.20361" lon="5.89647">
        <ele>481</ele>
        <time>2019-08-09T10:42:32Z</time>
      </trkpt>
      <trkpt lat="44.20364" lon="5.89638">
        <ele>481</ele>
        <time>2019-08-09T10:42:33Z</time>
      </trkpt>
      <trkpt lat="44.20366" lon="5.89629">
        <ele>481</ele>
        <time>2019-08-09T10:42:34Z</time>
      </trkpt>
      <trkpt lat="44.20368" lon="5.89619">
        <ele>481</ele>
        <time>2019-08-09T10:42:35Z</time>
      </trkpt>
      <trkpt lat="44.20371" lon="5.8961">
        <ele>481</ele>
        <time>2019-08-09T10:42:36Z</time>
      </trkpt>
      <trkpt lat="44.20373" lon="5.89601">
        <ele>481</ele>
        <time>2019-08-09T10:42:37Z</time>
      </trkpt>
      <trkpt lat="44.20375" lon="5.89592">
        <ele>481</ele>
        <time>2019-08-09T10:42:38Z</time>
      </trkpt>
      <trkpt lat="44.20378" lon="5.89583">
        <ele>481</ele>
        <time>2019-08-09T10:42:39Z</time>
      </trkpt>
      <trkpt lat="44.2038" lon="5.89574">
        <ele>481</ele>
        <time>2019-08-09T10:42:40Z</time>
      </trkpt>
      <trkpt lat="44.20383" lon="5.89565">
        <ele>481</ele>
        <time>2019-08-09T10:42:41Z</time>
      </trkpt>
      <trkpt lat="44.20385" lon="5.89557">
        <ele>481</ele>
        <time>2019-08-09T10:42:42Z</time>
      </trkpt>
      <trkpt lat="44.20387" lon="5.89548">
        <ele>481</ele>
        <time>2019-08-09T10:42:43Z</time>
      </trkpt>
      <trkpt lat="44.20389" lon="5.89538">
        <ele>481</ele>
        <time>2019-08-09T10:42:44Z</time>
      </trkpt>
      <trkpt lat="44.20391" lon="5.89529">
        <ele>481</ele>
        <time>2019-08-09T10:42:45Z</time>
      </trkpt>
      <trkpt lat="44.20393" lon="5.8952">
        <ele>481</ele>
        <time>2019-08-09T10:42:46Z</time>
      </trkpt>
      <trkpt lat="44.20396" lon="5.89511">
        <ele>481</ele>
        <time>2019-08-09T10:42:47Z</time>
      </trkpt>
      <trkpt lat="44.20398" lon="5.89502">
        <ele>481</ele>
        <time>2019-08-09T10:42:48Z</time>
      </trkpt>
      <trkpt lat="44.20401" lon="5.89493">
        <ele>481</ele>
        <time>2019-08-09T10:42:49Z</time>
      </trkpt>
      <trkpt lat="44.20403" lon="5.89485">
        <ele>481</ele>
        <time>2019-08-09T10:42:50Z</time>
      </trkpt>
      <trkpt lat="44.20406" lon="5.89476">
        <ele>481</ele>
        <time>2019-08-09T10:42:51Z</time>
      </trkpt>
      <trkpt lat="44.20408" lon="5.89467">
        <ele>481</ele>
        <time>2019-08-09T10:42:52Z</time>
      </trkpt>
      <trkpt lat="44.2041" lon="5.89458">
        <ele>481</ele>
        <time>2019-08-09T10:42:53Z</time>
      </trkpt>
      <trkpt lat="44.20413" lon="5.89448">
        <ele>481</ele>
        <time>2019-08-09T10:42:54Z</time>
      </trkpt>
      <trkpt lat="44.20415" lon="5.89439">
        <ele>481</ele>
        <time>2019-08-09T10:42:55Z</time>
      </trkpt>
      <trkpt lat="44.20417" lon="5.8943">
        <ele>481</ele>
        <time>2019-08-09T10:42:56Z</time>
      </trkpt>
      <trkpt lat="44.2042" lon="5.89421">
        <ele>481</ele>
        <time>2019-08-09T10:42:57Z</time>
      </trkpt>
      <trkpt lat="44.20422" lon="5.89411">
        <ele>481</ele>
        <time>2019-08-09T10:42:58Z</time>
      </trkpt>
      <trkpt lat="44.20425" lon="5.89401">
        <ele>481</ele>
        <time>2019-08-09T10:42:59Z</time>
      </trkpt>
      <trkpt lat="44.20427" lon="5.89391">
        <ele>481</ele>
        <time>2019-08-09T10:43:00Z</time>
      </trkpt>
      <trkpt lat="44.20429" lon="5.89382">
        <ele>481</ele>
        <time>2019-08-09T10:43:01Z</time>
      </trkpt>
      <trkpt lat="44.20432" lon="5.89371">
        <ele>481</ele>
        <time>2019-08-09T10:43:02Z</time>
      </trkpt>
      <trkpt lat="44.20435" lon="5.89362">
        <ele>481</ele>
        <time>2019-08-09T10:43:03Z</time>
      </trkpt>
      <trkpt lat="44.20437" lon="5.89352">
        <ele>481</ele>
        <time>2019-08-09T10:43:04Z</time>
      </trkpt>
      <trkpt lat="44.2044" lon="5.89342">
        <ele>481</ele>
        <time>2019-08-09T10:43:05Z</time>
      </trkpt>
      <trkpt lat="44.20442" lon="5.89332">
        <ele>481</ele>
        <time>2019-08-09T10:43:06Z</time>
      </trkpt>
      <trkpt lat="44.20445" lon="5.89322">
        <ele>481</ele>
        <time>2019-08-09T10:43:07Z</time>
      </trkpt>
      <trkpt lat="44.20448" lon="5.89312">
        <ele>481</ele>
        <time>2019-08-09T10:43:08Z</time>
      </trkpt>
      <trkpt lat="44.20451" lon="5.89301">
        <ele>481</ele>
        <time>2019-08-09T10:43:09Z</time>
      </trkpt>
      <trkpt lat="44.20453" lon="5.89291">
        <ele>481</ele>
        <time>2019-08-09T10:43:10Z</time>
      </trkpt>
      <trkpt lat="44.20456" lon="5.89281">
        <ele>481</ele>
        <time>2019-08-09T10:43:11Z</time>
      </trkpt>
      <trkpt lat="44.20459" lon="5.89271">
        <ele>481</ele>
        <time>2019-08-09T10:43:12Z</time>
      </trkpt>
      <trkpt lat="44.20461" lon="5.8926">
        <ele>481</ele>
        <time>2019-08-09T10:43:13Z</time>
      </trkpt>
      <trkpt lat="44.20464" lon="5.8925">
        <ele>481</ele>
        <time>2019-08-09T10:43:14Z</time>
      </trkpt>
      <trkpt lat="44.20467" lon="5.8924">
        <ele>481</ele>
        <time>2019-08-09T10:43:15Z</time>
      </trkpt>
      <trkpt lat="44.20469" lon="5.89229">
        <ele>481</ele>
        <time>2019-08-09T10:43:16Z</time>
      </trkpt>
      <trkpt lat="44.20472" lon="5.89219">
        <ele>481</ele>
        <time>2019-08-09T10:43:17Z</time>
      </trkpt>
      <trkpt lat="44.20474" lon="5.89209">
        <ele>481</ele>
        <time>2019-08-09T10:43:18Z</time>
      </trkpt>
      <trkpt lat="44.20477" lon="5.89199">
        <ele>481</ele>
        <time>2019-08-09T10:43:19Z</time>
      </trkpt>
      <trkpt lat="44.2048" lon="5.89188">
        <ele>481</ele>
        <time>2019-08-09T10:43:20Z</time>
      </trkpt>
      <trkpt lat="44.20482" lon="5.89178">
        <ele>481</ele>
        <time>2019-08-09T10:43:21Z</time>
      </trkpt>
      <trkpt lat="44.20485" lon="5.89168">
        <ele>481</ele>
        <time>2019-08-09T10:43:22Z</time>
      </trkpt>
      <trkpt lat="44.20487" lon="5.89158">
        <ele>481</ele>
        <time>2019-08-09T10:43:23Z</time>
      </trkpt>
      <trkpt lat="44.2049" lon="5.89148">
        <ele>481</ele>
        <time>2019-08-09T10:43:24Z</time>
      </trkpt>
      <trkpt lat="44.20492" lon="5.89138">
        <ele>481</ele>
        <time>2019-08-09T10:43:25Z</time>
      </trkpt>
      <trkpt lat="44.20495" lon="5.89128">
        <ele>481</ele>
        <time>2019-08-09T10:43:26Z</time>
      </trkpt>
      <trkpt lat="44.20497" lon="5.89118">
        <ele>481</ele>
        <time>2019-08-09T10:43:27Z</time>
      </trkpt>
      <trkpt lat="44.205" lon="5.89108">
        <ele>481</ele>
        <time>2019-08-09T10:43:28Z</time>
      </trkpt>
      <trkpt lat="44.20502" lon="5.89098">
        <ele>481</ele>
        <time>2019-08-09T10:43:29Z</time>
      </trkpt>
      <trkpt lat="44.20505" lon="5.89088">
        <ele>481</ele>
        <time>2019-08-09T10:43:30Z</time>
      </trkpt>
      <trkpt lat="44.20507" lon="5.89079">
        <ele>481</ele>
        <time>2019-08-09T10:43:31Z</time>
      </trkpt>
      <trkpt lat="44.20509" lon="5.89069">
        <ele>481</ele>
        <time>2019-08-09T10:43:32Z</time>
      </trkpt>
      <trkpt lat="44.20512" lon="5.8906">
        <ele>481</ele>
        <time>2019-08-09T10:43:33Z</time>
      </trkpt>
      <trkpt lat="44.20514" lon="5.89051">
        <ele>481</ele>
        <time>2019-08-09T10:43:34Z</time>
      </trkpt>
      <trkpt lat="44.20517" lon="5.89041">
        <ele>481</ele>
        <time>2019-08-09T10:43:35Z</time>
      </trkpt>
      <trkpt lat="44.20519" lon="5.89032">
        <ele>481</ele>
        <time>2019-08-09T10:43:36Z</time>
      </trkpt>
      <trkpt lat="44.20521" lon="5.89022">
        <ele>481</ele>
        <time>2019-08-09T10:43:37Z</time>
      </trkpt>
      <trkpt lat="44.20524" lon="5.89013">
        <ele>481</ele>
        <time>2019-08-09T10:43:38Z</time>
      </trkpt>
      <trkpt lat="44.20526" lon="5.89004">
        <ele>481</ele>
        <time>2019-08-09T10:43:39Z</time>
      </trkpt>
      <trkpt lat="44.20528" lon="5.88994">
        <ele>481</ele>
        <time>2019-08-09T10:43:40Z</time>
      </trkpt>
      <trkpt lat="44.20531" lon="5.88985">
        <ele>481</ele>
        <time>2019-08-09T10:43:41Z</time>
      </trkpt>
      <trkpt lat="44.20533" lon="5.88976">
        <ele>481</ele>
        <time>2019-08-09T10:43:42Z</time>
      </trkpt>
      <trkpt lat="44.20536" lon="5.88967">
        <ele>481</ele>
        <time>2019-08-09T10:43:43Z</time>
      </trkpt>
      <trkpt lat="44.20538" lon="5.88958">
        <ele>481</ele>
        <time>2019-08-09T10:43:44Z</time>
      </trkpt>
      <trkpt lat="44.2054" lon="5.88948">
        <ele>481</ele>
        <time>2019-08-09T10:43:45Z</time>
      </trkpt>
      <trkpt lat="44.20542" lon="5.88939">
        <ele>481</ele>
        <time>2019-08-09T10:43:46Z</time>
      </trkpt>
      <trkpt lat="44.20545" lon="5.8893">
        <ele>481</ele>
        <time>2019-08-09T10:43:47Z</time>
      </trkpt>
      <trkpt lat="44.20547" lon="5.88921">
        <ele>481</ele>
        <time>2019-08-09T10:43:48Z</time>
      </trkpt>
      <trkpt lat="44.20549" lon="5.88912">
        <ele>481</ele>
        <time>2019-08-09T10:43:49Z</time>
      </trkpt>
      <trkpt lat="44.20552" lon="5.88904">
        <ele>481</ele>
        <time>2019-08-09T10:43:50Z</time>
      </trkpt>
      <trkpt lat="44.20554" lon="5.88895">
        <ele>481</ele>
        <time>2019-08-09T10:43:51Z</time>
      </trkpt>
      <trkpt lat="44.20556" lon="5.88886">
        <ele>481</ele>
        <time>2019-08-09T10:43:52Z</time>
      </trkpt>
      <trkpt lat="44.20558" lon="5.88877">
        <ele>481</ele>
        <time>2019-08-09T10:43:53Z</time>
      </trkpt>
      <trkpt lat="44.2056" lon="5.88868">
        <ele>481</ele>
        <time>2019-08-09T10:43:54Z</time>
      </trkpt>
      <trkpt lat="44.20563" lon="5.88859">
        <ele>481</ele>
        <time>2019-08-09T10:43:55Z</time>
      </trkpt>
      <trkpt lat="44.20565" lon="5.88849">
        <ele>481</ele>
        <time>2019-08-09T10:43:56Z</time>
      </trkpt>
      <trkpt lat="44.20567" lon="5.8884">
        <ele>481</ele>
        <time>2019-08-09T10:43:57Z</time>
      </trkpt>
      <trkpt lat="44.20569" lon="5.88831">
        <ele>481</ele>
        <time>2019-08-09T10:43:58Z</time>
      </trkpt>
      <trkpt lat="44.20572" lon="5.88823">
        <ele>481</ele>
        <time>2019-08-09T10:43:59Z</time>
      </trkpt>
      <trkpt lat="44.20574" lon="5.88814">
        <ele>481</ele>
        <time>2019-08-09T10:44:00Z</time>
      </trkpt>
      <trkpt lat="44.20577" lon="5.88805">
        <ele>481</ele>
        <time>2019-08-09T10:44:01Z</time>
      </trkpt>
      <trkpt lat="44.20579" lon="5.88796">
        <ele>481</ele>
        <time>2019-08-09T10:44:02Z</time>
      </trkpt>
      <trkpt lat="44.20581" lon="5.88787">
        <ele>481</ele>
        <time>2019-08-09T10:44:03Z</time>
      </trkpt>
      <trkpt lat="44.20583" lon="5.88778">
        <ele>481</ele>
        <time>2019-08-09T10:44:04Z</time>
      </trkpt>
      <trkpt lat="44.20586" lon="5.88769">
        <ele>481</ele>
        <time>2019-08-09T10:44:05Z</time>
      </trkpt>
      <trkpt lat="44.20588" lon="5.8876">
        <ele>481</ele>
        <time>2019-08-09T10:44:06Z</time>
      </trkpt>
      <trkpt lat="44.2059" lon="5.88751">
        <ele>481</ele>
        <time>2019-08-09T10:44:07Z</time>
      </trkpt>
      <trkpt lat="44.20592" lon="5.88741">
        <ele>481</ele>
        <time>2019-08-09T10:44:08Z</time>
      </trkpt>
      <trkpt lat="44.20595" lon="5.88732">
        <ele>481</ele>
        <time>2019-08-09T10:44:09Z</time>
      </trkpt>
      <trkpt lat="44.20597" lon="5.88723">
        <ele>481</ele>
        <time>2019-08-09T10:44:10Z</time>
      </trkpt>
      <trkpt lat="44.20599" lon="5.88714">
        <ele>481</ele>
        <time>2019-08-09T10:44:11Z</time>
      </trkpt>
      <trkpt lat="44.20602" lon="5.88705">
        <ele>481</ele>
        <time>2019-08-09T10:44:12Z</time>
      </trkpt>
      <trkpt lat="44.20604" lon="5.88696">
        <ele>481</ele>
        <time>2019-08-09T10:44:13Z</time>
      </trkpt>
      <trkpt lat="44.20606" lon="5.88688">
        <ele>481</ele>
        <time>2019-08-09T10:44:14Z</time>
      </trkpt>
      <trkpt lat="44.20608" lon="5.88679">
        <ele>481</ele>
        <time>2019-08-09T10:44:15Z</time>
      </trkpt>
      <trkpt lat="44.2061" lon="5.88671">
        <ele>481</ele>
        <time>2019-08-09T10:44:16Z</time>
      </trkpt>
      <trkpt lat="44.20613" lon="5.88662">
        <ele>481</ele>
        <time>2019-08-09T10:44:17Z</time>
      </trkpt>
      <trkpt lat="44.20615" lon="5.88654">
        <ele>481</ele>
        <time>2019-08-09T10:44:18Z</time>
      </trkpt>
      <trkpt lat="44.20617" lon="5.88646">
        <ele>481</ele>
        <time>2019-08-09T10:44:19Z</time>
      </trkpt>
      <trkpt lat="44.20619" lon="5.88638">
        <ele>481</ele>
        <time>2019-08-09T10:44:20Z</time>
      </trkpt>
      <trkpt lat="44.20621" lon="5.88629">
        <ele>481</ele>
        <time>2019-08-09T10:44:21Z</time>
      </trkpt>
      <trkpt lat="44.20623" lon="5.88621">
        <ele>481</ele>
        <time>2019-08-09T10:44:22Z</time>
      </trkpt>
      <trkpt lat="44.20625" lon="5.88613">
        <ele>481</ele>
        <time>2019-08-09T10:44:23Z</time>
      </trkpt>
      <trkpt lat="44.20627" lon="5.88605">
        <ele>481</ele>
        <time>2019-08-09T10:44:24Z</time>
      </trkpt>
      <trkpt lat="44.20629" lon="5.88598">
        <ele>481</ele>
        <time>2019-08-09T10:44:25Z</time>
      </trkpt>
      <trkpt lat="44.20631" lon="5.8859">
        <ele>482</ele>
        <time>2019-08-09T10:44:26Z</time>
      </trkpt>
      <trkpt lat="44.20633" lon="5.88583">
        <ele>482</ele>
        <time>2019-08-09T10:44:27Z</time>
      </trkpt>
      <trkpt lat="44.20635" lon="5.88575">
        <ele>482</ele>
        <time>2019-08-09T10:44:28Z</time>
      </trkpt>
      <trkpt lat="44.20637" lon="5.88567">
        <ele>482</ele>
        <time>2019-08-09T10:44:29Z</time>
      </trkpt>
      <trkpt lat="44.20639" lon="5.88559">
        <ele>482</ele>
        <time>2019-08-09T10:44:30Z</time>
      </trkpt>
      <trkpt lat="44.2064" lon="5.88552">
        <ele>482</ele>
        <time>2019-08-09T10:44:31Z</time>
      </trkpt>
      <trkpt lat="44.20642" lon="5.88544">
        <ele>482</ele>
        <time>2019-08-09T10:44:32Z</time>
      </trkpt>
      <trkpt lat="44.20644" lon="5.88537">
        <ele>482</ele>
        <time>2019-08-09T10:44:33Z</time>
      </trkpt>
      <trkpt lat="44.20647" lon="5.88529">
        <ele>482</ele>
        <time>2019-08-09T10:44:34Z</time>
      </trkpt>
      <trkpt lat="44.20649" lon="5.88521">
        <ele>482</ele>
        <time>2019-08-09T10:44:35Z</time>
      </trkpt>
      <trkpt lat="44.2065" lon="5.88514">
        <ele>482</ele>
        <time>2019-08-09T10:44:36Z</time>
      </trkpt>
      <trkpt lat="44.20652" lon="5.88506">
        <ele>482</ele>
        <time>2019-08-09T10:44:37Z</time>
      </trkpt>
      <trkpt lat="44.20654" lon="5.88498">
        <ele>482</ele>
        <time>2019-08-09T10:44:38Z</time>
      </trkpt>
      <trkpt lat="44.20656" lon="5.8849">
        <ele>482</ele>
        <time>2019-08-09T10:44:39Z</time>
      </trkpt>
      <trkpt lat="44.20658" lon="5.88483">
        <ele>482</ele>
        <time>2019-08-09T10:44:40Z</time>
      </trkpt>
      <trkpt lat="44.2066" lon="5.88475">
        <ele>482</ele>
        <time>2019-08-09T10:44:41Z</time>
      </trkpt>
      <trkpt lat="44.20662" lon="5.88467">
        <ele>482</ele>
        <time>2019-08-09T10:44:42Z</time>
      </trkpt>
      <trkpt lat="44.20664" lon="5.88459">
        <ele>482</ele>
        <time>2019-08-09T10:44:43Z</time>
      </trkpt>
      <trkpt lat="44.20666" lon="5.88451">
        <ele>482</ele>
        <time>2019-08-09T10:44:44Z</time>
      </trkpt>
      <trkpt lat="44.20668" lon="5.88444">
        <ele>482</ele>
        <time>2019-08-09T10:44:45Z</time>
      </trkpt>
      <trkpt lat="44.2067" lon="5.88436">
        <ele>482</ele>
        <time>2019-08-09T10:44:46Z</time>
      </trkpt>
      <trkpt lat="44.20672" lon="5.88428">
        <ele>482</ele>
        <time>2019-08-09T10:44:47Z</time>
      </trkpt>
      <trkpt lat="44.20674" lon="5.8842">
        <ele>482</ele>
        <time>2019-08-09T10:44:48Z</time>
      </trkpt>
      <trkpt lat="44.20676" lon="5.88412">
        <ele>482</ele>
        <time>2019-08-09T10:44:49Z</time>
      </trkpt>
      <trkpt lat="44.20678" lon="5.88404">
        <ele>482</ele>
        <time>2019-08-09T10:44:50Z</time>
      </trkpt>
      <trkpt lat="44.2068" lon="5.88396">
        <ele>482</ele>
        <time>2019-08-09T10:44:51Z</time>
      </trkpt>
      <trkpt lat="44.20683" lon="5.88388">
        <ele>482</ele>
        <time>2019-08-09T10:44:52Z</time>
      </trkpt>
      <trkpt lat="44.20684" lon="5.8838">
        <ele>482</ele>
        <time>2019-08-09T10:44:53Z</time>
      </trkpt>
      <trkpt lat="44.20687" lon="5.88372">
        <ele>482</ele>
        <time>2019-08-09T10:44:54Z</time>
      </trkpt>
      <trkpt lat="44.20689" lon="5.88364">
        <ele>482</ele>
        <time>2019-08-09T10:44:55Z</time>
      </trkpt>
      <trkpt lat="44.20691" lon="5.88355">
        <ele>482</ele>
        <time>2019-08-09T10:44:56Z</time>
      </trkpt>
      <trkpt lat="44.20692" lon="5.88348">
        <ele>482</ele>
        <time>2019-08-09T10:44:57Z</time>
      </trkpt>
      <trkpt lat="44.20694" lon="5.8834">
        <ele>482</ele>
        <time>2019-08-09T10:44:58Z</time>
      </trkpt>
      <trkpt lat="44.20697" lon="5.88332">
        <ele>482</ele>
        <time>2019-08-09T10:44:59Z</time>
      </trkpt>
      <trkpt lat="44.20699" lon="5.88324">
        <ele>482</ele>
        <time>2019-08-09T10:45:00Z</time>
      </trkpt>
      <trkpt lat="44.207" lon="5.88317">
        <ele>482</ele>
        <time>2019-08-09T10:45:01Z</time>
      </trkpt>
      <trkpt lat="44.20702" lon="5.88309">
        <ele>482</ele>
        <time>2019-08-09T10:45:02Z</time>
      </trkpt>
      <trkpt lat="44.20704" lon="5.88302">
        <ele>482</ele>
        <time>2019-08-09T10:45:03Z</time>
      </trkpt>
      <trkpt lat="44.20706" lon="5.88294">
        <ele>482</ele>
        <time>2019-08-09T10:45:04Z</time>
      </trkpt>
      <trkpt lat="44.20708" lon="5.88287">
        <ele>482</ele>
        <time>2019-08-09T10:45:05Z</time>
      </trkpt>
      <trkpt lat="44.2071" lon="5.88279">
        <ele>482</ele>
        <time>2019-08-09T10:45:06Z</time>
      </trkpt>
      <trkpt lat="44.20712" lon="5.88271">
        <ele>483</ele>
        <time>2019-08-09T10:45:07Z</time>
      </trkpt>
      <trkpt lat="44.20714" lon="5.88263">
        <ele>483</ele>
        <time>2019-08-09T10:45:08Z</time>
      </trkpt>
      <trkpt lat="44.20716" lon="5.88256">
        <ele>483</ele>
        <time>2019-08-09T10:45:09Z</time>
      </trkpt>
      <trkpt lat="44.20718" lon="5.88248">
        <ele>483</ele>
        <time>2019-08-09T10:45:10Z</time>
      </trkpt>
      <trkpt lat="44.2072" lon="5.8824">
        <ele>483</ele>
        <time>2019-08-09T10:45:11Z</time>
      </trkpt>
      <trkpt lat="44.20722" lon="5.88233">
        <ele>483</ele>
        <time>2019-08-09T10:45:12Z</time>
      </trkpt>
      <trkpt lat="44.20724" lon="5.88225">
        <ele>483</ele>
        <time>2019-08-09T10:45:13Z</time>
      </trkpt>
      <trkpt lat="44.20726" lon="5.88217">
        <ele>483</ele>
        <time>2019-08-09T10:45:14Z</time>
      </trkpt>
      <trkpt lat="44.20729" lon="5.88209">
        <ele>483</ele>
        <time>2019-08-09T10:45:15Z</time>
      </trkpt>
      <trkpt lat="44.20731" lon="5.88202">
        <ele>483</ele>
        <time>2019-08-09T10:45:16Z</time>
      </trkpt>
      <trkpt lat="44.20732" lon="5.88194">
        <ele>483</ele>
        <time>2019-08-09T10:45:17Z</time>
      </trkpt>
      <trkpt lat="44.20734" lon="5.88186">
        <ele>483</ele>
        <time>2019-08-09T10:45:18Z</time>
      </trkpt>
      <trkpt lat="44.20736" lon="5.88178">
        <ele>483</ele>
        <time>2019-08-09T10:45:19Z</time>
      </trkpt>
      <trkpt lat="44.20738" lon="5.88171">
        <ele>483</ele>
        <time>2019-08-09T10:45:20Z</time>
      </trkpt>
      <trkpt lat="44.2074" lon="5.88163">
        <ele>483</ele>
        <time>2019-08-09T10:45:21Z</time>
      </trkpt>
      <trkpt lat="44.20742" lon="5.88156">
        <ele>483</ele>
        <time>2019-08-09T10:45:22Z</time>
      </trkpt>
      <trkpt lat="44.20744" lon="5.88148">
        <ele>483</ele>
        <time>2019-08-09T10:45:23Z</time>
      </trkpt>
      <trkpt lat="44.20746" lon="5.8814">
        <ele>483</ele>
        <time>2019-08-09T10:45:24Z</time>
      </trkpt>
      <trkpt lat="44.20748" lon="5.88133">
        <ele>483</ele>
        <time>2019-08-09T10:45:25Z</time>
      </trkpt>
      <trkpt lat="44.2075" lon="5.88125">
        <ele>483</ele>
        <time>2019-08-09T10:45:26Z</time>
      </trkpt>
      <trkpt lat="44.20752" lon="5.88118">
        <ele>483</ele>
        <time>2019-08-09T10:45:27Z</time>
      </trkpt>
      <trkpt lat="44.20753" lon="5.8811">
        <ele>483</ele>
        <time>2019-08-09T10:45:28Z</time>
      </trkpt>
      <trkpt lat="44.20755" lon="5.88102">
        <ele>483</ele>
        <time>2019-08-09T10:45:29Z</time>
      </trkpt>
      <trkpt lat="44.20757" lon="5.88095">
        <ele>483</ele>
        <time>2019-08-09T10:45:30Z</time>
      </trkpt>
      <trkpt lat="44.2076" lon="5.88087">
        <ele>483</ele>
        <time>2019-08-09T10:45:31Z</time>
      </trkpt>
      <trkpt lat="44.20762" lon="5.8808">
        <ele>483</ele>
        <time>2019-08-09T10:45:32Z</time>
      </trkpt>
      <trkpt lat="44.20764" lon="5.88072">
        <ele>483</ele>
        <time>2019-08-09T10:45:33Z</time>
      </trkpt>
      <trkpt lat="44.20766" lon="5.88064">
        <ele>483</ele>
        <time>2019-08-09T10:45:34Z</time>
      </trkpt>
      <trkpt lat="44.20768" lon="5.88056">
        <ele>483</ele>
        <time>2019-08-09T10:45:35Z</time>
      </trkpt>
      <trkpt lat="44.2077" lon="5.88048">
        <ele>483</ele>
        <time>2019-08-09T10:45:36Z</time>
      </trkpt>
      <trkpt lat="44.20772" lon="5.8804">
        <ele>483</ele>
        <time>2019-08-09T10:45:37Z</time>
      </trkpt>
      <trkpt lat="44.20774" lon="5.88032">
        <ele>483</ele>
        <time>2019-08-09T10:45:38Z</time>
      </trkpt>
      <trkpt lat="44.20776" lon="5.88025">
        <ele>483</ele>
        <time>2019-08-09T10:45:39Z</time>
      </trkpt>
      <trkpt lat="44.20778" lon="5.88017">
        <ele>483</ele>
        <time>2019-08-09T10:45:40Z</time>
      </trkpt>
      <trkpt lat="44.2078" lon="5.88009">
        <ele>483</ele>
        <time>2019-08-09T10:45:41Z</time>
      </trkpt>
      <trkpt lat="44.20782" lon="5.88001">
        <ele>483</ele>
        <time>2019-08-09T10:45:42Z</time>
      </trkpt>
      <trkpt lat="44.20784" lon="5.87994">
        <ele>483</ele>
        <time>2019-08-09T10:45:43Z</time>
      </trkpt>
      <trkpt lat="44.20786" lon="5.87986">
        <ele>483</ele>
        <time>2019-08-09T10:45:44Z</time>
      </trkpt>
      <trkpt lat="44.20787" lon="5.87979">
        <ele>483</ele>
        <time>2019-08-09T10:45:45Z</time>
      </trkpt>
      <trkpt lat="44.20789" lon="5.87971">
        <ele>483</ele>
        <time>2019-08-09T10:45:46Z</time>
      </trkpt>
      <trkpt lat="44.20791" lon="5.87963">
        <ele>483</ele>
        <time>2019-08-09T10:45:47Z</time>
      </trkpt>
      <trkpt lat="44.20793" lon="5.87956">
        <ele>483</ele>
        <time>2019-08-09T10:45:48Z</time>
      </trkpt>
      <trkpt lat="44.20795" lon="5.87949">
        <ele>483</ele>
        <time>2019-08-09T10:45:49Z</time>
      </trkpt>
      <trkpt lat="44.20797" lon="5.87941">
        <ele>483</ele>
        <time>2019-08-09T10:45:50Z</time>
      </trkpt>
      <trkpt lat="44.20799" lon="5.87934">
        <ele>484</ele>
        <time>2019-08-09T10:45:51Z</time>
      </trkpt>
      <trkpt lat="44.20802" lon="5.87926">
        <ele>484</ele>
        <time>2019-08-09T10:45:52Z</time>
      </trkpt>
      <trkpt lat="44.20804" lon="5.87919">
        <ele>484</ele>
        <time>2019-08-09T10:45:53Z</time>
      </trkpt>
      <trkpt lat="44.20806" lon="5.87912">
        <ele>484</ele>
        <time>2019-08-09T10:45:54Z</time>
      </trkpt>
      <trkpt lat="44.20808" lon="5.87904">
        <ele>484</ele>
        <time>2019-08-09T10:45:55Z</time>
      </trkpt>
      <trkpt lat="44.2081" lon="5.87896">
        <ele>484</ele>
        <time>2019-08-09T10:45:56Z</time>
      </trkpt>
      <trkpt lat="44.20812" lon="5.87889">
        <ele>485</ele>
        <time>2019-08-09T10:45:57Z</time>
      </trkpt>
      <trkpt lat="44.20815" lon="5.87881">
        <ele>485</ele>
        <time>2019-08-09T10:45:58Z</time>
      </trkpt>
      <trkpt lat="44.20817" lon="5.87873">
        <ele>485</ele>
        <time>2019-08-09T10:45:59Z</time>
      </trkpt>
      <trkpt lat="44.20819" lon="5.87865">
        <ele>485</ele>
        <time>2019-08-09T10:46:00Z</time>
      </trkpt>
      <trkpt lat="44.20822" lon="5.87858">
        <ele>485</ele>
        <time>2019-08-09T10:46:01Z</time>
      </trkpt>
      <trkpt lat="44.20824" lon="5.8785">
        <ele>485</ele>
        <time>2019-08-09T10:46:02Z</time>
      </trkpt>
      <trkpt lat="44.20827" lon="5.87843">
        <ele>485</ele>
        <time>2019-08-09T10:46:03Z</time>
      </trkpt>
      <trkpt lat="44.2083" lon="5.87835">
        <ele>485</ele>
        <time>2019-08-09T10:46:04Z</time>
      </trkpt>
      <trkpt lat="44.20833" lon="5.87827">
        <ele>485</ele>
        <time>2019-08-09T10:46:05Z</time>
      </trkpt>
      <trkpt lat="44.20836" lon="5.8782">
        <ele>485</ele>
        <time>2019-08-09T10:46:06Z</time>
      </trkpt>
      <trkpt lat="44.20839" lon="5.87812">
        <ele>485</ele>
        <time>2019-08-09T10:46:07Z</time>
      </trkpt>
      <trkpt lat="44.20843" lon="5.87805">
        <ele>485</ele>
        <time>2019-08-09T10:46:08Z</time>
      </trkpt>
      <trkpt lat="44.20846" lon="5.87797">
        <ele>485</ele>
        <time>2019-08-09T10:46:09Z</time>
      </trkpt>
      <trkpt lat="44.2085" lon="5.87789">
        <ele>485</ele>
        <time>2019-08-09T10:46:10Z</time>
      </trkpt>
      <trkpt lat="44.20854" lon="5.87782">
        <ele>485</ele>
        <time>2019-08-09T10:46:11Z</time>
      </trkpt>
      <trkpt lat="44.20858" lon="5.87774">
        <ele>485</ele>
        <time>2019-08-09T10:46:12Z</time>
      </trkpt>
      <trkpt lat="44.20862" lon="5.87767">
        <ele>485</ele>
        <time>2019-08-09T10:46:13Z</time>
      </trkpt>
      <trkpt lat="44.20866" lon="5.87759">
        <ele>485</ele>
        <time>2019-08-09T10:46:14Z</time>
      </trkpt>
      <trkpt lat="44.2087" lon="5.87751">
        <ele>485</ele>
        <time>2019-08-09T10:46:15Z</time>
      </trkpt>
      <trkpt lat="44.20874" lon="5.87744">
        <ele>485</ele>
        <time>2019-08-09T10:46:16Z</time>
      </trkpt>
      <trkpt lat="44.20879" lon="5.87736">
        <ele>485</ele>
        <time>2019-08-09T10:46:17Z</time>
      </trkpt>
      <trkpt lat="44.20884" lon="5.87729">
        <ele>485</ele>
        <time>2019-08-09T10:46:18Z</time>
      </trkpt>
      <trkpt lat="44.20889" lon="5.87721">
        <ele>485</ele>
        <time>2019-08-09T10:46:19Z</time>
      </trkpt>
      <trkpt lat="44.20893" lon="5.87714">
        <ele>485</ele>
        <time>2019-08-09T10:46:20Z</time>
      </trkpt>
      <trkpt lat="44.20898" lon="5.87707">
        <ele>485</ele>
        <time>2019-08-09T10:46:21Z</time>
      </trkpt>
      <trkpt lat="44.20904" lon="5.877">
        <ele>485</ele>
        <time>2019-08-09T10:46:22Z</time>
      </trkpt>
      <trkpt lat="44.20909" lon="5.87693">
        <ele>485</ele>
        <time>2019-08-09T10:46:23Z</time>
      </trkpt>
      <trkpt lat="44.20915" lon="5.87686">
        <ele>485</ele>
        <time>2019-08-09T10:46:24Z</time>
      </trkpt>
      <trkpt lat="44.2092" lon="5.8768">
        <ele>485</ele>
        <time>2019-08-09T10:46:25Z</time>
      </trkpt>
      <trkpt lat="44.20926" lon="5.87673">
        <ele>485</ele>
        <time>2019-08-09T10:46:26Z</time>
      </trkpt>
      <trkpt lat="44.20931" lon="5.87667">
        <ele>485</ele>
        <time>2019-08-09T10:46:27Z</time>
      </trkpt>
      <trkpt lat="44.20936" lon="5.8766">
        <ele>485</ele>
        <time>2019-08-09T10:46:28Z</time>
      </trkpt>
      <trkpt lat="44.20941" lon="5.87654">
        <ele>485</ele>
        <time>2019-08-09T10:46:29Z</time>
      </trkpt>
      <trkpt lat="44.20947" lon="5.87648">
        <ele>485</ele>
        <time>2019-08-09T10:46:30Z</time>
      </trkpt>
      <trkpt lat="44.20952" lon="5.87641">
        <ele>485</ele>
        <time>2019-08-09T10:46:31Z</time>
      </trkpt>
      <trkpt lat="44.20957" lon="5.87635">
        <ele>485</ele>
        <time>2019-08-09T10:46:32Z</time>
      </trkpt>
      <trkpt lat="44.20963" lon="5.87629">
        <ele>485</ele>
        <time>2019-08-09T10:46:33Z</time>
      </trkpt>
      <trkpt lat="44.20968" lon="5.87623">
        <ele>485</ele>
        <time>2019-08-09T10:46:34Z</time>
      </trkpt>
      <trkpt lat="44.20974" lon="5.87617">
        <ele>485</ele>
        <time>2019-08-09T10:46:35Z</time>
      </trkpt>
      <trkpt lat="44.20979" lon="5.87611">
        <ele>485</ele>
        <time>2019-08-09T10:46:36Z</time>
      </trkpt>
      <trkpt lat="44.20984" lon="5.87605">
        <ele>485</ele>
        <time>2019-08-09T10:46:37Z</time>
      </trkpt>
      <trkpt lat="44.20989" lon="5.87599">
        <ele>485</ele>
        <time>2019-08-09T10:46:38Z</time>
      </trkpt>
      <trkpt lat="44.20995" lon="5.87593">
        <ele>485</ele>
        <time>2019-08-09T10:46:39Z</time>
      </trkpt>
      <trkpt lat="44.21" lon="5.87587">
        <ele>485</ele>
        <time>2019-08-09T10:46:40Z</time>
      </trkpt>
      <trkpt lat="44.21005" lon="5.87581">
        <ele>485</ele>
        <time>2019-08-09T10:46:41Z</time>
      </trkpt>
      <trkpt lat="44.21011" lon="5.87575">
        <ele>485</ele>
        <time>2019-08-09T10:46:42Z</time>
      </trkpt>
      <trkpt lat="44.21016" lon="5.87569">
        <ele>485</ele>
        <time>2019-08-09T10:46:43Z</time>
      </trkpt>
      <trkpt lat="44.21021" lon="5.87563">
        <ele>485</ele>
        <time>2019-08-09T10:46:44Z</time>
      </trkpt>
      <trkpt lat="44.21026" lon="5.87557">
        <ele>485</ele>
        <time>2019-08-09T10:46:45Z</time>
      </trkpt>
      <trkpt lat="44.21032" lon="5.87551">
        <ele>485</ele>
        <time>2019-08-09T10:46:46Z</time>
      </trkpt>
      <trkpt lat="44.21037" lon="5.87545">
        <ele>485</ele>
        <time>2019-08-09T10:46:47Z</time>
      </trkpt>
      <trkpt lat="44.21042" lon="5.87539">
        <ele>485</ele>
        <time>2019-08-09T10:46:48Z</time>
      </trkpt>
      <trkpt lat="44.21048" lon="5.87533">
        <ele>485</ele>
        <time>2019-08-09T10:46:49Z</time>
      </trkpt>
      <trkpt lat="44.21053" lon="5.87526">
        <ele>485</ele>
        <time>2019-08-09T10:46:50Z</time>
      </trkpt>
      <trkpt lat="44.21059" lon="5.8752">
        <ele>485</ele>
        <time>2019-08-09T10:46:51Z</time>
      </trkpt>
      <trkpt lat="44.21065" lon="5.87513">
        <ele>485</ele>
        <time>2019-08-09T10:46:52Z</time>
      </trkpt>
      <trkpt lat="44.21071" lon="5.87507">
        <ele>485</ele>
        <time>2019-08-09T10:46:53Z</time>
      </trkpt>
      <trkpt lat="44.21076" lon="5.875">
        <ele>485</ele>
        <time>2019-08-09T10:46:54Z</time>
      </trkpt>
      <trkpt lat="44.21082" lon="5.87494">
        <ele>485</ele>
        <time>2019-08-09T10:46:55Z</time>
      </trkpt>
      <trkpt lat="44.21088" lon="5.87487">
        <ele>485</ele>
        <time>2019-08-09T10:46:56Z</time>
      </trkpt>
      <trkpt lat="44.21094" lon="5.87481">
        <ele>485</ele>
        <time>2019-08-09T10:46:57Z</time>
      </trkpt>
      <trkpt lat="44.21099" lon="5.87474">
        <ele>485</ele>
        <time>2019-08-09T10:46:58Z</time>
      </trkpt>
      <trkpt lat="44.21105" lon="5.87467">
        <ele>485</ele>
        <time>2019-08-09T10:46:59Z</time>
      </trkpt>
      <trkpt lat="44.21111" lon="5.87461">
        <ele>485</ele>
        <time>2019-08-09T10:47:00Z</time>
      </trkpt>
      <trkpt lat="44.21117" lon="5.87455">
        <ele>485</ele>
        <time>2019-08-09T10:47:01Z</time>
      </trkpt>
      <trkpt lat="44.21122" lon="5.87448">
        <ele>485</ele>
        <time>2019-08-09T10:47:02Z</time>
      </trkpt>
      <trkpt lat="44.21128" lon="5.87442">
        <ele>485</ele>
        <time>2019-08-09T10:47:03Z</time>
      </trkpt>
      <trkpt lat="44.21135" lon="5.87435">
        <ele>485</ele>
        <time>2019-08-09T10:47:04Z</time>
      </trkpt>
      <trkpt lat="44.21141" lon="5.87428">
        <ele>485</ele>
        <time>2019-08-09T10:47:05Z</time>
      </trkpt>
      <trkpt lat="44.21146" lon="5.87421">
        <ele>485</ele>
        <time>2019-08-09T10:47:06Z</time>
      </trkpt>
      <trkpt lat="44.21153" lon="5.87415">
        <ele>485</ele>
        <time>2019-08-09T10:47:07Z</time>
      </trkpt>
      <trkpt lat="44.21159" lon="5.87408">
        <ele>485</ele>
        <time>2019-08-09T10:47:08Z</time>
      </trkpt>
      <trkpt lat="44.21164" lon="5.87401">
        <ele>485</ele>
        <time>2019-08-09T10:47:09Z</time>
      </trkpt>
      <trkpt lat="44.2117" lon="5.87395">
        <ele>485</ele>
        <time>2019-08-09T10:47:10Z</time>
      </trkpt>
      <trkpt lat="44.21176" lon="5.87388">
        <ele>485</ele>
        <time>2019-08-09T10:47:11Z</time>
      </trkpt>
      <trkpt lat="44.21182" lon="5.87381">
        <ele>485</ele>
        <time>2019-08-09T10:47:12Z</time>
      </trkpt>
      <trkpt lat="44.21188" lon="5.87374">
        <ele>485</ele>
        <time>2019-08-09T10:47:13Z</time>
      </trkpt>
      <trkpt lat="44.21194" lon="5.87368">
        <ele>485</ele>
        <time>2019-08-09T10:47:14Z</time>
      </trkpt>
      <trkpt lat="44.21199" lon="5.87361">
        <ele>485</ele>
        <time>2019-08-09T10:47:15Z</time>
      </trkpt>
      <trkpt lat="44.21205" lon="5.87355">
        <ele>485</ele>
        <time>2019-08-09T10:47:16Z</time>
      </trkpt>
      <trkpt lat="44.21211" lon="5.87348">
        <ele>485</ele>
        <time>2019-08-09T10:47:17Z</time>
      </trkpt>
      <trkpt lat="44.21216" lon="5.87342">
        <ele>485</ele>
        <time>2019-08-09T10:47:18Z</time>
      </trkpt>
      <trkpt lat="44.21222" lon="5.87335">
        <ele>485</ele>
        <time>2019-08-09T10:47:19Z</time>
      </trkpt>
      <trkpt lat="44.21227" lon="5.87329">
        <ele>485</ele>
        <time>2019-08-09T10:47:20Z</time>
      </trkpt>
      <trkpt lat="44.21232" lon="5.87323">
        <ele>485</ele>
        <time>2019-08-09T10:47:21Z</time>
      </trkpt>
      <trkpt lat="44.21238" lon="5.87316">
        <ele>485</ele>
        <time>2019-08-09T10:47:22Z</time>
      </trkpt>
      <trkpt lat="44.21243" lon="5.8731">
        <ele>485</ele>
        <time>2019-08-09T10:47:23Z</time>
      </trkpt>
      <trkpt lat="44.21248" lon="5.87304">
        <ele>485</ele>
        <time>2019-08-09T10:47:24Z</time>
      </trkpt>
      <trkpt lat="44.21253" lon="5.87298">
        <ele>485</ele>
        <time>2019-08-09T10:47:25Z</time>
      </trkpt>
      <trkpt lat="44.21258" lon="5.87292">
        <ele>485</ele>
        <time>2019-08-09T10:47:26Z</time>
      </trkpt>
      <trkpt lat="44.21263" lon="5.87286">
        <ele>485</ele>
        <time>2019-08-09T10:47:27Z</time>
      </trkpt>
      <trkpt lat="44.21268" lon="5.8728">
        <ele>485</ele>
        <time>2019-08-09T10:47:28Z</time>
      </trkpt>
      <trkpt lat="44.21274" lon="5.87274">
        <ele>485</ele>
        <time>2019-08-09T10:47:29Z</time>
      </trkpt>
      <trkpt lat="44.21279" lon="5.87268">
        <ele>485</ele>
        <time>2019-08-09T10:47:30Z</time>
      </trkpt>
      <trkpt lat="44.21284" lon="5.87262">
        <ele>485</ele>
        <time>2019-08-09T10:47:31Z</time>
      </trkpt>
      <trkpt lat="44.21289" lon="5.87256">
        <ele>485</ele>
        <time>2019-08-09T10:47:32Z</time>
      </trkpt>
      <trkpt lat="44.21294" lon="5.87251">
        <ele>485</ele>
        <time>2019-08-09T10:47:33Z</time>
      </trkpt>
      <trkpt lat="44.21298" lon="5.87245">
        <ele>485</ele>
        <time>2019-08-09T10:47:34Z</time>
      </trkpt>
      <trkpt lat="44.21303" lon="5.8724">
        <ele>485</ele>
        <time>2019-08-09T10:47:35Z</time>
      </trkpt>
      <trkpt lat="44.21308" lon="5.87234">
        <ele>485</ele>
        <time>2019-08-09T10:47:36Z</time>
      </trkpt>
      <trkpt lat="44.21313" lon="5.87229">
        <ele>485</ele>
        <time>2019-08-09T10:47:37Z</time>
      </trkpt>
      <trkpt lat="44.21318" lon="5.87223">
        <ele>485</ele>
        <time>2019-08-09T10:47:38Z</time>
      </trkpt>
      <trkpt lat="44.21323" lon="5.87218">
        <ele>485</ele>
        <time>2019-08-09T10:47:39Z</time>
      </trkpt>
      <trkpt lat="44.21327" lon="5.87213">
        <ele>485</ele>
        <time>2019-08-09T10:47:40Z</time>
      </trkpt>
      <trkpt lat="44.21332" lon="5.87207">
        <ele>485</ele>
        <time>2019-08-09T10:47:41Z</time>
      </trkpt>
      <trkpt lat="44.21337" lon="5.87201">
        <ele>485</ele>
        <time>2019-08-09T10:47:42Z</time>
      </trkpt>
      <trkpt lat="44.21342" lon="5.87196">
        <ele>485</ele>
        <time>2019-08-09T10:47:43Z</time>
      </trkpt>
      <trkpt lat="44.21347" lon="5.8719">
        <ele>485</ele>
        <time>2019-08-09T10:47:44Z</time>
      </trkpt>
      <trkpt lat="44.21352" lon="5.87185">
        <ele>485</ele>
        <time>2019-08-09T10:47:45Z</time>
      </trkpt>
      <trkpt lat="44.21357" lon="5.8718">
        <ele>485</ele>
        <time>2019-08-09T10:47:46Z</time>
      </trkpt>
      <trkpt lat="44.21362" lon="5.87174">
        <ele>485</ele>
        <time>2019-08-09T10:47:47Z</time>
      </trkpt>
      <trkpt lat="44.21367" lon="5.87169">
        <ele>485</ele>
        <time>2019-08-09T10:47:48Z</time>
      </trkpt>
      <trkpt lat="44.21371" lon="5.87163">
        <ele>485</ele>
        <time>2019-08-09T10:47:49Z</time>
      </trkpt>
      <trkpt lat="44.21376" lon="5.87157">
        <ele>485</ele>
        <time>2019-08-09T10:47:50Z</time>
      </trkpt>
      <trkpt lat="44.21381" lon="5.87152">
        <ele>485</ele>
        <time>2019-08-09T10:47:51Z</time>
      </trkpt>
      <trkpt lat="44.21386" lon="5.87146">
        <ele>485</ele>
        <time>2019-08-09T10:47:52Z</time>
      </trkpt>
      <trkpt lat="44.2139" lon="5.87141">
        <ele>485</ele>
        <time>2019-08-09T10:47:53Z</time>
      </trkpt>
      <trkpt lat="44.21395" lon="5.87136">
        <ele>485</ele>
        <time>2019-08-09T10:47:54Z</time>
      </trkpt>
      <trkpt lat="44.214" lon="5.87131">
        <ele>485</ele>
        <time>2019-08-09T10:47:55Z</time>
      </trkpt>
      <trkpt lat="44.21404" lon="5.87126">
        <ele>485</ele>
        <time>2019-08-09T10:47:56Z</time>
      </trkpt>
      <trkpt lat="44.21409" lon="5.87121">
        <ele>485</ele>
        <time>2019-08-09T10:47:57Z</time>
      </trkpt>
      <trkpt lat="44.21413" lon="5.87116">
        <ele>485</ele>
        <time>2019-08-09T10:47:58Z</time>
      </trkpt>
      <trkpt lat="44.21417" lon="5.87111">
        <ele>485</ele>
        <time>2019-08-09T10:47:59Z</time>
      </trkpt>
      <trkpt lat="44.21421" lon="5.87106">
        <ele>485</ele>
        <time>2019-08-09T10:48:00Z</time>
      </trkpt>
      <trkpt lat="44.21426" lon="5.87101">
        <ele>485</ele>
        <time>2019-08-09T10:48:01Z</time>
      </trkpt>
      <trkpt lat="44.2143" lon="5.87097">
        <ele>485</ele>
        <time>2019-08-09T10:48:02Z</time>
      </trkpt>
      <trkpt lat="44.21434" lon="5.87092">
        <ele>485</ele>
        <time>2019-08-09T10:48:03Z</time>
      </trkpt>
      <trkpt lat="44.21439" lon="5.87087">
        <ele>486</ele>
        <time>2019-08-09T10:48:04Z</time>
      </trkpt>
      <trkpt lat="44.21443" lon="5.87082">
        <ele>486</ele>
        <time>2019-08-09T10:48:05Z</time>
      </trkpt>
      <trkpt lat="44.21447" lon="5.87077">
        <ele>486</ele>
        <time>2019-08-09T10:48:06Z</time>
      </trkpt>
      <trkpt lat="44.21451" lon="5.87072">
        <ele>486</ele>
        <time>2019-08-09T10:48:07Z</time>
      </trkpt>
      <trkpt lat="44.21455" lon="5.87068">
        <ele>486</ele>
        <time>2019-08-09T10:48:08Z</time>
      </trkpt>
      <trkpt lat="44.2146" lon="5.87063">
        <ele>486</ele>
        <time>2019-08-09T10:48:09Z</time>
      </trkpt>
      <trkpt lat="44.21464" lon="5.87058">
        <ele>487</ele>
        <time>2019-08-09T10:48:10Z</time>
      </trkpt>
      <trkpt lat="44.21468" lon="5.87053">
        <ele>487</ele>
        <time>2019-08-09T10:48:11Z</time>
      </trkpt>
      <trkpt lat="44.21473" lon="5.87048">
        <ele>487</ele>
        <time>2019-08-09T10:48:12Z</time>
      </trkpt>
      <trkpt lat="44.21477" lon="5.87043">
        <ele>487</ele>
        <time>2019-08-09T10:48:13Z</time>
      </trkpt>
      <trkpt lat="44.21482" lon="5.87037">
        <ele>487</ele>
        <time>2019-08-09T10:48:14Z</time>
      </trkpt>
      <trkpt lat="44.21487" lon="5.87032">
        <ele>487</ele>
        <time>2019-08-09T10:48:15Z</time>
      </trkpt>
      <trkpt lat="44.21491" lon="5.87027">
        <ele>487</ele>
        <time>2019-08-09T10:48:16Z</time>
      </trkpt>
      <trkpt lat="44.21496" lon="5.87021">
        <ele>487</ele>
        <time>2019-08-09T10:48:17Z</time>
      </trkpt>
      <trkpt lat="44.21501" lon="5.87016">
        <ele>487</ele>
        <time>2019-08-09T10:48:18Z</time>
      </trkpt>
      <trkpt lat="44.21505" lon="5.8701">
        <ele>487</ele>
        <time>2019-08-09T10:48:19Z</time>
      </trkpt>
      <trkpt lat="44.2151" lon="5.87005">
        <ele>487</ele>
        <time>2019-08-09T10:48:20Z</time>
      </trkpt>
      <trkpt lat="44.21515" lon="5.86999">
        <ele>487</ele>
        <time>2019-08-09T10:48:21Z</time>
      </trkpt>
      <trkpt lat="44.2152" lon="5.86993">
        <ele>487</ele>
        <time>2019-08-09T10:48:22Z</time>
      </trkpt>
      <trkpt lat="44.21525" lon="5.86987">
        <ele>487</ele>
        <time>2019-08-09T10:48:23Z</time>
      </trkpt>
      <trkpt lat="44.2153" lon="5.86982">
        <ele>488</ele>
        <time>2019-08-09T10:48:24Z</time>
      </trkpt>
      <trkpt lat="44.21535" lon="5.86976">
        <ele>488</ele>
        <time>2019-08-09T10:48:25Z</time>
      </trkpt>
      <trkpt lat="44.2154" lon="5.86971">
        <ele>488</ele>
        <time>2019-08-09T10:48:26Z</time>
      </trkpt>
      <trkpt lat="44.21545" lon="5.86965">
        <ele>488</ele>
        <time>2019-08-09T10:48:27Z</time>
      </trkpt>
      <trkpt lat="44.2155" lon="5.86959">
        <ele>488</ele>
        <time>2019-08-09T10:48:28Z</time>
      </trkpt>
      <trkpt lat="44.21555" lon="5.86954">
        <ele>488</ele>
        <time>2019-08-09T10:48:29Z</time>
      </trkpt>
      <trkpt lat="44.2156" lon="5.86948">
        <ele>488</ele>
        <time>2019-08-09T10:48:30Z</time>
      </trkpt>
      <trkpt lat="44.21565" lon="5.86942">
        <ele>489</ele>
        <time>2019-08-09T10:48:31Z</time>
      </trkpt>
      <trkpt lat="44.2157" lon="5.86937">
        <ele>489</ele>
        <time>2019-08-09T10:48:32Z</time>
      </trkpt>
      <trkpt lat="44.21575" lon="5.86931">
        <ele>489</ele>
        <time>2019-08-09T10:48:33Z</time>
      </trkpt>
      <trkpt lat="44.2158" lon="5.86925">
        <ele>489</ele>
        <time>2019-08-09T10:48:34Z</time>
      </trkpt>
      <trkpt lat="44.21585" lon="5.8692">
        <ele>489</ele>
        <time>2019-08-09T10:48:35Z</time>
      </trkpt>
      <trkpt lat="44.2159" lon="5.86915">
        <ele>489</ele>
        <time>2019-08-09T10:48:36Z</time>
      </trkpt>
      <trkpt lat="44.21595" lon="5.86909">
        <ele>489</ele>
        <time>2019-08-09T10:48:37Z</time>
      </trkpt>
      <trkpt lat="44.216" lon="5.86904">
        <ele>489</ele>
        <time>2019-08-09T10:48:38Z</time>
      </trkpt>
      <trkpt lat="44.21605" lon="5.86898">
        <ele>490</ele>
        <time>2019-08-09T10:48:39Z</time>
      </trkpt>
      <trkpt lat="44.21609" lon="5.86893">
        <ele>490</ele>
        <time>2019-08-09T10:48:40Z</time>
      </trkpt>
      <trkpt lat="44.21614" lon="5.86888">
        <ele>490</ele>
        <time>2019-08-09T10:48:41Z</time>
      </trkpt>
      <trkpt lat="44.21619" lon="5.86882">
        <ele>490</ele>
        <time>2019-08-09T10:48:42Z</time>
      </trkpt>
      <trkpt lat="44.21623" lon="5.86877">
        <ele>490</ele>
        <time>2019-08-09T10:48:43Z</time>
      </trkpt>
      <trkpt lat="44.21628" lon="5.86872">
        <ele>491</ele>
        <time>2019-08-09T10:48:44Z</time>
      </trkpt>
      <trkpt lat="44.21632" lon="5.86867">
        <ele>491</ele>
        <time>2019-08-09T10:48:45Z</time>
      </trkpt>
      <trkpt lat="44.21636" lon="5.86862">
        <ele>491</ele>
        <time>2019-08-09T10:48:46Z</time>
      </trkpt>
      <trkpt lat="44.2164" lon="5.86857">
        <ele>491</ele>
        <time>2019-08-09T10:48:47Z</time>
      </trkpt>
      <trkpt lat="44.21645" lon="5.86852">
        <ele>491</ele>
        <time>2019-08-09T10:48:48Z</time>
      </trkpt>
      <trkpt lat="44.21649" lon="5.86847">
        <ele>492</ele>
        <time>2019-08-09T10:48:49Z</time>
      </trkpt>
      <trkpt lat="44.21653" lon="5.86842">
        <ele>492</ele>
        <time>2019-08-09T10:48:50Z</time>
      </trkpt>
      <trkpt lat="44.21657" lon="5.86836">
        <ele>492</ele>
        <time>2019-08-09T10:48:51Z</time>
      </trkpt>
      <trkpt lat="44.21661" lon="5.86831">
        <ele>492</ele>
        <time>2019-08-09T10:48:52Z</time>
      </trkpt>
      <trkpt lat="44.21665" lon="5.86825">
        <ele>493</ele>
        <time>2019-08-09T10:48:53Z</time>
      </trkpt>
      <trkpt lat="44.21669" lon="5.8682">
        <ele>493</ele>
        <time>2019-08-09T10:48:54Z</time>
      </trkpt>
      <trkpt lat="44.21672" lon="5.86814">
        <ele>493</ele>
        <time>2019-08-09T10:48:55Z</time>
      </trkpt>
      <trkpt lat="44.21676" lon="5.86808">
        <ele>493</ele>
        <time>2019-08-09T10:48:56Z</time>
      </trkpt>
      <trkpt lat="44.21679" lon="5.86802">
        <ele>493</ele>
        <time>2019-08-09T10:48:57Z</time>
      </trkpt>
      <trkpt lat="44.21683" lon="5.86797">
        <ele>494</ele>
        <time>2019-08-09T10:48:58Z</time>
      </trkpt>
      <trkpt lat="44.21687" lon="5.86791">
        <ele>494</ele>
        <time>2019-08-09T10:48:59Z</time>
      </trkpt>
      <trkpt lat="44.2169" lon="5.86785">
        <ele>494</ele>
        <time>2019-08-09T10:49:00Z</time>
      </trkpt>
      <trkpt lat="44.21693" lon="5.86779">
        <ele>494</ele>
        <time>2019-08-09T10:49:01Z</time>
      </trkpt>
      <trkpt lat="44.21697" lon="5.86773">
        <ele>494</ele>
        <time>2019-08-09T10:49:02Z</time>
      </trkpt>
      <trkpt lat="44.217" lon="5.86767">
        <ele>494</ele>
        <time>2019-08-09T10:49:03Z</time>
      </trkpt>
      <trkpt lat="44.21703" lon="5.86762">
        <ele>495</ele>
        <time>2019-08-09T10:49:04Z</time>
      </trkpt>
      <trkpt lat="44.21706" lon="5.86756">
        <ele>495</ele>
        <time>2019-08-09T10:49:05Z</time>
      </trkpt>
      <trkpt lat="44.21709" lon="5.8675">
        <ele>495</ele>
        <time>2019-08-09T10:49:06Z</time>
      </trkpt>
      <trkpt lat="44.21712" lon="5.86744">
        <ele>495</ele>
        <time>2019-08-09T10:49:07Z</time>
      </trkpt>
      <trkpt lat="44.21715" lon="5.86739">
        <ele>495</ele>
        <time>2019-08-09T10:49:08Z</time>
      </trkpt>
      <trkpt lat="44.21718" lon="5.86733">
        <ele>495</ele>
        <time>2019-08-09T10:49:09Z</time>
      </trkpt>
      <trkpt lat="44.21721" lon="5.86728">
        <ele>495</ele>
        <time>2019-08-09T10:49:10Z</time>
      </trkpt>
      <trkpt lat="44.21724" lon="5.86723">
        <ele>495</ele>
        <time>2019-08-09T10:49:11Z</time>
      </trkpt>
      <trkpt lat="44.21726" lon="5.86717">
        <ele>496</ele>
        <time>2019-08-09T10:49:12Z</time>
      </trkpt>
      <trkpt lat="44.21729" lon="5.86712">
        <ele>496</ele>
        <time>2019-08-09T10:49:13Z</time>
      </trkpt>
      <trkpt lat="44.21732" lon="5.86706">
        <ele>496</ele>
        <time>2019-08-09T10:49:14Z</time>
      </trkpt>
      <trkpt lat="44.21735" lon="5.86701">
        <ele>496</ele>
        <time>2019-08-09T10:49:15Z</time>
      </trkpt>
      <trkpt lat="44.21738" lon="5.86696">
        <ele>496</ele>
        <time>2019-08-09T10:49:16Z</time>
      </trkpt>
      <trkpt lat="44.21741" lon="5.86691">
        <ele>497</ele>
        <time>2019-08-09T10:49:17Z</time>
      </trkpt>
      <trkpt lat="44.21744" lon="5.86685">
        <ele>497</ele>
        <time>2019-08-09T10:49:18Z</time>
      </trkpt>
      <trkpt lat="44.21747" lon="5.8668">
        <ele>497</ele>
        <time>2019-08-09T10:49:19Z</time>
      </trkpt>
      <trkpt lat="44.2175" lon="5.86674">
        <ele>497</ele>
        <time>2019-08-09T10:49:20Z</time>
      </trkpt>
      <trkpt lat="44.21753" lon="5.86669">
        <ele>498</ele>
        <time>2019-08-09T10:49:21Z</time>
      </trkpt>
      <trkpt lat="44.21756" lon="5.86663">
        <ele>498</ele>
        <time>2019-08-09T10:49:22Z</time>
      </trkpt>
      <trkpt lat="44.21759" lon="5.86658">
        <ele>498</ele>
        <time>2019-08-09T10:49:23Z</time>
      </trkpt>
      <trkpt lat="44.21762" lon="5.86653">
        <ele>498</ele>
        <time>2019-08-09T10:49:24Z</time>
      </trkpt>
      <trkpt lat="44.21766" lon="5.86648">
        <ele>498</ele>
        <time>2019-08-09T10:49:25Z</time>
      </trkpt>
      <trkpt lat="44.21769" lon="5.86643">
        <ele>498</ele>
        <time>2019-08-09T10:49:26Z</time>
      </trkpt>
      <trkpt lat="44.21772" lon="5.86637">
        <ele>498</ele>
        <time>2019-08-09T10:49:27Z</time>
      </trkpt>
      <trkpt lat="44.21776" lon="5.86632">
        <ele>498</ele>
        <time>2019-08-09T10:49:28Z</time>
      </trkpt>
      <trkpt lat="44.2178" lon="5.86627">
        <ele>498</ele>
        <time>2019-08-09T10:49:29Z</time>
      </trkpt>
      <trkpt lat="44.21783" lon="5.86621">
        <ele>499</ele>
        <time>2019-08-09T10:49:30Z</time>
      </trkpt>
      <trkpt lat="44.21787" lon="5.86616">
        <ele>499</ele>
        <time>2019-08-09T10:49:31Z</time>
      </trkpt>
      <trkpt lat="44.2179" lon="5.86611">
        <ele>499</ele>
        <time>2019-08-09T10:49:32Z</time>
      </trkpt>
      <trkpt lat="44.21794" lon="5.86607">
        <ele>499</ele>
        <time>2019-08-09T10:49:33Z</time>
      </trkpt>
      <trkpt lat="44.21797" lon="5.86602">
        <ele>500</ele>
        <time>2019-08-09T10:49:34Z</time>
      </trkpt>
      <trkpt lat="44.21801" lon="5.86597">
        <ele>500</ele>
        <time>2019-08-09T10:49:35Z</time>
      </trkpt>
      <trkpt lat="44.21804" lon="5.86592">
        <ele>500</ele>
        <time>2019-08-09T10:49:36Z</time>
      </trkpt>
      <trkpt lat="44.21807" lon="5.86588">
        <ele>500</ele>
        <time>2019-08-09T10:49:37Z</time>
      </trkpt>
      <trkpt lat="44.21811" lon="5.86583">
        <ele>501</ele>
        <time>2019-08-09T10:49:38Z</time>
      </trkpt>
      <trkpt lat="44.21814" lon="5.86579">
        <ele>501</ele>
        <time>2019-08-09T10:49:39Z</time>
      </trkpt>
      <trkpt lat="44.21817" lon="5.86574">
        <ele>501</ele>
        <time>2019-08-09T10:49:40Z</time>
      </trkpt>
      <trkpt lat="44.21821" lon="5.86569">
        <ele>502</ele>
        <time>2019-08-09T10:49:41Z</time>
      </trkpt>
      <trkpt lat="44.21825" lon="5.86564">
        <ele>502</ele>
        <time>2019-08-09T10:49:42Z</time>
      </trkpt>
      <trkpt lat="44.21828" lon="5.86559">
        <ele>502</ele>
        <time>2019-08-09T10:49:43Z</time>
      </trkpt>
      <trkpt lat="44.21832" lon="5.86554">
        <ele>503</ele>
        <time>2019-08-09T10:49:44Z</time>
      </trkpt>
      <trkpt lat="44.21836" lon="5.86549">
        <ele>503</ele>
        <time>2019-08-09T10:49:45Z</time>
      </trkpt>
      <trkpt lat="44.2184" lon="5.86543">
        <ele>503</ele>
        <time>2019-08-09T10:49:46Z</time>
      </trkpt>
      <trkpt lat="44.21843" lon="5.86539">
        <ele>503</ele>
        <time>2019-08-09T10:49:47Z</time>
      </trkpt>
      <trkpt lat="44.21847" lon="5.86534">
        <ele>504</ele>
        <time>2019-08-09T10:49:48Z</time>
      </trkpt>
      <trkpt lat="44.2185" lon="5.86529">
        <ele>504</ele>
        <time>2019-08-09T10:49:49Z</time>
      </trkpt>
      <trkpt lat="44.21853" lon="5.86524">
        <ele>504</ele>
        <time>2019-08-09T10:49:50Z</time>
      </trkpt>
      <trkpt lat="44.21857" lon="5.8652">
        <ele>505</ele>
        <time>2019-08-09T10:49:51Z</time>
      </trkpt>
      <trkpt lat="44.2186" lon="5.86516">
        <ele>505</ele>
        <time>2019-08-09T10:49:52Z</time>
      </trkpt>
      <trkpt lat="44.21864" lon="5.86512">
        <ele>505</ele>
        <time>2019-08-09T10:49:53Z</time>
      </trkpt>
      <trkpt lat="44.21867" lon="5.86507">
        <ele>505</ele>
        <time>2019-08-09T10:49:54Z</time>
      </trkpt>
      <trkpt lat="44.21871" lon="5.86502">
        <ele>506</ele>
        <time>2019-08-09T10:49:55Z</time>
      </trkpt>
      <trkpt lat="44.21874" lon="5.86497">
        <ele>506</ele>
        <time>2019-08-09T10:49:56Z</time>
      </trkpt>
      <trkpt lat="44.21878" lon="5.86493">
        <ele>506</ele>
        <time>2019-08-09T10:49:57Z</time>
      </trkpt>
      <trkpt lat="44.21881" lon="5.86488">
        <ele>506</ele>
        <time>2019-08-09T10:49:58Z</time>
      </trkpt>
      <trkpt lat="44.21885" lon="5.86484">
        <ele>507</ele>
        <time>2019-08-09T10:49:59Z</time>
      </trkpt>
      <trkpt lat="44.21888" lon="5.86479">
        <ele>507</ele>
        <time>2019-08-09T10:50:00Z</time>
      </trkpt>
      <trkpt lat="44.21891" lon="5.86474">
        <ele>507</ele>
        <time>2019-08-09T10:50:01Z</time>
      </trkpt>
      <trkpt lat="44.21894" lon="5.86469">
        <ele>507</ele>
        <time>2019-08-09T10:50:02Z</time>
      </trkpt>
      <trkpt lat="44.21898" lon="5.86464">
        <ele>508</ele>
        <time>2019-08-09T10:50:03Z</time>
      </trkpt>
      <trkpt lat="44.21902" lon="5.8646">
        <ele>508</ele>
        <time>2019-08-09T10:50:04Z</time>
      </trkpt>
      <trkpt lat="44.21906" lon="5.86455">
        <ele>508</ele>
        <time>2019-08-09T10:50:05Z</time>
      </trkpt>
      <trkpt lat="44.21909" lon="5.8645">
        <ele>508</ele>
        <time>2019-08-09T10:50:06Z</time>
      </trkpt>
      <trkpt lat="44.21913" lon="5.86445">
        <ele>508</ele>
        <time>2019-08-09T10:50:07Z</time>
      </trkpt>
      <trkpt lat="44.21917" lon="5.8644">
        <ele>508</ele>
        <time>2019-08-09T10:50:08Z</time>
      </trkpt>
      <trkpt lat="44.2192" lon="5.86435">
        <ele>508</ele>
        <time>2019-08-09T10:50:09Z</time>
      </trkpt>
      <trkpt lat="44.21924" lon="5.8643">
        <ele>509</ele>
        <time>2019-08-09T10:50:10Z</time>
      </trkpt>
      <trkpt lat="44.21928" lon="5.86425">
        <ele>509</ele>
        <time>2019-08-09T10:50:11Z</time>
      </trkpt>
      <trkpt lat="44.21932" lon="5.86419">
        <ele>509</ele>
        <time>2019-08-09T10:50:12Z</time>
      </trkpt>
      <trkpt lat="44.21936" lon="5.86414">
        <ele>509</ele>
        <time>2019-08-09T10:50:13Z</time>
      </trkpt>
      <trkpt lat="44.2194" lon="5.86409">
        <ele>509</ele>
        <time>2019-08-09T10:50:14Z</time>
      </trkpt>
      <trkpt lat="44.21944" lon="5.86404">
        <ele>509</ele>
        <time>2019-08-09T10:50:15Z</time>
      </trkpt>
      <trkpt lat="44.21948" lon="5.86398">
        <ele>509</ele>
        <time>2019-08-09T10:50:16Z</time>
      </trkpt>
      <trkpt lat="44.21952" lon="5.86393">
        <ele>509</ele>
        <time>2019-08-09T10:50:17Z</time>
      </trkpt>
      <trkpt lat="44.21955" lon="5.86387">
        <ele>509</ele>
        <time>2019-08-09T10:50:18Z</time>
      </trkpt>
      <trkpt lat="44.21959" lon="5.86382">
        <ele>509</ele>
        <time>2019-08-09T10:50:19Z</time>
      </trkpt>
      <trkpt lat="44.21963" lon="5.86377">
        <ele>509</ele>
        <time>2019-08-09T10:50:20Z</time>
      </trkpt>
      <trkpt lat="44.21967" lon="5.86372">
        <ele>509</ele>
        <time>2019-08-09T10:50:21Z</time>
      </trkpt>
      <trkpt lat="44.21971" lon="5.86366">
        <ele>509</ele>
        <time>2019-08-09T10:50:22Z</time>
      </trkpt>
      <trkpt lat="44.21975" lon="5.86361">
        <ele>509</ele>
        <time>2019-08-09T10:50:23Z</time>
      </trkpt>
      <trkpt lat="44.2198" lon="5.86355">
        <ele>509</ele>
        <time>2019-08-09T10:50:24Z</time>
      </trkpt>
      <trkpt lat="44.21983" lon="5.8635">
        <ele>509</ele>
        <time>2019-08-09T10:50:25Z</time>
      </trkpt>
      <trkpt lat="44.21987" lon="5.86344">
        <ele>509</ele>
        <time>2019-08-09T10:50:26Z</time>
      </trkpt>
      <trkpt lat="44.21991" lon="5.86339">
        <ele>509</ele>
        <time>2019-08-09T10:50:27Z</time>
      </trkpt>
      <trkpt lat="44.21995" lon="5.86334">
        <ele>509</ele>
        <time>2019-08-09T10:50:28Z</time>
      </trkpt>
      <trkpt lat="44.21999" lon="5.86329">
        <ele>509</ele>
        <time>2019-08-09T10:50:29Z</time>
      </trkpt>
      <trkpt lat="44.22003" lon="5.86324">
        <ele>509</ele>
        <time>2019-08-09T10:50:30Z</time>
      </trkpt>
      <trkpt lat="44.22007" lon="5.86318">
        <ele>509</ele>
        <time>2019-08-09T10:50:31Z</time>
      </trkpt>
      <trkpt lat="44.22011" lon="5.86313">
        <ele>509</ele>
        <time>2019-08-09T10:50:32Z</time>
      </trkpt>
      <trkpt lat="44.22015" lon="5.86308">
        <ele>509</ele>
        <time>2019-08-09T10:50:33Z</time>
      </trkpt>
      <trkpt lat="44.22018" lon="5.86303">
        <ele>509</ele>
        <time>2019-08-09T10:50:34Z</time>
      </trkpt>
      <trkpt lat="44.22023" lon="5.86297">
        <ele>509</ele>
        <time>2019-08-09T10:50:35Z</time>
      </trkpt>
      <trkpt lat="44.22026" lon="5.86292">
        <ele>509</ele>
        <time>2019-08-09T10:50:36Z</time>
      </trkpt>
      <trkpt lat="44.22031" lon="5.86287">
        <ele>509</ele>
        <time>2019-08-09T10:50:37Z</time>
      </trkpt>
      <trkpt lat="44.22034" lon="5.86281">
        <ele>509</ele>
        <time>2019-08-09T10:50:38Z</time>
      </trkpt>
      <trkpt lat="44.22039" lon="5.86276">
        <ele>509</ele>
        <time>2019-08-09T10:50:39Z</time>
      </trkpt>
      <trkpt lat="44.22043" lon="5.8627">
        <ele>509</ele>
        <time>2019-08-09T10:50:40Z</time>
      </trkpt>
      <trkpt lat="44.22047" lon="5.86265">
        <ele>509</ele>
        <time>2019-08-09T10:50:41Z</time>
      </trkpt>
      <trkpt lat="44.22051" lon="5.86259">
        <ele>509</ele>
        <time>2019-08-09T10:50:42Z</time>
      </trkpt>
      <trkpt lat="44.22055" lon="5.86254">
        <ele>509</ele>
        <time>2019-08-09T10:50:43Z</time>
      </trkpt>
      <trkpt lat="44.2206" lon="5.86248">
        <ele>509</ele>
        <time>2019-08-09T10:50:44Z</time>
      </trkpt>
      <trkpt lat="44.22064" lon="5.86243">
        <ele>509</ele>
        <time>2019-08-09T10:50:45Z</time>
      </trkpt>
      <trkpt lat="44.22068" lon="5.86237">
        <ele>509</ele>
        <time>2019-08-09T10:50:46Z</time>
      </trkpt>
      <trkpt lat="44.22072" lon="5.86232">
        <ele>509</ele>
        <time>2019-08-09T10:50:47Z</time>
      </trkpt>
      <trkpt lat="44.22076" lon="5.86226">
        <ele>509</ele>
        <time>2019-08-09T10:50:48Z</time>
      </trkpt>
      <trkpt lat="44.2208" lon="5.8622">
        <ele>509</ele>
        <time>2019-08-09T10:50:49Z</time>
      </trkpt>
      <trkpt lat="44.22084" lon="5.86214">
        <ele>509</ele>
        <time>2019-08-09T10:50:50Z</time>
      </trkpt>
      <trkpt lat="44.22089" lon="5.86209">
        <ele>509</ele>
        <time>2019-08-09T10:50:51Z</time>
      </trkpt>
      <trkpt lat="44.22093" lon="5.86205">
        <ele>509</ele>
        <time>2019-08-09T10:50:52Z</time>
      </trkpt>
      <trkpt lat="44.22098" lon="5.86201">
        <ele>509</ele>
        <time>2019-08-09T10:50:53Z</time>
      </trkpt>
      <trkpt lat="44.22103" lon="5.86196">
        <ele>509</ele>
        <time>2019-08-09T10:50:54Z</time>
      </trkpt>
      <trkpt lat="44.22107" lon="5.86192">
        <ele>509</ele>
        <time>2019-08-09T10:50:55Z</time>
      </trkpt>
      <trkpt lat="44.22112" lon="5.86187">
        <ele>509</ele>
        <time>2019-08-09T10:50:56Z</time>
      </trkpt>
      <trkpt lat="44.22118" lon="5.86183">
        <ele>509</ele>
        <time>2019-08-09T10:50:57Z</time>
      </trkpt>
      <trkpt lat="44.22123" lon="5.86179">
        <ele>509</ele>
        <time>2019-08-09T10:50:58Z</time>
      </trkpt>
      <trkpt lat="44.22128" lon="5.86176">
        <ele>509</ele>
        <time>2019-08-09T10:50:59Z</time>
      </trkpt>
      <trkpt lat="44.22134" lon="5.86173">
        <ele>510</ele>
        <time>2019-08-09T10:51:00Z</time>
      </trkpt>
      <trkpt lat="44.22139" lon="5.8617">
        <ele>510</ele>
        <time>2019-08-09T10:51:01Z</time>
      </trkpt>
      <trkpt lat="44.22145" lon="5.86167">
        <ele>510</ele>
        <time>2019-08-09T10:51:02Z</time>
      </trkpt>
      <trkpt lat="44.2215" lon="5.86164">
        <ele>510</ele>
        <time>2019-08-09T10:51:03Z</time>
      </trkpt>
      <trkpt lat="44.22156" lon="5.86161">
        <ele>510</ele>
        <time>2019-08-09T10:51:04Z</time>
      </trkpt>
      <trkpt lat="44.22162" lon="5.86158">
        <ele>510</ele>
        <time>2019-08-09T10:51:05Z</time>
      </trkpt>
      <trkpt lat="44.22168" lon="5.86155">
        <ele>510</ele>
        <time>2019-08-09T10:51:06Z</time>
      </trkpt>
      <trkpt lat="44.22173" lon="5.86152">
        <ele>510</ele>
        <time>2019-08-09T10:51:07Z</time>
      </trkpt>
      <trkpt lat="44.22179" lon="5.86149">
        <ele>510</ele>
        <time>2019-08-09T10:51:08Z</time>
      </trkpt>
      <trkpt lat="44.22185" lon="5.86146">
        <ele>510</ele>
        <time>2019-08-09T10:51:09Z</time>
      </trkpt>
      <trkpt lat="44.22191" lon="5.86142">
        <ele>510</ele>
        <time>2019-08-09T10:51:10Z</time>
      </trkpt>
      <trkpt lat="44.22197" lon="5.8614">
        <ele>510</ele>
        <time>2019-08-09T10:51:11Z</time>
      </trkpt>
      <trkpt lat="44.22203" lon="5.86137">
        <ele>510</ele>
        <time>2019-08-09T10:51:12Z</time>
      </trkpt>
      <trkpt lat="44.22209" lon="5.86134">
        <ele>510</ele>
        <time>2019-08-09T10:51:13Z</time>
      </trkpt>
      <trkpt lat="44.22215" lon="5.86131">
        <ele>510</ele>
        <time>2019-08-09T10:51:14Z</time>
      </trkpt>
      <trkpt lat="44.22221" lon="5.86129">
        <ele>510</ele>
        <time>2019-08-09T10:51:15Z</time>
      </trkpt>
      <trkpt lat="44.22226" lon="5.86126">
        <ele>510</ele>
        <time>2019-08-09T10:51:16Z</time>
      </trkpt>
      <trkpt lat="44.22232" lon="5.86123">
        <ele>510</ele>
        <time>2019-08-09T10:51:17Z</time>
      </trkpt>
      <trkpt lat="44.22238" lon="5.8612">
        <ele>510</ele>
        <time>2019-08-09T10:51:18Z</time>
      </trkpt>
      <trkpt lat="44.22244" lon="5.86117">
        <ele>510</ele>
        <time>2019-08-09T10:51:19Z</time>
      </trkpt>
      <trkpt lat="44.22249" lon="5.86114">
        <ele>510</ele>
        <time>2019-08-09T10:51:20Z</time>
      </trkpt>
      <trkpt lat="44.22255" lon="5.86111">
        <ele>510</ele>
        <time>2019-08-09T10:51:21Z</time>
      </trkpt>
      <trkpt lat="44.22261" lon="5.86108">
        <ele>510</ele>
        <time>2019-08-09T10:51:22Z</time>
      </trkpt>
      <trkpt lat="44.22267" lon="5.86105">
        <ele>510</ele>
        <time>2019-08-09T10:51:23Z</time>
      </trkpt>
      <trkpt lat="44.22273" lon="5.86103">
        <ele>510</ele>
        <time>2019-08-09T10:51:24Z</time>
      </trkpt>
      <trkpt lat="44.22279" lon="5.861">
        <ele>510</ele>
        <time>2019-08-09T10:51:25Z</time>
      </trkpt>
      <trkpt lat="44.22285" lon="5.86097">
        <ele>510</ele>
        <time>2019-08-09T10:51:26Z</time>
      </trkpt>
      <trkpt lat="44.22291" lon="5.86095">
        <ele>510</ele>
        <time>2019-08-09T10:51:27Z</time>
      </trkpt>
      <trkpt lat="44.22297" lon="5.86092">
        <ele>510</ele>
        <time>2019-08-09T10:51:28Z</time>
      </trkpt>
      <trkpt lat="44.22304" lon="5.86089">
        <ele>510</ele>
        <time>2019-08-09T10:51:29Z</time>
      </trkpt>
      <trkpt lat="44.2231" lon="5.86086">
        <ele>510</ele>
        <time>2019-08-09T10:51:30Z</time>
      </trkpt>
      <trkpt lat="44.22316" lon="5.86083">
        <ele>510</ele>
        <time>2019-08-09T10:51:31Z</time>
      </trkpt>
      <trkpt lat="44.22321" lon="5.8608">
        <ele>510</ele>
        <time>2019-08-09T10:51:32Z</time>
      </trkpt>
      <trkpt lat="44.22327" lon="5.86076">
        <ele>510</ele>
        <time>2019-08-09T10:51:33Z</time>
      </trkpt>
      <trkpt lat="44.22333" lon="5.86074">
        <ele>510</ele>
        <time>2019-08-09T10:51:34Z</time>
      </trkpt>
      <trkpt lat="44.22339" lon="5.86071">
        <ele>510</ele>
        <time>2019-08-09T10:51:35Z</time>
      </trkpt>
      <trkpt lat="44.22345" lon="5.86068">
        <ele>510</ele>
        <time>2019-08-09T10:51:36Z</time>
      </trkpt>
      <trkpt lat="44.22351" lon="5.86065">
        <ele>510</ele>
        <time>2019-08-09T10:51:37Z</time>
      </trkpt>
      <trkpt lat="44.22357" lon="5.86063">
        <ele>510</ele>
        <time>2019-08-09T10:51:38Z</time>
      </trkpt>
      <trkpt lat="44.22363" lon="5.8606">
        <ele>510</ele>
        <time>2019-08-09T10:51:39Z</time>
      </trkpt>
      <trkpt lat="44.22369" lon="5.86058">
        <ele>510</ele>
        <time>2019-08-09T10:51:40Z</time>
      </trkpt>
      <trkpt lat="44.22375" lon="5.86056">
        <ele>510</ele>
        <time>2019-08-09T10:51:41Z</time>
      </trkpt>
      <trkpt lat="44.22382" lon="5.86054">
        <ele>510</ele>
        <time>2019-08-09T10:51:42Z</time>
      </trkpt>
      <trkpt lat="44.22388" lon="5.86051">
        <ele>510</ele>
        <time>2019-08-09T10:51:43Z</time>
      </trkpt>
      <trkpt lat="44.22394" lon="5.86049">
        <ele>510</ele>
        <time>2019-08-09T10:51:44Z</time>
      </trkpt>
      <trkpt lat="44.224" lon="5.86046">
        <ele>510</ele>
        <time>2019-08-09T10:51:45Z</time>
      </trkpt>
      <trkpt lat="44.22406" lon="5.86043">
        <ele>510</ele>
        <time>2019-08-09T10:51:46Z</time>
      </trkpt>
      <trkpt lat="44.22413" lon="5.86041">
        <ele>510</ele>
        <time>2019-08-09T10:51:47Z</time>
      </trkpt>
      <trkpt lat="44.22419" lon="5.86038">
        <ele>510</ele>
        <time>2019-08-09T10:51:48Z</time>
      </trkpt>
      <trkpt lat="44.22425" lon="5.86035">
        <ele>510</ele>
        <time>2019-08-09T10:51:49Z</time>
      </trkpt>
      <trkpt lat="44.22432" lon="5.86031">
        <ele>510</ele>
        <time>2019-08-09T10:51:50Z</time>
      </trkpt>
      <trkpt lat="44.22438" lon="5.86028">
        <ele>510</ele>
        <time>2019-08-09T10:51:51Z</time>
      </trkpt>
      <trkpt lat="44.22444" lon="5.86025">
        <ele>510</ele>
        <time>2019-08-09T10:51:52Z</time>
      </trkpt>
      <trkpt lat="44.22451" lon="5.86023">
        <ele>510</ele>
        <time>2019-08-09T10:51:53Z</time>
      </trkpt>
      <trkpt lat="44.22457" lon="5.8602">
        <ele>510</ele>
        <time>2019-08-09T10:51:54Z</time>
      </trkpt>
      <trkpt lat="44.22463" lon="5.86017">
        <ele>510</ele>
        <time>2019-08-09T10:51:55Z</time>
      </trkpt>
      <trkpt lat="44.22469" lon="5.86014">
        <ele>510</ele>
        <time>2019-08-09T10:51:56Z</time>
      </trkpt>
      <trkpt lat="44.22475" lon="5.8601">
        <ele>510</ele>
        <time>2019-08-09T10:51:57Z</time>
      </trkpt>
      <trkpt lat="44.22482" lon="5.86007">
        <ele>510</ele>
        <time>2019-08-09T10:51:59Z</time>
      </trkpt>
      <trkpt lat="44.22488" lon="5.86003">
        <ele>510</ele>
        <time>2019-08-09T10:51:59Z</time>
      </trkpt>
      <trkpt lat="44.22494" lon="5.86">
        <ele>510</ele>
        <time>2019-08-09T10:52:00Z</time>
      </trkpt>
      <trkpt lat="44.22501" lon="5.85997">
        <ele>510</ele>
        <time>2019-08-09T10:52:01Z</time>
      </trkpt>
      <trkpt lat="44.22507" lon="5.85994">
        <ele>510</ele>
        <time>2019-08-09T10:52:02Z</time>
      </trkpt>
      <trkpt lat="44.22513" lon="5.85991">
        <ele>510</ele>
        <time>2019-08-09T10:52:03Z</time>
      </trkpt>
      <trkpt lat="44.2252" lon="5.85988">
        <ele>510</ele>
        <time>2019-08-09T10:52:04Z</time>
      </trkpt>
      <trkpt lat="44.22526" lon="5.85985">
        <ele>510</ele>
        <time>2019-08-09T10:52:05Z</time>
      </trkpt>
      <trkpt lat="44.22532" lon="5.85981">
        <ele>510</ele>
        <time>2019-08-09T10:52:06Z</time>
      </trkpt>
      <trkpt lat="44.22538" lon="5.85978">
        <ele>510</ele>
        <time>2019-08-09T10:52:07Z</time>
      </trkpt>
      <trkpt lat="44.22544" lon="5.85974">
        <ele>510</ele>
        <time>2019-08-09T10:52:08Z</time>
      </trkpt>
      <trkpt lat="44.22551" lon="5.85971">
        <ele>510</ele>
        <time>2019-08-09T10:52:09Z</time>
      </trkpt>
      <trkpt lat="44.22557" lon="5.85968">
        <ele>510</ele>
        <time>2019-08-09T10:52:10Z</time>
      </trkpt>
      <trkpt lat="44.22563" lon="5.85965">
        <ele>510</ele>
        <time>2019-08-09T10:52:11Z</time>
      </trkpt>
      <trkpt lat="44.2257" lon="5.85962">
        <ele>510</ele>
        <time>2019-08-09T10:52:12Z</time>
      </trkpt>
      <trkpt lat="44.22576" lon="5.85959">
        <ele>510</ele>
        <time>2019-08-09T10:52:13Z</time>
      </trkpt>
      <trkpt lat="44.22582" lon="5.85956">
        <ele>510</ele>
        <time>2019-08-09T10:52:14Z</time>
      </trkpt>
      <trkpt lat="44.22588" lon="5.85952">
        <ele>510</ele>
        <time>2019-08-09T10:52:15Z</time>
      </trkpt>
      <trkpt lat="44.22594" lon="5.85948">
        <ele>510</ele>
        <time>2019-08-09T10:52:16Z</time>
      </trkpt>
      <trkpt lat="44.22599" lon="5.85945">
        <ele>510</ele>
        <time>2019-08-09T10:52:17Z</time>
      </trkpt>
      <trkpt lat="44.22606" lon="5.85942">
        <ele>510</ele>
        <time>2019-08-09T10:52:18Z</time>
      </trkpt>
      <trkpt lat="44.22612" lon="5.85939">
        <ele>510</ele>
        <time>2019-08-09T10:52:19Z</time>
      </trkpt>
      <trkpt lat="44.22618" lon="5.85936">
        <ele>510</ele>
        <time>2019-08-09T10:52:20Z</time>
      </trkpt>
      <trkpt lat="44.22624" lon="5.85933">
        <ele>510</ele>
        <time>2019-08-09T10:52:21Z</time>
      </trkpt>
      <trkpt lat="44.2263" lon="5.8593">
        <ele>510</ele>
        <time>2019-08-09T10:52:22Z</time>
      </trkpt>
      <trkpt lat="44.22636" lon="5.85926">
        <ele>510</ele>
        <time>2019-08-09T10:52:23Z</time>
      </trkpt>
      <trkpt lat="44.22642" lon="5.85923">
        <ele>510</ele>
        <time>2019-08-09T10:52:24Z</time>
      </trkpt>
      <trkpt lat="44.22648" lon="5.8592">
        <ele>510</ele>
        <time>2019-08-09T10:52:25Z</time>
      </trkpt>
      <trkpt lat="44.22654" lon="5.85917">
        <ele>510</ele>
        <time>2019-08-09T10:52:26Z</time>
      </trkpt>
      <trkpt lat="44.2266" lon="5.85914">
        <ele>510</ele>
        <time>2019-08-09T10:52:27Z</time>
      </trkpt>
      <trkpt lat="44.22666" lon="5.85911">
        <ele>510</ele>
        <time>2019-08-09T10:52:28Z</time>
      </trkpt>
      <trkpt lat="44.22672" lon="5.85908">
        <ele>510</ele>
        <time>2019-08-09T10:52:29Z</time>
      </trkpt>
      <trkpt lat="44.22678" lon="5.85905">
        <ele>510</ele>
        <time>2019-08-09T10:52:30Z</time>
      </trkpt>
      <trkpt lat="44.22684" lon="5.85902">
        <ele>510</ele>
        <time>2019-08-09T10:52:31Z</time>
      </trkpt>
      <trkpt lat="44.2269" lon="5.85899">
        <ele>510</ele>
        <time>2019-08-09T10:52:32Z</time>
      </trkpt>
      <trkpt lat="44.22696" lon="5.85896">
        <ele>510</ele>
        <time>2019-08-09T10:52:33Z</time>
      </trkpt>
      <trkpt lat="44.22702" lon="5.85892">
        <ele>511</ele>
        <time>2019-08-09T10:52:34Z</time>
      </trkpt>
      <trkpt lat="44.22707" lon="5.85889">
        <ele>511</ele>
        <time>2019-08-09T10:52:35Z</time>
      </trkpt>
      <trkpt lat="44.22714" lon="5.85886">
        <ele>511</ele>
        <time>2019-08-09T10:52:36Z</time>
      </trkpt>
      <trkpt lat="44.2272" lon="5.85884">
        <ele>512</ele>
        <time>2019-08-09T10:52:37Z</time>
      </trkpt>
      <trkpt lat="44.22726" lon="5.85881">
        <ele>512</ele>
        <time>2019-08-09T10:52:38Z</time>
      </trkpt>
      <trkpt lat="44.22732" lon="5.85878">
        <ele>512</ele>
        <time>2019-08-09T10:52:39Z</time>
      </trkpt>
      <trkpt lat="44.22739" lon="5.85875">
        <ele>512</ele>
        <time>2019-08-09T10:52:40Z</time>
      </trkpt>
      <trkpt lat="44.22745" lon="5.85871">
        <ele>512</ele>
        <time>2019-08-09T10:52:41Z</time>
      </trkpt>
      <trkpt lat="44.22751" lon="5.85869">
        <ele>512</ele>
        <time>2019-08-09T10:52:42Z</time>
      </trkpt>
      <trkpt lat="44.22757" lon="5.85866">
        <ele>512</ele>
        <time>2019-08-09T10:52:43Z</time>
      </trkpt>
      <trkpt lat="44.22763" lon="5.85863">
        <ele>512</ele>
        <time>2019-08-09T10:52:44Z</time>
      </trkpt>
      <trkpt lat="44.2277" lon="5.8586">
        <ele>512</ele>
        <time>2019-08-09T10:52:45Z</time>
      </trkpt>
      <trkpt lat="44.22776" lon="5.85857">
        <ele>512</ele>
        <time>2019-08-09T10:52:46Z</time>
      </trkpt>
      <trkpt lat="44.22782" lon="5.85854">
        <ele>512</ele>
        <time>2019-08-09T10:52:47Z</time>
      </trkpt>
      <trkpt lat="44.22788" lon="5.85851">
        <ele>512</ele>
        <time>2019-08-09T10:52:48Z</time>
      </trkpt>
      <trkpt lat="44.22794" lon="5.85848">
        <ele>512</ele>
        <time>2019-08-09T10:52:49Z</time>
      </trkpt>
      <trkpt lat="44.228" lon="5.85845">
        <ele>512</ele>
        <time>2019-08-09T10:52:50Z</time>
      </trkpt>
      <trkpt lat="44.22807" lon="5.85842">
        <ele>512</ele>
        <time>2019-08-09T10:52:51Z</time>
      </trkpt>
      <trkpt lat="44.22813" lon="5.8584">
        <ele>512</ele>
        <time>2019-08-09T10:52:52Z</time>
      </trkpt>
      <trkpt lat="44.2282" lon="5.85837">
        <ele>512</ele>
        <time>2019-08-09T10:52:53Z</time>
      </trkpt>
      <trkpt lat="44.22827" lon="5.85834">
        <ele>513</ele>
        <time>2019-08-09T10:52:54Z</time>
      </trkpt>
      <trkpt lat="44.22833" lon="5.8583">
        <ele>513</ele>
        <time>2019-08-09T10:52:55Z</time>
      </trkpt>
      <trkpt lat="44.22839" lon="5.85827">
        <ele>514</ele>
        <time>2019-08-09T10:52:56Z</time>
      </trkpt>
      <trkpt lat="44.22845" lon="5.85824">
        <ele>514</ele>
        <time>2019-08-09T10:52:57Z</time>
      </trkpt>
      <trkpt lat="44.22852" lon="5.85821">
        <ele>514</ele>
        <time>2019-08-09T10:52:58Z</time>
      </trkpt>
      <trkpt lat="44.22858" lon="5.85818">
        <ele>514</ele>
        <time>2019-08-09T10:52:59Z</time>
      </trkpt>
      <trkpt lat="44.22865" lon="5.85815">
        <ele>514</ele>
        <time>2019-08-09T10:53:00Z</time>
      </trkpt>
      <trkpt lat="44.22871" lon="5.85812">
        <ele>514</ele>
        <time>2019-08-09T10:53:01Z</time>
      </trkpt>
      <trkpt lat="44.22878" lon="5.85809">
        <ele>514</ele>
        <time>2019-08-09T10:53:02Z</time>
      </trkpt>
      <trkpt lat="44.22885" lon="5.85805">
        <ele>514</ele>
        <time>2019-08-09T10:53:03Z</time>
      </trkpt>
      <trkpt lat="44.22891" lon="5.85802">
        <ele>514</ele>
        <time>2019-08-09T10:53:04Z</time>
      </trkpt>
      <trkpt lat="44.22898" lon="5.85798">
        <ele>514</ele>
        <time>2019-08-09T10:53:05Z</time>
      </trkpt>
      <trkpt lat="44.22904" lon="5.85795">
        <ele>514</ele>
        <time>2019-08-09T10:53:06Z</time>
      </trkpt>
      <trkpt lat="44.2291" lon="5.85792">
        <ele>514</ele>
        <time>2019-08-09T10:53:07Z</time>
      </trkpt>
      <trkpt lat="44.22917" lon="5.85789">
        <ele>514</ele>
        <time>2019-08-09T10:53:08Z</time>
      </trkpt>
      <trkpt lat="44.22923" lon="5.85786">
        <ele>514</ele>
        <time>2019-08-09T10:53:09Z</time>
      </trkpt>
      <trkpt lat="44.22929" lon="5.85783">
        <ele>514</ele>
        <time>2019-08-09T10:53:10Z</time>
      </trkpt>
      <trkpt lat="44.22935" lon="5.85779">
        <ele>514</ele>
        <time>2019-08-09T10:53:11Z</time>
      </trkpt>
      <trkpt lat="44.22941" lon="5.85777">
        <ele>514</ele>
        <time>2019-08-09T10:53:12Z</time>
      </trkpt>
      <trkpt lat="44.22946" lon="5.85774">
        <ele>514</ele>
        <time>2019-08-09T10:53:13Z</time>
      </trkpt>
      <trkpt lat="44.22951" lon="5.85772">
        <ele>514</ele>
        <time>2019-08-09T10:53:14Z</time>
      </trkpt>
      <trkpt lat="44.22956" lon="5.85769">
        <ele>514</ele>
        <time>2019-08-09T10:53:15Z</time>
      </trkpt>
      <trkpt lat="44.22959" lon="5.85767">
        <ele>514</ele>
        <time>2019-08-09T10:53:16Z</time>
      </trkpt>
      <trkpt lat="44.22963" lon="5.85765">
        <ele>514</ele>
        <time>2019-08-09T10:53:17Z</time>
      </trkpt>
      <trkpt lat="44.22966" lon="5.85761">
        <ele>514</ele>
        <time>2019-08-09T10:53:18Z</time>
      </trkpt>
      <trkpt lat="44.22969" lon="5.85758">
        <ele>514</ele>
        <time>2019-08-09T10:53:19Z</time>
      </trkpt>
      <trkpt lat="44.22973" lon="5.85755">
        <ele>514</ele>
        <time>2019-08-09T10:53:20Z</time>
      </trkpt>
      <trkpt lat="44.22977" lon="5.85753">
        <ele>515</ele>
        <time>2019-08-09T10:53:21Z</time>
      </trkpt>
      <trkpt lat="44.22981" lon="5.8575">
        <ele>515</ele>
        <time>2019-08-09T10:53:22Z</time>
      </trkpt>
      <trkpt lat="44.22985" lon="5.85748">
        <ele>516</ele>
        <time>2019-08-09T10:53:23Z</time>
      </trkpt>
      <trkpt lat="44.2299" lon="5.85745">
        <ele>516</ele>
        <time>2019-08-09T10:53:24Z</time>
      </trkpt>
      <trkpt lat="44.22995" lon="5.85741">
        <ele>516</ele>
        <time>2019-08-09T10:53:25Z</time>
      </trkpt>
      <trkpt lat="44.23" lon="5.85738">
        <ele>517</ele>
        <time>2019-08-09T10:53:26Z</time>
      </trkpt>
      <trkpt lat="44.23005" lon="5.85734">
        <ele>517</ele>
        <time>2019-08-09T10:53:27Z</time>
      </trkpt>
      <trkpt lat="44.23009" lon="5.8573">
        <ele>517</ele>
        <time>2019-08-09T10:53:28Z</time>
      </trkpt>
      <trkpt lat="44.23014" lon="5.85727">
        <ele>517</ele>
        <time>2019-08-09T10:53:29Z</time>
      </trkpt>
      <trkpt lat="44.23019" lon="5.85723">
        <ele>517</ele>
        <time>2019-08-09T10:53:30Z</time>
      </trkpt>
      <trkpt lat="44.23025" lon="5.8572">
        <ele>517</ele>
        <time>2019-08-09T10:53:31Z</time>
      </trkpt>
      <trkpt lat="44.23029" lon="5.85715">
        <ele>517</ele>
        <time>2019-08-09T10:53:32Z</time>
      </trkpt>
      <trkpt lat="44.23034" lon="5.85711">
        <ele>517</ele>
        <time>2019-08-09T10:53:33Z</time>
      </trkpt>
      <trkpt lat="44.23039" lon="5.85707">
        <ele>517</ele>
        <time>2019-08-09T10:53:34Z</time>
      </trkpt>
      <trkpt lat="44.23044" lon="5.85704">
        <ele>517</ele>
        <time>2019-08-09T10:53:35Z</time>
      </trkpt>
      <trkpt lat="44.23049" lon="5.857">
        <ele>518</ele>
        <time>2019-08-09T10:53:36Z</time>
      </trkpt>
      <trkpt lat="44.23054" lon="5.85696">
        <ele>518</ele>
        <time>2019-08-09T10:53:37Z</time>
      </trkpt>
      <trkpt lat="44.23059" lon="5.85692">
        <ele>518</ele>
        <time>2019-08-09T10:53:38Z</time>
      </trkpt>
      <trkpt lat="44.23064" lon="5.85689">
        <ele>518</ele>
        <time>2019-08-09T10:53:39Z</time>
      </trkpt>
      <trkpt lat="44.23069" lon="5.85685">
        <ele>519</ele>
        <time>2019-08-09T10:53:40Z</time>
      </trkpt>
      <trkpt lat="44.23074" lon="5.85681">
        <ele>519</ele>
        <time>2019-08-09T10:53:41Z</time>
      </trkpt>
      <trkpt lat="44.23079" lon="5.85678">
        <ele>519</ele>
        <time>2019-08-09T10:53:42Z</time>
      </trkpt>
      <trkpt lat="44.23084" lon="5.85675">
        <ele>519</ele>
        <time>2019-08-09T10:53:43Z</time>
      </trkpt>
      <trkpt lat="44.23089" lon="5.85673">
        <ele>519</ele>
        <time>2019-08-09T10:53:44Z</time>
      </trkpt>
      <trkpt lat="44.23093" lon="5.8567">
        <ele>519</ele>
        <time>2019-08-09T10:53:45Z</time>
      </trkpt>
      <trkpt lat="44.23098" lon="5.85667">
        <ele>520</ele>
        <time>2019-08-09T10:53:46Z</time>
      </trkpt>
      <trkpt lat="44.23102" lon="5.85664">
        <ele>521</ele>
        <time>2019-08-09T10:53:47Z</time>
      </trkpt>
      <trkpt lat="44.23105" lon="5.85661">
        <ele>522</ele>
        <time>2019-08-09T10:53:48Z</time>
      </trkpt>
      <trkpt lat="44.23108" lon="5.85658">
        <ele>522</ele>
        <time>2019-08-09T10:53:49Z</time>
      </trkpt>
      <trkpt lat="44.23109" lon="5.85656">
        <ele>523</ele>
        <time>2019-08-09T10:53:50Z</time>
      </trkpt>
      <trkpt lat="44.23111" lon="5.85653">
        <ele>523</ele>
        <time>2019-08-09T10:53:51Z</time>
      </trkpt>
      <trkpt lat="44.23111" lon="5.85652">
        <ele>523</ele>
        <time>2019-08-09T10:53:52Z</time>
      </trkpt>
      <trkpt lat="44.2311" lon="5.8565">
        <ele>523</ele>
        <time>2019-08-09T10:53:54Z</time>
      </trkpt>
      <trkpt lat="44.2311" lon="5.85652">
        <ele>523</ele>
        <time>2019-08-09T10:54:07Z</time>
      </trkpt>
      <trkpt lat="44.2311" lon="5.85653">
        <ele>523</ele>
        <time>2019-08-09T10:54:09Z</time>
      </trkpt>
      <trkpt lat="44.2311" lon="5.85656">
        <ele>522</ele>
        <time>2019-08-09T10:54:11Z</time>
      </trkpt>
      <trkpt lat="44.23109" lon="5.85658">
        <ele>522</ele>
        <time>2019-08-09T10:54:13Z</time>
      </trkpt>
      <trkpt lat="44.23111" lon="5.8566">
        <ele>521</ele>
        <time>2019-08-09T10:54:16Z</time>
      </trkpt>
      <trkpt lat="44.23109" lon="5.8566">
        <ele>521</ele>
        <time>2019-08-09T10:54:33Z</time>
      </trkpt>
      <trkpt lat="44.23109" lon="5.85662">
        <ele>521</ele>
        <time>2019-08-09T10:55:03Z</time>
      </trkpt>
      <trkpt lat="44.23109" lon="5.85665">
        <ele>524</ele>
        <time>2019-08-09T10:55:07Z</time>
      </trkpt>
      <trkpt lat="44.23109" lon="5.85666">
        <ele>524</ele>
        <time>2019-08-09T10:55:10Z</time>
      </trkpt>
      <trkpt lat="44.23109" lon="5.85665">
        <ele>524</ele>
        <time>2019-08-09T10:55:21Z</time>
      </trkpt>
      <trkpt lat="44.2311" lon="5.85663">
        <ele>524</ele>
        <time>2019-08-09T10:55:25Z</time>
      </trkpt>
      <trkpt lat="44.23111" lon="5.85662">
        <ele>523</ele>
        <time>2019-08-09T10:55:29Z</time>
      </trkpt>
      <trkpt lat="44.23112" lon="5.85662">
        <ele>522</ele>
        <time>2019-08-09T10:55:34Z</time>
      </trkpt>
      <trkpt lat="44.23114" lon="5.8566">
        <ele>520</ele>
        <time>2019-08-09T10:55:48Z</time>
      </trkpt>
      <trkpt lat="44.23115" lon="5.85659">
        <ele>516</ele>
        <time>2019-08-09T10:55:57Z</time>
      </trkpt>
      <trkpt lat="44.23116" lon="5.85657">
        <ele>513</ele>
        <time>2019-08-09T10:56:06Z</time>
      </trkpt>
      <trkpt lat="44.23117" lon="5.85655">
        <ele>513</ele>
        <time>2019-08-09T10:56:09Z</time>
      </trkpt>
      <trkpt lat="44.23118" lon="5.85653">
        <ele>513</ele>
        <time>2019-08-09T10:56:11Z</time>
      </trkpt>
      <trkpt lat="44.23119" lon="5.85651">
        <ele>513</ele>
        <time>2019-08-09T10:56:12Z</time>
      </trkpt>
      <trkpt lat="44.2312" lon="5.8565">
        <ele>513</ele>
        <time>2019-08-09T10:56:13Z</time>
      </trkpt>
      <trkpt lat="44.23122" lon="5.85648">
        <ele>513</ele>
        <time>2019-08-09T10:56:14Z</time>
      </trkpt>
      <trkpt lat="44.23124" lon="5.85646">
        <ele>513</ele>
        <time>2019-08-09T10:56:15Z</time>
      </trkpt>
      <trkpt lat="44.23127" lon="5.85643">
        <ele>513</ele>
        <time>2019-08-09T10:56:16Z</time>
      </trkpt>
      <trkpt lat="44.2313" lon="5.8564">
        <ele>513</ele>
        <time>2019-08-09T10:56:17Z</time>
      </trkpt>
      <trkpt lat="44.23133" lon="5.85637">
        <ele>513</ele>
        <time>2019-08-09T10:56:18Z</time>
      </trkpt>
      <trkpt lat="44.23136" lon="5.85635">
        <ele>513</ele>
        <time>2019-08-09T10:56:19Z</time>
      </trkpt>
      <trkpt lat="44.23138" lon="5.85632">
        <ele>513</ele>
        <time>2019-08-09T10:56:20Z</time>
      </trkpt>
      <trkpt lat="44.2314" lon="5.85628">
        <ele>513</ele>
        <time>2019-08-09T10:56:21Z</time>
      </trkpt>
      <trkpt lat="44.23143" lon="5.85626">
        <ele>513</ele>
        <time>2019-08-09T10:56:22Z</time>
      </trkpt>
      <trkpt lat="44.23145" lon="5.85623">
        <ele>513</ele>
        <time>2019-08-09T10:56:23Z</time>
      </trkpt>
      <trkpt lat="44.23148" lon="5.85619">
        <ele>513</ele>
        <time>2019-08-09T10:56:24Z</time>
      </trkpt>
      <trkpt lat="44.2315" lon="5.85617">
        <ele>513</ele>
        <time>2019-08-09T10:56:25Z</time>
      </trkpt>
      <trkpt lat="44.23153" lon="5.85614">
        <ele>513</ele>
        <time>2019-08-09T10:56:26Z</time>
      </trkpt>
      <trkpt lat="44.23156" lon="5.85609">
        <ele>513</ele>
        <time>2019-08-09T10:56:27Z</time>
      </trkpt>
      <trkpt lat="44.2316" lon="5.85605">
        <ele>513</ele>
        <time>2019-08-09T10:56:28Z</time>
      </trkpt>
      <trkpt lat="44.23163" lon="5.85599">
        <ele>513</ele>
        <time>2019-08-09T10:56:29Z</time>
      </trkpt>
      <trkpt lat="44.23167" lon="5.85593">
        <ele>513</ele>
        <time>2019-08-09T10:56:30Z</time>
      </trkpt>
      <trkpt lat="44.23171" lon="5.85585">
        <ele>513</ele>
        <time>2019-08-09T10:56:31Z</time>
      </trkpt>
      <trkpt lat="44.23175" lon="5.85578">
        <ele>513</ele>
        <time>2019-08-09T10:56:32Z</time>
      </trkpt>
      <trkpt lat="44.23179" lon="5.85571">
        <ele>513</ele>
        <time>2019-08-09T10:56:33Z</time>
      </trkpt>
      <trkpt lat="44.23183" lon="5.85563">
        <ele>513</ele>
        <time>2019-08-09T10:56:34Z</time>
      </trkpt>
      <trkpt lat="44.23188" lon="5.85555">
        <ele>513</ele>
        <time>2019-08-09T10:56:35Z</time>
      </trkpt>
      <trkpt lat="44.23194" lon="5.85549">
        <ele>513</ele>
        <time>2019-08-09T10:56:36Z</time>
      </trkpt>
      <trkpt lat="44.23201" lon="5.85541">
        <ele>513</ele>
        <time>2019-08-09T10:56:37Z</time>
      </trkpt>
      <trkpt lat="44.23206" lon="5.85532">
        <ele>513</ele>
        <time>2019-08-09T10:56:38Z</time>
      </trkpt>
      <trkpt lat="44.23214" lon="5.85525">
        <ele>513</ele>
        <time>2019-08-09T10:56:39Z</time>
      </trkpt>
      <trkpt lat="44.23222" lon="5.85519">
        <ele>513</ele>
        <time>2019-08-09T10:56:40Z</time>
      </trkpt>
      <trkpt lat="44.2323" lon="5.85514">
        <ele>513</ele>
        <time>2019-08-09T10:56:41Z</time>
      </trkpt>
      <trkpt lat="44.23238" lon="5.8551">
        <ele>513</ele>
        <time>2019-08-09T10:56:42Z</time>
      </trkpt>
      <trkpt lat="44.23247" lon="5.85508">
        <ele>513</ele>
        <time>2019-08-09T10:56:43Z</time>
      </trkpt>
      <trkpt lat="44.23255" lon="5.85506">
        <ele>513</ele>
        <time>2019-08-09T10:56:44Z</time>
      </trkpt>
      <trkpt lat="44.23262" lon="5.85504">
        <ele>513</ele>
        <time>2019-08-09T10:56:45Z</time>
      </trkpt>
      <trkpt lat="44.2327" lon="5.85503">
        <ele>513</ele>
        <time>2019-08-09T10:56:46Z</time>
      </trkpt>
      <trkpt lat="44.23277" lon="5.85502">
        <ele>513</ele>
        <time>2019-08-09T10:56:47Z</time>
      </trkpt>
      <trkpt lat="44.23284" lon="5.85501">
        <ele>513</ele>
        <time>2019-08-09T10:56:48Z</time>
      </trkpt>
      <trkpt lat="44.23291" lon="5.855">
        <ele>513</ele>
        <time>2019-08-09T10:56:49Z</time>
      </trkpt>
      <trkpt lat="44.23297" lon="5.85499">
        <ele>513</ele>
        <time>2019-08-09T10:56:50Z</time>
      </trkpt>
      <trkpt lat="44.23303" lon="5.85497">
        <ele>513</ele>
        <time>2019-08-09T10:56:51Z</time>
      </trkpt>
      <trkpt lat="44.23309" lon="5.85496">
        <ele>513</ele>
        <time>2019-08-09T10:56:52Z</time>
      </trkpt>
      <trkpt lat="44.23314" lon="5.85496">
        <ele>513</ele>
        <time>2019-08-09T10:56:53Z</time>
      </trkpt>
      <trkpt lat="44.2332" lon="5.85496">
        <ele>513</ele>
        <time>2019-08-09T10:56:54Z</time>
      </trkpt>
      <trkpt lat="44.23325" lon="5.85495">
        <ele>513</ele>
        <time>2019-08-09T10:56:55Z</time>
      </trkpt>
      <trkpt lat="44.23331" lon="5.85495">
        <ele>513</ele>
        <time>2019-08-09T10:56:56Z</time>
      </trkpt>
      <trkpt lat="44.23336" lon="5.85495">
        <ele>513</ele>
        <time>2019-08-09T10:56:57Z</time>
      </trkpt>
      <trkpt lat="44.23341" lon="5.85495">
        <ele>513</ele>
        <time>2019-08-09T10:56:58Z</time>
      </trkpt>
      <trkpt lat="44.23346" lon="5.85496">
        <ele>513</ele>
        <time>2019-08-09T10:56:59Z</time>
      </trkpt>
      <trkpt lat="44.2335" lon="5.85496">
        <ele>513</ele>
        <time>2019-08-09T10:57:00Z</time>
      </trkpt>
      <trkpt lat="44.23354" lon="5.85496">
        <ele>513</ele>
        <time>2019-08-09T10:57:01Z</time>
      </trkpt>
      <trkpt lat="44.23359" lon="5.85497">
        <ele>513</ele>
        <time>2019-08-09T10:57:02Z</time>
      </trkpt>
      <trkpt lat="44.23363" lon="5.85497">
        <ele>513</ele>
        <time>2019-08-09T10:57:03Z</time>
      </trkpt>
      <trkpt lat="44.23368" lon="5.85498">
        <ele>513</ele>
        <time>2019-08-09T10:57:04Z</time>
      </trkpt>
      <trkpt lat="44.23372" lon="5.85498">
        <ele>513</ele>
        <time>2019-08-09T10:57:05Z</time>
      </trkpt>
      <trkpt lat="44.23377" lon="5.85499">
        <ele>514</ele>
        <time>2019-08-09T10:57:06Z</time>
      </trkpt>
      <trkpt lat="44.23381" lon="5.85499">
        <ele>514</ele>
        <time>2019-08-09T10:57:07Z</time>
      </trkpt>
      <trkpt lat="44.23385" lon="5.855">
        <ele>514</ele>
        <time>2019-08-09T10:57:08Z</time>
      </trkpt>
      <trkpt lat="44.23389" lon="5.855">
        <ele>514</ele>
        <time>2019-08-09T10:57:09Z</time>
      </trkpt>
      <trkpt lat="44.23394" lon="5.85501">
        <ele>515</ele>
        <time>2019-08-09T10:57:10Z</time>
      </trkpt>
      <trkpt lat="44.23399" lon="5.85501">
        <ele>515</ele>
        <time>2019-08-09T10:57:11Z</time>
      </trkpt>
      <trkpt lat="44.23403" lon="5.85502">
        <ele>515</ele>
        <time>2019-08-09T10:57:12Z</time>
      </trkpt>
      <trkpt lat="44.23408" lon="5.85502">
        <ele>516</ele>
        <time>2019-08-09T10:57:13Z</time>
      </trkpt>
      <trkpt lat="44.23412" lon="5.85502">
        <ele>516</ele>
        <time>2019-08-09T10:57:14Z</time>
      </trkpt>
      <trkpt lat="44.23417" lon="5.85502">
        <ele>516</ele>
        <time>2019-08-09T10:57:15Z</time>
      </trkpt>
      <trkpt lat="44.23421" lon="5.85502">
        <ele>516</ele>
        <time>2019-08-09T10:57:16Z</time>
      </trkpt>
      <trkpt lat="44.23425" lon="5.85502">
        <ele>517</ele>
        <time>2019-08-09T10:57:17Z</time>
      </trkpt>
      <trkpt lat="44.2343" lon="5.855">
        <ele>517</ele>
        <time>2019-08-09T10:57:18Z</time>
      </trkpt>
      <trkpt lat="44.23434" lon="5.85499">
        <ele>517</ele>
        <time>2019-08-09T10:57:19Z</time>
      </trkpt>
      <trkpt lat="44.23438" lon="5.85499">
        <ele>517</ele>
        <time>2019-08-09T10:57:20Z</time>
      </trkpt>
      <trkpt lat="44.23442" lon="5.85498">
        <ele>517</ele>
        <time>2019-08-09T10:57:21Z</time>
      </trkpt>
      <trkpt lat="44.23447" lon="5.85498">
        <ele>517</ele>
        <time>2019-08-09T10:57:22Z</time>
      </trkpt>
      <trkpt lat="44.23451" lon="5.85497">
        <ele>517</ele>
        <time>2019-08-09T10:57:23Z</time>
      </trkpt>
      <trkpt lat="44.23455" lon="5.85496">
        <ele>517</ele>
        <time>2019-08-09T10:57:24Z</time>
      </trkpt>
      <trkpt lat="44.23459" lon="5.85495">
        <ele>517</ele>
        <time>2019-08-09T10:57:25Z</time>
      </trkpt>
      <trkpt lat="44.23463" lon="5.85494">
        <ele>517</ele>
        <time>2019-08-09T10:57:26Z</time>
      </trkpt>
      <trkpt lat="44.23468" lon="5.85493">
        <ele>517</ele>
        <time>2019-08-09T10:57:27Z</time>
      </trkpt>
      <trkpt lat="44.23472" lon="5.85492">
        <ele>517</ele>
        <time>2019-08-09T10:57:28Z</time>
      </trkpt>
      <trkpt lat="44.23476" lon="5.85491">
        <ele>517</ele>
        <time>2019-08-09T10:57:29Z</time>
      </trkpt>
      <trkpt lat="44.2348" lon="5.85489">
        <ele>517</ele>
        <time>2019-08-09T10:57:30Z</time>
      </trkpt>
      <trkpt lat="44.23484" lon="5.85487">
        <ele>517</ele>
        <time>2019-08-09T10:57:31Z</time>
      </trkpt>
      <trkpt lat="44.23489" lon="5.85485">
        <ele>517</ele>
        <time>2019-08-09T10:57:32Z</time>
      </trkpt>
      <trkpt lat="44.23493" lon="5.85483">
        <ele>517</ele>
        <time>2019-08-09T10:57:33Z</time>
      </trkpt>
      <trkpt lat="44.23498" lon="5.8548">
        <ele>518</ele>
        <time>2019-08-09T10:57:34Z</time>
      </trkpt>
      <trkpt lat="44.23502" lon="5.85477">
        <ele>518</ele>
        <time>2019-08-09T10:57:35Z</time>
      </trkpt>
      <trkpt lat="44.23506" lon="5.85474">
        <ele>518</ele>
        <time>2019-08-09T10:57:36Z</time>
      </trkpt>
      <trkpt lat="44.2351" lon="5.85471">
        <ele>518</ele>
        <time>2019-08-09T10:57:37Z</time>
      </trkpt>
      <trkpt lat="44.23515" lon="5.85467">
        <ele>518</ele>
        <time>2019-08-09T10:57:38Z</time>
      </trkpt>
      <trkpt lat="44.23518" lon="5.85463">
        <ele>518</ele>
        <time>2019-08-09T10:57:39Z</time>
      </trkpt>
      <trkpt lat="44.23523" lon="5.85459">
        <ele>518</ele>
        <time>2019-08-09T10:57:40Z</time>
      </trkpt>
      <trkpt lat="44.23527" lon="5.85454">
        <ele>518</ele>
        <time>2019-08-09T10:57:41Z</time>
      </trkpt>
      <trkpt lat="44.23531" lon="5.85449">
        <ele>518</ele>
        <time>2019-08-09T10:57:42Z</time>
      </trkpt>
      <trkpt lat="44.23534" lon="5.85445">
        <ele>518</ele>
        <time>2019-08-09T10:57:43Z</time>
      </trkpt>
      <trkpt lat="44.23538" lon="5.8544">
        <ele>518</ele>
        <time>2019-08-09T10:57:44Z</time>
      </trkpt>
      <trkpt lat="44.23541" lon="5.85435">
        <ele>518</ele>
        <time>2019-08-09T10:57:45Z</time>
      </trkpt>
      <trkpt lat="44.23544" lon="5.85429">
        <ele>518</ele>
        <time>2019-08-09T10:57:46Z</time>
      </trkpt>
      <trkpt lat="44.23547" lon="5.85424">
        <ele>518</ele>
        <time>2019-08-09T10:57:47Z</time>
      </trkpt>
      <trkpt lat="44.2355" lon="5.85418">
        <ele>518</ele>
        <time>2019-08-09T10:57:48Z</time>
      </trkpt>
      <trkpt lat="44.23552" lon="5.85412">
        <ele>518</ele>
        <time>2019-08-09T10:57:49Z</time>
      </trkpt>
      <trkpt lat="44.23555" lon="5.85406">
        <ele>518</ele>
        <time>2019-08-09T10:57:50Z</time>
      </trkpt>
      <trkpt lat="44.23557" lon="5.85399">
        <ele>518</ele>
        <time>2019-08-09T10:57:51Z</time>
      </trkpt>
      <trkpt lat="44.2356" lon="5.85392">
        <ele>518</ele>
        <time>2019-08-09T10:57:52Z</time>
      </trkpt>
      <trkpt lat="44.23562" lon="5.85385">
        <ele>518</ele>
        <time>2019-08-09T10:57:53Z</time>
      </trkpt>
      <trkpt lat="44.23564" lon="5.85378">
        <ele>518</ele>
        <time>2019-08-09T10:57:54Z</time>
      </trkpt>
      <trkpt lat="44.23566" lon="5.8537">
        <ele>518</ele>
        <time>2019-08-09T10:57:55Z</time>
      </trkpt>
      <trkpt lat="44.23568" lon="5.85363">
        <ele>518</ele>
        <time>2019-08-09T10:57:56Z</time>
      </trkpt>
      <trkpt lat="44.23571" lon="5.85355">
        <ele>518</ele>
        <time>2019-08-09T10:57:57Z</time>
      </trkpt>
      <trkpt lat="44.23573" lon="5.85347">
        <ele>518</ele>
        <time>2019-08-09T10:57:58Z</time>
      </trkpt>
      <trkpt lat="44.23574" lon="5.85339">
        <ele>518</ele>
        <time>2019-08-09T10:57:59Z</time>
      </trkpt>
      <trkpt lat="44.23576" lon="5.8533">
        <ele>518</ele>
        <time>2019-08-09T10:58:00Z</time>
      </trkpt>
      <trkpt lat="44.23577" lon="5.85322">
        <ele>518</ele>
        <time>2019-08-09T10:58:01Z</time>
      </trkpt>
      <trkpt lat="44.23579" lon="5.85314">
        <ele>518</ele>
        <time>2019-08-09T10:58:02Z</time>
      </trkpt>
      <trkpt lat="44.23581" lon="5.85305">
        <ele>518</ele>
        <time>2019-08-09T10:58:03Z</time>
      </trkpt>
      <trkpt lat="44.23583" lon="5.85296">
        <ele>518</ele>
        <time>2019-08-09T10:58:04Z</time>
      </trkpt>
      <trkpt lat="44.23584" lon="5.85288">
        <ele>518</ele>
        <time>2019-08-09T10:58:05Z</time>
      </trkpt>
      <trkpt lat="44.23586" lon="5.85279">
        <ele>518</ele>
        <time>2019-08-09T10:58:06Z</time>
      </trkpt>
      <trkpt lat="44.23588" lon="5.85271">
        <ele>518</ele>
        <time>2019-08-09T10:58:07Z</time>
      </trkpt>
      <trkpt lat="44.2359" lon="5.85263">
        <ele>518</ele>
        <time>2019-08-09T10:58:08Z</time>
      </trkpt>
      <trkpt lat="44.23592" lon="5.85254">
        <ele>518</ele>
        <time>2019-08-09T10:58:09Z</time>
      </trkpt>
      <trkpt lat="44.23594" lon="5.85246">
        <ele>518</ele>
        <time>2019-08-09T10:58:10Z</time>
      </trkpt>
      <trkpt lat="44.23596" lon="5.85237">
        <ele>518</ele>
        <time>2019-08-09T10:58:11Z</time>
      </trkpt>
      <trkpt lat="44.23598" lon="5.85229">
        <ele>518</ele>
        <time>2019-08-09T10:58:12Z</time>
      </trkpt>
      <trkpt lat="44.236" lon="5.8522">
        <ele>518</ele>
        <time>2019-08-09T10:58:13Z</time>
      </trkpt>
      <trkpt lat="44.23603" lon="5.85212">
        <ele>518</ele>
        <time>2019-08-09T10:58:14Z</time>
      </trkpt>
      <trkpt lat="44.23605" lon="5.85203">
        <ele>518</ele>
        <time>2019-08-09T10:58:15Z</time>
      </trkpt>
      <trkpt lat="44.23607" lon="5.85194">
        <ele>518</ele>
        <time>2019-08-09T10:58:16Z</time>
      </trkpt>
      <trkpt lat="44.23609" lon="5.85185">
        <ele>518</ele>
        <time>2019-08-09T10:58:17Z</time>
      </trkpt>
      <trkpt lat="44.23611" lon="5.85177">
        <ele>518</ele>
        <time>2019-08-09T10:58:18Z</time>
      </trkpt>
      <trkpt lat="44.23613" lon="5.85167">
        <ele>518</ele>
        <time>2019-08-09T10:58:19Z</time>
      </trkpt>
      <trkpt lat="44.23615" lon="5.85158">
        <ele>518</ele>
        <time>2019-08-09T10:58:20Z</time>
      </trkpt>
      <trkpt lat="44.23617" lon="5.85149">
        <ele>518</ele>
        <time>2019-08-09T10:58:21Z</time>
      </trkpt>
      <trkpt lat="44.2362" lon="5.8514">
        <ele>518</ele>
        <time>2019-08-09T10:58:22Z</time>
      </trkpt>
      <trkpt lat="44.23622" lon="5.85131">
        <ele>518</ele>
        <time>2019-08-09T10:58:23Z</time>
      </trkpt>
      <trkpt lat="44.23625" lon="5.85123">
        <ele>518</ele>
        <time>2019-08-09T10:58:24Z</time>
      </trkpt>
      <trkpt lat="44.23627" lon="5.85114">
        <ele>518</ele>
        <time>2019-08-09T10:58:25Z</time>
      </trkpt>
      <trkpt lat="44.23631" lon="5.85106">
        <ele>518</ele>
        <time>2019-08-09T10:58:26Z</time>
      </trkpt>
      <trkpt lat="44.23635" lon="5.85099">
        <ele>518</ele>
        <time>2019-08-09T10:58:27Z</time>
      </trkpt>
      <trkpt lat="44.23639" lon="5.85091">
        <ele>518</ele>
        <time>2019-08-09T10:58:28Z</time>
      </trkpt>
      <trkpt lat="44.23644" lon="5.85084">
        <ele>518</ele>
        <time>2019-08-09T10:58:29Z</time>
      </trkpt>
      <trkpt lat="44.23648" lon="5.85077">
        <ele>518</ele>
        <time>2019-08-09T10:58:30Z</time>
      </trkpt>
      <trkpt lat="44.23653" lon="5.85071">
        <ele>518</ele>
        <time>2019-08-09T10:58:31Z</time>
      </trkpt>
      <trkpt lat="44.23658" lon="5.85065">
        <ele>518</ele>
        <time>2019-08-09T10:58:32Z</time>
      </trkpt>
      <trkpt lat="44.23664" lon="5.8506">
        <ele>518</ele>
        <time>2019-08-09T10:58:33Z</time>
      </trkpt>
      <trkpt lat="44.2367" lon="5.85055">
        <ele>518</ele>
        <time>2019-08-09T10:58:34Z</time>
      </trkpt>
      <trkpt lat="44.23675" lon="5.8505">
        <ele>518</ele>
        <time>2019-08-09T10:58:35Z</time>
      </trkpt>
      <trkpt lat="44.23681" lon="5.85045">
        <ele>518</ele>
        <time>2019-08-09T10:58:36Z</time>
      </trkpt>
      <trkpt lat="44.23687" lon="5.8504">
        <ele>518</ele>
        <time>2019-08-09T10:58:37Z</time>
      </trkpt>
      <trkpt lat="44.23693" lon="5.85036">
        <ele>518</ele>
        <time>2019-08-09T10:58:38Z</time>
      </trkpt>
      <trkpt lat="44.23699" lon="5.85031">
        <ele>518</ele>
        <time>2019-08-09T10:58:39Z</time>
      </trkpt>
      <trkpt lat="44.23705" lon="5.85027">
        <ele>518</ele>
        <time>2019-08-09T10:58:40Z</time>
      </trkpt>
      <trkpt lat="44.23711" lon="5.85022">
        <ele>518</ele>
        <time>2019-08-09T10:58:41Z</time>
      </trkpt>
      <trkpt lat="44.23716" lon="5.85017">
        <ele>518</ele>
        <time>2019-08-09T10:58:42Z</time>
      </trkpt>
      <trkpt lat="44.23722" lon="5.85013">
        <ele>518</ele>
        <time>2019-08-09T10:58:43Z</time>
      </trkpt>
      <trkpt lat="44.23728" lon="5.85008">
        <ele>518</ele>
        <time>2019-08-09T10:58:44Z</time>
      </trkpt>
      <trkpt lat="44.23734" lon="5.85003">
        <ele>518</ele>
        <time>2019-08-09T10:58:45Z</time>
      </trkpt>
      <trkpt lat="44.2374" lon="5.84999">
        <ele>518</ele>
        <time>2019-08-09T10:58:46Z</time>
      </trkpt>
      <trkpt lat="44.23745" lon="5.84994">
        <ele>518</ele>
        <time>2019-08-09T10:58:47Z</time>
      </trkpt>
      <trkpt lat="44.23751" lon="5.84989">
        <ele>518</ele>
        <time>2019-08-09T10:58:48Z</time>
      </trkpt>
      <trkpt lat="44.23757" lon="5.84984">
        <ele>518</ele>
        <time>2019-08-09T10:58:49Z</time>
      </trkpt>
      <trkpt lat="44.23763" lon="5.8498">
        <ele>518</ele>
        <time>2019-08-09T10:58:50Z</time>
      </trkpt>
      <trkpt lat="44.23769" lon="5.84975">
        <ele>518</ele>
        <time>2019-08-09T10:58:51Z</time>
      </trkpt>
      <trkpt lat="44.23775" lon="5.84971">
        <ele>518</ele>
        <time>2019-08-09T10:58:52Z</time>
      </trkpt>
      <trkpt lat="44.23781" lon="5.84966">
        <ele>518</ele>
        <time>2019-08-09T10:58:53Z</time>
      </trkpt>
      <trkpt lat="44.23787" lon="5.84962">
        <ele>518</ele>
        <time>2019-08-09T10:58:54Z</time>
      </trkpt>
      <trkpt lat="44.23793" lon="5.84957">
        <ele>518</ele>
        <time>2019-08-09T10:58:55Z</time>
      </trkpt>
      <trkpt lat="44.23798" lon="5.84952">
        <ele>518</ele>
        <time>2019-08-09T10:58:56Z</time>
      </trkpt>
      <trkpt lat="44.23804" lon="5.84948">
        <ele>518</ele>
        <time>2019-08-09T10:58:57Z</time>
      </trkpt>
      <trkpt lat="44.2381" lon="5.84943">
        <ele>518</ele>
        <time>2019-08-09T10:58:58Z</time>
      </trkpt>
      <trkpt lat="44.23816" lon="5.84939">
        <ele>518</ele>
        <time>2019-08-09T10:58:59Z</time>
      </trkpt>
      <trkpt lat="44.23821" lon="5.84934">
        <ele>518</ele>
        <time>2019-08-09T10:59:00Z</time>
      </trkpt>
      <trkpt lat="44.23827" lon="5.8493">
        <ele>518</ele>
        <time>2019-08-09T10:59:01Z</time>
      </trkpt>
      <trkpt lat="44.23832" lon="5.84925">
        <ele>518</ele>
        <time>2019-08-09T10:59:02Z</time>
      </trkpt>
      <trkpt lat="44.23838" lon="5.84921">
        <ele>518</ele>
        <time>2019-08-09T10:59:03Z</time>
      </trkpt>
      <trkpt lat="44.23844" lon="5.84916">
        <ele>518</ele>
        <time>2019-08-09T10:59:04Z</time>
      </trkpt>
      <trkpt lat="44.23849" lon="5.84912">
        <ele>518</ele>
        <time>2019-08-09T10:59:05Z</time>
      </trkpt>
      <trkpt lat="44.23855" lon="5.84908">
        <ele>518</ele>
        <time>2019-08-09T10:59:06Z</time>
      </trkpt>
      <trkpt lat="44.23861" lon="5.84903">
        <ele>518</ele>
        <time>2019-08-09T10:59:07Z</time>
      </trkpt>
      <trkpt lat="44.23866" lon="5.84899">
        <ele>518</ele>
        <time>2019-08-09T10:59:08Z</time>
      </trkpt>
      <trkpt lat="44.23872" lon="5.84895">
        <ele>518</ele>
        <time>2019-08-09T10:59:09Z</time>
      </trkpt>
      <trkpt lat="44.23877" lon="5.8489">
        <ele>518</ele>
        <time>2019-08-09T10:59:10Z</time>
      </trkpt>
      <trkpt lat="44.23883" lon="5.84886">
        <ele>518</ele>
        <time>2019-08-09T10:59:11Z</time>
      </trkpt>
      <trkpt lat="44.23888" lon="5.84882">
        <ele>518</ele>
        <time>2019-08-09T10:59:12Z</time>
      </trkpt>
      <trkpt lat="44.23893" lon="5.84877">
        <ele>518</ele>
        <time>2019-08-09T10:59:13Z</time>
      </trkpt>
      <trkpt lat="44.23899" lon="5.84873">
        <ele>518</ele>
        <time>2019-08-09T10:59:14Z</time>
      </trkpt>
      <trkpt lat="44.23904" lon="5.84869">
        <ele>518</ele>
        <time>2019-08-09T10:59:15Z</time>
      </trkpt>
      <trkpt lat="44.2391" lon="5.84865">
        <ele>518</ele>
        <time>2019-08-09T10:59:16Z</time>
      </trkpt>
      <trkpt lat="44.23915" lon="5.8486">
        <ele>518</ele>
        <time>2019-08-09T10:59:17Z</time>
      </trkpt>
      <trkpt lat="44.23921" lon="5.84856">
        <ele>518</ele>
        <time>2019-08-09T10:59:18Z</time>
      </trkpt>
      <trkpt lat="44.23927" lon="5.84852">
        <ele>518</ele>
        <time>2019-08-09T10:59:19Z</time>
      </trkpt>
      <trkpt lat="44.23932" lon="5.84847">
        <ele>518</ele>
        <time>2019-08-09T10:59:20Z</time>
      </trkpt>
      <trkpt lat="44.23938" lon="5.84843">
        <ele>518</ele>
        <time>2019-08-09T10:59:21Z</time>
      </trkpt>
      <trkpt lat="44.23943" lon="5.84838">
        <ele>518</ele>
        <time>2019-08-09T10:59:22Z</time>
      </trkpt>
      <trkpt lat="44.23949" lon="5.84834">
        <ele>518</ele>
        <time>2019-08-09T10:59:23Z</time>
      </trkpt>
      <trkpt lat="44.23955" lon="5.8483">
        <ele>518</ele>
        <time>2019-08-09T10:59:24Z</time>
      </trkpt>
      <trkpt lat="44.2396" lon="5.84826">
        <ele>518</ele>
        <time>2019-08-09T10:59:25Z</time>
      </trkpt>
      <trkpt lat="44.23965" lon="5.84822">
        <ele>518</ele>
        <time>2019-08-09T10:59:26Z</time>
      </trkpt>
      <trkpt lat="44.23971" lon="5.84817">
        <ele>518</ele>
        <time>2019-08-09T10:59:27Z</time>
      </trkpt>
      <trkpt lat="44.23976" lon="5.84813">
        <ele>518</ele>
        <time>2019-08-09T10:59:28Z</time>
      </trkpt>
      <trkpt lat="44.23982" lon="5.84808">
        <ele>518</ele>
        <time>2019-08-09T10:59:29Z</time>
      </trkpt>
      <trkpt lat="44.23987" lon="5.84804">
        <ele>518</ele>
        <time>2019-08-09T10:59:30Z</time>
      </trkpt>
      <trkpt lat="44.23993" lon="5.848">
        <ele>518</ele>
        <time>2019-08-09T10:59:31Z</time>
      </trkpt>
      <trkpt lat="44.23998" lon="5.84796">
        <ele>518</ele>
        <time>2019-08-09T10:59:32Z</time>
      </trkpt>
      <trkpt lat="44.24003" lon="5.84792">
        <ele>518</ele>
        <time>2019-08-09T10:59:33Z</time>
      </trkpt>
      <trkpt lat="44.24008" lon="5.84788">
        <ele>518</ele>
        <time>2019-08-09T10:59:34Z</time>
      </trkpt>
      <trkpt lat="44.24013" lon="5.84784">
        <ele>518</ele>
        <time>2019-08-09T10:59:35Z</time>
      </trkpt>
      <trkpt lat="44.24018" lon="5.8478">
        <ele>518</ele>
        <time>2019-08-09T10:59:36Z</time>
      </trkpt>
      <trkpt lat="44.24023" lon="5.84775">
        <ele>518</ele>
        <time>2019-08-09T10:59:37Z</time>
      </trkpt>
      <trkpt lat="44.24028" lon="5.84771">
        <ele>518</ele>
        <time>2019-08-09T10:59:38Z</time>
      </trkpt>
      <trkpt lat="44.24034" lon="5.84767">
        <ele>518</ele>
        <time>2019-08-09T10:59:39Z</time>
      </trkpt>
      <trkpt lat="44.24039" lon="5.84763">
        <ele>518</ele>
        <time>2019-08-09T10:59:40Z</time>
      </trkpt>
      <trkpt lat="44.24044" lon="5.84759">
        <ele>518</ele>
        <time>2019-08-09T10:59:41Z</time>
      </trkpt>
      <trkpt lat="44.24049" lon="5.84755">
        <ele>518</ele>
        <time>2019-08-09T10:59:42Z</time>
      </trkpt>
      <trkpt lat="44.24055" lon="5.8475">
        <ele>518</ele>
        <time>2019-08-09T10:59:43Z</time>
      </trkpt>
      <trkpt lat="44.2406" lon="5.84746">
        <ele>518</ele>
        <time>2019-08-09T10:59:44Z</time>
      </trkpt>
      <trkpt lat="44.24065" lon="5.84742">
        <ele>518</ele>
        <time>2019-08-09T10:59:45Z</time>
      </trkpt>
      <trkpt lat="44.2407" lon="5.84738">
        <ele>518</ele>
        <time>2019-08-09T10:59:46Z</time>
      </trkpt>
      <trkpt lat="44.24075" lon="5.84734">
        <ele>518</ele>
        <time>2019-08-09T10:59:47Z</time>
      </trkpt>
      <trkpt lat="44.2408" lon="5.84729">
        <ele>518</ele>
        <time>2019-08-09T10:59:48Z</time>
      </trkpt>
      <trkpt lat="44.24086" lon="5.84725">
        <ele>518</ele>
        <time>2019-08-09T10:59:49Z</time>
      </trkpt>
      <trkpt lat="44.24091" lon="5.84721">
        <ele>518</ele>
        <time>2019-08-09T10:59:50Z</time>
      </trkpt>
      <trkpt lat="44.24096" lon="5.84717">
        <ele>519</ele>
        <time>2019-08-09T10:59:51Z</time>
      </trkpt>
      <trkpt lat="44.24101" lon="5.84713">
        <ele>519</ele>
        <time>2019-08-09T10:59:52Z</time>
      </trkpt>
      <trkpt lat="44.24106" lon="5.84709">
        <ele>519</ele>
        <time>2019-08-09T10:59:53Z</time>
      </trkpt>
      <trkpt lat="44.24111" lon="5.84704">
        <ele>519</ele>
        <time>2019-08-09T10:59:54Z</time>
      </trkpt>
      <trkpt lat="44.24116" lon="5.847">
        <ele>519</ele>
        <time>2019-08-09T10:59:55Z</time>
      </trkpt>
      <trkpt lat="44.24121" lon="5.84696">
        <ele>519</ele>
        <time>2019-08-09T10:59:56Z</time>
      </trkpt>
      <trkpt lat="44.24126" lon="5.84693">
        <ele>519</ele>
        <time>2019-08-09T10:59:57Z</time>
      </trkpt>
      <trkpt lat="44.24131" lon="5.84689">
        <ele>520</ele>
        <time>2019-08-09T10:59:58Z</time>
      </trkpt>
      <trkpt lat="44.24136" lon="5.84685">
        <ele>520</ele>
        <time>2019-08-09T10:59:59Z</time>
      </trkpt>
      <trkpt lat="44.24141" lon="5.84681">
        <ele>520</ele>
        <time>2019-08-09T11:00:00Z</time>
      </trkpt>
      <trkpt lat="44.24145" lon="5.84677">
        <ele>520</ele>
        <time>2019-08-09T11:00:01Z</time>
      </trkpt>
      <trkpt lat="44.2415" lon="5.84673">
        <ele>520</ele>
        <time>2019-08-09T11:00:02Z</time>
      </trkpt>
      <trkpt lat="44.24155" lon="5.84669">
        <ele>520</ele>
        <time>2019-08-09T11:00:03Z</time>
      </trkpt>
      <trkpt lat="44.2416" lon="5.84665">
        <ele>520</ele>
        <time>2019-08-09T11:00:04Z</time>
      </trkpt>
      <trkpt lat="44.24165" lon="5.84661">
        <ele>520</ele>
        <time>2019-08-09T11:00:05Z</time>
      </trkpt>
      <trkpt lat="44.24169" lon="5.84657">
        <ele>520</ele>
        <time>2019-08-09T11:00:06Z</time>
      </trkpt>
      <trkpt lat="44.24174" lon="5.84653">
        <ele>520</ele>
        <time>2019-08-09T11:00:07Z</time>
      </trkpt>
      <trkpt lat="44.24179" lon="5.84649">
        <ele>520</ele>
        <time>2019-08-09T11:00:08Z</time>
      </trkpt>
      <trkpt lat="44.24184" lon="5.84645">
        <ele>521</ele>
        <time>2019-08-09T11:00:09Z</time>
      </trkpt>
      <trkpt lat="44.24189" lon="5.84641">
        <ele>521</ele>
        <time>2019-08-09T11:00:10Z</time>
      </trkpt>
      <trkpt lat="44.24194" lon="5.84637">
        <ele>521</ele>
        <time>2019-08-09T11:00:11Z</time>
      </trkpt>
      <trkpt lat="44.24198" lon="5.84633">
        <ele>521</ele>
        <time>2019-08-09T11:00:12Z</time>
      </trkpt>
      <trkpt lat="44.24203" lon="5.84629">
        <ele>521</ele>
        <time>2019-08-09T11:00:13Z</time>
      </trkpt>
      <trkpt lat="44.24208" lon="5.84625">
        <ele>522</ele>
        <time>2019-08-09T11:00:14Z</time>
      </trkpt>
      <trkpt lat="44.24213" lon="5.84621">
        <ele>522</ele>
        <time>2019-08-09T11:00:15Z</time>
      </trkpt>
      <trkpt lat="44.24218" lon="5.84617">
        <ele>522</ele>
        <time>2019-08-09T11:00:16Z</time>
      </trkpt>
      <trkpt lat="44.24223" lon="5.84613">
        <ele>522</ele>
        <time>2019-08-09T11:00:17Z</time>
      </trkpt>
      <trkpt lat="44.24228" lon="5.84609">
        <ele>522</ele>
        <time>2019-08-09T11:00:18Z</time>
      </trkpt>
      <trkpt lat="44.24232" lon="5.84605">
        <ele>523</ele>
        <time>2019-08-09T11:00:19Z</time>
      </trkpt>
      <trkpt lat="44.24237" lon="5.84601">
        <ele>523</ele>
        <time>2019-08-09T11:00:20Z</time>
      </trkpt>
      <trkpt lat="44.24242" lon="5.84597">
        <ele>523</ele>
        <time>2019-08-09T11:00:21Z</time>
      </trkpt>
      <trkpt lat="44.24247" lon="5.84593">
        <ele>523</ele>
        <time>2019-08-09T11:00:22Z</time>
      </trkpt>
      <trkpt lat="44.24252" lon="5.84589">
        <ele>524</ele>
        <time>2019-08-09T11:00:23Z</time>
      </trkpt>
      <trkpt lat="44.24256" lon="5.84586">
        <ele>524</ele>
        <time>2019-08-09T11:00:24Z</time>
      </trkpt>
      <trkpt lat="44.24261" lon="5.84582">
        <ele>524</ele>
        <time>2019-08-09T11:00:25Z</time>
      </trkpt>
      <trkpt lat="44.24266" lon="5.84579">
        <ele>524</ele>
        <time>2019-08-09T11:00:26Z</time>
      </trkpt>
      <trkpt lat="44.2427" lon="5.84576">
        <ele>524</ele>
        <time>2019-08-09T11:00:27Z</time>
      </trkpt>
      <trkpt lat="44.24274" lon="5.84572">
        <ele>525</ele>
        <time>2019-08-09T11:00:28Z</time>
      </trkpt>
      <trkpt lat="44.24279" lon="5.84569">
        <ele>525</ele>
        <time>2019-08-09T11:00:29Z</time>
      </trkpt>
      <trkpt lat="44.24283" lon="5.84565">
        <ele>525</ele>
        <time>2019-08-09T11:00:30Z</time>
      </trkpt>
      <trkpt lat="44.24287" lon="5.84561">
        <ele>525</ele>
        <time>2019-08-09T11:00:31Z</time>
      </trkpt>
      <trkpt lat="44.24291" lon="5.84558">
        <ele>525</ele>
        <time>2019-08-09T11:00:32Z</time>
      </trkpt>
      <trkpt lat="44.24295" lon="5.84554">
        <ele>525</ele>
        <time>2019-08-09T11:00:33Z</time>
      </trkpt>
      <trkpt lat="44.243" lon="5.84551">
        <ele>526</ele>
        <time>2019-08-09T11:00:34Z</time>
      </trkpt>
      <trkpt lat="44.24304" lon="5.84548">
        <ele>526</ele>
        <time>2019-08-09T11:00:35Z</time>
      </trkpt>
      <trkpt lat="44.24308" lon="5.84544">
        <ele>526</ele>
        <time>2019-08-09T11:00:36Z</time>
      </trkpt>
      <trkpt lat="44.24313" lon="5.8454">
        <ele>526</ele>
        <time>2019-08-09T11:00:37Z</time>
      </trkpt>
      <trkpt lat="44.24317" lon="5.84536">
        <ele>527</ele>
        <time>2019-08-09T11:00:38Z</time>
      </trkpt>
      <trkpt lat="44.24322" lon="5.84533">
        <ele>527</ele>
        <time>2019-08-09T11:00:39Z</time>
      </trkpt>
      <trkpt lat="44.24326" lon="5.84529">
        <ele>527</ele>
        <time>2019-08-09T11:00:40Z</time>
      </trkpt>
      <trkpt lat="44.24331" lon="5.84526">
        <ele>528</ele>
        <time>2019-08-09T11:00:41Z</time>
      </trkpt>
      <trkpt lat="44.24336" lon="5.84522">
        <ele>528</ele>
        <time>2019-08-09T11:00:42Z</time>
      </trkpt>
      <trkpt lat="44.2434" lon="5.84518">
        <ele>528</ele>
        <time>2019-08-09T11:00:43Z</time>
      </trkpt>
      <trkpt lat="44.24345" lon="5.84514">
        <ele>529</ele>
        <time>2019-08-09T11:00:44Z</time>
      </trkpt>
      <trkpt lat="44.2435" lon="5.84511">
        <ele>529</ele>
        <time>2019-08-09T11:00:45Z</time>
      </trkpt>
      <trkpt lat="44.24355" lon="5.84507">
        <ele>529</ele>
        <time>2019-08-09T11:00:46Z</time>
      </trkpt>
      <trkpt lat="44.2436" lon="5.84503">
        <ele>529</ele>
        <time>2019-08-09T11:00:47Z</time>
      </trkpt>
      <trkpt lat="44.24364" lon="5.84499">
        <ele>530</ele>
        <time>2019-08-09T11:00:48Z</time>
      </trkpt>
      <trkpt lat="44.24369" lon="5.84496">
        <ele>530</ele>
        <time>2019-08-09T11:00:49Z</time>
      </trkpt>
      <trkpt lat="44.24374" lon="5.84492">
        <ele>530</ele>
        <time>2019-08-09T11:00:50Z</time>
      </trkpt>
      <trkpt lat="44.24378" lon="5.84488">
        <ele>530</ele>
        <time>2019-08-09T11:00:51Z</time>
      </trkpt>
      <trkpt lat="44.24383" lon="5.84484">
        <ele>530</ele>
        <time>2019-08-09T11:00:52Z</time>
      </trkpt>
      <trkpt lat="44.24387" lon="5.8448">
        <ele>530</ele>
        <time>2019-08-09T11:00:53Z</time>
      </trkpt>
      <trkpt lat="44.24392" lon="5.84476">
        <ele>530</ele>
        <time>2019-08-09T11:00:54Z</time>
      </trkpt>
      <trkpt lat="44.24396" lon="5.84473">
        <ele>531</ele>
        <time>2019-08-09T11:00:55Z</time>
      </trkpt>
      <trkpt lat="44.24401" lon="5.84469">
        <ele>531</ele>
        <time>2019-08-09T11:00:56Z</time>
      </trkpt>
      <trkpt lat="44.24406" lon="5.84466">
        <ele>531</ele>
        <time>2019-08-09T11:00:57Z</time>
      </trkpt>
      <trkpt lat="44.24411" lon="5.84462">
        <ele>531</ele>
        <time>2019-08-09T11:00:58Z</time>
      </trkpt>
      <trkpt lat="44.24416" lon="5.84459">
        <ele>531</ele>
        <time>2019-08-09T11:00:59Z</time>
      </trkpt>
      <trkpt lat="44.2442" lon="5.84455">
        <ele>531</ele>
        <time>2019-08-09T11:01:00Z</time>
      </trkpt>
      <trkpt lat="44.24425" lon="5.84452">
        <ele>531</ele>
        <time>2019-08-09T11:01:01Z</time>
      </trkpt>
      <trkpt lat="44.24429" lon="5.84448">
        <ele>531</ele>
        <time>2019-08-09T11:01:02Z</time>
      </trkpt>
      <trkpt lat="44.24434" lon="5.84445">
        <ele>531</ele>
        <time>2019-08-09T11:01:03Z</time>
      </trkpt>
      <trkpt lat="44.24438" lon="5.84442">
        <ele>531</ele>
        <time>2019-08-09T11:01:04Z</time>
      </trkpt>
      <trkpt lat="44.24443" lon="5.84438">
        <ele>532</ele>
        <time>2019-08-09T11:01:05Z</time>
      </trkpt>
      <trkpt lat="44.24447" lon="5.84435">
        <ele>532</ele>
        <time>2019-08-09T11:01:06Z</time>
      </trkpt>
      <trkpt lat="44.24452" lon="5.84431">
        <ele>532</ele>
        <time>2019-08-09T11:01:07Z</time>
      </trkpt>
      <trkpt lat="44.24456" lon="5.84428">
        <ele>532</ele>
        <time>2019-08-09T11:01:08Z</time>
      </trkpt>
      <trkpt lat="44.24461" lon="5.84424">
        <ele>532</ele>
        <time>2019-08-09T11:01:09Z</time>
      </trkpt>
      <trkpt lat="44.24466" lon="5.84421">
        <ele>532</ele>
        <time>2019-08-09T11:01:10Z</time>
      </trkpt>
      <trkpt lat="44.2447" lon="5.84417">
        <ele>532</ele>
        <time>2019-08-09T11:01:11Z</time>
      </trkpt>
      <trkpt lat="44.24475" lon="5.84414">
        <ele>532</ele>
        <time>2019-08-09T11:01:12Z</time>
      </trkpt>
      <trkpt lat="44.2448" lon="5.8441">
        <ele>532</ele>
        <time>2019-08-09T11:01:13Z</time>
      </trkpt>
      <trkpt lat="44.24484" lon="5.84407">
        <ele>532</ele>
        <time>2019-08-09T11:01:14Z</time>
      </trkpt>
      <trkpt lat="44.24489" lon="5.84403">
        <ele>532</ele>
        <time>2019-08-09T11:01:15Z</time>
      </trkpt>
      <trkpt lat="44.24493" lon="5.84399">
        <ele>532</ele>
        <time>2019-08-09T11:01:16Z</time>
      </trkpt>
      <trkpt lat="44.24498" lon="5.84396">
        <ele>532</ele>
        <time>2019-08-09T11:01:17Z</time>
      </trkpt>
      <trkpt lat="44.24503" lon="5.84392">
        <ele>532</ele>
        <time>2019-08-09T11:01:18Z</time>
      </trkpt>
      <trkpt lat="44.24508" lon="5.84388">
        <ele>532</ele>
        <time>2019-08-09T11:01:19Z</time>
      </trkpt>
      <trkpt lat="44.24512" lon="5.84384">
        <ele>532</ele>
        <time>2019-08-09T11:01:20Z</time>
      </trkpt>
      <trkpt lat="44.24517" lon="5.8438">
        <ele>532</ele>
        <time>2019-08-09T11:01:21Z</time>
      </trkpt>
      <trkpt lat="44.24522" lon="5.84377">
        <ele>532</ele>
        <time>2019-08-09T11:01:22Z</time>
      </trkpt>
      <trkpt lat="44.24527" lon="5.84373">
        <ele>532</ele>
        <time>2019-08-09T11:01:23Z</time>
      </trkpt>
      <trkpt lat="44.24532" lon="5.84369">
        <ele>532</ele>
        <time>2019-08-09T11:01:24Z</time>
      </trkpt>
      <trkpt lat="44.24536" lon="5.84365">
        <ele>532</ele>
        <time>2019-08-09T11:01:25Z</time>
      </trkpt>
      <trkpt lat="44.24541" lon="5.84361">
        <ele>532</ele>
        <time>2019-08-09T11:01:26Z</time>
      </trkpt>
      <trkpt lat="44.24546" lon="5.84358">
        <ele>532</ele>
        <time>2019-08-09T11:01:27Z</time>
      </trkpt>
      <trkpt lat="44.24551" lon="5.84354">
        <ele>532</ele>
        <time>2019-08-09T11:01:28Z</time>
      </trkpt>
      <trkpt lat="44.24556" lon="5.8435">
        <ele>532</ele>
        <time>2019-08-09T11:01:29Z</time>
      </trkpt>
      <trkpt lat="44.24561" lon="5.84346">
        <ele>532</ele>
        <time>2019-08-09T11:01:30Z</time>
      </trkpt>
      <trkpt lat="44.24566" lon="5.84342">
        <ele>532</ele>
        <time>2019-08-09T11:01:31Z</time>
      </trkpt>
      <trkpt lat="44.24571" lon="5.84338">
        <ele>532</ele>
        <time>2019-08-09T11:01:32Z</time>
      </trkpt>
      <trkpt lat="44.24576" lon="5.84334">
        <ele>532</ele>
        <time>2019-08-09T11:01:33Z</time>
      </trkpt>
      <trkpt lat="44.24581" lon="5.8433">
        <ele>532</ele>
        <time>2019-08-09T11:01:34Z</time>
      </trkpt>
      <trkpt lat="44.24586" lon="5.84326">
        <ele>532</ele>
        <time>2019-08-09T11:01:35Z</time>
      </trkpt>
      <trkpt lat="44.24591" lon="5.84321">
        <ele>532</ele>
        <time>2019-08-09T11:01:36Z</time>
      </trkpt>
      <trkpt lat="44.24596" lon="5.84317">
        <ele>532</ele>
        <time>2019-08-09T11:01:37Z</time>
      </trkpt>
      <trkpt lat="44.24601" lon="5.84313">
        <ele>532</ele>
        <time>2019-08-09T11:01:38Z</time>
      </trkpt>
      <trkpt lat="44.24606" lon="5.84309">
        <ele>532</ele>
        <time>2019-08-09T11:01:39Z</time>
      </trkpt>
      <trkpt lat="44.24611" lon="5.84305">
        <ele>532</ele>
        <time>2019-08-09T11:01:40Z</time>
      </trkpt>
      <trkpt lat="44.24616" lon="5.84301">
        <ele>532</ele>
        <time>2019-08-09T11:01:41Z</time>
      </trkpt>
      <trkpt lat="44.24621" lon="5.84296">
        <ele>532</ele>
        <time>2019-08-09T11:01:42Z</time>
      </trkpt>
      <trkpt lat="44.24626" lon="5.84292">
        <ele>532</ele>
        <time>2019-08-09T11:01:43Z</time>
      </trkpt>
      <trkpt lat="44.24631" lon="5.84288">
        <ele>532</ele>
        <time>2019-08-09T11:01:44Z</time>
      </trkpt>
      <trkpt lat="44.24637" lon="5.84284">
        <ele>532</ele>
        <time>2019-08-09T11:01:45Z</time>
      </trkpt>
      <trkpt lat="44.24642" lon="5.8428">
        <ele>532</ele>
        <time>2019-08-09T11:01:46Z</time>
      </trkpt>
      <trkpt lat="44.24647" lon="5.84276">
        <ele>532</ele>
        <time>2019-08-09T11:01:47Z</time>
      </trkpt>
      <trkpt lat="44.24652" lon="5.84272">
        <ele>532</ele>
        <time>2019-08-09T11:01:48Z</time>
      </trkpt>
      <trkpt lat="44.24657" lon="5.84267">
        <ele>532</ele>
        <time>2019-08-09T11:01:49Z</time>
      </trkpt>
      <trkpt lat="44.24662" lon="5.84263">
        <ele>532</ele>
        <time>2019-08-09T11:01:50Z</time>
      </trkpt>
      <trkpt lat="44.24667" lon="5.84259">
        <ele>532</ele>
        <time>2019-08-09T11:01:51Z</time>
      </trkpt>
      <trkpt lat="44.24673" lon="5.84254">
        <ele>532</ele>
        <time>2019-08-09T11:01:52Z</time>
      </trkpt>
      <trkpt lat="44.24678" lon="5.8425">
        <ele>532</ele>
        <time>2019-08-09T11:01:53Z</time>
      </trkpt>
      <trkpt lat="44.24683" lon="5.84246">
        <ele>532</ele>
        <time>2019-08-09T11:01:54Z</time>
      </trkpt>
      <trkpt lat="44.24689" lon="5.84241">
        <ele>532</ele>
        <time>2019-08-09T11:01:55Z</time>
      </trkpt>
      <trkpt lat="44.24694" lon="5.84237">
        <ele>532</ele>
        <time>2019-08-09T11:01:56Z</time>
      </trkpt>
      <trkpt lat="44.247" lon="5.84232">
        <ele>532</ele>
        <time>2019-08-09T11:01:57Z</time>
      </trkpt>
      <trkpt lat="44.24705" lon="5.84228">
        <ele>532</ele>
        <time>2019-08-09T11:01:58Z</time>
      </trkpt>
      <trkpt lat="44.2471" lon="5.84223">
        <ele>532</ele>
        <time>2019-08-09T11:01:59Z</time>
      </trkpt>
      <trkpt lat="44.24716" lon="5.84219">
        <ele>532</ele>
        <time>2019-08-09T11:02:00Z</time>
      </trkpt>
      <trkpt lat="44.24722" lon="5.84215">
        <ele>532</ele>
        <time>2019-08-09T11:02:01Z</time>
      </trkpt>
      <trkpt lat="44.24727" lon="5.8421">
        <ele>532</ele>
        <time>2019-08-09T11:02:02Z</time>
      </trkpt>
      <trkpt lat="44.24733" lon="5.84205">
        <ele>532</ele>
        <time>2019-08-09T11:02:03Z</time>
      </trkpt>
      <trkpt lat="44.24738" lon="5.84201">
        <ele>532</ele>
        <time>2019-08-09T11:02:04Z</time>
      </trkpt>
      <trkpt lat="44.24744" lon="5.84197">
        <ele>532</ele>
        <time>2019-08-09T11:02:05Z</time>
      </trkpt>
      <trkpt lat="44.24749" lon="5.84193">
        <ele>532</ele>
        <time>2019-08-09T11:02:06Z</time>
      </trkpt>
      <trkpt lat="44.24755" lon="5.84188">
        <ele>532</ele>
        <time>2019-08-09T11:02:07Z</time>
      </trkpt>
      <trkpt lat="44.24761" lon="5.84184">
        <ele>532</ele>
        <time>2019-08-09T11:02:08Z</time>
      </trkpt>
      <trkpt lat="44.24766" lon="5.84179">
        <ele>532</ele>
        <time>2019-08-09T11:02:09Z</time>
      </trkpt>
      <trkpt lat="44.24771" lon="5.84174">
        <ele>533</ele>
        <time>2019-08-09T11:02:10Z</time>
      </trkpt>
      <trkpt lat="44.24777" lon="5.84169">
        <ele>533</ele>
        <time>2019-08-09T11:02:11Z</time>
      </trkpt>
      <trkpt lat="44.24782" lon="5.84165">
        <ele>533</ele>
        <time>2019-08-09T11:02:12Z</time>
      </trkpt>
      <trkpt lat="44.24788" lon="5.84161">
        <ele>533</ele>
        <time>2019-08-09T11:02:13Z</time>
      </trkpt>
      <trkpt lat="44.24793" lon="5.84156">
        <ele>533</ele>
        <time>2019-08-09T11:02:14Z</time>
      </trkpt>
      <trkpt lat="44.24799" lon="5.84152">
        <ele>533</ele>
        <time>2019-08-09T11:02:15Z</time>
      </trkpt>
      <trkpt lat="44.24804" lon="5.84147">
        <ele>533</ele>
        <time>2019-08-09T11:02:16Z</time>
      </trkpt>
      <trkpt lat="44.2481" lon="5.84143">
        <ele>533</ele>
        <time>2019-08-09T11:02:17Z</time>
      </trkpt>
      <trkpt lat="44.24815" lon="5.84139">
        <ele>533</ele>
        <time>2019-08-09T11:02:18Z</time>
      </trkpt>
      <trkpt lat="44.2482" lon="5.84134">
        <ele>533</ele>
        <time>2019-08-09T11:02:19Z</time>
      </trkpt>
      <trkpt lat="44.24826" lon="5.8413">
        <ele>533</ele>
        <time>2019-08-09T11:02:20Z</time>
      </trkpt>
      <trkpt lat="44.24831" lon="5.84126">
        <ele>533</ele>
        <time>2019-08-09T11:02:21Z</time>
      </trkpt>
      <trkpt lat="44.24836" lon="5.84121">
        <ele>533</ele>
        <time>2019-08-09T11:02:22Z</time>
      </trkpt>
      <trkpt lat="44.24842" lon="5.84117">
        <ele>533</ele>
        <time>2019-08-09T11:02:23Z</time>
      </trkpt>
      <trkpt lat="44.24847" lon="5.84112">
        <ele>533</ele>
        <time>2019-08-09T11:02:24Z</time>
      </trkpt>
      <trkpt lat="44.24853" lon="5.84108">
        <ele>533</ele>
        <time>2019-08-09T11:02:25Z</time>
      </trkpt>
      <trkpt lat="44.24858" lon="5.84103">
        <ele>533</ele>
        <time>2019-08-09T11:02:26Z</time>
      </trkpt>
      <trkpt lat="44.24864" lon="5.84098">
        <ele>533</ele>
        <time>2019-08-09T11:02:27Z</time>
      </trkpt>
      <trkpt lat="44.2487" lon="5.84094">
        <ele>533</ele>
        <time>2019-08-09T11:02:28Z</time>
      </trkpt>
      <trkpt lat="44.24875" lon="5.8409">
        <ele>533</ele>
        <time>2019-08-09T11:02:29Z</time>
      </trkpt>
      <trkpt lat="44.24881" lon="5.84085">
        <ele>533</ele>
        <time>2019-08-09T11:02:30Z</time>
      </trkpt>
      <trkpt lat="44.24887" lon="5.8408">
        <ele>533</ele>
        <time>2019-08-09T11:02:31Z</time>
      </trkpt>
      <trkpt lat="44.24893" lon="5.84075">
        <ele>533</ele>
        <time>2019-08-09T11:02:32Z</time>
      </trkpt>
      <trkpt lat="44.24899" lon="5.8407">
        <ele>533</ele>
        <time>2019-08-09T11:02:33Z</time>
      </trkpt>
      <trkpt lat="44.24905" lon="5.84065">
        <ele>533</ele>
        <time>2019-08-09T11:02:34Z</time>
      </trkpt>
      <trkpt lat="44.24911" lon="5.84059">
        <ele>533</ele>
        <time>2019-08-09T11:02:35Z</time>
      </trkpt>
      <trkpt lat="44.24918" lon="5.84054">
        <ele>533</ele>
        <time>2019-08-09T11:02:36Z</time>
      </trkpt>
      <trkpt lat="44.24924" lon="5.84049">
        <ele>533</ele>
        <time>2019-08-09T11:02:37Z</time>
      </trkpt>
      <trkpt lat="44.24931" lon="5.84044">
        <ele>533</ele>
        <time>2019-08-09T11:02:38Z</time>
      </trkpt>
      <trkpt lat="44.24937" lon="5.84038">
        <ele>533</ele>
        <time>2019-08-09T11:02:39Z</time>
      </trkpt>
      <trkpt lat="44.24943" lon="5.84033">
        <ele>533</ele>
        <time>2019-08-09T11:02:40Z</time>
      </trkpt>
      <trkpt lat="44.24949" lon="5.84027">
        <ele>533</ele>
        <time>2019-08-09T11:02:41Z</time>
      </trkpt>
      <trkpt lat="44.24955" lon="5.84021">
        <ele>533</ele>
        <time>2019-08-09T11:02:42Z</time>
      </trkpt>
      <trkpt lat="44.24962" lon="5.84015">
        <ele>533</ele>
        <time>2019-08-09T11:02:43Z</time>
      </trkpt>
      <trkpt lat="44.24968" lon="5.84008">
        <ele>533</ele>
        <time>2019-08-09T11:02:44Z</time>
      </trkpt>
      <trkpt lat="44.24974" lon="5.84">
        <ele>533</ele>
        <time>2019-08-09T11:02:45Z</time>
      </trkpt>
      <trkpt lat="44.24979" lon="5.83992">
        <ele>533</ele>
        <time>2019-08-09T11:02:46Z</time>
      </trkpt>
      <trkpt lat="44.24985" lon="5.83983">
        <ele>533</ele>
        <time>2019-08-09T11:02:47Z</time>
      </trkpt>
      <trkpt lat="44.24989" lon="5.83974">
        <ele>533</ele>
        <time>2019-08-09T11:02:48Z</time>
      </trkpt>
      <trkpt lat="44.24994" lon="5.83964">
        <ele>533</ele>
        <time>2019-08-09T11:02:49Z</time>
      </trkpt>
      <trkpt lat="44.24997" lon="5.83954">
        <ele>533</ele>
        <time>2019-08-09T11:02:50Z</time>
      </trkpt>
      <trkpt lat="44.25001" lon="5.83943">
        <ele>533</ele>
        <time>2019-08-09T11:02:51Z</time>
      </trkpt>
      <trkpt lat="44.25004" lon="5.83932">
        <ele>533</ele>
        <time>2019-08-09T11:02:52Z</time>
      </trkpt>
      <trkpt lat="44.25007" lon="5.83921">
        <ele>533</ele>
        <time>2019-08-09T11:02:53Z</time>
      </trkpt>
      <trkpt lat="44.2501" lon="5.83909">
        <ele>533</ele>
        <time>2019-08-09T11:02:54Z</time>
      </trkpt>
      <trkpt lat="44.25012" lon="5.83897">
        <ele>533</ele>
        <time>2019-08-09T11:02:55Z</time>
      </trkpt>
      <trkpt lat="44.25015" lon="5.83885">
        <ele>533</ele>
        <time>2019-08-09T11:02:56Z</time>
      </trkpt>
      <trkpt lat="44.25017" lon="5.83874">
        <ele>533</ele>
        <time>2019-08-09T11:02:57Z</time>
      </trkpt>
      <trkpt lat="44.25019" lon="5.83862">
        <ele>533</ele>
        <time>2019-08-09T11:02:58Z</time>
      </trkpt>
      <trkpt lat="44.25022" lon="5.8385">
        <ele>533</ele>
        <time>2019-08-09T11:02:59Z</time>
      </trkpt>
      <trkpt lat="44.25025" lon="5.83838">
        <ele>533</ele>
        <time>2019-08-09T11:03:00Z</time>
      </trkpt>
      <trkpt lat="44.25027" lon="5.83825">
        <ele>532</ele>
        <time>2019-08-09T11:03:01Z</time>
      </trkpt>
      <trkpt lat="44.2503" lon="5.83813">
        <ele>532</ele>
        <time>2019-08-09T11:03:02Z</time>
      </trkpt>
      <trkpt lat="44.25032" lon="5.838">
        <ele>532</ele>
        <time>2019-08-09T11:03:03Z</time>
      </trkpt>
      <trkpt lat="44.25035" lon="5.83788">
        <ele>531</ele>
        <time>2019-08-09T11:03:04Z</time>
      </trkpt>
      <trkpt lat="44.25037" lon="5.83775">
        <ele>531</ele>
        <time>2019-08-09T11:03:05Z</time>
      </trkpt>
      <trkpt lat="44.2504" lon="5.83762">
        <ele>530</ele>
        <time>2019-08-09T11:03:06Z</time>
      </trkpt>
      <trkpt lat="44.25042" lon="5.83748">
        <ele>530</ele>
        <time>2019-08-09T11:03:07Z</time>
      </trkpt>
      <trkpt lat="44.25045" lon="5.83735">
        <ele>530</ele>
        <time>2019-08-09T11:03:08Z</time>
      </trkpt>
      <trkpt lat="44.25048" lon="5.83722">
        <ele>529</ele>
        <time>2019-08-09T11:03:09Z</time>
      </trkpt>
      <trkpt lat="44.25051" lon="5.83708">
        <ele>529</ele>
        <time>2019-08-09T11:03:10Z</time>
      </trkpt>
      <trkpt lat="44.25053" lon="5.83695">
        <ele>529</ele>
        <time>2019-08-09T11:03:11Z</time>
      </trkpt>
      <trkpt lat="44.25056" lon="5.83682">
        <ele>528</ele>
        <time>2019-08-09T11:03:12Z</time>
      </trkpt>
      <trkpt lat="44.25058" lon="5.83668">
        <ele>528</ele>
        <time>2019-08-09T11:03:13Z</time>
      </trkpt>
      <trkpt lat="44.25061" lon="5.83655">
        <ele>528</ele>
        <time>2019-08-09T11:03:14Z</time>
      </trkpt>
      <trkpt lat="44.25064" lon="5.83642">
        <ele>527</ele>
        <time>2019-08-09T11:03:15Z</time>
      </trkpt>
      <trkpt lat="44.25066" lon="5.83629">
        <ele>527</ele>
        <time>2019-08-09T11:03:16Z</time>
      </trkpt>
      <trkpt lat="44.25069" lon="5.83615">
        <ele>527</ele>
        <time>2019-08-09T11:03:17Z</time>
      </trkpt>
      <trkpt lat="44.25071" lon="5.83602">
        <ele>527</ele>
        <time>2019-08-09T11:03:18Z</time>
      </trkpt>
      <trkpt lat="44.25074" lon="5.83589">
        <ele>527</ele>
        <time>2019-08-09T11:03:19Z</time>
      </trkpt>
      <trkpt lat="44.25076" lon="5.83576">
        <ele>527</ele>
        <time>2019-08-09T11:03:20Z</time>
      </trkpt>
      <trkpt lat="44.25078" lon="5.83563">
        <ele>527</ele>
        <time>2019-08-09T11:03:21Z</time>
      </trkpt>
      <trkpt lat="44.25081" lon="5.8355">
        <ele>527</ele>
        <time>2019-08-09T11:03:22Z</time>
      </trkpt>
      <trkpt lat="44.25084" lon="5.83537">
        <ele>527</ele>
        <time>2019-08-09T11:03:23Z</time>
      </trkpt>
      <trkpt lat="44.25087" lon="5.83524">
        <ele>527</ele>
        <time>2019-08-09T11:03:24Z</time>
      </trkpt>
      <trkpt lat="44.2509" lon="5.8351">
        <ele>527</ele>
        <time>2019-08-09T11:03:25Z</time>
      </trkpt>
      <trkpt lat="44.25093" lon="5.83497">
        <ele>527</ele>
        <time>2019-08-09T11:03:26Z</time>
      </trkpt>
      <trkpt lat="44.25097" lon="5.83485">
        <ele>527</ele>
        <time>2019-08-09T11:03:27Z</time>
      </trkpt>
      <trkpt lat="44.25102" lon="5.83472">
        <ele>527</ele>
        <time>2019-08-09T11:03:28Z</time>
      </trkpt>
      <trkpt lat="44.25107" lon="5.8346">
        <ele>527</ele>
        <time>2019-08-09T11:03:29Z</time>
      </trkpt>
      <trkpt lat="44.25113" lon="5.83449">
        <ele>527</ele>
        <time>2019-08-09T11:03:30Z</time>
      </trkpt>
      <trkpt lat="44.25119" lon="5.83437">
        <ele>527</ele>
        <time>2019-08-09T11:03:31Z</time>
      </trkpt>
      <trkpt lat="44.25125" lon="5.83426">
        <ele>527</ele>
        <time>2019-08-09T11:03:32Z</time>
      </trkpt>
      <trkpt lat="44.25132" lon="5.83416">
        <ele>527</ele>
        <time>2019-08-09T11:03:33Z</time>
      </trkpt>
      <trkpt lat="44.25138" lon="5.83406">
        <ele>527</ele>
        <time>2019-08-09T11:03:34Z</time>
      </trkpt>
      <trkpt lat="44.25146" lon="5.83397">
        <ele>527</ele>
        <time>2019-08-09T11:03:35Z</time>
      </trkpt>
      <trkpt lat="44.25153" lon="5.83388">
        <ele>527</ele>
        <time>2019-08-09T11:03:36Z</time>
      </trkpt>
      <trkpt lat="44.25161" lon="5.8338">
        <ele>527</ele>
        <time>2019-08-09T11:03:37Z</time>
      </trkpt>
      <trkpt lat="44.25169" lon="5.83372">
        <ele>526</ele>
        <time>2019-08-09T11:03:38Z</time>
      </trkpt>
      <trkpt lat="44.25177" lon="5.83365">
        <ele>526</ele>
        <time>2019-08-09T11:03:39Z</time>
      </trkpt>
      <trkpt lat="44.25185" lon="5.83358">
        <ele>526</ele>
        <time>2019-08-09T11:03:40Z</time>
      </trkpt>
      <trkpt lat="44.25193" lon="5.83351">
        <ele>526</ele>
        <time>2019-08-09T11:03:41Z</time>
      </trkpt>
      <trkpt lat="44.25202" lon="5.83345">
        <ele>525</ele>
        <time>2019-08-09T11:03:42Z</time>
      </trkpt>
      <trkpt lat="44.25211" lon="5.83338">
        <ele>525</ele>
        <time>2019-08-09T11:03:43Z</time>
      </trkpt>
      <trkpt lat="44.25219" lon="5.83331">
        <ele>525</ele>
        <time>2019-08-09T11:03:44Z</time>
      </trkpt>
      <trkpt lat="44.25228" lon="5.83324">
        <ele>525</ele>
        <time>2019-08-09T11:03:45Z</time>
      </trkpt>
      <trkpt lat="44.25237" lon="5.83317">
        <ele>524</ele>
        <time>2019-08-09T11:03:46Z</time>
      </trkpt>
      <trkpt lat="44.25246" lon="5.8331">
        <ele>524</ele>
        <time>2019-08-09T11:03:47Z</time>
      </trkpt>
      <trkpt lat="44.25254" lon="5.83303">
        <ele>524</ele>
        <time>2019-08-09T11:03:48Z</time>
      </trkpt>
      <trkpt lat="44.25264" lon="5.83295">
        <ele>524</ele>
        <time>2019-08-09T11:03:49Z</time>
      </trkpt>
      <trkpt lat="44.25272" lon="5.83287">
        <ele>523</ele>
        <time>2019-08-09T11:03:50Z</time>
      </trkpt>
      <trkpt lat="44.25282" lon="5.83279">
        <ele>523</ele>
        <time>2019-08-09T11:03:51Z</time>
      </trkpt>
      <trkpt lat="44.25291" lon="5.8327">
        <ele>522</ele>
        <time>2019-08-09T11:03:52Z</time>
      </trkpt>
      <trkpt lat="44.253" lon="5.83261">
        <ele>522</ele>
        <time>2019-08-09T11:03:53Z</time>
      </trkpt>
      <trkpt lat="44.25309" lon="5.83252">
        <ele>521</ele>
        <time>2019-08-09T11:03:54Z</time>
      </trkpt>
      <trkpt lat="44.25319" lon="5.83243">
        <ele>521</ele>
        <time>2019-08-09T11:03:55Z</time>
      </trkpt>
      <trkpt lat="44.25328" lon="5.83233">
        <ele>520</ele>
        <time>2019-08-09T11:03:56Z</time>
      </trkpt>
      <trkpt lat="44.25337" lon="5.83224">
        <ele>520</ele>
        <time>2019-08-09T11:03:57Z</time>
      </trkpt>
      <trkpt lat="44.25346" lon="5.83215">
        <ele>520</ele>
        <time>2019-08-09T11:03:58Z</time>
      </trkpt>
      <trkpt lat="44.25356" lon="5.83206">
        <ele>519</ele>
        <time>2019-08-09T11:03:59Z</time>
      </trkpt>
      <trkpt lat="44.25365" lon="5.83197">
        <ele>519</ele>
        <time>2019-08-09T11:04:00Z</time>
      </trkpt>
      <trkpt lat="44.25373" lon="5.83188">
        <ele>519</ele>
        <time>2019-08-09T11:04:01Z</time>
      </trkpt>
      <trkpt lat="44.25382" lon="5.83179">
        <ele>518</ele>
        <time>2019-08-09T11:04:02Z</time>
      </trkpt>
      <trkpt lat="44.25391" lon="5.8317">
        <ele>518</ele>
        <time>2019-08-09T11:04:03Z</time>
      </trkpt>
      <trkpt lat="44.25399" lon="5.83161">
        <ele>518</ele>
        <time>2019-08-09T11:04:04Z</time>
      </trkpt>
      <trkpt lat="44.25407" lon="5.83151">
        <ele>517</ele>
        <time>2019-08-09T11:04:05Z</time>
      </trkpt>
      <trkpt lat="44.25414" lon="5.83141">
        <ele>517</ele>
        <time>2019-08-09T11:04:06Z</time>
      </trkpt>
      <trkpt lat="44.25422" lon="5.8313">
        <ele>517</ele>
        <time>2019-08-09T11:04:07Z</time>
      </trkpt>
      <trkpt lat="44.25429" lon="5.8312">
        <ele>517</ele>
        <time>2019-08-09T11:04:08Z</time>
      </trkpt>
      <trkpt lat="44.25436" lon="5.83109">
        <ele>516</ele>
        <time>2019-08-09T11:04:09Z</time>
      </trkpt>
      <trkpt lat="44.25442" lon="5.83097">
        <ele>516</ele>
        <time>2019-08-09T11:04:10Z</time>
      </trkpt>
      <trkpt lat="44.25448" lon="5.83085">
        <ele>516</ele>
        <time>2019-08-09T11:04:11Z</time>
      </trkpt>
      <trkpt lat="44.25454" lon="5.83073">
        <ele>516</ele>
        <time>2019-08-09T11:04:12Z</time>
      </trkpt>
      <trkpt lat="44.2546" lon="5.83061">
        <ele>516</ele>
        <time>2019-08-09T11:04:13Z</time>
      </trkpt>
      <trkpt lat="44.25466" lon="5.83049">
        <ele>516</ele>
        <time>2019-08-09T11:04:14Z</time>
      </trkpt>
      <trkpt lat="44.25471" lon="5.83036">
        <ele>516</ele>
        <time>2019-08-09T11:04:15Z</time>
      </trkpt>
      <trkpt lat="44.25475" lon="5.83023">
        <ele>516</ele>
        <time>2019-08-09T11:04:16Z</time>
      </trkpt>
      <trkpt lat="44.2548" lon="5.8301">
        <ele>516</ele>
        <time>2019-08-09T11:04:17Z</time>
      </trkpt>
      <trkpt lat="44.25484" lon="5.82996">
        <ele>516</ele>
        <time>2019-08-09T11:04:18Z</time>
      </trkpt>
      <trkpt lat="44.25488" lon="5.82983">
        <ele>516</ele>
        <time>2019-08-09T11:04:19Z</time>
      </trkpt>
      <trkpt lat="44.25491" lon="5.8297">
        <ele>515</ele>
        <time>2019-08-09T11:04:20Z</time>
      </trkpt>
      <trkpt lat="44.25495" lon="5.82956">
        <ele>515</ele>
        <time>2019-08-09T11:04:21Z</time>
      </trkpt>
      <trkpt lat="44.25498" lon="5.82942">
        <ele>515</ele>
        <time>2019-08-09T11:04:22Z</time>
      </trkpt>
      <trkpt lat="44.25502" lon="5.82929">
        <ele>515</ele>
        <time>2019-08-09T11:04:23Z</time>
      </trkpt>
      <trkpt lat="44.25505" lon="5.82916">
        <ele>515</ele>
        <time>2019-08-09T11:04:24Z</time>
      </trkpt>
      <trkpt lat="44.25508" lon="5.82903">
        <ele>515</ele>
        <time>2019-08-09T11:04:25Z</time>
      </trkpt>
      <trkpt lat="44.25511" lon="5.82891">
        <ele>515</ele>
        <time>2019-08-09T11:04:26Z</time>
      </trkpt>
      <trkpt lat="44.25514" lon="5.82878">
        <ele>515</ele>
        <time>2019-08-09T11:04:27Z</time>
      </trkpt>
      <trkpt lat="44.25517" lon="5.82866">
        <ele>515</ele>
        <time>2019-08-09T11:04:28Z</time>
      </trkpt>
      <trkpt lat="44.2552" lon="5.82855">
        <ele>515</ele>
        <time>2019-08-09T11:04:29Z</time>
      </trkpt>
      <trkpt lat="44.25523" lon="5.82844">
        <ele>515</ele>
        <time>2019-08-09T11:04:30Z</time>
      </trkpt>
      <trkpt lat="44.25526" lon="5.82833">
        <ele>515</ele>
        <time>2019-08-09T11:04:31Z</time>
      </trkpt>
      <trkpt lat="44.25529" lon="5.82822">
        <ele>515</ele>
        <time>2019-08-09T11:04:32Z</time>
      </trkpt>
      <trkpt lat="44.25532" lon="5.82812">
        <ele>515</ele>
        <time>2019-08-09T11:04:33Z</time>
      </trkpt>
      <trkpt lat="44.25535" lon="5.82802">
        <ele>515</ele>
        <time>2019-08-09T11:04:34Z</time>
      </trkpt>
      <trkpt lat="44.25538" lon="5.82792">
        <ele>515</ele>
        <time>2019-08-09T11:04:35Z</time>
      </trkpt>
      <trkpt lat="44.25542" lon="5.82783">
        <ele>515</ele>
        <time>2019-08-09T11:04:36Z</time>
      </trkpt>
      <trkpt lat="44.25545" lon="5.82773">
        <ele>515</ele>
        <time>2019-08-09T11:04:37Z</time>
      </trkpt>
      <trkpt lat="44.25548" lon="5.82764">
        <ele>515</ele>
        <time>2019-08-09T11:04:38Z</time>
      </trkpt>
      <trkpt lat="44.25551" lon="5.82755">
        <ele>515</ele>
        <time>2019-08-09T11:04:39Z</time>
      </trkpt>
      <trkpt lat="44.25555" lon="5.82746">
        <ele>515</ele>
        <time>2019-08-09T11:04:40Z</time>
      </trkpt>
      <trkpt lat="44.25558" lon="5.82737">
        <ele>515</ele>
        <time>2019-08-09T11:04:41Z</time>
      </trkpt>
      <trkpt lat="44.25561" lon="5.82729">
        <ele>515</ele>
        <time>2019-08-09T11:04:42Z</time>
      </trkpt>
      <trkpt lat="44.25565" lon="5.82721">
        <ele>515</ele>
        <time>2019-08-09T11:04:43Z</time>
      </trkpt>
      <trkpt lat="44.25568" lon="5.82713">
        <ele>515</ele>
        <time>2019-08-09T11:04:44Z</time>
      </trkpt>
      <trkpt lat="44.25571" lon="5.82705">
        <ele>515</ele>
        <time>2019-08-09T11:04:45Z</time>
      </trkpt>
      <trkpt lat="44.25574" lon="5.82697">
        <ele>515</ele>
        <time>2019-08-09T11:04:46Z</time>
      </trkpt>
      <trkpt lat="44.25578" lon="5.82689">
        <ele>515</ele>
        <time>2019-08-09T11:04:47Z</time>
      </trkpt>
      <trkpt lat="44.25581" lon="5.82682">
        <ele>515</ele>
        <time>2019-08-09T11:04:48Z</time>
      </trkpt>
      <trkpt lat="44.25585" lon="5.82674">
        <ele>515</ele>
        <time>2019-08-09T11:04:49Z</time>
      </trkpt>
      <trkpt lat="44.25589" lon="5.82666">
        <ele>515</ele>
        <time>2019-08-09T11:04:50Z</time>
      </trkpt>
      <trkpt lat="44.25593" lon="5.82659">
        <ele>515</ele>
        <time>2019-08-09T11:04:51Z</time>
      </trkpt>
      <trkpt lat="44.25597" lon="5.82651">
        <ele>515</ele>
        <time>2019-08-09T11:04:52Z</time>
      </trkpt>
      <trkpt lat="44.25601" lon="5.82644">
        <ele>515</ele>
        <time>2019-08-09T11:04:53Z</time>
      </trkpt>
      <trkpt lat="44.25605" lon="5.82636">
        <ele>515</ele>
        <time>2019-08-09T11:04:54Z</time>
      </trkpt>
      <trkpt lat="44.25609" lon="5.82629">
        <ele>515</ele>
        <time>2019-08-09T11:04:55Z</time>
      </trkpt>
      <trkpt lat="44.25613" lon="5.82622">
        <ele>515</ele>
        <time>2019-08-09T11:04:56Z</time>
      </trkpt>
      <trkpt lat="44.25617" lon="5.82615">
        <ele>515</ele>
        <time>2019-08-09T11:04:57Z</time>
      </trkpt>
      <trkpt lat="44.25621" lon="5.82608">
        <ele>515</ele>
        <time>2019-08-09T11:04:58Z</time>
      </trkpt>
      <trkpt lat="44.25625" lon="5.82601">
        <ele>515</ele>
        <time>2019-08-09T11:04:59Z</time>
      </trkpt>
      <trkpt lat="44.25629" lon="5.82594">
        <ele>515</ele>
        <time>2019-08-09T11:05:00Z</time>
      </trkpt>
      <trkpt lat="44.25633" lon="5.82587">
        <ele>515</ele>
        <time>2019-08-09T11:05:01Z</time>
      </trkpt>
      <trkpt lat="44.25637" lon="5.82581">
        <ele>515</ele>
        <time>2019-08-09T11:05:02Z</time>
      </trkpt>
      <trkpt lat="44.25641" lon="5.82574">
        <ele>515</ele>
        <time>2019-08-09T11:05:03Z</time>
      </trkpt>
      <trkpt lat="44.25645" lon="5.82567">
        <ele>515</ele>
        <time>2019-08-09T11:05:04Z</time>
      </trkpt>
      <trkpt lat="44.25649" lon="5.82561">
        <ele>515</ele>
        <time>2019-08-09T11:05:05Z</time>
      </trkpt>
      <trkpt lat="44.25653" lon="5.82555">
        <ele>515</ele>
        <time>2019-08-09T11:05:06Z</time>
      </trkpt>
      <trkpt lat="44.25658" lon="5.82549">
        <ele>515</ele>
        <time>2019-08-09T11:05:07Z</time>
      </trkpt>
      <trkpt lat="44.25662" lon="5.82542">
        <ele>515</ele>
        <time>2019-08-09T11:05:08Z</time>
      </trkpt>
      <trkpt lat="44.25666" lon="5.82536">
        <ele>515</ele>
        <time>2019-08-09T11:05:09Z</time>
      </trkpt>
      <trkpt lat="44.25671" lon="5.8253">
        <ele>515</ele>
        <time>2019-08-09T11:05:10Z</time>
      </trkpt>
      <trkpt lat="44.25675" lon="5.82525">
        <ele>515</ele>
        <time>2019-08-09T11:05:11Z</time>
      </trkpt>
      <trkpt lat="44.25679" lon="5.82519">
        <ele>516</ele>
        <time>2019-08-09T11:05:12Z</time>
      </trkpt>
      <trkpt lat="44.25684" lon="5.82513">
        <ele>516</ele>
        <time>2019-08-09T11:05:13Z</time>
      </trkpt>
      <trkpt lat="44.25689" lon="5.82508">
        <ele>516</ele>
        <time>2019-08-09T11:05:14Z</time>
      </trkpt>
      <trkpt lat="44.25693" lon="5.82502">
        <ele>516</ele>
        <time>2019-08-09T11:05:15Z</time>
      </trkpt>
      <trkpt lat="44.25698" lon="5.82496">
        <ele>517</ele>
        <time>2019-08-09T11:05:16Z</time>
      </trkpt>
      <trkpt lat="44.25703" lon="5.82491">
        <ele>517</ele>
        <time>2019-08-09T11:05:17Z</time>
      </trkpt>
      <trkpt lat="44.25708" lon="5.82485">
        <ele>517</ele>
        <time>2019-08-09T11:05:18Z</time>
      </trkpt>
      <trkpt lat="44.25713" lon="5.8248">
        <ele>517</ele>
        <time>2019-08-09T11:05:19Z</time>
      </trkpt>
      <trkpt lat="44.25718" lon="5.82476">
        <ele>517</ele>
        <time>2019-08-09T11:05:20Z</time>
      </trkpt>
      <trkpt lat="44.25723" lon="5.82471">
        <ele>517</ele>
        <time>2019-08-09T11:05:21Z</time>
      </trkpt>
      <trkpt lat="44.25728" lon="5.82466">
        <ele>517</ele>
        <time>2019-08-09T11:05:22Z</time>
      </trkpt>
      <trkpt lat="44.25733" lon="5.82461">
        <ele>517</ele>
        <time>2019-08-09T11:05:23Z</time>
      </trkpt>
      <trkpt lat="44.25738" lon="5.82456">
        <ele>517</ele>
        <time>2019-08-09T11:05:24Z</time>
      </trkpt>
      <trkpt lat="44.25742" lon="5.82451">
        <ele>517</ele>
        <time>2019-08-09T11:05:25Z</time>
      </trkpt>
      <trkpt lat="44.25748" lon="5.82446">
        <ele>517</ele>
        <time>2019-08-09T11:05:26Z</time>
      </trkpt>
      <trkpt lat="44.25752" lon="5.82441">
        <ele>517</ele>
        <time>2019-08-09T11:05:27Z</time>
      </trkpt>
      <trkpt lat="44.25757" lon="5.82437">
        <ele>517</ele>
        <time>2019-08-09T11:05:28Z</time>
      </trkpt>
      <trkpt lat="44.25762" lon="5.82432">
        <ele>517</ele>
        <time>2019-08-09T11:05:29Z</time>
      </trkpt>
      <trkpt lat="44.25767" lon="5.82427">
        <ele>517</ele>
        <time>2019-08-09T11:05:30Z</time>
      </trkpt>
      <trkpt lat="44.25772" lon="5.82422">
        <ele>517</ele>
        <time>2019-08-09T11:05:31Z</time>
      </trkpt>
      <trkpt lat="44.25777" lon="5.82418">
        <ele>517</ele>
        <time>2019-08-09T11:05:32Z</time>
      </trkpt>
      <trkpt lat="44.25782" lon="5.82413">
        <ele>517</ele>
        <time>2019-08-09T11:05:33Z</time>
      </trkpt>
      <trkpt lat="44.25787" lon="5.82409">
        <ele>517</ele>
        <time>2019-08-09T11:05:34Z</time>
      </trkpt>
      <trkpt lat="44.25793" lon="5.82404">
        <ele>517</ele>
        <time>2019-08-09T11:05:35Z</time>
      </trkpt>
      <trkpt lat="44.25798" lon="5.824">
        <ele>518</ele>
        <time>2019-08-09T11:05:36Z</time>
      </trkpt>
      <trkpt lat="44.25803" lon="5.82396">
        <ele>518</ele>
        <time>2019-08-09T11:05:37Z</time>
      </trkpt>
      <trkpt lat="44.25808" lon="5.82392">
        <ele>518</ele>
        <time>2019-08-09T11:05:38Z</time>
      </trkpt>
      <trkpt lat="44.25814" lon="5.82388">
        <ele>518</ele>
        <time>2019-08-09T11:05:39Z</time>
      </trkpt>
      <trkpt lat="44.25821" lon="5.82384">
        <ele>518</ele>
        <time>2019-08-09T11:05:40Z</time>
      </trkpt>
      <trkpt lat="44.25826" lon="5.82381">
        <ele>519</ele>
        <time>2019-08-09T11:05:41Z</time>
      </trkpt>
      <trkpt lat="44.25832" lon="5.82378">
        <ele>519</ele>
        <time>2019-08-09T11:05:42Z</time>
      </trkpt>
      <trkpt lat="44.25837" lon="5.82375">
        <ele>519</ele>
        <time>2019-08-09T11:05:43Z</time>
      </trkpt>
      <trkpt lat="44.25843" lon="5.82371">
        <ele>519</ele>
        <time>2019-08-09T11:05:44Z</time>
      </trkpt>
      <trkpt lat="44.25848" lon="5.82368">
        <ele>519</ele>
        <time>2019-08-09T11:05:45Z</time>
      </trkpt>
      <trkpt lat="44.25854" lon="5.82365">
        <ele>519</ele>
        <time>2019-08-09T11:05:46Z</time>
      </trkpt>
      <trkpt lat="44.25859" lon="5.82363">
        <ele>519</ele>
        <time>2019-08-09T11:05:47Z</time>
      </trkpt>
      <trkpt lat="44.25865" lon="5.8236">
        <ele>519</ele>
        <time>2019-08-09T11:05:48Z</time>
      </trkpt>
      <trkpt lat="44.25871" lon="5.82358">
        <ele>519</ele>
        <time>2019-08-09T11:05:49Z</time>
      </trkpt>
      <trkpt lat="44.25877" lon="5.82356">
        <ele>519</ele>
        <time>2019-08-09T11:05:50Z</time>
      </trkpt>
      <trkpt lat="44.25883" lon="5.82354">
        <ele>519</ele>
        <time>2019-08-09T11:05:51Z</time>
      </trkpt>
      <trkpt lat="44.25889" lon="5.82352">
        <ele>519</ele>
        <time>2019-08-09T11:05:52Z</time>
      </trkpt>
      <trkpt lat="44.25895" lon="5.82351">
        <ele>519</ele>
        <time>2019-08-09T11:05:53Z</time>
      </trkpt>
      <trkpt lat="44.25901" lon="5.8235">
        <ele>519</ele>
        <time>2019-08-09T11:05:54Z</time>
      </trkpt>
      <trkpt lat="44.25907" lon="5.82348">
        <ele>519</ele>
        <time>2019-08-09T11:05:55Z</time>
      </trkpt>
      <trkpt lat="44.25913" lon="5.82347">
        <ele>519</ele>
        <time>2019-08-09T11:05:56Z</time>
      </trkpt>
      <trkpt lat="44.25919" lon="5.82346">
        <ele>519</ele>
        <time>2019-08-09T11:05:57Z</time>
      </trkpt>
      <trkpt lat="44.25925" lon="5.82345">
        <ele>519</ele>
        <time>2019-08-09T11:05:58Z</time>
      </trkpt>
      <trkpt lat="44.25932" lon="5.82345">
        <ele>519</ele>
        <time>2019-08-09T11:05:59Z</time>
      </trkpt>
      <trkpt lat="44.25938" lon="5.82344">
        <ele>519</ele>
        <time>2019-08-09T11:06:00Z</time>
      </trkpt>
      <trkpt lat="44.25944" lon="5.82343">
        <ele>519</ele>
        <time>2019-08-09T11:06:01Z</time>
      </trkpt>
      <trkpt lat="44.25951" lon="5.82342">
        <ele>519</ele>
        <time>2019-08-09T11:06:02Z</time>
      </trkpt>
      <trkpt lat="44.25957" lon="5.82342">
        <ele>519</ele>
        <time>2019-08-09T11:06:03Z</time>
      </trkpt>
      <trkpt lat="44.25964" lon="5.82341">
        <ele>519</ele>
        <time>2019-08-09T11:06:04Z</time>
      </trkpt>
      <trkpt lat="44.2597" lon="5.8234">
        <ele>519</ele>
        <time>2019-08-09T11:06:05Z</time>
      </trkpt>
      <trkpt lat="44.25977" lon="5.8234">
        <ele>519</ele>
        <time>2019-08-09T11:06:06Z</time>
      </trkpt>
      <trkpt lat="44.25983" lon="5.82339">
        <ele>519</ele>
        <time>2019-08-09T11:06:07Z</time>
      </trkpt>
      <trkpt lat="44.2599" lon="5.82338">
        <ele>519</ele>
        <time>2019-08-09T11:06:08Z</time>
      </trkpt>
      <trkpt lat="44.25997" lon="5.82338">
        <ele>519</ele>
        <time>2019-08-09T11:06:09Z</time>
      </trkpt>
      <trkpt lat="44.26004" lon="5.82337">
        <ele>519</ele>
        <time>2019-08-09T11:06:10Z</time>
      </trkpt>
      <trkpt lat="44.2601" lon="5.82337">
        <ele>519</ele>
        <time>2019-08-09T11:06:11Z</time>
      </trkpt>
      <trkpt lat="44.26017" lon="5.82336">
        <ele>519</ele>
        <time>2019-08-09T11:06:12Z</time>
      </trkpt>
      <trkpt lat="44.26025" lon="5.82335">
        <ele>519</ele>
        <time>2019-08-09T11:06:13Z</time>
      </trkpt>
      <trkpt lat="44.26031" lon="5.82334">
        <ele>519</ele>
        <time>2019-08-09T11:06:14Z</time>
      </trkpt>
      <trkpt lat="44.26038" lon="5.82334">
        <ele>519</ele>
        <time>2019-08-09T11:06:15Z</time>
      </trkpt>
      <trkpt lat="44.26046" lon="5.82333">
        <ele>519</ele>
        <time>2019-08-09T11:06:16Z</time>
      </trkpt>
      <trkpt lat="44.26052" lon="5.82332">
        <ele>519</ele>
        <time>2019-08-09T11:06:17Z</time>
      </trkpt>
      <trkpt lat="44.26059" lon="5.8233">
        <ele>519</ele>
        <time>2019-08-09T11:06:18Z</time>
      </trkpt>
      <trkpt lat="44.26066" lon="5.82329">
        <ele>519</ele>
        <time>2019-08-09T11:06:19Z</time>
      </trkpt>
      <trkpt lat="44.26073" lon="5.82327">
        <ele>519</ele>
        <time>2019-08-09T11:06:20Z</time>
      </trkpt>
      <trkpt lat="44.2608" lon="5.82325">
        <ele>519</ele>
        <time>2019-08-09T11:06:21Z</time>
      </trkpt>
      <trkpt lat="44.26086" lon="5.82322">
        <ele>519</ele>
        <time>2019-08-09T11:06:22Z</time>
      </trkpt>
      <trkpt lat="44.26093" lon="5.82319">
        <ele>519</ele>
        <time>2019-08-09T11:06:23Z</time>
      </trkpt>
      <trkpt lat="44.261" lon="5.82316">
        <ele>519</ele>
        <time>2019-08-09T11:06:24Z</time>
      </trkpt>
      <trkpt lat="44.26107" lon="5.82313">
        <ele>519</ele>
        <time>2019-08-09T11:06:25Z</time>
      </trkpt>
      <trkpt lat="44.26115" lon="5.8231">
        <ele>519</ele>
        <time>2019-08-09T11:06:26Z</time>
      </trkpt>
      <trkpt lat="44.26122" lon="5.82306">
        <ele>519</ele>
        <time>2019-08-09T11:06:27Z</time>
      </trkpt>
      <trkpt lat="44.26129" lon="5.82303">
        <ele>519</ele>
        <time>2019-08-09T11:06:28Z</time>
      </trkpt>
      <trkpt lat="44.26136" lon="5.82299">
        <ele>519</ele>
        <time>2019-08-09T11:06:29Z</time>
      </trkpt>
      <trkpt lat="44.26143" lon="5.82296">
        <ele>519</ele>
        <time>2019-08-09T11:06:30Z</time>
      </trkpt>
      <trkpt lat="44.2615" lon="5.82292">
        <ele>519</ele>
        <time>2019-08-09T11:06:31Z</time>
      </trkpt>
      <trkpt lat="44.26157" lon="5.82289">
        <ele>519</ele>
        <time>2019-08-09T11:06:32Z</time>
      </trkpt>
      <trkpt lat="44.26165" lon="5.82285">
        <ele>519</ele>
        <time>2019-08-09T11:06:33Z</time>
      </trkpt>
      <trkpt lat="44.26173" lon="5.82281">
        <ele>519</ele>
        <time>2019-08-09T11:06:34Z</time>
      </trkpt>
      <trkpt lat="44.2618" lon="5.82277">
        <ele>520</ele>
        <time>2019-08-09T11:06:35Z</time>
      </trkpt>
      <trkpt lat="44.26188" lon="5.82274">
        <ele>520</ele>
        <time>2019-08-09T11:06:36Z</time>
      </trkpt>
      <trkpt lat="44.26195" lon="5.8227">
        <ele>520</ele>
        <time>2019-08-09T11:06:37Z</time>
      </trkpt>
      <trkpt lat="44.26202" lon="5.82266">
        <ele>520</ele>
        <time>2019-08-09T11:06:38Z</time>
      </trkpt>
      <trkpt lat="44.2621" lon="5.82262">
        <ele>520</ele>
        <time>2019-08-09T11:06:39Z</time>
      </trkpt>
      <trkpt lat="44.26218" lon="5.82258">
        <ele>520</ele>
        <time>2019-08-09T11:06:40Z</time>
      </trkpt>
      <trkpt lat="44.26225" lon="5.82255">
        <ele>520</ele>
        <time>2019-08-09T11:06:41Z</time>
      </trkpt>
      <trkpt lat="44.26233" lon="5.82251">
        <ele>520</ele>
        <time>2019-08-09T11:06:42Z</time>
      </trkpt>
      <trkpt lat="44.2624" lon="5.82247">
        <ele>520</ele>
        <time>2019-08-09T11:06:43Z</time>
      </trkpt>
      <trkpt lat="44.26247" lon="5.82243">
        <ele>520</ele>
        <time>2019-08-09T11:06:44Z</time>
      </trkpt>
      <trkpt lat="44.26255" lon="5.82239">
        <ele>520</ele>
        <time>2019-08-09T11:06:45Z</time>
      </trkpt>
      <trkpt lat="44.26263" lon="5.82235">
        <ele>520</ele>
        <time>2019-08-09T11:06:46Z</time>
      </trkpt>
      <trkpt lat="44.2627" lon="5.82232">
        <ele>520</ele>
        <time>2019-08-09T11:06:47Z</time>
      </trkpt>
      <trkpt lat="44.26278" lon="5.82228">
        <ele>520</ele>
        <time>2019-08-09T11:06:48Z</time>
      </trkpt>
      <trkpt lat="44.26285" lon="5.82224">
        <ele>520</ele>
        <time>2019-08-09T11:06:49Z</time>
      </trkpt>
      <trkpt lat="44.26292" lon="5.82219">
        <ele>520</ele>
        <time>2019-08-09T11:06:50Z</time>
      </trkpt>
      <trkpt lat="44.263" lon="5.82215">
        <ele>520</ele>
        <time>2019-08-09T11:06:51Z</time>
      </trkpt>
      <trkpt lat="44.26307" lon="5.82211">
        <ele>520</ele>
        <time>2019-08-09T11:06:52Z</time>
      </trkpt>
      <trkpt lat="44.26315" lon="5.82207">
        <ele>520</ele>
        <time>2019-08-09T11:06:53Z</time>
      </trkpt>
      <trkpt lat="44.26322" lon="5.82202">
        <ele>520</ele>
        <time>2019-08-09T11:06:54Z</time>
      </trkpt>
      <trkpt lat="44.2633" lon="5.82198">
        <ele>520</ele>
        <time>2019-08-09T11:06:55Z</time>
      </trkpt>
      <trkpt lat="44.26337" lon="5.82194">
        <ele>520</ele>
        <time>2019-08-09T11:06:56Z</time>
      </trkpt>
      <trkpt lat="44.26345" lon="5.82191">
        <ele>520</ele>
        <time>2019-08-09T11:06:57Z</time>
      </trkpt>
      <trkpt lat="44.26353" lon="5.82187">
        <ele>520</ele>
        <time>2019-08-09T11:06:58Z</time>
      </trkpt>
      <trkpt lat="44.26361" lon="5.82183">
        <ele>520</ele>
        <time>2019-08-09T11:06:59Z</time>
      </trkpt>
      <trkpt lat="44.26369" lon="5.8218">
        <ele>520</ele>
        <time>2019-08-09T11:07:00Z</time>
      </trkpt>
      <trkpt lat="44.26376" lon="5.82177">
        <ele>520</ele>
        <time>2019-08-09T11:07:01Z</time>
      </trkpt>
      <trkpt lat="44.26384" lon="5.82173">
        <ele>520</ele>
        <time>2019-08-09T11:07:02Z</time>
      </trkpt>
      <trkpt lat="44.26392" lon="5.8217">
        <ele>520</ele>
        <time>2019-08-09T11:07:03Z</time>
      </trkpt>
      <trkpt lat="44.264" lon="5.82167">
        <ele>520</ele>
        <time>2019-08-09T11:07:04Z</time>
      </trkpt>
      <trkpt lat="44.26408" lon="5.82164">
        <ele>520</ele>
        <time>2019-08-09T11:07:05Z</time>
      </trkpt>
      <trkpt lat="44.26415" lon="5.82161">
        <ele>520</ele>
        <time>2019-08-09T11:07:06Z</time>
      </trkpt>
      <trkpt lat="44.26423" lon="5.82159">
        <ele>520</ele>
        <time>2019-08-09T11:07:07Z</time>
      </trkpt>
      <trkpt lat="44.26431" lon="5.82156">
        <ele>520</ele>
        <time>2019-08-09T11:07:08Z</time>
      </trkpt>
      <trkpt lat="44.26438" lon="5.82154">
        <ele>520</ele>
        <time>2019-08-09T11:07:09Z</time>
      </trkpt>
      <trkpt lat="44.26445" lon="5.82151">
        <ele>520</ele>
        <time>2019-08-09T11:07:10Z</time>
      </trkpt>
      <trkpt lat="44.26453" lon="5.82149">
        <ele>520</ele>
        <time>2019-08-09T11:07:11Z</time>
      </trkpt>
      <trkpt lat="44.2646" lon="5.82147">
        <ele>520</ele>
        <time>2019-08-09T11:07:12Z</time>
      </trkpt>
      <trkpt lat="44.26467" lon="5.82144">
        <ele>520</ele>
        <time>2019-08-09T11:07:13Z</time>
      </trkpt>
      <trkpt lat="44.26474" lon="5.82142">
        <ele>520</ele>
        <time>2019-08-09T11:07:14Z</time>
      </trkpt>
      <trkpt lat="44.26482" lon="5.82139">
        <ele>521</ele>
        <time>2019-08-09T11:07:15Z</time>
      </trkpt>
      <trkpt lat="44.26489" lon="5.82137">
        <ele>521</ele>
        <time>2019-08-09T11:07:16Z</time>
      </trkpt>
      <trkpt lat="44.26496" lon="5.82134">
        <ele>521</ele>
        <time>2019-08-09T11:07:17Z</time>
      </trkpt>
      <trkpt lat="44.26502" lon="5.82131">
        <ele>521</ele>
        <time>2019-08-09T11:07:18Z</time>
      </trkpt>
      <trkpt lat="44.26509" lon="5.82129">
        <ele>521</ele>
        <time>2019-08-09T11:07:19Z</time>
      </trkpt>
      <trkpt lat="44.26516" lon="5.82127">
        <ele>522</ele>
        <time>2019-08-09T11:07:20Z</time>
      </trkpt>
      <trkpt lat="44.26522" lon="5.82124">
        <ele>522</ele>
        <time>2019-08-09T11:07:21Z</time>
      </trkpt>
      <trkpt lat="44.26529" lon="5.82122">
        <ele>522</ele>
        <time>2019-08-09T11:07:22Z</time>
      </trkpt>
      <trkpt lat="44.26535" lon="5.82119">
        <ele>522</ele>
        <time>2019-08-09T11:07:23Z</time>
      </trkpt>
      <trkpt lat="44.26541" lon="5.82117">
        <ele>522</ele>
        <time>2019-08-09T11:07:24Z</time>
      </trkpt>
      <trkpt lat="44.26547" lon="5.82114">
        <ele>523</ele>
        <time>2019-08-09T11:07:25Z</time>
      </trkpt>
      <trkpt lat="44.26553" lon="5.82112">
        <ele>523</ele>
        <time>2019-08-09T11:07:26Z</time>
      </trkpt>
      <trkpt lat="44.26559" lon="5.82109">
        <ele>523</ele>
        <time>2019-08-09T11:07:27Z</time>
      </trkpt>
      <trkpt lat="44.26565" lon="5.82107">
        <ele>523</ele>
        <time>2019-08-09T11:07:28Z</time>
      </trkpt>
      <trkpt lat="44.26571" lon="5.82104">
        <ele>523</ele>
        <time>2019-08-09T11:07:29Z</time>
      </trkpt>
      <trkpt lat="44.26577" lon="5.82102">
        <ele>524</ele>
        <time>2019-08-09T11:07:30Z</time>
      </trkpt>
      <trkpt lat="44.26583" lon="5.821">
        <ele>524</ele>
        <time>2019-08-09T11:07:31Z</time>
      </trkpt>
      <trkpt lat="44.26589" lon="5.82098">
        <ele>524</ele>
        <time>2019-08-09T11:07:32Z</time>
      </trkpt>
      <trkpt lat="44.26595" lon="5.82095">
        <ele>524</ele>
        <time>2019-08-09T11:07:33Z</time>
      </trkpt>
      <trkpt lat="44.26601" lon="5.82093">
        <ele>525</ele>
        <time>2019-08-09T11:07:34Z</time>
      </trkpt>
      <trkpt lat="44.26607" lon="5.82091">
        <ele>525</ele>
        <time>2019-08-09T11:07:35Z</time>
      </trkpt>
      <trkpt lat="44.26613" lon="5.82088">
        <ele>525</ele>
        <time>2019-08-09T11:07:36Z</time>
      </trkpt>
      <trkpt lat="44.26619" lon="5.82086">
        <ele>525</ele>
        <time>2019-08-09T11:07:37Z</time>
      </trkpt>
      <trkpt lat="44.26625" lon="5.82083">
        <ele>526</ele>
        <time>2019-08-09T11:07:38Z</time>
      </trkpt>
      <trkpt lat="44.26631" lon="5.82081">
        <ele>526</ele>
        <time>2019-08-09T11:07:39Z</time>
      </trkpt>
      <trkpt lat="44.26638" lon="5.82078">
        <ele>526</ele>
        <time>2019-08-09T11:07:40Z</time>
      </trkpt>
      <trkpt lat="44.26644" lon="5.82076">
        <ele>526</ele>
        <time>2019-08-09T11:07:41Z</time>
      </trkpt>
      <trkpt lat="44.2665" lon="5.82074">
        <ele>526</ele>
        <time>2019-08-09T11:07:42Z</time>
      </trkpt>
      <trkpt lat="44.26656" lon="5.82071">
        <ele>526</ele>
        <time>2019-08-09T11:07:43Z</time>
      </trkpt>
      <trkpt lat="44.26662" lon="5.82069">
        <ele>527</ele>
        <time>2019-08-09T11:07:44Z</time>
      </trkpt>
      <trkpt lat="44.26668" lon="5.82066">
        <ele>527</ele>
        <time>2019-08-09T11:07:45Z</time>
      </trkpt>
      <trkpt lat="44.26674" lon="5.82064">
        <ele>527</ele>
        <time>2019-08-09T11:07:46Z</time>
      </trkpt>
      <trkpt lat="44.2668" lon="5.82062">
        <ele>527</ele>
        <time>2019-08-09T11:07:47Z</time>
      </trkpt>
      <trkpt lat="44.26686" lon="5.8206">
        <ele>527</ele>
        <time>2019-08-09T11:07:48Z</time>
      </trkpt>
      <trkpt lat="44.26692" lon="5.82058">
        <ele>528</ele>
        <time>2019-08-09T11:07:49Z</time>
      </trkpt>
      <trkpt lat="44.26698" lon="5.82055">
        <ele>528</ele>
        <time>2019-08-09T11:07:50Z</time>
      </trkpt>
      <trkpt lat="44.26705" lon="5.82053">
        <ele>528</ele>
        <time>2019-08-09T11:07:51Z</time>
      </trkpt>
      <trkpt lat="44.26711" lon="5.8205">
        <ele>528</ele>
        <time>2019-08-09T11:07:52Z</time>
      </trkpt>
      <trkpt lat="44.26717" lon="5.82048">
        <ele>528</ele>
        <time>2019-08-09T11:07:53Z</time>
      </trkpt>
      <trkpt lat="44.26723" lon="5.82046">
        <ele>528</ele>
        <time>2019-08-09T11:07:54Z</time>
      </trkpt>
      <trkpt lat="44.2673" lon="5.82043">
        <ele>528</ele>
        <time>2019-08-09T11:07:55Z</time>
      </trkpt>
      <trkpt lat="44.26736" lon="5.82041">
        <ele>528</ele>
        <time>2019-08-09T11:07:56Z</time>
      </trkpt>
      <trkpt lat="44.26742" lon="5.82038">
        <ele>528</ele>
        <time>2019-08-09T11:07:57Z</time>
      </trkpt>
      <trkpt lat="44.26748" lon="5.82036">
        <ele>528</ele>
        <time>2019-08-09T11:07:58Z</time>
      </trkpt>
      <trkpt lat="44.26754" lon="5.82034">
        <ele>529</ele>
        <time>2019-08-09T11:07:59Z</time>
      </trkpt>
      <trkpt lat="44.2676" lon="5.82031">
        <ele>529</ele>
        <time>2019-08-09T11:08:00Z</time>
      </trkpt>
      <trkpt lat="44.26766" lon="5.82029">
        <ele>529</ele>
        <time>2019-08-09T11:08:01Z</time>
      </trkpt>
      <trkpt lat="44.26773" lon="5.82026">
        <ele>529</ele>
        <time>2019-08-09T11:08:02Z</time>
      </trkpt>
      <trkpt lat="44.26779" lon="5.82024">
        <ele>529</ele>
        <time>2019-08-09T11:08:03Z</time>
      </trkpt>
      <trkpt lat="44.26785" lon="5.82022">
        <ele>529</ele>
        <time>2019-08-09T11:08:04Z</time>
      </trkpt>
      <trkpt lat="44.26791" lon="5.82019">
        <ele>529</ele>
        <time>2019-08-09T11:08:05Z</time>
      </trkpt>
      <trkpt lat="44.26797" lon="5.82017">
        <ele>529</ele>
        <time>2019-08-09T11:08:06Z</time>
      </trkpt>
      <trkpt lat="44.26803" lon="5.82015">
        <ele>529</ele>
        <time>2019-08-09T11:08:07Z</time>
      </trkpt>
      <trkpt lat="44.26809" lon="5.82012">
        <ele>529</ele>
        <time>2019-08-09T11:08:08Z</time>
      </trkpt>
      <trkpt lat="44.26815" lon="5.8201">
        <ele>529</ele>
        <time>2019-08-09T11:08:09Z</time>
      </trkpt>
      <trkpt lat="44.26822" lon="5.82007">
        <ele>529</ele>
        <time>2019-08-09T11:08:10Z</time>
      </trkpt>
      <trkpt lat="44.26828" lon="5.82004">
        <ele>530</ele>
        <time>2019-08-09T11:08:11Z</time>
      </trkpt>
      <trkpt lat="44.26834" lon="5.82002">
        <ele>530</ele>
        <time>2019-08-09T11:08:12Z</time>
      </trkpt>
      <trkpt lat="44.2684" lon="5.82">
        <ele>530</ele>
        <time>2019-08-09T11:08:13Z</time>
      </trkpt>
      <trkpt lat="44.26846" lon="5.81997">
        <ele>530</ele>
        <time>2019-08-09T11:08:14Z</time>
      </trkpt>
      <trkpt lat="44.26852" lon="5.81995">
        <ele>530</ele>
        <time>2019-08-09T11:08:15Z</time>
      </trkpt>
      <trkpt lat="44.26858" lon="5.81992">
        <ele>530</ele>
        <time>2019-08-09T11:08:16Z</time>
      </trkpt>
      <trkpt lat="44.26865" lon="5.8199">
        <ele>530</ele>
        <time>2019-08-09T11:08:17Z</time>
      </trkpt>
      <trkpt lat="44.26871" lon="5.81987">
        <ele>531</ele>
        <time>2019-08-09T11:08:18Z</time>
      </trkpt>
      <trkpt lat="44.26877" lon="5.81985">
        <ele>531</ele>
        <time>2019-08-09T11:08:19Z</time>
      </trkpt>
      <trkpt lat="44.26883" lon="5.81983">
        <ele>531</ele>
        <time>2019-08-09T11:08:20Z</time>
      </trkpt>
      <trkpt lat="44.2689" lon="5.8198">
        <ele>531</ele>
        <time>2019-08-09T11:08:21Z</time>
      </trkpt>
      <trkpt lat="44.26896" lon="5.81978">
        <ele>531</ele>
        <time>2019-08-09T11:08:22Z</time>
      </trkpt>
      <trkpt lat="44.26902" lon="5.81975">
        <ele>531</ele>
        <time>2019-08-09T11:08:23Z</time>
      </trkpt>
      <trkpt lat="44.26909" lon="5.81972">
        <ele>531</ele>
        <time>2019-08-09T11:08:24Z</time>
      </trkpt>
      <trkpt lat="44.26915" lon="5.81969">
        <ele>531</ele>
        <time>2019-08-09T11:08:25Z</time>
      </trkpt>
      <trkpt lat="44.26921" lon="5.81967">
        <ele>531</ele>
        <time>2019-08-09T11:08:26Z</time>
      </trkpt>
      <trkpt lat="44.26928" lon="5.81964">
        <ele>532</ele>
        <time>2019-08-09T11:08:27Z</time>
      </trkpt>
      <trkpt lat="44.26934" lon="5.81962">
        <ele>532</ele>
        <time>2019-08-09T11:08:28Z</time>
      </trkpt>
      <trkpt lat="44.2694" lon="5.8196">
        <ele>532</ele>
        <time>2019-08-09T11:08:29Z</time>
      </trkpt>
      <trkpt lat="44.26947" lon="5.81957">
        <ele>532</ele>
        <time>2019-08-09T11:08:30Z</time>
      </trkpt>
      <trkpt lat="44.26953" lon="5.81955">
        <ele>532</ele>
        <time>2019-08-09T11:08:31Z</time>
      </trkpt>
      <trkpt lat="44.26959" lon="5.81953">
        <ele>532</ele>
        <time>2019-08-09T11:08:32Z</time>
      </trkpt>
      <trkpt lat="44.26966" lon="5.8195">
        <ele>532</ele>
        <time>2019-08-09T11:08:33Z</time>
      </trkpt>
      <trkpt lat="44.26972" lon="5.81948">
        <ele>532</ele>
        <time>2019-08-09T11:08:34Z</time>
      </trkpt>
      <trkpt lat="44.26978" lon="5.81946">
        <ele>532</ele>
        <time>2019-08-09T11:08:35Z</time>
      </trkpt>
      <trkpt lat="44.26984" lon="5.81943">
        <ele>532</ele>
        <time>2019-08-09T11:08:36Z</time>
      </trkpt>
      <trkpt lat="44.26991" lon="5.81941">
        <ele>532</ele>
        <time>2019-08-09T11:08:37Z</time>
      </trkpt>
      <trkpt lat="44.26997" lon="5.81938">
        <ele>532</ele>
        <time>2019-08-09T11:08:38Z</time>
      </trkpt>
      <trkpt lat="44.27003" lon="5.81936">
        <ele>532</ele>
        <time>2019-08-09T11:08:39Z</time>
      </trkpt>
      <trkpt lat="44.2701" lon="5.81933">
        <ele>532</ele>
        <time>2019-08-09T11:08:40Z</time>
      </trkpt>
      <trkpt lat="44.27016" lon="5.8193">
        <ele>532</ele>
        <time>2019-08-09T11:08:41Z</time>
      </trkpt>
      <trkpt lat="44.27023" lon="5.81928">
        <ele>532</ele>
        <time>2019-08-09T11:08:42Z</time>
      </trkpt>
      <trkpt lat="44.27029" lon="5.81925">
        <ele>532</ele>
        <time>2019-08-09T11:08:43Z</time>
      </trkpt>
      <trkpt lat="44.27036" lon="5.81923">
        <ele>533</ele>
        <time>2019-08-09T11:08:44Z</time>
      </trkpt>
      <trkpt lat="44.27042" lon="5.81921">
        <ele>533</ele>
        <time>2019-08-09T11:08:45Z</time>
      </trkpt>
      <trkpt lat="44.27048" lon="5.81918">
        <ele>533</ele>
        <time>2019-08-09T11:08:46Z</time>
      </trkpt>
      <trkpt lat="44.27055" lon="5.81916">
        <ele>533</ele>
        <time>2019-08-09T11:08:47Z</time>
      </trkpt>
      <trkpt lat="44.27061" lon="5.81913">
        <ele>533</ele>
        <time>2019-08-09T11:08:48Z</time>
      </trkpt>
      <trkpt lat="44.27068" lon="5.81911">
        <ele>533</ele>
        <time>2019-08-09T11:08:49Z</time>
      </trkpt>
      <trkpt lat="44.27074" lon="5.81908">
        <ele>533</ele>
        <time>2019-08-09T11:08:50Z</time>
      </trkpt>
      <trkpt lat="44.27081" lon="5.81905">
        <ele>533</ele>
        <time>2019-08-09T11:08:51Z</time>
      </trkpt>
      <trkpt lat="44.27087" lon="5.81903">
        <ele>533</ele>
        <time>2019-08-09T11:08:52Z</time>
      </trkpt>
      <trkpt lat="44.27094" lon="5.819">
        <ele>533</ele>
        <time>2019-08-09T11:08:53Z</time>
      </trkpt>
      <trkpt lat="44.271" lon="5.81897">
        <ele>533</ele>
        <time>2019-08-09T11:08:54Z</time>
      </trkpt>
      <trkpt lat="44.27107" lon="5.81895">
        <ele>533</ele>
        <time>2019-08-09T11:08:55Z</time>
      </trkpt>
      <trkpt lat="44.27113" lon="5.81892">
        <ele>533</ele>
        <time>2019-08-09T11:08:56Z</time>
      </trkpt>
      <trkpt lat="44.2712" lon="5.8189">
        <ele>533</ele>
        <time>2019-08-09T11:08:57Z</time>
      </trkpt>
      <trkpt lat="44.27126" lon="5.81887">
        <ele>534</ele>
        <time>2019-08-09T11:08:58Z</time>
      </trkpt>
      <trkpt lat="44.27133" lon="5.81885">
        <ele>534</ele>
        <time>2019-08-09T11:08:59Z</time>
      </trkpt>
      <trkpt lat="44.27139" lon="5.81882">
        <ele>534</ele>
        <time>2019-08-09T11:09:00Z</time>
      </trkpt>
      <trkpt lat="44.27146" lon="5.8188">
        <ele>534</ele>
        <time>2019-08-09T11:09:01Z</time>
      </trkpt>
      <trkpt lat="44.27152" lon="5.81877">
        <ele>534</ele>
        <time>2019-08-09T11:09:02Z</time>
      </trkpt>
      <trkpt lat="44.27158" lon="5.81875">
        <ele>534</ele>
        <time>2019-08-09T11:09:03Z</time>
      </trkpt>
      <trkpt lat="44.27165" lon="5.81872">
        <ele>534</ele>
        <time>2019-08-09T11:09:04Z</time>
      </trkpt>
      <trkpt lat="44.27171" lon="5.8187">
        <ele>534</ele>
        <time>2019-08-09T11:09:05Z</time>
      </trkpt>
      <trkpt lat="44.27178" lon="5.81867">
        <ele>534</ele>
        <time>2019-08-09T11:09:06Z</time>
      </trkpt>
      <trkpt lat="44.27184" lon="5.81864">
        <ele>534</ele>
        <time>2019-08-09T11:09:07Z</time>
      </trkpt>
      <trkpt lat="44.27191" lon="5.81862">
        <ele>534</ele>
        <time>2019-08-09T11:09:08Z</time>
      </trkpt>
      <trkpt lat="44.27197" lon="5.8186">
        <ele>534</ele>
        <time>2019-08-09T11:09:09Z</time>
      </trkpt>
      <trkpt lat="44.27203" lon="5.81857">
        <ele>534</ele>
        <time>2019-08-09T11:09:10Z</time>
      </trkpt>
      <trkpt lat="44.2721" lon="5.81854">
        <ele>534</ele>
        <time>2019-08-09T11:09:11Z</time>
      </trkpt>
      <trkpt lat="44.27216" lon="5.81852">
        <ele>534</ele>
        <time>2019-08-09T11:09:12Z</time>
      </trkpt>
      <trkpt lat="44.27222" lon="5.81849">
        <ele>534</ele>
        <time>2019-08-09T11:09:13Z</time>
      </trkpt>
      <trkpt lat="44.27229" lon="5.81847">
        <ele>534</ele>
        <time>2019-08-09T11:09:14Z</time>
      </trkpt>
      <trkpt lat="44.27235" lon="5.81845">
        <ele>534</ele>
        <time>2019-08-09T11:09:15Z</time>
      </trkpt>
      <trkpt lat="44.27241" lon="5.81842">
        <ele>534</ele>
        <time>2019-08-09T11:09:16Z</time>
      </trkpt>
      <trkpt lat="44.27247" lon="5.8184">
        <ele>534</ele>
        <time>2019-08-09T11:09:17Z</time>
      </trkpt>
      <trkpt lat="44.27254" lon="5.81838">
        <ele>534</ele>
        <time>2019-08-09T11:09:18Z</time>
      </trkpt>
      <trkpt lat="44.2726" lon="5.81835">
        <ele>534</ele>
        <time>2019-08-09T11:09:19Z</time>
      </trkpt>
      <trkpt lat="44.27266" lon="5.81833">
        <ele>534</ele>
        <time>2019-08-09T11:09:20Z</time>
      </trkpt>
      <trkpt lat="44.27272" lon="5.8183">
        <ele>534</ele>
        <time>2019-08-09T11:09:21Z</time>
      </trkpt>
      <trkpt lat="44.27279" lon="5.81827">
        <ele>534</ele>
        <time>2019-08-09T11:09:22Z</time>
      </trkpt>
      <trkpt lat="44.27285" lon="5.81825">
        <ele>534</ele>
        <time>2019-08-09T11:09:23Z</time>
      </trkpt>
      <trkpt lat="44.27291" lon="5.81823">
        <ele>534</ele>
        <time>2019-08-09T11:09:24Z</time>
      </trkpt>
      <trkpt lat="44.27298" lon="5.8182">
        <ele>534</ele>
        <time>2019-08-09T11:09:25Z</time>
      </trkpt>
      <trkpt lat="44.27304" lon="5.81818">
        <ele>534</ele>
        <time>2019-08-09T11:09:26Z</time>
      </trkpt>
      <trkpt lat="44.27311" lon="5.81815">
        <ele>534</ele>
        <time>2019-08-09T11:09:27Z</time>
      </trkpt>
      <trkpt lat="44.27317" lon="5.81813">
        <ele>534</ele>
        <time>2019-08-09T11:09:28Z</time>
      </trkpt>
      <trkpt lat="44.27323" lon="5.81811">
        <ele>534</ele>
        <time>2019-08-09T11:09:29Z</time>
      </trkpt>
      <trkpt lat="44.2733" lon="5.81808">
        <ele>534</ele>
        <time>2019-08-09T11:09:30Z</time>
      </trkpt>
      <trkpt lat="44.27336" lon="5.81805">
        <ele>534</ele>
        <time>2019-08-09T11:09:31Z</time>
      </trkpt>
      <trkpt lat="44.27342" lon="5.81802">
        <ele>534</ele>
        <time>2019-08-09T11:09:32Z</time>
      </trkpt>
      <trkpt lat="44.27348" lon="5.818">
        <ele>534</ele>
        <time>2019-08-09T11:09:33Z</time>
      </trkpt>
      <trkpt lat="44.27354" lon="5.81797">
        <ele>534</ele>
        <time>2019-08-09T11:09:34Z</time>
      </trkpt>
      <trkpt lat="44.27361" lon="5.81794">
        <ele>534</ele>
        <time>2019-08-09T11:09:35Z</time>
      </trkpt>
      <trkpt lat="44.27367" lon="5.81791">
        <ele>535</ele>
        <time>2019-08-09T11:09:36Z</time>
      </trkpt>
      <trkpt lat="44.27372" lon="5.81789">
        <ele>535</ele>
        <time>2019-08-09T11:09:37Z</time>
      </trkpt>
      <trkpt lat="44.27378" lon="5.81786">
        <ele>535</ele>
        <time>2019-08-09T11:09:38Z</time>
      </trkpt>
      <trkpt lat="44.27385" lon="5.81784">
        <ele>535</ele>
        <time>2019-08-09T11:09:39Z</time>
      </trkpt>
      <trkpt lat="44.27391" lon="5.81781">
        <ele>535</ele>
        <time>2019-08-09T11:09:40Z</time>
      </trkpt>
      <trkpt lat="44.27397" lon="5.81779">
        <ele>535</ele>
        <time>2019-08-09T11:09:41Z</time>
      </trkpt>
      <trkpt lat="44.27403" lon="5.81777">
        <ele>536</ele>
        <time>2019-08-09T11:09:42Z</time>
      </trkpt>
      <trkpt lat="44.27409" lon="5.81775">
        <ele>536</ele>
        <time>2019-08-09T11:09:43Z</time>
      </trkpt>
      <trkpt lat="44.27414" lon="5.81772">
        <ele>536</ele>
        <time>2019-08-09T11:09:44Z</time>
      </trkpt>
      <trkpt lat="44.2742" lon="5.8177">
        <ele>537</ele>
        <time>2019-08-09T11:09:45Z</time>
      </trkpt>
      <trkpt lat="44.27426" lon="5.81767">
        <ele>537</ele>
        <time>2019-08-09T11:09:46Z</time>
      </trkpt>
      <trkpt lat="44.27432" lon="5.81765">
        <ele>537</ele>
        <time>2019-08-09T11:09:47Z</time>
      </trkpt>
      <trkpt lat="44.27438" lon="5.81763">
        <ele>537</ele>
        <time>2019-08-09T11:09:48Z</time>
      </trkpt>
      <trkpt lat="44.27444" lon="5.81761">
        <ele>538</ele>
        <time>2019-08-09T11:09:49Z</time>
      </trkpt>
      <trkpt lat="44.2745" lon="5.81758">
        <ele>538</ele>
        <time>2019-08-09T11:09:50Z</time>
      </trkpt>
      <trkpt lat="44.27456" lon="5.81756">
        <ele>538</ele>
        <time>2019-08-09T11:09:51Z</time>
      </trkpt>
      <trkpt lat="44.27462" lon="5.81754">
        <ele>539</ele>
        <time>2019-08-09T11:09:52Z</time>
      </trkpt>
      <trkpt lat="44.27467" lon="5.81752">
        <ele>539</ele>
        <time>2019-08-09T11:09:53Z</time>
      </trkpt>
      <trkpt lat="44.27473" lon="5.8175">
        <ele>539</ele>
        <time>2019-08-09T11:09:54Z</time>
      </trkpt>
      <trkpt lat="44.27479" lon="5.81747">
        <ele>539</ele>
        <time>2019-08-09T11:09:55Z</time>
      </trkpt>
      <trkpt lat="44.27485" lon="5.81745">
        <ele>540</ele>
        <time>2019-08-09T11:09:56Z</time>
      </trkpt>
      <trkpt lat="44.27491" lon="5.81743">
        <ele>540</ele>
        <time>2019-08-09T11:09:57Z</time>
      </trkpt>
      <trkpt lat="44.27496" lon="5.81741">
        <ele>540</ele>
        <time>2019-08-09T11:09:58Z</time>
      </trkpt>
      <trkpt lat="44.27502" lon="5.81739">
        <ele>540</ele>
        <time>2019-08-09T11:09:59Z</time>
      </trkpt>
      <trkpt lat="44.27507" lon="5.81736">
        <ele>540</ele>
        <time>2019-08-09T11:10:00Z</time>
      </trkpt>
      <trkpt lat="44.27513" lon="5.81734">
        <ele>541</ele>
        <time>2019-08-09T11:10:01Z</time>
      </trkpt>
      <trkpt lat="44.27518" lon="5.81732">
        <ele>541</ele>
        <time>2019-08-09T11:10:02Z</time>
      </trkpt>
      <trkpt lat="44.27524" lon="5.8173">
        <ele>541</ele>
        <time>2019-08-09T11:10:03Z</time>
      </trkpt>
      <trkpt lat="44.27529" lon="5.81728">
        <ele>541</ele>
        <time>2019-08-09T11:10:04Z</time>
      </trkpt>
      <trkpt lat="44.27535" lon="5.81725">
        <ele>541</ele>
        <time>2019-08-09T11:10:05Z</time>
      </trkpt>
      <trkpt lat="44.27541" lon="5.81723">
        <ele>541</ele>
        <time>2019-08-09T11:10:06Z</time>
      </trkpt>
      <trkpt lat="44.27547" lon="5.81721">
        <ele>542</ele>
        <time>2019-08-09T11:10:07Z</time>
      </trkpt>
      <trkpt lat="44.27552" lon="5.81719">
        <ele>542</ele>
        <time>2019-08-09T11:10:08Z</time>
      </trkpt>
      <trkpt lat="44.27558" lon="5.81717">
        <ele>542</ele>
        <time>2019-08-09T11:10:09Z</time>
      </trkpt>
      <trkpt lat="44.27563" lon="5.81715">
        <ele>542</ele>
        <time>2019-08-09T11:10:10Z</time>
      </trkpt>
      <trkpt lat="44.27569" lon="5.81713">
        <ele>542</ele>
        <time>2019-08-09T11:10:11Z</time>
      </trkpt>
      <trkpt lat="44.27574" lon="5.81711">
        <ele>543</ele>
        <time>2019-08-09T11:10:12Z</time>
      </trkpt>
      <trkpt lat="44.2758" lon="5.81709">
        <ele>543</ele>
        <time>2019-08-09T11:10:13Z</time>
      </trkpt>
      <trkpt lat="44.27585" lon="5.81707">
        <ele>543</ele>
        <time>2019-08-09T11:10:14Z</time>
      </trkpt>
      <trkpt lat="44.27591" lon="5.81705">
        <ele>543</ele>
        <time>2019-08-09T11:10:15Z</time>
      </trkpt>
      <trkpt lat="44.27597" lon="5.81702">
        <ele>543</ele>
        <time>2019-08-09T11:10:16Z</time>
      </trkpt>
      <trkpt lat="44.27602" lon="5.817">
        <ele>543</ele>
        <time>2019-08-09T11:10:17Z</time>
      </trkpt>
      <trkpt lat="44.27608" lon="5.81698">
        <ele>543</ele>
        <time>2019-08-09T11:10:18Z</time>
      </trkpt>
      <trkpt lat="44.27614" lon="5.81695">
        <ele>543</ele>
        <time>2019-08-09T11:10:19Z</time>
      </trkpt>
      <trkpt lat="44.2762" lon="5.81694">
        <ele>543</ele>
        <time>2019-08-09T11:10:20Z</time>
      </trkpt>
      <trkpt lat="44.27626" lon="5.81691">
        <ele>543</ele>
        <time>2019-08-09T11:10:21Z</time>
      </trkpt>
      <trkpt lat="44.27631" lon="5.81689">
        <ele>543</ele>
        <time>2019-08-09T11:10:22Z</time>
      </trkpt>
      <trkpt lat="44.27637" lon="5.81687">
        <ele>543</ele>
        <time>2019-08-09T11:10:23Z</time>
      </trkpt>
      <trkpt lat="44.27643" lon="5.81685">
        <ele>543</ele>
        <time>2019-08-09T11:10:24Z</time>
      </trkpt>
      <trkpt lat="44.27649" lon="5.81683">
        <ele>543</ele>
        <time>2019-08-09T11:10:25Z</time>
      </trkpt>
      <trkpt lat="44.27655" lon="5.81682">
        <ele>543</ele>
        <time>2019-08-09T11:10:26Z</time>
      </trkpt>
      <trkpt lat="44.27661" lon="5.8168">
        <ele>543</ele>
        <time>2019-08-09T11:10:27Z</time>
      </trkpt>
      <trkpt lat="44.27667" lon="5.81679">
        <ele>543</ele>
        <time>2019-08-09T11:10:28Z</time>
      </trkpt>
      <trkpt lat="44.27673" lon="5.81678">
        <ele>543</ele>
        <time>2019-08-09T11:10:29Z</time>
      </trkpt>
      <trkpt lat="44.27679" lon="5.81678">
        <ele>543</ele>
        <time>2019-08-09T11:10:30Z</time>
      </trkpt>
      <trkpt lat="44.27684" lon="5.81679">
        <ele>543</ele>
        <time>2019-08-09T11:10:31Z</time>
      </trkpt>
      <trkpt lat="44.2769" lon="5.81679">
        <ele>543</ele>
        <time>2019-08-09T11:10:32Z</time>
      </trkpt>
      <trkpt lat="44.27696" lon="5.8168">
        <ele>543</ele>
        <time>2019-08-09T11:10:33Z</time>
      </trkpt>
      <trkpt lat="44.27701" lon="5.81682">
        <ele>543</ele>
        <time>2019-08-09T11:10:34Z</time>
      </trkpt>
      <trkpt lat="44.27706" lon="5.81684">
        <ele>543</ele>
        <time>2019-08-09T11:10:35Z</time>
      </trkpt>
      <trkpt lat="44.27711" lon="5.81686">
        <ele>543</ele>
        <time>2019-08-09T11:10:36Z</time>
      </trkpt>
      <trkpt lat="44.27716" lon="5.81688">
        <ele>543</ele>
        <time>2019-08-09T11:10:37Z</time>
      </trkpt>
      <trkpt lat="44.27721" lon="5.81691">
        <ele>543</ele>
        <time>2019-08-09T11:10:38Z</time>
      </trkpt>
      <trkpt lat="44.27726" lon="5.81694">
        <ele>543</ele>
        <time>2019-08-09T11:10:39Z</time>
      </trkpt>
      <trkpt lat="44.27731" lon="5.81697">
        <ele>543</ele>
        <time>2019-08-09T11:10:40Z</time>
      </trkpt>
      <trkpt lat="44.27736" lon="5.81701">
        <ele>543</ele>
        <time>2019-08-09T11:10:41Z</time>
      </trkpt>
      <trkpt lat="44.27741" lon="5.81704">
        <ele>543</ele>
        <time>2019-08-09T11:10:42Z</time>
      </trkpt>
      <trkpt lat="44.27746" lon="5.81707">
        <ele>543</ele>
        <time>2019-08-09T11:10:43Z</time>
      </trkpt>
      <trkpt lat="44.2775" lon="5.8171">
        <ele>543</ele>
        <time>2019-08-09T11:10:44Z</time>
      </trkpt>
      <trkpt lat="44.27755" lon="5.81714">
        <ele>543</ele>
        <time>2019-08-09T11:10:45Z</time>
      </trkpt>
      <trkpt lat="44.2776" lon="5.81717">
        <ele>543</ele>
        <time>2019-08-09T11:10:46Z</time>
      </trkpt>
      <trkpt lat="44.27765" lon="5.8172">
        <ele>543</ele>
        <time>2019-08-09T11:10:47Z</time>
      </trkpt>
      <trkpt lat="44.2777" lon="5.81723">
        <ele>543</ele>
        <time>2019-08-09T11:10:48Z</time>
      </trkpt>
      <trkpt lat="44.27774" lon="5.81727">
        <ele>543</ele>
        <time>2019-08-09T11:10:49Z</time>
      </trkpt>
      <trkpt lat="44.27779" lon="5.8173">
        <ele>543</ele>
        <time>2019-08-09T11:10:50Z</time>
      </trkpt>
      <trkpt lat="44.27784" lon="5.81734">
        <ele>543</ele>
        <time>2019-08-09T11:10:51Z</time>
      </trkpt>
      <trkpt lat="44.27789" lon="5.81737">
        <ele>544</ele>
        <time>2019-08-09T11:10:52Z</time>
      </trkpt>
      <trkpt lat="44.27794" lon="5.81741">
        <ele>544</ele>
        <time>2019-08-09T11:10:53Z</time>
      </trkpt>
      <trkpt lat="44.27798" lon="5.81744">
        <ele>544</ele>
        <time>2019-08-09T11:10:54Z</time>
      </trkpt>
      <trkpt lat="44.27803" lon="5.81747">
        <ele>544</ele>
        <time>2019-08-09T11:10:55Z</time>
      </trkpt>
      <trkpt lat="44.27808" lon="5.8175">
        <ele>544</ele>
        <time>2019-08-09T11:10:56Z</time>
      </trkpt>
      <trkpt lat="44.27813" lon="5.81753">
        <ele>544</ele>
        <time>2019-08-09T11:10:57Z</time>
      </trkpt>
      <trkpt lat="44.27817" lon="5.81757">
        <ele>544</ele>
        <time>2019-08-09T11:10:58Z</time>
      </trkpt>
      <trkpt lat="44.27822" lon="5.8176">
        <ele>545</ele>
        <time>2019-08-09T11:10:59Z</time>
      </trkpt>
      <trkpt lat="44.27827" lon="5.81763">
        <ele>545</ele>
        <time>2019-08-09T11:11:00Z</time>
      </trkpt>
      <trkpt lat="44.27832" lon="5.81766">
        <ele>545</ele>
        <time>2019-08-09T11:11:01Z</time>
      </trkpt>
      <trkpt lat="44.27836" lon="5.81769">
        <ele>545</ele>
        <time>2019-08-09T11:11:02Z</time>
      </trkpt>
      <trkpt lat="44.27841" lon="5.81773">
        <ele>545</ele>
        <time>2019-08-09T11:11:03Z</time>
      </trkpt>
      <trkpt lat="44.27846" lon="5.81776">
        <ele>545</ele>
        <time>2019-08-09T11:11:04Z</time>
      </trkpt>
      <trkpt lat="44.27851" lon="5.81779">
        <ele>545</ele>
        <time>2019-08-09T11:11:05Z</time>
      </trkpt>
      <trkpt lat="44.27856" lon="5.81782">
        <ele>546</ele>
        <time>2019-08-09T11:11:06Z</time>
      </trkpt>
      <trkpt lat="44.2786" lon="5.81786">
        <ele>546</ele>
        <time>2019-08-09T11:11:07Z</time>
      </trkpt>
      <trkpt lat="44.27865" lon="5.81789">
        <ele>546</ele>
        <time>2019-08-09T11:11:08Z</time>
      </trkpt>
      <trkpt lat="44.2787" lon="5.81792">
        <ele>546</ele>
        <time>2019-08-09T11:11:09Z</time>
      </trkpt>
      <trkpt lat="44.27875" lon="5.81796">
        <ele>546</ele>
        <time>2019-08-09T11:11:10Z</time>
      </trkpt>
      <trkpt lat="44.2788" lon="5.81799">
        <ele>546</ele>
        <time>2019-08-09T11:11:11Z</time>
      </trkpt>
      <trkpt lat="44.27885" lon="5.81803">
        <ele>546</ele>
        <time>2019-08-09T11:11:12Z</time>
      </trkpt>
      <trkpt lat="44.27891" lon="5.81806">
        <ele>546</ele>
        <time>2019-08-09T11:11:13Z</time>
      </trkpt>
      <trkpt lat="44.27896" lon="5.81809">
        <ele>546</ele>
        <time>2019-08-09T11:11:14Z</time>
      </trkpt>
      <trkpt lat="44.27901" lon="5.81813">
        <ele>546</ele>
        <time>2019-08-09T11:11:15Z</time>
      </trkpt>
      <trkpt lat="44.27906" lon="5.81816">
        <ele>546</ele>
        <time>2019-08-09T11:11:16Z</time>
      </trkpt>
      <trkpt lat="44.27911" lon="5.81819">
        <ele>546</ele>
        <time>2019-08-09T11:11:17Z</time>
      </trkpt>
      <trkpt lat="44.27916" lon="5.81823">
        <ele>546</ele>
        <time>2019-08-09T11:11:18Z</time>
      </trkpt>
      <trkpt lat="44.27922" lon="5.81826">
        <ele>546</ele>
        <time>2019-08-09T11:11:19Z</time>
      </trkpt>
      <trkpt lat="44.27927" lon="5.8183">
        <ele>546</ele>
        <time>2019-08-09T11:11:20Z</time>
      </trkpt>
      <trkpt lat="44.27933" lon="5.81834">
        <ele>546</ele>
        <time>2019-08-09T11:11:21Z</time>
      </trkpt>
      <trkpt lat="44.27938" lon="5.81837">
        <ele>546</ele>
        <time>2019-08-09T11:11:22Z</time>
      </trkpt>
      <trkpt lat="44.27944" lon="5.81841">
        <ele>546</ele>
        <time>2019-08-09T11:11:23Z</time>
      </trkpt>
      <trkpt lat="44.27949" lon="5.81844">
        <ele>546</ele>
        <time>2019-08-09T11:11:24Z</time>
      </trkpt>
      <trkpt lat="44.27955" lon="5.81847">
        <ele>546</ele>
        <time>2019-08-09T11:11:25Z</time>
      </trkpt>
      <trkpt lat="44.2796" lon="5.81851">
        <ele>546</ele>
        <time>2019-08-09T11:11:26Z</time>
      </trkpt>
      <trkpt lat="44.27965" lon="5.81854">
        <ele>546</ele>
        <time>2019-08-09T11:11:27Z</time>
      </trkpt>
      <trkpt lat="44.27971" lon="5.81858">
        <ele>546</ele>
        <time>2019-08-09T11:11:28Z</time>
      </trkpt>
      <trkpt lat="44.27976" lon="5.81862">
        <ele>546</ele>
        <time>2019-08-09T11:11:29Z</time>
      </trkpt>
      <trkpt lat="44.27982" lon="5.81866">
        <ele>546</ele>
        <time>2019-08-09T11:11:30Z</time>
      </trkpt>
      <trkpt lat="44.27987" lon="5.81869">
        <ele>546</ele>
        <time>2019-08-09T11:11:31Z</time>
      </trkpt>
      <trkpt lat="44.27993" lon="5.81873">
        <ele>546</ele>
        <time>2019-08-09T11:11:32Z</time>
      </trkpt>
      <trkpt lat="44.27999" lon="5.81876">
        <ele>546</ele>
        <time>2019-08-09T11:11:33Z</time>
      </trkpt>
      <trkpt lat="44.28004" lon="5.8188">
        <ele>546</ele>
        <time>2019-08-09T11:11:34Z</time>
      </trkpt>
      <trkpt lat="44.28011" lon="5.81884">
        <ele>546</ele>
        <time>2019-08-09T11:11:35Z</time>
      </trkpt>
      <trkpt lat="44.28017" lon="5.81888">
        <ele>546</ele>
        <time>2019-08-09T11:11:36Z</time>
      </trkpt>
      <trkpt lat="44.28022" lon="5.81892">
        <ele>546</ele>
        <time>2019-08-09T11:11:37Z</time>
      </trkpt>
      <trkpt lat="44.28028" lon="5.81896">
        <ele>546</ele>
        <time>2019-08-09T11:11:38Z</time>
      </trkpt>
      <trkpt lat="44.28034" lon="5.819">
        <ele>546</ele>
        <time>2019-08-09T11:11:39Z</time>
      </trkpt>
      <trkpt lat="44.2804" lon="5.81904">
        <ele>546</ele>
        <time>2019-08-09T11:11:40Z</time>
      </trkpt>
      <trkpt lat="44.28046" lon="5.81907">
        <ele>546</ele>
        <time>2019-08-09T11:11:41Z</time>
      </trkpt>
      <trkpt lat="44.28051" lon="5.81911">
        <ele>546</ele>
        <time>2019-08-09T11:11:42Z</time>
      </trkpt>
      <trkpt lat="44.28057" lon="5.81915">
        <ele>546</ele>
        <time>2019-08-09T11:11:43Z</time>
      </trkpt>
      <trkpt lat="44.28063" lon="5.81918">
        <ele>546</ele>
        <time>2019-08-09T11:11:44Z</time>
      </trkpt>
      <trkpt lat="44.28069" lon="5.81921">
        <ele>546</ele>
        <time>2019-08-09T11:11:45Z</time>
      </trkpt>
      <trkpt lat="44.28074" lon="5.81925">
        <ele>546</ele>
        <time>2019-08-09T11:11:46Z</time>
      </trkpt>
      <trkpt lat="44.2808" lon="5.81929">
        <ele>546</ele>
        <time>2019-08-09T11:11:47Z</time>
      </trkpt>
      <trkpt lat="44.28085" lon="5.81932">
        <ele>546</ele>
        <time>2019-08-09T11:11:48Z</time>
      </trkpt>
      <trkpt lat="44.28091" lon="5.81936">
        <ele>546</ele>
        <time>2019-08-09T11:11:49Z</time>
      </trkpt>
      <trkpt lat="44.28097" lon="5.8194">
        <ele>546</ele>
        <time>2019-08-09T11:11:50Z</time>
      </trkpt>
      <trkpt lat="44.28102" lon="5.81943">
        <ele>546</ele>
        <time>2019-08-09T11:11:51Z</time>
      </trkpt>
      <trkpt lat="44.28107" lon="5.81947">
        <ele>546</ele>
        <time>2019-08-09T11:11:52Z</time>
      </trkpt>
      <trkpt lat="44.28113" lon="5.8195">
        <ele>546</ele>
        <time>2019-08-09T11:11:53Z</time>
      </trkpt>
      <trkpt lat="44.28118" lon="5.81954">
        <ele>546</ele>
        <time>2019-08-09T11:11:54Z</time>
      </trkpt>
      <trkpt lat="44.28124" lon="5.81957">
        <ele>546</ele>
        <time>2019-08-09T11:11:55Z</time>
      </trkpt>
      <trkpt lat="44.28129" lon="5.81961">
        <ele>546</ele>
        <time>2019-08-09T11:11:56Z</time>
      </trkpt>
      <trkpt lat="44.28135" lon="5.81964">
        <ele>546</ele>
        <time>2019-08-09T11:11:57Z</time>
      </trkpt>
      <trkpt lat="44.2814" lon="5.81968">
        <ele>546</ele>
        <time>2019-08-09T11:11:58Z</time>
      </trkpt>
      <trkpt lat="44.28146" lon="5.81971">
        <ele>546</ele>
        <time>2019-08-09T11:11:59Z</time>
      </trkpt>
      <trkpt lat="44.28151" lon="5.81975">
        <ele>546</ele>
        <time>2019-08-09T11:12:00Z</time>
      </trkpt>
      <trkpt lat="44.28157" lon="5.81978">
        <ele>546</ele>
        <time>2019-08-09T11:12:01Z</time>
      </trkpt>
      <trkpt lat="44.28162" lon="5.81982">
        <ele>546</ele>
        <time>2019-08-09T11:12:02Z</time>
      </trkpt>
      <trkpt lat="44.28168" lon="5.81986">
        <ele>545</ele>
        <time>2019-08-09T11:12:03Z</time>
      </trkpt>
      <trkpt lat="44.28173" lon="5.8199">
        <ele>545</ele>
        <time>2019-08-09T11:12:04Z</time>
      </trkpt>
      <trkpt lat="44.28179" lon="5.81994">
        <ele>545</ele>
        <time>2019-08-09T11:12:05Z</time>
      </trkpt>
      <trkpt lat="44.28186" lon="5.81997">
        <ele>545</ele>
        <time>2019-08-09T11:12:06Z</time>
      </trkpt>
      <trkpt lat="44.28192" lon="5.82001">
        <ele>545</ele>
        <time>2019-08-09T11:12:07Z</time>
      </trkpt>
      <trkpt lat="44.28198" lon="5.82005">
        <ele>544</ele>
        <time>2019-08-09T11:12:08Z</time>
      </trkpt>
      <trkpt lat="44.28204" lon="5.82008">
        <ele>544</ele>
        <time>2019-08-09T11:12:09Z</time>
      </trkpt>
      <trkpt lat="44.2821" lon="5.82011">
        <ele>544</ele>
        <time>2019-08-09T11:12:10Z</time>
      </trkpt>
      <trkpt lat="44.28216" lon="5.82014">
        <ele>544</ele>
        <time>2019-08-09T11:12:11Z</time>
      </trkpt>
      <trkpt lat="44.28222" lon="5.82016">
        <ele>544</ele>
        <time>2019-08-09T11:12:12Z</time>
      </trkpt>
      <trkpt lat="44.28228" lon="5.82018">
        <ele>544</ele>
        <time>2019-08-09T11:12:13Z</time>
      </trkpt>
      <trkpt lat="44.28234" lon="5.8202">
        <ele>544</ele>
        <time>2019-08-09T11:12:14Z</time>
      </trkpt>
      <trkpt lat="44.2824" lon="5.82022">
        <ele>544</ele>
        <time>2019-08-09T11:12:15Z</time>
      </trkpt>
      <trkpt lat="44.28246" lon="5.82024">
        <ele>544</ele>
        <time>2019-08-09T11:12:16Z</time>
      </trkpt>
      <trkpt lat="44.28251" lon="5.82025">
        <ele>544</ele>
        <time>2019-08-09T11:12:17Z</time>
      </trkpt>
      <trkpt lat="44.28257" lon="5.82026">
        <ele>544</ele>
        <time>2019-08-09T11:12:18Z</time>
      </trkpt>
      <trkpt lat="44.28263" lon="5.82027">
        <ele>544</ele>
        <time>2019-08-09T11:12:19Z</time>
      </trkpt>
      <trkpt lat="44.28268" lon="5.82027">
        <ele>544</ele>
        <time>2019-08-09T11:12:20Z</time>
      </trkpt>
      <trkpt lat="44.28274" lon="5.82027">
        <ele>544</ele>
        <time>2019-08-09T11:12:21Z</time>
      </trkpt>
      <trkpt lat="44.2828" lon="5.82028">
        <ele>544</ele>
        <time>2019-08-09T11:12:22Z</time>
      </trkpt>
      <trkpt lat="44.28285" lon="5.82028">
        <ele>544</ele>
        <time>2019-08-09T11:12:23Z</time>
      </trkpt>
      <trkpt lat="44.28291" lon="5.82027">
        <ele>544</ele>
        <time>2019-08-09T11:12:24Z</time>
      </trkpt>
      <trkpt lat="44.28297" lon="5.82027">
        <ele>544</ele>
        <time>2019-08-09T11:12:25Z</time>
      </trkpt>
      <trkpt lat="44.28304" lon="5.82028">
        <ele>544</ele>
        <time>2019-08-09T11:12:26Z</time>
      </trkpt>
      <trkpt lat="44.2831" lon="5.82028">
        <ele>544</ele>
        <time>2019-08-09T11:12:27Z</time>
      </trkpt>
      <trkpt lat="44.28317" lon="5.82028">
        <ele>544</ele>
        <time>2019-08-09T11:12:28Z</time>
      </trkpt>
      <trkpt lat="44.28324" lon="5.82027">
        <ele>544</ele>
        <time>2019-08-09T11:12:29Z</time>
      </trkpt>
      <trkpt lat="44.2833" lon="5.82027">
        <ele>544</ele>
        <time>2019-08-09T11:12:30Z</time>
      </trkpt>
      <trkpt lat="44.28337" lon="5.82028">
        <ele>544</ele>
        <time>2019-08-09T11:12:31Z</time>
      </trkpt>
      <trkpt lat="44.28343" lon="5.82028">
        <ele>544</ele>
        <time>2019-08-09T11:12:32Z</time>
      </trkpt>
      <trkpt lat="44.2835" lon="5.82028">
        <ele>544</ele>
        <time>2019-08-09T11:12:33Z</time>
      </trkpt>
      <trkpt lat="44.28357" lon="5.82028">
        <ele>544</ele>
        <time>2019-08-09T11:12:34Z</time>
      </trkpt>
      <trkpt lat="44.28363" lon="5.82028">
        <ele>544</ele>
        <time>2019-08-09T11:12:35Z</time>
      </trkpt>
      <trkpt lat="44.2837" lon="5.82027">
        <ele>544</ele>
        <time>2019-08-09T11:12:36Z</time>
      </trkpt>
      <trkpt lat="44.28376" lon="5.82028">
        <ele>544</ele>
        <time>2019-08-09T11:12:37Z</time>
      </trkpt>
      <trkpt lat="44.28383" lon="5.82028">
        <ele>544</ele>
        <time>2019-08-09T11:12:38Z</time>
      </trkpt>
      <trkpt lat="44.28389" lon="5.82029">
        <ele>544</ele>
        <time>2019-08-09T11:12:39Z</time>
      </trkpt>
      <trkpt lat="44.28396" lon="5.8203">
        <ele>544</ele>
        <time>2019-08-09T11:12:40Z</time>
      </trkpt>
      <trkpt lat="44.28402" lon="5.82031">
        <ele>544</ele>
        <time>2019-08-09T11:12:41Z</time>
      </trkpt>
      <trkpt lat="44.28408" lon="5.82032">
        <ele>544</ele>
        <time>2019-08-09T11:12:42Z</time>
      </trkpt>
      <trkpt lat="44.28415" lon="5.82034">
        <ele>544</ele>
        <time>2019-08-09T11:12:43Z</time>
      </trkpt>
      <trkpt lat="44.28421" lon="5.82036">
        <ele>544</ele>
        <time>2019-08-09T11:12:44Z</time>
      </trkpt>
      <trkpt lat="44.28427" lon="5.82037">
        <ele>544</ele>
        <time>2019-08-09T11:12:45Z</time>
      </trkpt>
      <trkpt lat="44.28433" lon="5.82039">
        <ele>544</ele>
        <time>2019-08-09T11:12:46Z</time>
      </trkpt>
      <trkpt lat="44.28438" lon="5.82041">
        <ele>544</ele>
        <time>2019-08-09T11:12:47Z</time>
      </trkpt>
      <trkpt lat="44.28444" lon="5.82043">
        <ele>544</ele>
        <time>2019-08-09T11:12:48Z</time>
      </trkpt>
      <trkpt lat="44.2845" lon="5.82045">
        <ele>544</ele>
        <time>2019-08-09T11:12:49Z</time>
      </trkpt>
      <trkpt lat="44.28455" lon="5.82048">
        <ele>544</ele>
        <time>2019-08-09T11:12:50Z</time>
      </trkpt>
      <trkpt lat="44.2846" lon="5.8205">
        <ele>544</ele>
        <time>2019-08-09T11:12:51Z</time>
      </trkpt>
      <trkpt lat="44.28466" lon="5.82053">
        <ele>544</ele>
        <time>2019-08-09T11:12:52Z</time>
      </trkpt>
      <trkpt lat="44.28471" lon="5.82056">
        <ele>544</ele>
        <time>2019-08-09T11:12:53Z</time>
      </trkpt>
      <trkpt lat="44.28476" lon="5.82058">
        <ele>544</ele>
        <time>2019-08-09T11:12:54Z</time>
      </trkpt>
      <trkpt lat="44.28482" lon="5.82061">
        <ele>544</ele>
        <time>2019-08-09T11:12:55Z</time>
      </trkpt>
      <trkpt lat="44.28487" lon="5.82064">
        <ele>544</ele>
        <time>2019-08-09T11:12:56Z</time>
      </trkpt>
      <trkpt lat="44.28492" lon="5.82067">
        <ele>544</ele>
        <time>2019-08-09T11:12:57Z</time>
      </trkpt>
      <trkpt lat="44.28497" lon="5.82069">
        <ele>544</ele>
        <time>2019-08-09T11:12:58Z</time>
      </trkpt>
      <trkpt lat="44.28502" lon="5.82072">
        <ele>544</ele>
        <time>2019-08-09T11:12:59Z</time>
      </trkpt>
      <trkpt lat="44.28508" lon="5.82075">
        <ele>544</ele>
        <time>2019-08-09T11:13:00Z</time>
      </trkpt>
      <trkpt lat="44.28513" lon="5.82078">
        <ele>544</ele>
        <time>2019-08-09T11:13:01Z</time>
      </trkpt>
      <trkpt lat="44.28518" lon="5.82081">
        <ele>544</ele>
        <time>2019-08-09T11:13:02Z</time>
      </trkpt>
      <trkpt lat="44.28523" lon="5.82083">
        <ele>544</ele>
        <time>2019-08-09T11:13:03Z</time>
      </trkpt>
      <trkpt lat="44.28528" lon="5.82086">
        <ele>544</ele>
        <time>2019-08-09T11:13:04Z</time>
      </trkpt>
      <trkpt lat="44.28533" lon="5.82089">
        <ele>544</ele>
        <time>2019-08-09T11:13:05Z</time>
      </trkpt>
      <trkpt lat="44.28538" lon="5.82091">
        <ele>544</ele>
        <time>2019-08-09T11:13:06Z</time>
      </trkpt>
      <trkpt lat="44.28543" lon="5.82093">
        <ele>544</ele>
        <time>2019-08-09T11:13:07Z</time>
      </trkpt>
      <trkpt lat="44.28548" lon="5.82096">
        <ele>544</ele>
        <time>2019-08-09T11:13:08Z</time>
      </trkpt>
      <trkpt lat="44.28553" lon="5.82099">
        <ele>544</ele>
        <time>2019-08-09T11:13:09Z</time>
      </trkpt>
      <trkpt lat="44.28558" lon="5.82101">
        <ele>544</ele>
        <time>2019-08-09T11:13:10Z</time>
      </trkpt>
      <trkpt lat="44.28564" lon="5.82103">
        <ele>544</ele>
        <time>2019-08-09T11:13:11Z</time>
      </trkpt>
      <trkpt lat="44.28569" lon="5.82106">
        <ele>544</ele>
        <time>2019-08-09T11:13:12Z</time>
      </trkpt>
      <trkpt lat="44.28574" lon="5.82109">
        <ele>544</ele>
        <time>2019-08-09T11:13:13Z</time>
      </trkpt>
      <trkpt lat="44.28579" lon="5.82112">
        <ele>545</ele>
        <time>2019-08-09T11:13:14Z</time>
      </trkpt>
      <trkpt lat="44.28584" lon="5.82114">
        <ele>545</ele>
        <time>2019-08-09T11:13:15Z</time>
      </trkpt>
      <trkpt lat="44.28589" lon="5.82116">
        <ele>545</ele>
        <time>2019-08-09T11:13:16Z</time>
      </trkpt>
      <trkpt lat="44.28595" lon="5.82118">
        <ele>545</ele>
        <time>2019-08-09T11:13:17Z</time>
      </trkpt>
      <trkpt lat="44.286" lon="5.8212">
        <ele>545</ele>
        <time>2019-08-09T11:13:18Z</time>
      </trkpt>
      <trkpt lat="44.28605" lon="5.82122">
        <ele>545</ele>
        <time>2019-08-09T11:13:19Z</time>
      </trkpt>
      <trkpt lat="44.2861" lon="5.82124">
        <ele>545</ele>
        <time>2019-08-09T11:13:20Z</time>
      </trkpt>
      <trkpt lat="44.28615" lon="5.82125">
        <ele>545</ele>
        <time>2019-08-09T11:13:21Z</time>
      </trkpt>
      <trkpt lat="44.2862" lon="5.82127">
        <ele>545</ele>
        <time>2019-08-09T11:13:22Z</time>
      </trkpt>
      <trkpt lat="44.28625" lon="5.82128">
        <ele>546</ele>
        <time>2019-08-09T11:13:23Z</time>
      </trkpt>
      <trkpt lat="44.2863" lon="5.8213">
        <ele>546</ele>
        <time>2019-08-09T11:13:24Z</time>
      </trkpt>
      <trkpt lat="44.28637" lon="5.82131">
        <ele>547</ele>
        <time>2019-08-09T11:13:25Z</time>
      </trkpt>
      <trkpt lat="44.28642" lon="5.82132">
        <ele>547</ele>
        <time>2019-08-09T11:13:26Z</time>
      </trkpt>
      <trkpt lat="44.28648" lon="5.82134">
        <ele>548</ele>
        <time>2019-08-09T11:13:27Z</time>
      </trkpt>
      <trkpt lat="44.28653" lon="5.82136">
        <ele>548</ele>
        <time>2019-08-09T11:13:28Z</time>
      </trkpt>
      <trkpt lat="44.28658" lon="5.82137">
        <ele>548</ele>
        <time>2019-08-09T11:13:29Z</time>
      </trkpt>
      <trkpt lat="44.28663" lon="5.82139">
        <ele>549</ele>
        <time>2019-08-09T11:13:30Z</time>
      </trkpt>
      <trkpt lat="44.28668" lon="5.8214">
        <ele>550</ele>
        <time>2019-08-09T11:13:31Z</time>
      </trkpt>
      <trkpt lat="44.28674" lon="5.82142">
        <ele>550</ele>
        <time>2019-08-09T11:13:32Z</time>
      </trkpt>
      <trkpt lat="44.28679" lon="5.82143">
        <ele>551</ele>
        <time>2019-08-09T11:13:33Z</time>
      </trkpt>
      <trkpt lat="44.28684" lon="5.82144">
        <ele>552</ele>
        <time>2019-08-09T11:13:34Z</time>
      </trkpt>
      <trkpt lat="44.28689" lon="5.82146">
        <ele>553</ele>
        <time>2019-08-09T11:13:35Z</time>
      </trkpt>
      <trkpt lat="44.28695" lon="5.82147">
        <ele>553</ele>
        <time>2019-08-09T11:13:36Z</time>
      </trkpt>
      <trkpt lat="44.287" lon="5.82149">
        <ele>554</ele>
        <time>2019-08-09T11:13:37Z</time>
      </trkpt>
      <trkpt lat="44.28705" lon="5.82151">
        <ele>555</ele>
        <time>2019-08-09T11:13:38Z</time>
      </trkpt>
      <trkpt lat="44.28709" lon="5.82153">
        <ele>555</ele>
        <time>2019-08-09T11:13:39Z</time>
      </trkpt>
      <trkpt lat="44.28714" lon="5.82155">
        <ele>556</ele>
        <time>2019-08-09T11:13:40Z</time>
      </trkpt>
      <trkpt lat="44.28719" lon="5.82157">
        <ele>557</ele>
        <time>2019-08-09T11:13:41Z</time>
      </trkpt>
      <trkpt lat="44.28724" lon="5.82159">
        <ele>557</ele>
        <time>2019-08-09T11:13:42Z</time>
      </trkpt>
      <trkpt lat="44.28729" lon="5.82162">
        <ele>558</ele>
        <time>2019-08-09T11:13:43Z</time>
      </trkpt>
      <trkpt lat="44.28734" lon="5.82164">
        <ele>559</ele>
        <time>2019-08-09T11:13:44Z</time>
      </trkpt>
      <trkpt lat="44.28739" lon="5.82166">
        <ele>559</ele>
        <time>2019-08-09T11:13:45Z</time>
      </trkpt>
      <trkpt lat="44.28743" lon="5.82169">
        <ele>559</ele>
        <time>2019-08-09T11:13:46Z</time>
      </trkpt>
      <trkpt lat="44.28748" lon="5.82171">
        <ele>559</ele>
        <time>2019-08-09T11:13:47Z</time>
      </trkpt>
      <trkpt lat="44.28753" lon="5.82174">
        <ele>560</ele>
        <time>2019-08-09T11:13:48Z</time>
      </trkpt>
      <trkpt lat="44.28758" lon="5.82177">
        <ele>560</ele>
        <time>2019-08-09T11:13:49Z</time>
      </trkpt>
      <trkpt lat="44.28763" lon="5.8218">
        <ele>560</ele>
        <time>2019-08-09T11:13:50Z</time>
      </trkpt>
      <trkpt lat="44.28767" lon="5.82183">
        <ele>560</ele>
        <time>2019-08-09T11:13:51Z</time>
      </trkpt>
      <trkpt lat="44.28772" lon="5.82186">
        <ele>561</ele>
        <time>2019-08-09T11:13:52Z</time>
      </trkpt>
      <trkpt lat="44.28777" lon="5.82189">
        <ele>561</ele>
        <time>2019-08-09T11:13:53Z</time>
      </trkpt>
      <trkpt lat="44.28782" lon="5.82192">
        <ele>561</ele>
        <time>2019-08-09T11:13:54Z</time>
      </trkpt>
      <trkpt lat="44.28786" lon="5.82195">
        <ele>561</ele>
        <time>2019-08-09T11:13:55Z</time>
      </trkpt>
      <trkpt lat="44.28791" lon="5.82198">
        <ele>561</ele>
        <time>2019-08-09T11:13:56Z</time>
      </trkpt>
      <trkpt lat="44.28796" lon="5.82201">
        <ele>561</ele>
        <time>2019-08-09T11:13:57Z</time>
      </trkpt>
      <trkpt lat="44.28801" lon="5.82204">
        <ele>561</ele>
        <time>2019-08-09T11:13:58Z</time>
      </trkpt>
      <trkpt lat="44.28806" lon="5.82208">
        <ele>561</ele>
        <time>2019-08-09T11:13:59Z</time>
      </trkpt>
      <trkpt lat="44.2881" lon="5.82211">
        <ele>562</ele>
        <time>2019-08-09T11:14:00Z</time>
      </trkpt>
      <trkpt lat="44.28814" lon="5.82215">
        <ele>562</ele>
        <time>2019-08-09T11:14:01Z</time>
      </trkpt>
      <trkpt lat="44.28819" lon="5.82219">
        <ele>562</ele>
        <time>2019-08-09T11:14:02Z</time>
      </trkpt>
      <trkpt lat="44.28823" lon="5.82223">
        <ele>562</ele>
        <time>2019-08-09T11:14:03Z</time>
      </trkpt>
      <trkpt lat="44.28827" lon="5.82227">
        <ele>562</ele>
        <time>2019-08-09T11:14:04Z</time>
      </trkpt>
      <trkpt lat="44.28831" lon="5.82231">
        <ele>562</ele>
        <time>2019-08-09T11:14:05Z</time>
      </trkpt>
      <trkpt lat="44.28836" lon="5.82235">
        <ele>562</ele>
        <time>2019-08-09T11:14:06Z</time>
      </trkpt>
      <trkpt lat="44.2884" lon="5.82239">
        <ele>562</ele>
        <time>2019-08-09T11:14:07Z</time>
      </trkpt>
      <trkpt lat="44.28845" lon="5.82243">
        <ele>562</ele>
        <time>2019-08-09T11:14:08Z</time>
      </trkpt>
      <trkpt lat="44.28849" lon="5.82246">
        <ele>562</ele>
        <time>2019-08-09T11:14:09Z</time>
      </trkpt>
      <trkpt lat="44.28854" lon="5.82251">
        <ele>562</ele>
        <time>2019-08-09T11:14:10Z</time>
      </trkpt>
      <trkpt lat="44.28858" lon="5.82255">
        <ele>562</ele>
        <time>2019-08-09T11:14:11Z</time>
      </trkpt>
      <trkpt lat="44.28862" lon="5.82259">
        <ele>562</ele>
        <time>2019-08-09T11:14:12Z</time>
      </trkpt>
      <trkpt lat="44.28866" lon="5.82263">
        <ele>562</ele>
        <time>2019-08-09T11:14:13Z</time>
      </trkpt>
      <trkpt lat="44.2887" lon="5.82267">
        <ele>562</ele>
        <time>2019-08-09T11:14:14Z</time>
      </trkpt>
      <trkpt lat="44.28874" lon="5.82271">
        <ele>562</ele>
        <time>2019-08-09T11:14:15Z</time>
      </trkpt>
      <trkpt lat="44.28878" lon="5.82274">
        <ele>562</ele>
        <time>2019-08-09T11:14:16Z</time>
      </trkpt>
      <trkpt lat="44.28883" lon="5.82277">
        <ele>562</ele>
        <time>2019-08-09T11:14:17Z</time>
      </trkpt>
      <trkpt lat="44.28888" lon="5.82279">
        <ele>562</ele>
        <time>2019-08-09T11:14:18Z</time>
      </trkpt>
      <trkpt lat="44.28893" lon="5.82282">
        <ele>562</ele>
        <time>2019-08-09T11:14:19Z</time>
      </trkpt>
      <trkpt lat="44.28898" lon="5.82284">
        <ele>562</ele>
        <time>2019-08-09T11:14:20Z</time>
      </trkpt>
      <trkpt lat="44.28903" lon="5.82287">
        <ele>562</ele>
        <time>2019-08-09T11:14:21Z</time>
      </trkpt>
      <trkpt lat="44.28909" lon="5.82289">
        <ele>562</ele>
        <time>2019-08-09T11:14:22Z</time>
      </trkpt>
      <trkpt lat="44.28915" lon="5.8229">
        <ele>562</ele>
        <time>2019-08-09T11:14:23Z</time>
      </trkpt>
      <trkpt lat="44.2892" lon="5.82291">
        <ele>562</ele>
        <time>2019-08-09T11:14:24Z</time>
      </trkpt>
      <trkpt lat="44.28927" lon="5.82292">
        <ele>562</ele>
        <time>2019-08-09T11:14:25Z</time>
      </trkpt>
      <trkpt lat="44.28933" lon="5.82292">
        <ele>562</ele>
        <time>2019-08-09T11:14:26Z</time>
      </trkpt>
      <trkpt lat="44.2894" lon="5.82292">
        <ele>562</ele>
        <time>2019-08-09T11:14:27Z</time>
      </trkpt>
      <trkpt lat="44.28947" lon="5.82291">
        <ele>562</ele>
        <time>2019-08-09T11:14:28Z</time>
      </trkpt>
      <trkpt lat="44.28953" lon="5.82291">
        <ele>562</ele>
        <time>2019-08-09T11:14:29Z</time>
      </trkpt>
      <trkpt lat="44.2896" lon="5.8229">
        <ele>562</ele>
        <time>2019-08-09T11:14:30Z</time>
      </trkpt>
      <trkpt lat="44.28968" lon="5.8229">
        <ele>562</ele>
        <time>2019-08-09T11:14:31Z</time>
      </trkpt>
      <trkpt lat="44.28976" lon="5.8229">
        <ele>562</ele>
        <time>2019-08-09T11:14:32Z</time>
      </trkpt>
      <trkpt lat="44.28983" lon="5.82289">
        <ele>562</ele>
        <time>2019-08-09T11:14:33Z</time>
      </trkpt>
      <trkpt lat="44.28991" lon="5.82289">
        <ele>562</ele>
        <time>2019-08-09T11:14:34Z</time>
      </trkpt>
      <trkpt lat="44.28999" lon="5.82288">
        <ele>562</ele>
        <time>2019-08-09T11:14:35Z</time>
      </trkpt>
      <trkpt lat="44.29007" lon="5.82287">
        <ele>562</ele>
        <time>2019-08-09T11:14:36Z</time>
      </trkpt>
      <trkpt lat="44.29015" lon="5.82287">
        <ele>562</ele>
        <time>2019-08-09T11:14:37Z</time>
      </trkpt>
      <trkpt lat="44.29023" lon="5.82285">
        <ele>562</ele>
        <time>2019-08-09T11:14:38Z</time>
      </trkpt>
      <trkpt lat="44.29031" lon="5.82284">
        <ele>562</ele>
        <time>2019-08-09T11:14:39Z</time>
      </trkpt>
      <trkpt lat="44.29039" lon="5.82283">
        <ele>562</ele>
        <time>2019-08-09T11:14:40Z</time>
      </trkpt>
      <trkpt lat="44.29047" lon="5.82282">
        <ele>562</ele>
        <time>2019-08-09T11:14:41Z</time>
      </trkpt>
      <trkpt lat="44.29055" lon="5.82282">
        <ele>562</ele>
        <time>2019-08-09T11:14:42Z</time>
      </trkpt>
      <trkpt lat="44.29064" lon="5.82281">
        <ele>562</ele>
        <time>2019-08-09T11:14:43Z</time>
      </trkpt>
      <trkpt lat="44.29072" lon="5.8228">
        <ele>562</ele>
        <time>2019-08-09T11:14:44Z</time>
      </trkpt>
      <trkpt lat="44.29081" lon="5.8228">
        <ele>562</ele>
        <time>2019-08-09T11:14:45Z</time>
      </trkpt>
      <trkpt lat="44.29089" lon="5.82279">
        <ele>562</ele>
        <time>2019-08-09T11:14:46Z</time>
      </trkpt>
      <trkpt lat="44.29097" lon="5.82278">
        <ele>562</ele>
        <time>2019-08-09T11:14:47Z</time>
      </trkpt>
      <trkpt lat="44.29105" lon="5.82277">
        <ele>562</ele>
        <time>2019-08-09T11:14:48Z</time>
      </trkpt>
      <trkpt lat="44.29113" lon="5.82276">
        <ele>562</ele>
        <time>2019-08-09T11:14:49Z</time>
      </trkpt>
      <trkpt lat="44.29121" lon="5.82275">
        <ele>562</ele>
        <time>2019-08-09T11:14:50Z</time>
      </trkpt>
      <trkpt lat="44.29129" lon="5.82274">
        <ele>562</ele>
        <time>2019-08-09T11:14:51Z</time>
      </trkpt>
      <trkpt lat="44.29136" lon="5.82274">
        <ele>562</ele>
        <time>2019-08-09T11:14:52Z</time>
      </trkpt>
      <trkpt lat="44.29144" lon="5.82273">
        <ele>562</ele>
        <time>2019-08-09T11:14:53Z</time>
      </trkpt>
      <trkpt lat="44.29152" lon="5.82272">
        <ele>562</ele>
        <time>2019-08-09T11:14:54Z</time>
      </trkpt>
      <trkpt lat="44.29159" lon="5.82271">
        <ele>562</ele>
        <time>2019-08-09T11:14:55Z</time>
      </trkpt>
      <trkpt lat="44.29166" lon="5.82271">
        <ele>562</ele>
        <time>2019-08-09T11:14:56Z</time>
      </trkpt>
      <trkpt lat="44.29174" lon="5.8227">
        <ele>562</ele>
        <time>2019-08-09T11:14:57Z</time>
      </trkpt>
      <trkpt lat="44.29181" lon="5.82269">
        <ele>562</ele>
        <time>2019-08-09T11:14:58Z</time>
      </trkpt>
      <trkpt lat="44.29188" lon="5.82268">
        <ele>562</ele>
        <time>2019-08-09T11:14:59Z</time>
      </trkpt>
      <trkpt lat="44.29195" lon="5.82268">
        <ele>562</ele>
        <time>2019-08-09T11:15:00Z</time>
      </trkpt>
      <trkpt lat="44.29203" lon="5.82267">
        <ele>562</ele>
        <time>2019-08-09T11:15:01Z</time>
      </trkpt>
      <trkpt lat="44.2921" lon="5.82266">
        <ele>562</ele>
        <time>2019-08-09T11:15:02Z</time>
      </trkpt>
      <trkpt lat="44.29217" lon="5.82265">
        <ele>562</ele>
        <time>2019-08-09T11:15:03Z</time>
      </trkpt>
      <trkpt lat="44.29224" lon="5.82265">
        <ele>562</ele>
        <time>2019-08-09T11:15:04Z</time>
      </trkpt>
      <trkpt lat="44.29231" lon="5.82264">
        <ele>562</ele>
        <time>2019-08-09T11:15:05Z</time>
      </trkpt>
      <trkpt lat="44.29238" lon="5.82262">
        <ele>562</ele>
        <time>2019-08-09T11:15:06Z</time>
      </trkpt>
      <trkpt lat="44.29245" lon="5.82261">
        <ele>562</ele>
        <time>2019-08-09T11:15:07Z</time>
      </trkpt>
      <trkpt lat="44.29252" lon="5.8226">
        <ele>562</ele>
        <time>2019-08-09T11:15:08Z</time>
      </trkpt>
      <trkpt lat="44.29259" lon="5.82258">
        <ele>562</ele>
        <time>2019-08-09T11:15:09Z</time>
      </trkpt>
      <trkpt lat="44.29266" lon="5.82256">
        <ele>562</ele>
        <time>2019-08-09T11:15:10Z</time>
      </trkpt>
      <trkpt lat="44.29272" lon="5.82254">
        <ele>562</ele>
        <time>2019-08-09T11:15:11Z</time>
      </trkpt>
      <trkpt lat="44.29279" lon="5.82251">
        <ele>562</ele>
        <time>2019-08-09T11:15:12Z</time>
      </trkpt>
      <trkpt lat="44.29285" lon="5.82248">
        <ele>562</ele>
        <time>2019-08-09T11:15:13Z</time>
      </trkpt>
      <trkpt lat="44.29291" lon="5.82245">
        <ele>562</ele>
        <time>2019-08-09T11:15:14Z</time>
      </trkpt>
      <trkpt lat="44.29298" lon="5.82243">
        <ele>562</ele>
        <time>2019-08-09T11:15:15Z</time>
      </trkpt>
      <trkpt lat="44.29304" lon="5.8224">
        <ele>562</ele>
        <time>2019-08-09T11:15:16Z</time>
      </trkpt>
      <trkpt lat="44.2931" lon="5.82237">
        <ele>562</ele>
        <time>2019-08-09T11:15:17Z</time>
      </trkpt>
      <trkpt lat="44.29316" lon="5.82234">
        <ele>562</ele>
        <time>2019-08-09T11:15:18Z</time>
      </trkpt>
      <trkpt lat="44.29323" lon="5.82231">
        <ele>562</ele>
        <time>2019-08-09T11:15:19Z</time>
      </trkpt>
      <trkpt lat="44.29329" lon="5.82229">
        <ele>562</ele>
        <time>2019-08-09T11:15:20Z</time>
      </trkpt>
      <trkpt lat="44.29335" lon="5.82225">
        <ele>562</ele>
        <time>2019-08-09T11:15:21Z</time>
      </trkpt>
      <trkpt lat="44.29341" lon="5.82222">
        <ele>562</ele>
        <time>2019-08-09T11:15:22Z</time>
      </trkpt>
      <trkpt lat="44.29348" lon="5.82219">
        <ele>562</ele>
        <time>2019-08-09T11:15:23Z</time>
      </trkpt>
      <trkpt lat="44.29354" lon="5.82216">
        <ele>562</ele>
        <time>2019-08-09T11:15:24Z</time>
      </trkpt>
      <trkpt lat="44.2936" lon="5.82212">
        <ele>562</ele>
        <time>2019-08-09T11:15:25Z</time>
      </trkpt>
      <trkpt lat="44.29366" lon="5.82208">
        <ele>562</ele>
        <time>2019-08-09T11:15:26Z</time>
      </trkpt>
      <trkpt lat="44.29372" lon="5.82203">
        <ele>562</ele>
        <time>2019-08-09T11:15:27Z</time>
      </trkpt>
      <trkpt lat="44.29378" lon="5.82198">
        <ele>562</ele>
        <time>2019-08-09T11:15:28Z</time>
      </trkpt>
      <trkpt lat="44.29384" lon="5.82193">
        <ele>562</ele>
        <time>2019-08-09T11:15:29Z</time>
      </trkpt>
      <trkpt lat="44.2939" lon="5.82187">
        <ele>562</ele>
        <time>2019-08-09T11:15:30Z</time>
      </trkpt>
      <trkpt lat="44.29396" lon="5.8218">
        <ele>562</ele>
        <time>2019-08-09T11:15:31Z</time>
      </trkpt>
      <trkpt lat="44.29401" lon="5.82173">
        <ele>562</ele>
        <time>2019-08-09T11:15:32Z</time>
      </trkpt>
      <trkpt lat="44.29408" lon="5.82166">
        <ele>562</ele>
        <time>2019-08-09T11:15:33Z</time>
      </trkpt>
      <trkpt lat="44.29414" lon="5.8216">
        <ele>562</ele>
        <time>2019-08-09T11:15:34Z</time>
      </trkpt>
      <trkpt lat="44.2942" lon="5.82153">
        <ele>562</ele>
        <time>2019-08-09T11:15:35Z</time>
      </trkpt>
      <trkpt lat="44.29426" lon="5.82146">
        <ele>562</ele>
        <time>2019-08-09T11:15:36Z</time>
      </trkpt>
      <trkpt lat="44.29432" lon="5.82139">
        <ele>561</ele>
        <time>2019-08-09T11:15:37Z</time>
      </trkpt>
      <trkpt lat="44.29438" lon="5.82132">
        <ele>561</ele>
        <time>2019-08-09T11:15:38Z</time>
      </trkpt>
      <trkpt lat="44.29444" lon="5.82126">
        <ele>561</ele>
        <time>2019-08-09T11:15:39Z</time>
      </trkpt>
      <trkpt lat="44.29451" lon="5.8212">
        <ele>561</ele>
        <time>2019-08-09T11:15:40Z</time>
      </trkpt>
      <trkpt lat="44.29457" lon="5.82115">
        <ele>561</ele>
        <time>2019-08-09T11:15:41Z</time>
      </trkpt>
      <trkpt lat="44.29464" lon="5.82111">
        <ele>561</ele>
        <time>2019-08-09T11:15:42Z</time>
      </trkpt>
      <trkpt lat="44.29472" lon="5.82107">
        <ele>561</ele>
        <time>2019-08-09T11:15:43Z</time>
      </trkpt>
      <trkpt lat="44.29479" lon="5.82105">
        <ele>561</ele>
        <time>2019-08-09T11:15:44Z</time>
      </trkpt>
      <trkpt lat="44.29486" lon="5.82103">
        <ele>561</ele>
        <time>2019-08-09T11:15:45Z</time>
      </trkpt>
      <trkpt lat="44.29494" lon="5.82102">
        <ele>561</ele>
        <time>2019-08-09T11:15:46Z</time>
      </trkpt>
      <trkpt lat="44.29501" lon="5.82101">
        <ele>561</ele>
        <time>2019-08-09T11:15:47Z</time>
      </trkpt>
      <trkpt lat="44.29508" lon="5.82101">
        <ele>561</ele>
        <time>2019-08-09T11:15:48Z</time>
      </trkpt>
      <trkpt lat="44.29515" lon="5.82102">
        <ele>561</ele>
        <time>2019-08-09T11:15:49Z</time>
      </trkpt>
      <trkpt lat="44.29522" lon="5.82103">
        <ele>561</ele>
        <time>2019-08-09T11:15:50Z</time>
      </trkpt>
      <trkpt lat="44.2953" lon="5.82104">
        <ele>560</ele>
        <time>2019-08-09T11:15:51Z</time>
      </trkpt>
      <trkpt lat="44.29537" lon="5.82105">
        <ele>560</ele>
        <time>2019-08-09T11:15:52Z</time>
      </trkpt>
      <trkpt lat="44.29544" lon="5.82106">
        <ele>560</ele>
        <time>2019-08-09T11:15:53Z</time>
      </trkpt>
      <trkpt lat="44.29551" lon="5.82107">
        <ele>560</ele>
        <time>2019-08-09T11:15:54Z</time>
      </trkpt>
      <trkpt lat="44.29559" lon="5.82109">
        <ele>560</ele>
        <time>2019-08-09T11:15:55Z</time>
      </trkpt>
      <trkpt lat="44.29566" lon="5.82112">
        <ele>560</ele>
        <time>2019-08-09T11:15:56Z</time>
      </trkpt>
      <trkpt lat="44.29573" lon="5.82114">
        <ele>560</ele>
        <time>2019-08-09T11:15:57Z</time>
      </trkpt>
      <trkpt lat="44.2958" lon="5.82117">
        <ele>560</ele>
        <time>2019-08-09T11:15:58Z</time>
      </trkpt>
      <trkpt lat="44.29588" lon="5.82121">
        <ele>560</ele>
        <time>2019-08-09T11:15:59Z</time>
      </trkpt>
      <trkpt lat="44.29595" lon="5.82124">
        <ele>560</ele>
        <time>2019-08-09T11:16:00Z</time>
      </trkpt>
      <trkpt lat="44.29602" lon="5.82128">
        <ele>560</ele>
        <time>2019-08-09T11:16:01Z</time>
      </trkpt>
      <trkpt lat="44.29609" lon="5.82133">
        <ele>560</ele>
        <time>2019-08-09T11:16:02Z</time>
      </trkpt>
      <trkpt lat="44.29617" lon="5.82137">
        <ele>560</ele>
        <time>2019-08-09T11:16:03Z</time>
      </trkpt>
      <trkpt lat="44.29624" lon="5.82143">
        <ele>560</ele>
        <time>2019-08-09T11:16:04Z</time>
      </trkpt>
      <trkpt lat="44.29631" lon="5.82148">
        <ele>560</ele>
        <time>2019-08-09T11:16:05Z</time>
      </trkpt>
      <trkpt lat="44.29638" lon="5.82154">
        <ele>560</ele>
        <time>2019-08-09T11:16:06Z</time>
      </trkpt>
      <trkpt lat="44.29644" lon="5.8216">
        <ele>560</ele>
        <time>2019-08-09T11:16:07Z</time>
      </trkpt>
      <trkpt lat="44.2965" lon="5.82167">
        <ele>560</ele>
        <time>2019-08-09T11:16:08Z</time>
      </trkpt>
      <trkpt lat="44.29657" lon="5.82173">
        <ele>560</ele>
        <time>2019-08-09T11:16:09Z</time>
      </trkpt>
      <trkpt lat="44.29663" lon="5.8218">
        <ele>560</ele>
        <time>2019-08-09T11:16:10Z</time>
      </trkpt>
      <trkpt lat="44.29668" lon="5.82186">
        <ele>560</ele>
        <time>2019-08-09T11:16:11Z</time>
      </trkpt>
      <trkpt lat="44.29674" lon="5.82193">
        <ele>560</ele>
        <time>2019-08-09T11:16:12Z</time>
      </trkpt>
      <trkpt lat="44.2968" lon="5.82199">
        <ele>560</ele>
        <time>2019-08-09T11:16:13Z</time>
      </trkpt>
      <trkpt lat="44.29686" lon="5.82205">
        <ele>560</ele>
        <time>2019-08-09T11:16:14Z</time>
      </trkpt>
      <trkpt lat="44.29692" lon="5.8221">
        <ele>560</ele>
        <time>2019-08-09T11:16:15Z</time>
      </trkpt>
      <trkpt lat="44.29698" lon="5.82215">
        <ele>560</ele>
        <time>2019-08-09T11:16:16Z</time>
      </trkpt>
      <trkpt lat="44.29705" lon="5.8222">
        <ele>560</ele>
        <time>2019-08-09T11:16:17Z</time>
      </trkpt>
      <trkpt lat="44.29711" lon="5.82224">
        <ele>560</ele>
        <time>2019-08-09T11:16:18Z</time>
      </trkpt>
      <trkpt lat="44.29717" lon="5.82228">
        <ele>560</ele>
        <time>2019-08-09T11:16:19Z</time>
      </trkpt>
      <trkpt lat="44.29723" lon="5.82232">
        <ele>560</ele>
        <time>2019-08-09T11:16:20Z</time>
      </trkpt>
      <trkpt lat="44.2973" lon="5.82236">
        <ele>560</ele>
        <time>2019-08-09T11:16:21Z</time>
      </trkpt>
      <trkpt lat="44.29736" lon="5.82239">
        <ele>560</ele>
        <time>2019-08-09T11:16:22Z</time>
      </trkpt>
      <trkpt lat="44.29743" lon="5.82242">
        <ele>560</ele>
        <time>2019-08-09T11:16:23Z</time>
      </trkpt>
      <trkpt lat="44.2975" lon="5.82244">
        <ele>560</ele>
        <time>2019-08-09T11:16:24Z</time>
      </trkpt>
      <trkpt lat="44.29757" lon="5.82247">
        <ele>560</ele>
        <time>2019-08-09T11:16:25Z</time>
      </trkpt>
      <trkpt lat="44.29763" lon="5.82249">
        <ele>560</ele>
        <time>2019-08-09T11:16:26Z</time>
      </trkpt>
      <trkpt lat="44.29771" lon="5.82251">
        <ele>560</ele>
        <time>2019-08-09T11:16:27Z</time>
      </trkpt>
      <trkpt lat="44.29778" lon="5.82252">
        <ele>560</ele>
        <time>2019-08-09T11:16:28Z</time>
      </trkpt>
      <trkpt lat="44.29785" lon="5.82254">
        <ele>560</ele>
        <time>2019-08-09T11:16:29Z</time>
      </trkpt>
      <trkpt lat="44.29793" lon="5.82255">
        <ele>560</ele>
        <time>2019-08-09T11:16:30Z</time>
      </trkpt>
      <trkpt lat="44.298" lon="5.82256">
        <ele>560</ele>
        <time>2019-08-09T11:16:31Z</time>
      </trkpt>
      <trkpt lat="44.29808" lon="5.82257">
        <ele>560</ele>
        <time>2019-08-09T11:16:32Z</time>
      </trkpt>
      <trkpt lat="44.29816" lon="5.82259">
        <ele>560</ele>
        <time>2019-08-09T11:16:33Z</time>
      </trkpt>
      <trkpt lat="44.29824" lon="5.8226">
        <ele>560</ele>
        <time>2019-08-09T11:16:34Z</time>
      </trkpt>
      <trkpt lat="44.29832" lon="5.82262">
        <ele>560</ele>
        <time>2019-08-09T11:16:35Z</time>
      </trkpt>
      <trkpt lat="44.2984" lon="5.82264">
        <ele>560</ele>
        <time>2019-08-09T11:16:36Z</time>
      </trkpt>
      <trkpt lat="44.29847" lon="5.82267">
        <ele>560</ele>
        <time>2019-08-09T11:16:37Z</time>
      </trkpt>
      <trkpt lat="44.29855" lon="5.8227">
        <ele>560</ele>
        <time>2019-08-09T11:16:38Z</time>
      </trkpt>
      <trkpt lat="44.29863" lon="5.82273">
        <ele>560</ele>
        <time>2019-08-09T11:16:39Z</time>
      </trkpt>
      <trkpt lat="44.2987" lon="5.82277">
        <ele>560</ele>
        <time>2019-08-09T11:16:40Z</time>
      </trkpt>
      <trkpt lat="44.29877" lon="5.82281">
        <ele>560</ele>
        <time>2019-08-09T11:16:41Z</time>
      </trkpt>
      <trkpt lat="44.29884" lon="5.82285">
        <ele>560</ele>
        <time>2019-08-09T11:16:42Z</time>
      </trkpt>
      <trkpt lat="44.29892" lon="5.82289">
        <ele>560</ele>
        <time>2019-08-09T11:16:43Z</time>
      </trkpt>
      <trkpt lat="44.29899" lon="5.82293">
        <ele>560</ele>
        <time>2019-08-09T11:16:44Z</time>
      </trkpt>
      <trkpt lat="44.29906" lon="5.82297">
        <ele>560</ele>
        <time>2019-08-09T11:16:45Z</time>
      </trkpt>
      <trkpt lat="44.29913" lon="5.82302">
        <ele>560</ele>
        <time>2019-08-09T11:16:46Z</time>
      </trkpt>
      <trkpt lat="44.29919" lon="5.82305">
        <ele>560</ele>
        <time>2019-08-09T11:16:47Z</time>
      </trkpt>
      <trkpt lat="44.29927" lon="5.82309">
        <ele>560</ele>
        <time>2019-08-09T11:16:48Z</time>
      </trkpt>
      <trkpt lat="44.29934" lon="5.82312">
        <ele>560</ele>
        <time>2019-08-09T11:16:49Z</time>
      </trkpt>
      <trkpt lat="44.29941" lon="5.82315">
        <ele>560</ele>
        <time>2019-08-09T11:16:50Z</time>
      </trkpt>
      <trkpt lat="44.29948" lon="5.82318">
        <ele>560</ele>
        <time>2019-08-09T11:16:51Z</time>
      </trkpt>
      <trkpt lat="44.29955" lon="5.82322">
        <ele>560</ele>
        <time>2019-08-09T11:16:52Z</time>
      </trkpt>
      <trkpt lat="44.29963" lon="5.82324">
        <ele>560</ele>
        <time>2019-08-09T11:16:53Z</time>
      </trkpt>
      <trkpt lat="44.2997" lon="5.82327">
        <ele>560</ele>
        <time>2019-08-09T11:16:54Z</time>
      </trkpt>
      <trkpt lat="44.29977" lon="5.82329">
        <ele>560</ele>
        <time>2019-08-09T11:16:55Z</time>
      </trkpt>
      <trkpt lat="44.29984" lon="5.82332">
        <ele>560</ele>
        <time>2019-08-09T11:16:56Z</time>
      </trkpt>
      <trkpt lat="44.29991" lon="5.82334">
        <ele>560</ele>
        <time>2019-08-09T11:16:57Z</time>
      </trkpt>
      <trkpt lat="44.29998" lon="5.82336">
        <ele>560</ele>
        <time>2019-08-09T11:16:58Z</time>
      </trkpt>
      <trkpt lat="44.30005" lon="5.82338">
        <ele>560</ele>
        <time>2019-08-09T11:16:59Z</time>
      </trkpt>
      <trkpt lat="44.30012" lon="5.8234">
        <ele>560</ele>
        <time>2019-08-09T11:17:00Z</time>
      </trkpt>
      <trkpt lat="44.30019" lon="5.82341">
        <ele>560</ele>
        <time>2019-08-09T11:17:01Z</time>
      </trkpt>
      <trkpt lat="44.30027" lon="5.82342">
        <ele>560</ele>
        <time>2019-08-09T11:17:02Z</time>
      </trkpt>
      <trkpt lat="44.30035" lon="5.82344">
        <ele>560</ele>
        <time>2019-08-09T11:17:03Z</time>
      </trkpt>
      <trkpt lat="44.30042" lon="5.82345">
        <ele>560</ele>
        <time>2019-08-09T11:17:04Z</time>
      </trkpt>
      <trkpt lat="44.3005" lon="5.82347">
        <ele>560</ele>
        <time>2019-08-09T11:17:05Z</time>
      </trkpt>
      <trkpt lat="44.30057" lon="5.82348">
        <ele>560</ele>
        <time>2019-08-09T11:17:06Z</time>
      </trkpt>
      <trkpt lat="44.30064" lon="5.82349">
        <ele>560</ele>
        <time>2019-08-09T11:17:07Z</time>
      </trkpt>
      <trkpt lat="44.30072" lon="5.8235">
        <ele>560</ele>
        <time>2019-08-09T11:17:08Z</time>
      </trkpt>
      <trkpt lat="44.30079" lon="5.8235">
        <ele>560</ele>
        <time>2019-08-09T11:17:09Z</time>
      </trkpt>
      <trkpt lat="44.30087" lon="5.8235">
        <ele>560</ele>
        <time>2019-08-09T11:17:10Z</time>
      </trkpt>
      <trkpt lat="44.30094" lon="5.82351">
        <ele>560</ele>
        <time>2019-08-09T11:17:11Z</time>
      </trkpt>
      <trkpt lat="44.30101" lon="5.82351">
        <ele>560</ele>
        <time>2019-08-09T11:17:12Z</time>
      </trkpt>
      <trkpt lat="44.30109" lon="5.82351">
        <ele>560</ele>
        <time>2019-08-09T11:17:13Z</time>
      </trkpt>
      <trkpt lat="44.30116" lon="5.82351">
        <ele>560</ele>
        <time>2019-08-09T11:17:14Z</time>
      </trkpt>
      <trkpt lat="44.30124" lon="5.82351">
        <ele>560</ele>
        <time>2019-08-09T11:17:15Z</time>
      </trkpt>
      <trkpt lat="44.30131" lon="5.82351">
        <ele>560</ele>
        <time>2019-08-09T11:17:16Z</time>
      </trkpt>
      <trkpt lat="44.30139" lon="5.82351">
        <ele>560</ele>
        <time>2019-08-09T11:17:17Z</time>
      </trkpt>
      <trkpt lat="44.30146" lon="5.82352">
        <ele>560</ele>
        <time>2019-08-09T11:17:18Z</time>
      </trkpt>
      <trkpt lat="44.30154" lon="5.82352">
        <ele>560</ele>
        <time>2019-08-09T11:17:19Z</time>
      </trkpt>
      <trkpt lat="44.30162" lon="5.82353">
        <ele>560</ele>
        <time>2019-08-09T11:17:20Z</time>
      </trkpt>
      <trkpt lat="44.30169" lon="5.82354">
        <ele>560</ele>
        <time>2019-08-09T11:17:21Z</time>
      </trkpt>
      <trkpt lat="44.30177" lon="5.82354">
        <ele>560</ele>
        <time>2019-08-09T11:17:22Z</time>
      </trkpt>
      <trkpt lat="44.30183" lon="5.82354">
        <ele>560</ele>
        <time>2019-08-09T11:17:23Z</time>
      </trkpt>
      <trkpt lat="44.30191" lon="5.82354">
        <ele>560</ele>
        <time>2019-08-09T11:17:24Z</time>
      </trkpt>
      <trkpt lat="44.30198" lon="5.82354">
        <ele>560</ele>
        <time>2019-08-09T11:17:25Z</time>
      </trkpt>
      <trkpt lat="44.30205" lon="5.82354">
        <ele>560</ele>
        <time>2019-08-09T11:17:26Z</time>
      </trkpt>
      <trkpt lat="44.30213" lon="5.82354">
        <ele>560</ele>
        <time>2019-08-09T11:17:27Z</time>
      </trkpt>
      <trkpt lat="44.3022" lon="5.82355">
        <ele>560</ele>
        <time>2019-08-09T11:17:28Z</time>
      </trkpt>
      <trkpt lat="44.30228" lon="5.82354">
        <ele>560</ele>
        <time>2019-08-09T11:17:29Z</time>
      </trkpt>
      <trkpt lat="44.30236" lon="5.82354">
        <ele>560</ele>
        <time>2019-08-09T11:17:30Z</time>
      </trkpt>
      <trkpt lat="44.30243" lon="5.82353">
        <ele>560</ele>
        <time>2019-08-09T11:17:31Z</time>
      </trkpt>
      <trkpt lat="44.30251" lon="5.82352">
        <ele>560</ele>
        <time>2019-08-09T11:17:32Z</time>
      </trkpt>
      <trkpt lat="44.30259" lon="5.82351">
        <ele>560</ele>
        <time>2019-08-09T11:17:33Z</time>
      </trkpt>
      <trkpt lat="44.30266" lon="5.8235">
        <ele>560</ele>
        <time>2019-08-09T11:17:34Z</time>
      </trkpt>
      <trkpt lat="44.30274" lon="5.82349">
        <ele>560</ele>
        <time>2019-08-09T11:17:35Z</time>
      </trkpt>
      <trkpt lat="44.30282" lon="5.82348">
        <ele>560</ele>
        <time>2019-08-09T11:17:36Z</time>
      </trkpt>
      <trkpt lat="44.30289" lon="5.82347">
        <ele>560</ele>
        <time>2019-08-09T11:17:37Z</time>
      </trkpt>
      <trkpt lat="44.30297" lon="5.82345">
        <ele>560</ele>
        <time>2019-08-09T11:17:38Z</time>
      </trkpt>
      <trkpt lat="44.30305" lon="5.82344">
        <ele>560</ele>
        <time>2019-08-09T11:17:39Z</time>
      </trkpt>
      <trkpt lat="44.30312" lon="5.82342">
        <ele>560</ele>
        <time>2019-08-09T11:17:40Z</time>
      </trkpt>
      <trkpt lat="44.3032" lon="5.82341">
        <ele>560</ele>
        <time>2019-08-09T11:17:41Z</time>
      </trkpt>
      <trkpt lat="44.30328" lon="5.82339">
        <ele>560</ele>
        <time>2019-08-09T11:17:42Z</time>
      </trkpt>
      <trkpt lat="44.30336" lon="5.82338">
        <ele>560</ele>
        <time>2019-08-09T11:17:43Z</time>
      </trkpt>
      <trkpt lat="44.30344" lon="5.82336">
        <ele>560</ele>
        <time>2019-08-09T11:17:44Z</time>
      </trkpt>
      <trkpt lat="44.30352" lon="5.82334">
        <ele>560</ele>
        <time>2019-08-09T11:17:45Z</time>
      </trkpt>
      <trkpt lat="44.30359" lon="5.82333">
        <ele>560</ele>
        <time>2019-08-09T11:17:46Z</time>
      </trkpt>
      <trkpt lat="44.30367" lon="5.82331">
        <ele>560</ele>
        <time>2019-08-09T11:17:47Z</time>
      </trkpt>
      <trkpt lat="44.30375" lon="5.82329">
        <ele>560</ele>
        <time>2019-08-09T11:17:48Z</time>
      </trkpt>
      <trkpt lat="44.30384" lon="5.82328">
        <ele>560</ele>
        <time>2019-08-09T11:17:49Z</time>
      </trkpt>
      <trkpt lat="44.30391" lon="5.82326">
        <ele>560</ele>
        <time>2019-08-09T11:17:50Z</time>
      </trkpt>
      <trkpt lat="44.30399" lon="5.82325">
        <ele>560</ele>
        <time>2019-08-09T11:17:51Z</time>
      </trkpt>
      <trkpt lat="44.30408" lon="5.82324">
        <ele>560</ele>
        <time>2019-08-09T11:17:52Z</time>
      </trkpt>
      <trkpt lat="44.30416" lon="5.82324">
        <ele>560</ele>
        <time>2019-08-09T11:17:53Z</time>
      </trkpt>
      <trkpt lat="44.30424" lon="5.82323">
        <ele>560</ele>
        <time>2019-08-09T11:17:54Z</time>
      </trkpt>
      <trkpt lat="44.30431" lon="5.82323">
        <ele>560</ele>
        <time>2019-08-09T11:17:55Z</time>
      </trkpt>
      <trkpt lat="44.30439" lon="5.82323">
        <ele>560</ele>
        <time>2019-08-09T11:17:56Z</time>
      </trkpt>
      <trkpt lat="44.30447" lon="5.82322">
        <ele>560</ele>
        <time>2019-08-09T11:17:57Z</time>
      </trkpt>
      <trkpt lat="44.30455" lon="5.82322">
        <ele>560</ele>
        <time>2019-08-09T11:17:58Z</time>
      </trkpt>
      <trkpt lat="44.30462" lon="5.82322">
        <ele>560</ele>
        <time>2019-08-09T11:17:59Z</time>
      </trkpt>
      <trkpt lat="44.3047" lon="5.82322">
        <ele>560</ele>
        <time>2019-08-09T11:18:00Z</time>
      </trkpt>
      <trkpt lat="44.30478" lon="5.82322">
        <ele>560</ele>
        <time>2019-08-09T11:18:01Z</time>
      </trkpt>
      <trkpt lat="44.30486" lon="5.82321">
        <ele>560</ele>
        <time>2019-08-09T11:18:02Z</time>
      </trkpt>
      <trkpt lat="44.30494" lon="5.82321">
        <ele>560</ele>
        <time>2019-08-09T11:18:03Z</time>
      </trkpt>
      <trkpt lat="44.30502" lon="5.8232">
        <ele>560</ele>
        <time>2019-08-09T11:18:04Z</time>
      </trkpt>
      <trkpt lat="44.3051" lon="5.82319">
        <ele>560</ele>
        <time>2019-08-09T11:18:05Z</time>
      </trkpt>
      <trkpt lat="44.30518" lon="5.82319">
        <ele>560</ele>
        <time>2019-08-09T11:18:06Z</time>
      </trkpt>
      <trkpt lat="44.30526" lon="5.82318">
        <ele>560</ele>
        <time>2019-08-09T11:18:07Z</time>
      </trkpt>
      <trkpt lat="44.30534" lon="5.82317">
        <ele>560</ele>
        <time>2019-08-09T11:18:08Z</time>
      </trkpt>
      <trkpt lat="44.30542" lon="5.82315">
        <ele>560</ele>
        <time>2019-08-09T11:18:09Z</time>
      </trkpt>
      <trkpt lat="44.30549" lon="5.82314">
        <ele>560</ele>
        <time>2019-08-09T11:18:10Z</time>
      </trkpt>
      <trkpt lat="44.30557" lon="5.82313">
        <ele>560</ele>
        <time>2019-08-09T11:18:11Z</time>
      </trkpt>
      <trkpt lat="44.30565" lon="5.82312">
        <ele>560</ele>
        <time>2019-08-09T11:18:12Z</time>
      </trkpt>
      <trkpt lat="44.30572" lon="5.8231">
        <ele>560</ele>
        <time>2019-08-09T11:18:13Z</time>
      </trkpt>
      <trkpt lat="44.3058" lon="5.82309">
        <ele>560</ele>
        <time>2019-08-09T11:18:14Z</time>
      </trkpt>
      <trkpt lat="44.30588" lon="5.82308">
        <ele>560</ele>
        <time>2019-08-09T11:18:15Z</time>
      </trkpt>
      <trkpt lat="44.30595" lon="5.82307">
        <ele>560</ele>
        <time>2019-08-09T11:18:16Z</time>
      </trkpt>
      <trkpt lat="44.30603" lon="5.82306">
        <ele>560</ele>
        <time>2019-08-09T11:18:17Z</time>
      </trkpt>
      <trkpt lat="44.30611" lon="5.82305">
        <ele>560</ele>
        <time>2019-08-09T11:18:18Z</time>
      </trkpt>
      <trkpt lat="44.30618" lon="5.82303">
        <ele>560</ele>
        <time>2019-08-09T11:18:19Z</time>
      </trkpt>
      <trkpt lat="44.30625" lon="5.82301">
        <ele>560</ele>
        <time>2019-08-09T11:18:20Z</time>
      </trkpt>
      <trkpt lat="44.30632" lon="5.82298">
        <ele>560</ele>
        <time>2019-08-09T11:18:21Z</time>
      </trkpt>
      <trkpt lat="44.30638" lon="5.82295">
        <ele>560</ele>
        <time>2019-08-09T11:18:22Z</time>
      </trkpt>
      <trkpt lat="44.30645" lon="5.82291">
        <ele>560</ele>
        <time>2019-08-09T11:18:23Z</time>
      </trkpt>
      <trkpt lat="44.30651" lon="5.82287">
        <ele>560</ele>
        <time>2019-08-09T11:18:24Z</time>
      </trkpt>
      <trkpt lat="44.30658" lon="5.82282">
        <ele>560</ele>
        <time>2019-08-09T11:18:25Z</time>
      </trkpt>
      <trkpt lat="44.30664" lon="5.82277">
        <ele>560</ele>
        <time>2019-08-09T11:18:26Z</time>
      </trkpt>
      <trkpt lat="44.3067" lon="5.82271">
        <ele>560</ele>
        <time>2019-08-09T11:18:27Z</time>
      </trkpt>
      <trkpt lat="44.30676" lon="5.82266">
        <ele>560</ele>
        <time>2019-08-09T11:18:28Z</time>
      </trkpt>
      <trkpt lat="44.30681" lon="5.8226">
        <ele>560</ele>
        <time>2019-08-09T11:18:29Z</time>
      </trkpt>
      <trkpt lat="44.30686" lon="5.82253">
        <ele>560</ele>
        <time>2019-08-09T11:18:30Z</time>
      </trkpt>
      <trkpt lat="44.30691" lon="5.82246">
        <ele>560</ele>
        <time>2019-08-09T11:18:31Z</time>
      </trkpt>
      <trkpt lat="44.30696" lon="5.82239">
        <ele>560</ele>
        <time>2019-08-09T11:18:32Z</time>
      </trkpt>
      <trkpt lat="44.30701" lon="5.82232">
        <ele>560</ele>
        <time>2019-08-09T11:18:33Z</time>
      </trkpt>
      <trkpt lat="44.30705" lon="5.82224">
        <ele>560</ele>
        <time>2019-08-09T11:18:34Z</time>
      </trkpt>
      <trkpt lat="44.3071" lon="5.82217">
        <ele>560</ele>
        <time>2019-08-09T11:18:35Z</time>
      </trkpt>
      <trkpt lat="44.30714" lon="5.82208">
        <ele>560</ele>
        <time>2019-08-09T11:18:36Z</time>
      </trkpt>
      <trkpt lat="44.30717" lon="5.822">
        <ele>560</ele>
        <time>2019-08-09T11:18:37Z</time>
      </trkpt>
      <trkpt lat="44.30721" lon="5.82191">
        <ele>560</ele>
        <time>2019-08-09T11:18:38Z</time>
      </trkpt>
      <trkpt lat="44.30725" lon="5.82182">
        <ele>560</ele>
        <time>2019-08-09T11:18:39Z</time>
      </trkpt>
      <trkpt lat="44.30728" lon="5.82172">
        <ele>560</ele>
        <time>2019-08-09T11:18:40Z</time>
      </trkpt>
      <trkpt lat="44.30731" lon="5.82163">
        <ele>560</ele>
        <time>2019-08-09T11:18:41Z</time>
      </trkpt>
      <trkpt lat="44.30735" lon="5.82153">
        <ele>560</ele>
        <time>2019-08-09T11:18:42Z</time>
      </trkpt>
      <trkpt lat="44.30738" lon="5.82143">
        <ele>560</ele>
        <time>2019-08-09T11:18:43Z</time>
      </trkpt>
      <trkpt lat="44.30741" lon="5.82133">
        <ele>560</ele>
        <time>2019-08-09T11:18:44Z</time>
      </trkpt>
      <trkpt lat="44.30745" lon="5.82124">
        <ele>560</ele>
        <time>2019-08-09T11:18:45Z</time>
      </trkpt>
      <trkpt lat="44.30749" lon="5.82114">
        <ele>560</ele>
        <time>2019-08-09T11:18:46Z</time>
      </trkpt>
      <trkpt lat="44.30753" lon="5.82105">
        <ele>560</ele>
        <time>2019-08-09T11:18:47Z</time>
      </trkpt>
      <trkpt lat="44.30759" lon="5.82097">
        <ele>560</ele>
        <time>2019-08-09T11:18:48Z</time>
      </trkpt>
      <trkpt lat="44.30766" lon="5.8209">
        <ele>560</ele>
        <time>2019-08-09T11:18:49Z</time>
      </trkpt>
      <trkpt lat="44.30773" lon="5.82084">
        <ele>560</ele>
        <time>2019-08-09T11:18:50Z</time>
      </trkpt>
      <trkpt lat="44.30781" lon="5.8208">
        <ele>560</ele>
        <time>2019-08-09T11:18:51Z</time>
      </trkpt>
      <trkpt lat="44.30789" lon="5.82076">
        <ele>560</ele>
        <time>2019-08-09T11:18:52Z</time>
      </trkpt>
      <trkpt lat="44.30797" lon="5.82073">
        <ele>560</ele>
        <time>2019-08-09T11:18:53Z</time>
      </trkpt>
      <trkpt lat="44.30805" lon="5.82071">
        <ele>560</ele>
        <time>2019-08-09T11:18:54Z</time>
      </trkpt>
      <trkpt lat="44.30813" lon="5.82069">
        <ele>560</ele>
        <time>2019-08-09T11:18:55Z</time>
      </trkpt>
      <trkpt lat="44.3082" lon="5.82067">
        <ele>560</ele>
        <time>2019-08-09T11:18:56Z</time>
      </trkpt>
      <trkpt lat="44.30828" lon="5.82065">
        <ele>560</ele>
        <time>2019-08-09T11:18:57Z</time>
      </trkpt>
      <trkpt lat="44.30835" lon="5.82063">
        <ele>560</ele>
        <time>2019-08-09T11:18:58Z</time>
      </trkpt>
      <trkpt lat="44.30843" lon="5.8206">
        <ele>560</ele>
        <time>2019-08-09T11:18:59Z</time>
      </trkpt>
      <trkpt lat="44.3085" lon="5.82058">
        <ele>560</ele>
        <time>2019-08-09T11:19:00Z</time>
      </trkpt>
      <trkpt lat="44.30857" lon="5.82056">
        <ele>560</ele>
        <time>2019-08-09T11:19:01Z</time>
      </trkpt>
      <trkpt lat="44.30865" lon="5.82054">
        <ele>560</ele>
        <time>2019-08-09T11:19:02Z</time>
      </trkpt>
      <trkpt lat="44.30873" lon="5.82051">
        <ele>560</ele>
        <time>2019-08-09T11:19:03Z</time>
      </trkpt>
      <trkpt lat="44.3088" lon="5.82048">
        <ele>560</ele>
        <time>2019-08-09T11:19:04Z</time>
      </trkpt>
      <trkpt lat="44.30888" lon="5.82045">
        <ele>560</ele>
        <time>2019-08-09T11:19:05Z</time>
      </trkpt>
      <trkpt lat="44.30896" lon="5.82042">
        <ele>560</ele>
        <time>2019-08-09T11:19:06Z</time>
      </trkpt>
      <trkpt lat="44.30904" lon="5.82039">
        <ele>560</ele>
        <time>2019-08-09T11:19:07Z</time>
      </trkpt>
      <trkpt lat="44.30912" lon="5.82037">
        <ele>560</ele>
        <time>2019-08-09T11:19:08Z</time>
      </trkpt>
      <trkpt lat="44.30921" lon="5.82037">
        <ele>560</ele>
        <time>2019-08-09T11:19:09Z</time>
      </trkpt>
      <trkpt lat="44.30929" lon="5.82037">
        <ele>560</ele>
        <time>2019-08-09T11:19:10Z</time>
      </trkpt>
      <trkpt lat="44.30938" lon="5.82039">
        <ele>560</ele>
        <time>2019-08-09T11:19:11Z</time>
      </trkpt>
      <trkpt lat="44.30947" lon="5.82041">
        <ele>560</ele>
        <time>2019-08-09T11:19:12Z</time>
      </trkpt>
      <trkpt lat="44.30956" lon="5.82045">
        <ele>560</ele>
        <time>2019-08-09T11:19:13Z</time>
      </trkpt>
      <trkpt lat="44.30964" lon="5.82049">
        <ele>560</ele>
        <time>2019-08-09T11:19:14Z</time>
      </trkpt>
      <trkpt lat="44.30971" lon="5.82054">
        <ele>560</ele>
        <time>2019-08-09T11:19:15Z</time>
      </trkpt>
      <trkpt lat="44.30979" lon="5.82059">
        <ele>560</ele>
        <time>2019-08-09T11:19:16Z</time>
      </trkpt>
      <trkpt lat="44.30986" lon="5.82065">
        <ele>560</ele>
        <time>2019-08-09T11:19:17Z</time>
      </trkpt>
      <trkpt lat="44.30993" lon="5.82071">
        <ele>560</ele>
        <time>2019-08-09T11:19:18Z</time>
      </trkpt>
      <trkpt lat="44.31" lon="5.82078">
        <ele>560</ele>
        <time>2019-08-09T11:19:19Z</time>
      </trkpt>
      <trkpt lat="44.31006" lon="5.82085">
        <ele>560</ele>
        <time>2019-08-09T11:19:20Z</time>
      </trkpt>
      <trkpt lat="44.31012" lon="5.82093">
        <ele>560</ele>
        <time>2019-08-09T11:19:21Z</time>
      </trkpt>
      <trkpt lat="44.31017" lon="5.821">
        <ele>560</ele>
        <time>2019-08-09T11:19:22Z</time>
      </trkpt>
      <trkpt lat="44.31023" lon="5.82108">
        <ele>560</ele>
        <time>2019-08-09T11:19:23Z</time>
      </trkpt>
      <trkpt lat="44.31029" lon="5.82115">
        <ele>560</ele>
        <time>2019-08-09T11:19:24Z</time>
      </trkpt>
      <trkpt lat="44.31034" lon="5.82123">
        <ele>560</ele>
        <time>2019-08-09T11:19:25Z</time>
      </trkpt>
      <trkpt lat="44.3104" lon="5.8213">
        <ele>559</ele>
        <time>2019-08-09T11:19:26Z</time>
      </trkpt>
      <trkpt lat="44.31045" lon="5.82137">
        <ele>559</ele>
        <time>2019-08-09T11:19:27Z</time>
      </trkpt>
      <trkpt lat="44.3105" lon="5.82144">
        <ele>559</ele>
        <time>2019-08-09T11:19:28Z</time>
      </trkpt>
      <trkpt lat="44.31055" lon="5.82151">
        <ele>559</ele>
        <time>2019-08-09T11:19:29Z</time>
      </trkpt>
      <trkpt lat="44.3106" lon="5.82158">
        <ele>559</ele>
        <time>2019-08-09T11:19:30Z</time>
      </trkpt>
      <trkpt lat="44.31065" lon="5.82164">
        <ele>559</ele>
        <time>2019-08-09T11:19:31Z</time>
      </trkpt>
      <trkpt lat="44.3107" lon="5.8217">
        <ele>559</ele>
        <time>2019-08-09T11:19:32Z</time>
      </trkpt>
      <trkpt lat="44.31074" lon="5.82176">
        <ele>559</ele>
        <time>2019-08-09T11:19:33Z</time>
      </trkpt>
      <trkpt lat="44.3108" lon="5.82183">
        <ele>559</ele>
        <time>2019-08-09T11:19:34Z</time>
      </trkpt>
      <trkpt lat="44.31084" lon="5.8219">
        <ele>559</ele>
        <time>2019-08-09T11:19:35Z</time>
      </trkpt>
      <trkpt lat="44.31089" lon="5.82197">
        <ele>559</ele>
        <time>2019-08-09T11:19:36Z</time>
      </trkpt>
      <trkpt lat="44.31093" lon="5.82203">
        <ele>559</ele>
        <time>2019-08-09T11:19:37Z</time>
      </trkpt>
      <trkpt lat="44.31099" lon="5.82211">
        <ele>559</ele>
        <time>2019-08-09T11:19:38Z</time>
      </trkpt>
      <trkpt lat="44.31104" lon="5.82219">
        <ele>558</ele>
        <time>2019-08-09T11:19:39Z</time>
      </trkpt>
      <trkpt lat="44.3111" lon="5.82226">
        <ele>558</ele>
        <time>2019-08-09T11:19:40Z</time>
      </trkpt>
      <trkpt lat="44.31115" lon="5.82233">
        <ele>558</ele>
        <time>2019-08-09T11:19:41Z</time>
      </trkpt>
      <trkpt lat="44.3112" lon="5.82239">
        <ele>557</ele>
        <time>2019-08-09T11:19:42Z</time>
      </trkpt>
      <trkpt lat="44.31124" lon="5.82246">
        <ele>557</ele>
        <time>2019-08-09T11:19:43Z</time>
      </trkpt>
      <trkpt lat="44.31129" lon="5.82251">
        <ele>557</ele>
        <time>2019-08-09T11:19:44Z</time>
      </trkpt>
      <trkpt lat="44.31133" lon="5.82257">
        <ele>557</ele>
        <time>2019-08-09T11:19:45Z</time>
      </trkpt>
      <trkpt lat="44.31138" lon="5.82262">
        <ele>557</ele>
        <time>2019-08-09T11:19:46Z</time>
      </trkpt>
      <trkpt lat="44.31142" lon="5.82267">
        <ele>557</ele>
        <time>2019-08-09T11:19:47Z</time>
      </trkpt>
      <trkpt lat="44.31146" lon="5.82272">
        <ele>557</ele>
        <time>2019-08-09T11:19:48Z</time>
      </trkpt>
      <trkpt lat="44.31149" lon="5.82278">
        <ele>557</ele>
        <time>2019-08-09T11:19:49Z</time>
      </trkpt>
      <trkpt lat="44.31151" lon="5.82285">
        <ele>557</ele>
        <time>2019-08-09T11:19:50Z</time>
      </trkpt>
      <trkpt lat="44.31151" lon="5.82293">
        <ele>557</ele>
        <time>2019-08-09T11:19:51Z</time>
      </trkpt>
      <trkpt lat="44.31149" lon="5.823">
        <ele>557</ele>
        <time>2019-08-09T11:19:52Z</time>
      </trkpt>
      <trkpt lat="44.31147" lon="5.82305">
        <ele>557</ele>
        <time>2019-08-09T11:19:53Z</time>
      </trkpt>
      <trkpt lat="44.31143" lon="5.82311">
        <ele>557</ele>
        <time>2019-08-09T11:19:54Z</time>
      </trkpt>
      <trkpt lat="44.3114" lon="5.82316">
        <ele>557</ele>
        <time>2019-08-09T11:19:55Z</time>
      </trkpt>
      <trkpt lat="44.31136" lon="5.82322">
        <ele>556</ele>
        <time>2019-08-09T11:19:56Z</time>
      </trkpt>
      <trkpt lat="44.31132" lon="5.82327">
        <ele>556</ele>
        <time>2019-08-09T11:19:57Z</time>
      </trkpt>
      <trkpt lat="44.31129" lon="5.82333">
        <ele>556</ele>
        <time>2019-08-09T11:19:58Z</time>
      </trkpt>
      <trkpt lat="44.31125" lon="5.82339">
        <ele>556</ele>
        <time>2019-08-09T11:19:59Z</time>
      </trkpt>
      <trkpt lat="44.31122" lon="5.82345">
        <ele>556</ele>
        <time>2019-08-09T11:20:00Z</time>
      </trkpt>
      <trkpt lat="44.31118" lon="5.8235">
        <ele>556</ele>
        <time>2019-08-09T11:20:01Z</time>
      </trkpt>
      <trkpt lat="44.31115" lon="5.82356">
        <ele>556</ele>
        <time>2019-08-09T11:20:02Z</time>
      </trkpt>
      <trkpt lat="44.31112" lon="5.82361">
        <ele>556</ele>
        <time>2019-08-09T11:20:03Z</time>
      </trkpt>
      <trkpt lat="44.3111" lon="5.82368">
        <ele>556</ele>
        <time>2019-08-09T11:20:04Z</time>
      </trkpt>
      <trkpt lat="44.31109" lon="5.82375">
        <ele>556</ele>
        <time>2019-08-09T11:20:05Z</time>
      </trkpt>
      <trkpt lat="44.31109" lon="5.82382">
        <ele>556</ele>
        <time>2019-08-09T11:20:06Z</time>
      </trkpt>
      <trkpt lat="44.31109" lon="5.8239">
        <ele>556</ele>
        <time>2019-08-09T11:20:07Z</time>
      </trkpt>
      <trkpt lat="44.31108" lon="5.82398">
        <ele>556</ele>
        <time>2019-08-09T11:20:08Z</time>
      </trkpt>
      <trkpt lat="44.31106" lon="5.82405">
        <ele>555</ele>
        <time>2019-08-09T11:20:09Z</time>
      </trkpt>
      <trkpt lat="44.31105" lon="5.82412">
        <ele>555</ele>
        <time>2019-08-09T11:20:10Z</time>
      </trkpt>
      <trkpt lat="44.31102" lon="5.82418">
        <ele>555</ele>
        <time>2019-08-09T11:20:11Z</time>
      </trkpt>
      <trkpt lat="44.311" lon="5.82424">
        <ele>555</ele>
        <time>2019-08-09T11:20:12Z</time>
      </trkpt>
      <trkpt lat="44.31098" lon="5.8243">
        <ele>555</ele>
        <time>2019-08-09T11:20:13Z</time>
      </trkpt>
      <trkpt lat="44.31096" lon="5.82436">
        <ele>555</ele>
        <time>2019-08-09T11:20:14Z</time>
      </trkpt>
      <trkpt lat="44.31092" lon="5.82442">
        <ele>555</ele>
        <time>2019-08-09T11:20:15Z</time>
      </trkpt>
      <trkpt lat="44.31089" lon="5.82449">
        <ele>555</ele>
        <time>2019-08-09T11:20:16Z</time>
      </trkpt>
      <trkpt lat="44.31086" lon="5.82456">
        <ele>555</ele>
        <time>2019-08-09T11:20:17Z</time>
      </trkpt>
      <trkpt lat="44.31084" lon="5.82463">
        <ele>555</ele>
        <time>2019-08-09T11:20:18Z</time>
      </trkpt>
      <trkpt lat="44.31081" lon="5.82471">
        <ele>555</ele>
        <time>2019-08-09T11:20:19Z</time>
      </trkpt>
      <trkpt lat="44.31078" lon="5.82478">
        <ele>555</ele>
        <time>2019-08-09T11:20:20Z</time>
      </trkpt>
      <trkpt lat="44.31076" lon="5.82487">
        <ele>555</ele>
        <time>2019-08-09T11:20:21Z</time>
      </trkpt>
      <trkpt lat="44.31075" lon="5.82495">
        <ele>555</ele>
        <time>2019-08-09T11:20:22Z</time>
      </trkpt>
      <trkpt lat="44.31075" lon="5.82505">
        <ele>555</ele>
        <time>2019-08-09T11:20:23Z</time>
      </trkpt>
      <trkpt lat="44.31077" lon="5.82513">
        <ele>555</ele>
        <time>2019-08-09T11:20:24Z</time>
      </trkpt>
      <trkpt lat="44.31081" lon="5.8252">
        <ele>555</ele>
        <time>2019-08-09T11:20:25Z</time>
      </trkpt>
      <trkpt lat="44.31085" lon="5.82526">
        <ele>555</ele>
        <time>2019-08-09T11:20:26Z</time>
      </trkpt>
      <trkpt lat="44.31089" lon="5.82531">
        <ele>555</ele>
        <time>2019-08-09T11:20:27Z</time>
      </trkpt>
      <trkpt lat="44.31094" lon="5.82536">
        <ele>555</ele>
        <time>2019-08-09T11:20:28Z</time>
      </trkpt>
      <trkpt lat="44.311" lon="5.8254">
        <ele>555</ele>
        <time>2019-08-09T11:20:29Z</time>
      </trkpt>
      <trkpt lat="44.31106" lon="5.82543">
        <ele>555</ele>
        <time>2019-08-09T11:20:30Z</time>
      </trkpt>
      <trkpt lat="44.31112" lon="5.82547">
        <ele>555</ele>
        <time>2019-08-09T11:20:31Z</time>
      </trkpt>
      <trkpt lat="44.31117" lon="5.8255">
        <ele>555</ele>
        <time>2019-08-09T11:20:32Z</time>
      </trkpt>
      <trkpt lat="44.31123" lon="5.82553">
        <ele>555</ele>
        <time>2019-08-09T11:20:33Z</time>
      </trkpt>
      <trkpt lat="44.31129" lon="5.82556">
        <ele>555</ele>
        <time>2019-08-09T11:20:34Z</time>
      </trkpt>
      <trkpt lat="44.31135" lon="5.82558">
        <ele>555</ele>
        <time>2019-08-09T11:20:35Z</time>
      </trkpt>
      <trkpt lat="44.3114" lon="5.82561">
        <ele>555</ele>
        <time>2019-08-09T11:20:36Z</time>
      </trkpt>
      <trkpt lat="44.31146" lon="5.82564">
        <ele>555</ele>
        <time>2019-08-09T11:20:37Z</time>
      </trkpt>
      <trkpt lat="44.3115" lon="5.82567">
        <ele>555</ele>
        <time>2019-08-09T11:20:38Z</time>
      </trkpt>
      <trkpt lat="44.31156" lon="5.8257">
        <ele>555</ele>
        <time>2019-08-09T11:20:39Z</time>
      </trkpt>
      <trkpt lat="44.31161" lon="5.82572">
        <ele>555</ele>
        <time>2019-08-09T11:20:40Z</time>
      </trkpt>
      <trkpt lat="44.31167" lon="5.82575">
        <ele>555</ele>
        <time>2019-08-09T11:20:41Z</time>
      </trkpt>
      <trkpt lat="44.31172" lon="5.82578">
        <ele>555</ele>
        <time>2019-08-09T11:20:42Z</time>
      </trkpt>
      <trkpt lat="44.31178" lon="5.82581">
        <ele>555</ele>
        <time>2019-08-09T11:20:43Z</time>
      </trkpt>
      <trkpt lat="44.31183" lon="5.82584">
        <ele>555</ele>
        <time>2019-08-09T11:20:44Z</time>
      </trkpt>
      <trkpt lat="44.31188" lon="5.82588">
        <ele>555</ele>
        <time>2019-08-09T11:20:45Z</time>
      </trkpt>
      <trkpt lat="44.31193" lon="5.82591">
        <ele>555</ele>
        <time>2019-08-09T11:20:46Z</time>
      </trkpt>
      <trkpt lat="44.31199" lon="5.82594">
        <ele>555</ele>
        <time>2019-08-09T11:20:47Z</time>
      </trkpt>
      <trkpt lat="44.31204" lon="5.82597">
        <ele>555</ele>
        <time>2019-08-09T11:20:48Z</time>
      </trkpt>
      <trkpt lat="44.31209" lon="5.826">
        <ele>555</ele>
        <time>2019-08-09T11:20:49Z</time>
      </trkpt>
      <trkpt lat="44.31214" lon="5.82603">
        <ele>555</ele>
        <time>2019-08-09T11:20:50Z</time>
      </trkpt>
      <trkpt lat="44.31219" lon="5.82606">
        <ele>555</ele>
        <time>2019-08-09T11:20:51Z</time>
      </trkpt>
      <trkpt lat="44.31224" lon="5.82608">
        <ele>555</ele>
        <time>2019-08-09T11:20:52Z</time>
      </trkpt>
      <trkpt lat="44.31229" lon="5.82611">
        <ele>555</ele>
        <time>2019-08-09T11:20:53Z</time>
      </trkpt>
      <trkpt lat="44.31234" lon="5.82613">
        <ele>555</ele>
        <time>2019-08-09T11:20:54Z</time>
      </trkpt>
      <trkpt lat="44.31239" lon="5.82615">
        <ele>555</ele>
        <time>2019-08-09T11:20:55Z</time>
      </trkpt>
      <trkpt lat="44.31243" lon="5.82618">
        <ele>556</ele>
        <time>2019-08-09T11:20:56Z</time>
      </trkpt>
      <trkpt lat="44.31248" lon="5.8262">
        <ele>556</ele>
        <time>2019-08-09T11:20:57Z</time>
      </trkpt>
      <trkpt lat="44.31253" lon="5.82623">
        <ele>557</ele>
        <time>2019-08-09T11:20:58Z</time>
      </trkpt>
      <trkpt lat="44.31257" lon="5.82625">
        <ele>558</ele>
        <time>2019-08-09T11:20:59Z</time>
      </trkpt>
      <trkpt lat="44.31262" lon="5.82627">
        <ele>558</ele>
        <time>2019-08-09T11:21:00Z</time>
      </trkpt>
      <trkpt lat="44.31266" lon="5.8263">
        <ele>558</ele>
        <time>2019-08-09T11:21:01Z</time>
      </trkpt>
      <trkpt lat="44.31271" lon="5.82632">
        <ele>559</ele>
        <time>2019-08-09T11:21:02Z</time>
      </trkpt>
      <trkpt lat="44.31275" lon="5.82635">
        <ele>559</ele>
        <time>2019-08-09T11:21:03Z</time>
      </trkpt>
      <trkpt lat="44.31279" lon="5.82638">
        <ele>560</ele>
        <time>2019-08-09T11:21:04Z</time>
      </trkpt>
      <trkpt lat="44.31284" lon="5.8264">
        <ele>560</ele>
        <time>2019-08-09T11:21:05Z</time>
      </trkpt>
      <trkpt lat="44.31287" lon="5.82643">
        <ele>561</ele>
        <time>2019-08-09T11:21:06Z</time>
      </trkpt>
      <trkpt lat="44.31291" lon="5.82646">
        <ele>561</ele>
        <time>2019-08-09T11:21:07Z</time>
      </trkpt>
      <trkpt lat="44.31295" lon="5.82649">
        <ele>562</ele>
        <time>2019-08-09T11:21:08Z</time>
      </trkpt>
      <trkpt lat="44.31299" lon="5.82652">
        <ele>562</ele>
        <time>2019-08-09T11:21:09Z</time>
      </trkpt>
      <trkpt lat="44.31302" lon="5.82655">
        <ele>563</ele>
        <time>2019-08-09T11:21:10Z</time>
      </trkpt>
      <trkpt lat="44.31305" lon="5.82658">
        <ele>564</ele>
        <time>2019-08-09T11:21:11Z</time>
      </trkpt>
      <trkpt lat="44.31309" lon="5.82661">
        <ele>564</ele>
        <time>2019-08-09T11:21:12Z</time>
      </trkpt>
      <trkpt lat="44.31311" lon="5.82663">
        <ele>565</ele>
        <time>2019-08-09T11:21:13Z</time>
      </trkpt>
      <trkpt lat="44.31315" lon="5.82665">
        <ele>565</ele>
        <time>2019-08-09T11:21:14Z</time>
      </trkpt>
      <trkpt lat="44.31318" lon="5.82666">
        <ele>566</ele>
        <time>2019-08-09T11:21:15Z</time>
      </trkpt>
      <trkpt lat="44.31321" lon="5.82667">
        <ele>567</ele>
        <time>2019-08-09T11:21:16Z</time>
      </trkpt>
      <trkpt lat="44.31323" lon="5.82669">
        <ele>568</ele>
        <time>2019-08-09T11:21:17Z</time>
      </trkpt>
      <trkpt lat="44.31325" lon="5.8267">
        <ele>569</ele>
        <time>2019-08-09T11:21:18Z</time>
      </trkpt>
      <trkpt lat="44.31328" lon="5.82671">
        <ele>569</ele>
        <time>2019-08-09T11:21:19Z</time>
      </trkpt>
      <trkpt lat="44.3133" lon="5.82673">
        <ele>569</ele>
        <time>2019-08-09T11:21:20Z</time>
      </trkpt>
      <trkpt lat="44.31333" lon="5.82675">
        <ele>569</ele>
        <time>2019-08-09T11:21:21Z</time>
      </trkpt>
      <trkpt lat="44.31335" lon="5.82677">
        <ele>569</ele>
        <time>2019-08-09T11:21:22Z</time>
      </trkpt>
      <trkpt lat="44.31336" lon="5.82679">
        <ele>569</ele>
        <time>2019-08-09T11:21:23Z</time>
      </trkpt>
      <trkpt lat="44.31338" lon="5.8268">
        <ele>569</ele>
        <time>2019-08-09T11:21:24Z</time>
      </trkpt>
      <trkpt lat="44.31339" lon="5.8268">
        <ele>569</ele>
        <time>2019-08-09T11:21:25Z</time>
      </trkpt>
      <trkpt lat="44.3134" lon="5.82681">
        <ele>569</ele>
        <time>2019-08-09T11:21:29Z</time>
      </trkpt>
      <trkpt lat="44.31342" lon="5.82681">
        <ele>569</ele>
        <time>2019-08-09T11:21:35Z</time>
      </trkpt>
      <trkpt lat="44.31341" lon="5.8268">
        <ele>569</ele>
        <time>2019-08-09T11:21:42Z</time>
      </trkpt>
      <trkpt lat="44.31339" lon="5.82681">
        <ele>569</ele>
        <time>2019-08-09T11:21:56Z</time>
      </trkpt>
      <trkpt lat="44.31338" lon="5.8268">
        <ele>570</ele>
        <time>2019-08-09T11:22:09Z</time>
      </trkpt>
      <trkpt lat="44.3134" lon="5.8268">
        <ele>570</ele>
        <time>2019-08-09T11:22:20Z</time>
      </trkpt>
      <trkpt lat="44.31341" lon="5.8268">
        <ele>570</ele>
        <time>2019-08-09T11:22:30Z</time>
      </trkpt>
      <trkpt lat="44.31342" lon="5.82679">
        <ele>570</ele>
        <time>2019-08-09T11:22:39Z</time>
      </trkpt>
      <trkpt lat="44.31343" lon="5.82678">
        <ele>570</ele>
        <time>2019-08-09T11:22:53Z</time>
      </trkpt>
      <trkpt lat="44.31344" lon="5.82678">
        <ele>570</ele>
        <time>2019-08-09T11:22:54Z</time>
      </trkpt>
      <trkpt lat="44.31345" lon="5.82677">
        <ele>570</ele>
        <time>2019-08-09T11:22:55Z</time>
      </trkpt>
      <trkpt lat="44.31347" lon="5.82678">
        <ele>570</ele>
        <time>2019-08-09T11:22:56Z</time>
      </trkpt>
      <trkpt lat="44.31348" lon="5.82678">
        <ele>570</ele>
        <time>2019-08-09T11:22:57Z</time>
      </trkpt>
      <trkpt lat="44.31349" lon="5.82678">
        <ele>570</ele>
        <time>2019-08-09T11:22:58Z</time>
      </trkpt>
      <trkpt lat="44.3135" lon="5.82679">
        <ele>570</ele>
        <time>2019-08-09T11:22:59Z</time>
      </trkpt>
      <trkpt lat="44.31352" lon="5.82681">
        <ele>570</ele>
        <time>2019-08-09T11:23:00Z</time>
      </trkpt>
      <trkpt lat="44.31353" lon="5.82683">
        <ele>570</ele>
        <time>2019-08-09T11:23:01Z</time>
      </trkpt>
      <trkpt lat="44.31355" lon="5.82686">
        <ele>570</ele>
        <time>2019-08-09T11:23:02Z</time>
      </trkpt>
      <trkpt lat="44.31357" lon="5.82689">
        <ele>570</ele>
        <time>2019-08-09T11:23:03Z</time>
      </trkpt>
      <trkpt lat="44.31358" lon="5.82692">
        <ele>570</ele>
        <time>2019-08-09T11:23:04Z</time>
      </trkpt>
      <trkpt lat="44.31361" lon="5.82695">
        <ele>570</ele>
        <time>2019-08-09T11:23:05Z</time>
      </trkpt>
      <trkpt lat="44.31363" lon="5.82699">
        <ele>570</ele>
        <time>2019-08-09T11:23:06Z</time>
      </trkpt>
      <trkpt lat="44.31366" lon="5.82703">
        <ele>570</ele>
        <time>2019-08-09T11:23:07Z</time>
      </trkpt>
      <trkpt lat="44.3137" lon="5.82707">
        <ele>570</ele>
        <time>2019-08-09T11:23:08Z</time>
      </trkpt>
      <trkpt lat="44.31373" lon="5.82712">
        <ele>570</ele>
        <time>2019-08-09T11:23:09Z</time>
      </trkpt>
      <trkpt lat="44.31375" lon="5.82718">
        <ele>570</ele>
        <time>2019-08-09T11:23:10Z</time>
      </trkpt>
      <trkpt lat="44.31376" lon="5.82724">
        <ele>570</ele>
        <time>2019-08-09T11:23:11Z</time>
      </trkpt>
      <trkpt lat="44.31377" lon="5.8273">
        <ele>570</ele>
        <time>2019-08-09T11:23:12Z</time>
      </trkpt>
      <trkpt lat="44.31377" lon="5.82736">
        <ele>570</ele>
        <time>2019-08-09T11:23:13Z</time>
      </trkpt>
      <trkpt lat="44.31377" lon="5.82743">
        <ele>570</ele>
        <time>2019-08-09T11:23:14Z</time>
      </trkpt>
      <trkpt lat="44.31377" lon="5.82749">
        <ele>570</ele>
        <time>2019-08-09T11:23:15Z</time>
      </trkpt>
      <trkpt lat="44.31377" lon="5.82755">
        <ele>570</ele>
        <time>2019-08-09T11:23:16Z</time>
      </trkpt>
      <trkpt lat="44.31377" lon="5.82762">
        <ele>570</ele>
        <time>2019-08-09T11:23:17Z</time>
      </trkpt>
      <trkpt lat="44.31378" lon="5.82769">
        <ele>569</ele>
        <time>2019-08-09T11:23:18Z</time>
      </trkpt>
      <trkpt lat="44.31379" lon="5.82775">
        <ele>569</ele>
        <time>2019-08-09T11:23:19Z</time>
      </trkpt>
      <trkpt lat="44.31379" lon="5.82782">
        <ele>569</ele>
        <time>2019-08-09T11:23:20Z</time>
      </trkpt>
      <trkpt lat="44.31379" lon="5.82788">
        <ele>569</ele>
        <time>2019-08-09T11:23:21Z</time>
      </trkpt>
      <trkpt lat="44.31378" lon="5.82795">
        <ele>569</ele>
        <time>2019-08-09T11:23:22Z</time>
      </trkpt>
      <trkpt lat="44.31378" lon="5.82801">
        <ele>569</ele>
        <time>2019-08-09T11:23:23Z</time>
      </trkpt>
      <trkpt lat="44.31377" lon="5.82807">
        <ele>569</ele>
        <time>2019-08-09T11:23:24Z</time>
      </trkpt>
      <trkpt lat="44.31377" lon="5.82814">
        <ele>569</ele>
        <time>2019-08-09T11:23:25Z</time>
      </trkpt>
      <trkpt lat="44.31376" lon="5.8282">
        <ele>569</ele>
        <time>2019-08-09T11:23:26Z</time>
      </trkpt>
      <trkpt lat="44.31376" lon="5.82827">
        <ele>569</ele>
        <time>2019-08-09T11:23:27Z</time>
      </trkpt>
      <trkpt lat="44.31375" lon="5.82833">
        <ele>569</ele>
        <time>2019-08-09T11:23:28Z</time>
      </trkpt>
      <trkpt lat="44.31374" lon="5.8284">
        <ele>569</ele>
        <time>2019-08-09T11:23:29Z</time>
      </trkpt>
      <trkpt lat="44.31374" lon="5.82846">
        <ele>569</ele>
        <time>2019-08-09T11:23:30Z</time>
      </trkpt>
      <trkpt lat="44.31373" lon="5.82853">
        <ele>569</ele>
        <time>2019-08-09T11:23:31Z</time>
      </trkpt>
      <trkpt lat="44.31373" lon="5.82859">
        <ele>569</ele>
        <time>2019-08-09T11:23:32Z</time>
      </trkpt>
      <trkpt lat="44.31372" lon="5.82866">
        <ele>569</ele>
        <time>2019-08-09T11:23:33Z</time>
      </trkpt>
      <trkpt lat="44.31371" lon="5.82872">
        <ele>569</ele>
        <time>2019-08-09T11:23:34Z</time>
      </trkpt>
      <trkpt lat="44.31371" lon="5.82878">
        <ele>569</ele>
        <time>2019-08-09T11:23:35Z</time>
      </trkpt>
      <trkpt lat="44.3137" lon="5.82884">
        <ele>569</ele>
        <time>2019-08-09T11:23:36Z</time>
      </trkpt>
      <trkpt lat="44.3137" lon="5.8289">
        <ele>569</ele>
        <time>2019-08-09T11:23:37Z</time>
      </trkpt>
      <trkpt lat="44.31369" lon="5.82897">
        <ele>569</ele>
        <time>2019-08-09T11:23:38Z</time>
      </trkpt>
      <trkpt lat="44.31369" lon="5.82903">
        <ele>569</ele>
        <time>2019-08-09T11:23:39Z</time>
      </trkpt>
      <trkpt lat="44.31369" lon="5.82909">
        <ele>569</ele>
        <time>2019-08-09T11:23:40Z</time>
      </trkpt>
      <trkpt lat="44.31368" lon="5.82915">
        <ele>569</ele>
        <time>2019-08-09T11:23:41Z</time>
      </trkpt>
      <trkpt lat="44.31367" lon="5.82921">
        <ele>568</ele>
        <time>2019-08-09T11:23:42Z</time>
      </trkpt>
      <trkpt lat="44.31366" lon="5.82928">
        <ele>568</ele>
        <time>2019-08-09T11:23:43Z</time>
      </trkpt>
      <trkpt lat="44.31365" lon="5.82934">
        <ele>568</ele>
        <time>2019-08-09T11:23:44Z</time>
      </trkpt>
      <trkpt lat="44.31364" lon="5.8294">
        <ele>568</ele>
        <time>2019-08-09T11:23:45Z</time>
      </trkpt>
      <trkpt lat="44.31363" lon="5.82947">
        <ele>568</ele>
        <time>2019-08-09T11:23:46Z</time>
      </trkpt>
      <trkpt lat="44.31362" lon="5.82953">
        <ele>568</ele>
        <time>2019-08-09T11:23:47Z</time>
      </trkpt>
      <trkpt lat="44.31361" lon="5.82959">
        <ele>568</ele>
        <time>2019-08-09T11:23:48Z</time>
      </trkpt>
      <trkpt lat="44.31361" lon="5.82965">
        <ele>568</ele>
        <time>2019-08-09T11:23:49Z</time>
      </trkpt>
      <trkpt lat="44.3136" lon="5.82971">
        <ele>568</ele>
        <time>2019-08-09T11:23:50Z</time>
      </trkpt>
      <trkpt lat="44.31359" lon="5.82976">
        <ele>568</ele>
        <time>2019-08-09T11:23:51Z</time>
      </trkpt>
      <trkpt lat="44.31359" lon="5.82983">
        <ele>568</ele>
        <time>2019-08-09T11:23:52Z</time>
      </trkpt>
      <trkpt lat="44.31358" lon="5.82989">
        <ele>568</ele>
        <time>2019-08-09T11:23:53Z</time>
      </trkpt>
      <trkpt lat="44.31357" lon="5.82995">
        <ele>568</ele>
        <time>2019-08-09T11:23:54Z</time>
      </trkpt>
      <trkpt lat="44.31357" lon="5.83">
        <ele>568</ele>
        <time>2019-08-09T11:23:55Z</time>
      </trkpt>
      <trkpt lat="44.31356" lon="5.83006">
        <ele>568</ele>
        <time>2019-08-09T11:23:56Z</time>
      </trkpt>
      <trkpt lat="44.31356" lon="5.83011">
        <ele>568</ele>
        <time>2019-08-09T11:23:57Z</time>
      </trkpt>
      <trkpt lat="44.31355" lon="5.83017">
        <ele>568</ele>
        <time>2019-08-09T11:23:58Z</time>
      </trkpt>
      <trkpt lat="44.31354" lon="5.83022">
        <ele>568</ele>
        <time>2019-08-09T11:23:59Z</time>
      </trkpt>
      <trkpt lat="44.31352" lon="5.83027">
        <ele>568</ele>
        <time>2019-08-09T11:24:00Z</time>
      </trkpt>
      <trkpt lat="44.31351" lon="5.83033">
        <ele>568</ele>
        <time>2019-08-09T11:24:01Z</time>
      </trkpt>
      <trkpt lat="44.3135" lon="5.83039">
        <ele>568</ele>
        <time>2019-08-09T11:24:02Z</time>
      </trkpt>
      <trkpt lat="44.31348" lon="5.83045">
        <ele>568</ele>
        <time>2019-08-09T11:24:03Z</time>
      </trkpt>
      <trkpt lat="44.31347" lon="5.83051">
        <ele>568</ele>
        <time>2019-08-09T11:24:04Z</time>
      </trkpt>
      <trkpt lat="44.31346" lon="5.83057">
        <ele>568</ele>
        <time>2019-08-09T11:24:05Z</time>
      </trkpt>
      <trkpt lat="44.31345" lon="5.83064">
        <ele>568</ele>
        <time>2019-08-09T11:24:06Z</time>
      </trkpt>
      <trkpt lat="44.31344" lon="5.8307">
        <ele>568</ele>
        <time>2019-08-09T11:24:07Z</time>
      </trkpt>
      <trkpt lat="44.31344" lon="5.83075">
        <ele>568</ele>
        <time>2019-08-09T11:24:08Z</time>
      </trkpt>
      <trkpt lat="44.31344" lon="5.83081">
        <ele>568</ele>
        <time>2019-08-09T11:24:09Z</time>
      </trkpt>
      <trkpt lat="44.31344" lon="5.83086">
        <ele>568</ele>
        <time>2019-08-09T11:24:10Z</time>
      </trkpt>
      <trkpt lat="44.31345" lon="5.83091">
        <ele>568</ele>
        <time>2019-08-09T11:24:11Z</time>
      </trkpt>
      <trkpt lat="44.31346" lon="5.83096">
        <ele>568</ele>
        <time>2019-08-09T11:24:12Z</time>
      </trkpt>
      <trkpt lat="44.31348" lon="5.831">
        <ele>568</ele>
        <time>2019-08-09T11:24:13Z</time>
      </trkpt>
      <trkpt lat="44.31351" lon="5.83101">
        <ele>568</ele>
        <time>2019-08-09T11:24:14Z</time>
      </trkpt>
      <trkpt lat="44.31353" lon="5.831">
        <ele>568</ele>
        <time>2019-08-09T11:24:15Z</time>
      </trkpt>
      <trkpt lat="44.31356" lon="5.83098">
        <ele>568</ele>
        <time>2019-08-09T11:24:16Z</time>
      </trkpt>
      <trkpt lat="44.31358" lon="5.83095">
        <ele>568</ele>
        <time>2019-08-09T11:24:17Z</time>
      </trkpt>
      <trkpt lat="44.31359" lon="5.83091">
        <ele>568</ele>
        <time>2019-08-09T11:24:18Z</time>
      </trkpt>
      <trkpt lat="44.31361" lon="5.83086">
        <ele>568</ele>
        <time>2019-08-09T11:24:19Z</time>
      </trkpt>
      <trkpt lat="44.31362" lon="5.83081">
        <ele>568</ele>
        <time>2019-08-09T11:24:20Z</time>
      </trkpt>
      <trkpt lat="44.31364" lon="5.83076">
        <ele>568</ele>
        <time>2019-08-09T11:24:21Z</time>
      </trkpt>
      <trkpt lat="44.31365" lon="5.83072">
        <ele>568</ele>
        <time>2019-08-09T11:24:22Z</time>
      </trkpt>
      <trkpt lat="44.31367" lon="5.83067">
        <ele>568</ele>
        <time>2019-08-09T11:24:23Z</time>
      </trkpt>
      <trkpt lat="44.31369" lon="5.83062">
        <ele>568</ele>
        <time>2019-08-09T11:24:24Z</time>
      </trkpt>
      <trkpt lat="44.31371" lon="5.83058">
        <ele>568</ele>
        <time>2019-08-09T11:24:25Z</time>
      </trkpt>
      <trkpt lat="44.31374" lon="5.83053">
        <ele>568</ele>
        <time>2019-08-09T11:24:26Z</time>
      </trkpt>
      <trkpt lat="44.31377" lon="5.83048">
        <ele>568</ele>
        <time>2019-08-09T11:24:27Z</time>
      </trkpt>
      <trkpt lat="44.3138" lon="5.83043">
        <ele>568</ele>
        <time>2019-08-09T11:24:28Z</time>
      </trkpt>
      <trkpt lat="44.31384" lon="5.83039">
        <ele>568</ele>
        <time>2019-08-09T11:24:29Z</time>
      </trkpt>
      <trkpt lat="44.31387" lon="5.83034">
        <ele>568</ele>
        <time>2019-08-09T11:24:30Z</time>
      </trkpt>
      <trkpt lat="44.31392" lon="5.83028">
        <ele>568</ele>
        <time>2019-08-09T11:24:31Z</time>
      </trkpt>
      <trkpt lat="44.31395" lon="5.83023">
        <ele>568</ele>
        <time>2019-08-09T11:24:32Z</time>
      </trkpt>
      <trkpt lat="44.31399" lon="5.83017">
        <ele>568</ele>
        <time>2019-08-09T11:24:33Z</time>
      </trkpt>
      <trkpt lat="44.31403" lon="5.83011">
        <ele>568</ele>
        <time>2019-08-09T11:24:34Z</time>
      </trkpt>
      <trkpt lat="44.31408" lon="5.83006">
        <ele>568</ele>
        <time>2019-08-09T11:24:35Z</time>
      </trkpt>
      <trkpt lat="44.31411" lon="5.83">
        <ele>568</ele>
        <time>2019-08-09T11:24:36Z</time>
      </trkpt>
      <trkpt lat="44.31415" lon="5.82995">
        <ele>568</ele>
        <time>2019-08-09T11:24:37Z</time>
      </trkpt>
      <trkpt lat="44.31419" lon="5.82989">
        <ele>568</ele>
        <time>2019-08-09T11:24:38Z</time>
      </trkpt>
      <trkpt lat="44.31422" lon="5.82983">
        <ele>568</ele>
        <time>2019-08-09T11:24:39Z</time>
      </trkpt>
      <trkpt lat="44.31426" lon="5.82978">
        <ele>568</ele>
        <time>2019-08-09T11:24:40Z</time>
      </trkpt>
      <trkpt lat="44.31429" lon="5.82973">
        <ele>568</ele>
        <time>2019-08-09T11:24:41Z</time>
      </trkpt>
      <trkpt lat="44.31433" lon="5.82968">
        <ele>568</ele>
        <time>2019-08-09T11:24:42Z</time>
      </trkpt>
      <trkpt lat="44.31436" lon="5.82963">
        <ele>568</ele>
        <time>2019-08-09T11:24:43Z</time>
      </trkpt>
      <trkpt lat="44.3144" lon="5.82958">
        <ele>568</ele>
        <time>2019-08-09T11:24:44Z</time>
      </trkpt>
      <trkpt lat="44.31444" lon="5.82953">
        <ele>568</ele>
        <time>2019-08-09T11:24:45Z</time>
      </trkpt>
      <trkpt lat="44.31447" lon="5.82948">
        <ele>568</ele>
        <time>2019-08-09T11:24:46Z</time>
      </trkpt>
      <trkpt lat="44.31451" lon="5.82943">
        <ele>568</ele>
        <time>2019-08-09T11:24:47Z</time>
      </trkpt>
      <trkpt lat="44.31454" lon="5.82938">
        <ele>568</ele>
        <time>2019-08-09T11:24:48Z</time>
      </trkpt>
      <trkpt lat="44.31457" lon="5.82933">
        <ele>568</ele>
        <time>2019-08-09T11:24:49Z</time>
      </trkpt>
      <trkpt lat="44.31461" lon="5.82929">
        <ele>568</ele>
        <time>2019-08-09T11:24:50Z</time>
      </trkpt>
      <trkpt lat="44.31464" lon="5.82925">
        <ele>568</ele>
        <time>2019-08-09T11:24:51Z</time>
      </trkpt>
      <trkpt lat="44.31467" lon="5.8292">
        <ele>568</ele>
        <time>2019-08-09T11:24:52Z</time>
      </trkpt>
      <trkpt lat="44.3147" lon="5.82916">
        <ele>568</ele>
        <time>2019-08-09T11:24:53Z</time>
      </trkpt>
      <trkpt lat="44.31473" lon="5.82912">
        <ele>568</ele>
        <time>2019-08-09T11:24:54Z</time>
      </trkpt>
      <trkpt lat="44.31476" lon="5.82907">
        <ele>568</ele>
        <time>2019-08-09T11:24:55Z</time>
      </trkpt>
      <trkpt lat="44.31479" lon="5.82902">
        <ele>568</ele>
        <time>2019-08-09T11:24:56Z</time>
      </trkpt>
      <trkpt lat="44.31481" lon="5.82898">
        <ele>568</ele>
        <time>2019-08-09T11:24:57Z</time>
      </trkpt>
      <trkpt lat="44.31484" lon="5.82893">
        <ele>568</ele>
        <time>2019-08-09T11:24:58Z</time>
      </trkpt>
      <trkpt lat="44.31487" lon="5.82889">
        <ele>568</ele>
        <time>2019-08-09T11:24:59Z</time>
      </trkpt>
      <trkpt lat="44.3149" lon="5.82884">
        <ele>568</ele>
        <time>2019-08-09T11:25:00Z</time>
      </trkpt>
      <trkpt lat="44.31494" lon="5.82879">
        <ele>568</ele>
        <time>2019-08-09T11:25:01Z</time>
      </trkpt>
      <trkpt lat="44.31498" lon="5.82874">
        <ele>568</ele>
        <time>2019-08-09T11:25:02Z</time>
      </trkpt>
      <trkpt lat="44.31502" lon="5.82873">
        <ele>568</ele>
        <time>2019-08-09T11:25:03Z</time>
      </trkpt>
      <trkpt lat="44.31507" lon="5.82873">
        <ele>568</ele>
        <time>2019-08-09T11:25:04Z</time>
      </trkpt>
      <trkpt lat="44.31511" lon="5.82875">
        <ele>568</ele>
        <time>2019-08-09T11:25:05Z</time>
      </trkpt>
      <trkpt lat="44.31514" lon="5.82878">
        <ele>568</ele>
        <time>2019-08-09T11:25:06Z</time>
      </trkpt>
      <trkpt lat="44.31517" lon="5.82882">
        <ele>568</ele>
        <time>2019-08-09T11:25:07Z</time>
      </trkpt>
      <trkpt lat="44.3152" lon="5.82885">
        <ele>568</ele>
        <time>2019-08-09T11:25:08Z</time>
      </trkpt>
      <trkpt lat="44.31524" lon="5.82888">
        <ele>568</ele>
        <time>2019-08-09T11:25:09Z</time>
      </trkpt>
      <trkpt lat="44.31527" lon="5.82892">
        <ele>568</ele>
        <time>2019-08-09T11:25:10Z</time>
      </trkpt>
      <trkpt lat="44.3153" lon="5.82895">
        <ele>568</ele>
        <time>2019-08-09T11:25:11Z</time>
      </trkpt>
      <trkpt lat="44.31533" lon="5.82898">
        <ele>568</ele>
        <time>2019-08-09T11:25:12Z</time>
      </trkpt>
      <trkpt lat="44.31536" lon="5.829">
        <ele>568</ele>
        <time>2019-08-09T11:25:13Z</time>
      </trkpt>
      <trkpt lat="44.31539" lon="5.82903">
        <ele>568</ele>
        <time>2019-08-09T11:25:14Z</time>
      </trkpt>
      <trkpt lat="44.31541" lon="5.82906">
        <ele>568</ele>
        <time>2019-08-09T11:25:15Z</time>
      </trkpt>
      <trkpt lat="44.31545" lon="5.82909">
        <ele>568</ele>
        <time>2019-08-09T11:25:16Z</time>
      </trkpt>
      <trkpt lat="44.31548" lon="5.82911">
        <ele>568</ele>
        <time>2019-08-09T11:25:17Z</time>
      </trkpt>
      <trkpt lat="44.31551" lon="5.82914">
        <ele>568</ele>
        <time>2019-08-09T11:25:18Z</time>
      </trkpt>
      <trkpt lat="44.31554" lon="5.82916">
        <ele>568</ele>
        <time>2019-08-09T11:25:19Z</time>
      </trkpt>
      <trkpt lat="44.31557" lon="5.82919">
        <ele>568</ele>
        <time>2019-08-09T11:25:20Z</time>
      </trkpt>
      <trkpt lat="44.3156" lon="5.82921">
        <ele>568</ele>
        <time>2019-08-09T11:25:21Z</time>
      </trkpt>
      <trkpt lat="44.31563" lon="5.82923">
        <ele>568</ele>
        <time>2019-08-09T11:25:22Z</time>
      </trkpt>
      <trkpt lat="44.31566" lon="5.82924">
        <ele>568</ele>
        <time>2019-08-09T11:25:23Z</time>
      </trkpt>
      <trkpt lat="44.31569" lon="5.82926">
        <ele>568</ele>
        <time>2019-08-09T11:25:24Z</time>
      </trkpt>
      <trkpt lat="44.31572" lon="5.82928">
        <ele>568</ele>
        <time>2019-08-09T11:25:25Z</time>
      </trkpt>
      <trkpt lat="44.31575" lon="5.82929">
        <ele>568</ele>
        <time>2019-08-09T11:25:26Z</time>
      </trkpt>
      <trkpt lat="44.31579" lon="5.82931">
        <ele>568</ele>
        <time>2019-08-09T11:25:27Z</time>
      </trkpt>
      <trkpt lat="44.31582" lon="5.82933">
        <ele>568</ele>
        <time>2019-08-09T11:25:28Z</time>
      </trkpt>
      <trkpt lat="44.31585" lon="5.82935">
        <ele>568</ele>
        <time>2019-08-09T11:25:29Z</time>
      </trkpt>
      <trkpt lat="44.31588" lon="5.82938">
        <ele>568</ele>
        <time>2019-08-09T11:25:30Z</time>
      </trkpt>
      <trkpt lat="44.3159" lon="5.8294">
        <ele>568</ele>
        <time>2019-08-09T11:25:31Z</time>
      </trkpt>
      <trkpt lat="44.31592" lon="5.82941">
        <ele>568</ele>
        <time>2019-08-09T11:25:32Z</time>
      </trkpt>
      <trkpt lat="44.31595" lon="5.82943">
        <ele>569</ele>
        <time>2019-08-09T11:25:33Z</time>
      </trkpt>
      <trkpt lat="44.31597" lon="5.82945">
        <ele>569</ele>
        <time>2019-08-09T11:25:34Z</time>
      </trkpt>
      <trkpt lat="44.31599" lon="5.82947">
        <ele>569</ele>
        <time>2019-08-09T11:25:35Z</time>
      </trkpt>
      <trkpt lat="44.31601" lon="5.8295">
        <ele>569</ele>
        <time>2019-08-09T11:25:36Z</time>
      </trkpt>
      <trkpt lat="44.31603" lon="5.82953">
        <ele>569</ele>
        <time>2019-08-09T11:25:37Z</time>
      </trkpt>
      <trkpt lat="44.31603" lon="5.82957">
        <ele>569</ele>
        <time>2019-08-09T11:25:38Z</time>
      </trkpt>
      <trkpt lat="44.31603" lon="5.82959">
        <ele>569</ele>
        <time>2019-08-09T11:25:39Z</time>
      </trkpt>
      <trkpt lat="44.31602" lon="5.82961">
        <ele>569</ele>
        <time>2019-08-09T11:25:40Z</time>
      </trkpt>
      <trkpt lat="44.31602" lon="5.82963">
        <ele>569</ele>
        <time>2019-08-09T11:25:41Z</time>
      </trkpt>
      <trkpt lat="44.31602" lon="5.82965">
        <ele>569</ele>
        <time>2019-08-09T11:25:43Z</time>
      </trkpt>
      <trkpt lat="44.31602" lon="5.82966">
        <ele>572</ele>
        <time>2019-08-09T11:25:56Z</time>
      </trkpt>
      <trkpt lat="44.31602" lon="5.82966">
        <ele>572</ele>
        <time>2019-08-09T11:25:56Z</time>
      </trkpt>
    </trkseg>
  </trk>
</gpx>